<?xml version="1.0" encoding="UTF-8" standalone="no" ?>
<gpx xmlns="http://www.topografix.com/GPX/1/1" xmlns:xsi="http://www.w3.org/2001/XMLSchema-instance" xsi:schemaLocation="http://www.topografix.com/GPX/1/1 http://www.topografix.com/GPX/1/1/gpx.xsd" version="1.1" creator="VisuGPX - https://www.visugpx.com">
  <metadata>
    <name>Combe d\'Arclusaz</name>
    <desc><![CDATA[très belle rando ! la montée est progressive sur un chemin forestier. La descente a une partie un peu technique , obligeant a descendre du vélo mais le reste est plutôt sympa ! 
Pour les courageux il y a 30 minute de portage en plus pour aller jusqu\'au col ! ]]></desc>
  </metadata>
  <trk>
    <name><![CDATA[Combe d'Arclusaz]]></name>
    <trkseg>
      <trkpt lat="45.6572" lon="6.1763">
        <ele>835</ele>
        <time>2010-10-09T07:35:58Z</time>
      </trkpt>
      <trkpt lat="45.65725" lon="6.17613">
        <ele>835</ele>
        <time>2010-10-09T07:37:32Z</time>
      </trkpt>
      <trkpt lat="45.65723" lon="6.1762">
        <ele>835</ele>
        <time>2010-10-09T07:37:34Z</time>
      </trkpt>
      <trkpt lat="45.65722" lon="6.17624">
        <ele>835</ele>
        <time>2010-10-09T07:37:35Z</time>
      </trkpt>
      <trkpt lat="45.65721" lon="6.17628">
        <ele>835</ele>
        <time>2010-10-09T07:37:36Z</time>
      </trkpt>
      <trkpt lat="45.6572" lon="6.17632">
        <ele>835</ele>
        <time>2010-10-09T07:37:37Z</time>
      </trkpt>
      <trkpt lat="45.6572" lon="6.17639">
        <ele>835</ele>
        <time>2010-10-09T07:37:39Z</time>
      </trkpt>
      <trkpt lat="45.6572" lon="6.17642">
        <ele>835</ele>
        <time>2010-10-09T07:37:40Z</time>
      </trkpt>
      <trkpt lat="45.65719" lon="6.17645">
        <ele>835</ele>
        <time>2010-10-09T07:37:41Z</time>
      </trkpt>
      <trkpt lat="45.65717" lon="6.17651">
        <ele>835</ele>
        <time>2010-10-09T07:37:43Z</time>
      </trkpt>
      <trkpt lat="45.65715" lon="6.17658">
        <ele>835</ele>
        <time>2010-10-09T07:37:45Z</time>
      </trkpt>
      <trkpt lat="45.65714" lon="6.17664">
        <ele>835</ele>
        <time>2010-10-09T07:37:47Z</time>
      </trkpt>
      <trkpt lat="45.65714" lon="6.17666">
        <ele>835</ele>
        <time>2010-10-09T07:37:48Z</time>
      </trkpt>
      <trkpt lat="45.65715" lon="6.17672">
        <ele>837</ele>
        <time>2010-10-09T07:37:50Z</time>
      </trkpt>
      <trkpt lat="45.65714" lon="6.17679">
        <ele>837</ele>
        <time>2010-10-09T07:37:52Z</time>
      </trkpt>
      <trkpt lat="45.65713" lon="6.17686">
        <ele>837</ele>
        <time>2010-10-09T07:37:54Z</time>
      </trkpt>
      <trkpt lat="45.65712" lon="6.17694">
        <ele>837</ele>
        <time>2010-10-09T07:37:56Z</time>
      </trkpt>
      <trkpt lat="45.6571" lon="6.17701">
        <ele>837</ele>
        <time>2010-10-09T07:37:59Z</time>
      </trkpt>
      <trkpt lat="45.65709" lon="6.17708">
        <ele>837</ele>
        <time>2010-10-09T07:38:00Z</time>
      </trkpt>
      <trkpt lat="45.65707" lon="6.17715">
        <ele>837</ele>
        <time>2010-10-09T07:38:03Z</time>
      </trkpt>
      <trkpt lat="45.65706" lon="6.17725">
        <ele>837</ele>
        <time>2010-10-09T07:38:05Z</time>
      </trkpt>
      <trkpt lat="45.65706" lon="6.1773">
        <ele>837</ele>
        <time>2010-10-09T07:38:08Z</time>
      </trkpt>
      <trkpt lat="45.65706" lon="6.17735">
        <ele>837</ele>
        <time>2010-10-09T07:38:09Z</time>
      </trkpt>
      <trkpt lat="45.65703" lon="6.17745">
        <ele>837</ele>
        <time>2010-10-09T07:38:12Z</time>
      </trkpt>
      <trkpt lat="45.65699" lon="6.17749">
        <ele>837</ele>
        <time>2010-10-09T07:38:14Z</time>
      </trkpt>
      <trkpt lat="45.65696" lon="6.17751">
        <ele>839</ele>
        <time>2010-10-09T07:38:16Z</time>
      </trkpt>
      <trkpt lat="45.65694" lon="6.17752">
        <ele>839</ele>
        <time>2010-10-09T07:38:17Z</time>
      </trkpt>
      <trkpt lat="45.65686" lon="6.1775">
        <ele>839</ele>
        <time>2010-10-09T07:38:20Z</time>
      </trkpt>
      <trkpt lat="45.65681" lon="6.17749">
        <ele>838</ele>
        <time>2010-10-09T07:38:21Z</time>
      </trkpt>
      <trkpt lat="45.65665" lon="6.17741">
        <ele>836</ele>
        <time>2010-10-09T07:38:25Z</time>
      </trkpt>
      <trkpt lat="45.65657" lon="6.17736">
        <ele>835</ele>
        <time>2010-10-09T07:38:27Z</time>
      </trkpt>
      <trkpt lat="45.65642" lon="6.17725">
        <ele>833</ele>
        <time>2010-10-09T07:38:30Z</time>
      </trkpt>
      <trkpt lat="45.65633" lon="6.17716">
        <ele>832</ele>
        <time>2010-10-09T07:38:32Z</time>
      </trkpt>
      <trkpt lat="45.65615" lon="6.17712">
        <ele>831</ele>
        <time>2010-10-09T07:38:35Z</time>
      </trkpt>
      <trkpt lat="45.65602" lon="6.17716">
        <ele>831</ele>
        <time>2010-10-09T07:38:37Z</time>
      </trkpt>
      <trkpt lat="45.65581" lon="6.17725">
        <ele>828</ele>
        <time>2010-10-09T07:38:41Z</time>
      </trkpt>
      <trkpt lat="45.65576" lon="6.17727">
        <ele>828</ele>
        <time>2010-10-09T07:38:42Z</time>
      </trkpt>
      <trkpt lat="45.65556" lon="6.1774">
        <ele>828</ele>
        <time>2010-10-09T07:38:46Z</time>
      </trkpt>
      <trkpt lat="45.65552" lon="6.17742">
        <ele>828</ele>
        <time>2010-10-09T07:38:47Z</time>
      </trkpt>
      <trkpt lat="45.6554" lon="6.17747">
        <ele>828</ele>
        <time>2010-10-09T07:38:51Z</time>
      </trkpt>
      <trkpt lat="45.65528" lon="6.17747">
        <ele>828</ele>
        <time>2010-10-09T07:38:53Z</time>
      </trkpt>
      <trkpt lat="45.65525" lon="6.17746">
        <ele>828</ele>
        <time>2010-10-09T07:38:54Z</time>
      </trkpt>
      <trkpt lat="45.65512" lon="6.17737">
        <ele>828</ele>
        <time>2010-10-09T07:38:58Z</time>
      </trkpt>
      <trkpt lat="45.65509" lon="6.17734">
        <ele>828</ele>
        <time>2010-10-09T07:38:59Z</time>
      </trkpt>
      <trkpt lat="45.65507" lon="6.1773">
        <ele>828</ele>
        <time>2010-10-09T07:39:00Z</time>
      </trkpt>
      <trkpt lat="45.65501" lon="6.17718">
        <ele>827</ele>
        <time>2010-10-09T07:39:05Z</time>
      </trkpt>
      <trkpt lat="45.65493" lon="6.1771">
        <ele>826</ele>
        <time>2010-10-09T07:39:06Z</time>
      </trkpt>
      <trkpt lat="45.65475" lon="6.17706">
        <ele>826</ele>
        <time>2010-10-09T07:39:10Z</time>
      </trkpt>
      <trkpt lat="45.65468" lon="6.17705">
        <ele>826</ele>
        <time>2010-10-09T07:39:12Z</time>
      </trkpt>
      <trkpt lat="45.65457" lon="6.17701">
        <ele>826</ele>
        <time>2010-10-09T07:39:16Z</time>
      </trkpt>
      <trkpt lat="45.65445" lon="6.17697">
        <ele>825</ele>
        <time>2010-10-09T07:39:18Z</time>
      </trkpt>
      <trkpt lat="45.65433" lon="6.1769">
        <ele>825</ele>
        <time>2010-10-09T07:39:22Z</time>
      </trkpt>
      <trkpt lat="45.65424" lon="6.17687">
        <ele>824</ele>
        <time>2010-10-09T07:39:23Z</time>
      </trkpt>
      <trkpt lat="45.65411" lon="6.17684">
        <ele>824</ele>
        <time>2010-10-09T07:39:27Z</time>
      </trkpt>
      <trkpt lat="45.654" lon="6.17683">
        <ele>825</ele>
        <time>2010-10-09T07:39:29Z</time>
      </trkpt>
      <trkpt lat="45.65387" lon="6.17682">
        <ele>825</ele>
        <time>2010-10-09T07:39:33Z</time>
      </trkpt>
      <trkpt lat="45.65373" lon="6.17683">
        <ele>825</ele>
        <time>2010-10-09T07:39:35Z</time>
      </trkpt>
      <trkpt lat="45.65356" lon="6.17682">
        <ele>825</ele>
        <time>2010-10-09T07:39:39Z</time>
      </trkpt>
      <trkpt lat="45.65348" lon="6.17681">
        <ele>824</ele>
        <time>2010-10-09T07:39:41Z</time>
      </trkpt>
      <trkpt lat="45.65341" lon="6.17681">
        <ele>824</ele>
        <time>2010-10-09T07:39:45Z</time>
      </trkpt>
      <trkpt lat="45.65322" lon="6.1768">
        <ele>825</ele>
        <time>2010-10-09T07:39:47Z</time>
      </trkpt>
      <trkpt lat="45.65308" lon="6.17682">
        <ele>826</ele>
        <time>2010-10-09T07:39:51Z</time>
      </trkpt>
      <trkpt lat="45.653" lon="6.17684">
        <ele>827</ele>
        <time>2010-10-09T07:39:52Z</time>
      </trkpt>
      <trkpt lat="45.65292" lon="6.17682">
        <ele>827</ele>
        <time>2010-10-09T07:39:54Z</time>
      </trkpt>
      <trkpt lat="45.6528" lon="6.17676">
        <ele>827</ele>
        <time>2010-10-09T07:40:00Z</time>
      </trkpt>
      <trkpt lat="45.65261" lon="6.17664">
        <ele>822</ele>
        <time>2010-10-09T07:40:05Z</time>
      </trkpt>
      <trkpt lat="45.65245" lon="6.17657">
        <ele>824</ele>
        <time>2010-10-09T07:40:07Z</time>
      </trkpt>
      <trkpt lat="45.65236" lon="6.17653">
        <ele>824</ele>
        <time>2010-10-09T07:40:11Z</time>
      </trkpt>
      <trkpt lat="45.65226" lon="6.17652">
        <ele>824</ele>
        <time>2010-10-09T07:40:13Z</time>
      </trkpt>
      <trkpt lat="45.65214" lon="6.17649">
        <ele>825</ele>
        <time>2010-10-09T07:40:19Z</time>
      </trkpt>
      <trkpt lat="45.65207" lon="6.17648">
        <ele>825</ele>
        <time>2010-10-09T07:40:20Z</time>
      </trkpt>
      <trkpt lat="45.65203" lon="6.17647">
        <ele>825</ele>
        <time>2010-10-09T07:40:25Z</time>
      </trkpt>
      <trkpt lat="45.65195" lon="6.17646">
        <ele>826</ele>
        <time>2010-10-09T07:40:27Z</time>
      </trkpt>
      <trkpt lat="45.65191" lon="6.17645">
        <ele>826</ele>
        <time>2010-10-09T07:40:31Z</time>
      </trkpt>
      <trkpt lat="45.65187" lon="6.17645">
        <ele>827</ele>
        <time>2010-10-09T07:40:33Z</time>
      </trkpt>
      <trkpt lat="45.65183" lon="6.17644">
        <ele>827</ele>
        <time>2010-10-09T07:40:37Z</time>
      </trkpt>
      <trkpt lat="45.65179" lon="6.17642">
        <ele>827</ele>
        <time>2010-10-09T07:40:39Z</time>
      </trkpt>
      <trkpt lat="45.65173" lon="6.1764">
        <ele>827</ele>
        <time>2010-10-09T07:40:43Z</time>
      </trkpt>
      <trkpt lat="45.65172" lon="6.17639">
        <ele>827</ele>
        <time>2010-10-09T07:40:44Z</time>
      </trkpt>
      <trkpt lat="45.65168" lon="6.1764">
        <ele>827</ele>
        <time>2010-10-09T07:40:49Z</time>
      </trkpt>
      <trkpt lat="45.65163" lon="6.17644">
        <ele>830</ele>
        <time>2010-10-09T07:40:51Z</time>
      </trkpt>
      <trkpt lat="45.6516" lon="6.17647">
        <ele>831</ele>
        <time>2010-10-09T07:40:54Z</time>
      </trkpt>
      <trkpt lat="45.65156" lon="6.17649">
        <ele>831</ele>
        <time>2010-10-09T07:40:56Z</time>
      </trkpt>
      <trkpt lat="45.65154" lon="6.1765">
        <ele>831</ele>
        <time>2010-10-09T07:40:57Z</time>
      </trkpt>
      <trkpt lat="45.6515" lon="6.17652">
        <ele>831</ele>
        <time>2010-10-09T07:41:01Z</time>
      </trkpt>
      <trkpt lat="45.65146" lon="6.17654">
        <ele>831</ele>
        <time>2010-10-09T07:41:02Z</time>
      </trkpt>
      <trkpt lat="45.6514" lon="6.17659">
        <ele>831</ele>
        <time>2010-10-09T07:41:06Z</time>
      </trkpt>
      <trkpt lat="45.65136" lon="6.17662">
        <ele>831</ele>
        <time>2010-10-09T07:41:07Z</time>
      </trkpt>
      <trkpt lat="45.65126" lon="6.17669">
        <ele>841</ele>
        <time>2010-10-09T07:41:12Z</time>
      </trkpt>
      <trkpt lat="45.65122" lon="6.17672">
        <ele>841</ele>
        <time>2010-10-09T07:41:14Z</time>
      </trkpt>
      <trkpt lat="45.65116" lon="6.17675">
        <ele>841</ele>
        <time>2010-10-09T07:41:18Z</time>
      </trkpt>
      <trkpt lat="45.65112" lon="6.17677">
        <ele>841</ele>
        <time>2010-10-09T07:41:19Z</time>
      </trkpt>
      <trkpt lat="45.65107" lon="6.17681">
        <ele>841</ele>
        <time>2010-10-09T07:41:23Z</time>
      </trkpt>
      <trkpt lat="45.65102" lon="6.17684">
        <ele>841</ele>
        <time>2010-10-09T07:41:25Z</time>
      </trkpt>
      <trkpt lat="45.65099" lon="6.17685">
        <ele>841</ele>
        <time>2010-10-09T07:41:26Z</time>
      </trkpt>
      <trkpt lat="45.65092" lon="6.17689">
        <ele>842</ele>
        <time>2010-10-09T07:41:30Z</time>
      </trkpt>
      <trkpt lat="45.65091" lon="6.1769">
        <ele>842</ele>
        <time>2010-10-09T07:41:31Z</time>
      </trkpt>
      <trkpt lat="45.65088" lon="6.17692">
        <ele>842</ele>
        <time>2010-10-09T07:41:35Z</time>
      </trkpt>
      <trkpt lat="45.65082" lon="6.17697">
        <ele>843</ele>
        <time>2010-10-09T07:41:37Z</time>
      </trkpt>
      <trkpt lat="45.65078" lon="6.17697">
        <ele>843</ele>
        <time>2010-10-09T07:41:41Z</time>
      </trkpt>
      <trkpt lat="45.65068" lon="6.17702">
        <ele>844</ele>
        <time>2010-10-09T07:41:47Z</time>
      </trkpt>
      <trkpt lat="45.65065" lon="6.17703">
        <ele>844</ele>
        <time>2010-10-09T07:41:49Z</time>
      </trkpt>
      <trkpt lat="45.65059" lon="6.17704">
        <ele>844</ele>
        <time>2010-10-09T07:41:53Z</time>
      </trkpt>
      <trkpt lat="45.65057" lon="6.17705">
        <ele>844</ele>
        <time>2010-10-09T07:41:54Z</time>
      </trkpt>
      <trkpt lat="45.65051" lon="6.17708">
        <ele>845</ele>
        <time>2010-10-09T07:41:59Z</time>
      </trkpt>
      <trkpt lat="45.65045" lon="6.1771">
        <ele>845</ele>
        <time>2010-10-09T07:42:00Z</time>
      </trkpt>
      <trkpt lat="45.6504" lon="6.17711">
        <ele>845</ele>
        <time>2010-10-09T07:42:04Z</time>
      </trkpt>
      <trkpt lat="45.65032" lon="6.17713">
        <ele>845</ele>
        <time>2010-10-09T07:42:06Z</time>
      </trkpt>
      <trkpt lat="45.65028" lon="6.17713">
        <ele>845</ele>
        <time>2010-10-09T07:42:10Z</time>
      </trkpt>
      <trkpt lat="45.65019" lon="6.17713">
        <ele>845</ele>
        <time>2010-10-09T07:42:12Z</time>
      </trkpt>
      <trkpt lat="45.65013" lon="6.17713">
        <ele>845</ele>
        <time>2010-10-09T07:42:16Z</time>
      </trkpt>
      <trkpt lat="45.65007" lon="6.17713">
        <ele>845</ele>
        <time>2010-10-09T07:42:18Z</time>
      </trkpt>
      <trkpt lat="45.65" lon="6.17711">
        <ele>844</ele>
        <time>2010-10-09T07:42:22Z</time>
      </trkpt>
      <trkpt lat="45.64994" lon="6.17712">
        <ele>836</ele>
        <time>2010-10-09T07:42:24Z</time>
      </trkpt>
      <trkpt lat="45.64985" lon="6.17715">
        <ele>836</ele>
        <time>2010-10-09T07:42:29Z</time>
      </trkpt>
      <trkpt lat="45.64983" lon="6.17715">
        <ele>836</ele>
        <time>2010-10-09T07:42:30Z</time>
      </trkpt>
      <trkpt lat="45.64979" lon="6.17716">
        <ele>835</ele>
        <time>2010-10-09T07:42:35Z</time>
      </trkpt>
      <trkpt lat="45.64974" lon="6.17718">
        <ele>835</ele>
        <time>2010-10-09T07:42:37Z</time>
      </trkpt>
      <trkpt lat="45.6497" lon="6.17721">
        <ele>835</ele>
        <time>2010-10-09T07:42:41Z</time>
      </trkpt>
      <trkpt lat="45.64966" lon="6.17724">
        <ele>835</ele>
        <time>2010-10-09T07:42:43Z</time>
      </trkpt>
      <trkpt lat="45.64961" lon="6.17728">
        <ele>835</ele>
        <time>2010-10-09T07:42:47Z</time>
      </trkpt>
      <trkpt lat="45.64954" lon="6.17733">
        <ele>834</ele>
        <time>2010-10-09T07:42:54Z</time>
      </trkpt>
      <trkpt lat="45.6495" lon="6.17738">
        <ele>834</ele>
        <time>2010-10-09T07:42:55Z</time>
      </trkpt>
      <trkpt lat="45.64947" lon="6.17741">
        <ele>834</ele>
        <time>2010-10-09T07:43:00Z</time>
      </trkpt>
      <trkpt lat="45.64941" lon="6.17747">
        <ele>834</ele>
        <time>2010-10-09T07:43:02Z</time>
      </trkpt>
      <trkpt lat="45.64936" lon="6.17751">
        <ele>845</ele>
        <time>2010-10-09T07:43:06Z</time>
      </trkpt>
      <trkpt lat="45.64933" lon="6.17756">
        <ele>844</ele>
        <time>2010-10-09T07:43:08Z</time>
      </trkpt>
      <trkpt lat="45.64929" lon="6.17761">
        <ele>844</ele>
        <time>2010-10-09T07:43:13Z</time>
      </trkpt>
      <trkpt lat="45.64925" lon="6.17765">
        <ele>844</ele>
        <time>2010-10-09T07:43:14Z</time>
      </trkpt>
      <trkpt lat="45.64921" lon="6.17769">
        <ele>845</ele>
        <time>2010-10-09T07:43:19Z</time>
      </trkpt>
      <trkpt lat="45.64915" lon="6.17778">
        <ele>830</ele>
        <time>2010-10-09T07:43:21Z</time>
      </trkpt>
      <trkpt lat="45.64911" lon="6.17783">
        <ele>830</ele>
        <time>2010-10-09T07:43:25Z</time>
      </trkpt>
      <trkpt lat="45.64905" lon="6.17794">
        <ele>831</ele>
        <time>2010-10-09T07:43:27Z</time>
      </trkpt>
      <trkpt lat="45.64891" lon="6.17817">
        <ele>833</ele>
        <time>2010-10-09T07:43:32Z</time>
      </trkpt>
      <trkpt lat="45.64888" lon="6.17823">
        <ele>833</ele>
        <time>2010-10-09T07:43:33Z</time>
      </trkpt>
      <trkpt lat="45.6488" lon="6.17841">
        <ele>842</ele>
        <time>2010-10-09T07:43:38Z</time>
      </trkpt>
      <trkpt lat="45.64867" lon="6.17861">
        <ele>839</ele>
        <time>2010-10-09T07:43:40Z</time>
      </trkpt>
      <trkpt lat="45.6486" lon="6.17874">
        <ele>839</ele>
        <time>2010-10-09T07:43:46Z</time>
      </trkpt>
      <trkpt lat="45.64849" lon="6.17917">
        <ele>844</ele>
        <time>2010-10-09T07:43:47Z</time>
      </trkpt>
      <trkpt lat="45.64847" lon="6.17949">
        <ele>850</ele>
        <time>2010-10-09T07:43:52Z</time>
      </trkpt>
      <trkpt lat="45.64842" lon="6.17967">
        <ele>852</ele>
        <time>2010-10-09T07:43:53Z</time>
      </trkpt>
      <trkpt lat="45.6484" lon="6.17975">
        <ele>852</ele>
        <time>2010-10-09T07:43:54Z</time>
      </trkpt>
      <trkpt lat="45.6483" lon="6.17998">
        <ele>843</ele>
        <time>2010-10-09T07:43:58Z</time>
      </trkpt>
      <trkpt lat="45.64822" lon="6.18022">
        <ele>835</ele>
        <time>2010-10-09T07:44:00Z</time>
      </trkpt>
      <trkpt lat="45.64818" lon="6.1804">
        <ele>834</ele>
        <time>2010-10-09T07:44:03Z</time>
      </trkpt>
      <trkpt lat="45.64813" lon="6.18061">
        <ele>835</ele>
        <time>2010-10-09T07:44:05Z</time>
      </trkpt>
      <trkpt lat="45.64809" lon="6.18075">
        <ele>836</ele>
        <time>2010-10-09T07:44:09Z</time>
      </trkpt>
      <trkpt lat="45.64809" lon="6.18105">
        <ele>838</ele>
        <time>2010-10-09T07:44:11Z</time>
      </trkpt>
      <trkpt lat="45.64808" lon="6.18123">
        <ele>838</ele>
        <time>2010-10-09T07:44:13Z</time>
      </trkpt>
      <trkpt lat="45.64806" lon="6.18146">
        <ele>839</ele>
        <time>2010-10-09T07:44:17Z</time>
      </trkpt>
      <trkpt lat="45.64801" lon="6.18162">
        <ele>838</ele>
        <time>2010-10-09T07:44:18Z</time>
      </trkpt>
      <trkpt lat="45.64798" lon="6.18169">
        <ele>842</ele>
        <time>2010-10-09T07:44:19Z</time>
      </trkpt>
      <trkpt lat="45.64782" lon="6.18196">
        <ele>838</ele>
        <time>2010-10-09T07:44:23Z</time>
      </trkpt>
      <trkpt lat="45.64777" lon="6.18202">
        <ele>837</ele>
        <time>2010-10-09T07:44:24Z</time>
      </trkpt>
      <trkpt lat="45.64758" lon="6.18224">
        <ele>834</ele>
        <time>2010-10-09T07:44:28Z</time>
      </trkpt>
      <trkpt lat="45.64746" lon="6.1825">
        <ele>824</ele>
        <time>2010-10-09T07:44:30Z</time>
      </trkpt>
      <trkpt lat="45.64737" lon="6.18267">
        <ele>823</ele>
        <time>2010-10-09T07:44:34Z</time>
      </trkpt>
      <trkpt lat="45.6472" lon="6.18275">
        <ele>820</ele>
        <time>2010-10-09T07:44:36Z</time>
      </trkpt>
      <trkpt lat="45.64713" lon="6.18273">
        <ele>819</ele>
        <time>2010-10-09T07:44:38Z</time>
      </trkpt>
      <trkpt lat="45.64698" lon="6.18288">
        <ele>818</ele>
        <time>2010-10-09T07:44:42Z</time>
      </trkpt>
      <trkpt lat="45.64695" lon="6.18294">
        <ele>818</ele>
        <time>2010-10-09T07:44:43Z</time>
      </trkpt>
      <trkpt lat="45.64691" lon="6.18301">
        <ele>817</ele>
        <time>2010-10-09T07:44:44Z</time>
      </trkpt>
      <trkpt lat="45.64683" lon="6.18322">
        <ele>816</ele>
        <time>2010-10-09T07:44:48Z</time>
      </trkpt>
      <trkpt lat="45.64677" lon="6.18337">
        <ele>818</ele>
        <time>2010-10-09T07:44:50Z</time>
      </trkpt>
      <trkpt lat="45.64674" lon="6.18345">
        <ele>819</ele>
        <time>2010-10-09T07:44:54Z</time>
      </trkpt>
      <trkpt lat="45.64668" lon="6.18361">
        <ele>823</ele>
        <time>2010-10-09T07:44:56Z</time>
      </trkpt>
      <trkpt lat="45.64665" lon="6.18369">
        <ele>807</ele>
        <time>2010-10-09T07:45:00Z</time>
      </trkpt>
      <trkpt lat="45.64661" lon="6.18389">
        <ele>809</ele>
        <time>2010-10-09T07:45:02Z</time>
      </trkpt>
      <trkpt lat="45.64659" lon="6.18404">
        <ele>813</ele>
        <time>2010-10-09T07:45:06Z</time>
      </trkpt>
      <trkpt lat="45.64656" lon="6.18426">
        <ele>818</ele>
        <time>2010-10-09T07:45:08Z</time>
      </trkpt>
      <trkpt lat="45.64654" lon="6.18446">
        <ele>816</ele>
        <time>2010-10-09T07:45:12Z</time>
      </trkpt>
      <trkpt lat="45.64644" lon="6.18453">
        <ele>815</ele>
        <time>2010-10-09T07:45:14Z</time>
      </trkpt>
      <trkpt lat="45.64641" lon="6.18452">
        <ele>814</ele>
        <time>2010-10-09T07:45:15Z</time>
      </trkpt>
      <trkpt lat="45.64636" lon="6.18452">
        <ele>813</ele>
        <time>2010-10-09T07:45:16Z</time>
      </trkpt>
      <trkpt lat="45.64624" lon="6.18451">
        <ele>811</ele>
        <time>2010-10-09T07:45:21Z</time>
      </trkpt>
      <trkpt lat="45.64594" lon="6.18463">
        <ele>807</ele>
        <time>2010-10-09T07:45:23Z</time>
      </trkpt>
      <trkpt lat="45.64575" lon="6.18488">
        <ele>795</ele>
        <time>2010-10-09T07:45:28Z</time>
      </trkpt>
      <trkpt lat="45.64568" lon="6.18504">
        <ele>798</ele>
        <time>2010-10-09T07:45:30Z</time>
      </trkpt>
      <trkpt lat="45.64566" lon="6.18511">
        <ele>798</ele>
        <time>2010-10-09T07:45:31Z</time>
      </trkpt>
      <trkpt lat="45.6456" lon="6.18523">
        <ele>797</ele>
        <time>2010-10-09T07:45:35Z</time>
      </trkpt>
      <trkpt lat="45.64557" lon="6.18544">
        <ele>798</ele>
        <time>2010-10-09T07:45:37Z</time>
      </trkpt>
      <trkpt lat="45.64552" lon="6.18549">
        <ele>798</ele>
        <time>2010-10-09T07:45:39Z</time>
      </trkpt>
      <trkpt lat="45.64553" lon="6.18552">
        <ele>798</ele>
        <time>2010-10-09T07:45:40Z</time>
      </trkpt>
      <trkpt lat="45.64557" lon="6.18553">
        <ele>798</ele>
        <time>2010-10-09T07:45:45Z</time>
      </trkpt>
      <trkpt lat="45.64559" lon="6.18554">
        <ele>799</ele>
        <time>2010-10-09T07:45:47Z</time>
      </trkpt>
      <trkpt lat="45.64559" lon="6.18559">
        <ele>799</ele>
        <time>2010-10-09T07:45:53Z</time>
      </trkpt>
      <trkpt lat="45.64558" lon="6.18561">
        <ele>799</ele>
        <time>2010-10-09T07:45:54Z</time>
      </trkpt>
      <trkpt lat="45.64555" lon="6.1856">
        <ele>799</ele>
        <time>2010-10-09T07:46:01Z</time>
      </trkpt>
      <trkpt lat="45.64553" lon="6.18554">
        <ele>798</ele>
        <time>2010-10-09T07:46:02Z</time>
      </trkpt>
      <trkpt lat="45.64552" lon="6.18552">
        <ele>798</ele>
        <time>2010-10-09T07:46:03Z</time>
      </trkpt>
      <trkpt lat="45.64552" lon="6.18543">
        <ele>797</ele>
        <time>2010-10-09T07:46:09Z</time>
      </trkpt>
      <trkpt lat="45.64543" lon="6.18531">
        <ele>795</ele>
        <time>2010-10-09T07:46:10Z</time>
      </trkpt>
      <trkpt lat="45.64541" lon="6.1853">
        <ele>795</ele>
        <time>2010-10-09T07:46:11Z</time>
      </trkpt>
      <trkpt lat="45.6454" lon="6.18528">
        <ele>795</ele>
        <time>2010-10-09T07:46:17Z</time>
      </trkpt>
      <trkpt lat="45.64526" lon="6.18516">
        <ele>791</ele>
        <time>2010-10-09T07:46:18Z</time>
      </trkpt>
      <trkpt lat="45.64524" lon="6.18517">
        <ele>791</ele>
        <time>2010-10-09T07:46:19Z</time>
      </trkpt>
      <trkpt lat="45.64514" lon="6.18514">
        <ele>788</ele>
        <time>2010-10-09T07:46:24Z</time>
      </trkpt>
      <trkpt lat="45.64507" lon="6.18513">
        <ele>786</ele>
        <time>2010-10-09T07:46:33Z</time>
      </trkpt>
      <trkpt lat="45.64508" lon="6.18509">
        <ele>785</ele>
        <time>2010-10-09T07:46:45Z</time>
      </trkpt>
      <trkpt lat="45.6451" lon="6.18508">
        <ele>786</ele>
        <time>2010-10-09T07:46:47Z</time>
      </trkpt>
      <trkpt lat="45.64511" lon="6.18509">
        <ele>786</ele>
        <time>2010-10-09T07:46:50Z</time>
      </trkpt>
      <trkpt lat="45.6451" lon="6.18508">
        <ele>786</ele>
        <time>2010-10-09T07:46:51Z</time>
      </trkpt>
      <trkpt lat="45.6451" lon="6.18504">
        <ele>785</ele>
        <time>2010-10-09T07:46:59Z</time>
      </trkpt>
      <trkpt lat="45.6451" lon="6.18502">
        <ele>785</ele>
        <time>2010-10-09T07:47:01Z</time>
      </trkpt>
      <trkpt lat="45.64508" lon="6.18499">
        <ele>781</ele>
        <time>2010-10-09T07:47:02Z</time>
      </trkpt>
      <trkpt lat="45.64505" lon="6.18498">
        <ele>781</ele>
        <time>2010-10-09T07:47:04Z</time>
      </trkpt>
      <trkpt lat="45.64502" lon="6.18496">
        <ele>780</ele>
        <time>2010-10-09T07:47:07Z</time>
      </trkpt>
      <trkpt lat="45.64503" lon="6.18496">
        <ele>780</ele>
        <time>2010-10-09T07:47:17Z</time>
      </trkpt>
      <trkpt lat="45.645" lon="6.18493">
        <ele>779</ele>
        <time>2010-10-09T07:47:21Z</time>
      </trkpt>
      <trkpt lat="45.64502" lon="6.18495">
        <ele>781</ele>
        <time>2010-10-09T07:47:25Z</time>
      </trkpt>
      <trkpt lat="45.64504" lon="6.18496">
        <ele>781</ele>
        <time>2010-10-09T07:47:26Z</time>
      </trkpt>
      <trkpt lat="45.64505" lon="6.18496">
        <ele>781</ele>
        <time>2010-10-09T07:47:28Z</time>
      </trkpt>
      <trkpt lat="45.64504" lon="6.18497">
        <ele>780</ele>
        <time>2010-10-09T07:47:31Z</time>
      </trkpt>
      <trkpt lat="45.64501" lon="6.18499">
        <ele>780</ele>
        <time>2010-10-09T07:47:33Z</time>
      </trkpt>
      <trkpt lat="45.64502" lon="6.185">
        <ele>780</ele>
        <time>2010-10-09T07:47:38Z</time>
      </trkpt>
      <trkpt lat="45.64503" lon="6.18503">
        <ele>781</ele>
        <time>2010-10-09T07:47:41Z</time>
      </trkpt>
      <trkpt lat="45.64503" lon="6.18505">
        <ele>782</ele>
        <time>2010-10-09T07:47:44Z</time>
      </trkpt>
      <trkpt lat="45.64503" lon="6.18506">
        <ele>783</ele>
        <time>2010-10-09T07:47:47Z</time>
      </trkpt>
      <trkpt lat="45.64502" lon="6.18508">
        <ele>784</ele>
        <time>2010-10-09T07:47:50Z</time>
      </trkpt>
      <trkpt lat="45.64504" lon="6.18512">
        <ele>786</ele>
        <time>2010-10-09T07:47:57Z</time>
      </trkpt>
      <trkpt lat="45.64506" lon="6.18512">
        <ele>786</ele>
        <time>2010-10-09T07:47:59Z</time>
      </trkpt>
      <trkpt lat="45.64508" lon="6.18513">
        <ele>787</ele>
        <time>2010-10-09T07:48:02Z</time>
      </trkpt>
      <trkpt lat="45.6451" lon="6.18513">
        <ele>787</ele>
        <time>2010-10-09T07:48:05Z</time>
      </trkpt>
      <trkpt lat="45.64513" lon="6.18514">
        <ele>788</ele>
        <time>2010-10-09T07:48:08Z</time>
      </trkpt>
      <trkpt lat="45.64514" lon="6.18515">
        <ele>788</ele>
        <time>2010-10-09T07:48:10Z</time>
      </trkpt>
      <trkpt lat="45.64516" lon="6.18515">
        <ele>789</ele>
        <time>2010-10-09T07:48:13Z</time>
      </trkpt>
      <trkpt lat="45.64518" lon="6.18516">
        <ele>789</ele>
        <time>2010-10-09T07:48:16Z</time>
      </trkpt>
      <trkpt lat="45.64513" lon="6.18513">
        <ele>788</ele>
        <time>2010-10-09T07:48:25Z</time>
      </trkpt>
      <trkpt lat="45.64511" lon="6.18512">
        <ele>787</ele>
        <time>2010-10-09T07:48:27Z</time>
      </trkpt>
      <trkpt lat="45.6451" lon="6.18511">
        <ele>787</ele>
        <time>2010-10-09T07:48:28Z</time>
      </trkpt>
      <trkpt lat="45.64508" lon="6.18511">
        <ele>786</ele>
        <time>2010-10-09T07:48:29Z</time>
      </trkpt>
      <trkpt lat="45.64507" lon="6.1851">
        <ele>785</ele>
        <time>2010-10-09T07:48:31Z</time>
      </trkpt>
      <trkpt lat="45.64504" lon="6.18508">
        <ele>784</ele>
        <time>2010-10-09T07:48:35Z</time>
      </trkpt>
      <trkpt lat="45.64507" lon="6.18508">
        <ele>785</ele>
        <time>2010-10-09T07:48:36Z</time>
      </trkpt>
      <trkpt lat="45.64505" lon="6.18508">
        <ele>784</ele>
        <time>2010-10-09T07:48:42Z</time>
      </trkpt>
      <trkpt lat="45.64503" lon="6.18508">
        <ele>784</ele>
        <time>2010-10-09T07:48:43Z</time>
      </trkpt>
      <trkpt lat="45.64498" lon="6.18506">
        <ele>780</ele>
        <time>2010-10-09T07:48:52Z</time>
      </trkpt>
      <trkpt lat="45.64495" lon="6.18505">
        <ele>780</ele>
        <time>2010-10-09T07:48:54Z</time>
      </trkpt>
      <trkpt lat="45.6449" lon="6.18504">
        <ele>780</ele>
        <time>2010-10-09T07:48:58Z</time>
      </trkpt>
      <trkpt lat="45.64492" lon="6.18504">
        <ele>780</ele>
        <time>2010-10-09T07:48:59Z</time>
      </trkpt>
      <trkpt lat="45.64497" lon="6.18506">
        <ele>780</ele>
        <time>2010-10-09T07:49:01Z</time>
      </trkpt>
      <trkpt lat="45.64496" lon="6.18505">
        <ele>780</ele>
        <time>2010-10-09T07:49:06Z</time>
      </trkpt>
      <trkpt lat="45.64493" lon="6.18505">
        <ele>780</ele>
        <time>2010-10-09T07:49:11Z</time>
      </trkpt>
      <trkpt lat="45.64492" lon="6.18504">
        <ele>780</ele>
        <time>2010-10-09T07:49:12Z</time>
      </trkpt>
      <trkpt lat="45.64489" lon="6.18504">
        <ele>780</ele>
        <time>2010-10-09T07:49:14Z</time>
      </trkpt>
      <trkpt lat="45.64488" lon="6.18503">
        <ele>780</ele>
        <time>2010-10-09T07:49:18Z</time>
      </trkpt>
      <trkpt lat="45.64498" lon="6.18506">
        <ele>780</ele>
        <time>2010-10-09T07:49:26Z</time>
      </trkpt>
      <trkpt lat="45.64497" lon="6.18506">
        <ele>780</ele>
        <time>2010-10-09T07:49:28Z</time>
      </trkpt>
      <trkpt lat="45.64495" lon="6.18506">
        <ele>780</ele>
        <time>2010-10-09T07:49:30Z</time>
      </trkpt>
      <trkpt lat="45.64501" lon="6.18507">
        <ele>783</ele>
        <time>2010-10-09T07:49:33Z</time>
      </trkpt>
      <trkpt lat="45.64498" lon="6.18507">
        <ele>780</ele>
        <time>2010-10-09T07:49:40Z</time>
      </trkpt>
      <trkpt lat="45.64495" lon="6.18506">
        <ele>780</ele>
        <time>2010-10-09T07:49:41Z</time>
      </trkpt>
      <trkpt lat="45.64492" lon="6.18505">
        <ele>780</ele>
        <time>2010-10-09T07:49:43Z</time>
      </trkpt>
      <trkpt lat="45.64491" lon="6.18505">
        <ele>780</ele>
        <time>2010-10-09T07:49:45Z</time>
      </trkpt>
      <trkpt lat="45.64489" lon="6.18505">
        <ele>780</ele>
        <time>2010-10-09T07:49:46Z</time>
      </trkpt>
      <trkpt lat="45.64488" lon="6.18504">
        <ele>780</ele>
        <time>2010-10-09T07:49:48Z</time>
      </trkpt>
      <trkpt lat="45.64486" lon="6.18504">
        <ele>780</ele>
        <time>2010-10-09T07:49:50Z</time>
      </trkpt>
      <trkpt lat="45.64485" lon="6.18504">
        <ele>780</ele>
        <time>2010-10-09T07:49:52Z</time>
      </trkpt>
      <trkpt lat="45.64484" lon="6.18503">
        <ele>780</ele>
        <time>2010-10-09T07:49:55Z</time>
      </trkpt>
      <trkpt lat="45.64483" lon="6.18503">
        <ele>780</ele>
        <time>2010-10-09T07:49:59Z</time>
      </trkpt>
      <trkpt lat="45.64481" lon="6.18503">
        <ele>780</ele>
        <time>2010-10-09T07:50:02Z</time>
      </trkpt>
      <trkpt lat="45.64481" lon="6.18504">
        <ele>780</ele>
        <time>2010-10-09T07:50:06Z</time>
      </trkpt>
      <trkpt lat="45.64497" lon="6.18509">
        <ele>780</ele>
        <time>2010-10-09T07:50:07Z</time>
      </trkpt>
      <trkpt lat="45.64495" lon="6.18509">
        <ele>780</ele>
        <time>2010-10-09T07:50:09Z</time>
      </trkpt>
      <trkpt lat="45.64492" lon="6.18508">
        <ele>780</ele>
        <time>2010-10-09T07:50:12Z</time>
      </trkpt>
      <trkpt lat="45.6449" lon="6.18508">
        <ele>780</ele>
        <time>2010-10-09T07:50:14Z</time>
      </trkpt>
      <trkpt lat="45.64489" lon="6.18508">
        <ele>780</ele>
        <time>2010-10-09T07:50:15Z</time>
      </trkpt>
      <trkpt lat="45.64487" lon="6.18507">
        <ele>780</ele>
        <time>2010-10-09T07:50:18Z</time>
      </trkpt>
      <trkpt lat="45.64488" lon="6.18507">
        <ele>780</ele>
        <time>2010-10-09T07:50:20Z</time>
      </trkpt>
      <trkpt lat="45.64481" lon="6.18505">
        <ele>780</ele>
        <time>2010-10-09T07:50:22Z</time>
      </trkpt>
      <trkpt lat="45.64483" lon="6.18505">
        <ele>780</ele>
        <time>2010-10-09T07:50:26Z</time>
      </trkpt>
      <trkpt lat="45.64484" lon="6.18505">
        <ele>780</ele>
        <time>2010-10-09T07:50:27Z</time>
      </trkpt>
      <trkpt lat="45.64489" lon="6.18507">
        <ele>780</ele>
        <time>2010-10-09T07:50:29Z</time>
      </trkpt>
      <trkpt lat="45.64491" lon="6.18507">
        <ele>780</ele>
        <time>2010-10-09T07:50:31Z</time>
      </trkpt>
      <trkpt lat="45.64492" lon="6.18508">
        <ele>780</ele>
        <time>2010-10-09T07:50:33Z</time>
      </trkpt>
      <trkpt lat="45.64491" lon="6.18505">
        <ele>780</ele>
        <time>2010-10-09T07:50:38Z</time>
      </trkpt>
      <trkpt lat="45.645" lon="6.18507">
        <ele>780</ele>
        <time>2010-10-09T07:50:45Z</time>
      </trkpt>
      <trkpt lat="45.64497" lon="6.1851">
        <ele>780</ele>
        <time>2010-10-09T07:50:47Z</time>
      </trkpt>
      <trkpt lat="45.64494" lon="6.1851">
        <ele>780</ele>
        <time>2010-10-09T07:50:49Z</time>
      </trkpt>
      <trkpt lat="45.64497" lon="6.18513">
        <ele>780</ele>
        <time>2010-10-09T07:50:57Z</time>
      </trkpt>
      <trkpt lat="45.64484" lon="6.18509">
        <ele>781</ele>
        <time>2010-10-09T07:51:03Z</time>
      </trkpt>
      <trkpt lat="45.64477" lon="6.18506">
        <ele>781</ele>
        <time>2010-10-09T07:51:05Z</time>
      </trkpt>
      <trkpt lat="45.64474" lon="6.18505">
        <ele>781</ele>
        <time>2010-10-09T07:51:06Z</time>
      </trkpt>
      <trkpt lat="45.64479" lon="6.18506">
        <ele>781</ele>
        <time>2010-10-09T07:51:10Z</time>
      </trkpt>
      <trkpt lat="45.64481" lon="6.18506">
        <ele>780</ele>
        <time>2010-10-09T07:51:12Z</time>
      </trkpt>
      <trkpt lat="45.64484" lon="6.18507">
        <ele>780</ele>
        <time>2010-10-09T07:51:13Z</time>
      </trkpt>
      <trkpt lat="45.64486" lon="6.18505">
        <ele>780</ele>
        <time>2010-10-09T07:51:16Z</time>
      </trkpt>
      <trkpt lat="45.64488" lon="6.18505">
        <ele>780</ele>
        <time>2010-10-09T07:51:19Z</time>
      </trkpt>
      <trkpt lat="45.64498" lon="6.18502">
        <ele>779</ele>
        <time>2010-10-09T07:51:25Z</time>
      </trkpt>
      <trkpt lat="45.64501" lon="6.18502">
        <ele>781</ele>
        <time>2010-10-09T07:51:26Z</time>
      </trkpt>
      <trkpt lat="45.645" lon="6.18501">
        <ele>780</ele>
        <time>2010-10-09T07:51:29Z</time>
      </trkpt>
      <trkpt lat="45.64503" lon="6.18501">
        <ele>781</ele>
        <time>2010-10-09T07:51:31Z</time>
      </trkpt>
      <trkpt lat="45.64498" lon="6.18496">
        <ele>779</ele>
        <time>2010-10-09T07:51:36Z</time>
      </trkpt>
      <trkpt lat="45.64494" lon="6.18496">
        <ele>779</ele>
        <time>2010-10-09T07:51:37Z</time>
      </trkpt>
      <trkpt lat="45.64491" lon="6.18495">
        <ele>778</ele>
        <time>2010-10-09T07:51:39Z</time>
      </trkpt>
      <trkpt lat="45.64489" lon="6.18495">
        <ele>778</ele>
        <time>2010-10-09T07:51:40Z</time>
      </trkpt>
      <trkpt lat="45.64487" lon="6.18497">
        <ele>778</ele>
        <time>2010-10-09T07:51:50Z</time>
      </trkpt>
      <trkpt lat="45.64488" lon="6.18498">
        <ele>778</ele>
        <time>2010-10-09T07:51:51Z</time>
      </trkpt>
      <trkpt lat="45.64492" lon="6.18506">
        <ele>780</ele>
        <time>2010-10-09T07:51:54Z</time>
      </trkpt>
      <trkpt lat="45.64494" lon="6.18508">
        <ele>780</ele>
        <time>2010-10-09T07:51:56Z</time>
      </trkpt>
      <trkpt lat="45.64494" lon="6.18509">
        <ele>780</ele>
        <time>2010-10-09T07:51:58Z</time>
      </trkpt>
      <trkpt lat="45.64495" lon="6.1851">
        <ele>780</ele>
        <time>2010-10-09T07:51:59Z</time>
      </trkpt>
      <trkpt lat="45.64496" lon="6.18511">
        <ele>780</ele>
        <time>2010-10-09T07:52:01Z</time>
      </trkpt>
      <trkpt lat="45.645" lon="6.18513">
        <ele>786</ele>
        <time>2010-10-09T07:52:02Z</time>
      </trkpt>
      <trkpt lat="45.64502" lon="6.18514">
        <ele>786</ele>
        <time>2010-10-09T07:52:03Z</time>
      </trkpt>
      <trkpt lat="45.64503" lon="6.18514">
        <ele>786</ele>
        <time>2010-10-09T07:52:11Z</time>
      </trkpt>
      <trkpt lat="45.64504" lon="6.1852">
        <ele>788</ele>
        <time>2010-10-09T07:52:14Z</time>
      </trkpt>
      <trkpt lat="45.64505" lon="6.18521">
        <ele>788</ele>
        <time>2010-10-09T07:52:16Z</time>
      </trkpt>
      <trkpt lat="45.64506" lon="6.18522">
        <ele>789</ele>
        <time>2010-10-09T07:52:18Z</time>
      </trkpt>
      <trkpt lat="45.64507" lon="6.18522">
        <ele>789</ele>
        <time>2010-10-09T07:52:24Z</time>
      </trkpt>
      <trkpt lat="45.64509" lon="6.18521">
        <ele>789</ele>
        <time>2010-10-09T07:52:26Z</time>
      </trkpt>
      <trkpt lat="45.64507" lon="6.18521">
        <ele>789</ele>
        <time>2010-10-09T07:52:27Z</time>
      </trkpt>
      <trkpt lat="45.64505" lon="6.1852">
        <ele>788</ele>
        <time>2010-10-09T07:52:28Z</time>
      </trkpt>
      <trkpt lat="45.64503" lon="6.18519">
        <ele>788</ele>
        <time>2010-10-09T07:52:31Z</time>
      </trkpt>
      <trkpt lat="45.64502" lon="6.1852">
        <ele>788</ele>
        <time>2010-10-09T07:52:32Z</time>
      </trkpt>
      <trkpt lat="45.64499" lon="6.18519">
        <ele>781</ele>
        <time>2010-10-09T07:52:35Z</time>
      </trkpt>
      <trkpt lat="45.645" lon="6.18516">
        <ele>781</ele>
        <time>2010-10-09T07:52:41Z</time>
      </trkpt>
      <trkpt lat="45.64503" lon="6.18517">
        <ele>787</ele>
        <time>2010-10-09T07:52:42Z</time>
      </trkpt>
      <trkpt lat="45.64499" lon="6.18518">
        <ele>781</ele>
        <time>2010-10-09T07:52:49Z</time>
      </trkpt>
      <trkpt lat="45.64498" lon="6.18518">
        <ele>781</ele>
        <time>2010-10-09T07:52:52Z</time>
      </trkpt>
      <trkpt lat="45.64487" lon="6.18508">
        <ele>780</ele>
        <time>2010-10-09T07:52:54Z</time>
      </trkpt>
      <trkpt lat="45.64488" lon="6.18509">
        <ele>780</ele>
        <time>2010-10-09T07:52:57Z</time>
      </trkpt>
      <trkpt lat="45.64486" lon="6.18509">
        <ele>780</ele>
        <time>2010-10-09T07:52:58Z</time>
      </trkpt>
      <trkpt lat="45.64485" lon="6.18509">
        <ele>781</ele>
        <time>2010-10-09T07:53:00Z</time>
      </trkpt>
      <trkpt lat="45.64496" lon="6.18509">
        <ele>780</ele>
        <time>2010-10-09T07:53:02Z</time>
      </trkpt>
      <trkpt lat="45.64497" lon="6.18509">
        <ele>780</ele>
        <time>2010-10-09T07:53:03Z</time>
      </trkpt>
      <trkpt lat="45.64499" lon="6.18509">
        <ele>780</ele>
        <time>2010-10-09T07:53:04Z</time>
      </trkpt>
      <trkpt lat="45.645" lon="6.18509">
        <ele>784</ele>
        <time>2010-10-09T07:53:07Z</time>
      </trkpt>
      <trkpt lat="45.64499" lon="6.18507">
        <ele>780</ele>
        <time>2010-10-09T07:53:10Z</time>
      </trkpt>
      <trkpt lat="45.64501" lon="6.18505">
        <ele>782</ele>
        <time>2010-10-09T07:53:12Z</time>
      </trkpt>
      <trkpt lat="45.645" lon="6.18505">
        <ele>780</ele>
        <time>2010-10-09T07:53:13Z</time>
      </trkpt>
      <trkpt lat="45.64497" lon="6.18503">
        <ele>780</ele>
        <time>2010-10-09T07:53:15Z</time>
      </trkpt>
      <trkpt lat="45.64494" lon="6.18502">
        <ele>780</ele>
        <time>2010-10-09T07:53:17Z</time>
      </trkpt>
      <trkpt lat="45.64492" lon="6.18501">
        <ele>780</ele>
        <time>2010-10-09T07:53:19Z</time>
      </trkpt>
      <trkpt lat="45.64491" lon="6.18501">
        <ele>780</ele>
        <time>2010-10-09T07:53:22Z</time>
      </trkpt>
      <trkpt lat="45.64493" lon="6.18504">
        <ele>780</ele>
        <time>2010-10-09T07:53:26Z</time>
      </trkpt>
      <trkpt lat="45.64494" lon="6.18504">
        <ele>780</ele>
        <time>2010-10-09T07:53:28Z</time>
      </trkpt>
      <trkpt lat="45.64497" lon="6.18505">
        <ele>780</ele>
        <time>2010-10-09T07:53:31Z</time>
      </trkpt>
      <trkpt lat="45.64498" lon="6.18505">
        <ele>780</ele>
        <time>2010-10-09T07:53:32Z</time>
      </trkpt>
      <trkpt lat="45.64502" lon="6.18506">
        <ele>783</ele>
        <time>2010-10-09T07:53:34Z</time>
      </trkpt>
      <trkpt lat="45.64504" lon="6.18506">
        <ele>783</ele>
        <time>2010-10-09T07:53:35Z</time>
      </trkpt>
      <trkpt lat="45.64507" lon="6.18507">
        <ele>785</ele>
        <time>2010-10-09T07:53:37Z</time>
      </trkpt>
      <trkpt lat="45.64511" lon="6.18508">
        <ele>786</ele>
        <time>2010-10-09T07:53:42Z</time>
      </trkpt>
      <trkpt lat="45.64513" lon="6.1851">
        <ele>787</ele>
        <time>2010-10-09T07:53:43Z</time>
      </trkpt>
      <trkpt lat="45.64506" lon="6.18507">
        <ele>784</ele>
        <time>2010-10-09T07:53:53Z</time>
      </trkpt>
      <trkpt lat="45.64503" lon="6.18507">
        <ele>783</ele>
        <time>2010-10-09T07:53:58Z</time>
      </trkpt>
      <trkpt lat="45.64505" lon="6.18509">
        <ele>785</ele>
        <time>2010-10-09T07:54:06Z</time>
      </trkpt>
      <trkpt lat="45.64499" lon="6.18508">
        <ele>780</ele>
        <time>2010-10-09T07:54:07Z</time>
      </trkpt>
      <trkpt lat="45.64491" lon="6.18503">
        <ele>780</ele>
        <time>2010-10-09T07:54:09Z</time>
      </trkpt>
      <trkpt lat="45.64491" lon="6.18501">
        <ele>780</ele>
        <time>2010-10-09T07:54:12Z</time>
      </trkpt>
      <trkpt lat="45.64497" lon="6.18503">
        <ele>779</ele>
        <time>2010-10-09T07:54:15Z</time>
      </trkpt>
      <trkpt lat="45.64496" lon="6.18502">
        <ele>780</ele>
        <time>2010-10-09T07:54:17Z</time>
      </trkpt>
      <trkpt lat="45.64498" lon="6.18503">
        <ele>779</ele>
        <time>2010-10-09T07:54:22Z</time>
      </trkpt>
      <trkpt lat="45.64502" lon="6.18504">
        <ele>782</ele>
        <time>2010-10-09T07:54:24Z</time>
      </trkpt>
      <trkpt lat="45.645" lon="6.18504">
        <ele>781</ele>
        <time>2010-10-09T07:54:28Z</time>
      </trkpt>
      <trkpt lat="45.64498" lon="6.18503">
        <ele>779</ele>
        <time>2010-10-09T07:54:31Z</time>
      </trkpt>
      <trkpt lat="45.64504" lon="6.18499">
        <ele>780</ele>
        <time>2010-10-09T07:54:36Z</time>
      </trkpt>
      <trkpt lat="45.64503" lon="6.18497">
        <ele>780</ele>
        <time>2010-10-09T07:54:40Z</time>
      </trkpt>
      <trkpt lat="45.64492" lon="6.18504">
        <ele>780</ele>
        <time>2010-10-09T07:54:46Z</time>
      </trkpt>
      <trkpt lat="45.64489" lon="6.18507">
        <ele>780</ele>
        <time>2010-10-09T07:54:47Z</time>
      </trkpt>
      <trkpt lat="45.64486" lon="6.1851">
        <ele>781</ele>
        <time>2010-10-09T07:54:48Z</time>
      </trkpt>
      <trkpt lat="45.64484" lon="6.18514">
        <ele>781</ele>
        <time>2010-10-09T07:54:49Z</time>
      </trkpt>
      <trkpt lat="45.64474" lon="6.1853">
        <ele>782</ele>
        <time>2010-10-09T07:54:54Z</time>
      </trkpt>
      <trkpt lat="45.64466" lon="6.1854">
        <ele>782</ele>
        <time>2010-10-09T07:54:56Z</time>
      </trkpt>
      <trkpt lat="45.64462" lon="6.18554">
        <ele>783</ele>
        <time>2010-10-09T07:55:00Z</time>
      </trkpt>
      <trkpt lat="45.64455" lon="6.18566">
        <ele>783</ele>
        <time>2010-10-09T07:55:02Z</time>
      </trkpt>
      <trkpt lat="45.64454" lon="6.18572">
        <ele>783</ele>
        <time>2010-10-09T07:55:04Z</time>
      </trkpt>
      <trkpt lat="45.64451" lon="6.18581">
        <ele>782</ele>
        <time>2010-10-09T07:55:08Z</time>
      </trkpt>
      <trkpt lat="45.64433" lon="6.18601">
        <ele>787</ele>
        <time>2010-10-09T07:55:10Z</time>
      </trkpt>
      <trkpt lat="45.6442" lon="6.18612">
        <ele>788</ele>
        <time>2010-10-09T07:55:15Z</time>
      </trkpt>
      <trkpt lat="45.64407" lon="6.18633">
        <ele>784</ele>
        <time>2010-10-09T07:55:21Z</time>
      </trkpt>
      <trkpt lat="45.64399" lon="6.18641">
        <ele>784</ele>
        <time>2010-10-09T07:55:22Z</time>
      </trkpt>
      <trkpt lat="45.64393" lon="6.18649">
        <ele>785</ele>
        <time>2010-10-09T07:55:26Z</time>
      </trkpt>
      <trkpt lat="45.6438" lon="6.18664">
        <ele>784</ele>
        <time>2010-10-09T07:55:28Z</time>
      </trkpt>
      <trkpt lat="45.64373" lon="6.18671">
        <ele>789</ele>
        <time>2010-10-09T07:55:32Z</time>
      </trkpt>
      <trkpt lat="45.6436" lon="6.1868">
        <ele>788</ele>
        <time>2010-10-09T07:55:34Z</time>
      </trkpt>
      <trkpt lat="45.64356" lon="6.18682">
        <ele>788</ele>
        <time>2010-10-09T07:55:38Z</time>
      </trkpt>
      <trkpt lat="45.64353" lon="6.18682">
        <ele>787</ele>
        <time>2010-10-09T07:55:40Z</time>
      </trkpt>
      <trkpt lat="45.64349" lon="6.18681">
        <ele>787</ele>
        <time>2010-10-09T07:55:41Z</time>
      </trkpt>
      <trkpt lat="45.64347" lon="6.1868">
        <ele>786</ele>
        <time>2010-10-09T07:55:46Z</time>
      </trkpt>
      <trkpt lat="45.64347" lon="6.18683">
        <ele>787</ele>
        <time>2010-10-09T07:55:47Z</time>
      </trkpt>
      <trkpt lat="45.64345" lon="6.1869">
        <ele>787</ele>
        <time>2010-10-09T07:55:53Z</time>
      </trkpt>
      <trkpt lat="45.6434" lon="6.18707">
        <ele>789</ele>
        <time>2010-10-09T07:55:55Z</time>
      </trkpt>
      <trkpt lat="45.64339" lon="6.1872">
        <ele>789</ele>
        <time>2010-10-09T07:56:00Z</time>
      </trkpt>
      <trkpt lat="45.64331" lon="6.18734">
        <ele>787</ele>
        <time>2010-10-09T07:56:02Z</time>
      </trkpt>
      <trkpt lat="45.64317" lon="6.18748">
        <ele>787</ele>
        <time>2010-10-09T07:56:07Z</time>
      </trkpt>
      <trkpt lat="45.64307" lon="6.18756">
        <ele>792</ele>
        <time>2010-10-09T07:56:13Z</time>
      </trkpt>
      <trkpt lat="45.64295" lon="6.18752">
        <ele>793</ele>
        <time>2010-10-09T07:56:14Z</time>
      </trkpt>
      <trkpt lat="45.64294" lon="6.1875">
        <ele>787</ele>
        <time>2010-10-09T07:56:15Z</time>
      </trkpt>
      <trkpt lat="45.64273" lon="6.18748">
        <ele>787</ele>
        <time>2010-10-09T07:56:21Z</time>
      </trkpt>
      <trkpt lat="45.64256" lon="6.18747">
        <ele>786</ele>
        <time>2010-10-09T07:56:23Z</time>
      </trkpt>
      <trkpt lat="45.64249" lon="6.1875">
        <ele>787</ele>
        <time>2010-10-09T07:56:29Z</time>
      </trkpt>
      <trkpt lat="45.64226" lon="6.18749">
        <ele>795</ele>
        <time>2010-10-09T07:56:30Z</time>
      </trkpt>
      <trkpt lat="45.64216" lon="6.18741">
        <ele>797</ele>
        <time>2010-10-09T07:56:36Z</time>
      </trkpt>
      <trkpt lat="45.64209" lon="6.1874">
        <ele>799</ele>
        <time>2010-10-09T07:56:38Z</time>
      </trkpt>
      <trkpt lat="45.64205" lon="6.18742">
        <ele>799</ele>
        <time>2010-10-09T07:56:43Z</time>
      </trkpt>
      <trkpt lat="45.64188" lon="6.18744">
        <ele>801</ele>
        <time>2010-10-09T07:56:44Z</time>
      </trkpt>
      <trkpt lat="45.64178" lon="6.18751">
        <ele>798</ele>
        <time>2010-10-09T07:56:50Z</time>
      </trkpt>
      <trkpt lat="45.64168" lon="6.18759">
        <ele>799</ele>
        <time>2010-10-09T07:56:51Z</time>
      </trkpt>
      <trkpt lat="45.64161" lon="6.18769">
        <ele>807</ele>
        <time>2010-10-09T07:56:56Z</time>
      </trkpt>
      <trkpt lat="45.64151" lon="6.18784">
        <ele>809</ele>
        <time>2010-10-09T07:56:58Z</time>
      </trkpt>
      <trkpt lat="45.64149" lon="6.18794">
        <ele>808</ele>
        <time>2010-10-09T07:57:02Z</time>
      </trkpt>
      <trkpt lat="45.64147" lon="6.18817">
        <ele>805</ele>
        <time>2010-10-09T07:57:04Z</time>
      </trkpt>
      <trkpt lat="45.6414" lon="6.18836">
        <ele>802</ele>
        <time>2010-10-09T07:57:09Z</time>
      </trkpt>
      <trkpt lat="45.64128" lon="6.18844">
        <ele>804</ele>
        <time>2010-10-09T07:57:11Z</time>
      </trkpt>
      <trkpt lat="45.64126" lon="6.18857">
        <ele>804</ele>
        <time>2010-10-09T07:57:16Z</time>
      </trkpt>
      <trkpt lat="45.64127" lon="6.18862">
        <ele>804</ele>
        <time>2010-10-09T07:57:18Z</time>
      </trkpt>
      <trkpt lat="45.64132" lon="6.18859">
        <ele>803</ele>
        <time>2010-10-09T07:57:25Z</time>
      </trkpt>
      <trkpt lat="45.64133" lon="6.18857">
        <ele>803</ele>
        <time>2010-10-09T07:57:28Z</time>
      </trkpt>
      <trkpt lat="45.64127" lon="6.18851">
        <ele>804</ele>
        <time>2010-10-09T07:57:33Z</time>
      </trkpt>
      <trkpt lat="45.64124" lon="6.18849">
        <ele>804</ele>
        <time>2010-10-09T07:57:40Z</time>
      </trkpt>
      <trkpt lat="45.6412" lon="6.18847">
        <ele>805</ele>
        <time>2010-10-09T07:57:41Z</time>
      </trkpt>
      <trkpt lat="45.64118" lon="6.18846">
        <ele>805</ele>
        <time>2010-10-09T07:57:48Z</time>
      </trkpt>
      <trkpt lat="45.64117" lon="6.18843">
        <ele>805</ele>
        <time>2010-10-09T07:57:49Z</time>
      </trkpt>
      <trkpt lat="45.64121" lon="6.18847">
        <ele>805</ele>
        <time>2010-10-09T07:57:57Z</time>
      </trkpt>
      <trkpt lat="45.64121" lon="6.18849">
        <ele>805</ele>
        <time>2010-10-09T07:57:59Z</time>
      </trkpt>
      <trkpt lat="45.64121" lon="6.18851">
        <ele>805</ele>
        <time>2010-10-09T07:58:01Z</time>
      </trkpt>
      <trkpt lat="45.64124" lon="6.18854">
        <ele>804</ele>
        <time>2010-10-09T07:58:08Z</time>
      </trkpt>
      <trkpt lat="45.64128" lon="6.18856">
        <ele>804</ele>
        <time>2010-10-09T07:58:16Z</time>
      </trkpt>
      <trkpt lat="45.64133" lon="6.18861">
        <ele>804</ele>
        <time>2010-10-09T07:58:24Z</time>
      </trkpt>
      <trkpt lat="45.64131" lon="6.18863">
        <ele>804</ele>
        <time>2010-10-09T07:58:26Z</time>
      </trkpt>
      <trkpt lat="45.64135" lon="6.18863">
        <ele>803</ele>
        <time>2010-10-09T07:58:33Z</time>
      </trkpt>
      <trkpt lat="45.64133" lon="6.1886">
        <ele>803</ele>
        <time>2010-10-09T07:58:36Z</time>
      </trkpt>
      <trkpt lat="45.64127" lon="6.18856">
        <ele>804</ele>
        <time>2010-10-09T07:58:41Z</time>
      </trkpt>
      <trkpt lat="45.64124" lon="6.18849">
        <ele>804</ele>
        <time>2010-10-09T07:58:50Z</time>
      </trkpt>
      <trkpt lat="45.64126" lon="6.1885">
        <ele>804</ele>
        <time>2010-10-09T07:58:51Z</time>
      </trkpt>
      <trkpt lat="45.64133" lon="6.18855">
        <ele>803</ele>
        <time>2010-10-09T07:58:58Z</time>
      </trkpt>
      <trkpt lat="45.64134" lon="6.18863">
        <ele>803</ele>
        <time>2010-10-09T07:58:59Z</time>
      </trkpt>
      <trkpt lat="45.64135" lon="6.18864">
        <ele>803</ele>
        <time>2010-10-09T07:59:00Z</time>
      </trkpt>
      <trkpt lat="45.64138" lon="6.18871">
        <ele>804</ele>
        <time>2010-10-09T07:59:07Z</time>
      </trkpt>
      <trkpt lat="45.64128" lon="6.18856">
        <ele>804</ele>
        <time>2010-10-09T07:59:10Z</time>
      </trkpt>
      <trkpt lat="45.64126" lon="6.18854">
        <ele>804</ele>
        <time>2010-10-09T07:59:11Z</time>
      </trkpt>
      <trkpt lat="45.64124" lon="6.18852">
        <ele>804</ele>
        <time>2010-10-09T07:59:13Z</time>
      </trkpt>
      <trkpt lat="45.64123" lon="6.1885">
        <ele>804</ele>
        <time>2010-10-09T07:59:15Z</time>
      </trkpt>
      <trkpt lat="45.64122" lon="6.18848">
        <ele>805</ele>
        <time>2010-10-09T07:59:21Z</time>
      </trkpt>
      <trkpt lat="45.6412" lon="6.18845">
        <ele>805</ele>
        <time>2010-10-09T07:59:22Z</time>
      </trkpt>
      <trkpt lat="45.64118" lon="6.18844">
        <ele>805</ele>
        <time>2010-10-09T07:59:29Z</time>
      </trkpt>
      <trkpt lat="45.64113" lon="6.18843">
        <ele>806</ele>
        <time>2010-10-09T07:59:30Z</time>
      </trkpt>
      <trkpt lat="45.64116" lon="6.18844">
        <ele>806</ele>
        <time>2010-10-09T07:59:37Z</time>
      </trkpt>
      <trkpt lat="45.64122" lon="6.18849">
        <ele>805</ele>
        <time>2010-10-09T07:59:38Z</time>
      </trkpt>
      <trkpt lat="45.64123" lon="6.1885">
        <ele>804</ele>
        <time>2010-10-09T07:59:39Z</time>
      </trkpt>
      <trkpt lat="45.64127" lon="6.18854">
        <ele>804</ele>
        <time>2010-10-09T07:59:45Z</time>
      </trkpt>
      <trkpt lat="45.64135" lon="6.18856">
        <ele>803</ele>
        <time>2010-10-09T07:59:48Z</time>
      </trkpt>
      <trkpt lat="45.64137" lon="6.18856">
        <ele>803</ele>
        <time>2010-10-09T07:59:54Z</time>
      </trkpt>
      <trkpt lat="45.64127" lon="6.18851">
        <ele>804</ele>
        <time>2010-10-09T07:59:56Z</time>
      </trkpt>
      <trkpt lat="45.64126" lon="6.1885">
        <ele>804</ele>
        <time>2010-10-09T07:59:59Z</time>
      </trkpt>
      <trkpt lat="45.64117" lon="6.18848">
        <ele>805</ele>
        <time>2010-10-09T08:00:06Z</time>
      </trkpt>
      <trkpt lat="45.6412" lon="6.18849">
        <ele>805</ele>
        <time>2010-10-09T08:00:07Z</time>
      </trkpt>
      <trkpt lat="45.64125" lon="6.18851">
        <ele>804</ele>
        <time>2010-10-09T08:00:08Z</time>
      </trkpt>
      <trkpt lat="45.64129" lon="6.18852">
        <ele>804</ele>
        <time>2010-10-09T08:00:10Z</time>
      </trkpt>
      <trkpt lat="45.6413" lon="6.18855">
        <ele>804</ele>
        <time>2010-10-09T08:00:11Z</time>
      </trkpt>
      <trkpt lat="45.6413" lon="6.18857">
        <ele>804</ele>
        <time>2010-10-09T08:00:13Z</time>
      </trkpt>
      <trkpt lat="45.64128" lon="6.18858">
        <ele>804</ele>
        <time>2010-10-09T08:00:14Z</time>
      </trkpt>
      <trkpt lat="45.64127" lon="6.18859">
        <ele>804</ele>
        <time>2010-10-09T08:00:16Z</time>
      </trkpt>
      <trkpt lat="45.64125" lon="6.18864">
        <ele>804</ele>
        <time>2010-10-09T08:00:18Z</time>
      </trkpt>
      <trkpt lat="45.64126" lon="6.18868">
        <ele>804</ele>
        <time>2010-10-09T08:00:19Z</time>
      </trkpt>
      <trkpt lat="45.64127" lon="6.18866">
        <ele>804</ele>
        <time>2010-10-09T08:00:22Z</time>
      </trkpt>
      <trkpt lat="45.64133" lon="6.1887">
        <ele>804</ele>
        <time>2010-10-09T08:00:26Z</time>
      </trkpt>
      <trkpt lat="45.64133" lon="6.18874">
        <ele>804</ele>
        <time>2010-10-09T08:00:27Z</time>
      </trkpt>
      <trkpt lat="45.64132" lon="6.18877">
        <ele>804</ele>
        <time>2010-10-09T08:00:29Z</time>
      </trkpt>
      <trkpt lat="45.64131" lon="6.18885">
        <ele>804</ele>
        <time>2010-10-09T08:00:30Z</time>
      </trkpt>
      <trkpt lat="45.64128" lon="6.18892">
        <ele>804</ele>
        <time>2010-10-09T08:00:33Z</time>
      </trkpt>
      <trkpt lat="45.64126" lon="6.18901">
        <ele>804</ele>
        <time>2010-10-09T08:00:34Z</time>
      </trkpt>
      <trkpt lat="45.64121" lon="6.18906">
        <ele>804</ele>
        <time>2010-10-09T08:00:36Z</time>
      </trkpt>
      <trkpt lat="45.6412" lon="6.18909">
        <ele>804</ele>
        <time>2010-10-09T08:00:37Z</time>
      </trkpt>
      <trkpt lat="45.64117" lon="6.18911">
        <ele>804</ele>
        <time>2010-10-09T08:00:38Z</time>
      </trkpt>
      <trkpt lat="45.64113" lon="6.18913">
        <ele>804</ele>
        <time>2010-10-09T08:00:39Z</time>
      </trkpt>
      <trkpt lat="45.64109" lon="6.18916">
        <ele>803</ele>
        <time>2010-10-09T08:00:41Z</time>
      </trkpt>
      <trkpt lat="45.64104" lon="6.18921">
        <ele>807</ele>
        <time>2010-10-09T08:00:42Z</time>
      </trkpt>
      <trkpt lat="45.641" lon="6.18924">
        <ele>807</ele>
        <time>2010-10-09T08:00:43Z</time>
      </trkpt>
      <trkpt lat="45.64096" lon="6.18927">
        <ele>806</ele>
        <time>2010-10-09T08:00:44Z</time>
      </trkpt>
      <trkpt lat="45.64086" lon="6.1893">
        <ele>805</ele>
        <time>2010-10-09T08:00:46Z</time>
      </trkpt>
      <trkpt lat="45.64077" lon="6.18929">
        <ele>805</ele>
        <time>2010-10-09T08:00:47Z</time>
      </trkpt>
      <trkpt lat="45.6407" lon="6.18929">
        <ele>806</ele>
        <time>2010-10-09T08:00:48Z</time>
      </trkpt>
      <trkpt lat="45.64067" lon="6.18931">
        <ele>807</ele>
        <time>2010-10-09T08:00:49Z</time>
      </trkpt>
      <trkpt lat="45.64061" lon="6.18935">
        <ele>808</ele>
        <time>2010-10-09T08:00:51Z</time>
      </trkpt>
      <trkpt lat="45.64059" lon="6.18937">
        <ele>809</ele>
        <time>2010-10-09T08:00:52Z</time>
      </trkpt>
      <trkpt lat="45.64055" lon="6.18939">
        <ele>809</ele>
        <time>2010-10-09T08:00:53Z</time>
      </trkpt>
      <trkpt lat="45.64052" lon="6.18942">
        <ele>810</ele>
        <time>2010-10-09T08:00:54Z</time>
      </trkpt>
      <trkpt lat="45.64047" lon="6.18947">
        <ele>811</ele>
        <time>2010-10-09T08:00:56Z</time>
      </trkpt>
      <trkpt lat="45.64042" lon="6.18949">
        <ele>811</ele>
        <time>2010-10-09T08:00:57Z</time>
      </trkpt>
      <trkpt lat="45.64037" lon="6.18951">
        <ele>812</ele>
        <time>2010-10-09T08:00:58Z</time>
      </trkpt>
      <trkpt lat="45.64035" lon="6.18955">
        <ele>812</ele>
        <time>2010-10-09T08:00:59Z</time>
      </trkpt>
      <trkpt lat="45.64033" lon="6.18962">
        <ele>811</ele>
        <time>2010-10-09T08:01:02Z</time>
      </trkpt>
      <trkpt lat="45.64026" lon="6.18966">
        <ele>812</ele>
        <time>2010-10-09T08:01:03Z</time>
      </trkpt>
      <trkpt lat="45.64024" lon="6.18968">
        <ele>812</ele>
        <time>2010-10-09T08:01:04Z</time>
      </trkpt>
      <trkpt lat="45.64015" lon="6.18972">
        <ele>812</ele>
        <time>2010-10-09T08:01:06Z</time>
      </trkpt>
      <trkpt lat="45.64011" lon="6.18974">
        <ele>812</ele>
        <time>2010-10-09T08:01:07Z</time>
      </trkpt>
      <trkpt lat="45.64008" lon="6.18976">
        <ele>812</ele>
        <time>2010-10-09T08:01:08Z</time>
      </trkpt>
      <trkpt lat="45.64007" lon="6.18979">
        <ele>811</ele>
        <time>2010-10-09T08:01:09Z</time>
      </trkpt>
      <trkpt lat="45.64001" lon="6.18984">
        <ele>811</ele>
        <time>2010-10-09T08:01:12Z</time>
      </trkpt>
      <trkpt lat="45.64001" lon="6.1899">
        <ele>811</ele>
        <time>2010-10-09T08:01:13Z</time>
      </trkpt>
      <trkpt lat="45.63996" lon="6.18993">
        <ele>818</ele>
        <time>2010-10-09T08:01:17Z</time>
      </trkpt>
      <trkpt lat="45.63994" lon="6.18992">
        <ele>819</ele>
        <time>2010-10-09T08:01:19Z</time>
      </trkpt>
      <trkpt lat="45.63988" lon="6.18986">
        <ele>824</ele>
        <time>2010-10-09T08:01:20Z</time>
      </trkpt>
      <trkpt lat="45.6399" lon="6.18983">
        <ele>825</ele>
        <time>2010-10-09T08:01:22Z</time>
      </trkpt>
      <trkpt lat="45.6399" lon="6.18976">
        <ele>827</ele>
        <time>2010-10-09T08:01:24Z</time>
      </trkpt>
      <trkpt lat="45.63992" lon="6.18974">
        <ele>828</ele>
        <time>2010-10-09T08:01:25Z</time>
      </trkpt>
      <trkpt lat="45.63995" lon="6.1897">
        <ele>828</ele>
        <time>2010-10-09T08:01:26Z</time>
      </trkpt>
      <trkpt lat="45.63998" lon="6.1897">
        <ele>828</ele>
        <time>2010-10-09T08:01:28Z</time>
      </trkpt>
      <trkpt lat="45.64006" lon="6.18971">
        <ele>812</ele>
        <time>2010-10-09T08:01:29Z</time>
      </trkpt>
      <trkpt lat="45.64008" lon="6.1897">
        <ele>812</ele>
        <time>2010-10-09T08:01:31Z</time>
      </trkpt>
      <trkpt lat="45.6401" lon="6.18967">
        <ele>812</ele>
        <time>2010-10-09T08:01:33Z</time>
      </trkpt>
      <trkpt lat="45.64011" lon="6.18961">
        <ele>813</ele>
        <time>2010-10-09T08:01:35Z</time>
      </trkpt>
      <trkpt lat="45.64015" lon="6.18957">
        <ele>813</ele>
        <time>2010-10-09T08:01:36Z</time>
      </trkpt>
      <trkpt lat="45.64015" lon="6.18954">
        <ele>813</ele>
        <time>2010-10-09T08:01:38Z</time>
      </trkpt>
      <trkpt lat="45.64016" lon="6.18948">
        <ele>814</ele>
        <time>2010-10-09T08:01:40Z</time>
      </trkpt>
      <trkpt lat="45.64018" lon="6.18943">
        <ele>814</ele>
        <time>2010-10-09T08:01:41Z</time>
      </trkpt>
      <trkpt lat="45.6402" lon="6.18941">
        <ele>814</ele>
        <time>2010-10-09T08:01:43Z</time>
      </trkpt>
      <trkpt lat="45.64024" lon="6.18938">
        <ele>814</ele>
        <time>2010-10-09T08:01:45Z</time>
      </trkpt>
      <trkpt lat="45.64025" lon="6.18936">
        <ele>814</ele>
        <time>2010-10-09T08:01:46Z</time>
      </trkpt>
      <trkpt lat="45.64029" lon="6.18931">
        <ele>813</ele>
        <time>2010-10-09T08:01:47Z</time>
      </trkpt>
      <trkpt lat="45.64032" lon="6.18929">
        <ele>813</ele>
        <time>2010-10-09T08:01:49Z</time>
      </trkpt>
      <trkpt lat="45.64037" lon="6.18925">
        <ele>812</ele>
        <time>2010-10-09T08:01:51Z</time>
      </trkpt>
      <trkpt lat="45.64041" lon="6.18921">
        <ele>812</ele>
        <time>2010-10-09T08:01:53Z</time>
      </trkpt>
      <trkpt lat="45.64043" lon="6.1892">
        <ele>811</ele>
        <time>2010-10-09T08:01:55Z</time>
      </trkpt>
      <trkpt lat="45.64044" lon="6.18919">
        <ele>811</ele>
        <time>2010-10-09T08:01:56Z</time>
      </trkpt>
      <trkpt lat="45.64044" lon="6.18914">
        <ele>819</ele>
        <time>2010-10-09T08:01:58Z</time>
      </trkpt>
      <trkpt lat="45.64046" lon="6.18913">
        <ele>818</ele>
        <time>2010-10-09T08:01:59Z</time>
      </trkpt>
      <trkpt lat="45.64051" lon="6.1891">
        <ele>817</ele>
        <time>2010-10-09T08:02:01Z</time>
      </trkpt>
      <trkpt lat="45.64053" lon="6.18908">
        <ele>817</ele>
        <time>2010-10-09T08:02:02Z</time>
      </trkpt>
      <trkpt lat="45.64056" lon="6.18904">
        <ele>816</ele>
        <time>2010-10-09T08:02:04Z</time>
      </trkpt>
      <trkpt lat="45.64056" lon="6.18898">
        <ele>817</ele>
        <time>2010-10-09T08:02:05Z</time>
      </trkpt>
      <trkpt lat="45.64056" lon="6.18896">
        <ele>818</ele>
        <time>2010-10-09T08:02:07Z</time>
      </trkpt>
      <trkpt lat="45.6405" lon="6.18889">
        <ele>820</ele>
        <time>2010-10-09T08:02:09Z</time>
      </trkpt>
      <trkpt lat="45.64051" lon="6.18884">
        <ele>820</ele>
        <time>2010-10-09T08:02:10Z</time>
      </trkpt>
      <trkpt lat="45.64054" lon="6.18884">
        <ele>820</ele>
        <time>2010-10-09T08:02:12Z</time>
      </trkpt>
      <trkpt lat="45.64058" lon="6.18881">
        <ele>820</ele>
        <time>2010-10-09T08:02:14Z</time>
      </trkpt>
      <trkpt lat="45.64058" lon="6.18876">
        <ele>820</ele>
        <time>2010-10-09T08:02:17Z</time>
      </trkpt>
      <trkpt lat="45.64059" lon="6.18874">
        <ele>821</ele>
        <time>2010-10-09T08:02:18Z</time>
      </trkpt>
      <trkpt lat="45.64059" lon="6.18872">
        <ele>821</ele>
        <time>2010-10-09T08:02:20Z</time>
      </trkpt>
      <trkpt lat="45.64061" lon="6.18869">
        <ele>821</ele>
        <time>2010-10-09T08:02:21Z</time>
      </trkpt>
      <trkpt lat="45.64061" lon="6.18867">
        <ele>821</ele>
        <time>2010-10-09T08:02:23Z</time>
      </trkpt>
      <trkpt lat="45.64061" lon="6.18863">
        <ele>821</ele>
        <time>2010-10-09T08:02:24Z</time>
      </trkpt>
      <trkpt lat="45.64064" lon="6.18856">
        <ele>821</ele>
        <time>2010-10-09T08:02:26Z</time>
      </trkpt>
      <trkpt lat="45.64064" lon="6.18855">
        <ele>821</ele>
        <time>2010-10-09T08:02:28Z</time>
      </trkpt>
      <trkpt lat="45.64067" lon="6.18852">
        <ele>821</ele>
        <time>2010-10-09T08:02:29Z</time>
      </trkpt>
      <trkpt lat="45.64069" lon="6.18853">
        <ele>820</ele>
        <time>2010-10-09T08:02:31Z</time>
      </trkpt>
      <trkpt lat="45.64072" lon="6.18852">
        <ele>820</ele>
        <time>2010-10-09T08:02:32Z</time>
      </trkpt>
      <trkpt lat="45.64075" lon="6.18852">
        <ele>819</ele>
        <time>2010-10-09T08:02:34Z</time>
      </trkpt>
      <trkpt lat="45.64077" lon="6.18849">
        <ele>819</ele>
        <time>2010-10-09T08:02:36Z</time>
      </trkpt>
      <trkpt lat="45.64076" lon="6.18845">
        <ele>819</ele>
        <time>2010-10-09T08:02:37Z</time>
      </trkpt>
      <trkpt lat="45.64077" lon="6.18843">
        <ele>818</ele>
        <time>2010-10-09T08:02:39Z</time>
      </trkpt>
      <trkpt lat="45.6408" lon="6.18838">
        <ele>817</ele>
        <time>2010-10-09T08:02:40Z</time>
      </trkpt>
      <trkpt lat="45.6408" lon="6.18835">
        <ele>816</ele>
        <time>2010-10-09T08:02:41Z</time>
      </trkpt>
      <trkpt lat="45.64081" lon="6.18834">
        <ele>816</ele>
        <time>2010-10-09T08:02:43Z</time>
      </trkpt>
      <trkpt lat="45.6408" lon="6.18829">
        <ele>822</ele>
        <time>2010-10-09T08:02:46Z</time>
      </trkpt>
      <trkpt lat="45.64082" lon="6.18827">
        <ele>823</ele>
        <time>2010-10-09T08:02:47Z</time>
      </trkpt>
      <trkpt lat="45.64086" lon="6.18824">
        <ele>815</ele>
        <time>2010-10-09T08:02:49Z</time>
      </trkpt>
      <trkpt lat="45.64085" lon="6.18818">
        <ele>815</ele>
        <time>2010-10-09T08:02:51Z</time>
      </trkpt>
      <trkpt lat="45.64084" lon="6.18816">
        <ele>815</ele>
        <time>2010-10-09T08:02:52Z</time>
      </trkpt>
      <trkpt lat="45.64083" lon="6.1881">
        <ele>816</ele>
        <time>2010-10-09T08:02:53Z</time>
      </trkpt>
      <trkpt lat="45.64085" lon="6.18809">
        <ele>816</ele>
        <time>2010-10-09T08:02:55Z</time>
      </trkpt>
      <trkpt lat="45.64088" lon="6.18808">
        <ele>816</ele>
        <time>2010-10-09T08:02:56Z</time>
      </trkpt>
      <trkpt lat="45.64089" lon="6.18805">
        <ele>816</ele>
        <time>2010-10-09T08:02:58Z</time>
      </trkpt>
      <trkpt lat="45.64091" lon="6.18798">
        <ele>817</ele>
        <time>2010-10-09T08:02:59Z</time>
      </trkpt>
      <trkpt lat="45.64093" lon="6.18796">
        <ele>817</ele>
        <time>2010-10-09T08:03:01Z</time>
      </trkpt>
      <trkpt lat="45.64095" lon="6.1879">
        <ele>818</ele>
        <time>2010-10-09T08:03:02Z</time>
      </trkpt>
      <trkpt lat="45.64097" lon="6.18788">
        <ele>818</ele>
        <time>2010-10-09T08:03:04Z</time>
      </trkpt>
      <trkpt lat="45.64098" lon="6.18784">
        <ele>819</ele>
        <time>2010-10-09T08:03:06Z</time>
      </trkpt>
      <trkpt lat="45.64097" lon="6.1878">
        <ele>820</ele>
        <time>2010-10-09T08:03:07Z</time>
      </trkpt>
      <trkpt lat="45.64097" lon="6.18778">
        <ele>821</ele>
        <time>2010-10-09T08:03:09Z</time>
      </trkpt>
      <trkpt lat="45.64097" lon="6.18773">
        <ele>822</ele>
        <time>2010-10-09T08:03:11Z</time>
      </trkpt>
      <trkpt lat="45.64098" lon="6.18771">
        <ele>823</ele>
        <time>2010-10-09T08:03:13Z</time>
      </trkpt>
      <trkpt lat="45.64099" lon="6.18769">
        <ele>823</ele>
        <time>2010-10-09T08:03:14Z</time>
      </trkpt>
      <trkpt lat="45.64099" lon="6.18764">
        <ele>825</ele>
        <time>2010-10-09T08:03:17Z</time>
      </trkpt>
      <trkpt lat="45.64099" lon="6.18762">
        <ele>825</ele>
        <time>2010-10-09T08:03:19Z</time>
      </trkpt>
      <trkpt lat="45.64101" lon="6.18761">
        <ele>825</ele>
        <time>2010-10-09T08:03:20Z</time>
      </trkpt>
      <trkpt lat="45.64106" lon="6.18759">
        <ele>823</ele>
        <time>2010-10-09T08:03:21Z</time>
      </trkpt>
      <trkpt lat="45.64106" lon="6.18758">
        <ele>823</ele>
        <time>2010-10-09T08:03:23Z</time>
      </trkpt>
      <trkpt lat="45.64106" lon="6.18756">
        <ele>824</ele>
        <time>2010-10-09T08:03:24Z</time>
      </trkpt>
      <trkpt lat="45.64106" lon="6.18751">
        <ele>824</ele>
        <time>2010-10-09T08:03:26Z</time>
      </trkpt>
      <trkpt lat="45.64108" lon="6.18751">
        <ele>823</ele>
        <time>2010-10-09T08:03:27Z</time>
      </trkpt>
      <trkpt lat="45.64109" lon="6.18748">
        <ele>835</ele>
        <time>2010-10-09T08:03:29Z</time>
      </trkpt>
      <trkpt lat="45.64113" lon="6.18748">
        <ele>834</ele>
        <time>2010-10-09T08:03:30Z</time>
      </trkpt>
      <trkpt lat="45.64114" lon="6.18746">
        <ele>833</ele>
        <time>2010-10-09T08:03:31Z</time>
      </trkpt>
      <trkpt lat="45.64115" lon="6.18744">
        <ele>833</ele>
        <time>2010-10-09T08:03:33Z</time>
      </trkpt>
      <trkpt lat="45.6412" lon="6.18742">
        <ele>831</ele>
        <time>2010-10-09T08:03:34Z</time>
      </trkpt>
      <trkpt lat="45.64122" lon="6.1874">
        <ele>831</ele>
        <time>2010-10-09T08:03:36Z</time>
      </trkpt>
      <trkpt lat="45.64124" lon="6.18737">
        <ele>831</ele>
        <time>2010-10-09T08:03:38Z</time>
      </trkpt>
      <trkpt lat="45.64128" lon="6.18738">
        <ele>829</ele>
        <time>2010-10-09T08:03:39Z</time>
      </trkpt>
      <trkpt lat="45.64131" lon="6.18736">
        <ele>828</ele>
        <time>2010-10-09T08:03:41Z</time>
      </trkpt>
      <trkpt lat="45.64133" lon="6.18734">
        <ele>828</ele>
        <time>2010-10-09T08:03:42Z</time>
      </trkpt>
      <trkpt lat="45.64135" lon="6.18733">
        <ele>827</ele>
        <time>2010-10-09T08:03:44Z</time>
      </trkpt>
      <trkpt lat="45.6414" lon="6.1873">
        <ele>826</ele>
        <time>2010-10-09T08:03:46Z</time>
      </trkpt>
      <trkpt lat="45.64141" lon="6.18727">
        <ele>826</ele>
        <time>2010-10-09T08:03:47Z</time>
      </trkpt>
      <trkpt lat="45.6414" lon="6.18724">
        <ele>827</ele>
        <time>2010-10-09T08:03:49Z</time>
      </trkpt>
      <trkpt lat="45.64137" lon="6.18715">
        <ele>830</ele>
        <time>2010-10-09T08:03:51Z</time>
      </trkpt>
      <trkpt lat="45.64137" lon="6.18709">
        <ele>831</ele>
        <time>2010-10-09T08:03:52Z</time>
      </trkpt>
      <trkpt lat="45.64137" lon="6.18706">
        <ele>832</ele>
        <time>2010-10-09T08:03:54Z</time>
      </trkpt>
      <trkpt lat="45.64135" lon="6.18702">
        <ele>833</ele>
        <time>2010-10-09T08:03:56Z</time>
      </trkpt>
      <trkpt lat="45.64134" lon="6.18699">
        <ele>833</ele>
        <time>2010-10-09T08:03:57Z</time>
      </trkpt>
      <trkpt lat="45.64133" lon="6.18694">
        <ele>834</ele>
        <time>2010-10-09T08:03:59Z</time>
      </trkpt>
      <trkpt lat="45.64131" lon="6.18688">
        <ele>835</ele>
        <time>2010-10-09T08:04:00Z</time>
      </trkpt>
      <trkpt lat="45.64131" lon="6.18684">
        <ele>836</ele>
        <time>2010-10-09T08:04:02Z</time>
      </trkpt>
      <trkpt lat="45.64133" lon="6.18682">
        <ele>835</ele>
        <time>2010-10-09T08:04:03Z</time>
      </trkpt>
      <trkpt lat="45.64135" lon="6.1868">
        <ele>835</ele>
        <time>2010-10-09T08:04:04Z</time>
      </trkpt>
      <trkpt lat="45.64137" lon="6.1868">
        <ele>834</ele>
        <time>2010-10-09T08:04:06Z</time>
      </trkpt>
      <trkpt lat="45.6414" lon="6.18678">
        <ele>833</ele>
        <time>2010-10-09T08:04:07Z</time>
      </trkpt>
      <trkpt lat="45.6414" lon="6.18676">
        <ele>833</ele>
        <time>2010-10-09T08:04:09Z</time>
      </trkpt>
      <trkpt lat="45.64138" lon="6.18672">
        <ele>834</ele>
        <time>2010-10-09T08:04:10Z</time>
      </trkpt>
      <trkpt lat="45.6414" lon="6.18671">
        <ele>833</ele>
        <time>2010-10-09T08:04:12Z</time>
      </trkpt>
      <trkpt lat="45.64144" lon="6.18666">
        <ele>843</ele>
        <time>2010-10-09T08:04:14Z</time>
      </trkpt>
      <trkpt lat="45.64145" lon="6.18662">
        <ele>843</ele>
        <time>2010-10-09T08:04:15Z</time>
      </trkpt>
      <trkpt lat="45.64144" lon="6.18657">
        <ele>844</ele>
        <time>2010-10-09T08:04:17Z</time>
      </trkpt>
      <trkpt lat="45.64146" lon="6.18653">
        <ele>844</ele>
        <time>2010-10-09T08:04:19Z</time>
      </trkpt>
      <trkpt lat="45.64148" lon="6.18651">
        <ele>844</ele>
        <time>2010-10-09T08:04:20Z</time>
      </trkpt>
      <trkpt lat="45.6415" lon="6.18649">
        <ele>844</ele>
        <time>2010-10-09T08:04:21Z</time>
      </trkpt>
      <trkpt lat="45.6415" lon="6.18647">
        <ele>844</ele>
        <time>2010-10-09T08:04:23Z</time>
      </trkpt>
      <trkpt lat="45.64151" lon="6.18645">
        <ele>845</ele>
        <time>2010-10-09T08:04:25Z</time>
      </trkpt>
      <trkpt lat="45.64152" lon="6.18643">
        <ele>845</ele>
        <time>2010-10-09T08:04:26Z</time>
      </trkpt>
      <trkpt lat="45.64151" lon="6.18636">
        <ele>847</ele>
        <time>2010-10-09T08:04:28Z</time>
      </trkpt>
      <trkpt lat="45.6415" lon="6.1863">
        <ele>849</ele>
        <time>2010-10-09T08:04:29Z</time>
      </trkpt>
      <trkpt lat="45.64148" lon="6.18626">
        <ele>850</ele>
        <time>2010-10-09T08:04:32Z</time>
      </trkpt>
      <trkpt lat="45.64148" lon="6.18622">
        <ele>850</ele>
        <time>2010-10-09T08:04:34Z</time>
      </trkpt>
      <trkpt lat="45.64147" lon="6.18618">
        <ele>851</ele>
        <time>2010-10-09T08:04:36Z</time>
      </trkpt>
      <trkpt lat="45.64146" lon="6.18614">
        <ele>851</ele>
        <time>2010-10-09T08:04:37Z</time>
      </trkpt>
      <trkpt lat="45.64146" lon="6.18613">
        <ele>851</ele>
        <time>2010-10-09T08:04:38Z</time>
      </trkpt>
      <trkpt lat="45.64146" lon="6.18611">
        <ele>851</ele>
        <time>2010-10-09T08:04:39Z</time>
      </trkpt>
      <trkpt lat="45.64145" lon="6.18607">
        <ele>851</ele>
        <time>2010-10-09T08:04:41Z</time>
      </trkpt>
      <trkpt lat="45.64144" lon="6.18605">
        <ele>852</ele>
        <time>2010-10-09T08:04:42Z</time>
      </trkpt>
      <trkpt lat="45.64143" lon="6.18602">
        <ele>852</ele>
        <time>2010-10-09T08:04:43Z</time>
      </trkpt>
      <trkpt lat="45.64143" lon="6.18599">
        <ele>852</ele>
        <time>2010-10-09T08:04:44Z</time>
      </trkpt>
      <trkpt lat="45.64142" lon="6.18593">
        <ele>852</ele>
        <time>2010-10-09T08:04:46Z</time>
      </trkpt>
      <trkpt lat="45.64141" lon="6.18589">
        <ele>852</ele>
        <time>2010-10-09T08:04:47Z</time>
      </trkpt>
      <trkpt lat="45.64141" lon="6.18586">
        <ele>852</ele>
        <time>2010-10-09T08:04:48Z</time>
      </trkpt>
      <trkpt lat="45.64141" lon="6.18584">
        <ele>852</ele>
        <time>2010-10-09T08:04:49Z</time>
      </trkpt>
      <trkpt lat="45.64138" lon="6.1858">
        <ele>862</ele>
        <time>2010-10-09T08:04:52Z</time>
      </trkpt>
      <trkpt lat="45.64138" lon="6.18578">
        <ele>862</ele>
        <time>2010-10-09T08:04:53Z</time>
      </trkpt>
      <trkpt lat="45.6414" lon="6.18571">
        <ele>862</ele>
        <time>2010-10-09T08:04:56Z</time>
      </trkpt>
      <trkpt lat="45.64142" lon="6.18569">
        <ele>862</ele>
        <time>2010-10-09T08:04:57Z</time>
      </trkpt>
      <trkpt lat="45.64143" lon="6.18567">
        <ele>861</ele>
        <time>2010-10-09T08:04:58Z</time>
      </trkpt>
      <trkpt lat="45.64142" lon="6.1857">
        <ele>861</ele>
        <time>2010-10-09T08:05:02Z</time>
      </trkpt>
      <trkpt lat="45.64143" lon="6.18572">
        <ele>860</ele>
        <time>2010-10-09T08:05:03Z</time>
      </trkpt>
      <trkpt lat="45.64145" lon="6.18574">
        <ele>859</ele>
        <time>2010-10-09T08:05:06Z</time>
      </trkpt>
      <trkpt lat="45.64147" lon="6.18574">
        <ele>858</ele>
        <time>2010-10-09T08:05:09Z</time>
      </trkpt>
      <trkpt lat="45.64151" lon="6.18575">
        <ele>855</ele>
        <time>2010-10-09T08:05:13Z</time>
      </trkpt>
      <trkpt lat="45.64149" lon="6.18576">
        <ele>856</ele>
        <time>2010-10-09T08:05:16Z</time>
      </trkpt>
      <trkpt lat="45.64146" lon="6.18576">
        <ele>858</ele>
        <time>2010-10-09T08:05:19Z</time>
      </trkpt>
      <trkpt lat="45.64145" lon="6.18577">
        <ele>859</ele>
        <time>2010-10-09T08:05:22Z</time>
      </trkpt>
      <trkpt lat="45.64143" lon="6.18577">
        <ele>859</ele>
        <time>2010-10-09T08:05:25Z</time>
      </trkpt>
      <trkpt lat="45.64142" lon="6.18578">
        <ele>860</ele>
        <time>2010-10-09T08:05:29Z</time>
      </trkpt>
      <trkpt lat="45.64128" lon="6.18574">
        <ele>868</ele>
        <time>2010-10-09T08:05:32Z</time>
      </trkpt>
      <trkpt lat="45.64122" lon="6.18573">
        <ele>870</ele>
        <time>2010-10-09T08:05:34Z</time>
      </trkpt>
      <trkpt lat="45.64117" lon="6.18571">
        <ele>873</ele>
        <time>2010-10-09T08:05:36Z</time>
      </trkpt>
      <trkpt lat="45.64114" lon="6.1857">
        <ele>873</ele>
        <time>2010-10-09T08:05:37Z</time>
      </trkpt>
      <trkpt lat="45.6411" lon="6.18568">
        <ele>875</ele>
        <time>2010-10-09T08:05:39Z</time>
      </trkpt>
      <trkpt lat="45.64107" lon="6.18567">
        <ele>876</ele>
        <time>2010-10-09T08:05:41Z</time>
      </trkpt>
      <trkpt lat="45.64105" lon="6.18566">
        <ele>877</ele>
        <time>2010-10-09T08:05:43Z</time>
      </trkpt>
      <trkpt lat="45.64103" lon="6.18565">
        <ele>877</ele>
        <time>2010-10-09T08:05:44Z</time>
      </trkpt>
      <trkpt lat="45.64102" lon="6.18565">
        <ele>878</ele>
        <time>2010-10-09T08:05:45Z</time>
      </trkpt>
      <trkpt lat="45.64101" lon="6.18564">
        <ele>878</ele>
        <time>2010-10-09T08:05:46Z</time>
      </trkpt>
      <trkpt lat="45.64099" lon="6.18563">
        <ele>878</ele>
        <time>2010-10-09T08:05:50Z</time>
      </trkpt>
      <trkpt lat="45.64101" lon="6.18563">
        <ele>878</ele>
        <time>2010-10-09T08:05:51Z</time>
      </trkpt>
      <trkpt lat="45.64107" lon="6.18565">
        <ele>876</ele>
        <time>2010-10-09T08:05:54Z</time>
      </trkpt>
      <trkpt lat="45.64109" lon="6.18566">
        <ele>875</ele>
        <time>2010-10-09T08:05:55Z</time>
      </trkpt>
      <trkpt lat="45.64111" lon="6.18566">
        <ele>875</ele>
        <time>2010-10-09T08:05:57Z</time>
      </trkpt>
      <trkpt lat="45.64114" lon="6.18567">
        <ele>873</ele>
        <time>2010-10-09T08:05:58Z</time>
      </trkpt>
      <trkpt lat="45.64113" lon="6.18567">
        <ele>874</ele>
        <time>2010-10-09T08:06:03Z</time>
      </trkpt>
      <trkpt lat="45.64122" lon="6.1857">
        <ele>870</ele>
        <time>2010-10-09T08:06:05Z</time>
      </trkpt>
      <trkpt lat="45.64124" lon="6.18571">
        <ele>869</ele>
        <time>2010-10-09T08:06:07Z</time>
      </trkpt>
      <trkpt lat="45.64125" lon="6.18572">
        <ele>869</ele>
        <time>2010-10-09T08:06:09Z</time>
      </trkpt>
      <trkpt lat="45.64127" lon="6.18573">
        <ele>868</ele>
        <time>2010-10-09T08:06:11Z</time>
      </trkpt>
      <trkpt lat="45.64129" lon="6.18575">
        <ele>867</ele>
        <time>2010-10-09T08:06:14Z</time>
      </trkpt>
      <trkpt lat="45.64132" lon="6.18577">
        <ele>865</ele>
        <time>2010-10-09T08:06:17Z</time>
      </trkpt>
      <trkpt lat="45.64136" lon="6.18579">
        <ele>863</ele>
        <time>2010-10-09T08:06:19Z</time>
      </trkpt>
      <trkpt lat="45.64138" lon="6.18578">
        <ele>862</ele>
        <time>2010-10-09T08:06:22Z</time>
      </trkpt>
      <trkpt lat="45.64139" lon="6.18578">
        <ele>862</ele>
        <time>2010-10-09T08:06:24Z</time>
      </trkpt>
      <trkpt lat="45.64138" lon="6.18576">
        <ele>863</ele>
        <time>2010-10-09T08:06:27Z</time>
      </trkpt>
      <trkpt lat="45.64138" lon="6.18573">
        <ele>863</ele>
        <time>2010-10-09T08:06:28Z</time>
      </trkpt>
      <trkpt lat="45.6414" lon="6.18572">
        <ele>862</ele>
        <time>2010-10-09T08:06:29Z</time>
      </trkpt>
      <trkpt lat="45.64141" lon="6.18568">
        <ele>862</ele>
        <time>2010-10-09T08:06:31Z</time>
      </trkpt>
      <trkpt lat="45.64143" lon="6.18566">
        <ele>862</ele>
        <time>2010-10-09T08:06:32Z</time>
      </trkpt>
      <trkpt lat="45.64146" lon="6.18562">
        <ele>861</ele>
        <time>2010-10-09T08:06:34Z</time>
      </trkpt>
      <trkpt lat="45.64147" lon="6.1856">
        <ele>861</ele>
        <time>2010-10-09T08:06:35Z</time>
      </trkpt>
      <trkpt lat="45.64151" lon="6.18557">
        <ele>861</ele>
        <time>2010-10-09T08:06:37Z</time>
      </trkpt>
      <trkpt lat="45.64152" lon="6.18555">
        <ele>861</ele>
        <time>2010-10-09T08:06:38Z</time>
      </trkpt>
      <trkpt lat="45.64155" lon="6.18551">
        <ele>861</ele>
        <time>2010-10-09T08:06:40Z</time>
      </trkpt>
      <trkpt lat="45.64157" lon="6.1855">
        <ele>861</ele>
        <time>2010-10-09T08:06:41Z</time>
      </trkpt>
      <trkpt lat="45.64159" lon="6.18549">
        <ele>861</ele>
        <time>2010-10-09T08:06:42Z</time>
      </trkpt>
      <trkpt lat="45.6416" lon="6.18547">
        <ele>861</ele>
        <time>2010-10-09T08:06:43Z</time>
      </trkpt>
      <trkpt lat="45.64162" lon="6.18545">
        <ele>861</ele>
        <time>2010-10-09T08:06:44Z</time>
      </trkpt>
      <trkpt lat="45.64164" lon="6.18539">
        <ele>861</ele>
        <time>2010-10-09T08:06:47Z</time>
      </trkpt>
      <trkpt lat="45.64165" lon="6.18538">
        <ele>861</ele>
        <time>2010-10-09T08:06:48Z</time>
      </trkpt>
      <trkpt lat="45.64167" lon="6.18535">
        <ele>835</ele>
        <time>2010-10-09T08:06:50Z</time>
      </trkpt>
      <trkpt lat="45.6417" lon="6.18535">
        <ele>835</ele>
        <time>2010-10-09T08:06:51Z</time>
      </trkpt>
      <trkpt lat="45.6417" lon="6.18533">
        <ele>836</ele>
        <time>2010-10-09T08:06:52Z</time>
      </trkpt>
      <trkpt lat="45.64175" lon="6.18531">
        <ele>835</ele>
        <time>2010-10-09T08:06:54Z</time>
      </trkpt>
      <trkpt lat="45.64177" lon="6.18531">
        <ele>835</ele>
        <time>2010-10-09T08:06:55Z</time>
      </trkpt>
      <trkpt lat="45.64184" lon="6.18528">
        <ele>835</ele>
        <time>2010-10-09T08:06:57Z</time>
      </trkpt>
      <trkpt lat="45.64186" lon="6.18525">
        <ele>835</ele>
        <time>2010-10-09T08:06:58Z</time>
      </trkpt>
      <trkpt lat="45.64188" lon="6.18522">
        <ele>835</ele>
        <time>2010-10-09T08:07:00Z</time>
      </trkpt>
      <trkpt lat="45.64197" lon="6.18517">
        <ele>833</ele>
        <time>2010-10-09T08:07:01Z</time>
      </trkpt>
      <trkpt lat="45.64207" lon="6.18513">
        <ele>831</ele>
        <time>2010-10-09T08:07:03Z</time>
      </trkpt>
      <trkpt lat="45.6421" lon="6.18511">
        <ele>830</ele>
        <time>2010-10-09T08:07:04Z</time>
      </trkpt>
      <trkpt lat="45.64215" lon="6.18507">
        <ele>829</ele>
        <time>2010-10-09T08:07:06Z</time>
      </trkpt>
      <trkpt lat="45.64217" lon="6.18504">
        <ele>829</ele>
        <time>2010-10-09T08:07:07Z</time>
      </trkpt>
      <trkpt lat="45.64222" lon="6.185">
        <ele>833</ele>
        <time>2010-10-09T08:07:09Z</time>
      </trkpt>
      <trkpt lat="45.64224" lon="6.18497">
        <ele>833</ele>
        <time>2010-10-09T08:07:10Z</time>
      </trkpt>
      <trkpt lat="45.64225" lon="6.18488">
        <ele>833</ele>
        <time>2010-10-09T08:07:12Z</time>
      </trkpt>
      <trkpt lat="45.64225" lon="6.18482">
        <ele>834</ele>
        <time>2010-10-09T08:07:13Z</time>
      </trkpt>
      <trkpt lat="45.64224" lon="6.18476">
        <ele>835</ele>
        <time>2010-10-09T08:07:14Z</time>
      </trkpt>
      <trkpt lat="45.64221" lon="6.18464">
        <ele>836</ele>
        <time>2010-10-09T08:07:16Z</time>
      </trkpt>
      <trkpt lat="45.6422" lon="6.18458">
        <ele>837</ele>
        <time>2010-10-09T08:07:17Z</time>
      </trkpt>
      <trkpt lat="45.64217" lon="6.18445">
        <ele>838</ele>
        <time>2010-10-09T08:07:19Z</time>
      </trkpt>
      <trkpt lat="45.64216" lon="6.1843">
        <ele>838</ele>
        <time>2010-10-09T08:07:21Z</time>
      </trkpt>
      <trkpt lat="45.64217" lon="6.18421">
        <ele>838</ele>
        <time>2010-10-09T08:07:22Z</time>
      </trkpt>
      <trkpt lat="45.64217" lon="6.18411">
        <ele>842</ele>
        <time>2010-10-09T08:07:23Z</time>
      </trkpt>
      <trkpt lat="45.6422" lon="6.18391">
        <ele>843</ele>
        <time>2010-10-09T08:07:25Z</time>
      </trkpt>
      <trkpt lat="45.64221" lon="6.18383">
        <ele>843</ele>
        <time>2010-10-09T08:07:26Z</time>
      </trkpt>
      <trkpt lat="45.64225" lon="6.18376">
        <ele>843</ele>
        <time>2010-10-09T08:07:27Z</time>
      </trkpt>
      <trkpt lat="45.64229" lon="6.18368">
        <ele>842</ele>
        <time>2010-10-09T08:07:28Z</time>
      </trkpt>
      <trkpt lat="45.64238" lon="6.18353">
        <ele>839</ele>
        <time>2010-10-09T08:07:30Z</time>
      </trkpt>
      <trkpt lat="45.64245" lon="6.1834">
        <ele>833</ele>
        <time>2010-10-09T08:07:32Z</time>
      </trkpt>
      <trkpt lat="45.64248" lon="6.18332">
        <ele>830</ele>
        <time>2010-10-09T08:07:33Z</time>
      </trkpt>
      <trkpt lat="45.64263" lon="6.18312">
        <ele>824</ele>
        <time>2010-10-09T08:07:35Z</time>
      </trkpt>
      <trkpt lat="45.64268" lon="6.18305">
        <ele>823</ele>
        <time>2010-10-09T08:07:36Z</time>
      </trkpt>
      <trkpt lat="45.64271" lon="6.18298">
        <ele>823</ele>
        <time>2010-10-09T08:07:37Z</time>
      </trkpt>
      <trkpt lat="45.64274" lon="6.18293">
        <ele>823</ele>
        <time>2010-10-09T08:07:38Z</time>
      </trkpt>
      <trkpt lat="45.64279" lon="6.1828">
        <ele>823</ele>
        <time>2010-10-09T08:07:40Z</time>
      </trkpt>
      <trkpt lat="45.6428" lon="6.18273">
        <ele>823</ele>
        <time>2010-10-09T08:07:41Z</time>
      </trkpt>
      <trkpt lat="45.64283" lon="6.18257">
        <ele>824</ele>
        <time>2010-10-09T08:07:43Z</time>
      </trkpt>
      <trkpt lat="45.64285" lon="6.18239">
        <ele>828</ele>
        <time>2010-10-09T08:07:45Z</time>
      </trkpt>
      <trkpt lat="45.64286" lon="6.18229">
        <ele>828</ele>
        <time>2010-10-09T08:07:46Z</time>
      </trkpt>
      <trkpt lat="45.64288" lon="6.18211">
        <ele>828</ele>
        <time>2010-10-09T08:07:48Z</time>
      </trkpt>
      <trkpt lat="45.64291" lon="6.18194">
        <ele>829</ele>
        <time>2010-10-09T08:07:50Z</time>
      </trkpt>
      <trkpt lat="45.64292" lon="6.18185">
        <ele>828</ele>
        <time>2010-10-09T08:07:51Z</time>
      </trkpt>
      <trkpt lat="45.64294" lon="6.18177">
        <ele>828</ele>
        <time>2010-10-09T08:07:52Z</time>
      </trkpt>
      <trkpt lat="45.64294" lon="6.18167">
        <ele>828</ele>
        <time>2010-10-09T08:07:53Z</time>
      </trkpt>
      <trkpt lat="45.64295" lon="6.18149">
        <ele>832</ele>
        <time>2010-10-09T08:07:55Z</time>
      </trkpt>
      <trkpt lat="45.64297" lon="6.1814">
        <ele>833</ele>
        <time>2010-10-09T08:07:56Z</time>
      </trkpt>
      <trkpt lat="45.64299" lon="6.1813">
        <ele>833</ele>
        <time>2010-10-09T08:07:57Z</time>
      </trkpt>
      <trkpt lat="45.643" lon="6.18119">
        <ele>833</ele>
        <time>2010-10-09T08:07:58Z</time>
      </trkpt>
      <trkpt lat="45.64302" lon="6.18098">
        <ele>833</ele>
        <time>2010-10-09T08:08:00Z</time>
      </trkpt>
      <trkpt lat="45.64303" lon="6.18088">
        <ele>833</ele>
        <time>2010-10-09T08:08:01Z</time>
      </trkpt>
      <trkpt lat="45.64304" lon="6.18078">
        <ele>840</ele>
        <time>2010-10-09T08:08:02Z</time>
      </trkpt>
      <trkpt lat="45.64305" lon="6.1807">
        <ele>840</ele>
        <time>2010-10-09T08:08:03Z</time>
      </trkpt>
      <trkpt lat="45.64311" lon="6.18061">
        <ele>840</ele>
        <time>2010-10-09T08:08:05Z</time>
      </trkpt>
      <trkpt lat="45.64314" lon="6.18057">
        <ele>841</ele>
        <time>2010-10-09T08:08:06Z</time>
      </trkpt>
      <trkpt lat="45.64323" lon="6.18049">
        <ele>841</ele>
        <time>2010-10-09T08:08:08Z</time>
      </trkpt>
      <trkpt lat="45.64331" lon="6.18038">
        <ele>842</ele>
        <time>2010-10-09T08:08:10Z</time>
      </trkpt>
      <trkpt lat="45.64338" lon="6.18034">
        <ele>829</ele>
        <time>2010-10-09T08:08:11Z</time>
      </trkpt>
      <trkpt lat="45.64344" lon="6.1803">
        <ele>829</ele>
        <time>2010-10-09T08:08:12Z</time>
      </trkpt>
      <trkpt lat="45.64347" lon="6.18024">
        <ele>830</ele>
        <time>2010-10-09T08:08:13Z</time>
      </trkpt>
      <trkpt lat="45.64354" lon="6.18015">
        <ele>831</ele>
        <time>2010-10-09T08:08:15Z</time>
      </trkpt>
      <trkpt lat="45.64358" lon="6.1801">
        <ele>830</ele>
        <time>2010-10-09T08:08:16Z</time>
      </trkpt>
      <trkpt lat="45.64362" lon="6.18007">
        <ele>830</ele>
        <time>2010-10-09T08:08:17Z</time>
      </trkpt>
      <trkpt lat="45.64365" lon="6.18004">
        <ele>829</ele>
        <time>2010-10-09T08:08:18Z</time>
      </trkpt>
      <trkpt lat="45.64373" lon="6.17997">
        <ele>838</ele>
        <time>2010-10-09T08:08:20Z</time>
      </trkpt>
      <trkpt lat="45.64376" lon="6.17994">
        <ele>838</ele>
        <time>2010-10-09T08:08:21Z</time>
      </trkpt>
      <trkpt lat="45.6438" lon="6.17991">
        <ele>837</ele>
        <time>2010-10-09T08:08:22Z</time>
      </trkpt>
      <trkpt lat="45.64385" lon="6.17989">
        <ele>836</ele>
        <time>2010-10-09T08:08:23Z</time>
      </trkpt>
      <trkpt lat="45.64394" lon="6.17986">
        <ele>834</ele>
        <time>2010-10-09T08:08:25Z</time>
      </trkpt>
      <trkpt lat="45.64397" lon="6.17984">
        <ele>834</ele>
        <time>2010-10-09T08:08:26Z</time>
      </trkpt>
      <trkpt lat="45.64401" lon="6.17981">
        <ele>833</ele>
        <time>2010-10-09T08:08:27Z</time>
      </trkpt>
      <trkpt lat="45.64407" lon="6.17978">
        <ele>833</ele>
        <time>2010-10-09T08:08:28Z</time>
      </trkpt>
      <trkpt lat="45.64415" lon="6.17972">
        <ele>834</ele>
        <time>2010-10-09T08:08:30Z</time>
      </trkpt>
      <trkpt lat="45.64418" lon="6.17968">
        <ele>822</ele>
        <time>2010-10-09T08:08:31Z</time>
      </trkpt>
      <trkpt lat="45.64422" lon="6.17965">
        <ele>822</ele>
        <time>2010-10-09T08:08:32Z</time>
      </trkpt>
      <trkpt lat="45.64425" lon="6.17961">
        <ele>823</ele>
        <time>2010-10-09T08:08:33Z</time>
      </trkpt>
      <trkpt lat="45.64433" lon="6.17952">
        <ele>824</ele>
        <time>2010-10-09T08:08:35Z</time>
      </trkpt>
      <trkpt lat="45.64438" lon="6.17949">
        <ele>824</ele>
        <time>2010-10-09T08:08:36Z</time>
      </trkpt>
      <trkpt lat="45.64442" lon="6.17946">
        <ele>824</ele>
        <time>2010-10-09T08:08:37Z</time>
      </trkpt>
      <trkpt lat="45.64445" lon="6.17942">
        <ele>824</ele>
        <time>2010-10-09T08:08:38Z</time>
      </trkpt>
      <trkpt lat="45.64452" lon="6.17934">
        <ele>824</ele>
        <time>2010-10-09T08:08:40Z</time>
      </trkpt>
      <trkpt lat="45.64457" lon="6.17932">
        <ele>823</ele>
        <time>2010-10-09T08:08:41Z</time>
      </trkpt>
      <trkpt lat="45.64462" lon="6.17928">
        <ele>823</ele>
        <time>2010-10-09T08:08:42Z</time>
      </trkpt>
      <trkpt lat="45.64465" lon="6.17925">
        <ele>823</ele>
        <time>2010-10-09T08:08:43Z</time>
      </trkpt>
      <trkpt lat="45.64473" lon="6.17918">
        <ele>822</ele>
        <time>2010-10-09T08:08:45Z</time>
      </trkpt>
      <trkpt lat="45.64476" lon="6.17913">
        <ele>833</ele>
        <time>2010-10-09T08:08:46Z</time>
      </trkpt>
      <trkpt lat="45.64482" lon="6.17908">
        <ele>832</ele>
        <time>2010-10-09T08:08:47Z</time>
      </trkpt>
      <trkpt lat="45.64488" lon="6.17904">
        <ele>831</ele>
        <time>2010-10-09T08:08:48Z</time>
      </trkpt>
      <trkpt lat="45.64497" lon="6.17893">
        <ele>833</ele>
        <time>2010-10-09T08:08:50Z</time>
      </trkpt>
      <trkpt lat="45.645" lon="6.17887">
        <ele>822</ele>
        <time>2010-10-09T08:08:51Z</time>
      </trkpt>
      <trkpt lat="45.64505" lon="6.17882">
        <ele>822</ele>
        <time>2010-10-09T08:08:52Z</time>
      </trkpt>
      <trkpt lat="45.64509" lon="6.17877">
        <ele>822</ele>
        <time>2010-10-09T08:08:53Z</time>
      </trkpt>
      <trkpt lat="45.64518" lon="6.17868">
        <ele>823</ele>
        <time>2010-10-09T08:08:55Z</time>
      </trkpt>
      <trkpt lat="45.6452" lon="6.17863">
        <ele>824</ele>
        <time>2010-10-09T08:08:56Z</time>
      </trkpt>
      <trkpt lat="45.64521" lon="6.17858">
        <ele>824</ele>
        <time>2010-10-09T08:08:57Z</time>
      </trkpt>
      <trkpt lat="45.64525" lon="6.17853">
        <ele>825</ele>
        <time>2010-10-09T08:08:58Z</time>
      </trkpt>
      <trkpt lat="45.64533" lon="6.17844">
        <ele>824</ele>
        <time>2010-10-09T08:09:00Z</time>
      </trkpt>
      <trkpt lat="45.64537" lon="6.17839">
        <ele>823</ele>
        <time>2010-10-09T08:09:01Z</time>
      </trkpt>
      <trkpt lat="45.6454" lon="6.17834">
        <ele>823</ele>
        <time>2010-10-09T08:09:02Z</time>
      </trkpt>
      <trkpt lat="45.64545" lon="6.17828">
        <ele>832</ele>
        <time>2010-10-09T08:09:03Z</time>
      </trkpt>
      <trkpt lat="45.64557" lon="6.17819">
        <ele>830</ele>
        <time>2010-10-09T08:09:05Z</time>
      </trkpt>
      <trkpt lat="45.6456" lon="6.17814">
        <ele>830</ele>
        <time>2010-10-09T08:09:06Z</time>
      </trkpt>
      <trkpt lat="45.64573" lon="6.178">
        <ele>831</ele>
        <time>2010-10-09T08:09:09Z</time>
      </trkpt>
      <trkpt lat="45.64577" lon="6.17796">
        <ele>831</ele>
        <time>2010-10-09T08:09:10Z</time>
      </trkpt>
      <trkpt lat="45.64583" lon="6.17791">
        <ele>832</ele>
        <time>2010-10-09T08:09:11Z</time>
      </trkpt>
      <trkpt lat="45.64589" lon="6.17787">
        <ele>819</ele>
        <time>2010-10-09T08:09:12Z</time>
      </trkpt>
      <trkpt lat="45.64592" lon="6.17781">
        <ele>819</ele>
        <time>2010-10-09T08:09:13Z</time>
      </trkpt>
      <trkpt lat="45.64602" lon="6.17771">
        <ele>820</ele>
        <time>2010-10-09T08:09:15Z</time>
      </trkpt>
      <trkpt lat="45.64607" lon="6.17765">
        <ele>820</ele>
        <time>2010-10-09T08:09:16Z</time>
      </trkpt>
      <trkpt lat="45.64611" lon="6.17759">
        <ele>819</ele>
        <time>2010-10-09T08:09:17Z</time>
      </trkpt>
      <trkpt lat="45.64617" lon="6.17754">
        <ele>818</ele>
        <time>2010-10-09T08:09:18Z</time>
      </trkpt>
      <trkpt lat="45.64627" lon="6.17744">
        <ele>825</ele>
        <time>2010-10-09T08:09:20Z</time>
      </trkpt>
      <trkpt lat="45.64633" lon="6.17739">
        <ele>825</ele>
        <time>2010-10-09T08:09:21Z</time>
      </trkpt>
      <trkpt lat="45.64638" lon="6.17734">
        <ele>824</ele>
        <time>2010-10-09T08:09:22Z</time>
      </trkpt>
      <trkpt lat="45.64643" lon="6.1773">
        <ele>824</ele>
        <time>2010-10-09T08:09:23Z</time>
      </trkpt>
      <trkpt lat="45.64651" lon="6.17719">
        <ele>824</ele>
        <time>2010-10-09T08:09:25Z</time>
      </trkpt>
      <trkpt lat="45.64654" lon="6.17713">
        <ele>824</ele>
        <time>2010-10-09T08:09:26Z</time>
      </trkpt>
      <trkpt lat="45.64658" lon="6.17709">
        <ele>825</ele>
        <time>2010-10-09T08:09:27Z</time>
      </trkpt>
      <trkpt lat="45.6466" lon="6.17705">
        <ele>825</ele>
        <time>2010-10-09T08:09:28Z</time>
      </trkpt>
      <trkpt lat="45.64661" lon="6.17701">
        <ele>825</ele>
        <time>2010-10-09T08:09:29Z</time>
      </trkpt>
      <trkpt lat="45.64659" lon="6.17695">
        <ele>826</ele>
        <time>2010-10-09T08:09:31Z</time>
      </trkpt>
      <trkpt lat="45.64656" lon="6.17693">
        <ele>826</ele>
        <time>2010-10-09T08:09:32Z</time>
      </trkpt>
      <trkpt lat="45.64652" lon="6.1769">
        <ele>826</ele>
        <time>2010-10-09T08:09:34Z</time>
      </trkpt>
      <trkpt lat="45.64652" lon="6.17688">
        <ele>826</ele>
        <time>2010-10-09T08:09:35Z</time>
      </trkpt>
      <trkpt lat="45.64651" lon="6.17682">
        <ele>827</ele>
        <time>2010-10-09T08:09:37Z</time>
      </trkpt>
      <trkpt lat="45.64653" lon="6.17678">
        <ele>827</ele>
        <time>2010-10-09T08:09:38Z</time>
      </trkpt>
      <trkpt lat="45.64658" lon="6.17672">
        <ele>826</ele>
        <time>2010-10-09T08:09:40Z</time>
      </trkpt>
      <trkpt lat="45.64661" lon="6.1767">
        <ele>826</ele>
        <time>2010-10-09T08:09:41Z</time>
      </trkpt>
      <trkpt lat="45.64665" lon="6.17666">
        <ele>826</ele>
        <time>2010-10-09T08:09:43Z</time>
      </trkpt>
      <trkpt lat="45.64669" lon="6.1766">
        <ele>820</ele>
        <time>2010-10-09T08:09:45Z</time>
      </trkpt>
      <trkpt lat="45.64671" lon="6.17659">
        <ele>819</ele>
        <time>2010-10-09T08:09:46Z</time>
      </trkpt>
      <trkpt lat="45.64671" lon="6.17654">
        <ele>816</ele>
        <time>2010-10-09T08:09:48Z</time>
      </trkpt>
      <trkpt lat="45.6467" lon="6.17651">
        <ele>816</ele>
        <time>2010-10-09T08:09:49Z</time>
      </trkpt>
      <trkpt lat="45.64666" lon="6.17641">
        <ele>832</ele>
        <time>2010-10-09T08:09:51Z</time>
      </trkpt>
      <trkpt lat="45.64664" lon="6.17636">
        <ele>833</ele>
        <time>2010-10-09T08:09:52Z</time>
      </trkpt>
      <trkpt lat="45.64663" lon="6.17628">
        <ele>833</ele>
        <time>2010-10-09T08:09:54Z</time>
      </trkpt>
      <trkpt lat="45.64664" lon="6.17621">
        <ele>833</ele>
        <time>2010-10-09T08:09:56Z</time>
      </trkpt>
      <trkpt lat="45.64666" lon="6.17617">
        <ele>833</ele>
        <time>2010-10-09T08:09:57Z</time>
      </trkpt>
      <trkpt lat="45.64666" lon="6.17608">
        <ele>833</ele>
        <time>2010-10-09T08:09:59Z</time>
      </trkpt>
      <trkpt lat="45.64665" lon="6.176">
        <ele>832</ele>
        <time>2010-10-09T08:10:01Z</time>
      </trkpt>
      <trkpt lat="45.64664" lon="6.17592">
        <ele>831</ele>
        <time>2010-10-09T08:10:03Z</time>
      </trkpt>
      <trkpt lat="45.64665" lon="6.17585">
        <ele>830</ele>
        <time>2010-10-09T08:10:05Z</time>
      </trkpt>
      <trkpt lat="45.64666" lon="6.17582">
        <ele>830</ele>
        <time>2010-10-09T08:10:06Z</time>
      </trkpt>
      <trkpt lat="45.64667" lon="6.17578">
        <ele>825</ele>
        <time>2010-10-09T08:10:07Z</time>
      </trkpt>
      <trkpt lat="45.64667" lon="6.17574">
        <ele>824</ele>
        <time>2010-10-09T08:10:08Z</time>
      </trkpt>
      <trkpt lat="45.64668" lon="6.17568">
        <ele>821</ele>
        <time>2010-10-09T08:10:10Z</time>
      </trkpt>
      <trkpt lat="45.64668" lon="6.17564">
        <ele>820</ele>
        <time>2010-10-09T08:10:11Z</time>
      </trkpt>
      <trkpt lat="45.64669" lon="6.17561">
        <ele>819</ele>
        <time>2010-10-09T08:10:12Z</time>
      </trkpt>
      <trkpt lat="45.64669" lon="6.17557">
        <ele>819</ele>
        <time>2010-10-09T08:10:13Z</time>
      </trkpt>
      <trkpt lat="45.64668" lon="6.17552">
        <ele>818</ele>
        <time>2010-10-09T08:10:15Z</time>
      </trkpt>
      <trkpt lat="45.64667" lon="6.17549">
        <ele>818</ele>
        <time>2010-10-09T08:10:16Z</time>
      </trkpt>
      <trkpt lat="45.64666" lon="6.17547">
        <ele>836</ele>
        <time>2010-10-09T08:10:17Z</time>
      </trkpt>
      <trkpt lat="45.64664" lon="6.17542">
        <ele>836</ele>
        <time>2010-10-09T08:10:18Z</time>
      </trkpt>
      <trkpt lat="45.64663" lon="6.17537">
        <ele>836</ele>
        <time>2010-10-09T08:10:20Z</time>
      </trkpt>
      <trkpt lat="45.64662" lon="6.17534">
        <ele>836</ele>
        <time>2010-10-09T08:10:21Z</time>
      </trkpt>
      <trkpt lat="45.64661" lon="6.17532">
        <ele>836</ele>
        <time>2010-10-09T08:10:22Z</time>
      </trkpt>
      <trkpt lat="45.6466" lon="6.1753">
        <ele>836</ele>
        <time>2010-10-09T08:10:23Z</time>
      </trkpt>
      <trkpt lat="45.64658" lon="6.17524">
        <ele>836</ele>
        <time>2010-10-09T08:10:25Z</time>
      </trkpt>
      <trkpt lat="45.64657" lon="6.17522">
        <ele>836</ele>
        <time>2010-10-09T08:10:26Z</time>
      </trkpt>
      <trkpt lat="45.64656" lon="6.1752">
        <ele>836</ele>
        <time>2010-10-09T08:10:27Z</time>
      </trkpt>
      <trkpt lat="45.64654" lon="6.17518">
        <ele>836</ele>
        <time>2010-10-09T08:10:28Z</time>
      </trkpt>
      <trkpt lat="45.64652" lon="6.17513">
        <ele>836</ele>
        <time>2010-10-09T08:10:30Z</time>
      </trkpt>
      <trkpt lat="45.6465" lon="6.17511">
        <ele>836</ele>
        <time>2010-10-09T08:10:31Z</time>
      </trkpt>
      <trkpt lat="45.64649" lon="6.17509">
        <ele>836</ele>
        <time>2010-10-09T08:10:32Z</time>
      </trkpt>
      <trkpt lat="45.64648" lon="6.17507">
        <ele>836</ele>
        <time>2010-10-09T08:10:33Z</time>
      </trkpt>
      <trkpt lat="45.64645" lon="6.17502">
        <ele>836</ele>
        <time>2010-10-09T08:10:35Z</time>
      </trkpt>
      <trkpt lat="45.64645" lon="6.175">
        <ele>836</ele>
        <time>2010-10-09T08:10:36Z</time>
      </trkpt>
      <trkpt lat="45.64644" lon="6.17498">
        <ele>835</ele>
        <time>2010-10-09T08:10:37Z</time>
      </trkpt>
      <trkpt lat="45.64644" lon="6.17495">
        <ele>835</ele>
        <time>2010-10-09T08:10:38Z</time>
      </trkpt>
      <trkpt lat="45.64642" lon="6.17491">
        <ele>836</ele>
        <time>2010-10-09T08:10:40Z</time>
      </trkpt>
      <trkpt lat="45.64642" lon="6.17489">
        <ele>836</ele>
        <time>2010-10-09T08:10:41Z</time>
      </trkpt>
      <trkpt lat="45.64641" lon="6.17486">
        <ele>836</ele>
        <time>2010-10-09T08:10:42Z</time>
      </trkpt>
      <trkpt lat="45.64641" lon="6.17484">
        <ele>836</ele>
        <time>2010-10-09T08:10:43Z</time>
      </trkpt>
      <trkpt lat="45.6464" lon="6.17479">
        <ele>836</ele>
        <time>2010-10-09T08:10:45Z</time>
      </trkpt>
      <trkpt lat="45.6464" lon="6.17476">
        <ele>836</ele>
        <time>2010-10-09T08:10:46Z</time>
      </trkpt>
      <trkpt lat="45.6464" lon="6.17474">
        <ele>837</ele>
        <time>2010-10-09T08:10:47Z</time>
      </trkpt>
      <trkpt lat="45.6464" lon="6.17471">
        <ele>837</ele>
        <time>2010-10-09T08:10:48Z</time>
      </trkpt>
      <trkpt lat="45.64639" lon="6.17465">
        <ele>837</ele>
        <time>2010-10-09T08:10:50Z</time>
      </trkpt>
      <trkpt lat="45.64639" lon="6.17463">
        <ele>836</ele>
        <time>2010-10-09T08:10:51Z</time>
      </trkpt>
      <trkpt lat="45.6464" lon="6.17461">
        <ele>836</ele>
        <time>2010-10-09T08:10:52Z</time>
      </trkpt>
      <trkpt lat="45.6464" lon="6.17458">
        <ele>836</ele>
        <time>2010-10-09T08:10:53Z</time>
      </trkpt>
      <trkpt lat="45.64639" lon="6.17453">
        <ele>836</ele>
        <time>2010-10-09T08:10:55Z</time>
      </trkpt>
      <trkpt lat="45.64638" lon="6.1745">
        <ele>836</ele>
        <time>2010-10-09T08:10:56Z</time>
      </trkpt>
      <trkpt lat="45.64637" lon="6.17447">
        <ele>836</ele>
        <time>2010-10-09T08:10:57Z</time>
      </trkpt>
      <trkpt lat="45.64637" lon="6.17445">
        <ele>836</ele>
        <time>2010-10-09T08:10:58Z</time>
      </trkpt>
      <trkpt lat="45.64636" lon="6.17441">
        <ele>836</ele>
        <time>2010-10-09T08:11:00Z</time>
      </trkpt>
      <trkpt lat="45.64635" lon="6.17439">
        <ele>836</ele>
        <time>2010-10-09T08:11:01Z</time>
      </trkpt>
      <trkpt lat="45.64634" lon="6.17438">
        <ele>836</ele>
        <time>2010-10-09T08:11:03Z</time>
      </trkpt>
      <trkpt lat="45.64631" lon="6.17435">
        <ele>836</ele>
        <time>2010-10-09T08:11:04Z</time>
      </trkpt>
      <trkpt lat="45.64629" lon="6.17434">
        <ele>837</ele>
        <time>2010-10-09T08:11:06Z</time>
      </trkpt>
      <trkpt lat="45.64625" lon="6.17433">
        <ele>837</ele>
        <time>2010-10-09T08:11:07Z</time>
      </trkpt>
      <trkpt lat="45.64623" lon="6.17437">
        <ele>838</ele>
        <time>2010-10-09T08:11:10Z</time>
      </trkpt>
      <trkpt lat="45.64622" lon="6.17439">
        <ele>838</ele>
        <time>2010-10-09T08:11:11Z</time>
      </trkpt>
      <trkpt lat="45.64621" lon="6.17443">
        <ele>838</ele>
        <time>2010-10-09T08:11:14Z</time>
      </trkpt>
      <trkpt lat="45.64621" lon="6.17445">
        <ele>838</ele>
        <time>2010-10-09T08:11:15Z</time>
      </trkpt>
      <trkpt lat="45.64624" lon="6.17449">
        <ele>838</ele>
        <time>2010-10-09T08:11:17Z</time>
      </trkpt>
      <trkpt lat="45.64626" lon="6.17455">
        <ele>838</ele>
        <time>2010-10-09T08:11:19Z</time>
      </trkpt>
      <trkpt lat="45.64623" lon="6.1746">
        <ele>838</ele>
        <time>2010-10-09T08:11:21Z</time>
      </trkpt>
      <trkpt lat="45.64622" lon="6.17463">
        <ele>839</ele>
        <time>2010-10-09T08:11:23Z</time>
      </trkpt>
      <trkpt lat="45.64621" lon="6.17467">
        <ele>839</ele>
        <time>2010-10-09T08:11:25Z</time>
      </trkpt>
      <trkpt lat="45.64625" lon="6.17473">
        <ele>838</ele>
        <time>2010-10-09T08:11:27Z</time>
      </trkpt>
      <trkpt lat="45.64626" lon="6.17475">
        <ele>838</ele>
        <time>2010-10-09T08:11:28Z</time>
      </trkpt>
      <trkpt lat="45.64627" lon="6.17479">
        <ele>838</ele>
        <time>2010-10-09T08:11:30Z</time>
      </trkpt>
      <trkpt lat="45.64626" lon="6.17486">
        <ele>839</ele>
        <time>2010-10-09T08:11:34Z</time>
      </trkpt>
      <trkpt lat="45.64626" lon="6.17489">
        <ele>839</ele>
        <time>2010-10-09T08:11:36Z</time>
      </trkpt>
      <trkpt lat="45.64626" lon="6.17491">
        <ele>839</ele>
        <time>2010-10-09T08:11:37Z</time>
      </trkpt>
      <trkpt lat="45.64626" lon="6.17494">
        <ele>839</ele>
        <time>2010-10-09T08:11:38Z</time>
      </trkpt>
      <trkpt lat="45.64625" lon="6.17497">
        <ele>839</ele>
        <time>2010-10-09T08:11:40Z</time>
      </trkpt>
      <trkpt lat="45.64624" lon="6.17499">
        <ele>839</ele>
        <time>2010-10-09T08:11:41Z</time>
      </trkpt>
      <trkpt lat="45.64625" lon="6.17504">
        <ele>840</ele>
        <time>2010-10-09T08:11:43Z</time>
      </trkpt>
      <trkpt lat="45.64624" lon="6.17506">
        <ele>840</ele>
        <time>2010-10-09T08:11:44Z</time>
      </trkpt>
      <trkpt lat="45.64626" lon="6.17512">
        <ele>840</ele>
        <time>2010-10-09T08:11:46Z</time>
      </trkpt>
      <trkpt lat="45.64624" lon="6.17516">
        <ele>841</ele>
        <time>2010-10-09T08:11:49Z</time>
      </trkpt>
      <trkpt lat="45.64621" lon="6.17519">
        <ele>841</ele>
        <time>2010-10-09T08:11:50Z</time>
      </trkpt>
      <trkpt lat="45.64618" lon="6.17522">
        <ele>841</ele>
        <time>2010-10-09T08:11:52Z</time>
      </trkpt>
      <trkpt lat="45.64618" lon="6.17525">
        <ele>841</ele>
        <time>2010-10-09T08:11:54Z</time>
      </trkpt>
      <trkpt lat="45.64617" lon="6.17528">
        <ele>841</ele>
        <time>2010-10-09T08:11:55Z</time>
      </trkpt>
      <trkpt lat="45.64616" lon="6.1753">
        <ele>842</ele>
        <time>2010-10-09T08:11:56Z</time>
      </trkpt>
      <trkpt lat="45.64615" lon="6.17531">
        <ele>842</ele>
        <time>2010-10-09T08:11:57Z</time>
      </trkpt>
      <trkpt lat="45.64613" lon="6.17539">
        <ele>842</ele>
        <time>2010-10-09T08:12:00Z</time>
      </trkpt>
      <trkpt lat="45.64611" lon="6.17541">
        <ele>842</ele>
        <time>2010-10-09T08:12:01Z</time>
      </trkpt>
      <trkpt lat="45.6461" lon="6.17544">
        <ele>842</ele>
        <time>2010-10-09T08:12:02Z</time>
      </trkpt>
      <trkpt lat="45.6461" lon="6.17546">
        <ele>842</ele>
        <time>2010-10-09T08:12:03Z</time>
      </trkpt>
      <trkpt lat="45.64609" lon="6.1755">
        <ele>842</ele>
        <time>2010-10-09T08:12:05Z</time>
      </trkpt>
      <trkpt lat="45.64607" lon="6.17552">
        <ele>843</ele>
        <time>2010-10-09T08:12:06Z</time>
      </trkpt>
      <trkpt lat="45.64605" lon="6.17554">
        <ele>843</ele>
        <time>2010-10-09T08:12:07Z</time>
      </trkpt>
      <trkpt lat="45.64603" lon="6.17557">
        <ele>843</ele>
        <time>2010-10-09T08:12:09Z</time>
      </trkpt>
      <trkpt lat="45.646" lon="6.17559">
        <ele>844</ele>
        <time>2010-10-09T08:12:11Z</time>
      </trkpt>
      <trkpt lat="45.64595" lon="6.17561">
        <ele>844</ele>
        <time>2010-10-09T08:12:13Z</time>
      </trkpt>
      <trkpt lat="45.64594" lon="6.17561">
        <ele>845</ele>
        <time>2010-10-09T08:12:14Z</time>
      </trkpt>
      <trkpt lat="45.6459" lon="6.17559">
        <ele>845</ele>
        <time>2010-10-09T08:12:16Z</time>
      </trkpt>
      <trkpt lat="45.64587" lon="6.17556">
        <ele>845</ele>
        <time>2010-10-09T08:12:19Z</time>
      </trkpt>
      <trkpt lat="45.64586" lon="6.17552">
        <ele>845</ele>
        <time>2010-10-09T08:12:21Z</time>
      </trkpt>
      <trkpt lat="45.64585" lon="6.1755">
        <ele>844</ele>
        <time>2010-10-09T08:12:22Z</time>
      </trkpt>
      <trkpt lat="45.64585" lon="6.17546">
        <ele>844</ele>
        <time>2010-10-09T08:12:24Z</time>
      </trkpt>
      <trkpt lat="45.64588" lon="6.17542">
        <ele>844</ele>
        <time>2010-10-09T08:12:26Z</time>
      </trkpt>
      <trkpt lat="45.64589" lon="6.17537">
        <ele>844</ele>
        <time>2010-10-09T08:12:29Z</time>
      </trkpt>
      <trkpt lat="45.64589" lon="6.17531">
        <ele>844</ele>
        <time>2010-10-09T08:12:31Z</time>
      </trkpt>
      <trkpt lat="45.64588" lon="6.17529">
        <ele>845</ele>
        <time>2010-10-09T08:12:32Z</time>
      </trkpt>
      <trkpt lat="45.64588" lon="6.17525">
        <ele>845</ele>
        <time>2010-10-09T08:12:34Z</time>
      </trkpt>
      <trkpt lat="45.64589" lon="6.17521">
        <ele>845</ele>
        <time>2010-10-09T08:12:36Z</time>
      </trkpt>
      <trkpt lat="45.64589" lon="6.1752">
        <ele>845</ele>
        <time>2010-10-09T08:12:37Z</time>
      </trkpt>
      <trkpt lat="45.64589" lon="6.17517">
        <ele>846</ele>
        <time>2010-10-09T08:12:40Z</time>
      </trkpt>
      <trkpt lat="45.64587" lon="6.17515">
        <ele>846</ele>
        <time>2010-10-09T08:12:41Z</time>
      </trkpt>
      <trkpt lat="45.64584" lon="6.17512">
        <ele>847</ele>
        <time>2010-10-09T08:12:43Z</time>
      </trkpt>
      <trkpt lat="45.64581" lon="6.17509">
        <ele>854</ele>
        <time>2010-10-09T08:12:45Z</time>
      </trkpt>
      <trkpt lat="45.6458" lon="6.17507">
        <ele>853</ele>
        <time>2010-10-09T08:12:46Z</time>
      </trkpt>
      <trkpt lat="45.6458" lon="6.17505">
        <ele>853</ele>
        <time>2010-10-09T08:12:47Z</time>
      </trkpt>
      <trkpt lat="45.64579" lon="6.17503">
        <ele>853</ele>
        <time>2010-10-09T08:12:49Z</time>
      </trkpt>
      <trkpt lat="45.64577" lon="6.17501">
        <ele>853</ele>
        <time>2010-10-09T08:12:50Z</time>
      </trkpt>
      <trkpt lat="45.64576" lon="6.17498">
        <ele>853</ele>
        <time>2010-10-09T08:12:52Z</time>
      </trkpt>
      <trkpt lat="45.64574" lon="6.17495">
        <ele>854</ele>
        <time>2010-10-09T08:12:54Z</time>
      </trkpt>
      <trkpt lat="45.64571" lon="6.1749">
        <ele>855</ele>
        <time>2010-10-09T08:12:57Z</time>
      </trkpt>
      <trkpt lat="45.6457" lon="6.17488">
        <ele>855</ele>
        <time>2010-10-09T08:12:58Z</time>
      </trkpt>
      <trkpt lat="45.64567" lon="6.17483">
        <ele>856</ele>
        <time>2010-10-09T08:13:00Z</time>
      </trkpt>
      <trkpt lat="45.64566" lon="6.17481">
        <ele>856</ele>
        <time>2010-10-09T08:13:01Z</time>
      </trkpt>
      <trkpt lat="45.64564" lon="6.17479">
        <ele>856</ele>
        <time>2010-10-09T08:13:02Z</time>
      </trkpt>
      <trkpt lat="45.64562" lon="6.17477">
        <ele>856</ele>
        <time>2010-10-09T08:13:03Z</time>
      </trkpt>
      <trkpt lat="45.6456" lon="6.17473">
        <ele>857</ele>
        <time>2010-10-09T08:13:05Z</time>
      </trkpt>
      <trkpt lat="45.64558" lon="6.17468">
        <ele>857</ele>
        <time>2010-10-09T08:13:07Z</time>
      </trkpt>
      <trkpt lat="45.64554" lon="6.17464">
        <ele>857</ele>
        <time>2010-10-09T08:13:09Z</time>
      </trkpt>
      <trkpt lat="45.64552" lon="6.17461">
        <ele>858</ele>
        <time>2010-10-09T08:13:10Z</time>
      </trkpt>
      <trkpt lat="45.6455" lon="6.17459">
        <ele>858</ele>
        <time>2010-10-09T08:13:11Z</time>
      </trkpt>
      <trkpt lat="45.6455" lon="6.17457">
        <ele>858</ele>
        <time>2010-10-09T08:13:12Z</time>
      </trkpt>
      <trkpt lat="45.64548" lon="6.17454">
        <ele>858</ele>
        <time>2010-10-09T08:13:13Z</time>
      </trkpt>
      <trkpt lat="45.64545" lon="6.17451">
        <ele>858</ele>
        <time>2010-10-09T08:13:15Z</time>
      </trkpt>
      <trkpt lat="45.6454" lon="6.17447">
        <ele>859</ele>
        <time>2010-10-09T08:13:17Z</time>
      </trkpt>
      <trkpt lat="45.64539" lon="6.17447">
        <ele>859</ele>
        <time>2010-10-09T08:13:20Z</time>
      </trkpt>
      <trkpt lat="45.6454" lon="6.17449">
        <ele>859</ele>
        <time>2010-10-09T08:13:21Z</time>
      </trkpt>
      <trkpt lat="45.64538" lon="6.1745">
        <ele>859</ele>
        <time>2010-10-09T08:13:23Z</time>
      </trkpt>
      <trkpt lat="45.64535" lon="6.1745">
        <ele>859</ele>
        <time>2010-10-09T08:13:25Z</time>
      </trkpt>
      <trkpt lat="45.64529" lon="6.17447">
        <ele>860</ele>
        <time>2010-10-09T08:13:26Z</time>
      </trkpt>
      <trkpt lat="45.64528" lon="6.17449">
        <ele>860</ele>
        <time>2010-10-09T08:13:28Z</time>
      </trkpt>
      <trkpt lat="45.64529" lon="6.17453">
        <ele>860</ele>
        <time>2010-10-09T08:13:29Z</time>
      </trkpt>
      <trkpt lat="45.64529" lon="6.17456">
        <ele>860</ele>
        <time>2010-10-09T08:13:31Z</time>
      </trkpt>
      <trkpt lat="45.64527" lon="6.17458">
        <ele>861</ele>
        <time>2010-10-09T08:13:32Z</time>
      </trkpt>
      <trkpt lat="45.64526" lon="6.17463">
        <ele>861</ele>
        <time>2010-10-09T08:13:34Z</time>
      </trkpt>
      <trkpt lat="45.64527" lon="6.17466">
        <ele>861</ele>
        <time>2010-10-09T08:13:35Z</time>
      </trkpt>
      <trkpt lat="45.64529" lon="6.17473">
        <ele>861</ele>
        <time>2010-10-09T08:13:37Z</time>
      </trkpt>
      <trkpt lat="45.64532" lon="6.17478">
        <ele>861</ele>
        <time>2010-10-09T08:13:39Z</time>
      </trkpt>
      <trkpt lat="45.64534" lon="6.17481">
        <ele>860</ele>
        <time>2010-10-09T08:13:40Z</time>
      </trkpt>
      <trkpt lat="45.64536" lon="6.17484">
        <ele>860</ele>
        <time>2010-10-09T08:13:41Z</time>
      </trkpt>
      <trkpt lat="45.64536" lon="6.17487">
        <ele>860</ele>
        <time>2010-10-09T08:13:42Z</time>
      </trkpt>
      <trkpt lat="45.64536" lon="6.17491">
        <ele>860</ele>
        <time>2010-10-09T08:13:44Z</time>
      </trkpt>
      <trkpt lat="45.64532" lon="6.17494">
        <ele>861</ele>
        <time>2010-10-09T08:13:46Z</time>
      </trkpt>
      <trkpt lat="45.64528" lon="6.17495">
        <ele>862</ele>
        <time>2010-10-09T08:13:47Z</time>
      </trkpt>
      <trkpt lat="45.64526" lon="6.17497">
        <ele>862</ele>
        <time>2010-10-09T08:13:48Z</time>
      </trkpt>
      <trkpt lat="45.64524" lon="6.17499">
        <ele>863</ele>
        <time>2010-10-09T08:13:49Z</time>
      </trkpt>
      <trkpt lat="45.64522" lon="6.17503">
        <ele>863</ele>
        <time>2010-10-09T08:13:51Z</time>
      </trkpt>
      <trkpt lat="45.6452" lon="6.17507">
        <ele>864</ele>
        <time>2010-10-09T08:13:53Z</time>
      </trkpt>
      <trkpt lat="45.64517" lon="6.1751">
        <ele>864</ele>
        <time>2010-10-09T08:13:55Z</time>
      </trkpt>
      <trkpt lat="45.64517" lon="6.17511">
        <ele>864</ele>
        <time>2010-10-09T08:13:56Z</time>
      </trkpt>
      <trkpt lat="45.64515" lon="6.17513">
        <ele>864</ele>
        <time>2010-10-09T08:13:57Z</time>
      </trkpt>
      <trkpt lat="45.64513" lon="6.17515">
        <ele>864</ele>
        <time>2010-10-09T08:13:59Z</time>
      </trkpt>
      <trkpt lat="45.64512" lon="6.17517">
        <ele>864</ele>
        <time>2010-10-09T08:14:00Z</time>
      </trkpt>
      <trkpt lat="45.6451" lon="6.17518">
        <ele>864</ele>
        <time>2010-10-09T08:14:01Z</time>
      </trkpt>
      <trkpt lat="45.64509" lon="6.17519">
        <ele>864</ele>
        <time>2010-10-09T08:14:02Z</time>
      </trkpt>
      <trkpt lat="45.64507" lon="6.1752">
        <ele>864</ele>
        <time>2010-10-09T08:14:03Z</time>
      </trkpt>
      <trkpt lat="45.64505" lon="6.17524">
        <ele>864</ele>
        <time>2010-10-09T08:14:05Z</time>
      </trkpt>
      <trkpt lat="45.64504" lon="6.17525">
        <ele>864</ele>
        <time>2010-10-09T08:14:06Z</time>
      </trkpt>
      <trkpt lat="45.64503" lon="6.17527">
        <ele>864</ele>
        <time>2010-10-09T08:14:07Z</time>
      </trkpt>
      <trkpt lat="45.64502" lon="6.17529">
        <ele>863</ele>
        <time>2010-10-09T08:14:08Z</time>
      </trkpt>
      <trkpt lat="45.645" lon="6.17534">
        <ele>872</ele>
        <time>2010-10-09T08:14:10Z</time>
      </trkpt>
      <trkpt lat="45.64499" lon="6.17536">
        <ele>872</ele>
        <time>2010-10-09T08:14:11Z</time>
      </trkpt>
      <trkpt lat="45.64498" lon="6.17539">
        <ele>872</ele>
        <time>2010-10-09T08:14:12Z</time>
      </trkpt>
      <trkpt lat="45.64498" lon="6.17542">
        <ele>872</ele>
        <time>2010-10-09T08:14:13Z</time>
      </trkpt>
      <trkpt lat="45.64495" lon="6.17546">
        <ele>872</ele>
        <time>2010-10-09T08:14:15Z</time>
      </trkpt>
      <trkpt lat="45.64494" lon="6.17548">
        <ele>871</ele>
        <time>2010-10-09T08:14:16Z</time>
      </trkpt>
      <trkpt lat="45.64492" lon="6.1755">
        <ele>871</ele>
        <time>2010-10-09T08:14:17Z</time>
      </trkpt>
      <trkpt lat="45.64491" lon="6.17552">
        <ele>871</ele>
        <time>2010-10-09T08:14:18Z</time>
      </trkpt>
      <trkpt lat="45.64487" lon="6.17555">
        <ele>871</ele>
        <time>2010-10-09T08:14:20Z</time>
      </trkpt>
      <trkpt lat="45.64482" lon="6.17558">
        <ele>872</ele>
        <time>2010-10-09T08:14:22Z</time>
      </trkpt>
      <trkpt lat="45.64481" lon="6.17559">
        <ele>871</ele>
        <time>2010-10-09T08:14:23Z</time>
      </trkpt>
      <trkpt lat="45.64479" lon="6.17563">
        <ele>872</ele>
        <time>2010-10-09T08:14:25Z</time>
      </trkpt>
      <trkpt lat="45.64477" lon="6.17563">
        <ele>872</ele>
        <time>2010-10-09T08:14:26Z</time>
      </trkpt>
      <trkpt lat="45.64473" lon="6.17564">
        <ele>872</ele>
        <time>2010-10-09T08:14:28Z</time>
      </trkpt>
      <trkpt lat="45.64471" lon="6.17563">
        <ele>872</ele>
        <time>2010-10-09T08:14:29Z</time>
      </trkpt>
      <trkpt lat="45.64466" lon="6.17561">
        <ele>873</ele>
        <time>2010-10-09T08:14:31Z</time>
      </trkpt>
      <trkpt lat="45.64463" lon="6.17558">
        <ele>873</ele>
        <time>2010-10-09T08:14:33Z</time>
      </trkpt>
      <trkpt lat="45.64461" lon="6.17553">
        <ele>873</ele>
        <time>2010-10-09T08:14:35Z</time>
      </trkpt>
      <trkpt lat="45.6446" lon="6.17551">
        <ele>873</ele>
        <time>2010-10-09T08:14:37Z</time>
      </trkpt>
      <trkpt lat="45.64459" lon="6.17546">
        <ele>874</ele>
        <time>2010-10-09T08:14:38Z</time>
      </trkpt>
      <trkpt lat="45.64459" lon="6.17541">
        <ele>874</ele>
        <time>2010-10-09T08:14:40Z</time>
      </trkpt>
      <trkpt lat="45.64459" lon="6.17538">
        <ele>874</ele>
        <time>2010-10-09T08:14:41Z</time>
      </trkpt>
      <trkpt lat="45.64458" lon="6.17535">
        <ele>874</ele>
        <time>2010-10-09T08:14:42Z</time>
      </trkpt>
      <trkpt lat="45.64458" lon="6.17532">
        <ele>874</ele>
        <time>2010-10-09T08:14:43Z</time>
      </trkpt>
      <trkpt lat="45.64459" lon="6.17527">
        <ele>874</ele>
        <time>2010-10-09T08:14:45Z</time>
      </trkpt>
      <trkpt lat="45.64459" lon="6.17525">
        <ele>874</ele>
        <time>2010-10-09T08:14:46Z</time>
      </trkpt>
      <trkpt lat="45.6446" lon="6.17523">
        <ele>874</ele>
        <time>2010-10-09T08:14:47Z</time>
      </trkpt>
      <trkpt lat="45.6446" lon="6.1752">
        <ele>874</ele>
        <time>2010-10-09T08:14:48Z</time>
      </trkpt>
      <trkpt lat="45.64458" lon="6.17515">
        <ele>874</ele>
        <time>2010-10-09T08:14:50Z</time>
      </trkpt>
      <trkpt lat="45.64458" lon="6.17509">
        <ele>874</ele>
        <time>2010-10-09T08:14:52Z</time>
      </trkpt>
      <trkpt lat="45.64457" lon="6.17507">
        <ele>874</ele>
        <time>2010-10-09T08:14:53Z</time>
      </trkpt>
      <trkpt lat="45.64456" lon="6.17501">
        <ele>874</ele>
        <time>2010-10-09T08:14:55Z</time>
      </trkpt>
      <trkpt lat="45.64455" lon="6.17499">
        <ele>875</ele>
        <time>2010-10-09T08:14:56Z</time>
      </trkpt>
      <trkpt lat="45.64454" lon="6.17494">
        <ele>875</ele>
        <time>2010-10-09T08:14:58Z</time>
      </trkpt>
      <trkpt lat="45.64452" lon="6.17489">
        <ele>876</ele>
        <time>2010-10-09T08:15:00Z</time>
      </trkpt>
      <trkpt lat="45.64451" lon="6.17487">
        <ele>876</ele>
        <time>2010-10-09T08:15:01Z</time>
      </trkpt>
      <trkpt lat="45.6445" lon="6.17485">
        <ele>876</ele>
        <time>2010-10-09T08:15:02Z</time>
      </trkpt>
      <trkpt lat="45.64449" lon="6.17483">
        <ele>876</ele>
        <time>2010-10-09T08:15:03Z</time>
      </trkpt>
      <trkpt lat="45.64447" lon="6.17478">
        <ele>876</ele>
        <time>2010-10-09T08:15:05Z</time>
      </trkpt>
      <trkpt lat="45.64446" lon="6.17476">
        <ele>876</ele>
        <time>2010-10-09T08:15:06Z</time>
      </trkpt>
      <trkpt lat="45.64445" lon="6.17474">
        <ele>876</ele>
        <time>2010-10-09T08:15:07Z</time>
      </trkpt>
      <trkpt lat="45.64444" lon="6.17471">
        <ele>876</ele>
        <time>2010-10-09T08:15:08Z</time>
      </trkpt>
      <trkpt lat="45.64442" lon="6.17467">
        <ele>876</ele>
        <time>2010-10-09T08:15:10Z</time>
      </trkpt>
      <trkpt lat="45.64442" lon="6.17464">
        <ele>876</ele>
        <time>2010-10-09T08:15:11Z</time>
      </trkpt>
      <trkpt lat="45.64441" lon="6.17462">
        <ele>876</ele>
        <time>2010-10-09T08:15:12Z</time>
      </trkpt>
      <trkpt lat="45.6444" lon="6.1746">
        <ele>876</ele>
        <time>2010-10-09T08:15:13Z</time>
      </trkpt>
      <trkpt lat="45.64437" lon="6.17456">
        <ele>876</ele>
        <time>2010-10-09T08:15:15Z</time>
      </trkpt>
      <trkpt lat="45.64436" lon="6.17454">
        <ele>876</ele>
        <time>2010-10-09T08:15:16Z</time>
      </trkpt>
      <trkpt lat="45.64436" lon="6.17452">
        <ele>876</ele>
        <time>2010-10-09T08:15:17Z</time>
      </trkpt>
      <trkpt lat="45.64434" lon="6.1745">
        <ele>877</ele>
        <time>2010-10-09T08:15:18Z</time>
      </trkpt>
      <trkpt lat="45.64432" lon="6.17445">
        <ele>877</ele>
        <time>2010-10-09T08:15:20Z</time>
      </trkpt>
      <trkpt lat="45.64431" lon="6.17443">
        <ele>877</ele>
        <time>2010-10-09T08:15:21Z</time>
      </trkpt>
      <trkpt lat="45.6443" lon="6.17441">
        <ele>877</ele>
        <time>2010-10-09T08:15:22Z</time>
      </trkpt>
      <trkpt lat="45.64429" lon="6.17439">
        <ele>877</ele>
        <time>2010-10-09T08:15:23Z</time>
      </trkpt>
      <trkpt lat="45.64426" lon="6.17435">
        <ele>878</ele>
        <time>2010-10-09T08:15:25Z</time>
      </trkpt>
      <trkpt lat="45.64425" lon="6.17433">
        <ele>878</ele>
        <time>2010-10-09T08:15:26Z</time>
      </trkpt>
      <trkpt lat="45.64423" lon="6.17431">
        <ele>878</ele>
        <time>2010-10-09T08:15:27Z</time>
      </trkpt>
      <trkpt lat="45.64422" lon="6.17429">
        <ele>879</ele>
        <time>2010-10-09T08:15:28Z</time>
      </trkpt>
      <trkpt lat="45.64419" lon="6.17426">
        <ele>879</ele>
        <time>2010-10-09T08:15:30Z</time>
      </trkpt>
      <trkpt lat="45.64417" lon="6.17424">
        <ele>879</ele>
        <time>2010-10-09T08:15:31Z</time>
      </trkpt>
      <trkpt lat="45.64416" lon="6.17423">
        <ele>882</ele>
        <time>2010-10-09T08:15:32Z</time>
      </trkpt>
      <trkpt lat="45.64414" lon="6.17421">
        <ele>882</ele>
        <time>2010-10-09T08:15:33Z</time>
      </trkpt>
      <trkpt lat="45.64411" lon="6.17419">
        <ele>882</ele>
        <time>2010-10-09T08:15:35Z</time>
      </trkpt>
      <trkpt lat="45.64409" lon="6.17418">
        <ele>883</ele>
        <time>2010-10-09T08:15:36Z</time>
      </trkpt>
      <trkpt lat="45.64408" lon="6.17417">
        <ele>883</ele>
        <time>2010-10-09T08:15:37Z</time>
      </trkpt>
      <trkpt lat="45.64406" lon="6.17416">
        <ele>882</ele>
        <time>2010-10-09T08:15:38Z</time>
      </trkpt>
      <trkpt lat="45.64403" lon="6.17415">
        <ele>882</ele>
        <time>2010-10-09T08:15:40Z</time>
      </trkpt>
      <trkpt lat="45.64402" lon="6.17414">
        <ele>882</ele>
        <time>2010-10-09T08:15:41Z</time>
      </trkpt>
      <trkpt lat="45.644" lon="6.17413">
        <ele>882</ele>
        <time>2010-10-09T08:15:42Z</time>
      </trkpt>
      <trkpt lat="45.64399" lon="6.17413">
        <ele>882</ele>
        <time>2010-10-09T08:15:43Z</time>
      </trkpt>
      <trkpt lat="45.64396" lon="6.17411">
        <ele>882</ele>
        <time>2010-10-09T08:15:45Z</time>
      </trkpt>
      <trkpt lat="45.64394" lon="6.1741">
        <ele>883</ele>
        <time>2010-10-09T08:15:46Z</time>
      </trkpt>
      <trkpt lat="45.64393" lon="6.1741">
        <ele>883</ele>
        <time>2010-10-09T08:15:47Z</time>
      </trkpt>
      <trkpt lat="45.6439" lon="6.17409">
        <ele>883</ele>
        <time>2010-10-09T08:15:49Z</time>
      </trkpt>
      <trkpt lat="45.64387" lon="6.17408">
        <ele>883</ele>
        <time>2010-10-09T08:15:51Z</time>
      </trkpt>
      <trkpt lat="45.64385" lon="6.17408">
        <ele>883</ele>
        <time>2010-10-09T08:15:52Z</time>
      </trkpt>
      <trkpt lat="45.64384" lon="6.17407">
        <ele>883</ele>
        <time>2010-10-09T08:15:53Z</time>
      </trkpt>
      <trkpt lat="45.64381" lon="6.17406">
        <ele>883</ele>
        <time>2010-10-09T08:15:55Z</time>
      </trkpt>
      <trkpt lat="45.6438" lon="6.17405">
        <ele>884</ele>
        <time>2010-10-09T08:15:56Z</time>
      </trkpt>
      <trkpt lat="45.64379" lon="6.17404">
        <ele>884</ele>
        <time>2010-10-09T08:15:57Z</time>
      </trkpt>
      <trkpt lat="45.64378" lon="6.17404">
        <ele>884</ele>
        <time>2010-10-09T08:15:58Z</time>
      </trkpt>
      <trkpt lat="45.64375" lon="6.17403">
        <ele>884</ele>
        <time>2010-10-09T08:16:00Z</time>
      </trkpt>
      <trkpt lat="45.64373" lon="6.17403">
        <ele>884</ele>
        <time>2010-10-09T08:16:01Z</time>
      </trkpt>
      <trkpt lat="45.64372" lon="6.17403">
        <ele>884</ele>
        <time>2010-10-09T08:16:02Z</time>
      </trkpt>
      <trkpt lat="45.6437" lon="6.17402">
        <ele>884</ele>
        <time>2010-10-09T08:16:03Z</time>
      </trkpt>
      <trkpt lat="45.64367" lon="6.17402">
        <ele>885</ele>
        <time>2010-10-09T08:16:05Z</time>
      </trkpt>
      <trkpt lat="45.64365" lon="6.17402">
        <ele>885</ele>
        <time>2010-10-09T08:16:06Z</time>
      </trkpt>
      <trkpt lat="45.64364" lon="6.17402">
        <ele>885</ele>
        <time>2010-10-09T08:16:07Z</time>
      </trkpt>
      <trkpt lat="45.64361" lon="6.174">
        <ele>885</ele>
        <time>2010-10-09T08:16:09Z</time>
      </trkpt>
      <trkpt lat="45.6436" lon="6.174">
        <ele>885</ele>
        <time>2010-10-09T08:16:10Z</time>
      </trkpt>
      <trkpt lat="45.64358" lon="6.17399">
        <ele>886</ele>
        <time>2010-10-09T08:16:11Z</time>
      </trkpt>
      <trkpt lat="45.64356" lon="6.17398">
        <ele>886</ele>
        <time>2010-10-09T08:16:12Z</time>
      </trkpt>
      <trkpt lat="45.64354" lon="6.17398">
        <ele>886</ele>
        <time>2010-10-09T08:16:13Z</time>
      </trkpt>
      <trkpt lat="45.6435" lon="6.17398">
        <ele>886</ele>
        <time>2010-10-09T08:16:15Z</time>
      </trkpt>
      <trkpt lat="45.64349" lon="6.17397">
        <ele>887</ele>
        <time>2010-10-09T08:16:16Z</time>
      </trkpt>
      <trkpt lat="45.64347" lon="6.17397">
        <ele>887</ele>
        <time>2010-10-09T08:16:17Z</time>
      </trkpt>
      <trkpt lat="45.64345" lon="6.17397">
        <ele>887</ele>
        <time>2010-10-09T08:16:18Z</time>
      </trkpt>
      <trkpt lat="45.64342" lon="6.17397">
        <ele>887</ele>
        <time>2010-10-09T08:16:20Z</time>
      </trkpt>
      <trkpt lat="45.6434" lon="6.17396">
        <ele>887</ele>
        <time>2010-10-09T08:16:21Z</time>
      </trkpt>
      <trkpt lat="45.64339" lon="6.17396">
        <ele>887</ele>
        <time>2010-10-09T08:16:22Z</time>
      </trkpt>
      <trkpt lat="45.64337" lon="6.17396">
        <ele>887</ele>
        <time>2010-10-09T08:16:23Z</time>
      </trkpt>
      <trkpt lat="45.64334" lon="6.17395">
        <ele>887</ele>
        <time>2010-10-09T08:16:25Z</time>
      </trkpt>
      <trkpt lat="45.64332" lon="6.17395">
        <ele>893</ele>
        <time>2010-10-09T08:16:26Z</time>
      </trkpt>
      <trkpt lat="45.64331" lon="6.17394">
        <ele>893</ele>
        <time>2010-10-09T08:16:27Z</time>
      </trkpt>
      <trkpt lat="45.6433" lon="6.17394">
        <ele>893</ele>
        <time>2010-10-09T08:16:28Z</time>
      </trkpt>
      <trkpt lat="45.64327" lon="6.17394">
        <ele>893</ele>
        <time>2010-10-09T08:16:30Z</time>
      </trkpt>
      <trkpt lat="45.64325" lon="6.17393">
        <ele>893</ele>
        <time>2010-10-09T08:16:31Z</time>
      </trkpt>
      <trkpt lat="45.64324" lon="6.17393">
        <ele>893</ele>
        <time>2010-10-09T08:16:32Z</time>
      </trkpt>
      <trkpt lat="45.64323" lon="6.17392">
        <ele>893</ele>
        <time>2010-10-09T08:16:33Z</time>
      </trkpt>
      <trkpt lat="45.64319" lon="6.17392">
        <ele>893</ele>
        <time>2010-10-09T08:16:35Z</time>
      </trkpt>
      <trkpt lat="45.64318" lon="6.17391">
        <ele>893</ele>
        <time>2010-10-09T08:16:36Z</time>
      </trkpt>
      <trkpt lat="45.64316" lon="6.17391">
        <ele>893</ele>
        <time>2010-10-09T08:16:37Z</time>
      </trkpt>
      <trkpt lat="45.64315" lon="6.17391">
        <ele>893</ele>
        <time>2010-10-09T08:16:38Z</time>
      </trkpt>
      <trkpt lat="45.64311" lon="6.1739">
        <ele>894</ele>
        <time>2010-10-09T08:16:40Z</time>
      </trkpt>
      <trkpt lat="45.6431" lon="6.1739">
        <ele>894</ele>
        <time>2010-10-09T08:16:41Z</time>
      </trkpt>
      <trkpt lat="45.64308" lon="6.1739">
        <ele>894</ele>
        <time>2010-10-09T08:16:42Z</time>
      </trkpt>
      <trkpt lat="45.64307" lon="6.17389">
        <ele>894</ele>
        <time>2010-10-09T08:16:43Z</time>
      </trkpt>
      <trkpt lat="45.64303" lon="6.17389">
        <ele>894</ele>
        <time>2010-10-09T08:16:45Z</time>
      </trkpt>
      <trkpt lat="45.64301" lon="6.17388">
        <ele>894</ele>
        <time>2010-10-09T08:16:46Z</time>
      </trkpt>
      <trkpt lat="45.643" lon="6.17388">
        <ele>894</ele>
        <time>2010-10-09T08:16:47Z</time>
      </trkpt>
      <trkpt lat="45.64298" lon="6.17388">
        <ele>894</ele>
        <time>2010-10-09T08:16:48Z</time>
      </trkpt>
      <trkpt lat="45.64294" lon="6.17387">
        <ele>894</ele>
        <time>2010-10-09T08:16:50Z</time>
      </trkpt>
      <trkpt lat="45.64293" lon="6.17386">
        <ele>894</ele>
        <time>2010-10-09T08:16:51Z</time>
      </trkpt>
      <trkpt lat="45.64291" lon="6.17386">
        <ele>895</ele>
        <time>2010-10-09T08:16:52Z</time>
      </trkpt>
      <trkpt lat="45.64289" lon="6.17385">
        <ele>895</ele>
        <time>2010-10-09T08:16:53Z</time>
      </trkpt>
      <trkpt lat="45.64286" lon="6.17385">
        <ele>895</ele>
        <time>2010-10-09T08:16:55Z</time>
      </trkpt>
      <trkpt lat="45.64284" lon="6.17384">
        <ele>895</ele>
        <time>2010-10-09T08:16:56Z</time>
      </trkpt>
      <trkpt lat="45.64283" lon="6.17384">
        <ele>895</ele>
        <time>2010-10-09T08:16:57Z</time>
      </trkpt>
      <trkpt lat="45.64281" lon="6.17384">
        <ele>895</ele>
        <time>2010-10-09T08:16:58Z</time>
      </trkpt>
      <trkpt lat="45.64278" lon="6.17383">
        <ele>895</ele>
        <time>2010-10-09T08:17:00Z</time>
      </trkpt>
      <trkpt lat="45.64277" lon="6.17382">
        <ele>895</ele>
        <time>2010-10-09T08:17:01Z</time>
      </trkpt>
      <trkpt lat="45.64275" lon="6.17381">
        <ele>895</ele>
        <time>2010-10-09T08:17:02Z</time>
      </trkpt>
      <trkpt lat="45.64274" lon="6.17381">
        <ele>895</ele>
        <time>2010-10-09T08:17:03Z</time>
      </trkpt>
      <trkpt lat="45.64272" lon="6.17381">
        <ele>896</ele>
        <time>2010-10-09T08:17:04Z</time>
      </trkpt>
      <trkpt lat="45.64269" lon="6.17381">
        <ele>896</ele>
        <time>2010-10-09T08:17:06Z</time>
      </trkpt>
      <trkpt lat="45.64267" lon="6.17381">
        <ele>896</ele>
        <time>2010-10-09T08:17:07Z</time>
      </trkpt>
      <trkpt lat="45.64266" lon="6.1738">
        <ele>896</ele>
        <time>2010-10-09T08:17:08Z</time>
      </trkpt>
      <trkpt lat="45.64264" lon="6.17379">
        <ele>896</ele>
        <time>2010-10-09T08:17:09Z</time>
      </trkpt>
      <trkpt lat="45.64262" lon="6.17378">
        <ele>896</ele>
        <time>2010-10-09T08:17:10Z</time>
      </trkpt>
      <trkpt lat="45.64261" lon="6.17378">
        <ele>896</ele>
        <time>2010-10-09T08:17:11Z</time>
      </trkpt>
      <trkpt lat="45.64259" lon="6.17377">
        <ele>896</ele>
        <time>2010-10-09T08:17:12Z</time>
      </trkpt>
      <trkpt lat="45.64258" lon="6.17376">
        <ele>896</ele>
        <time>2010-10-09T08:17:13Z</time>
      </trkpt>
      <trkpt lat="45.64255" lon="6.17375">
        <ele>896</ele>
        <time>2010-10-09T08:17:15Z</time>
      </trkpt>
      <trkpt lat="45.64253" lon="6.17375">
        <ele>896</ele>
        <time>2010-10-09T08:17:16Z</time>
      </trkpt>
      <trkpt lat="45.64252" lon="6.17375">
        <ele>896</ele>
        <time>2010-10-09T08:17:17Z</time>
      </trkpt>
      <trkpt lat="45.64251" lon="6.17374">
        <ele>896</ele>
        <time>2010-10-09T08:17:18Z</time>
      </trkpt>
      <trkpt lat="45.64248" lon="6.17374">
        <ele>904</ele>
        <time>2010-10-09T08:17:20Z</time>
      </trkpt>
      <trkpt lat="45.64246" lon="6.17373">
        <ele>904</ele>
        <time>2010-10-09T08:17:21Z</time>
      </trkpt>
      <trkpt lat="45.64244" lon="6.17373">
        <ele>904</ele>
        <time>2010-10-09T08:17:22Z</time>
      </trkpt>
      <trkpt lat="45.64243" lon="6.17373">
        <ele>904</ele>
        <time>2010-10-09T08:17:23Z</time>
      </trkpt>
      <trkpt lat="45.6424" lon="6.17371">
        <ele>904</ele>
        <time>2010-10-09T08:17:25Z</time>
      </trkpt>
      <trkpt lat="45.64238" lon="6.17371">
        <ele>904</ele>
        <time>2010-10-09T08:17:26Z</time>
      </trkpt>
      <trkpt lat="45.64236" lon="6.1737">
        <ele>904</ele>
        <time>2010-10-09T08:17:27Z</time>
      </trkpt>
      <trkpt lat="45.64234" lon="6.17369">
        <ele>904</ele>
        <time>2010-10-09T08:17:28Z</time>
      </trkpt>
      <trkpt lat="45.6423" lon="6.17368">
        <ele>904</ele>
        <time>2010-10-09T08:17:30Z</time>
      </trkpt>
      <trkpt lat="45.64229" lon="6.17368">
        <ele>904</ele>
        <time>2010-10-09T08:17:31Z</time>
      </trkpt>
      <trkpt lat="45.64227" lon="6.17367">
        <ele>905</ele>
        <time>2010-10-09T08:17:32Z</time>
      </trkpt>
      <trkpt lat="45.64225" lon="6.17366">
        <ele>905</ele>
        <time>2010-10-09T08:17:33Z</time>
      </trkpt>
      <trkpt lat="45.64222" lon="6.17365">
        <ele>905</ele>
        <time>2010-10-09T08:17:35Z</time>
      </trkpt>
      <trkpt lat="45.6422" lon="6.17365">
        <ele>905</ele>
        <time>2010-10-09T08:17:36Z</time>
      </trkpt>
      <trkpt lat="45.64218" lon="6.17364">
        <ele>905</ele>
        <time>2010-10-09T08:17:37Z</time>
      </trkpt>
      <trkpt lat="45.64217" lon="6.17363">
        <ele>905</ele>
        <time>2010-10-09T08:17:38Z</time>
      </trkpt>
      <trkpt lat="45.64215" lon="6.17362">
        <ele>905</ele>
        <time>2010-10-09T08:17:39Z</time>
      </trkpt>
      <trkpt lat="45.64213" lon="6.17361">
        <ele>906</ele>
        <time>2010-10-09T08:17:40Z</time>
      </trkpt>
      <trkpt lat="45.64212" lon="6.1736">
        <ele>906</ele>
        <time>2010-10-09T08:17:41Z</time>
      </trkpt>
      <trkpt lat="45.6421" lon="6.17359">
        <ele>906</ele>
        <time>2010-10-09T08:17:42Z</time>
      </trkpt>
      <trkpt lat="45.64209" lon="6.17358">
        <ele>906</ele>
        <time>2010-10-09T08:17:43Z</time>
      </trkpt>
      <trkpt lat="45.64206" lon="6.17356">
        <ele>906</ele>
        <time>2010-10-09T08:17:45Z</time>
      </trkpt>
      <trkpt lat="45.64205" lon="6.17355">
        <ele>906</ele>
        <time>2010-10-09T08:17:46Z</time>
      </trkpt>
      <trkpt lat="45.64203" lon="6.17354">
        <ele>906</ele>
        <time>2010-10-09T08:17:47Z</time>
      </trkpt>
      <trkpt lat="45.64202" lon="6.17353">
        <ele>906</ele>
        <time>2010-10-09T08:17:48Z</time>
      </trkpt>
      <trkpt lat="45.64199" lon="6.1735">
        <ele>907</ele>
        <time>2010-10-09T08:17:50Z</time>
      </trkpt>
      <trkpt lat="45.64198" lon="6.17349">
        <ele>907</ele>
        <time>2010-10-09T08:17:51Z</time>
      </trkpt>
      <trkpt lat="45.64196" lon="6.17347">
        <ele>907</ele>
        <time>2010-10-09T08:17:52Z</time>
      </trkpt>
      <trkpt lat="45.64195" lon="6.17346">
        <ele>907</ele>
        <time>2010-10-09T08:17:53Z</time>
      </trkpt>
      <trkpt lat="45.64193" lon="6.17342">
        <ele>907</ele>
        <time>2010-10-09T08:17:55Z</time>
      </trkpt>
      <trkpt lat="45.64192" lon="6.1734">
        <ele>907</ele>
        <time>2010-10-09T08:17:56Z</time>
      </trkpt>
      <trkpt lat="45.64191" lon="6.17338">
        <ele>908</ele>
        <time>2010-10-09T08:17:57Z</time>
      </trkpt>
      <trkpt lat="45.64189" lon="6.17336">
        <ele>908</ele>
        <time>2010-10-09T08:17:58Z</time>
      </trkpt>
      <trkpt lat="45.64187" lon="6.17333">
        <ele>904</ele>
        <time>2010-10-09T08:18:00Z</time>
      </trkpt>
      <trkpt lat="45.64185" lon="6.17332">
        <ele>904</ele>
        <time>2010-10-09T08:18:01Z</time>
      </trkpt>
      <trkpt lat="45.64184" lon="6.17331">
        <ele>904</ele>
        <time>2010-10-09T08:18:02Z</time>
      </trkpt>
      <trkpt lat="45.64181" lon="6.17328">
        <ele>905</ele>
        <time>2010-10-09T08:18:04Z</time>
      </trkpt>
      <trkpt lat="45.6418" lon="6.17327">
        <ele>905</ele>
        <time>2010-10-09T08:18:05Z</time>
      </trkpt>
      <trkpt lat="45.64178" lon="6.17325">
        <ele>905</ele>
        <time>2010-10-09T08:18:07Z</time>
      </trkpt>
      <trkpt lat="45.64177" lon="6.17325">
        <ele>906</ele>
        <time>2010-10-09T08:18:08Z</time>
      </trkpt>
      <trkpt lat="45.64175" lon="6.17324">
        <ele>906</ele>
        <time>2010-10-09T08:18:09Z</time>
      </trkpt>
      <trkpt lat="45.64173" lon="6.17324">
        <ele>906</ele>
        <time>2010-10-09T08:18:11Z</time>
      </trkpt>
      <trkpt lat="45.6417" lon="6.17324">
        <ele>907</ele>
        <time>2010-10-09T08:18:13Z</time>
      </trkpt>
      <trkpt lat="45.64167" lon="6.17324">
        <ele>907</ele>
        <time>2010-10-09T08:18:15Z</time>
      </trkpt>
      <trkpt lat="45.64166" lon="6.17324">
        <ele>910</ele>
        <time>2010-10-09T08:18:16Z</time>
      </trkpt>
      <trkpt lat="45.64163" lon="6.17325">
        <ele>910</ele>
        <time>2010-10-09T08:18:18Z</time>
      </trkpt>
      <trkpt lat="45.64162" lon="6.17325">
        <ele>910</ele>
        <time>2010-10-09T08:18:20Z</time>
      </trkpt>
      <trkpt lat="45.6416" lon="6.17325">
        <ele>910</ele>
        <time>2010-10-09T08:18:22Z</time>
      </trkpt>
      <trkpt lat="45.64158" lon="6.17326">
        <ele>910</ele>
        <time>2010-10-09T08:18:24Z</time>
      </trkpt>
      <trkpt lat="45.64156" lon="6.17327">
        <ele>910</ele>
        <time>2010-10-09T08:18:26Z</time>
      </trkpt>
      <trkpt lat="45.64154" lon="6.17327">
        <ele>910</ele>
        <time>2010-10-09T08:18:27Z</time>
      </trkpt>
      <trkpt lat="45.64153" lon="6.17327">
        <ele>910</ele>
        <time>2010-10-09T08:18:28Z</time>
      </trkpt>
      <trkpt lat="45.64151" lon="6.17327">
        <ele>909</ele>
        <time>2010-10-09T08:18:29Z</time>
      </trkpt>
      <trkpt lat="45.64149" lon="6.17327">
        <ele>909</ele>
        <time>2010-10-09T08:18:31Z</time>
      </trkpt>
      <trkpt lat="45.64147" lon="6.17328">
        <ele>909</ele>
        <time>2010-10-09T08:18:32Z</time>
      </trkpt>
      <trkpt lat="45.64145" lon="6.17329">
        <ele>909</ele>
        <time>2010-10-09T08:18:35Z</time>
      </trkpt>
      <trkpt lat="45.64141" lon="6.1733">
        <ele>909</ele>
        <time>2010-10-09T08:18:36Z</time>
      </trkpt>
      <trkpt lat="45.64139" lon="6.17331">
        <ele>909</ele>
        <time>2010-10-09T08:18:38Z</time>
      </trkpt>
      <trkpt lat="45.64136" lon="6.17332">
        <ele>910</ele>
        <time>2010-10-09T08:18:40Z</time>
      </trkpt>
      <trkpt lat="45.64133" lon="6.17332">
        <ele>910</ele>
        <time>2010-10-09T08:18:41Z</time>
      </trkpt>
      <trkpt lat="45.64131" lon="6.17333">
        <ele>910</ele>
        <time>2010-10-09T08:18:43Z</time>
      </trkpt>
      <trkpt lat="45.64129" lon="6.17335">
        <ele>917</ele>
        <time>2010-10-09T08:18:45Z</time>
      </trkpt>
      <trkpt lat="45.64127" lon="6.17337">
        <ele>917</ele>
        <time>2010-10-09T08:18:47Z</time>
      </trkpt>
      <trkpt lat="45.64126" lon="6.17338">
        <ele>917</ele>
        <time>2010-10-09T08:18:48Z</time>
      </trkpt>
      <trkpt lat="45.64125" lon="6.17339">
        <ele>917</ele>
        <time>2010-10-09T08:18:49Z</time>
      </trkpt>
      <trkpt lat="45.64122" lon="6.17341">
        <ele>917</ele>
        <time>2010-10-09T08:18:51Z</time>
      </trkpt>
      <trkpt lat="45.6412" lon="6.17342">
        <ele>917</ele>
        <time>2010-10-09T08:18:52Z</time>
      </trkpt>
      <trkpt lat="45.64119" lon="6.17342">
        <ele>917</ele>
        <time>2010-10-09T08:18:53Z</time>
      </trkpt>
      <trkpt lat="45.64117" lon="6.17343">
        <ele>917</ele>
        <time>2010-10-09T08:18:54Z</time>
      </trkpt>
      <trkpt lat="45.64114" lon="6.17344">
        <ele>918</ele>
        <time>2010-10-09T08:18:56Z</time>
      </trkpt>
      <trkpt lat="45.64111" lon="6.17346">
        <ele>918</ele>
        <time>2010-10-09T08:18:58Z</time>
      </trkpt>
      <trkpt lat="45.64109" lon="6.17347">
        <ele>918</ele>
        <time>2010-10-09T08:19:00Z</time>
      </trkpt>
      <trkpt lat="45.64105" lon="6.17349">
        <ele>918</ele>
        <time>2010-10-09T08:19:02Z</time>
      </trkpt>
      <trkpt lat="45.64104" lon="6.1735">
        <ele>918</ele>
        <time>2010-10-09T08:19:04Z</time>
      </trkpt>
      <trkpt lat="45.64101" lon="6.17351">
        <ele>918</ele>
        <time>2010-10-09T08:19:05Z</time>
      </trkpt>
      <trkpt lat="45.64098" lon="6.17353">
        <ele>918</ele>
        <time>2010-10-09T08:19:07Z</time>
      </trkpt>
      <trkpt lat="45.64096" lon="6.17354">
        <ele>918</ele>
        <time>2010-10-09T08:19:08Z</time>
      </trkpt>
      <trkpt lat="45.64093" lon="6.17355">
        <ele>919</ele>
        <time>2010-10-09T08:19:10Z</time>
      </trkpt>
      <trkpt lat="45.64092" lon="6.17356">
        <ele>919</ele>
        <time>2010-10-09T08:19:11Z</time>
      </trkpt>
      <trkpt lat="45.64091" lon="6.17358">
        <ele>919</ele>
        <time>2010-10-09T08:19:12Z</time>
      </trkpt>
      <trkpt lat="45.64089" lon="6.17359">
        <ele>919</ele>
        <time>2010-10-09T08:19:13Z</time>
      </trkpt>
      <trkpt lat="45.64085" lon="6.17361">
        <ele>919</ele>
        <time>2010-10-09T08:19:15Z</time>
      </trkpt>
      <trkpt lat="45.64082" lon="6.17362">
        <ele>924</ele>
        <time>2010-10-09T08:19:16Z</time>
      </trkpt>
      <trkpt lat="45.6408" lon="6.17363">
        <ele>924</ele>
        <time>2010-10-09T08:19:17Z</time>
      </trkpt>
      <trkpt lat="45.64078" lon="6.17363">
        <ele>924</ele>
        <time>2010-10-09T08:19:18Z</time>
      </trkpt>
      <trkpt lat="45.64074" lon="6.17365">
        <ele>924</ele>
        <time>2010-10-09T08:19:21Z</time>
      </trkpt>
      <trkpt lat="45.64071" lon="6.17367">
        <ele>925</ele>
        <time>2010-10-09T08:19:23Z</time>
      </trkpt>
      <trkpt lat="45.6407" lon="6.17368">
        <ele>925</ele>
        <time>2010-10-09T08:19:24Z</time>
      </trkpt>
      <trkpt lat="45.64067" lon="6.1737">
        <ele>925</ele>
        <time>2010-10-09T08:19:26Z</time>
      </trkpt>
      <trkpt lat="45.64064" lon="6.17372">
        <ele>925</ele>
        <time>2010-10-09T08:19:28Z</time>
      </trkpt>
      <trkpt lat="45.64062" lon="6.17373">
        <ele>926</ele>
        <time>2010-10-09T08:19:30Z</time>
      </trkpt>
      <trkpt lat="45.64061" lon="6.17373">
        <ele>926</ele>
        <time>2010-10-09T08:19:31Z</time>
      </trkpt>
      <trkpt lat="45.64059" lon="6.17374">
        <ele>926</ele>
        <time>2010-10-09T08:19:32Z</time>
      </trkpt>
      <trkpt lat="45.64058" lon="6.17374">
        <ele>926</ele>
        <time>2010-10-09T08:19:33Z</time>
      </trkpt>
      <trkpt lat="45.64055" lon="6.17377">
        <ele>926</ele>
        <time>2010-10-09T08:19:35Z</time>
      </trkpt>
      <trkpt lat="45.64052" lon="6.17378">
        <ele>926</ele>
        <time>2010-10-09T08:19:37Z</time>
      </trkpt>
      <trkpt lat="45.64051" lon="6.17381">
        <ele>927</ele>
        <time>2010-10-09T08:19:39Z</time>
      </trkpt>
      <trkpt lat="45.6405" lon="6.17382">
        <ele>927</ele>
        <time>2010-10-09T08:19:40Z</time>
      </trkpt>
      <trkpt lat="45.64048" lon="6.17382">
        <ele>927</ele>
        <time>2010-10-09T08:19:41Z</time>
      </trkpt>
      <trkpt lat="45.64046" lon="6.17382">
        <ele>927</ele>
        <time>2010-10-09T08:19:42Z</time>
      </trkpt>
      <trkpt lat="45.64042" lon="6.17381">
        <ele>927</ele>
        <time>2010-10-09T08:19:44Z</time>
      </trkpt>
      <trkpt lat="45.64038" lon="6.17381">
        <ele>927</ele>
        <time>2010-10-09T08:19:46Z</time>
      </trkpt>
      <trkpt lat="45.64035" lon="6.17381">
        <ele>927</ele>
        <time>2010-10-09T08:19:47Z</time>
      </trkpt>
      <trkpt lat="45.64034" lon="6.17381">
        <ele>927</ele>
        <time>2010-10-09T08:19:48Z</time>
      </trkpt>
      <trkpt lat="45.6403" lon="6.1738">
        <ele>927</ele>
        <time>2010-10-09T08:19:50Z</time>
      </trkpt>
      <trkpt lat="45.64029" lon="6.17381">
        <ele>928</ele>
        <time>2010-10-09T08:19:51Z</time>
      </trkpt>
      <trkpt lat="45.64027" lon="6.1738">
        <ele>928</ele>
        <time>2010-10-09T08:19:52Z</time>
      </trkpt>
      <trkpt lat="45.64024" lon="6.17379">
        <ele>928</ele>
        <time>2010-10-09T08:19:53Z</time>
      </trkpt>
      <trkpt lat="45.64021" lon="6.17378">
        <ele>928</ele>
        <time>2010-10-09T08:19:55Z</time>
      </trkpt>
      <trkpt lat="45.64019" lon="6.17377">
        <ele>928</ele>
        <time>2010-10-09T08:19:56Z</time>
      </trkpt>
      <trkpt lat="45.64016" lon="6.17377">
        <ele>928</ele>
        <time>2010-10-09T08:19:58Z</time>
      </trkpt>
      <trkpt lat="45.64013" lon="6.17376">
        <ele>928</ele>
        <time>2010-10-09T08:20:00Z</time>
      </trkpt>
      <trkpt lat="45.64011" lon="6.17376">
        <ele>928</ele>
        <time>2010-10-09T08:20:01Z</time>
      </trkpt>
      <trkpt lat="45.64009" lon="6.17377">
        <ele>928</ele>
        <time>2010-10-09T08:20:03Z</time>
      </trkpt>
      <trkpt lat="45.64007" lon="6.17378">
        <ele>928</ele>
        <time>2010-10-09T08:20:05Z</time>
      </trkpt>
      <trkpt lat="45.64005" lon="6.17379">
        <ele>928</ele>
        <time>2010-10-09T08:20:06Z</time>
      </trkpt>
      <trkpt lat="45.64004" lon="6.1738">
        <ele>928</ele>
        <time>2010-10-09T08:20:07Z</time>
      </trkpt>
      <trkpt lat="45.64002" lon="6.1738">
        <ele>928</ele>
        <time>2010-10-09T08:20:08Z</time>
      </trkpt>
      <trkpt lat="45.63999" lon="6.17382">
        <ele>931</ele>
        <time>2010-10-09T08:20:10Z</time>
      </trkpt>
      <trkpt lat="45.63997" lon="6.17382">
        <ele>931</ele>
        <time>2010-10-09T08:20:11Z</time>
      </trkpt>
      <trkpt lat="45.63995" lon="6.17383">
        <ele>931</ele>
        <time>2010-10-09T08:20:12Z</time>
      </trkpt>
      <trkpt lat="45.63994" lon="6.17384">
        <ele>931</ele>
        <time>2010-10-09T08:20:13Z</time>
      </trkpt>
      <trkpt lat="45.63991" lon="6.17387">
        <ele>932</ele>
        <time>2010-10-09T08:20:15Z</time>
      </trkpt>
      <trkpt lat="45.6399" lon="6.1739">
        <ele>932</ele>
        <time>2010-10-09T08:20:17Z</time>
      </trkpt>
      <trkpt lat="45.63987" lon="6.17393">
        <ele>932</ele>
        <time>2010-10-09T08:20:19Z</time>
      </trkpt>
      <trkpt lat="45.63987" lon="6.17394">
        <ele>933</ele>
        <time>2010-10-09T08:20:20Z</time>
      </trkpt>
      <trkpt lat="45.63987" lon="6.17398">
        <ele>933</ele>
        <time>2010-10-09T08:20:22Z</time>
      </trkpt>
      <trkpt lat="45.63987" lon="6.174">
        <ele>933</ele>
        <time>2010-10-09T08:20:24Z</time>
      </trkpt>
      <trkpt lat="45.63989" lon="6.17403">
        <ele>934</ele>
        <time>2010-10-09T08:20:27Z</time>
      </trkpt>
      <trkpt lat="45.63991" lon="6.17405">
        <ele>934</ele>
        <time>2010-10-09T08:20:30Z</time>
      </trkpt>
      <trkpt lat="45.63992" lon="6.17405">
        <ele>934</ele>
        <time>2010-10-09T08:20:32Z</time>
      </trkpt>
      <trkpt lat="45.63996" lon="6.17407">
        <ele>935</ele>
        <time>2010-10-09T08:20:35Z</time>
      </trkpt>
      <trkpt lat="45.63999" lon="6.17409">
        <ele>935</ele>
        <time>2010-10-09T08:20:37Z</time>
      </trkpt>
      <trkpt lat="45.64002" lon="6.1741">
        <ele>934</ele>
        <time>2010-10-09T08:20:38Z</time>
      </trkpt>
      <trkpt lat="45.64003" lon="6.17411">
        <ele>934</ele>
        <time>2010-10-09T08:20:39Z</time>
      </trkpt>
      <trkpt lat="45.64007" lon="6.17412">
        <ele>934</ele>
        <time>2010-10-09T08:20:41Z</time>
      </trkpt>
      <trkpt lat="45.6401" lon="6.17412">
        <ele>933</ele>
        <time>2010-10-09T08:20:43Z</time>
      </trkpt>
      <trkpt lat="45.64012" lon="6.17413">
        <ele>933</ele>
        <time>2010-10-09T08:20:44Z</time>
      </trkpt>
      <trkpt lat="45.64014" lon="6.17416">
        <ele>932</ele>
        <time>2010-10-09T08:20:46Z</time>
      </trkpt>
      <trkpt lat="45.64017" lon="6.17417">
        <ele>937</ele>
        <time>2010-10-09T08:20:48Z</time>
      </trkpt>
      <trkpt lat="45.64023" lon="6.17422">
        <ele>937</ele>
        <time>2010-10-09T08:20:52Z</time>
      </trkpt>
      <trkpt lat="45.64027" lon="6.17427">
        <ele>937</ele>
        <time>2010-10-09T08:20:54Z</time>
      </trkpt>
      <trkpt lat="45.64028" lon="6.17429">
        <ele>937</ele>
        <time>2010-10-09T08:20:55Z</time>
      </trkpt>
      <trkpt lat="45.6403" lon="6.17431">
        <ele>937</ele>
        <time>2010-10-09T08:20:56Z</time>
      </trkpt>
      <trkpt lat="45.64032" lon="6.17433">
        <ele>937</ele>
        <time>2010-10-09T08:20:57Z</time>
      </trkpt>
      <trkpt lat="45.64034" lon="6.17436">
        <ele>937</ele>
        <time>2010-10-09T08:20:58Z</time>
      </trkpt>
      <trkpt lat="45.64037" lon="6.1744">
        <ele>937</ele>
        <time>2010-10-09T08:21:00Z</time>
      </trkpt>
      <trkpt lat="45.64038" lon="6.17442">
        <ele>937</ele>
        <time>2010-10-09T08:21:01Z</time>
      </trkpt>
      <trkpt lat="45.64038" lon="6.17445">
        <ele>937</ele>
        <time>2010-10-09T08:21:02Z</time>
      </trkpt>
      <trkpt lat="45.64039" lon="6.17447">
        <ele>937</ele>
        <time>2010-10-09T08:21:03Z</time>
      </trkpt>
      <trkpt lat="45.6404" lon="6.17451">
        <ele>937</ele>
        <time>2010-10-09T08:21:05Z</time>
      </trkpt>
      <trkpt lat="45.6404" lon="6.17455">
        <ele>937</ele>
        <time>2010-10-09T08:21:07Z</time>
      </trkpt>
      <trkpt lat="45.6404" lon="6.17459">
        <ele>938</ele>
        <time>2010-10-09T08:21:09Z</time>
      </trkpt>
      <trkpt lat="45.6404" lon="6.17464">
        <ele>938</ele>
        <time>2010-10-09T08:21:11Z</time>
      </trkpt>
      <trkpt lat="45.64041" lon="6.17469">
        <ele>938</ele>
        <time>2010-10-09T08:21:13Z</time>
      </trkpt>
      <trkpt lat="45.64042" lon="6.17473">
        <ele>938</ele>
        <time>2010-10-09T08:21:15Z</time>
      </trkpt>
      <trkpt lat="45.6404" lon="6.17477">
        <ele>939</ele>
        <time>2010-10-09T08:21:17Z</time>
      </trkpt>
      <trkpt lat="45.64041" lon="6.1748">
        <ele>939</ele>
        <time>2010-10-09T08:21:19Z</time>
      </trkpt>
      <trkpt lat="45.64041" lon="6.17485">
        <ele>939</ele>
        <time>2010-10-09T08:21:21Z</time>
      </trkpt>
      <trkpt lat="45.64042" lon="6.17489">
        <ele>939</ele>
        <time>2010-10-09T08:21:23Z</time>
      </trkpt>
      <trkpt lat="45.64044" lon="6.17493">
        <ele>939</ele>
        <time>2010-10-09T08:21:25Z</time>
      </trkpt>
      <trkpt lat="45.64044" lon="6.17495">
        <ele>939</ele>
        <time>2010-10-09T08:21:26Z</time>
      </trkpt>
      <trkpt lat="45.64045" lon="6.17498">
        <ele>939</ele>
        <time>2010-10-09T08:21:27Z</time>
      </trkpt>
      <trkpt lat="45.64045" lon="6.175">
        <ele>939</ele>
        <time>2010-10-09T08:21:28Z</time>
      </trkpt>
      <trkpt lat="45.64047" lon="6.17504">
        <ele>945</ele>
        <time>2010-10-09T08:21:30Z</time>
      </trkpt>
      <trkpt lat="45.64047" lon="6.17506">
        <ele>945</ele>
        <time>2010-10-09T08:21:31Z</time>
      </trkpt>
      <trkpt lat="45.64048" lon="6.17508">
        <ele>945</ele>
        <time>2010-10-09T08:21:32Z</time>
      </trkpt>
      <trkpt lat="45.64048" lon="6.17512">
        <ele>945</ele>
        <time>2010-10-09T08:21:34Z</time>
      </trkpt>
      <trkpt lat="45.64048" lon="6.17514">
        <ele>945</ele>
        <time>2010-10-09T08:21:35Z</time>
      </trkpt>
      <trkpt lat="45.6405" lon="6.17517">
        <ele>945</ele>
        <time>2010-10-09T08:21:37Z</time>
      </trkpt>
      <trkpt lat="45.6405" lon="6.17521">
        <ele>945</ele>
        <time>2010-10-09T08:21:39Z</time>
      </trkpt>
      <trkpt lat="45.64052" lon="6.17525">
        <ele>945</ele>
        <time>2010-10-09T08:21:41Z</time>
      </trkpt>
      <trkpt lat="45.64053" lon="6.1753">
        <ele>945</ele>
        <time>2010-10-09T08:21:43Z</time>
      </trkpt>
      <trkpt lat="45.64053" lon="6.17533">
        <ele>946</ele>
        <time>2010-10-09T08:21:44Z</time>
      </trkpt>
      <trkpt lat="45.64054" lon="6.17537">
        <ele>946</ele>
        <time>2010-10-09T08:21:46Z</time>
      </trkpt>
      <trkpt lat="45.64054" lon="6.17539">
        <ele>946</ele>
        <time>2010-10-09T08:21:47Z</time>
      </trkpt>
      <trkpt lat="45.64054" lon="6.17544">
        <ele>946</ele>
        <time>2010-10-09T08:21:49Z</time>
      </trkpt>
      <trkpt lat="45.64054" lon="6.17546">
        <ele>946</ele>
        <time>2010-10-09T08:21:50Z</time>
      </trkpt>
      <trkpt lat="45.64053" lon="6.1755">
        <ele>946</ele>
        <time>2010-10-09T08:21:52Z</time>
      </trkpt>
      <trkpt lat="45.64054" lon="6.17555">
        <ele>947</ele>
        <time>2010-10-09T08:21:54Z</time>
      </trkpt>
      <trkpt lat="45.64054" lon="6.17558">
        <ele>947</ele>
        <time>2010-10-09T08:21:55Z</time>
      </trkpt>
      <trkpt lat="45.64054" lon="6.1756">
        <ele>947</ele>
        <time>2010-10-09T08:21:56Z</time>
      </trkpt>
      <trkpt lat="45.64054" lon="6.17562">
        <ele>947</ele>
        <time>2010-10-09T08:21:57Z</time>
      </trkpt>
      <trkpt lat="45.64053" lon="6.17567">
        <ele>947</ele>
        <time>2010-10-09T08:21:59Z</time>
      </trkpt>
      <trkpt lat="45.64053" lon="6.17569">
        <ele>947</ele>
        <time>2010-10-09T08:22:00Z</time>
      </trkpt>
      <trkpt lat="45.64053" lon="6.17573">
        <ele>947</ele>
        <time>2010-10-09T08:22:02Z</time>
      </trkpt>
      <trkpt lat="45.64051" lon="6.17578">
        <ele>948</ele>
        <time>2010-10-09T08:22:04Z</time>
      </trkpt>
      <trkpt lat="45.6405" lon="6.17582">
        <ele>948</ele>
        <time>2010-10-09T08:22:06Z</time>
      </trkpt>
      <trkpt lat="45.64048" lon="6.17588">
        <ele>954</ele>
        <time>2010-10-09T08:22:07Z</time>
      </trkpt>
      <trkpt lat="45.64048" lon="6.17592">
        <ele>954</ele>
        <time>2010-10-09T08:22:09Z</time>
      </trkpt>
      <trkpt lat="45.64048" lon="6.17594">
        <ele>954</ele>
        <time>2010-10-09T08:22:10Z</time>
      </trkpt>
      <trkpt lat="45.64047" lon="6.17596">
        <ele>954</ele>
        <time>2010-10-09T08:22:11Z</time>
      </trkpt>
      <trkpt lat="45.64047" lon="6.176">
        <ele>954</ele>
        <time>2010-10-09T08:22:13Z</time>
      </trkpt>
      <trkpt lat="45.64046" lon="6.17604">
        <ele>955</ele>
        <time>2010-10-09T08:22:15Z</time>
      </trkpt>
      <trkpt lat="45.64047" lon="6.17607">
        <ele>955</ele>
        <time>2010-10-09T08:22:17Z</time>
      </trkpt>
      <trkpt lat="45.64047" lon="6.17609">
        <ele>955</ele>
        <time>2010-10-09T08:22:18Z</time>
      </trkpt>
      <trkpt lat="45.64048" lon="6.17613">
        <ele>955</ele>
        <time>2010-10-09T08:22:20Z</time>
      </trkpt>
      <trkpt lat="45.64048" lon="6.17615">
        <ele>955</ele>
        <time>2010-10-09T08:22:21Z</time>
      </trkpt>
      <trkpt lat="45.64049" lon="6.17618">
        <ele>955</ele>
        <time>2010-10-09T08:22:23Z</time>
      </trkpt>
      <trkpt lat="45.6405" lon="6.17622">
        <ele>955</ele>
        <time>2010-10-09T08:22:25Z</time>
      </trkpt>
      <trkpt lat="45.64051" lon="6.17625">
        <ele>955</ele>
        <time>2010-10-09T08:22:27Z</time>
      </trkpt>
      <trkpt lat="45.64052" lon="6.17628">
        <ele>955</ele>
        <time>2010-10-09T08:22:29Z</time>
      </trkpt>
      <trkpt lat="45.64053" lon="6.17629">
        <ele>955</ele>
        <time>2010-10-09T08:22:30Z</time>
      </trkpt>
      <trkpt lat="45.64055" lon="6.17632">
        <ele>955</ele>
        <time>2010-10-09T08:22:32Z</time>
      </trkpt>
      <trkpt lat="45.64057" lon="6.17636">
        <ele>955</ele>
        <time>2010-10-09T08:22:35Z</time>
      </trkpt>
      <trkpt lat="45.64058" lon="6.17638">
        <ele>955</ele>
        <time>2010-10-09T08:22:36Z</time>
      </trkpt>
      <trkpt lat="45.64059" lon="6.17639">
        <ele>955</ele>
        <time>2010-10-09T08:22:37Z</time>
      </trkpt>
      <trkpt lat="45.64059" lon="6.17641">
        <ele>955</ele>
        <time>2010-10-09T08:22:38Z</time>
      </trkpt>
      <trkpt lat="45.64062" lon="6.17645">
        <ele>955</ele>
        <time>2010-10-09T08:22:41Z</time>
      </trkpt>
      <trkpt lat="45.64064" lon="6.17648">
        <ele>955</ele>
        <time>2010-10-09T08:22:43Z</time>
      </trkpt>
      <trkpt lat="45.64065" lon="6.17651">
        <ele>955</ele>
        <time>2010-10-09T08:22:45Z</time>
      </trkpt>
      <trkpt lat="45.64066" lon="6.17653">
        <ele>955</ele>
        <time>2010-10-09T08:22:46Z</time>
      </trkpt>
      <trkpt lat="45.64066" lon="6.17655">
        <ele>955</ele>
        <time>2010-10-09T08:22:47Z</time>
      </trkpt>
      <trkpt lat="45.64067" lon="6.17656">
        <ele>955</ele>
        <time>2010-10-09T08:22:48Z</time>
      </trkpt>
      <trkpt lat="45.64069" lon="6.1766">
        <ele>954</ele>
        <time>2010-10-09T08:22:50Z</time>
      </trkpt>
      <trkpt lat="45.64069" lon="6.17662">
        <ele>954</ele>
        <time>2010-10-09T08:22:51Z</time>
      </trkpt>
      <trkpt lat="45.6407" lon="6.17664">
        <ele>954</ele>
        <time>2010-10-09T08:22:52Z</time>
      </trkpt>
      <trkpt lat="45.6407" lon="6.17666">
        <ele>954</ele>
        <time>2010-10-09T08:22:53Z</time>
      </trkpt>
      <trkpt lat="45.6407" lon="6.17668">
        <ele>957</ele>
        <time>2010-10-09T08:22:54Z</time>
      </trkpt>
      <trkpt lat="45.64069" lon="6.17672">
        <ele>958</ele>
        <time>2010-10-09T08:22:56Z</time>
      </trkpt>
      <trkpt lat="45.64069" lon="6.17676">
        <ele>958</ele>
        <time>2010-10-09T08:22:58Z</time>
      </trkpt>
      <trkpt lat="45.64068" lon="6.17681">
        <ele>959</ele>
        <time>2010-10-09T08:23:00Z</time>
      </trkpt>
      <trkpt lat="45.64066" lon="6.17683">
        <ele>960</ele>
        <time>2010-10-09T08:23:01Z</time>
      </trkpt>
      <trkpt lat="45.64065" lon="6.17684">
        <ele>960</ele>
        <time>2010-10-09T08:23:02Z</time>
      </trkpt>
      <trkpt lat="45.64063" lon="6.17687">
        <ele>961</ele>
        <time>2010-10-09T08:23:04Z</time>
      </trkpt>
      <trkpt lat="45.64062" lon="6.17691">
        <ele>962</ele>
        <time>2010-10-09T08:23:06Z</time>
      </trkpt>
      <trkpt lat="45.64061" lon="6.17692">
        <ele>962</ele>
        <time>2010-10-09T08:23:07Z</time>
      </trkpt>
      <trkpt lat="45.6406" lon="6.17693">
        <ele>962</ele>
        <time>2010-10-09T08:23:08Z</time>
      </trkpt>
      <trkpt lat="45.64059" lon="6.17694">
        <ele>962</ele>
        <time>2010-10-09T08:23:09Z</time>
      </trkpt>
      <trkpt lat="45.64057" lon="6.17696">
        <ele>963</ele>
        <time>2010-10-09T08:23:11Z</time>
      </trkpt>
      <trkpt lat="45.64056" lon="6.17696">
        <ele>963</ele>
        <time>2010-10-09T08:23:12Z</time>
      </trkpt>
      <trkpt lat="45.64054" lon="6.17697">
        <ele>963</ele>
        <time>2010-10-09T08:23:13Z</time>
      </trkpt>
      <trkpt lat="45.64051" lon="6.17697">
        <ele>964</ele>
        <time>2010-10-09T08:23:15Z</time>
      </trkpt>
      <trkpt lat="45.64049" lon="6.17698">
        <ele>964</ele>
        <time>2010-10-09T08:23:16Z</time>
      </trkpt>
      <trkpt lat="45.64048" lon="6.17698">
        <ele>964</ele>
        <time>2010-10-09T08:23:17Z</time>
      </trkpt>
      <trkpt lat="45.64046" lon="6.17699">
        <ele>964</ele>
        <time>2010-10-09T08:23:18Z</time>
      </trkpt>
      <trkpt lat="45.64043" lon="6.177">
        <ele>965</ele>
        <time>2010-10-09T08:23:21Z</time>
      </trkpt>
      <trkpt lat="45.64042" lon="6.177">
        <ele>965</ele>
        <time>2010-10-09T08:23:22Z</time>
      </trkpt>
      <trkpt lat="45.6404" lon="6.177">
        <ele>965</ele>
        <time>2010-10-09T08:23:23Z</time>
      </trkpt>
      <trkpt lat="45.64037" lon="6.177">
        <ele>965</ele>
        <time>2010-10-09T08:23:25Z</time>
      </trkpt>
      <trkpt lat="45.64036" lon="6.177">
        <ele>966</ele>
        <time>2010-10-09T08:23:26Z</time>
      </trkpt>
      <trkpt lat="45.64035" lon="6.17701">
        <ele>966</ele>
        <time>2010-10-09T08:23:27Z</time>
      </trkpt>
      <trkpt lat="45.64033" lon="6.17701">
        <ele>966</ele>
        <time>2010-10-09T08:23:28Z</time>
      </trkpt>
      <trkpt lat="45.64029" lon="6.17701">
        <ele>966</ele>
        <time>2010-10-09T08:23:31Z</time>
      </trkpt>
      <trkpt lat="45.64027" lon="6.17701">
        <ele>967</ele>
        <time>2010-10-09T08:23:34Z</time>
      </trkpt>
      <trkpt lat="45.64025" lon="6.17701">
        <ele>967</ele>
        <time>2010-10-09T08:23:36Z</time>
      </trkpt>
      <trkpt lat="45.64023" lon="6.177">
        <ele>967</ele>
        <time>2010-10-09T08:23:38Z</time>
      </trkpt>
      <trkpt lat="45.64019" lon="6.177">
        <ele>967</ele>
        <time>2010-10-09T08:23:40Z</time>
      </trkpt>
      <trkpt lat="45.64018" lon="6.177">
        <ele>967</ele>
        <time>2010-10-09T08:23:43Z</time>
      </trkpt>
      <trkpt lat="45.64014" lon="6.17699">
        <ele>968</ele>
        <time>2010-10-09T08:23:45Z</time>
      </trkpt>
      <trkpt lat="45.64012" lon="6.17697">
        <ele>968</ele>
        <time>2010-10-09T08:23:47Z</time>
      </trkpt>
      <trkpt lat="45.6401" lon="6.17696">
        <ele>968</ele>
        <time>2010-10-09T08:23:48Z</time>
      </trkpt>
      <trkpt lat="45.64008" lon="6.17695">
        <ele>968</ele>
        <time>2010-10-09T08:23:50Z</time>
      </trkpt>
      <trkpt lat="45.64006" lon="6.17694">
        <ele>968</ele>
        <time>2010-10-09T08:23:51Z</time>
      </trkpt>
      <trkpt lat="45.64004" lon="6.17694">
        <ele>968</ele>
        <time>2010-10-09T08:23:52Z</time>
      </trkpt>
      <trkpt lat="45.64002" lon="6.17694">
        <ele>968</ele>
        <time>2010-10-09T08:23:53Z</time>
      </trkpt>
      <trkpt lat="45.64001" lon="6.17694">
        <ele>968</ele>
        <time>2010-10-09T08:23:54Z</time>
      </trkpt>
      <trkpt lat="45.63998" lon="6.17693">
        <ele>981</ele>
        <time>2010-10-09T08:23:56Z</time>
      </trkpt>
      <trkpt lat="45.63995" lon="6.17693">
        <ele>981</ele>
        <time>2010-10-09T08:23:57Z</time>
      </trkpt>
      <trkpt lat="45.63994" lon="6.17692">
        <ele>981</ele>
        <time>2010-10-09T08:23:58Z</time>
      </trkpt>
      <trkpt lat="45.6399" lon="6.17689">
        <ele>981</ele>
        <time>2010-10-09T08:24:01Z</time>
      </trkpt>
      <trkpt lat="45.63987" lon="6.17687">
        <ele>981</ele>
        <time>2010-10-09T08:24:03Z</time>
      </trkpt>
      <trkpt lat="45.63985" lon="6.17684">
        <ele>980</ele>
        <time>2010-10-09T08:24:06Z</time>
      </trkpt>
      <trkpt lat="45.63983" lon="6.17681">
        <ele>980</ele>
        <time>2010-10-09T08:24:08Z</time>
      </trkpt>
      <trkpt lat="45.63981" lon="6.17679">
        <ele>981</ele>
        <time>2010-10-09T08:24:10Z</time>
      </trkpt>
      <trkpt lat="45.63979" lon="6.17677">
        <ele>981</ele>
        <time>2010-10-09T08:24:12Z</time>
      </trkpt>
      <trkpt lat="45.63979" lon="6.17675">
        <ele>980</ele>
        <time>2010-10-09T08:24:15Z</time>
      </trkpt>
      <trkpt lat="45.63978" lon="6.17673">
        <ele>981</ele>
        <time>2010-10-09T08:24:16Z</time>
      </trkpt>
      <trkpt lat="45.63977" lon="6.1767">
        <ele>981</ele>
        <time>2010-10-09T08:24:18Z</time>
      </trkpt>
      <trkpt lat="45.63975" lon="6.17669">
        <ele>981</ele>
        <time>2010-10-09T08:24:19Z</time>
      </trkpt>
      <trkpt lat="45.63971" lon="6.17666">
        <ele>974</ele>
        <time>2010-10-09T08:24:21Z</time>
      </trkpt>
      <trkpt lat="45.63969" lon="6.17664">
        <ele>974</ele>
        <time>2010-10-09T08:24:23Z</time>
      </trkpt>
      <trkpt lat="45.63967" lon="6.17661">
        <ele>974</ele>
        <time>2010-10-09T08:24:25Z</time>
      </trkpt>
      <trkpt lat="45.63965" lon="6.1766">
        <ele>974</ele>
        <time>2010-10-09T08:24:26Z</time>
      </trkpt>
      <trkpt lat="45.63963" lon="6.17658">
        <ele>975</ele>
        <time>2010-10-09T08:24:29Z</time>
      </trkpt>
      <trkpt lat="45.63961" lon="6.17656">
        <ele>975</ele>
        <time>2010-10-09T08:24:30Z</time>
      </trkpt>
      <trkpt lat="45.63959" lon="6.17653">
        <ele>975</ele>
        <time>2010-10-09T08:24:32Z</time>
      </trkpt>
      <trkpt lat="45.63958" lon="6.17653">
        <ele>975</ele>
        <time>2010-10-09T08:24:33Z</time>
      </trkpt>
      <trkpt lat="45.63955" lon="6.1765">
        <ele>975</ele>
        <time>2010-10-09T08:24:35Z</time>
      </trkpt>
      <trkpt lat="45.63951" lon="6.17649">
        <ele>976</ele>
        <time>2010-10-09T08:24:37Z</time>
      </trkpt>
      <trkpt lat="45.6395" lon="6.17649">
        <ele>976</ele>
        <time>2010-10-09T08:24:38Z</time>
      </trkpt>
      <trkpt lat="45.63947" lon="6.17644">
        <ele>976</ele>
        <time>2010-10-09T08:24:41Z</time>
      </trkpt>
      <trkpt lat="45.63946" lon="6.17643">
        <ele>976</ele>
        <time>2010-10-09T08:24:42Z</time>
      </trkpt>
      <trkpt lat="45.63945" lon="6.17642">
        <ele>976</ele>
        <time>2010-10-09T08:24:43Z</time>
      </trkpt>
      <trkpt lat="45.63943" lon="6.1764">
        <ele>976</ele>
        <time>2010-10-09T08:24:45Z</time>
      </trkpt>
      <trkpt lat="45.63942" lon="6.17638">
        <ele>976</ele>
        <time>2010-10-09T08:24:46Z</time>
      </trkpt>
      <trkpt lat="45.63941" lon="6.17636">
        <ele>976</ele>
        <time>2010-10-09T08:24:48Z</time>
      </trkpt>
      <trkpt lat="45.63938" lon="6.17636">
        <ele>976</ele>
        <time>2010-10-09T08:24:50Z</time>
      </trkpt>
      <trkpt lat="45.63935" lon="6.17634">
        <ele>976</ele>
        <time>2010-10-09T08:24:52Z</time>
      </trkpt>
      <trkpt lat="45.63933" lon="6.17634">
        <ele>976</ele>
        <time>2010-10-09T08:24:53Z</time>
      </trkpt>
      <trkpt lat="45.63932" lon="6.17632">
        <ele>976</ele>
        <time>2010-10-09T08:24:55Z</time>
      </trkpt>
      <trkpt lat="45.63931" lon="6.17629">
        <ele>976</ele>
        <time>2010-10-09T08:24:57Z</time>
      </trkpt>
      <trkpt lat="45.63928" lon="6.17628">
        <ele>976</ele>
        <time>2010-10-09T08:25:00Z</time>
      </trkpt>
      <trkpt lat="45.63927" lon="6.17627">
        <ele>976</ele>
        <time>2010-10-09T08:25:02Z</time>
      </trkpt>
      <trkpt lat="45.63925" lon="6.17624">
        <ele>975</ele>
        <time>2010-10-09T08:25:04Z</time>
      </trkpt>
      <trkpt lat="45.63922" lon="6.17621">
        <ele>975</ele>
        <time>2010-10-09T08:25:06Z</time>
      </trkpt>
      <trkpt lat="45.63918" lon="6.1762">
        <ele>975</ele>
        <time>2010-10-09T08:25:08Z</time>
      </trkpt>
      <trkpt lat="45.63914" lon="6.17617">
        <ele>984</ele>
        <time>2010-10-09T08:25:10Z</time>
      </trkpt>
      <trkpt lat="45.63911" lon="6.17615">
        <ele>984</ele>
        <time>2010-10-09T08:25:12Z</time>
      </trkpt>
      <trkpt lat="45.63909" lon="6.17614">
        <ele>984</ele>
        <time>2010-10-09T08:25:13Z</time>
      </trkpt>
      <trkpt lat="45.63904" lon="6.17612">
        <ele>984</ele>
        <time>2010-10-09T08:25:15Z</time>
      </trkpt>
      <trkpt lat="45.63902" lon="6.17611">
        <ele>984</ele>
        <time>2010-10-09T08:25:16Z</time>
      </trkpt>
      <trkpt lat="45.63901" lon="6.17609">
        <ele>983</ele>
        <time>2010-10-09T08:25:17Z</time>
      </trkpt>
      <trkpt lat="45.63899" lon="6.17607">
        <ele>983</ele>
        <time>2010-10-09T08:25:18Z</time>
      </trkpt>
      <trkpt lat="45.63896" lon="6.17605">
        <ele>983</ele>
        <time>2010-10-09T08:25:20Z</time>
      </trkpt>
      <trkpt lat="45.63895" lon="6.17604">
        <ele>983</ele>
        <time>2010-10-09T08:25:21Z</time>
      </trkpt>
      <trkpt lat="45.63893" lon="6.17603">
        <ele>983</ele>
        <time>2010-10-09T08:25:22Z</time>
      </trkpt>
      <trkpt lat="45.6389" lon="6.17602">
        <ele>984</ele>
        <time>2010-10-09T08:25:24Z</time>
      </trkpt>
      <trkpt lat="45.63887" lon="6.176">
        <ele>984</ele>
        <time>2010-10-09T08:25:27Z</time>
      </trkpt>
      <trkpt lat="45.63886" lon="6.176">
        <ele>984</ele>
        <time>2010-10-09T08:25:28Z</time>
      </trkpt>
      <trkpt lat="45.63883" lon="6.17599">
        <ele>984</ele>
        <time>2010-10-09T08:25:30Z</time>
      </trkpt>
      <trkpt lat="45.6388" lon="6.176">
        <ele>985</ele>
        <time>2010-10-09T08:25:34Z</time>
      </trkpt>
      <trkpt lat="45.63877" lon="6.17603">
        <ele>986</ele>
        <time>2010-10-09T08:25:37Z</time>
      </trkpt>
      <trkpt lat="45.63875" lon="6.17605">
        <ele>986</ele>
        <time>2010-10-09T08:25:39Z</time>
      </trkpt>
      <trkpt lat="45.63872" lon="6.17606">
        <ele>986</ele>
        <time>2010-10-09T08:25:41Z</time>
      </trkpt>
      <trkpt lat="45.6387" lon="6.17606">
        <ele>987</ele>
        <time>2010-10-09T08:25:42Z</time>
      </trkpt>
      <trkpt lat="45.6387" lon="6.17609">
        <ele>987</ele>
        <time>2010-10-09T08:25:44Z</time>
      </trkpt>
      <trkpt lat="45.63871" lon="6.1761">
        <ele>987</ele>
        <time>2010-10-09T08:25:45Z</time>
      </trkpt>
      <trkpt lat="45.63873" lon="6.17611">
        <ele>987</ele>
        <time>2010-10-09T08:25:47Z</time>
      </trkpt>
      <trkpt lat="45.63873" lon="6.17613">
        <ele>987</ele>
        <time>2010-10-09T08:25:49Z</time>
      </trkpt>
      <trkpt lat="45.63875" lon="6.17616">
        <ele>987</ele>
        <time>2010-10-09T08:25:51Z</time>
      </trkpt>
      <trkpt lat="45.63877" lon="6.17618">
        <ele>987</ele>
        <time>2010-10-09T08:25:53Z</time>
      </trkpt>
      <trkpt lat="45.63879" lon="6.17618">
        <ele>987</ele>
        <time>2010-10-09T08:25:54Z</time>
      </trkpt>
      <trkpt lat="45.63881" lon="6.1762">
        <ele>987</ele>
        <time>2010-10-09T08:25:56Z</time>
      </trkpt>
      <trkpt lat="45.63883" lon="6.17623">
        <ele>988</ele>
        <time>2010-10-09T08:25:58Z</time>
      </trkpt>
      <trkpt lat="45.63885" lon="6.17625">
        <ele>988</ele>
        <time>2010-10-09T08:25:59Z</time>
      </trkpt>
      <trkpt lat="45.63887" lon="6.17629">
        <ele>988</ele>
        <time>2010-10-09T08:26:01Z</time>
      </trkpt>
      <trkpt lat="45.6389" lon="6.17631">
        <ele>988</ele>
        <time>2010-10-09T08:26:03Z</time>
      </trkpt>
      <trkpt lat="45.63891" lon="6.17633">
        <ele>988</ele>
        <time>2010-10-09T08:26:04Z</time>
      </trkpt>
      <trkpt lat="45.63893" lon="6.17635">
        <ele>988</ele>
        <time>2010-10-09T08:26:06Z</time>
      </trkpt>
      <trkpt lat="45.63894" lon="6.17637">
        <ele>989</ele>
        <time>2010-10-09T08:26:08Z</time>
      </trkpt>
      <trkpt lat="45.63895" lon="6.17641">
        <ele>989</ele>
        <time>2010-10-09T08:26:10Z</time>
      </trkpt>
      <trkpt lat="45.63895" lon="6.17643">
        <ele>989</ele>
        <time>2010-10-09T08:26:11Z</time>
      </trkpt>
      <trkpt lat="45.63899" lon="6.17646">
        <ele>989</ele>
        <time>2010-10-09T08:26:13Z</time>
      </trkpt>
      <trkpt lat="45.639" lon="6.17648">
        <ele>989</ele>
        <time>2010-10-09T08:26:14Z</time>
      </trkpt>
      <trkpt lat="45.63903" lon="6.17652">
        <ele>990</ele>
        <time>2010-10-09T08:26:16Z</time>
      </trkpt>
      <trkpt lat="45.63905" lon="6.17656">
        <ele>990</ele>
        <time>2010-10-09T08:26:18Z</time>
      </trkpt>
      <trkpt lat="45.63906" lon="6.17657">
        <ele>990</ele>
        <time>2010-10-09T08:26:19Z</time>
      </trkpt>
      <trkpt lat="45.63908" lon="6.1766">
        <ele>990</ele>
        <time>2010-10-09T08:26:21Z</time>
      </trkpt>
      <trkpt lat="45.63911" lon="6.17664">
        <ele>991</ele>
        <time>2010-10-09T08:26:24Z</time>
      </trkpt>
      <trkpt lat="45.63913" lon="6.17666">
        <ele>991</ele>
        <time>2010-10-09T08:26:25Z</time>
      </trkpt>
      <trkpt lat="45.63915" lon="6.17668">
        <ele>992</ele>
        <time>2010-10-09T08:26:28Z</time>
      </trkpt>
      <trkpt lat="45.63917" lon="6.17671">
        <ele>991</ele>
        <time>2010-10-09T08:26:30Z</time>
      </trkpt>
      <trkpt lat="45.63918" lon="6.17673">
        <ele>990</ele>
        <time>2010-10-09T08:26:32Z</time>
      </trkpt>
      <trkpt lat="45.63919" lon="6.17677">
        <ele>990</ele>
        <time>2010-10-09T08:26:34Z</time>
      </trkpt>
      <trkpt lat="45.63921" lon="6.17679">
        <ele>990</ele>
        <time>2010-10-09T08:26:35Z</time>
      </trkpt>
      <trkpt lat="45.63923" lon="6.17681">
        <ele>990</ele>
        <time>2010-10-09T08:26:36Z</time>
      </trkpt>
      <trkpt lat="45.63925" lon="6.17683">
        <ele>990</ele>
        <time>2010-10-09T08:26:37Z</time>
      </trkpt>
      <trkpt lat="45.63927" lon="6.17686">
        <ele>990</ele>
        <time>2010-10-09T08:26:39Z</time>
      </trkpt>
      <trkpt lat="45.63927" lon="6.17687">
        <ele>990</ele>
        <time>2010-10-09T08:26:40Z</time>
      </trkpt>
      <trkpt lat="45.63928" lon="6.17689">
        <ele>990</ele>
        <time>2010-10-09T08:26:41Z</time>
      </trkpt>
      <trkpt lat="45.63932" lon="6.17694">
        <ele>990</ele>
        <time>2010-10-09T08:26:44Z</time>
      </trkpt>
      <trkpt lat="45.63934" lon="6.17696">
        <ele>990</ele>
        <time>2010-10-09T08:26:45Z</time>
      </trkpt>
      <trkpt lat="45.63935" lon="6.17698">
        <ele>990</ele>
        <time>2010-10-09T08:26:46Z</time>
      </trkpt>
      <trkpt lat="45.63936" lon="6.17699">
        <ele>990</ele>
        <time>2010-10-09T08:26:47Z</time>
      </trkpt>
      <trkpt lat="45.63937" lon="6.17702">
        <ele>990</ele>
        <time>2010-10-09T08:26:49Z</time>
      </trkpt>
      <trkpt lat="45.63938" lon="6.17705">
        <ele>990</ele>
        <time>2010-10-09T08:26:51Z</time>
      </trkpt>
      <trkpt lat="45.63938" lon="6.17708">
        <ele>991</ele>
        <time>2010-10-09T08:26:53Z</time>
      </trkpt>
      <trkpt lat="45.63939" lon="6.17712">
        <ele>991</ele>
        <time>2010-10-09T08:26:55Z</time>
      </trkpt>
      <trkpt lat="45.63939" lon="6.17713">
        <ele>991</ele>
        <time>2010-10-09T08:26:56Z</time>
      </trkpt>
      <trkpt lat="45.63938" lon="6.17718">
        <ele>992</ele>
        <time>2010-10-09T08:26:59Z</time>
      </trkpt>
      <trkpt lat="45.63938" lon="6.17721">
        <ele>992</ele>
        <time>2010-10-09T08:27:01Z</time>
      </trkpt>
      <trkpt lat="45.63938" lon="6.17724">
        <ele>993</ele>
        <time>2010-10-09T08:27:03Z</time>
      </trkpt>
      <trkpt lat="45.63937" lon="6.17727">
        <ele>993</ele>
        <time>2010-10-09T08:27:05Z</time>
      </trkpt>
      <trkpt lat="45.63937" lon="6.17729">
        <ele>994</ele>
        <time>2010-10-09T08:27:06Z</time>
      </trkpt>
      <trkpt lat="45.63937" lon="6.17731">
        <ele>994</ele>
        <time>2010-10-09T08:27:07Z</time>
      </trkpt>
      <trkpt lat="45.63937" lon="6.17735">
        <ele>995</ele>
        <time>2010-10-09T08:27:09Z</time>
      </trkpt>
      <trkpt lat="45.63936" lon="6.17737">
        <ele>996</ele>
        <time>2010-10-09T08:27:10Z</time>
      </trkpt>
      <trkpt lat="45.63937" lon="6.1774">
        <ele>996</ele>
        <time>2010-10-09T08:27:12Z</time>
      </trkpt>
      <trkpt lat="45.63937" lon="6.17743">
        <ele>997</ele>
        <time>2010-10-09T08:27:13Z</time>
      </trkpt>
      <trkpt lat="45.63937" lon="6.17745">
        <ele>997</ele>
        <time>2010-10-09T08:27:14Z</time>
      </trkpt>
      <trkpt lat="45.63937" lon="6.17748">
        <ele>997</ele>
        <time>2010-10-09T08:27:16Z</time>
      </trkpt>
      <trkpt lat="45.63938" lon="6.1775">
        <ele>997</ele>
        <time>2010-10-09T08:27:19Z</time>
      </trkpt>
      <trkpt lat="45.6394" lon="6.17751">
        <ele>999</ele>
        <time>2010-10-09T08:27:22Z</time>
      </trkpt>
      <trkpt lat="45.63941" lon="6.17751">
        <ele>998</ele>
        <time>2010-10-09T08:27:25Z</time>
      </trkpt>
      <trkpt lat="45.63942" lon="6.17755">
        <ele>998</ele>
        <time>2010-10-09T08:27:27Z</time>
      </trkpt>
      <trkpt lat="45.63943" lon="6.17757">
        <ele>997</ele>
        <time>2010-10-09T08:27:29Z</time>
      </trkpt>
      <trkpt lat="45.63944" lon="6.17758">
        <ele>997</ele>
        <time>2010-10-09T08:27:30Z</time>
      </trkpt>
      <trkpt lat="45.63945" lon="6.17759">
        <ele>996</ele>
        <time>2010-10-09T08:27:31Z</time>
      </trkpt>
      <trkpt lat="45.63947" lon="6.17761">
        <ele>996</ele>
        <time>2010-10-09T08:27:35Z</time>
      </trkpt>
      <trkpt lat="45.63946" lon="6.17761">
        <ele>996</ele>
        <time>2010-10-09T08:27:40Z</time>
      </trkpt>
      <trkpt lat="45.63945" lon="6.1776">
        <ele>997</ele>
        <time>2010-10-09T08:27:43Z</time>
      </trkpt>
      <trkpt lat="45.63944" lon="6.17758">
        <ele>997</ele>
        <time>2010-10-09T08:27:46Z</time>
      </trkpt>
      <trkpt lat="45.63943" lon="6.17756">
        <ele>997</ele>
        <time>2010-10-09T08:27:47Z</time>
      </trkpt>
      <trkpt lat="45.63942" lon="6.17755">
        <ele>998</ele>
        <time>2010-10-09T08:27:48Z</time>
      </trkpt>
      <trkpt lat="45.63939" lon="6.17755">
        <ele>999</ele>
        <time>2010-10-09T08:27:50Z</time>
      </trkpt>
      <trkpt lat="45.63938" lon="6.17754">
        <ele>999</ele>
        <time>2010-10-09T08:27:52Z</time>
      </trkpt>
      <trkpt lat="45.63942" lon="6.17759">
        <ele>998</ele>
        <time>2010-10-09T08:28:00Z</time>
      </trkpt>
      <trkpt lat="45.6394" lon="6.17759">
        <ele>998</ele>
        <time>2010-10-09T08:28:04Z</time>
      </trkpt>
      <trkpt lat="45.63939" lon="6.17758">
        <ele>999</ele>
        <time>2010-10-09T08:28:07Z</time>
      </trkpt>
      <trkpt lat="45.63937" lon="6.17756">
        <ele>999</ele>
        <time>2010-10-09T08:28:10Z</time>
      </trkpt>
      <trkpt lat="45.63941" lon="6.17761">
        <ele>998</ele>
        <time>2010-10-09T08:28:16Z</time>
      </trkpt>
      <trkpt lat="45.63942" lon="6.17762">
        <ele>997</ele>
        <time>2010-10-09T08:28:18Z</time>
      </trkpt>
      <trkpt lat="45.63943" lon="6.17764">
        <ele>997</ele>
        <time>2010-10-09T08:28:23Z</time>
      </trkpt>
      <trkpt lat="45.63947" lon="6.17757">
        <ele>996</ele>
        <time>2010-10-09T08:28:29Z</time>
      </trkpt>
      <trkpt lat="45.63948" lon="6.17757">
        <ele>996</ele>
        <time>2010-10-09T08:28:32Z</time>
      </trkpt>
      <trkpt lat="45.63949" lon="6.17757">
        <ele>996</ele>
        <time>2010-10-09T08:28:35Z</time>
      </trkpt>
      <trkpt lat="45.63943" lon="6.17757">
        <ele>997</ele>
        <time>2010-10-09T08:28:38Z</time>
      </trkpt>
      <trkpt lat="45.63942" lon="6.17757">
        <ele>998</ele>
        <time>2010-10-09T08:28:40Z</time>
      </trkpt>
      <trkpt lat="45.63942" lon="6.17761">
        <ele>997</ele>
        <time>2010-10-09T08:28:45Z</time>
      </trkpt>
      <trkpt lat="45.63941" lon="6.17764">
        <ele>997</ele>
        <time>2010-10-09T08:28:48Z</time>
      </trkpt>
      <trkpt lat="45.63941" lon="6.17766">
        <ele>997</ele>
        <time>2010-10-09T08:28:49Z</time>
      </trkpt>
      <trkpt lat="45.63941" lon="6.17768">
        <ele>997</ele>
        <time>2010-10-09T08:28:52Z</time>
      </trkpt>
      <trkpt lat="45.6394" lon="6.17769">
        <ele>997</ele>
        <time>2010-10-09T08:28:55Z</time>
      </trkpt>
      <trkpt lat="45.63944" lon="6.17767">
        <ele>996</ele>
        <time>2010-10-09T08:28:59Z</time>
      </trkpt>
      <trkpt lat="45.63946" lon="6.17766">
        <ele>996</ele>
        <time>2010-10-09T08:29:01Z</time>
      </trkpt>
      <trkpt lat="45.63948" lon="6.17754">
        <ele>996</ele>
        <time>2010-10-09T08:29:10Z</time>
      </trkpt>
      <trkpt lat="45.63953" lon="6.17761">
        <ele>995</ele>
        <time>2010-10-09T08:29:12Z</time>
      </trkpt>
      <trkpt lat="45.63954" lon="6.17763">
        <ele>994</ele>
        <time>2010-10-09T08:29:14Z</time>
      </trkpt>
      <trkpt lat="45.63955" lon="6.17764">
        <ele>994</ele>
        <time>2010-10-09T08:29:16Z</time>
      </trkpt>
      <trkpt lat="45.63957" lon="6.17766">
        <ele>993</ele>
        <time>2010-10-09T08:29:21Z</time>
      </trkpt>
      <trkpt lat="45.63958" lon="6.17767">
        <ele>993</ele>
        <time>2010-10-09T08:29:24Z</time>
      </trkpt>
      <trkpt lat="45.63955" lon="6.17766">
        <ele>994</ele>
        <time>2010-10-09T08:29:28Z</time>
      </trkpt>
      <trkpt lat="45.63953" lon="6.17765">
        <ele>994</ele>
        <time>2010-10-09T08:29:30Z</time>
      </trkpt>
      <trkpt lat="45.6395" lon="6.17762">
        <ele>995</ele>
        <time>2010-10-09T08:29:35Z</time>
      </trkpt>
      <trkpt lat="45.63948" lon="6.17761">
        <ele>996</ele>
        <time>2010-10-09T08:29:37Z</time>
      </trkpt>
      <trkpt lat="45.63947" lon="6.1776">
        <ele>996</ele>
        <time>2010-10-09T08:29:39Z</time>
      </trkpt>
      <trkpt lat="45.63946" lon="6.17759">
        <ele>996</ele>
        <time>2010-10-09T08:29:42Z</time>
      </trkpt>
      <trkpt lat="45.63945" lon="6.17758">
        <ele>997</ele>
        <time>2010-10-09T08:29:47Z</time>
      </trkpt>
      <trkpt lat="45.63942" lon="6.17754">
        <ele>998</ele>
        <time>2010-10-09T08:29:51Z</time>
      </trkpt>
      <trkpt lat="45.6394" lon="6.17754">
        <ele>998</ele>
        <time>2010-10-09T08:29:54Z</time>
      </trkpt>
      <trkpt lat="45.63935" lon="6.17767">
        <ele>998</ele>
        <time>2010-10-09T08:29:59Z</time>
      </trkpt>
      <trkpt lat="45.63935" lon="6.17768">
        <ele>998</ele>
        <time>2010-10-09T08:30:00Z</time>
      </trkpt>
      <trkpt lat="45.63935" lon="6.1777">
        <ele>998</ele>
        <time>2010-10-09T08:30:01Z</time>
      </trkpt>
      <trkpt lat="45.63934" lon="6.17775">
        <ele>998</ele>
        <time>2010-10-09T08:30:05Z</time>
      </trkpt>
      <trkpt lat="45.63931" lon="6.17778">
        <ele>998</ele>
        <time>2010-10-09T08:30:07Z</time>
      </trkpt>
      <trkpt lat="45.63929" lon="6.1778">
        <ele>998</ele>
        <time>2010-10-09T08:30:09Z</time>
      </trkpt>
      <trkpt lat="45.63928" lon="6.17783">
        <ele>997</ele>
        <time>2010-10-09T08:30:10Z</time>
      </trkpt>
      <trkpt lat="45.63928" lon="6.17785">
        <ele>997</ele>
        <time>2010-10-09T08:30:11Z</time>
      </trkpt>
      <trkpt lat="45.63927" lon="6.17788">
        <ele>997</ele>
        <time>2010-10-09T08:30:13Z</time>
      </trkpt>
      <trkpt lat="45.63924" lon="6.17793">
        <ele>997</ele>
        <time>2010-10-09T08:30:17Z</time>
      </trkpt>
      <trkpt lat="45.63921" lon="6.17797">
        <ele>997</ele>
        <time>2010-10-09T08:30:20Z</time>
      </trkpt>
      <trkpt lat="45.6392" lon="6.17798">
        <ele>998</ele>
        <time>2010-10-09T08:30:21Z</time>
      </trkpt>
      <trkpt lat="45.63918" lon="6.17801">
        <ele>998</ele>
        <time>2010-10-09T08:30:23Z</time>
      </trkpt>
      <trkpt lat="45.63917" lon="6.17803">
        <ele>998</ele>
        <time>2010-10-09T08:30:24Z</time>
      </trkpt>
      <trkpt lat="45.63916" lon="6.17804">
        <ele>1017</ele>
        <time>2010-10-09T08:30:26Z</time>
      </trkpt>
      <trkpt lat="45.63915" lon="6.17806">
        <ele>1016</ele>
        <time>2010-10-09T08:30:27Z</time>
      </trkpt>
      <trkpt lat="45.63912" lon="6.17808">
        <ele>1016</ele>
        <time>2010-10-09T08:30:28Z</time>
      </trkpt>
      <trkpt lat="45.6391" lon="6.17809">
        <ele>1016</ele>
        <time>2010-10-09T08:30:29Z</time>
      </trkpt>
      <trkpt lat="45.63909" lon="6.1781">
        <ele>1016</ele>
        <time>2010-10-09T08:30:30Z</time>
      </trkpt>
      <trkpt lat="45.63908" lon="6.17812">
        <ele>1016</ele>
        <time>2010-10-09T08:30:31Z</time>
      </trkpt>
      <trkpt lat="45.63906" lon="6.17814">
        <ele>1016</ele>
        <time>2010-10-09T08:30:33Z</time>
      </trkpt>
      <trkpt lat="45.63905" lon="6.17816">
        <ele>1016</ele>
        <time>2010-10-09T08:30:34Z</time>
      </trkpt>
      <trkpt lat="45.63905" lon="6.17818">
        <ele>1016</ele>
        <time>2010-10-09T08:30:35Z</time>
      </trkpt>
      <trkpt lat="45.63905" lon="6.17819">
        <ele>1015</ele>
        <time>2010-10-09T08:30:36Z</time>
      </trkpt>
      <trkpt lat="45.63904" lon="6.17824">
        <ele>1014</ele>
        <time>2010-10-09T08:30:38Z</time>
      </trkpt>
      <trkpt lat="45.63903" lon="6.17827">
        <ele>1014</ele>
        <time>2010-10-09T08:30:41Z</time>
      </trkpt>
      <trkpt lat="45.63902" lon="6.17832">
        <ele>1014</ele>
        <time>2010-10-09T08:30:42Z</time>
      </trkpt>
      <trkpt lat="45.63901" lon="6.17833">
        <ele>1015</ele>
        <time>2010-10-09T08:30:43Z</time>
      </trkpt>
      <trkpt lat="45.63901" lon="6.17836">
        <ele>1013</ele>
        <time>2010-10-09T08:30:44Z</time>
      </trkpt>
      <trkpt lat="45.63901" lon="6.17837">
        <ele>1013</ele>
        <time>2010-10-09T08:30:45Z</time>
      </trkpt>
      <trkpt lat="45.63901" lon="6.17839">
        <ele>1013</ele>
        <time>2010-10-09T08:30:47Z</time>
      </trkpt>
      <trkpt lat="45.639" lon="6.17843">
        <ele>1014</ele>
        <time>2010-10-09T08:30:48Z</time>
      </trkpt>
      <trkpt lat="45.639" lon="6.17845">
        <ele>1014</ele>
        <time>2010-10-09T08:30:49Z</time>
      </trkpt>
      <trkpt lat="45.639" lon="6.17847">
        <ele>1014</ele>
        <time>2010-10-09T08:30:50Z</time>
      </trkpt>
      <trkpt lat="45.639" lon="6.17849">
        <ele>1015</ele>
        <time>2010-10-09T08:30:51Z</time>
      </trkpt>
      <trkpt lat="45.639" lon="6.1785">
        <ele>1015</ele>
        <time>2010-10-09T08:30:53Z</time>
      </trkpt>
      <trkpt lat="45.63898" lon="6.17853">
        <ele>1016</ele>
        <time>2010-10-09T08:30:54Z</time>
      </trkpt>
      <trkpt lat="45.63897" lon="6.17856">
        <ele>1016</ele>
        <time>2010-10-09T08:30:56Z</time>
      </trkpt>
      <trkpt lat="45.63895" lon="6.1786">
        <ele>1017</ele>
        <time>2010-10-09T08:30:58Z</time>
      </trkpt>
      <trkpt lat="45.63894" lon="6.17862">
        <ele>1017</ele>
        <time>2010-10-09T08:30:59Z</time>
      </trkpt>
      <trkpt lat="45.63892" lon="6.17863">
        <ele>1017</ele>
        <time>2010-10-09T08:31:00Z</time>
      </trkpt>
      <trkpt lat="45.63889" lon="6.17866">
        <ele>1018</ele>
        <time>2010-10-09T08:31:02Z</time>
      </trkpt>
      <trkpt lat="45.63889" lon="6.17868">
        <ele>1018</ele>
        <time>2010-10-09T08:31:05Z</time>
      </trkpt>
      <trkpt lat="45.63887" lon="6.17871">
        <ele>1018</ele>
        <time>2010-10-09T08:31:07Z</time>
      </trkpt>
      <trkpt lat="45.63885" lon="6.17872">
        <ele>1019</ele>
        <time>2010-10-09T08:31:08Z</time>
      </trkpt>
      <trkpt lat="45.63884" lon="6.17873">
        <ele>1019</ele>
        <time>2010-10-09T08:31:09Z</time>
      </trkpt>
      <trkpt lat="45.63882" lon="6.17875">
        <ele>1019</ele>
        <time>2010-10-09T08:31:11Z</time>
      </trkpt>
      <trkpt lat="45.63877" lon="6.17878">
        <ele>1020</ele>
        <time>2010-10-09T08:31:14Z</time>
      </trkpt>
      <trkpt lat="45.63876" lon="6.1788">
        <ele>1021</ele>
        <time>2010-10-09T08:31:15Z</time>
      </trkpt>
      <trkpt lat="45.63875" lon="6.17881">
        <ele>1021</ele>
        <time>2010-10-09T08:31:16Z</time>
      </trkpt>
      <trkpt lat="45.63874" lon="6.17882">
        <ele>1021</ele>
        <time>2010-10-09T08:31:18Z</time>
      </trkpt>
      <trkpt lat="45.63871" lon="6.17883">
        <ele>1022</ele>
        <time>2010-10-09T08:31:19Z</time>
      </trkpt>
      <trkpt lat="45.63868" lon="6.17884">
        <ele>1023</ele>
        <time>2010-10-09T08:31:21Z</time>
      </trkpt>
      <trkpt lat="45.63865" lon="6.17886">
        <ele>1024</ele>
        <time>2010-10-09T08:31:23Z</time>
      </trkpt>
      <trkpt lat="45.63861" lon="6.1789">
        <ele>1024</ele>
        <time>2010-10-09T08:31:25Z</time>
      </trkpt>
      <trkpt lat="45.6386" lon="6.17892">
        <ele>1025</ele>
        <time>2010-10-09T08:31:26Z</time>
      </trkpt>
      <trkpt lat="45.63857" lon="6.17894">
        <ele>1026</ele>
        <time>2010-10-09T08:31:28Z</time>
      </trkpt>
      <trkpt lat="45.63855" lon="6.17896">
        <ele>1026</ele>
        <time>2010-10-09T08:31:29Z</time>
      </trkpt>
      <trkpt lat="45.63852" lon="6.17899">
        <ele>1028</ele>
        <time>2010-10-09T08:31:31Z</time>
      </trkpt>
      <trkpt lat="45.6385" lon="6.17902">
        <ele>1029</ele>
        <time>2010-10-09T08:31:33Z</time>
      </trkpt>
      <trkpt lat="45.6385" lon="6.17904">
        <ele>1029</ele>
        <time>2010-10-09T08:31:35Z</time>
      </trkpt>
      <trkpt lat="45.6385" lon="6.17906">
        <ele>1029</ele>
        <time>2010-10-09T08:31:36Z</time>
      </trkpt>
      <trkpt lat="45.63849" lon="6.17912">
        <ele>1030</ele>
        <time>2010-10-09T08:31:38Z</time>
      </trkpt>
      <trkpt lat="45.6385" lon="6.17914">
        <ele>1030</ele>
        <time>2010-10-09T08:31:39Z</time>
      </trkpt>
      <trkpt lat="45.6385" lon="6.17916">
        <ele>1030</ele>
        <time>2010-10-09T08:31:40Z</time>
      </trkpt>
      <trkpt lat="45.6385" lon="6.17918">
        <ele>1029</ele>
        <time>2010-10-09T08:31:41Z</time>
      </trkpt>
      <trkpt lat="45.63849" lon="6.17923">
        <ele>1029</ele>
        <time>2010-10-09T08:31:43Z</time>
      </trkpt>
      <trkpt lat="45.63849" lon="6.17925">
        <ele>1028</ele>
        <time>2010-10-09T08:31:44Z</time>
      </trkpt>
      <trkpt lat="45.63848" lon="6.17927">
        <ele>1028</ele>
        <time>2010-10-09T08:31:45Z</time>
      </trkpt>
      <trkpt lat="45.63848" lon="6.17929">
        <ele>1028</ele>
        <time>2010-10-09T08:31:46Z</time>
      </trkpt>
      <trkpt lat="45.63848" lon="6.17931">
        <ele>1028</ele>
        <time>2010-10-09T08:31:47Z</time>
      </trkpt>
      <trkpt lat="45.63849" lon="6.17932">
        <ele>1027</ele>
        <time>2010-10-09T08:31:49Z</time>
      </trkpt>
      <trkpt lat="45.6385" lon="6.17934">
        <ele>1026</ele>
        <time>2010-10-09T08:31:50Z</time>
      </trkpt>
      <trkpt lat="45.63851" lon="6.17938">
        <ele>1025</ele>
        <time>2010-10-09T08:31:51Z</time>
      </trkpt>
      <trkpt lat="45.63853" lon="6.1794">
        <ele>1025</ele>
        <time>2010-10-09T08:31:53Z</time>
      </trkpt>
      <trkpt lat="45.63854" lon="6.17942">
        <ele>1024</ele>
        <time>2010-10-09T08:31:54Z</time>
      </trkpt>
      <trkpt lat="45.63856" lon="6.17945">
        <ele>1023</ele>
        <time>2010-10-09T08:31:55Z</time>
      </trkpt>
      <trkpt lat="45.63858" lon="6.1795">
        <ele>1022</ele>
        <time>2010-10-09T08:31:57Z</time>
      </trkpt>
      <trkpt lat="45.63861" lon="6.17955">
        <ele>1022</ele>
        <time>2010-10-09T08:31:58Z</time>
      </trkpt>
      <trkpt lat="45.63861" lon="6.17956">
        <ele>1022</ele>
        <time>2010-10-09T08:31:59Z</time>
      </trkpt>
      <trkpt lat="45.63862" lon="6.17959">
        <ele>1022</ele>
        <time>2010-10-09T08:32:01Z</time>
      </trkpt>
      <trkpt lat="45.63864" lon="6.17963">
        <ele>1021</ele>
        <time>2010-10-09T08:32:04Z</time>
      </trkpt>
      <trkpt lat="45.63864" lon="6.17965">
        <ele>1021</ele>
        <time>2010-10-09T08:32:06Z</time>
      </trkpt>
      <trkpt lat="45.63866" lon="6.17967">
        <ele>1021</ele>
        <time>2010-10-09T08:32:07Z</time>
      </trkpt>
      <trkpt lat="45.63867" lon="6.17969">
        <ele>1020</ele>
        <time>2010-10-09T08:32:09Z</time>
      </trkpt>
      <trkpt lat="45.63869" lon="6.1797">
        <ele>1020</ele>
        <time>2010-10-09T08:32:11Z</time>
      </trkpt>
      <trkpt lat="45.63868" lon="6.17972">
        <ele>1020</ele>
        <time>2010-10-09T08:32:15Z</time>
      </trkpt>
      <trkpt lat="45.63868" lon="6.17975">
        <ele>1021</ele>
        <time>2010-10-09T08:32:16Z</time>
      </trkpt>
      <trkpt lat="45.63868" lon="6.17978">
        <ele>1021</ele>
        <time>2010-10-09T08:32:18Z</time>
      </trkpt>
      <trkpt lat="45.63867" lon="6.1798">
        <ele>1021</ele>
        <time>2010-10-09T08:32:19Z</time>
      </trkpt>
      <trkpt lat="45.63868" lon="6.17982">
        <ele>1021</ele>
        <time>2010-10-09T08:32:20Z</time>
      </trkpt>
      <trkpt lat="45.63868" lon="6.17984">
        <ele>1021</ele>
        <time>2010-10-09T08:32:21Z</time>
      </trkpt>
      <trkpt lat="45.63871" lon="6.17988">
        <ele>1020</ele>
        <time>2010-10-09T08:32:23Z</time>
      </trkpt>
      <trkpt lat="45.63871" lon="6.1799">
        <ele>1020</ele>
        <time>2010-10-09T08:32:25Z</time>
      </trkpt>
      <trkpt lat="45.63868" lon="6.17995">
        <ele>1021</ele>
        <time>2010-10-09T08:32:26Z</time>
      </trkpt>
      <trkpt lat="45.63868" lon="6.18">
        <ele>1022</ele>
        <time>2010-10-09T08:32:28Z</time>
      </trkpt>
      <trkpt lat="45.63869" lon="6.18002">
        <ele>1028</ele>
        <time>2010-10-09T08:32:29Z</time>
      </trkpt>
      <trkpt lat="45.63869" lon="6.18004">
        <ele>1028</ele>
        <time>2010-10-09T08:32:30Z</time>
      </trkpt>
      <trkpt lat="45.63871" lon="6.18007">
        <ele>1027</ele>
        <time>2010-10-09T08:32:32Z</time>
      </trkpt>
      <trkpt lat="45.63872" lon="6.18008">
        <ele>1027</ele>
        <time>2010-10-09T08:32:33Z</time>
      </trkpt>
      <trkpt lat="45.63873" lon="6.1801">
        <ele>1026</ele>
        <time>2010-10-09T08:32:34Z</time>
      </trkpt>
      <trkpt lat="45.63874" lon="6.18014">
        <ele>1026</ele>
        <time>2010-10-09T08:32:36Z</time>
      </trkpt>
      <trkpt lat="45.63875" lon="6.18018">
        <ele>1026</ele>
        <time>2010-10-09T08:32:38Z</time>
      </trkpt>
      <trkpt lat="45.63876" lon="6.1802">
        <ele>1026</ele>
        <time>2010-10-09T08:32:39Z</time>
      </trkpt>
      <trkpt lat="45.63876" lon="6.18023">
        <ele>1026</ele>
        <time>2010-10-09T08:32:40Z</time>
      </trkpt>
      <trkpt lat="45.63876" lon="6.18025">
        <ele>1026</ele>
        <time>2010-10-09T08:32:41Z</time>
      </trkpt>
      <trkpt lat="45.63876" lon="6.18028">
        <ele>1026</ele>
        <time>2010-10-09T08:32:43Z</time>
      </trkpt>
      <trkpt lat="45.63876" lon="6.18033">
        <ele>1027</ele>
        <time>2010-10-09T08:32:45Z</time>
      </trkpt>
      <trkpt lat="45.63876" lon="6.18039">
        <ele>1028</ele>
        <time>2010-10-09T08:32:47Z</time>
      </trkpt>
      <trkpt lat="45.63876" lon="6.18044">
        <ele>1028</ele>
        <time>2010-10-09T08:32:48Z</time>
      </trkpt>
      <trkpt lat="45.63877" lon="6.18047">
        <ele>1028</ele>
        <time>2010-10-09T08:32:50Z</time>
      </trkpt>
      <trkpt lat="45.63878" lon="6.18052">
        <ele>1028</ele>
        <time>2010-10-09T08:32:51Z</time>
      </trkpt>
      <trkpt lat="45.6388" lon="6.18058">
        <ele>1028</ele>
        <time>2010-10-09T08:32:53Z</time>
      </trkpt>
      <trkpt lat="45.63881" lon="6.1806">
        <ele>1028</ele>
        <time>2010-10-09T08:32:54Z</time>
      </trkpt>
      <trkpt lat="45.63882" lon="6.18063">
        <ele>1028</ele>
        <time>2010-10-09T08:32:55Z</time>
      </trkpt>
      <trkpt lat="45.63882" lon="6.18065">
        <ele>1027</ele>
        <time>2010-10-09T08:32:56Z</time>
      </trkpt>
      <trkpt lat="45.63882" lon="6.18069">
        <ele>1028</ele>
        <time>2010-10-09T08:32:58Z</time>
      </trkpt>
      <trkpt lat="45.63881" lon="6.18072">
        <ele>1028</ele>
        <time>2010-10-09T08:32:59Z</time>
      </trkpt>
      <trkpt lat="45.63881" lon="6.18074">
        <ele>1028</ele>
        <time>2010-10-09T08:33:00Z</time>
      </trkpt>
      <trkpt lat="45.63882" lon="6.18076">
        <ele>1028</ele>
        <time>2010-10-09T08:33:01Z</time>
      </trkpt>
      <trkpt lat="45.63885" lon="6.1808">
        <ele>1026</ele>
        <time>2010-10-09T08:33:04Z</time>
      </trkpt>
      <trkpt lat="45.63887" lon="6.18085">
        <ele>1035</ele>
        <time>2010-10-09T08:33:05Z</time>
      </trkpt>
      <trkpt lat="45.63888" lon="6.18087">
        <ele>1035</ele>
        <time>2010-10-09T08:33:06Z</time>
      </trkpt>
      <trkpt lat="45.63889" lon="6.18092">
        <ele>1035</ele>
        <time>2010-10-09T08:33:09Z</time>
      </trkpt>
      <trkpt lat="45.63887" lon="6.18097">
        <ele>1036</ele>
        <time>2010-10-09T08:33:11Z</time>
      </trkpt>
      <trkpt lat="45.63887" lon="6.18099">
        <ele>1037</ele>
        <time>2010-10-09T08:33:12Z</time>
      </trkpt>
      <trkpt lat="45.63888" lon="6.18103">
        <ele>1037</ele>
        <time>2010-10-09T08:33:13Z</time>
      </trkpt>
      <trkpt lat="45.63888" lon="6.18108">
        <ele>1038</ele>
        <time>2010-10-09T08:33:15Z</time>
      </trkpt>
      <trkpt lat="45.63888" lon="6.1811">
        <ele>1038</ele>
        <time>2010-10-09T08:33:16Z</time>
      </trkpt>
      <trkpt lat="45.63889" lon="6.18115">
        <ele>1039</ele>
        <time>2010-10-09T08:33:18Z</time>
      </trkpt>
      <trkpt lat="45.63891" lon="6.18116">
        <ele>1038</ele>
        <time>2010-10-09T08:33:19Z</time>
      </trkpt>
      <trkpt lat="45.63892" lon="6.18118">
        <ele>1038</ele>
        <time>2010-10-09T08:33:20Z</time>
      </trkpt>
      <trkpt lat="45.63892" lon="6.18121">
        <ele>1038</ele>
        <time>2010-10-09T08:33:22Z</time>
      </trkpt>
      <trkpt lat="45.63893" lon="6.18123">
        <ele>1038</ele>
        <time>2010-10-09T08:33:24Z</time>
      </trkpt>
      <trkpt lat="45.63895" lon="6.18125">
        <ele>1038</ele>
        <time>2010-10-09T08:33:27Z</time>
      </trkpt>
      <trkpt lat="45.63898" lon="6.18127">
        <ele>1037</ele>
        <time>2010-10-09T08:33:28Z</time>
      </trkpt>
      <trkpt lat="45.63902" lon="6.1813">
        <ele>1036</ele>
        <time>2010-10-09T08:33:31Z</time>
      </trkpt>
      <trkpt lat="45.63906" lon="6.18133">
        <ele>1035</ele>
        <time>2010-10-09T08:33:33Z</time>
      </trkpt>
      <trkpt lat="45.63908" lon="6.18136">
        <ele>1035</ele>
        <time>2010-10-09T08:33:35Z</time>
      </trkpt>
      <trkpt lat="45.63908" lon="6.18138">
        <ele>1034</ele>
        <time>2010-10-09T08:33:36Z</time>
      </trkpt>
      <trkpt lat="45.63912" lon="6.18141">
        <ele>1033</ele>
        <time>2010-10-09T08:33:39Z</time>
      </trkpt>
      <trkpt lat="45.63915" lon="6.18145">
        <ele>1032</ele>
        <time>2010-10-09T08:33:40Z</time>
      </trkpt>
      <trkpt lat="45.63919" lon="6.18146">
        <ele>1004</ele>
        <time>2010-10-09T08:33:41Z</time>
      </trkpt>
      <trkpt lat="45.6392" lon="6.18148">
        <ele>1004</ele>
        <time>2010-10-09T08:33:43Z</time>
      </trkpt>
      <trkpt lat="45.63927" lon="6.18153">
        <ele>1005</ele>
        <time>2010-10-09T08:33:45Z</time>
      </trkpt>
      <trkpt lat="45.63931" lon="6.18156">
        <ele>1004</ele>
        <time>2010-10-09T08:33:46Z</time>
      </trkpt>
      <trkpt lat="45.63935" lon="6.18158">
        <ele>1003</ele>
        <time>2010-10-09T08:33:48Z</time>
      </trkpt>
      <trkpt lat="45.63937" lon="6.18163">
        <ele>1002</ele>
        <time>2010-10-09T08:33:51Z</time>
      </trkpt>
      <trkpt lat="45.63939" lon="6.18167">
        <ele>1006</ele>
        <time>2010-10-09T08:33:53Z</time>
      </trkpt>
      <trkpt lat="45.6394" lon="6.1817">
        <ele>1006</ele>
        <time>2010-10-09T08:33:55Z</time>
      </trkpt>
      <trkpt lat="45.6394" lon="6.18172">
        <ele>1006</ele>
        <time>2010-10-09T08:33:56Z</time>
      </trkpt>
      <trkpt lat="45.63939" lon="6.18174">
        <ele>1006</ele>
        <time>2010-10-09T08:33:57Z</time>
      </trkpt>
      <trkpt lat="45.63935" lon="6.18178">
        <ele>1007</ele>
        <time>2010-10-09T08:33:59Z</time>
      </trkpt>
      <trkpt lat="45.63932" lon="6.18181">
        <ele>1008</ele>
        <time>2010-10-09T08:34:01Z</time>
      </trkpt>
      <trkpt lat="45.63932" lon="6.18182">
        <ele>1007</ele>
        <time>2010-10-09T08:34:02Z</time>
      </trkpt>
      <trkpt lat="45.63932" lon="6.18185">
        <ele>1007</ele>
        <time>2010-10-09T08:34:03Z</time>
      </trkpt>
      <trkpt lat="45.63932" lon="6.18189">
        <ele>1006</ele>
        <time>2010-10-09T08:34:06Z</time>
      </trkpt>
      <trkpt lat="45.63932" lon="6.18191">
        <ele>1006</ele>
        <time>2010-10-09T08:34:07Z</time>
      </trkpt>
      <trkpt lat="45.63931" lon="6.18194">
        <ele>1006</ele>
        <time>2010-10-09T08:34:08Z</time>
      </trkpt>
      <trkpt lat="45.6393" lon="6.18196">
        <ele>1006</ele>
        <time>2010-10-09T08:34:09Z</time>
      </trkpt>
      <trkpt lat="45.63929" lon="6.18198">
        <ele>1006</ele>
        <time>2010-10-09T08:34:11Z</time>
      </trkpt>
      <trkpt lat="45.63929" lon="6.182">
        <ele>1006</ele>
        <time>2010-10-09T08:34:12Z</time>
      </trkpt>
      <trkpt lat="45.63929" lon="6.18204">
        <ele>1007</ele>
        <time>2010-10-09T08:34:13Z</time>
      </trkpt>
      <trkpt lat="45.63929" lon="6.18205">
        <ele>1007</ele>
        <time>2010-10-09T08:34:15Z</time>
      </trkpt>
      <trkpt lat="45.6393" lon="6.18209">
        <ele>1007</ele>
        <time>2010-10-09T08:34:17Z</time>
      </trkpt>
      <trkpt lat="45.63931" lon="6.18211">
        <ele>1007</ele>
        <time>2010-10-09T08:34:18Z</time>
      </trkpt>
      <trkpt lat="45.63934" lon="6.18214">
        <ele>1007</ele>
        <time>2010-10-09T08:34:21Z</time>
      </trkpt>
      <trkpt lat="45.63935" lon="6.18217">
        <ele>1007</ele>
        <time>2010-10-09T08:34:22Z</time>
      </trkpt>
      <trkpt lat="45.63936" lon="6.18219">
        <ele>1007</ele>
        <time>2010-10-09T08:34:24Z</time>
      </trkpt>
      <trkpt lat="45.63937" lon="6.18221">
        <ele>1007</ele>
        <time>2010-10-09T08:34:25Z</time>
      </trkpt>
      <trkpt lat="45.63934" lon="6.18225">
        <ele>1009</ele>
        <time>2010-10-09T08:34:27Z</time>
      </trkpt>
      <trkpt lat="45.63933" lon="6.18227">
        <ele>1009</ele>
        <time>2010-10-09T08:34:28Z</time>
      </trkpt>
      <trkpt lat="45.63937" lon="6.18232">
        <ele>1009</ele>
        <time>2010-10-09T08:34:29Z</time>
      </trkpt>
      <trkpt lat="45.63937" lon="6.18234">
        <ele>1009</ele>
        <time>2010-10-09T08:34:31Z</time>
      </trkpt>
      <trkpt lat="45.63941" lon="6.18239">
        <ele>1009</ele>
        <time>2010-10-09T08:34:32Z</time>
      </trkpt>
      <trkpt lat="45.63942" lon="6.18241">
        <ele>1008</ele>
        <time>2010-10-09T08:34:34Z</time>
      </trkpt>
      <trkpt lat="45.63945" lon="6.18245">
        <ele>1007</ele>
        <time>2010-10-09T08:34:36Z</time>
      </trkpt>
      <trkpt lat="45.6395" lon="6.18249">
        <ele>1005</ele>
        <time>2010-10-09T08:34:37Z</time>
      </trkpt>
      <trkpt lat="45.63953" lon="6.18251">
        <ele>1007</ele>
        <time>2010-10-09T08:34:38Z</time>
      </trkpt>
      <trkpt lat="45.63954" lon="6.18254">
        <ele>1006</ele>
        <time>2010-10-09T08:34:40Z</time>
      </trkpt>
      <trkpt lat="45.63955" lon="6.18255">
        <ele>1006</ele>
        <time>2010-10-09T08:34:41Z</time>
      </trkpt>
      <trkpt lat="45.63956" lon="6.18259">
        <ele>1005</ele>
        <time>2010-10-09T08:34:42Z</time>
      </trkpt>
      <trkpt lat="45.63957" lon="6.18261">
        <ele>1005</ele>
        <time>2010-10-09T08:34:44Z</time>
      </trkpt>
      <trkpt lat="45.63957" lon="6.18265">
        <ele>1005</ele>
        <time>2010-10-09T08:34:45Z</time>
      </trkpt>
      <trkpt lat="45.63957" lon="6.18267">
        <ele>1005</ele>
        <time>2010-10-09T08:34:46Z</time>
      </trkpt>
      <trkpt lat="45.63957" lon="6.18271">
        <ele>1005</ele>
        <time>2010-10-09T08:34:49Z</time>
      </trkpt>
      <trkpt lat="45.63954" lon="6.18275">
        <ele>1006</ele>
        <time>2010-10-09T08:34:50Z</time>
      </trkpt>
      <trkpt lat="45.63953" lon="6.18277">
        <ele>1007</ele>
        <time>2010-10-09T08:34:51Z</time>
      </trkpt>
      <trkpt lat="45.63953" lon="6.18279">
        <ele>1007</ele>
        <time>2010-10-09T08:34:52Z</time>
      </trkpt>
      <trkpt lat="45.63953" lon="6.18281">
        <ele>1007</ele>
        <time>2010-10-09T08:34:54Z</time>
      </trkpt>
      <trkpt lat="45.63954" lon="6.18286">
        <ele>1006</ele>
        <time>2010-10-09T08:34:55Z</time>
      </trkpt>
      <trkpt lat="45.63954" lon="6.1829">
        <ele>1006</ele>
        <time>2010-10-09T08:34:57Z</time>
      </trkpt>
      <trkpt lat="45.63953" lon="6.18292">
        <ele>1007</ele>
        <time>2010-10-09T08:34:58Z</time>
      </trkpt>
      <trkpt lat="45.63952" lon="6.18294">
        <ele>1007</ele>
        <time>2010-10-09T08:34:59Z</time>
      </trkpt>
      <trkpt lat="45.63951" lon="6.18295">
        <ele>1008</ele>
        <time>2010-10-09T08:35:00Z</time>
      </trkpt>
      <trkpt lat="45.6395" lon="6.18297">
        <ele>1008</ele>
        <time>2010-10-09T08:35:02Z</time>
      </trkpt>
      <trkpt lat="45.63948" lon="6.18302">
        <ele>1009</ele>
        <time>2010-10-09T08:35:03Z</time>
      </trkpt>
      <trkpt lat="45.63946" lon="6.18304">
        <ele>1010</ele>
        <time>2010-10-09T08:35:05Z</time>
      </trkpt>
      <trkpt lat="45.63945" lon="6.18306">
        <ele>1010</ele>
        <time>2010-10-09T08:35:06Z</time>
      </trkpt>
      <trkpt lat="45.63946" lon="6.18309">
        <ele>1010</ele>
        <time>2010-10-09T08:35:07Z</time>
      </trkpt>
      <trkpt lat="45.63943" lon="6.18314">
        <ele>1012</ele>
        <time>2010-10-09T08:35:09Z</time>
      </trkpt>
      <trkpt lat="45.63942" lon="6.18316">
        <ele>1013</ele>
        <time>2010-10-09T08:35:10Z</time>
      </trkpt>
      <trkpt lat="45.63943" lon="6.18318">
        <ele>1013</ele>
        <time>2010-10-09T08:35:11Z</time>
      </trkpt>
      <trkpt lat="45.63942" lon="6.18322">
        <ele>1014</ele>
        <time>2010-10-09T08:35:13Z</time>
      </trkpt>
      <trkpt lat="45.63942" lon="6.18326">
        <ele>1015</ele>
        <time>2010-10-09T08:35:14Z</time>
      </trkpt>
      <trkpt lat="45.6394" lon="6.18328">
        <ele>1016</ele>
        <time>2010-10-09T08:35:16Z</time>
      </trkpt>
      <trkpt lat="45.63937" lon="6.18332">
        <ele>1019</ele>
        <time>2010-10-09T08:35:17Z</time>
      </trkpt>
      <trkpt lat="45.63937" lon="6.18334">
        <ele>1021</ele>
        <time>2010-10-09T08:35:18Z</time>
      </trkpt>
      <trkpt lat="45.63936" lon="6.18336">
        <ele>1021</ele>
        <time>2010-10-09T08:35:19Z</time>
      </trkpt>
      <trkpt lat="45.63935" lon="6.18338">
        <ele>1022</ele>
        <time>2010-10-09T08:35:20Z</time>
      </trkpt>
      <trkpt lat="45.63935" lon="6.1834">
        <ele>1022</ele>
        <time>2010-10-09T08:35:21Z</time>
      </trkpt>
      <trkpt lat="45.63935" lon="6.18342">
        <ele>1021</ele>
        <time>2010-10-09T08:35:23Z</time>
      </trkpt>
      <trkpt lat="45.63935" lon="6.18345">
        <ele>1021</ele>
        <time>2010-10-09T08:35:24Z</time>
      </trkpt>
      <trkpt lat="45.63934" lon="6.18349">
        <ele>1020</ele>
        <time>2010-10-09T08:35:25Z</time>
      </trkpt>
      <trkpt lat="45.63934" lon="6.18352">
        <ele>1019</ele>
        <time>2010-10-09T08:35:27Z</time>
      </trkpt>
      <trkpt lat="45.63932" lon="6.18354">
        <ele>1019</ele>
        <time>2010-10-09T08:35:28Z</time>
      </trkpt>
      <trkpt lat="45.6393" lon="6.18359">
        <ele>1019</ele>
        <time>2010-10-09T08:35:30Z</time>
      </trkpt>
      <trkpt lat="45.63928" lon="6.18362">
        <ele>1019</ele>
        <time>2010-10-09T08:35:31Z</time>
      </trkpt>
      <trkpt lat="45.63928" lon="6.18364">
        <ele>1019</ele>
        <time>2010-10-09T08:35:33Z</time>
      </trkpt>
      <trkpt lat="45.63929" lon="6.18366">
        <ele>1018</ele>
        <time>2010-10-09T08:35:34Z</time>
      </trkpt>
      <trkpt lat="45.63929" lon="6.18368">
        <ele>1018</ele>
        <time>2010-10-09T08:35:35Z</time>
      </trkpt>
      <trkpt lat="45.6393" lon="6.18373">
        <ele>1018</ele>
        <time>2010-10-09T08:35:37Z</time>
      </trkpt>
      <trkpt lat="45.63931" lon="6.18378">
        <ele>1018</ele>
        <time>2010-10-09T08:35:38Z</time>
      </trkpt>
      <trkpt lat="45.63931" lon="6.1838">
        <ele>1018</ele>
        <time>2010-10-09T08:35:39Z</time>
      </trkpt>
      <trkpt lat="45.63931" lon="6.18382">
        <ele>1018</ele>
        <time>2010-10-09T08:35:40Z</time>
      </trkpt>
      <trkpt lat="45.63931" lon="6.18384">
        <ele>1018</ele>
        <time>2010-10-09T08:35:41Z</time>
      </trkpt>
      <trkpt lat="45.63927" lon="6.1839">
        <ele>1021</ele>
        <time>2010-10-09T08:35:43Z</time>
      </trkpt>
      <trkpt lat="45.63926" lon="6.18391">
        <ele>1021</ele>
        <time>2010-10-09T08:35:45Z</time>
      </trkpt>
      <trkpt lat="45.63925" lon="6.18396">
        <ele>1023</ele>
        <time>2010-10-09T08:35:46Z</time>
      </trkpt>
      <trkpt lat="45.63923" lon="6.18399">
        <ele>1026</ele>
        <time>2010-10-09T08:35:48Z</time>
      </trkpt>
      <trkpt lat="45.63923" lon="6.18401">
        <ele>1027</ele>
        <time>2010-10-09T08:35:50Z</time>
      </trkpt>
      <trkpt lat="45.63923" lon="6.18403">
        <ele>1028</ele>
        <time>2010-10-09T08:35:51Z</time>
      </trkpt>
      <trkpt lat="45.63921" lon="6.18407">
        <ele>1031</ele>
        <time>2010-10-09T08:35:53Z</time>
      </trkpt>
      <trkpt lat="45.63922" lon="6.18411">
        <ele>1034</ele>
        <time>2010-10-09T08:35:54Z</time>
      </trkpt>
      <trkpt lat="45.63918" lon="6.18415">
        <ele>1040</ele>
        <time>2010-10-09T08:35:56Z</time>
      </trkpt>
      <trkpt lat="45.63916" lon="6.18421">
        <ele>1047</ele>
        <time>2010-10-09T08:35:58Z</time>
      </trkpt>
      <trkpt lat="45.63916" lon="6.18425">
        <ele>1050</ele>
        <time>2010-10-09T08:36:00Z</time>
      </trkpt>
      <trkpt lat="45.63914" lon="6.18427">
        <ele>1051</ele>
        <time>2010-10-09T08:36:02Z</time>
      </trkpt>
      <trkpt lat="45.63913" lon="6.18429">
        <ele>1052</ele>
        <time>2010-10-09T08:36:03Z</time>
      </trkpt>
      <trkpt lat="45.63912" lon="6.18433">
        <ele>1055</ele>
        <time>2010-10-09T08:36:04Z</time>
      </trkpt>
      <trkpt lat="45.63911" lon="6.18435">
        <ele>1055</ele>
        <time>2010-10-09T08:36:06Z</time>
      </trkpt>
      <trkpt lat="45.6391" lon="6.18437">
        <ele>1056</ele>
        <time>2010-10-09T08:36:07Z</time>
      </trkpt>
      <trkpt lat="45.63909" lon="6.18441">
        <ele>1057</ele>
        <time>2010-10-09T08:36:09Z</time>
      </trkpt>
      <trkpt lat="45.6391" lon="6.18444">
        <ele>1057</ele>
        <time>2010-10-09T08:36:10Z</time>
      </trkpt>
      <trkpt lat="45.63909" lon="6.18448">
        <ele>1058</ele>
        <time>2010-10-09T08:36:12Z</time>
      </trkpt>
      <trkpt lat="45.63909" lon="6.18452">
        <ele>1058</ele>
        <time>2010-10-09T08:36:13Z</time>
      </trkpt>
      <trkpt lat="45.63908" lon="6.18454">
        <ele>1058</ele>
        <time>2010-10-09T08:36:14Z</time>
      </trkpt>
      <trkpt lat="45.63907" lon="6.18456">
        <ele>1058</ele>
        <time>2010-10-09T08:36:15Z</time>
      </trkpt>
      <trkpt lat="45.63905" lon="6.18458">
        <ele>1059</ele>
        <time>2010-10-09T08:36:16Z</time>
      </trkpt>
      <trkpt lat="45.63904" lon="6.18462">
        <ele>1059</ele>
        <time>2010-10-09T08:36:18Z</time>
      </trkpt>
      <trkpt lat="45.63904" lon="6.18464">
        <ele>1058</ele>
        <time>2010-10-09T08:36:19Z</time>
      </trkpt>
      <trkpt lat="45.63904" lon="6.18466">
        <ele>1058</ele>
        <time>2010-10-09T08:36:20Z</time>
      </trkpt>
      <trkpt lat="45.63903" lon="6.18468">
        <ele>1058</ele>
        <time>2010-10-09T08:36:21Z</time>
      </trkpt>
      <trkpt lat="45.63902" lon="6.18472">
        <ele>1057</ele>
        <time>2010-10-09T08:36:23Z</time>
      </trkpt>
      <trkpt lat="45.63901" lon="6.18474">
        <ele>1057</ele>
        <time>2010-10-09T08:36:24Z</time>
      </trkpt>
      <trkpt lat="45.63901" lon="6.18475">
        <ele>1057</ele>
        <time>2010-10-09T08:36:25Z</time>
      </trkpt>
      <trkpt lat="45.639" lon="6.18477">
        <ele>1056</ele>
        <time>2010-10-09T08:36:26Z</time>
      </trkpt>
      <trkpt lat="45.63898" lon="6.1848">
        <ele>1056</ele>
        <time>2010-10-09T08:36:28Z</time>
      </trkpt>
      <trkpt lat="45.63897" lon="6.18482">
        <ele>1056</ele>
        <time>2010-10-09T08:36:29Z</time>
      </trkpt>
      <trkpt lat="45.63897" lon="6.18483">
        <ele>1056</ele>
        <time>2010-10-09T08:36:30Z</time>
      </trkpt>
      <trkpt lat="45.63896" lon="6.18485">
        <ele>1056</ele>
        <time>2010-10-09T08:36:32Z</time>
      </trkpt>
      <trkpt lat="45.63893" lon="6.18487">
        <ele>1057</ele>
        <time>2010-10-09T08:36:33Z</time>
      </trkpt>
      <trkpt lat="45.63892" lon="6.18488">
        <ele>1058</ele>
        <time>2010-10-09T08:36:34Z</time>
      </trkpt>
      <trkpt lat="45.6389" lon="6.1849">
        <ele>1058</ele>
        <time>2010-10-09T08:36:35Z</time>
      </trkpt>
      <trkpt lat="45.6389" lon="6.18491">
        <ele>1058</ele>
        <time>2010-10-09T08:36:37Z</time>
      </trkpt>
      <trkpt lat="45.63888" lon="6.18495">
        <ele>1059</ele>
        <time>2010-10-09T08:36:38Z</time>
      </trkpt>
      <trkpt lat="45.63887" lon="6.18496">
        <ele>1059</ele>
        <time>2010-10-09T08:36:39Z</time>
      </trkpt>
      <trkpt lat="45.63885" lon="6.18498">
        <ele>1060</ele>
        <time>2010-10-09T08:36:41Z</time>
      </trkpt>
      <trkpt lat="45.63884" lon="6.18501">
        <ele>1047</ele>
        <time>2010-10-09T08:36:43Z</time>
      </trkpt>
      <trkpt lat="45.63883" lon="6.18501">
        <ele>1047</ele>
        <time>2010-10-09T08:36:45Z</time>
      </trkpt>
      <trkpt lat="45.6388" lon="6.18504">
        <ele>1048</ele>
        <time>2010-10-09T08:36:47Z</time>
      </trkpt>
      <trkpt lat="45.63878" lon="6.18505">
        <ele>1049</ele>
        <time>2010-10-09T08:36:49Z</time>
      </trkpt>
      <trkpt lat="45.63877" lon="6.18507">
        <ele>1049</ele>
        <time>2010-10-09T08:36:50Z</time>
      </trkpt>
      <trkpt lat="45.63874" lon="6.18509">
        <ele>1050</ele>
        <time>2010-10-09T08:36:52Z</time>
      </trkpt>
      <trkpt lat="45.63874" lon="6.18511">
        <ele>1050</ele>
        <time>2010-10-09T08:36:54Z</time>
      </trkpt>
      <trkpt lat="45.63871" lon="6.18513">
        <ele>1051</ele>
        <time>2010-10-09T08:36:57Z</time>
      </trkpt>
      <trkpt lat="45.63869" lon="6.18516">
        <ele>1051</ele>
        <time>2010-10-09T08:37:00Z</time>
      </trkpt>
      <trkpt lat="45.63867" lon="6.18519">
        <ele>1052</ele>
        <time>2010-10-09T08:37:02Z</time>
      </trkpt>
      <trkpt lat="45.63866" lon="6.1852">
        <ele>1052</ele>
        <time>2010-10-09T08:37:03Z</time>
      </trkpt>
      <trkpt lat="45.63863" lon="6.18522">
        <ele>1052</ele>
        <time>2010-10-09T08:37:05Z</time>
      </trkpt>
      <trkpt lat="45.6386" lon="6.18525">
        <ele>1053</ele>
        <time>2010-10-09T08:37:06Z</time>
      </trkpt>
      <trkpt lat="45.63858" lon="6.18527">
        <ele>1053</ele>
        <time>2010-10-09T08:37:08Z</time>
      </trkpt>
      <trkpt lat="45.63855" lon="6.1853">
        <ele>1053</ele>
        <time>2010-10-09T08:37:13Z</time>
      </trkpt>
      <trkpt lat="45.63852" lon="6.18532">
        <ele>1053</ele>
        <time>2010-10-09T08:37:15Z</time>
      </trkpt>
      <trkpt lat="45.63849" lon="6.18533">
        <ele>1053</ele>
        <time>2010-10-09T08:37:16Z</time>
      </trkpt>
      <trkpt lat="45.63848" lon="6.18534">
        <ele>1053</ele>
        <time>2010-10-09T08:37:18Z</time>
      </trkpt>
      <trkpt lat="45.63845" lon="6.18536">
        <ele>1053</ele>
        <time>2010-10-09T08:37:20Z</time>
      </trkpt>
      <trkpt lat="45.63844" lon="6.18538">
        <ele>1053</ele>
        <time>2010-10-09T08:37:23Z</time>
      </trkpt>
      <trkpt lat="45.63841" lon="6.1854">
        <ele>1053</ele>
        <time>2010-10-09T08:37:24Z</time>
      </trkpt>
      <trkpt lat="45.6384" lon="6.1854">
        <ele>1053</ele>
        <time>2010-10-09T08:37:25Z</time>
      </trkpt>
      <trkpt lat="45.63838" lon="6.18541">
        <ele>1053</ele>
        <time>2010-10-09T08:37:27Z</time>
      </trkpt>
      <trkpt lat="45.63837" lon="6.18541">
        <ele>1053</ele>
        <time>2010-10-09T08:37:28Z</time>
      </trkpt>
      <trkpt lat="45.63835" lon="6.18544">
        <ele>1052</ele>
        <time>2010-10-09T08:37:30Z</time>
      </trkpt>
      <trkpt lat="45.63833" lon="6.18547">
        <ele>1073</ele>
        <time>2010-10-09T08:37:31Z</time>
      </trkpt>
      <trkpt lat="45.63832" lon="6.18548">
        <ele>1072</ele>
        <time>2010-10-09T08:37:33Z</time>
      </trkpt>
      <trkpt lat="45.63831" lon="6.18549">
        <ele>1072</ele>
        <time>2010-10-09T08:37:34Z</time>
      </trkpt>
      <trkpt lat="45.6383" lon="6.1855">
        <ele>1072</ele>
        <time>2010-10-09T08:37:35Z</time>
      </trkpt>
      <trkpt lat="45.63827" lon="6.18552">
        <ele>1071</ele>
        <time>2010-10-09T08:37:36Z</time>
      </trkpt>
      <trkpt lat="45.63824" lon="6.18555">
        <ele>1071</ele>
        <time>2010-10-09T08:37:38Z</time>
      </trkpt>
      <trkpt lat="45.63823" lon="6.18556">
        <ele>1071</ele>
        <time>2010-10-09T08:37:39Z</time>
      </trkpt>
      <trkpt lat="45.63821" lon="6.18559">
        <ele>1070</ele>
        <time>2010-10-09T08:37:41Z</time>
      </trkpt>
      <trkpt lat="45.63819" lon="6.18561">
        <ele>1069</ele>
        <time>2010-10-09T08:37:43Z</time>
      </trkpt>
      <trkpt lat="45.63818" lon="6.18562">
        <ele>1069</ele>
        <time>2010-10-09T08:37:44Z</time>
      </trkpt>
      <trkpt lat="45.63817" lon="6.18563">
        <ele>1069</ele>
        <time>2010-10-09T08:37:45Z</time>
      </trkpt>
      <trkpt lat="45.63816" lon="6.18565">
        <ele>1069</ele>
        <time>2010-10-09T08:37:46Z</time>
      </trkpt>
      <trkpt lat="45.63813" lon="6.18567">
        <ele>1069</ele>
        <time>2010-10-09T08:37:48Z</time>
      </trkpt>
      <trkpt lat="45.63812" lon="6.18568">
        <ele>1069</ele>
        <time>2010-10-09T08:37:49Z</time>
      </trkpt>
      <trkpt lat="45.63811" lon="6.18569">
        <ele>1069</ele>
        <time>2010-10-09T08:37:50Z</time>
      </trkpt>
      <trkpt lat="45.6381" lon="6.1857">
        <ele>1069</ele>
        <time>2010-10-09T08:37:51Z</time>
      </trkpt>
      <trkpt lat="45.63807" lon="6.18572">
        <ele>1070</ele>
        <time>2010-10-09T08:37:53Z</time>
      </trkpt>
      <trkpt lat="45.63806" lon="6.18575">
        <ele>1070</ele>
        <time>2010-10-09T08:37:56Z</time>
      </trkpt>
      <trkpt lat="45.63804" lon="6.18578">
        <ele>1070</ele>
        <time>2010-10-09T08:37:58Z</time>
      </trkpt>
      <trkpt lat="45.63803" lon="6.18579">
        <ele>1070</ele>
        <time>2010-10-09T08:37:59Z</time>
      </trkpt>
      <trkpt lat="45.638" lon="6.18583">
        <ele>1071</ele>
        <time>2010-10-09T08:38:01Z</time>
      </trkpt>
      <trkpt lat="45.63797" lon="6.18587">
        <ele>1048</ele>
        <time>2010-10-09T08:38:04Z</time>
      </trkpt>
      <trkpt lat="45.63795" lon="6.18588">
        <ele>1049</ele>
        <time>2010-10-09T08:38:06Z</time>
      </trkpt>
      <trkpt lat="45.63794" lon="6.18589">
        <ele>1049</ele>
        <time>2010-10-09T08:38:08Z</time>
      </trkpt>
      <trkpt lat="45.63793" lon="6.18592">
        <ele>1049</ele>
        <time>2010-10-09T08:38:11Z</time>
      </trkpt>
      <trkpt lat="45.63791" lon="6.18593">
        <ele>1049</ele>
        <time>2010-10-09T08:38:13Z</time>
      </trkpt>
      <trkpt lat="45.63789" lon="6.18595">
        <ele>1049</ele>
        <time>2010-10-09T08:38:15Z</time>
      </trkpt>
      <trkpt lat="45.63786" lon="6.18597">
        <ele>1050</ele>
        <time>2010-10-09T08:38:16Z</time>
      </trkpt>
      <trkpt lat="45.63783" lon="6.18599">
        <ele>1050</ele>
        <time>2010-10-09T08:38:18Z</time>
      </trkpt>
      <trkpt lat="45.63781" lon="6.186">
        <ele>1050</ele>
        <time>2010-10-09T08:38:19Z</time>
      </trkpt>
      <trkpt lat="45.6378" lon="6.18601">
        <ele>1051</ele>
        <time>2010-10-09T08:38:20Z</time>
      </trkpt>
      <trkpt lat="45.63778" lon="6.18603">
        <ele>1051</ele>
        <time>2010-10-09T08:38:22Z</time>
      </trkpt>
      <trkpt lat="45.63775" lon="6.18605">
        <ele>1051</ele>
        <time>2010-10-09T08:38:24Z</time>
      </trkpt>
      <trkpt lat="45.63774" lon="6.18606">
        <ele>1051</ele>
        <time>2010-10-09T08:38:25Z</time>
      </trkpt>
      <trkpt lat="45.63773" lon="6.18607">
        <ele>1050</ele>
        <time>2010-10-09T08:38:26Z</time>
      </trkpt>
      <trkpt lat="45.6377" lon="6.18609">
        <ele>1051</ele>
        <time>2010-10-09T08:38:28Z</time>
      </trkpt>
      <trkpt lat="45.63768" lon="6.1861">
        <ele>1051</ele>
        <time>2010-10-09T08:38:31Z</time>
      </trkpt>
      <trkpt lat="45.63766" lon="6.1861">
        <ele>1051</ele>
        <time>2010-10-09T08:38:32Z</time>
      </trkpt>
      <trkpt lat="45.63765" lon="6.1861">
        <ele>1051</ele>
        <time>2010-10-09T08:38:33Z</time>
      </trkpt>
      <trkpt lat="45.63761" lon="6.18611">
        <ele>1052</ele>
        <time>2010-10-09T08:38:35Z</time>
      </trkpt>
      <trkpt lat="45.63758" lon="6.18611">
        <ele>1052</ele>
        <time>2010-10-09T08:38:36Z</time>
      </trkpt>
      <trkpt lat="45.63755" lon="6.18611">
        <ele>1052</ele>
        <time>2010-10-09T08:38:38Z</time>
      </trkpt>
      <trkpt lat="45.63753" lon="6.18611">
        <ele>1053</ele>
        <time>2010-10-09T08:38:39Z</time>
      </trkpt>
      <trkpt lat="45.6375" lon="6.1861">
        <ele>1053</ele>
        <time>2010-10-09T08:38:40Z</time>
      </trkpt>
      <trkpt lat="45.63749" lon="6.1861">
        <ele>1058</ele>
        <time>2010-10-09T08:38:41Z</time>
      </trkpt>
      <trkpt lat="45.63745" lon="6.18609">
        <ele>1058</ele>
        <time>2010-10-09T08:38:43Z</time>
      </trkpt>
      <trkpt lat="45.63743" lon="6.18608">
        <ele>1059</ele>
        <time>2010-10-09T08:38:44Z</time>
      </trkpt>
      <trkpt lat="45.63742" lon="6.18607">
        <ele>1059</ele>
        <time>2010-10-09T08:38:45Z</time>
      </trkpt>
      <trkpt lat="45.6374" lon="6.18607">
        <ele>1059</ele>
        <time>2010-10-09T08:38:46Z</time>
      </trkpt>
      <trkpt lat="45.63737" lon="6.18606">
        <ele>1059</ele>
        <time>2010-10-09T08:38:48Z</time>
      </trkpt>
      <trkpt lat="45.63736" lon="6.18605">
        <ele>1059</ele>
        <time>2010-10-09T08:38:49Z</time>
      </trkpt>
      <trkpt lat="45.63734" lon="6.18605">
        <ele>1059</ele>
        <time>2010-10-09T08:38:50Z</time>
      </trkpt>
      <trkpt lat="45.63732" lon="6.18605">
        <ele>1059</ele>
        <time>2010-10-09T08:38:52Z</time>
      </trkpt>
      <trkpt lat="45.63731" lon="6.18605">
        <ele>1058</ele>
        <time>2010-10-09T08:38:53Z</time>
      </trkpt>
      <trkpt lat="45.6373" lon="6.18605">
        <ele>1058</ele>
        <time>2010-10-09T08:38:54Z</time>
      </trkpt>
      <trkpt lat="45.63729" lon="6.18606">
        <ele>1058</ele>
        <time>2010-10-09T08:38:55Z</time>
      </trkpt>
      <trkpt lat="45.63727" lon="6.18607">
        <ele>1057</ele>
        <time>2010-10-09T08:38:56Z</time>
      </trkpt>
      <trkpt lat="45.63725" lon="6.18609">
        <ele>1056</ele>
        <time>2010-10-09T08:38:58Z</time>
      </trkpt>
      <trkpt lat="45.63724" lon="6.1861">
        <ele>1055</ele>
        <time>2010-10-09T08:38:59Z</time>
      </trkpt>
      <trkpt lat="45.63722" lon="6.18611">
        <ele>1055</ele>
        <time>2010-10-09T08:39:00Z</time>
      </trkpt>
      <trkpt lat="45.63721" lon="6.18612">
        <ele>1054</ele>
        <time>2010-10-09T08:39:01Z</time>
      </trkpt>
      <trkpt lat="45.63718" lon="6.18613">
        <ele>1054</ele>
        <time>2010-10-09T08:39:03Z</time>
      </trkpt>
      <trkpt lat="45.63716" lon="6.18613">
        <ele>1054</ele>
        <time>2010-10-09T08:39:04Z</time>
      </trkpt>
      <trkpt lat="45.63715" lon="6.18614">
        <ele>1053</ele>
        <time>2010-10-09T08:39:05Z</time>
      </trkpt>
      <trkpt lat="45.63714" lon="6.18615">
        <ele>1053</ele>
        <time>2010-10-09T08:39:06Z</time>
      </trkpt>
      <trkpt lat="45.63711" lon="6.18617">
        <ele>1052</ele>
        <time>2010-10-09T08:39:08Z</time>
      </trkpt>
      <trkpt lat="45.6371" lon="6.18617">
        <ele>1052</ele>
        <time>2010-10-09T08:39:09Z</time>
      </trkpt>
      <trkpt lat="45.63708" lon="6.18617">
        <ele>1052</ele>
        <time>2010-10-09T08:39:10Z</time>
      </trkpt>
      <trkpt lat="45.63707" lon="6.18616">
        <ele>1052</ele>
        <time>2010-10-09T08:39:11Z</time>
      </trkpt>
      <trkpt lat="45.63706" lon="6.18616">
        <ele>1052</ele>
        <time>2010-10-09T08:39:12Z</time>
      </trkpt>
      <trkpt lat="45.63703" lon="6.18614">
        <ele>1053</ele>
        <time>2010-10-09T08:39:14Z</time>
      </trkpt>
      <trkpt lat="45.63702" lon="6.18613">
        <ele>1053</ele>
        <time>2010-10-09T08:39:15Z</time>
      </trkpt>
      <trkpt lat="45.637" lon="6.18612">
        <ele>1053</ele>
        <time>2010-10-09T08:39:16Z</time>
      </trkpt>
      <trkpt lat="45.63697" lon="6.18611">
        <ele>1054</ele>
        <time>2010-10-09T08:39:18Z</time>
      </trkpt>
      <trkpt lat="45.63696" lon="6.1861">
        <ele>1054</ele>
        <time>2010-10-09T08:39:19Z</time>
      </trkpt>
      <trkpt lat="45.63695" lon="6.18609">
        <ele>1055</ele>
        <time>2010-10-09T08:39:20Z</time>
      </trkpt>
      <trkpt lat="45.63693" lon="6.18608">
        <ele>1055</ele>
        <time>2010-10-09T08:39:21Z</time>
      </trkpt>
      <trkpt lat="45.63692" lon="6.18608">
        <ele>1055</ele>
        <time>2010-10-09T08:39:22Z</time>
      </trkpt>
      <trkpt lat="45.6369" lon="6.18606">
        <ele>1056</ele>
        <time>2010-10-09T08:39:25Z</time>
      </trkpt>
      <trkpt lat="45.63688" lon="6.18604">
        <ele>1057</ele>
        <time>2010-10-09T08:39:26Z</time>
      </trkpt>
      <trkpt lat="45.63686" lon="6.18603">
        <ele>1058</ele>
        <time>2010-10-09T08:39:28Z</time>
      </trkpt>
      <trkpt lat="45.63684" lon="6.186">
        <ele>1059</ele>
        <time>2010-10-09T08:39:30Z</time>
      </trkpt>
      <trkpt lat="45.63682" lon="6.18599">
        <ele>1060</ele>
        <time>2010-10-09T08:39:32Z</time>
      </trkpt>
      <trkpt lat="45.63681" lon="6.18597">
        <ele>1061</ele>
        <time>2010-10-09T08:39:33Z</time>
      </trkpt>
      <trkpt lat="45.63679" lon="6.18595">
        <ele>1063</ele>
        <time>2010-10-09T08:39:35Z</time>
      </trkpt>
      <trkpt lat="45.63677" lon="6.18592">
        <ele>1064</ele>
        <time>2010-10-09T08:39:37Z</time>
      </trkpt>
      <trkpt lat="45.63676" lon="6.1859">
        <ele>1066</ele>
        <time>2010-10-09T08:39:38Z</time>
      </trkpt>
      <trkpt lat="45.63676" lon="6.18589">
        <ele>1066</ele>
        <time>2010-10-09T08:39:40Z</time>
      </trkpt>
      <trkpt lat="45.63674" lon="6.18585">
        <ele>1069</ele>
        <time>2010-10-09T08:39:41Z</time>
      </trkpt>
      <trkpt lat="45.63672" lon="6.18582">
        <ele>1079</ele>
        <time>2010-10-09T08:39:43Z</time>
      </trkpt>
      <trkpt lat="45.63671" lon="6.1858">
        <ele>1079</ele>
        <time>2010-10-09T08:39:45Z</time>
      </trkpt>
      <trkpt lat="45.63669" lon="6.18578">
        <ele>1079</ele>
        <time>2010-10-09T08:39:47Z</time>
      </trkpt>
      <trkpt lat="45.63668" lon="6.18576">
        <ele>1080</ele>
        <time>2010-10-09T08:39:48Z</time>
      </trkpt>
      <trkpt lat="45.63666" lon="6.18573">
        <ele>1079</ele>
        <time>2010-10-09T08:39:49Z</time>
      </trkpt>
      <trkpt lat="45.63666" lon="6.18572">
        <ele>1079</ele>
        <time>2010-10-09T08:39:50Z</time>
      </trkpt>
      <trkpt lat="45.63665" lon="6.1857">
        <ele>1080</ele>
        <time>2010-10-09T08:39:51Z</time>
      </trkpt>
      <trkpt lat="45.63662" lon="6.18566">
        <ele>1081</ele>
        <time>2010-10-09T08:39:54Z</time>
      </trkpt>
      <trkpt lat="45.6366" lon="6.18565">
        <ele>1081</ele>
        <time>2010-10-09T08:39:55Z</time>
      </trkpt>
      <trkpt lat="45.6366" lon="6.18563">
        <ele>1082</ele>
        <time>2010-10-09T08:39:56Z</time>
      </trkpt>
      <trkpt lat="45.63658" lon="6.18561">
        <ele>1082</ele>
        <time>2010-10-09T08:39:58Z</time>
      </trkpt>
      <trkpt lat="45.63656" lon="6.18559">
        <ele>1083</ele>
        <time>2010-10-09T08:40:00Z</time>
      </trkpt>
      <trkpt lat="45.63655" lon="6.18557">
        <ele>1083</ele>
        <time>2010-10-09T08:40:01Z</time>
      </trkpt>
      <trkpt lat="45.63653" lon="6.18554">
        <ele>1084</ele>
        <time>2010-10-09T08:40:04Z</time>
      </trkpt>
      <trkpt lat="45.63653" lon="6.18552">
        <ele>1084</ele>
        <time>2010-10-09T08:40:05Z</time>
      </trkpt>
      <trkpt lat="45.63652" lon="6.1855">
        <ele>1085</ele>
        <time>2010-10-09T08:40:06Z</time>
      </trkpt>
      <trkpt lat="45.63651" lon="6.18548">
        <ele>1085</ele>
        <time>2010-10-09T08:40:09Z</time>
      </trkpt>
      <trkpt lat="45.63649" lon="6.18545">
        <ele>1086</ele>
        <time>2010-10-09T08:40:10Z</time>
      </trkpt>
      <trkpt lat="45.63649" lon="6.18543">
        <ele>1086</ele>
        <time>2010-10-09T08:40:12Z</time>
      </trkpt>
      <trkpt lat="45.63646" lon="6.18539">
        <ele>1087</ele>
        <time>2010-10-09T08:40:14Z</time>
      </trkpt>
      <trkpt lat="45.63646" lon="6.18538">
        <ele>1087</ele>
        <time>2010-10-09T08:40:15Z</time>
      </trkpt>
      <trkpt lat="45.63644" lon="6.18536">
        <ele>1088</ele>
        <time>2010-10-09T08:40:17Z</time>
      </trkpt>
      <trkpt lat="45.63641" lon="6.18533">
        <ele>1088</ele>
        <time>2010-10-09T08:40:20Z</time>
      </trkpt>
      <trkpt lat="45.6364" lon="6.18532">
        <ele>1088</ele>
        <time>2010-10-09T08:40:22Z</time>
      </trkpt>
      <trkpt lat="45.6364" lon="6.1853">
        <ele>1089</ele>
        <time>2010-10-09T08:40:23Z</time>
      </trkpt>
      <trkpt lat="45.6364" lon="6.18529">
        <ele>1089</ele>
        <time>2010-10-09T08:40:24Z</time>
      </trkpt>
      <trkpt lat="45.63639" lon="6.18524">
        <ele>1090</ele>
        <time>2010-10-09T08:40:25Z</time>
      </trkpt>
      <trkpt lat="45.63638" lon="6.18522">
        <ele>1090</ele>
        <time>2010-10-09T08:40:27Z</time>
      </trkpt>
      <trkpt lat="45.63637" lon="6.18521">
        <ele>1090</ele>
        <time>2010-10-09T08:40:28Z</time>
      </trkpt>
      <trkpt lat="45.63635" lon="6.18518">
        <ele>1090</ele>
        <time>2010-10-09T08:40:29Z</time>
      </trkpt>
      <trkpt lat="45.63634" lon="6.18515">
        <ele>1091</ele>
        <time>2010-10-09T08:40:30Z</time>
      </trkpt>
      <trkpt lat="45.63633" lon="6.18514">
        <ele>1091</ele>
        <time>2010-10-09T08:40:31Z</time>
      </trkpt>
      <trkpt lat="45.63631" lon="6.18511">
        <ele>1091</ele>
        <time>2010-10-09T08:40:33Z</time>
      </trkpt>
      <trkpt lat="45.6363" lon="6.18509">
        <ele>1091</ele>
        <time>2010-10-09T08:40:34Z</time>
      </trkpt>
      <trkpt lat="45.63629" lon="6.18508">
        <ele>1091</ele>
        <time>2010-10-09T08:40:36Z</time>
      </trkpt>
      <trkpt lat="45.63627" lon="6.18505">
        <ele>1091</ele>
        <time>2010-10-09T08:40:37Z</time>
      </trkpt>
      <trkpt lat="45.63625" lon="6.18503">
        <ele>1091</ele>
        <time>2010-10-09T08:40:39Z</time>
      </trkpt>
      <trkpt lat="45.63623" lon="6.18501">
        <ele>1091</ele>
        <time>2010-10-09T08:40:42Z</time>
      </trkpt>
      <trkpt lat="45.63621" lon="6.18499">
        <ele>1109</ele>
        <time>2010-10-09T08:40:44Z</time>
      </trkpt>
      <trkpt lat="45.6362" lon="6.18498">
        <ele>1109</ele>
        <time>2010-10-09T08:40:45Z</time>
      </trkpt>
      <trkpt lat="45.63617" lon="6.18495">
        <ele>1109</ele>
        <time>2010-10-09T08:40:48Z</time>
      </trkpt>
      <trkpt lat="45.63614" lon="6.18493">
        <ele>1108</ele>
        <time>2010-10-09T08:40:50Z</time>
      </trkpt>
      <trkpt lat="45.63612" lon="6.18491">
        <ele>1108</ele>
        <time>2010-10-09T08:40:52Z</time>
      </trkpt>
      <trkpt lat="45.63611" lon="6.18489">
        <ele>1108</ele>
        <time>2010-10-09T08:40:54Z</time>
      </trkpt>
      <trkpt lat="45.63609" lon="6.18488">
        <ele>1108</ele>
        <time>2010-10-09T08:40:56Z</time>
      </trkpt>
      <trkpt lat="45.63606" lon="6.18487">
        <ele>1107</ele>
        <time>2010-10-09T08:41:00Z</time>
      </trkpt>
      <trkpt lat="45.63603" lon="6.18486">
        <ele>1107</ele>
        <time>2010-10-09T08:41:01Z</time>
      </trkpt>
      <trkpt lat="45.63601" lon="6.18484">
        <ele>1107</ele>
        <time>2010-10-09T08:41:03Z</time>
      </trkpt>
      <trkpt lat="45.63599" lon="6.18483">
        <ele>1107</ele>
        <time>2010-10-09T08:41:05Z</time>
      </trkpt>
      <trkpt lat="45.63597" lon="6.18482">
        <ele>1106</ele>
        <time>2010-10-09T08:41:09Z</time>
      </trkpt>
      <trkpt lat="45.63595" lon="6.1848">
        <ele>1107</ele>
        <time>2010-10-09T08:41:11Z</time>
      </trkpt>
      <trkpt lat="45.63593" lon="6.18477">
        <ele>1107</ele>
        <time>2010-10-09T08:41:13Z</time>
      </trkpt>
      <trkpt lat="45.63591" lon="6.18476">
        <ele>1107</ele>
        <time>2010-10-09T08:41:14Z</time>
      </trkpt>
      <trkpt lat="45.63589" lon="6.18475">
        <ele>1108</ele>
        <time>2010-10-09T08:41:17Z</time>
      </trkpt>
      <trkpt lat="45.63587" lon="6.18474">
        <ele>1108</ele>
        <time>2010-10-09T08:41:18Z</time>
      </trkpt>
      <trkpt lat="45.63586" lon="6.18473">
        <ele>1108</ele>
        <time>2010-10-09T08:41:20Z</time>
      </trkpt>
      <trkpt lat="45.63583" lon="6.18471">
        <ele>1110</ele>
        <time>2010-10-09T08:41:21Z</time>
      </trkpt>
      <trkpt lat="45.63581" lon="6.1847">
        <ele>1111</ele>
        <time>2010-10-09T08:41:22Z</time>
      </trkpt>
      <trkpt lat="45.6358" lon="6.18468">
        <ele>1111</ele>
        <time>2010-10-09T08:41:23Z</time>
      </trkpt>
      <trkpt lat="45.63579" lon="6.18467">
        <ele>1112</ele>
        <time>2010-10-09T08:41:24Z</time>
      </trkpt>
      <trkpt lat="45.63578" lon="6.18466">
        <ele>1112</ele>
        <time>2010-10-09T08:41:25Z</time>
      </trkpt>
      <trkpt lat="45.63577" lon="6.18464">
        <ele>1113</ele>
        <time>2010-10-09T08:41:26Z</time>
      </trkpt>
      <trkpt lat="45.63575" lon="6.18462">
        <ele>1114</ele>
        <time>2010-10-09T08:41:28Z</time>
      </trkpt>
      <trkpt lat="45.63573" lon="6.1846">
        <ele>1114</ele>
        <time>2010-10-09T08:41:29Z</time>
      </trkpt>
      <trkpt lat="45.63572" lon="6.18459">
        <ele>1114</ele>
        <time>2010-10-09T08:41:30Z</time>
      </trkpt>
      <trkpt lat="45.63571" lon="6.18457">
        <ele>1115</ele>
        <time>2010-10-09T08:41:31Z</time>
      </trkpt>
      <trkpt lat="45.6357" lon="6.18456">
        <ele>1115</ele>
        <time>2010-10-09T08:41:32Z</time>
      </trkpt>
      <trkpt lat="45.63569" lon="6.18455">
        <ele>1116</ele>
        <time>2010-10-09T08:41:34Z</time>
      </trkpt>
      <trkpt lat="45.63566" lon="6.18452">
        <ele>1116</ele>
        <time>2010-10-09T08:41:35Z</time>
      </trkpt>
      <trkpt lat="45.63564" lon="6.18451">
        <ele>1117</ele>
        <time>2010-10-09T08:41:36Z</time>
      </trkpt>
      <trkpt lat="45.63563" lon="6.18448">
        <ele>1117</ele>
        <time>2010-10-09T08:41:38Z</time>
      </trkpt>
      <trkpt lat="45.63562" lon="6.18447">
        <ele>1117</ele>
        <time>2010-10-09T08:41:39Z</time>
      </trkpt>
      <trkpt lat="45.6356" lon="6.18446">
        <ele>1118</ele>
        <time>2010-10-09T08:41:40Z</time>
      </trkpt>
      <trkpt lat="45.63558" lon="6.18445">
        <ele>1118</ele>
        <time>2010-10-09T08:41:42Z</time>
      </trkpt>
      <trkpt lat="45.63555" lon="6.18443">
        <ele>1118</ele>
        <time>2010-10-09T08:41:43Z</time>
      </trkpt>
      <trkpt lat="45.63554" lon="6.18443">
        <ele>1118</ele>
        <time>2010-10-09T08:41:44Z</time>
      </trkpt>
      <trkpt lat="45.63552" lon="6.18442">
        <ele>1119</ele>
        <time>2010-10-09T08:41:45Z</time>
      </trkpt>
      <trkpt lat="45.6355" lon="6.18442">
        <ele>1119</ele>
        <time>2010-10-09T08:41:46Z</time>
      </trkpt>
      <trkpt lat="45.63549" lon="6.18441">
        <ele>1119</ele>
        <time>2010-10-09T08:41:47Z</time>
      </trkpt>
      <trkpt lat="45.63547" lon="6.18441">
        <ele>1119</ele>
        <time>2010-10-09T08:41:48Z</time>
      </trkpt>
      <trkpt lat="45.63546" lon="6.18441">
        <ele>1119</ele>
        <time>2010-10-09T08:41:49Z</time>
      </trkpt>
      <trkpt lat="45.63544" lon="6.1844">
        <ele>1120</ele>
        <time>2010-10-09T08:41:51Z</time>
      </trkpt>
      <trkpt lat="45.63542" lon="6.18442">
        <ele>1120</ele>
        <time>2010-10-09T08:41:55Z</time>
      </trkpt>
      <trkpt lat="45.63543" lon="6.18444">
        <ele>1119</ele>
        <time>2010-10-09T08:41:56Z</time>
      </trkpt>
      <trkpt lat="45.63542" lon="6.18448">
        <ele>1119</ele>
        <time>2010-10-09T08:41:59Z</time>
      </trkpt>
      <trkpt lat="45.63541" lon="6.1845">
        <ele>1119</ele>
        <time>2010-10-09T08:42:02Z</time>
      </trkpt>
      <trkpt lat="45.63538" lon="6.18451">
        <ele>1119</ele>
        <time>2010-10-09T08:42:03Z</time>
      </trkpt>
      <trkpt lat="45.63536" lon="6.18451">
        <ele>1120</ele>
        <time>2010-10-09T08:42:04Z</time>
      </trkpt>
      <trkpt lat="45.63533" lon="6.18451">
        <ele>1120</ele>
        <time>2010-10-09T08:42:05Z</time>
      </trkpt>
      <trkpt lat="45.6353" lon="6.18449">
        <ele>1120</ele>
        <time>2010-10-09T08:42:06Z</time>
      </trkpt>
      <trkpt lat="45.63528" lon="6.18448">
        <ele>1121</ele>
        <time>2010-10-09T08:42:08Z</time>
      </trkpt>
      <trkpt lat="45.63527" lon="6.18446">
        <ele>1121</ele>
        <time>2010-10-09T08:42:09Z</time>
      </trkpt>
      <trkpt lat="45.63526" lon="6.18444">
        <ele>1122</ele>
        <time>2010-10-09T08:42:10Z</time>
      </trkpt>
      <trkpt lat="45.63524" lon="6.18441">
        <ele>1122</ele>
        <time>2010-10-09T08:42:12Z</time>
      </trkpt>
      <trkpt lat="45.63523" lon="6.18437">
        <ele>1123</ele>
        <time>2010-10-09T08:42:13Z</time>
      </trkpt>
      <trkpt lat="45.63523" lon="6.18436">
        <ele>1123</ele>
        <time>2010-10-09T08:42:14Z</time>
      </trkpt>
      <trkpt lat="45.63525" lon="6.18433">
        <ele>1123</ele>
        <time>2010-10-09T08:42:16Z</time>
      </trkpt>
      <trkpt lat="45.63527" lon="6.18431">
        <ele>1123</ele>
        <time>2010-10-09T08:42:19Z</time>
      </trkpt>
      <trkpt lat="45.63529" lon="6.18428">
        <ele>1123</ele>
        <time>2010-10-09T08:42:20Z</time>
      </trkpt>
      <trkpt lat="45.63531" lon="6.18426">
        <ele>1123</ele>
        <time>2010-10-09T08:42:22Z</time>
      </trkpt>
      <trkpt lat="45.63533" lon="6.18425">
        <ele>1123</ele>
        <time>2010-10-09T08:42:24Z</time>
      </trkpt>
      <trkpt lat="45.63533" lon="6.18423">
        <ele>1123</ele>
        <time>2010-10-09T08:42:26Z</time>
      </trkpt>
      <trkpt lat="45.63535" lon="6.18423">
        <ele>1122</ele>
        <time>2010-10-09T08:42:29Z</time>
      </trkpt>
      <trkpt lat="45.63537" lon="6.18422">
        <ele>1122</ele>
        <time>2010-10-09T08:42:31Z</time>
      </trkpt>
      <trkpt lat="45.6354" lon="6.18421">
        <ele>1122</ele>
        <time>2010-10-09T08:42:32Z</time>
      </trkpt>
      <trkpt lat="45.63541" lon="6.18419">
        <ele>1122</ele>
        <time>2010-10-09T08:42:33Z</time>
      </trkpt>
      <trkpt lat="45.63543" lon="6.18419">
        <ele>1121</ele>
        <time>2010-10-09T08:42:34Z</time>
      </trkpt>
      <trkpt lat="45.63545" lon="6.18418">
        <ele>1121</ele>
        <time>2010-10-09T08:42:36Z</time>
      </trkpt>
      <trkpt lat="45.63549" lon="6.18417">
        <ele>1121</ele>
        <time>2010-10-09T08:42:39Z</time>
      </trkpt>
      <trkpt lat="45.6355" lon="6.18418">
        <ele>1121</ele>
        <time>2010-10-09T08:42:41Z</time>
      </trkpt>
      <trkpt lat="45.63552" lon="6.18418">
        <ele>1120</ele>
        <time>2010-10-09T08:42:45Z</time>
      </trkpt>
      <trkpt lat="45.63556" lon="6.18418">
        <ele>1120</ele>
        <time>2010-10-09T08:42:47Z</time>
      </trkpt>
      <trkpt lat="45.63558" lon="6.18417">
        <ele>1120</ele>
        <time>2010-10-09T08:42:48Z</time>
      </trkpt>
      <trkpt lat="45.63561" lon="6.18417">
        <ele>1120</ele>
        <time>2010-10-09T08:42:49Z</time>
      </trkpt>
      <trkpt lat="45.63562" lon="6.18417">
        <ele>1120</ele>
        <time>2010-10-09T08:42:51Z</time>
      </trkpt>
      <trkpt lat="45.63564" lon="6.18419">
        <ele>1120</ele>
        <time>2010-10-09T08:42:52Z</time>
      </trkpt>
      <trkpt lat="45.63565" lon="6.18421">
        <ele>1120</ele>
        <time>2010-10-09T08:42:53Z</time>
      </trkpt>
      <trkpt lat="45.63567" lon="6.18422">
        <ele>1120</ele>
        <time>2010-10-09T08:42:55Z</time>
      </trkpt>
      <trkpt lat="45.63568" lon="6.18425">
        <ele>1119</ele>
        <time>2010-10-09T08:42:57Z</time>
      </trkpt>
      <trkpt lat="45.6357" lon="6.18426">
        <ele>1119</ele>
        <time>2010-10-09T08:42:59Z</time>
      </trkpt>
      <trkpt lat="45.63572" lon="6.18427">
        <ele>1119</ele>
        <time>2010-10-09T08:43:00Z</time>
      </trkpt>
      <trkpt lat="45.63573" lon="6.18428">
        <ele>1119</ele>
        <time>2010-10-09T08:43:01Z</time>
      </trkpt>
      <trkpt lat="45.63575" lon="6.18428">
        <ele>1119</ele>
        <time>2010-10-09T08:43:02Z</time>
      </trkpt>
      <trkpt lat="45.63577" lon="6.18431">
        <ele>1119</ele>
        <time>2010-10-09T08:43:04Z</time>
      </trkpt>
      <trkpt lat="45.63578" lon="6.18432">
        <ele>1119</ele>
        <time>2010-10-09T08:43:05Z</time>
      </trkpt>
      <trkpt lat="45.63579" lon="6.18432">
        <ele>1119</ele>
        <time>2010-10-09T08:43:06Z</time>
      </trkpt>
      <trkpt lat="45.6358" lon="6.18434">
        <ele>1119</ele>
        <time>2010-10-09T08:43:08Z</time>
      </trkpt>
      <trkpt lat="45.63583" lon="6.18437">
        <ele>1118</ele>
        <time>2010-10-09T08:43:09Z</time>
      </trkpt>
      <trkpt lat="45.63585" lon="6.18438">
        <ele>1117</ele>
        <time>2010-10-09T08:43:10Z</time>
      </trkpt>
      <trkpt lat="45.63586" lon="6.18439">
        <ele>1117</ele>
        <time>2010-10-09T08:43:11Z</time>
      </trkpt>
      <trkpt lat="45.63587" lon="6.18441">
        <ele>1116</ele>
        <time>2010-10-09T08:43:12Z</time>
      </trkpt>
      <trkpt lat="45.6359" lon="6.18442">
        <ele>1116</ele>
        <time>2010-10-09T08:43:15Z</time>
      </trkpt>
      <trkpt lat="45.63594" lon="6.18444">
        <ele>1116</ele>
        <time>2010-10-09T08:43:16Z</time>
      </trkpt>
      <trkpt lat="45.63599" lon="6.18446">
        <ele>1116</ele>
        <time>2010-10-09T08:43:18Z</time>
      </trkpt>
      <trkpt lat="45.63601" lon="6.18447">
        <ele>1116</ele>
        <time>2010-10-09T08:43:19Z</time>
      </trkpt>
      <trkpt lat="45.63603" lon="6.18447">
        <ele>1116</ele>
        <time>2010-10-09T08:43:21Z</time>
      </trkpt>
      <trkpt lat="45.63604" lon="6.18448">
        <ele>1115</ele>
        <time>2010-10-09T08:43:22Z</time>
      </trkpt>
      <trkpt lat="45.63608" lon="6.18449">
        <ele>1116</ele>
        <time>2010-10-09T08:43:23Z</time>
      </trkpt>
      <trkpt lat="45.63613" lon="6.18449">
        <ele>1116</ele>
        <time>2010-10-09T08:43:25Z</time>
      </trkpt>
      <trkpt lat="45.63615" lon="6.18449">
        <ele>1116</ele>
        <time>2010-10-09T08:43:26Z</time>
      </trkpt>
      <trkpt lat="45.6362" lon="6.18449">
        <ele>1117</ele>
        <time>2010-10-09T08:43:28Z</time>
      </trkpt>
      <trkpt lat="45.63622" lon="6.18449">
        <ele>1117</ele>
        <time>2010-10-09T08:43:29Z</time>
      </trkpt>
      <trkpt lat="45.63624" lon="6.18449">
        <ele>1117</ele>
        <time>2010-10-09T08:43:30Z</time>
      </trkpt>
      <trkpt lat="45.63626" lon="6.18449">
        <ele>1117</ele>
        <time>2010-10-09T08:43:31Z</time>
      </trkpt>
      <trkpt lat="45.6363" lon="6.18449">
        <ele>1118</ele>
        <time>2010-10-09T08:43:33Z</time>
      </trkpt>
      <trkpt lat="45.63632" lon="6.18449">
        <ele>1118</ele>
        <time>2010-10-09T08:43:34Z</time>
      </trkpt>
      <trkpt lat="45.63633" lon="6.18449">
        <ele>1118</ele>
        <time>2010-10-09T08:43:35Z</time>
      </trkpt>
      <trkpt lat="45.63634" lon="6.18449">
        <ele>1118</ele>
        <time>2010-10-09T08:43:36Z</time>
      </trkpt>
      <trkpt lat="45.63638" lon="6.18449">
        <ele>1119</ele>
        <time>2010-10-09T08:43:38Z</time>
      </trkpt>
      <trkpt lat="45.63639" lon="6.1845">
        <ele>1119</ele>
        <time>2010-10-09T08:43:39Z</time>
      </trkpt>
      <trkpt lat="45.63641" lon="6.1845">
        <ele>1119</ele>
        <time>2010-10-09T08:43:40Z</time>
      </trkpt>
      <trkpt lat="45.63642" lon="6.18452">
        <ele>1119</ele>
        <time>2010-10-09T08:43:42Z</time>
      </trkpt>
      <trkpt lat="45.63644" lon="6.18453">
        <ele>1119</ele>
        <time>2010-10-09T08:43:43Z</time>
      </trkpt>
      <trkpt lat="45.63647" lon="6.18454">
        <ele>1119</ele>
        <time>2010-10-09T08:43:45Z</time>
      </trkpt>
      <trkpt lat="45.6365" lon="6.18455">
        <ele>1119</ele>
        <time>2010-10-09T08:43:46Z</time>
      </trkpt>
      <trkpt lat="45.63652" lon="6.18456">
        <ele>1119</ele>
        <time>2010-10-09T08:43:48Z</time>
      </trkpt>
      <trkpt lat="45.63656" lon="6.18461">
        <ele>1118</ele>
        <time>2010-10-09T08:43:50Z</time>
      </trkpt>
      <trkpt lat="45.63657" lon="6.18463">
        <ele>1117</ele>
        <time>2010-10-09T08:43:51Z</time>
      </trkpt>
      <trkpt lat="45.6366" lon="6.18466">
        <ele>1117</ele>
        <time>2010-10-09T08:43:53Z</time>
      </trkpt>
      <trkpt lat="45.63661" lon="6.18467">
        <ele>1116</ele>
        <time>2010-10-09T08:43:54Z</time>
      </trkpt>
      <trkpt lat="45.63661" lon="6.18469">
        <ele>1116</ele>
        <time>2010-10-09T08:43:55Z</time>
      </trkpt>
      <trkpt lat="45.63662" lon="6.18471">
        <ele>1115</ele>
        <time>2010-10-09T08:43:56Z</time>
      </trkpt>
      <trkpt lat="45.63662" lon="6.18472">
        <ele>1115</ele>
        <time>2010-10-09T08:43:58Z</time>
      </trkpt>
      <trkpt lat="45.63665" lon="6.18476">
        <ele>1114</ele>
        <time>2010-10-09T08:43:59Z</time>
      </trkpt>
      <trkpt lat="45.63665" lon="6.18479">
        <ele>1114</ele>
        <time>2010-10-09T08:44:00Z</time>
      </trkpt>
      <trkpt lat="45.63666" lon="6.18481">
        <ele>1113</ele>
        <time>2010-10-09T08:44:01Z</time>
      </trkpt>
      <trkpt lat="45.63668" lon="6.18486">
        <ele>1116</ele>
        <time>2010-10-09T08:44:03Z</time>
      </trkpt>
      <trkpt lat="45.6367" lon="6.18488">
        <ele>1115</ele>
        <time>2010-10-09T08:44:05Z</time>
      </trkpt>
      <trkpt lat="45.63674" lon="6.1849">
        <ele>1115</ele>
        <time>2010-10-09T08:44:06Z</time>
      </trkpt>
      <trkpt lat="45.63676" lon="6.1849">
        <ele>1115</ele>
        <time>2010-10-09T08:44:07Z</time>
      </trkpt>
      <trkpt lat="45.63678" lon="6.18491">
        <ele>1116</ele>
        <time>2010-10-09T08:44:08Z</time>
      </trkpt>
      <trkpt lat="45.6368" lon="6.18492">
        <ele>1116</ele>
        <time>2010-10-09T08:44:09Z</time>
      </trkpt>
      <trkpt lat="45.63681" lon="6.18493">
        <ele>1116</ele>
        <time>2010-10-09T08:44:10Z</time>
      </trkpt>
      <trkpt lat="45.63683" lon="6.18494">
        <ele>1117</ele>
        <time>2010-10-09T08:44:11Z</time>
      </trkpt>
      <trkpt lat="45.63687" lon="6.18495">
        <ele>1117</ele>
        <time>2010-10-09T08:44:13Z</time>
      </trkpt>
      <trkpt lat="45.63689" lon="6.18496">
        <ele>1118</ele>
        <time>2010-10-09T08:44:14Z</time>
      </trkpt>
      <trkpt lat="45.63691" lon="6.18499">
        <ele>1118</ele>
        <time>2010-10-09T08:44:17Z</time>
      </trkpt>
      <trkpt lat="45.63693" lon="6.18501">
        <ele>1100</ele>
        <time>2010-10-09T08:44:19Z</time>
      </trkpt>
      <trkpt lat="45.63694" lon="6.18502">
        <ele>1100</ele>
        <time>2010-10-09T08:44:20Z</time>
      </trkpt>
      <trkpt lat="45.63698" lon="6.18505">
        <ele>1099</ele>
        <time>2010-10-09T08:44:21Z</time>
      </trkpt>
      <trkpt lat="45.63702" lon="6.18506">
        <ele>1099</ele>
        <time>2010-10-09T08:44:24Z</time>
      </trkpt>
      <trkpt lat="45.63704" lon="6.18507">
        <ele>1099</ele>
        <time>2010-10-09T08:44:25Z</time>
      </trkpt>
      <trkpt lat="45.63705" lon="6.18507">
        <ele>1099</ele>
        <time>2010-10-09T08:44:26Z</time>
      </trkpt>
      <trkpt lat="45.63709" lon="6.18507">
        <ele>1099</ele>
        <time>2010-10-09T08:44:27Z</time>
      </trkpt>
      <trkpt lat="45.63711" lon="6.18506">
        <ele>1099</ele>
        <time>2010-10-09T08:44:29Z</time>
      </trkpt>
      <trkpt lat="45.63712" lon="6.18505">
        <ele>1099</ele>
        <time>2010-10-09T08:44:30Z</time>
      </trkpt>
      <trkpt lat="45.63714" lon="6.18504">
        <ele>1099</ele>
        <time>2010-10-09T08:44:31Z</time>
      </trkpt>
      <trkpt lat="45.63715" lon="6.18501">
        <ele>1100</ele>
        <time>2010-10-09T08:44:32Z</time>
      </trkpt>
      <trkpt lat="45.63715" lon="6.18497">
        <ele>1120</ele>
        <time>2010-10-09T08:44:35Z</time>
      </trkpt>
      <trkpt lat="45.63715" lon="6.18493">
        <ele>1120</ele>
        <time>2010-10-09T08:44:36Z</time>
      </trkpt>
      <trkpt lat="45.63713" lon="6.1849">
        <ele>1121</ele>
        <time>2010-10-09T08:44:39Z</time>
      </trkpt>
      <trkpt lat="45.6371" lon="6.18486">
        <ele>1121</ele>
        <time>2010-10-09T08:44:42Z</time>
      </trkpt>
      <trkpt lat="45.63707" lon="6.18484">
        <ele>1121</ele>
        <time>2010-10-09T08:44:43Z</time>
      </trkpt>
      <trkpt lat="45.63706" lon="6.18484">
        <ele>1121</ele>
        <time>2010-10-09T08:44:44Z</time>
      </trkpt>
      <trkpt lat="45.63704" lon="6.18484">
        <ele>1121</ele>
        <time>2010-10-09T08:44:46Z</time>
      </trkpt>
      <trkpt lat="45.63702" lon="6.18484">
        <ele>1121</ele>
        <time>2010-10-09T08:44:47Z</time>
      </trkpt>
      <trkpt lat="45.63699" lon="6.18484">
        <ele>1121</ele>
        <time>2010-10-09T08:44:48Z</time>
      </trkpt>
      <trkpt lat="45.63697" lon="6.18484">
        <ele>1121</ele>
        <time>2010-10-09T08:44:49Z</time>
      </trkpt>
      <trkpt lat="45.63696" lon="6.18485">
        <ele>1120</ele>
        <time>2010-10-09T08:44:50Z</time>
      </trkpt>
      <trkpt lat="45.63694" lon="6.18485">
        <ele>1120</ele>
        <time>2010-10-09T08:44:51Z</time>
      </trkpt>
      <trkpt lat="45.63691" lon="6.18486">
        <ele>1120</ele>
        <time>2010-10-09T08:44:53Z</time>
      </trkpt>
      <trkpt lat="45.6369" lon="6.18485">
        <ele>1120</ele>
        <time>2010-10-09T08:44:54Z</time>
      </trkpt>
      <trkpt lat="45.63688" lon="6.18485">
        <ele>1119</ele>
        <time>2010-10-09T08:44:55Z</time>
      </trkpt>
      <trkpt lat="45.63686" lon="6.18484">
        <ele>1119</ele>
        <time>2010-10-09T08:44:56Z</time>
      </trkpt>
      <trkpt lat="45.63683" lon="6.18483">
        <ele>1119</ele>
        <time>2010-10-09T08:44:58Z</time>
      </trkpt>
      <trkpt lat="45.63681" lon="6.18482">
        <ele>1119</ele>
        <time>2010-10-09T08:44:59Z</time>
      </trkpt>
      <trkpt lat="45.6368" lon="6.18481">
        <ele>1119</ele>
        <time>2010-10-09T08:45:00Z</time>
      </trkpt>
      <trkpt lat="45.63678" lon="6.1848">
        <ele>1119</ele>
        <time>2010-10-09T08:45:01Z</time>
      </trkpt>
      <trkpt lat="45.63677" lon="6.18479">
        <ele>1119</ele>
        <time>2010-10-09T08:45:03Z</time>
      </trkpt>
      <trkpt lat="45.63676" lon="6.18477">
        <ele>1120</ele>
        <time>2010-10-09T08:45:04Z</time>
      </trkpt>
      <trkpt lat="45.63673" lon="6.18474">
        <ele>1121</ele>
        <time>2010-10-09T08:45:06Z</time>
      </trkpt>
      <trkpt lat="45.6367" lon="6.18471">
        <ele>1121</ele>
        <time>2010-10-09T08:45:07Z</time>
      </trkpt>
      <trkpt lat="45.63668" lon="6.18469">
        <ele>1122</ele>
        <time>2010-10-09T08:45:08Z</time>
      </trkpt>
      <trkpt lat="45.63667" lon="6.18468">
        <ele>1123</ele>
        <time>2010-10-09T08:45:10Z</time>
      </trkpt>
      <trkpt lat="45.63665" lon="6.18464">
        <ele>1117</ele>
        <time>2010-10-09T08:45:11Z</time>
      </trkpt>
      <trkpt lat="45.63663" lon="6.18463">
        <ele>1117</ele>
        <time>2010-10-09T08:45:12Z</time>
      </trkpt>
      <trkpt lat="45.63661" lon="6.18462">
        <ele>1118</ele>
        <time>2010-10-09T08:45:13Z</time>
      </trkpt>
      <trkpt lat="45.6366" lon="6.1846">
        <ele>1118</ele>
        <time>2010-10-09T08:45:14Z</time>
      </trkpt>
      <trkpt lat="45.63658" lon="6.18459">
        <ele>1118</ele>
        <time>2010-10-09T08:45:15Z</time>
      </trkpt>
      <trkpt lat="45.63656" lon="6.18457">
        <ele>1119</ele>
        <time>2010-10-09T08:45:16Z</time>
      </trkpt>
      <trkpt lat="45.63652" lon="6.18454">
        <ele>1119</ele>
        <time>2010-10-09T08:45:18Z</time>
      </trkpt>
      <trkpt lat="45.63651" lon="6.18451">
        <ele>1120</ele>
        <time>2010-10-09T08:45:19Z</time>
      </trkpt>
      <trkpt lat="45.63649" lon="6.18449">
        <ele>1120</ele>
        <time>2010-10-09T08:45:20Z</time>
      </trkpt>
      <trkpt lat="45.63647" lon="6.18448">
        <ele>1120</ele>
        <time>2010-10-09T08:45:21Z</time>
      </trkpt>
      <trkpt lat="45.63646" lon="6.18448">
        <ele>1120</ele>
        <time>2010-10-09T08:45:23Z</time>
      </trkpt>
      <trkpt lat="45.63644" lon="6.18447">
        <ele>1120</ele>
        <time>2010-10-09T08:45:24Z</time>
      </trkpt>
      <trkpt lat="45.63641" lon="6.18443">
        <ele>1120</ele>
        <time>2010-10-09T08:45:25Z</time>
      </trkpt>
      <trkpt lat="45.63637" lon="6.18441">
        <ele>1120</ele>
        <time>2010-10-09T08:45:27Z</time>
      </trkpt>
      <trkpt lat="45.63635" lon="6.1844">
        <ele>1120</ele>
        <time>2010-10-09T08:45:28Z</time>
      </trkpt>
      <trkpt lat="45.63633" lon="6.18439">
        <ele>1120</ele>
        <time>2010-10-09T08:45:29Z</time>
      </trkpt>
      <trkpt lat="45.63632" lon="6.18438">
        <ele>1120</ele>
        <time>2010-10-09T08:45:30Z</time>
      </trkpt>
      <trkpt lat="45.6363" lon="6.18438">
        <ele>1120</ele>
        <time>2010-10-09T08:45:31Z</time>
      </trkpt>
      <trkpt lat="45.63626" lon="6.18437">
        <ele>1119</ele>
        <time>2010-10-09T08:45:33Z</time>
      </trkpt>
      <trkpt lat="45.63625" lon="6.18436">
        <ele>1119</ele>
        <time>2010-10-09T08:45:34Z</time>
      </trkpt>
      <trkpt lat="45.63623" lon="6.18436">
        <ele>1119</ele>
        <time>2010-10-09T08:45:35Z</time>
      </trkpt>
      <trkpt lat="45.63622" lon="6.18435">
        <ele>1119</ele>
        <time>2010-10-09T08:45:36Z</time>
      </trkpt>
      <trkpt lat="45.63619" lon="6.18433">
        <ele>1119</ele>
        <time>2010-10-09T08:45:38Z</time>
      </trkpt>
      <trkpt lat="45.63617" lon="6.18432">
        <ele>1119</ele>
        <time>2010-10-09T08:45:39Z</time>
      </trkpt>
      <trkpt lat="45.63615" lon="6.1843">
        <ele>1119</ele>
        <time>2010-10-09T08:45:40Z</time>
      </trkpt>
      <trkpt lat="45.63613" lon="6.18429">
        <ele>1119</ele>
        <time>2010-10-09T08:45:41Z</time>
      </trkpt>
      <trkpt lat="45.6361" lon="6.18426">
        <ele>1119</ele>
        <time>2010-10-09T08:45:43Z</time>
      </trkpt>
      <trkpt lat="45.63608" lon="6.18424">
        <ele>1119</ele>
        <time>2010-10-09T08:45:44Z</time>
      </trkpt>
      <trkpt lat="45.63607" lon="6.18422">
        <ele>1119</ele>
        <time>2010-10-09T08:45:45Z</time>
      </trkpt>
      <trkpt lat="45.63606" lon="6.1842">
        <ele>1119</ele>
        <time>2010-10-09T08:45:47Z</time>
      </trkpt>
      <trkpt lat="45.63605" lon="6.18417">
        <ele>1119</ele>
        <time>2010-10-09T08:45:48Z</time>
      </trkpt>
      <trkpt lat="45.63603" lon="6.18411">
        <ele>1133</ele>
        <time>2010-10-09T08:45:49Z</time>
      </trkpt>
      <trkpt lat="45.63601" lon="6.18409">
        <ele>1133</ele>
        <time>2010-10-09T08:45:50Z</time>
      </trkpt>
      <trkpt lat="45.636" lon="6.18407">
        <ele>1133</ele>
        <time>2010-10-09T08:45:51Z</time>
      </trkpt>
      <trkpt lat="45.63598" lon="6.18402">
        <ele>1133</ele>
        <time>2010-10-09T08:45:53Z</time>
      </trkpt>
      <trkpt lat="45.63596" lon="6.18401">
        <ele>1133</ele>
        <time>2010-10-09T08:45:54Z</time>
      </trkpt>
      <trkpt lat="45.63595" lon="6.18399">
        <ele>1134</ele>
        <time>2010-10-09T08:45:55Z</time>
      </trkpt>
      <trkpt lat="45.63593" lon="6.18398">
        <ele>1134</ele>
        <time>2010-10-09T08:45:57Z</time>
      </trkpt>
      <trkpt lat="45.6359" lon="6.18394">
        <ele>1135</ele>
        <time>2010-10-09T08:45:59Z</time>
      </trkpt>
      <trkpt lat="45.63588" lon="6.18391">
        <ele>1135</ele>
        <time>2010-10-09T08:46:00Z</time>
      </trkpt>
      <trkpt lat="45.63586" lon="6.18389">
        <ele>1136</ele>
        <time>2010-10-09T08:46:01Z</time>
      </trkpt>
      <trkpt lat="45.63584" lon="6.18385">
        <ele>1137</ele>
        <time>2010-10-09T08:46:03Z</time>
      </trkpt>
      <trkpt lat="45.63583" lon="6.18383">
        <ele>1135</ele>
        <time>2010-10-09T08:46:04Z</time>
      </trkpt>
      <trkpt lat="45.63581" lon="6.18382">
        <ele>1135</ele>
        <time>2010-10-09T08:46:05Z</time>
      </trkpt>
      <trkpt lat="45.63579" lon="6.1838">
        <ele>1136</ele>
        <time>2010-10-09T08:46:06Z</time>
      </trkpt>
      <trkpt lat="45.63576" lon="6.18378">
        <ele>1136</ele>
        <time>2010-10-09T08:46:08Z</time>
      </trkpt>
      <trkpt lat="45.63575" lon="6.18376">
        <ele>1137</ele>
        <time>2010-10-09T08:46:10Z</time>
      </trkpt>
      <trkpt lat="45.63572" lon="6.18372">
        <ele>1138</ele>
        <time>2010-10-09T08:46:11Z</time>
      </trkpt>
      <trkpt lat="45.6357" lon="6.18371">
        <ele>1138</ele>
        <time>2010-10-09T08:46:12Z</time>
      </trkpt>
      <trkpt lat="45.63568" lon="6.1837">
        <ele>1138</ele>
        <time>2010-10-09T08:46:13Z</time>
      </trkpt>
      <trkpt lat="45.63567" lon="6.18368">
        <ele>1139</ele>
        <time>2010-10-09T08:46:14Z</time>
      </trkpt>
      <trkpt lat="45.63565" lon="6.18367">
        <ele>1139</ele>
        <time>2010-10-09T08:46:15Z</time>
      </trkpt>
      <trkpt lat="45.63564" lon="6.18366">
        <ele>1139</ele>
        <time>2010-10-09T08:46:16Z</time>
      </trkpt>
      <trkpt lat="45.63562" lon="6.18364">
        <ele>1139</ele>
        <time>2010-10-09T08:46:17Z</time>
      </trkpt>
      <trkpt lat="45.6356" lon="6.18364">
        <ele>1139</ele>
        <time>2010-10-09T08:46:18Z</time>
      </trkpt>
      <trkpt lat="45.63557" lon="6.18363">
        <ele>1140</ele>
        <time>2010-10-09T08:46:20Z</time>
      </trkpt>
      <trkpt lat="45.63554" lon="6.18361">
        <ele>1140</ele>
        <time>2010-10-09T08:46:21Z</time>
      </trkpt>
      <trkpt lat="45.63551" lon="6.18359">
        <ele>1140</ele>
        <time>2010-10-09T08:46:24Z</time>
      </trkpt>
      <trkpt lat="45.63548" lon="6.18357">
        <ele>1141</ele>
        <time>2010-10-09T08:46:25Z</time>
      </trkpt>
      <trkpt lat="45.63546" lon="6.18356">
        <ele>1141</ele>
        <time>2010-10-09T08:46:26Z</time>
      </trkpt>
      <trkpt lat="45.63544" lon="6.18356">
        <ele>1141</ele>
        <time>2010-10-09T08:46:27Z</time>
      </trkpt>
      <trkpt lat="45.63543" lon="6.18355">
        <ele>1141</ele>
        <time>2010-10-09T08:46:28Z</time>
      </trkpt>
      <trkpt lat="45.6354" lon="6.18354">
        <ele>1142</ele>
        <time>2010-10-09T08:46:29Z</time>
      </trkpt>
      <trkpt lat="45.63538" lon="6.18354">
        <ele>1142</ele>
        <time>2010-10-09T08:46:30Z</time>
      </trkpt>
      <trkpt lat="45.63537" lon="6.18353">
        <ele>1142</ele>
        <time>2010-10-09T08:46:31Z</time>
      </trkpt>
      <trkpt lat="45.63534" lon="6.18353">
        <ele>1142</ele>
        <time>2010-10-09T08:46:33Z</time>
      </trkpt>
      <trkpt lat="45.63532" lon="6.18354">
        <ele>1142</ele>
        <time>2010-10-09T08:46:36Z</time>
      </trkpt>
      <trkpt lat="45.63528" lon="6.18354">
        <ele>1143</ele>
        <time>2010-10-09T08:46:37Z</time>
      </trkpt>
      <trkpt lat="45.63527" lon="6.18355">
        <ele>1143</ele>
        <time>2010-10-09T08:46:38Z</time>
      </trkpt>
      <trkpt lat="45.63525" lon="6.18357">
        <ele>1143</ele>
        <time>2010-10-09T08:46:40Z</time>
      </trkpt>
      <trkpt lat="45.63522" lon="6.18359">
        <ele>1143</ele>
        <time>2010-10-09T08:46:41Z</time>
      </trkpt>
      <trkpt lat="45.63521" lon="6.18362">
        <ele>1142</ele>
        <time>2010-10-09T08:46:43Z</time>
      </trkpt>
      <trkpt lat="45.63519" lon="6.18363">
        <ele>1142</ele>
        <time>2010-10-09T08:46:44Z</time>
      </trkpt>
      <trkpt lat="45.63518" lon="6.18366">
        <ele>1142</ele>
        <time>2010-10-09T08:46:46Z</time>
      </trkpt>
      <trkpt lat="45.63518" lon="6.18367">
        <ele>1141</ele>
        <time>2010-10-09T08:46:48Z</time>
      </trkpt>
      <trkpt lat="45.63516" lon="6.18371">
        <ele>1141</ele>
        <time>2010-10-09T08:46:49Z</time>
      </trkpt>
      <trkpt lat="45.63515" lon="6.18376">
        <ele>1140</ele>
        <time>2010-10-09T08:46:51Z</time>
      </trkpt>
      <trkpt lat="45.63513" lon="6.1838">
        <ele>1140</ele>
        <time>2010-10-09T08:46:53Z</time>
      </trkpt>
      <trkpt lat="45.63512" lon="6.18381">
        <ele>1139</ele>
        <time>2010-10-09T08:46:55Z</time>
      </trkpt>
      <trkpt lat="45.63508" lon="6.18387">
        <ele>1139</ele>
        <time>2010-10-09T08:46:57Z</time>
      </trkpt>
      <trkpt lat="45.63507" lon="6.18389">
        <ele>1138</ele>
        <time>2010-10-09T08:46:58Z</time>
      </trkpt>
      <trkpt lat="45.63506" lon="6.18391">
        <ele>1138</ele>
        <time>2010-10-09T08:46:59Z</time>
      </trkpt>
      <trkpt lat="45.63504" lon="6.18392">
        <ele>1138</ele>
        <time>2010-10-09T08:47:00Z</time>
      </trkpt>
      <trkpt lat="45.63503" lon="6.18395">
        <ele>1137</ele>
        <time>2010-10-09T08:47:02Z</time>
      </trkpt>
      <trkpt lat="45.63502" lon="6.18396">
        <ele>1137</ele>
        <time>2010-10-09T08:47:04Z</time>
      </trkpt>
      <trkpt lat="45.63501" lon="6.18398">
        <ele>1137</ele>
        <time>2010-10-09T08:47:05Z</time>
      </trkpt>
      <trkpt lat="45.635" lon="6.18401">
        <ele>1137</ele>
        <time>2010-10-09T08:47:06Z</time>
      </trkpt>
      <trkpt lat="45.63499" lon="6.18404">
        <ele>1148</ele>
        <time>2010-10-09T08:47:09Z</time>
      </trkpt>
      <trkpt lat="45.63498" lon="6.18406">
        <ele>1147</ele>
        <time>2010-10-09T08:47:10Z</time>
      </trkpt>
      <trkpt lat="45.63497" lon="6.18407">
        <ele>1146</ele>
        <time>2010-10-09T08:47:12Z</time>
      </trkpt>
      <trkpt lat="45.63493" lon="6.18413">
        <ele>1144</ele>
        <time>2010-10-09T08:47:14Z</time>
      </trkpt>
      <trkpt lat="45.63493" lon="6.18414">
        <ele>1144</ele>
        <time>2010-10-09T08:47:16Z</time>
      </trkpt>
      <trkpt lat="45.63492" lon="6.18418">
        <ele>1142</ele>
        <time>2010-10-09T08:47:17Z</time>
      </trkpt>
      <trkpt lat="45.63491" lon="6.1842">
        <ele>1143</ele>
        <time>2010-10-09T08:47:19Z</time>
      </trkpt>
      <trkpt lat="45.63492" lon="6.18424">
        <ele>1143</ele>
        <time>2010-10-09T08:47:22Z</time>
      </trkpt>
      <trkpt lat="45.63492" lon="6.18429">
        <ele>1145</ele>
        <time>2010-10-09T08:47:24Z</time>
      </trkpt>
      <trkpt lat="45.63493" lon="6.1843">
        <ele>1146</ele>
        <time>2010-10-09T08:47:25Z</time>
      </trkpt>
      <trkpt lat="45.63493" lon="6.18432">
        <ele>1146</ele>
        <time>2010-10-09T08:47:26Z</time>
      </trkpt>
      <trkpt lat="45.63494" lon="6.18434">
        <ele>1146</ele>
        <time>2010-10-09T08:47:27Z</time>
      </trkpt>
      <trkpt lat="45.63495" lon="6.18438">
        <ele>1147</ele>
        <time>2010-10-09T08:47:29Z</time>
      </trkpt>
      <trkpt lat="45.63496" lon="6.18442">
        <ele>1148</ele>
        <time>2010-10-09T08:47:31Z</time>
      </trkpt>
      <trkpt lat="45.63496" lon="6.18444">
        <ele>1149</ele>
        <time>2010-10-09T08:47:33Z</time>
      </trkpt>
      <trkpt lat="45.63496" lon="6.18446">
        <ele>1149</ele>
        <time>2010-10-09T08:47:34Z</time>
      </trkpt>
      <trkpt lat="45.63495" lon="6.18453">
        <ele>1149</ele>
        <time>2010-10-09T08:47:36Z</time>
      </trkpt>
      <trkpt lat="45.63494" lon="6.18457">
        <ele>1149</ele>
        <time>2010-10-09T08:47:38Z</time>
      </trkpt>
      <trkpt lat="45.63493" lon="6.18459">
        <ele>1149</ele>
        <time>2010-10-09T08:47:39Z</time>
      </trkpt>
      <trkpt lat="45.63492" lon="6.18461">
        <ele>1149</ele>
        <time>2010-10-09T08:47:40Z</time>
      </trkpt>
      <trkpt lat="45.63491" lon="6.18463">
        <ele>1149</ele>
        <time>2010-10-09T08:47:41Z</time>
      </trkpt>
      <trkpt lat="45.6349" lon="6.18468">
        <ele>1148</ele>
        <time>2010-10-09T08:47:43Z</time>
      </trkpt>
      <trkpt lat="45.6349" lon="6.1847">
        <ele>1148</ele>
        <time>2010-10-09T08:47:45Z</time>
      </trkpt>
      <trkpt lat="45.63491" lon="6.18473">
        <ele>1147</ele>
        <time>2010-10-09T08:47:46Z</time>
      </trkpt>
      <trkpt lat="45.6349" lon="6.18478">
        <ele>1145</ele>
        <time>2010-10-09T08:47:48Z</time>
      </trkpt>
      <trkpt lat="45.6349" lon="6.18483">
        <ele>1143</ele>
        <time>2010-10-09T08:47:50Z</time>
      </trkpt>
      <trkpt lat="45.63488" lon="6.18489">
        <ele>1141</ele>
        <time>2010-10-09T08:47:52Z</time>
      </trkpt>
      <trkpt lat="45.63485" lon="6.18495">
        <ele>1141</ele>
        <time>2010-10-09T08:47:53Z</time>
      </trkpt>
      <trkpt lat="45.63484" lon="6.18498">
        <ele>1142</ele>
        <time>2010-10-09T08:47:54Z</time>
      </trkpt>
      <trkpt lat="45.63483" lon="6.185">
        <ele>1142</ele>
        <time>2010-10-09T08:47:55Z</time>
      </trkpt>
      <trkpt lat="45.63483" lon="6.18502">
        <ele>1132</ele>
        <time>2010-10-09T08:47:56Z</time>
      </trkpt>
      <trkpt lat="45.63482" lon="6.18504">
        <ele>1133</ele>
        <time>2010-10-09T08:47:58Z</time>
      </trkpt>
      <trkpt lat="45.6348" lon="6.18508">
        <ele>1133</ele>
        <time>2010-10-09T08:47:59Z</time>
      </trkpt>
      <trkpt lat="45.63479" lon="6.18512">
        <ele>1134</ele>
        <time>2010-10-09T08:48:01Z</time>
      </trkpt>
      <trkpt lat="45.63478" lon="6.18514">
        <ele>1134</ele>
        <time>2010-10-09T08:48:03Z</time>
      </trkpt>
      <trkpt lat="45.63476" lon="6.18516">
        <ele>1135</ele>
        <time>2010-10-09T08:48:04Z</time>
      </trkpt>
      <trkpt lat="45.63472" lon="6.1852">
        <ele>1136</ele>
        <time>2010-10-09T08:48:06Z</time>
      </trkpt>
      <trkpt lat="45.63469" lon="6.18523">
        <ele>1137</ele>
        <time>2010-10-09T08:48:08Z</time>
      </trkpt>
      <trkpt lat="45.63467" lon="6.18525">
        <ele>1138</ele>
        <time>2010-10-09T08:48:09Z</time>
      </trkpt>
      <trkpt lat="45.63465" lon="6.18526">
        <ele>1138</ele>
        <time>2010-10-09T08:48:10Z</time>
      </trkpt>
      <trkpt lat="45.63463" lon="6.18527">
        <ele>1139</ele>
        <time>2010-10-09T08:48:11Z</time>
      </trkpt>
      <trkpt lat="45.63459" lon="6.18529">
        <ele>1140</ele>
        <time>2010-10-09T08:48:14Z</time>
      </trkpt>
      <trkpt lat="45.63458" lon="6.1853">
        <ele>1140</ele>
        <time>2010-10-09T08:48:15Z</time>
      </trkpt>
      <trkpt lat="45.63457" lon="6.18531">
        <ele>1140</ele>
        <time>2010-10-09T08:48:16Z</time>
      </trkpt>
      <trkpt lat="45.63454" lon="6.18532">
        <ele>1141</ele>
        <time>2010-10-09T08:48:18Z</time>
      </trkpt>
      <trkpt lat="45.63453" lon="6.18532">
        <ele>1141</ele>
        <time>2010-10-09T08:48:19Z</time>
      </trkpt>
      <trkpt lat="45.63451" lon="6.18532">
        <ele>1142</ele>
        <time>2010-10-09T08:48:20Z</time>
      </trkpt>
      <trkpt lat="45.63449" lon="6.18533">
        <ele>1142</ele>
        <time>2010-10-09T08:48:21Z</time>
      </trkpt>
      <trkpt lat="45.63446" lon="6.18533">
        <ele>1144</ele>
        <time>2010-10-09T08:48:23Z</time>
      </trkpt>
      <trkpt lat="45.63445" lon="6.18533">
        <ele>1144</ele>
        <time>2010-10-09T08:48:25Z</time>
      </trkpt>
      <trkpt lat="45.63443" lon="6.18532">
        <ele>1145</ele>
        <time>2010-10-09T08:48:26Z</time>
      </trkpt>
      <trkpt lat="45.63441" lon="6.18533">
        <ele>1145</ele>
        <time>2010-10-09T08:48:27Z</time>
      </trkpt>
      <trkpt lat="45.63438" lon="6.18535">
        <ele>1146</ele>
        <time>2010-10-09T08:48:30Z</time>
      </trkpt>
      <trkpt lat="45.63436" lon="6.18536">
        <ele>1146</ele>
        <time>2010-10-09T08:48:31Z</time>
      </trkpt>
      <trkpt lat="45.63432" lon="6.18538">
        <ele>1146</ele>
        <time>2010-10-09T08:48:32Z</time>
      </trkpt>
      <trkpt lat="45.63428" lon="6.18539">
        <ele>1146</ele>
        <time>2010-10-09T08:48:34Z</time>
      </trkpt>
      <trkpt lat="45.63426" lon="6.18542">
        <ele>1146</ele>
        <time>2010-10-09T08:48:36Z</time>
      </trkpt>
      <trkpt lat="45.63424" lon="6.18543">
        <ele>1146</ele>
        <time>2010-10-09T08:48:38Z</time>
      </trkpt>
      <trkpt lat="45.6342" lon="6.18547">
        <ele>1145</ele>
        <time>2010-10-09T08:48:39Z</time>
      </trkpt>
      <trkpt lat="45.63418" lon="6.18549">
        <ele>1145</ele>
        <time>2010-10-09T08:48:41Z</time>
      </trkpt>
      <trkpt lat="45.63417" lon="6.18551">
        <ele>1144</ele>
        <time>2010-10-09T08:48:42Z</time>
      </trkpt>
      <trkpt lat="45.63417" lon="6.18555">
        <ele>1143</ele>
        <time>2010-10-09T08:48:45Z</time>
      </trkpt>
      <trkpt lat="45.63414" lon="6.18557">
        <ele>1173</ele>
        <time>2010-10-09T08:48:47Z</time>
      </trkpt>
      <trkpt lat="45.63413" lon="6.18559">
        <ele>1172</ele>
        <time>2010-10-09T08:48:48Z</time>
      </trkpt>
      <trkpt lat="45.63411" lon="6.1856">
        <ele>1172</ele>
        <time>2010-10-09T08:48:49Z</time>
      </trkpt>
      <trkpt lat="45.63409" lon="6.18562">
        <ele>1171</ele>
        <time>2010-10-09T08:48:50Z</time>
      </trkpt>
      <trkpt lat="45.63407" lon="6.18563">
        <ele>1171</ele>
        <time>2010-10-09T08:48:52Z</time>
      </trkpt>
      <trkpt lat="45.63404" lon="6.18566">
        <ele>1171</ele>
        <time>2010-10-09T08:48:54Z</time>
      </trkpt>
      <trkpt lat="45.63402" lon="6.18566">
        <ele>1172</ele>
        <time>2010-10-09T08:48:55Z</time>
      </trkpt>
      <trkpt lat="45.63403" lon="6.18567">
        <ele>1171</ele>
        <time>2010-10-09T08:48:57Z</time>
      </trkpt>
      <trkpt lat="45.63403" lon="6.18569">
        <ele>1169</ele>
        <time>2010-10-09T08:48:58Z</time>
      </trkpt>
      <trkpt lat="45.63403" lon="6.18572">
        <ele>1167</ele>
        <time>2010-10-09T08:48:59Z</time>
      </trkpt>
      <trkpt lat="45.63403" lon="6.18574">
        <ele>1166</ele>
        <time>2010-10-09T08:49:01Z</time>
      </trkpt>
      <trkpt lat="45.63402" lon="6.18575">
        <ele>1166</ele>
        <time>2010-10-09T08:49:02Z</time>
      </trkpt>
      <trkpt lat="45.63401" lon="6.1858">
        <ele>1165</ele>
        <time>2010-10-09T08:49:03Z</time>
      </trkpt>
      <trkpt lat="45.63399" lon="6.18582">
        <ele>1167</ele>
        <time>2010-10-09T08:49:05Z</time>
      </trkpt>
      <trkpt lat="45.63393" lon="6.18586">
        <ele>1164</ele>
        <time>2010-10-09T08:49:07Z</time>
      </trkpt>
      <trkpt lat="45.63391" lon="6.18587">
        <ele>1165</ele>
        <time>2010-10-09T08:49:08Z</time>
      </trkpt>
      <trkpt lat="45.6339" lon="6.18588">
        <ele>1167</ele>
        <time>2010-10-09T08:49:10Z</time>
      </trkpt>
      <trkpt lat="45.63389" lon="6.1859">
        <ele>1167</ele>
        <time>2010-10-09T08:49:11Z</time>
      </trkpt>
      <trkpt lat="45.63387" lon="6.18593">
        <ele>1168</ele>
        <time>2010-10-09T08:49:12Z</time>
      </trkpt>
      <trkpt lat="45.63386" lon="6.18597">
        <ele>1169</ele>
        <time>2010-10-09T08:49:15Z</time>
      </trkpt>
      <trkpt lat="45.63386" lon="6.18599">
        <ele>1170</ele>
        <time>2010-10-09T08:49:16Z</time>
      </trkpt>
      <trkpt lat="45.63386" lon="6.18603">
        <ele>1170</ele>
        <time>2010-10-09T08:49:17Z</time>
      </trkpt>
      <trkpt lat="45.63387" lon="6.18605">
        <ele>1169</ele>
        <time>2010-10-09T08:49:19Z</time>
      </trkpt>
      <trkpt lat="45.63388" lon="6.18608">
        <ele>1169</ele>
        <time>2010-10-09T08:49:20Z</time>
      </trkpt>
      <trkpt lat="45.63389" lon="6.1861">
        <ele>1168</ele>
        <time>2010-10-09T08:49:21Z</time>
      </trkpt>
      <trkpt lat="45.63389" lon="6.18613">
        <ele>1168</ele>
        <time>2010-10-09T08:49:22Z</time>
      </trkpt>
      <trkpt lat="45.6339" lon="6.18615">
        <ele>1168</ele>
        <time>2010-10-09T08:49:24Z</time>
      </trkpt>
      <trkpt lat="45.6339" lon="6.18619">
        <ele>1168</ele>
        <time>2010-10-09T08:49:25Z</time>
      </trkpt>
      <trkpt lat="45.6339" lon="6.18622">
        <ele>1168</ele>
        <time>2010-10-09T08:49:26Z</time>
      </trkpt>
      <trkpt lat="45.6339" lon="6.18624">
        <ele>1168</ele>
        <time>2010-10-09T08:49:27Z</time>
      </trkpt>
      <trkpt lat="45.63389" lon="6.18627">
        <ele>1168</ele>
        <time>2010-10-09T08:49:29Z</time>
      </trkpt>
      <trkpt lat="45.63387" lon="6.18632">
        <ele>1168</ele>
        <time>2010-10-09T08:49:30Z</time>
      </trkpt>
      <trkpt lat="45.63386" lon="6.18634">
        <ele>1168</ele>
        <time>2010-10-09T08:49:31Z</time>
      </trkpt>
      <trkpt lat="45.63385" lon="6.18636">
        <ele>1169</ele>
        <time>2010-10-09T08:49:33Z</time>
      </trkpt>
      <trkpt lat="45.63384" lon="6.18638">
        <ele>1169</ele>
        <time>2010-10-09T08:49:34Z</time>
      </trkpt>
      <trkpt lat="45.63382" lon="6.18643">
        <ele>1169</ele>
        <time>2010-10-09T08:49:35Z</time>
      </trkpt>
      <trkpt lat="45.63382" lon="6.18645">
        <ele>1169</ele>
        <time>2010-10-09T08:49:37Z</time>
      </trkpt>
      <trkpt lat="45.63382" lon="6.18648">
        <ele>1169</ele>
        <time>2010-10-09T08:49:38Z</time>
      </trkpt>
      <trkpt lat="45.63382" lon="6.18653">
        <ele>1168</ele>
        <time>2010-10-09T08:49:39Z</time>
      </trkpt>
      <trkpt lat="45.63382" lon="6.18658">
        <ele>1168</ele>
        <time>2010-10-09T08:49:41Z</time>
      </trkpt>
      <trkpt lat="45.63382" lon="6.18663">
        <ele>1167</ele>
        <time>2010-10-09T08:49:43Z</time>
      </trkpt>
      <trkpt lat="45.63382" lon="6.18665">
        <ele>1167</ele>
        <time>2010-10-09T08:49:44Z</time>
      </trkpt>
      <trkpt lat="45.63382" lon="6.18668">
        <ele>1165</ele>
        <time>2010-10-09T08:49:45Z</time>
      </trkpt>
      <trkpt lat="45.63381" lon="6.1867">
        <ele>1166</ele>
        <time>2010-10-09T08:49:46Z</time>
      </trkpt>
      <trkpt lat="45.6338" lon="6.18672">
        <ele>1166</ele>
        <time>2010-10-09T08:49:48Z</time>
      </trkpt>
      <trkpt lat="45.6338" lon="6.18677">
        <ele>1167</ele>
        <time>2010-10-09T08:49:49Z</time>
      </trkpt>
      <trkpt lat="45.6338" lon="6.18679">
        <ele>1167</ele>
        <time>2010-10-09T08:49:51Z</time>
      </trkpt>
      <trkpt lat="45.6338" lon="6.18684">
        <ele>1167</ele>
        <time>2010-10-09T08:49:53Z</time>
      </trkpt>
      <trkpt lat="45.63381" lon="6.18686">
        <ele>1166</ele>
        <time>2010-10-09T08:49:54Z</time>
      </trkpt>
      <trkpt lat="45.63382" lon="6.1869">
        <ele>1166</ele>
        <time>2010-10-09T08:49:55Z</time>
      </trkpt>
      <trkpt lat="45.63381" lon="6.18695">
        <ele>1167</ele>
        <time>2010-10-09T08:49:57Z</time>
      </trkpt>
      <trkpt lat="45.6338" lon="6.18697">
        <ele>1167</ele>
        <time>2010-10-09T08:49:58Z</time>
      </trkpt>
      <trkpt lat="45.6338" lon="6.187">
        <ele>1168</ele>
        <time>2010-10-09T08:50:00Z</time>
      </trkpt>
      <trkpt lat="45.63378" lon="6.18704">
        <ele>1169</ele>
        <time>2010-10-09T08:50:01Z</time>
      </trkpt>
      <trkpt lat="45.63377" lon="6.18708">
        <ele>1169</ele>
        <time>2010-10-09T08:50:03Z</time>
      </trkpt>
      <trkpt lat="45.63378" lon="6.1871">
        <ele>1169</ele>
        <time>2010-10-09T08:50:05Z</time>
      </trkpt>
      <trkpt lat="45.63377" lon="6.18713">
        <ele>1169</ele>
        <time>2010-10-09T08:50:06Z</time>
      </trkpt>
      <trkpt lat="45.63377" lon="6.18717">
        <ele>1169</ele>
        <time>2010-10-09T08:50:07Z</time>
      </trkpt>
      <trkpt lat="45.63377" lon="6.18722">
        <ele>1169</ele>
        <time>2010-10-09T08:50:09Z</time>
      </trkpt>
      <trkpt lat="45.63377" lon="6.18724">
        <ele>1169</ele>
        <time>2010-10-09T08:50:10Z</time>
      </trkpt>
      <trkpt lat="45.63378" lon="6.18727">
        <ele>1169</ele>
        <time>2010-10-09T08:50:11Z</time>
      </trkpt>
      <trkpt lat="45.63379" lon="6.18732">
        <ele>1168</ele>
        <time>2010-10-09T08:50:14Z</time>
      </trkpt>
      <trkpt lat="45.63381" lon="6.18737">
        <ele>1167</ele>
        <time>2010-10-09T08:50:15Z</time>
      </trkpt>
      <trkpt lat="45.63382" lon="6.18739">
        <ele>1166</ele>
        <time>2010-10-09T08:50:16Z</time>
      </trkpt>
      <trkpt lat="45.63383" lon="6.18742">
        <ele>1165</ele>
        <time>2010-10-09T08:50:18Z</time>
      </trkpt>
      <trkpt lat="45.63384" lon="6.18746">
        <ele>1164</ele>
        <time>2010-10-09T08:50:20Z</time>
      </trkpt>
      <trkpt lat="45.63386" lon="6.18752">
        <ele>1165</ele>
        <time>2010-10-09T08:50:21Z</time>
      </trkpt>
      <trkpt lat="45.63385" lon="6.18757">
        <ele>1167</ele>
        <time>2010-10-09T08:50:24Z</time>
      </trkpt>
      <trkpt lat="45.63385" lon="6.18762">
        <ele>1167</ele>
        <time>2010-10-09T08:50:26Z</time>
      </trkpt>
      <trkpt lat="45.63385" lon="6.18766">
        <ele>1168</ele>
        <time>2010-10-09T08:50:28Z</time>
      </trkpt>
      <trkpt lat="45.63385" lon="6.18769">
        <ele>1168</ele>
        <time>2010-10-09T08:50:29Z</time>
      </trkpt>
      <trkpt lat="45.63385" lon="6.18773">
        <ele>1169</ele>
        <time>2010-10-09T08:50:30Z</time>
      </trkpt>
      <trkpt lat="45.63384" lon="6.18776">
        <ele>1170</ele>
        <time>2010-10-09T08:50:32Z</time>
      </trkpt>
      <trkpt lat="45.63383" lon="6.1878">
        <ele>1171</ele>
        <time>2010-10-09T08:50:33Z</time>
      </trkpt>
      <trkpt lat="45.63382" lon="6.18784">
        <ele>1172</ele>
        <time>2010-10-09T08:50:35Z</time>
      </trkpt>
      <trkpt lat="45.63381" lon="6.18787">
        <ele>1173</ele>
        <time>2010-10-09T08:50:36Z</time>
      </trkpt>
      <trkpt lat="45.63381" lon="6.18789">
        <ele>1173</ele>
        <time>2010-10-09T08:50:37Z</time>
      </trkpt>
      <trkpt lat="45.63381" lon="6.18792">
        <ele>1173</ele>
        <time>2010-10-09T08:50:38Z</time>
      </trkpt>
      <trkpt lat="45.63381" lon="6.18794">
        <ele>1173</ele>
        <time>2010-10-09T08:50:39Z</time>
      </trkpt>
      <trkpt lat="45.63381" lon="6.18796">
        <ele>1173</ele>
        <time>2010-10-09T08:50:40Z</time>
      </trkpt>
      <trkpt lat="45.63382" lon="6.18798">
        <ele>1173</ele>
        <time>2010-10-09T08:50:42Z</time>
      </trkpt>
      <trkpt lat="45.63382" lon="6.18804">
        <ele>1173</ele>
        <time>2010-10-09T08:50:43Z</time>
      </trkpt>
      <trkpt lat="45.63381" lon="6.18809">
        <ele>1173</ele>
        <time>2010-10-09T08:50:45Z</time>
      </trkpt>
      <trkpt lat="45.63381" lon="6.18811">
        <ele>1174</ele>
        <time>2010-10-09T08:50:46Z</time>
      </trkpt>
      <trkpt lat="45.63381" lon="6.18814">
        <ele>1174</ele>
        <time>2010-10-09T08:50:47Z</time>
      </trkpt>
      <trkpt lat="45.63381" lon="6.18816">
        <ele>1174</ele>
        <time>2010-10-09T08:50:49Z</time>
      </trkpt>
      <trkpt lat="45.6338" lon="6.18821">
        <ele>1174</ele>
        <time>2010-10-09T08:50:51Z</time>
      </trkpt>
      <trkpt lat="45.6338" lon="6.18825">
        <ele>1174</ele>
        <time>2010-10-09T08:50:52Z</time>
      </trkpt>
      <trkpt lat="45.63381" lon="6.18828">
        <ele>1173</ele>
        <time>2010-10-09T08:50:54Z</time>
      </trkpt>
      <trkpt lat="45.63381" lon="6.18833">
        <ele>1174</ele>
        <time>2010-10-09T08:50:56Z</time>
      </trkpt>
      <trkpt lat="45.6338" lon="6.18837">
        <ele>1183</ele>
        <time>2010-10-09T08:50:58Z</time>
      </trkpt>
      <trkpt lat="45.6338" lon="6.18842">
        <ele>1183</ele>
        <time>2010-10-09T08:51:00Z</time>
      </trkpt>
      <trkpt lat="45.6338" lon="6.18846">
        <ele>1184</ele>
        <time>2010-10-09T08:51:01Z</time>
      </trkpt>
      <trkpt lat="45.63379" lon="6.18849">
        <ele>1185</ele>
        <time>2010-10-09T08:51:03Z</time>
      </trkpt>
      <trkpt lat="45.63378" lon="6.18853">
        <ele>1186</ele>
        <time>2010-10-09T08:51:04Z</time>
      </trkpt>
      <trkpt lat="45.63378" lon="6.18856">
        <ele>1186</ele>
        <time>2010-10-09T08:51:05Z</time>
      </trkpt>
      <trkpt lat="45.63377" lon="6.18858">
        <ele>1187</ele>
        <time>2010-10-09T08:51:06Z</time>
      </trkpt>
      <trkpt lat="45.63377" lon="6.18862">
        <ele>1188</ele>
        <time>2010-10-09T08:51:08Z</time>
      </trkpt>
      <trkpt lat="45.63375" lon="6.18864">
        <ele>1189</ele>
        <time>2010-10-09T08:51:09Z</time>
      </trkpt>
      <trkpt lat="45.63375" lon="6.18866">
        <ele>1189</ele>
        <time>2010-10-09T08:51:10Z</time>
      </trkpt>
      <trkpt lat="45.63374" lon="6.18868">
        <ele>1190</ele>
        <time>2010-10-09T08:51:11Z</time>
      </trkpt>
      <trkpt lat="45.63373" lon="6.18871">
        <ele>1191</ele>
        <time>2010-10-09T08:51:13Z</time>
      </trkpt>
      <trkpt lat="45.63373" lon="6.18875">
        <ele>1191</ele>
        <time>2010-10-09T08:51:15Z</time>
      </trkpt>
      <trkpt lat="45.63374" lon="6.18879">
        <ele>1191</ele>
        <time>2010-10-09T08:51:16Z</time>
      </trkpt>
      <trkpt lat="45.63374" lon="6.18884">
        <ele>1191</ele>
        <time>2010-10-09T08:51:19Z</time>
      </trkpt>
      <trkpt lat="45.63375" lon="6.18889">
        <ele>1191</ele>
        <time>2010-10-09T08:51:21Z</time>
      </trkpt>
      <trkpt lat="45.63376" lon="6.18894">
        <ele>1191</ele>
        <time>2010-10-09T08:51:22Z</time>
      </trkpt>
      <trkpt lat="45.63377" lon="6.18897">
        <ele>1191</ele>
        <time>2010-10-09T08:51:24Z</time>
      </trkpt>
      <trkpt lat="45.63378" lon="6.18902">
        <ele>1190</ele>
        <time>2010-10-09T08:51:25Z</time>
      </trkpt>
      <trkpt lat="45.63378" lon="6.18904">
        <ele>1190</ele>
        <time>2010-10-09T08:51:26Z</time>
      </trkpt>
      <trkpt lat="45.63379" lon="6.18908">
        <ele>1189</ele>
        <time>2010-10-09T08:51:28Z</time>
      </trkpt>
      <trkpt lat="45.6338" lon="6.18909">
        <ele>1188</ele>
        <time>2010-10-09T08:51:29Z</time>
      </trkpt>
      <trkpt lat="45.63381" lon="6.18911">
        <ele>1187</ele>
        <time>2010-10-09T08:51:30Z</time>
      </trkpt>
      <trkpt lat="45.63382" lon="6.18912">
        <ele>1186</ele>
        <time>2010-10-09T08:51:32Z</time>
      </trkpt>
      <trkpt lat="45.63385" lon="6.18916">
        <ele>1184</ele>
        <time>2010-10-09T08:51:33Z</time>
      </trkpt>
      <trkpt lat="45.63386" lon="6.18919">
        <ele>1191</ele>
        <time>2010-10-09T08:51:35Z</time>
      </trkpt>
      <trkpt lat="45.63386" lon="6.18921">
        <ele>1190</ele>
        <time>2010-10-09T08:51:36Z</time>
      </trkpt>
      <trkpt lat="45.63389" lon="6.18924">
        <ele>1188</ele>
        <time>2010-10-09T08:51:38Z</time>
      </trkpt>
      <trkpt lat="45.6339" lon="6.18926">
        <ele>1188</ele>
        <time>2010-10-09T08:51:40Z</time>
      </trkpt>
      <trkpt lat="45.63393" lon="6.1893">
        <ele>1185</ele>
        <time>2010-10-09T08:51:41Z</time>
      </trkpt>
      <trkpt lat="45.63394" lon="6.18934">
        <ele>1186</ele>
        <time>2010-10-09T08:51:43Z</time>
      </trkpt>
      <trkpt lat="45.63393" lon="6.18936">
        <ele>1188</ele>
        <time>2010-10-09T08:51:44Z</time>
      </trkpt>
      <trkpt lat="45.63394" lon="6.18938">
        <ele>1188</ele>
        <time>2010-10-09T08:51:45Z</time>
      </trkpt>
      <trkpt lat="45.63394" lon="6.1894">
        <ele>1188</ele>
        <time>2010-10-09T08:51:47Z</time>
      </trkpt>
      <trkpt lat="45.63393" lon="6.18945">
        <ele>1190</ele>
        <time>2010-10-09T08:51:48Z</time>
      </trkpt>
      <trkpt lat="45.63393" lon="6.18947">
        <ele>1191</ele>
        <time>2010-10-09T08:51:50Z</time>
      </trkpt>
      <trkpt lat="45.63394" lon="6.18949">
        <ele>1191</ele>
        <time>2010-10-09T08:51:51Z</time>
      </trkpt>
      <trkpt lat="45.63393" lon="6.18954">
        <ele>1192</ele>
        <time>2010-10-09T08:51:53Z</time>
      </trkpt>
      <trkpt lat="45.63393" lon="6.18956">
        <ele>1193</ele>
        <time>2010-10-09T08:51:54Z</time>
      </trkpt>
      <trkpt lat="45.63393" lon="6.18962">
        <ele>1194</ele>
        <time>2010-10-09T08:51:56Z</time>
      </trkpt>
      <trkpt lat="45.63392" lon="6.18965">
        <ele>1194</ele>
        <time>2010-10-09T08:51:57Z</time>
      </trkpt>
      <trkpt lat="45.63392" lon="6.18967">
        <ele>1194</ele>
        <time>2010-10-09T08:51:58Z</time>
      </trkpt>
      <trkpt lat="45.63392" lon="6.18969">
        <ele>1194</ele>
        <time>2010-10-09T08:51:59Z</time>
      </trkpt>
      <trkpt lat="45.63393" lon="6.18971">
        <ele>1194</ele>
        <time>2010-10-09T08:52:00Z</time>
      </trkpt>
      <trkpt lat="45.63394" lon="6.18972">
        <ele>1193</ele>
        <time>2010-10-09T08:52:02Z</time>
      </trkpt>
      <trkpt lat="45.63396" lon="6.18975">
        <ele>1192</ele>
        <time>2010-10-09T08:52:03Z</time>
      </trkpt>
      <trkpt lat="45.63396" lon="6.18977">
        <ele>1192</ele>
        <time>2010-10-09T08:52:04Z</time>
      </trkpt>
      <trkpt lat="45.63397" lon="6.18979">
        <ele>1191</ele>
        <time>2010-10-09T08:52:06Z</time>
      </trkpt>
      <trkpt lat="45.63398" lon="6.1898">
        <ele>1190</ele>
        <time>2010-10-09T08:52:07Z</time>
      </trkpt>
      <trkpt lat="45.63399" lon="6.18983">
        <ele>1189</ele>
        <time>2010-10-09T08:52:09Z</time>
      </trkpt>
      <trkpt lat="45.634" lon="6.18987">
        <ele>1188</ele>
        <time>2010-10-09T08:52:10Z</time>
      </trkpt>
      <trkpt lat="45.63403" lon="6.18991">
        <ele>1185</ele>
        <time>2010-10-09T08:52:13Z</time>
      </trkpt>
      <trkpt lat="45.63404" lon="6.18993">
        <ele>1183</ele>
        <time>2010-10-09T08:52:15Z</time>
      </trkpt>
      <trkpt lat="45.63403" lon="6.18998">
        <ele>1183</ele>
        <time>2010-10-09T08:52:19Z</time>
      </trkpt>
      <trkpt lat="45.63404" lon="6.19">
        <ele>1183</ele>
        <time>2010-10-09T08:52:21Z</time>
      </trkpt>
      <trkpt lat="45.63406" lon="6.19002">
        <ele>1181</ele>
        <time>2010-10-09T08:52:22Z</time>
      </trkpt>
      <trkpt lat="45.63408" lon="6.19006">
        <ele>1181</ele>
        <time>2010-10-09T08:52:26Z</time>
      </trkpt>
      <trkpt lat="45.6341" lon="6.19009">
        <ele>1181</ele>
        <time>2010-10-09T08:52:27Z</time>
      </trkpt>
      <trkpt lat="45.63411" lon="6.1901">
        <ele>1182</ele>
        <time>2010-10-09T08:52:28Z</time>
      </trkpt>
      <trkpt lat="45.63411" lon="6.19012">
        <ele>1183</ele>
        <time>2010-10-09T08:52:29Z</time>
      </trkpt>
      <trkpt lat="45.63412" lon="6.19014">
        <ele>1184</ele>
        <time>2010-10-09T08:52:30Z</time>
      </trkpt>
      <trkpt lat="45.63414" lon="6.19015">
        <ele>1185</ele>
        <time>2010-10-09T08:52:31Z</time>
      </trkpt>
      <trkpt lat="45.63415" lon="6.19017">
        <ele>1185</ele>
        <time>2010-10-09T08:52:32Z</time>
      </trkpt>
      <trkpt lat="45.63417" lon="6.19018">
        <ele>1150</ele>
        <time>2010-10-09T08:52:34Z</time>
      </trkpt>
      <trkpt lat="45.63421" lon="6.1902">
        <ele>1148</ele>
        <time>2010-10-09T08:52:35Z</time>
      </trkpt>
      <trkpt lat="45.63422" lon="6.19022">
        <ele>1147</ele>
        <time>2010-10-09T08:52:36Z</time>
      </trkpt>
      <trkpt lat="45.63425" lon="6.19024">
        <ele>1146</ele>
        <time>2010-10-09T08:52:37Z</time>
      </trkpt>
      <trkpt lat="45.63425" lon="6.19026">
        <ele>1145</ele>
        <time>2010-10-09T08:52:38Z</time>
      </trkpt>
      <trkpt lat="45.63426" lon="6.19028">
        <ele>1144</ele>
        <time>2010-10-09T08:52:40Z</time>
      </trkpt>
      <trkpt lat="45.63427" lon="6.19029">
        <ele>1144</ele>
        <time>2010-10-09T08:52:41Z</time>
      </trkpt>
      <trkpt lat="45.63426" lon="6.19033">
        <ele>1144</ele>
        <time>2010-10-09T08:52:43Z</time>
      </trkpt>
      <trkpt lat="45.63424" lon="6.19038">
        <ele>1144</ele>
        <time>2010-10-09T08:52:44Z</time>
      </trkpt>
      <trkpt lat="45.63423" lon="6.1904">
        <ele>1144</ele>
        <time>2010-10-09T08:52:46Z</time>
      </trkpt>
      <trkpt lat="45.63422" lon="6.19043">
        <ele>1145</ele>
        <time>2010-10-09T08:52:47Z</time>
      </trkpt>
      <trkpt lat="45.63423" lon="6.19046">
        <ele>1145</ele>
        <time>2010-10-09T08:52:49Z</time>
      </trkpt>
      <trkpt lat="45.63423" lon="6.19048">
        <ele>1146</ele>
        <time>2010-10-09T08:52:50Z</time>
      </trkpt>
      <trkpt lat="45.63423" lon="6.1905">
        <ele>1146</ele>
        <time>2010-10-09T08:52:51Z</time>
      </trkpt>
      <trkpt lat="45.63423" lon="6.19054">
        <ele>1147</ele>
        <time>2010-10-09T08:52:53Z</time>
      </trkpt>
      <trkpt lat="45.63423" lon="6.19056">
        <ele>1148</ele>
        <time>2010-10-09T08:52:54Z</time>
      </trkpt>
      <trkpt lat="45.63422" lon="6.19058">
        <ele>1150</ele>
        <time>2010-10-09T08:52:55Z</time>
      </trkpt>
      <trkpt lat="45.63421" lon="6.1906">
        <ele>1151</ele>
        <time>2010-10-09T08:52:57Z</time>
      </trkpt>
      <trkpt lat="45.6342" lon="6.19065">
        <ele>1155</ele>
        <time>2010-10-09T08:52:58Z</time>
      </trkpt>
      <trkpt lat="45.6342" lon="6.19067">
        <ele>1157</ele>
        <time>2010-10-09T08:52:59Z</time>
      </trkpt>
      <trkpt lat="45.63419" lon="6.1907">
        <ele>1159</ele>
        <time>2010-10-09T08:53:01Z</time>
      </trkpt>
      <trkpt lat="45.6342" lon="6.19076">
        <ele>1165</ele>
        <time>2010-10-09T08:53:03Z</time>
      </trkpt>
      <trkpt lat="45.6342" lon="6.19078">
        <ele>1168</ele>
        <time>2010-10-09T08:53:05Z</time>
      </trkpt>
      <trkpt lat="45.63419" lon="6.19083">
        <ele>1174</ele>
        <time>2010-10-09T08:53:06Z</time>
      </trkpt>
      <trkpt lat="45.63419" lon="6.19085">
        <ele>1174</ele>
        <time>2010-10-09T08:53:08Z</time>
      </trkpt>
      <trkpt lat="45.63419" lon="6.1909">
        <ele>1169</ele>
        <time>2010-10-09T08:53:09Z</time>
      </trkpt>
      <trkpt lat="45.63419" lon="6.19092">
        <ele>1166</ele>
        <time>2010-10-09T08:53:11Z</time>
      </trkpt>
      <trkpt lat="45.6342" lon="6.19097">
        <ele>1162</ele>
        <time>2010-10-09T08:53:13Z</time>
      </trkpt>
      <trkpt lat="45.63419" lon="6.19101">
        <ele>1159</ele>
        <time>2010-10-09T08:53:15Z</time>
      </trkpt>
      <trkpt lat="45.63419" lon="6.19106">
        <ele>1156</ele>
        <time>2010-10-09T08:53:16Z</time>
      </trkpt>
      <trkpt lat="45.63418" lon="6.1911">
        <ele>1154</ele>
        <time>2010-10-09T08:53:18Z</time>
      </trkpt>
      <trkpt lat="45.63417" lon="6.19112">
        <ele>1153</ele>
        <time>2010-10-09T08:53:19Z</time>
      </trkpt>
      <trkpt lat="45.63416" lon="6.19114">
        <ele>1185</ele>
        <time>2010-10-09T08:53:21Z</time>
      </trkpt>
      <trkpt lat="45.63414" lon="6.19118">
        <ele>1185</ele>
        <time>2010-10-09T08:53:22Z</time>
      </trkpt>
      <trkpt lat="45.63413" lon="6.1912">
        <ele>1185</ele>
        <time>2010-10-09T08:53:23Z</time>
      </trkpt>
      <trkpt lat="45.63412" lon="6.19122">
        <ele>1185</ele>
        <time>2010-10-09T08:53:24Z</time>
      </trkpt>
      <trkpt lat="45.63411" lon="6.19124">
        <ele>1185</ele>
        <time>2010-10-09T08:53:25Z</time>
      </trkpt>
      <trkpt lat="45.6341" lon="6.19126">
        <ele>1184</ele>
        <time>2010-10-09T08:53:26Z</time>
      </trkpt>
      <trkpt lat="45.63408" lon="6.1913">
        <ele>1184</ele>
        <time>2010-10-09T08:53:28Z</time>
      </trkpt>
      <trkpt lat="45.63407" lon="6.19131">
        <ele>1184</ele>
        <time>2010-10-09T08:53:29Z</time>
      </trkpt>
      <trkpt lat="45.63406" lon="6.19133">
        <ele>1184</ele>
        <time>2010-10-09T08:53:30Z</time>
      </trkpt>
      <trkpt lat="45.63404" lon="6.19136">
        <ele>1183</ele>
        <time>2010-10-09T08:53:33Z</time>
      </trkpt>
      <trkpt lat="45.63403" lon="6.19139">
        <ele>1183</ele>
        <time>2010-10-09T08:53:35Z</time>
      </trkpt>
      <trkpt lat="45.63402" lon="6.19142">
        <ele>1182</ele>
        <time>2010-10-09T08:53:36Z</time>
      </trkpt>
      <trkpt lat="45.634" lon="6.19146">
        <ele>1182</ele>
        <time>2010-10-09T08:53:38Z</time>
      </trkpt>
      <trkpt lat="45.63399" lon="6.19151">
        <ele>1181</ele>
        <time>2010-10-09T08:53:39Z</time>
      </trkpt>
      <trkpt lat="45.63398" lon="6.19153">
        <ele>1181</ele>
        <time>2010-10-09T08:53:40Z</time>
      </trkpt>
      <trkpt lat="45.63397" lon="6.19155">
        <ele>1181</ele>
        <time>2010-10-09T08:53:41Z</time>
      </trkpt>
      <trkpt lat="45.63395" lon="6.19159">
        <ele>1181</ele>
        <time>2010-10-09T08:53:43Z</time>
      </trkpt>
      <trkpt lat="45.63394" lon="6.19161">
        <ele>1181</ele>
        <time>2010-10-09T08:53:44Z</time>
      </trkpt>
      <trkpt lat="45.63393" lon="6.19163">
        <ele>1181</ele>
        <time>2010-10-09T08:53:45Z</time>
      </trkpt>
      <trkpt lat="45.63392" lon="6.19165">
        <ele>1181</ele>
        <time>2010-10-09T08:53:46Z</time>
      </trkpt>
      <trkpt lat="45.63389" lon="6.19169">
        <ele>1168</ele>
        <time>2010-10-09T08:53:48Z</time>
      </trkpt>
      <trkpt lat="45.63388" lon="6.19171">
        <ele>1168</ele>
        <time>2010-10-09T08:53:49Z</time>
      </trkpt>
      <trkpt lat="45.63387" lon="6.19173">
        <ele>1168</ele>
        <time>2010-10-09T08:53:50Z</time>
      </trkpt>
      <trkpt lat="45.63385" lon="6.19175">
        <ele>1168</ele>
        <time>2010-10-09T08:53:51Z</time>
      </trkpt>
      <trkpt lat="45.63382" lon="6.19178">
        <ele>1168</ele>
        <time>2010-10-09T08:53:53Z</time>
      </trkpt>
      <trkpt lat="45.63381" lon="6.1918">
        <ele>1168</ele>
        <time>2010-10-09T08:53:54Z</time>
      </trkpt>
      <trkpt lat="45.63379" lon="6.19181">
        <ele>1168</ele>
        <time>2010-10-09T08:53:55Z</time>
      </trkpt>
      <trkpt lat="45.63378" lon="6.19183">
        <ele>1169</ele>
        <time>2010-10-09T08:53:56Z</time>
      </trkpt>
      <trkpt lat="45.63376" lon="6.19186">
        <ele>1169</ele>
        <time>2010-10-09T08:53:58Z</time>
      </trkpt>
      <trkpt lat="45.63374" lon="6.19187">
        <ele>1169</ele>
        <time>2010-10-09T08:53:59Z</time>
      </trkpt>
      <trkpt lat="45.63372" lon="6.19186">
        <ele>1169</ele>
        <time>2010-10-09T08:54:00Z</time>
      </trkpt>
      <trkpt lat="45.6337" lon="6.19186">
        <ele>1170</ele>
        <time>2010-10-09T08:54:02Z</time>
      </trkpt>
      <trkpt lat="45.63366" lon="6.19187">
        <ele>1171</ele>
        <time>2010-10-09T08:54:03Z</time>
      </trkpt>
      <trkpt lat="45.63363" lon="6.19186">
        <ele>1171</ele>
        <time>2010-10-09T08:54:04Z</time>
      </trkpt>
      <trkpt lat="45.63361" lon="6.19186">
        <ele>1172</ele>
        <time>2010-10-09T08:54:05Z</time>
      </trkpt>
      <trkpt lat="45.63359" lon="6.19186">
        <ele>1172</ele>
        <time>2010-10-09T08:54:06Z</time>
      </trkpt>
      <trkpt lat="45.63356" lon="6.19186">
        <ele>1173</ele>
        <time>2010-10-09T08:54:08Z</time>
      </trkpt>
      <trkpt lat="45.63353" lon="6.19186">
        <ele>1174</ele>
        <time>2010-10-09T08:54:09Z</time>
      </trkpt>
      <trkpt lat="45.63351" lon="6.19186">
        <ele>1175</ele>
        <time>2010-10-09T08:54:10Z</time>
      </trkpt>
      <trkpt lat="45.63349" lon="6.19186">
        <ele>1175</ele>
        <time>2010-10-09T08:54:11Z</time>
      </trkpt>
      <trkpt lat="45.63345" lon="6.19186">
        <ele>1176</ele>
        <time>2010-10-09T08:54:13Z</time>
      </trkpt>
      <trkpt lat="45.63343" lon="6.19186">
        <ele>1177</ele>
        <time>2010-10-09T08:54:14Z</time>
      </trkpt>
      <trkpt lat="45.63341" lon="6.19186">
        <ele>1178</ele>
        <time>2010-10-09T08:54:15Z</time>
      </trkpt>
      <trkpt lat="45.63339" lon="6.19186">
        <ele>1178</ele>
        <time>2010-10-09T08:54:16Z</time>
      </trkpt>
      <trkpt lat="45.63334" lon="6.19186">
        <ele>1179</ele>
        <time>2010-10-09T08:54:19Z</time>
      </trkpt>
      <trkpt lat="45.63332" lon="6.19185">
        <ele>1183</ele>
        <time>2010-10-09T08:54:20Z</time>
      </trkpt>
      <trkpt lat="45.63328" lon="6.19185">
        <ele>1183</ele>
        <time>2010-10-09T08:54:22Z</time>
      </trkpt>
      <trkpt lat="45.63324" lon="6.19184">
        <ele>1183</ele>
        <time>2010-10-09T08:54:23Z</time>
      </trkpt>
      <trkpt lat="45.63322" lon="6.19184">
        <ele>1183</ele>
        <time>2010-10-09T08:54:24Z</time>
      </trkpt>
      <trkpt lat="45.6332" lon="6.19184">
        <ele>1182</ele>
        <time>2010-10-09T08:54:25Z</time>
      </trkpt>
      <trkpt lat="45.63318" lon="6.19184">
        <ele>1182</ele>
        <time>2010-10-09T08:54:26Z</time>
      </trkpt>
      <trkpt lat="45.63316" lon="6.19184">
        <ele>1182</ele>
        <time>2010-10-09T08:54:27Z</time>
      </trkpt>
      <trkpt lat="45.63314" lon="6.19184">
        <ele>1181</ele>
        <time>2010-10-09T08:54:28Z</time>
      </trkpt>
      <trkpt lat="45.63312" lon="6.19183">
        <ele>1181</ele>
        <time>2010-10-09T08:54:30Z</time>
      </trkpt>
      <trkpt lat="45.63309" lon="6.19182">
        <ele>1181</ele>
        <time>2010-10-09T08:54:31Z</time>
      </trkpt>
      <trkpt lat="45.63305" lon="6.19182">
        <ele>1180</ele>
        <time>2010-10-09T08:54:33Z</time>
      </trkpt>
      <trkpt lat="45.63303" lon="6.19181">
        <ele>1180</ele>
        <time>2010-10-09T08:54:34Z</time>
      </trkpt>
      <trkpt lat="45.63301" lon="6.1918">
        <ele>1180</ele>
        <time>2010-10-09T08:54:35Z</time>
      </trkpt>
      <trkpt lat="45.63299" lon="6.1918">
        <ele>1180</ele>
        <time>2010-10-09T08:54:36Z</time>
      </trkpt>
      <trkpt lat="45.63297" lon="6.1918">
        <ele>1180</ele>
        <time>2010-10-09T08:54:37Z</time>
      </trkpt>
      <trkpt lat="45.63295" lon="6.19179">
        <ele>1180</ele>
        <time>2010-10-09T08:54:38Z</time>
      </trkpt>
      <trkpt lat="45.63293" lon="6.19179">
        <ele>1180</ele>
        <time>2010-10-09T08:54:39Z</time>
      </trkpt>
      <trkpt lat="45.63291" lon="6.19179">
        <ele>1180</ele>
        <time>2010-10-09T08:54:40Z</time>
      </trkpt>
      <trkpt lat="45.63289" lon="6.19178">
        <ele>1180</ele>
        <time>2010-10-09T08:54:41Z</time>
      </trkpt>
      <trkpt lat="45.63285" lon="6.19178">
        <ele>1180</ele>
        <time>2010-10-09T08:54:43Z</time>
      </trkpt>
      <trkpt lat="45.63282" lon="6.19178">
        <ele>1180</ele>
        <time>2010-10-09T08:54:44Z</time>
      </trkpt>
      <trkpt lat="45.6328" lon="6.19177">
        <ele>1181</ele>
        <time>2010-10-09T08:54:45Z</time>
      </trkpt>
      <trkpt lat="45.63278" lon="6.19177">
        <ele>1181</ele>
        <time>2010-10-09T08:54:46Z</time>
      </trkpt>
      <trkpt lat="45.63276" lon="6.19177">
        <ele>1181</ele>
        <time>2010-10-09T08:54:47Z</time>
      </trkpt>
      <trkpt lat="45.63274" lon="6.19177">
        <ele>1182</ele>
        <time>2010-10-09T08:54:48Z</time>
      </trkpt>
      <trkpt lat="45.63272" lon="6.19176">
        <ele>1182</ele>
        <time>2010-10-09T08:54:49Z</time>
      </trkpt>
      <trkpt lat="45.6327" lon="6.19176">
        <ele>1183</ele>
        <time>2010-10-09T08:54:50Z</time>
      </trkpt>
      <trkpt lat="45.63268" lon="6.19176">
        <ele>1183</ele>
        <time>2010-10-09T08:54:51Z</time>
      </trkpt>
      <trkpt lat="45.63267" lon="6.19176">
        <ele>1183</ele>
        <time>2010-10-09T08:54:52Z</time>
      </trkpt>
      <trkpt lat="45.63265" lon="6.19175">
        <ele>1184</ele>
        <time>2010-10-09T08:54:53Z</time>
      </trkpt>
      <trkpt lat="45.63263" lon="6.19175">
        <ele>1185</ele>
        <time>2010-10-09T08:54:54Z</time>
      </trkpt>
      <trkpt lat="45.63261" lon="6.19175">
        <ele>1185</ele>
        <time>2010-10-09T08:54:55Z</time>
      </trkpt>
      <trkpt lat="45.6326" lon="6.19174">
        <ele>1186</ele>
        <time>2010-10-09T08:54:56Z</time>
      </trkpt>
      <trkpt lat="45.63258" lon="6.19174">
        <ele>1187</ele>
        <time>2010-10-09T08:54:57Z</time>
      </trkpt>
      <trkpt lat="45.63256" lon="6.19173">
        <ele>1188</ele>
        <time>2010-10-09T08:54:58Z</time>
      </trkpt>
      <trkpt lat="45.63254" lon="6.19172">
        <ele>1189</ele>
        <time>2010-10-09T08:54:59Z</time>
      </trkpt>
      <trkpt lat="45.63252" lon="6.19172">
        <ele>1190</ele>
        <time>2010-10-09T08:55:00Z</time>
      </trkpt>
      <trkpt lat="45.6325" lon="6.19171">
        <ele>1190</ele>
        <time>2010-10-09T08:55:01Z</time>
      </trkpt>
      <trkpt lat="45.63246" lon="6.1917">
        <ele>1190</ele>
        <time>2010-10-09T08:55:03Z</time>
      </trkpt>
      <trkpt lat="45.63245" lon="6.19169">
        <ele>1189</ele>
        <time>2010-10-09T08:55:04Z</time>
      </trkpt>
      <trkpt lat="45.63243" lon="6.19169">
        <ele>1188</ele>
        <time>2010-10-09T08:55:05Z</time>
      </trkpt>
      <trkpt lat="45.63241" lon="6.19168">
        <ele>1187</ele>
        <time>2010-10-09T08:55:06Z</time>
      </trkpt>
      <trkpt lat="45.63238" lon="6.19167">
        <ele>1186</ele>
        <time>2010-10-09T08:55:08Z</time>
      </trkpt>
      <trkpt lat="45.63236" lon="6.19166">
        <ele>1202</ele>
        <time>2010-10-09T08:55:09Z</time>
      </trkpt>
      <trkpt lat="45.63234" lon="6.19165">
        <ele>1203</ele>
        <time>2010-10-09T08:55:10Z</time>
      </trkpt>
      <trkpt lat="45.63233" lon="6.19165">
        <ele>1203</ele>
        <time>2010-10-09T08:55:11Z</time>
      </trkpt>
      <trkpt lat="45.63231" lon="6.19165">
        <ele>1204</ele>
        <time>2010-10-09T08:55:13Z</time>
      </trkpt>
      <trkpt lat="45.63228" lon="6.19165">
        <ele>1205</ele>
        <time>2010-10-09T08:55:14Z</time>
      </trkpt>
      <trkpt lat="45.63226" lon="6.19165">
        <ele>1205</ele>
        <time>2010-10-09T08:55:15Z</time>
      </trkpt>
      <trkpt lat="45.63224" lon="6.19165">
        <ele>1206</ele>
        <time>2010-10-09T08:55:16Z</time>
      </trkpt>
      <trkpt lat="45.6322" lon="6.19164">
        <ele>1206</ele>
        <time>2010-10-09T08:55:18Z</time>
      </trkpt>
      <trkpt lat="45.63218" lon="6.19163">
        <ele>1207</ele>
        <time>2010-10-09T08:55:19Z</time>
      </trkpt>
      <trkpt lat="45.63216" lon="6.19163">
        <ele>1207</ele>
        <time>2010-10-09T08:55:20Z</time>
      </trkpt>
      <trkpt lat="45.63214" lon="6.19162">
        <ele>1207</ele>
        <time>2010-10-09T08:55:21Z</time>
      </trkpt>
      <trkpt lat="45.63211" lon="6.19161">
        <ele>1207</ele>
        <time>2010-10-09T08:55:23Z</time>
      </trkpt>
      <trkpt lat="45.63209" lon="6.1916">
        <ele>1207</ele>
        <time>2010-10-09T08:55:24Z</time>
      </trkpt>
      <trkpt lat="45.63208" lon="6.1916">
        <ele>1207</ele>
        <time>2010-10-09T08:55:25Z</time>
      </trkpt>
      <trkpt lat="45.63206" lon="6.19159">
        <ele>1207</ele>
        <time>2010-10-09T08:55:26Z</time>
      </trkpt>
      <trkpt lat="45.63205" lon="6.19159">
        <ele>1207</ele>
        <time>2010-10-09T08:55:27Z</time>
      </trkpt>
      <trkpt lat="45.63203" lon="6.19159">
        <ele>1207</ele>
        <time>2010-10-09T08:55:29Z</time>
      </trkpt>
      <trkpt lat="45.632" lon="6.19159">
        <ele>1207</ele>
        <time>2010-10-09T08:55:30Z</time>
      </trkpt>
      <trkpt lat="45.63199" lon="6.19159">
        <ele>1207</ele>
        <time>2010-10-09T08:55:31Z</time>
      </trkpt>
      <trkpt lat="45.63196" lon="6.19159">
        <ele>1207</ele>
        <time>2010-10-09T08:55:33Z</time>
      </trkpt>
      <trkpt lat="45.63194" lon="6.19159">
        <ele>1206</ele>
        <time>2010-10-09T08:55:34Z</time>
      </trkpt>
      <trkpt lat="45.63193" lon="6.19159">
        <ele>1206</ele>
        <time>2010-10-09T08:55:35Z</time>
      </trkpt>
      <trkpt lat="45.63192" lon="6.1916">
        <ele>1206</ele>
        <time>2010-10-09T08:55:36Z</time>
      </trkpt>
      <trkpt lat="45.6319" lon="6.19159">
        <ele>1206</ele>
        <time>2010-10-09T08:55:37Z</time>
      </trkpt>
      <trkpt lat="45.63188" lon="6.19158">
        <ele>1205</ele>
        <time>2010-10-09T08:55:38Z</time>
      </trkpt>
      <trkpt lat="45.63186" lon="6.19158">
        <ele>1205</ele>
        <time>2010-10-09T08:55:39Z</time>
      </trkpt>
      <trkpt lat="45.63185" lon="6.19157">
        <ele>1205</ele>
        <time>2010-10-09T08:55:40Z</time>
      </trkpt>
      <trkpt lat="45.63184" lon="6.19156">
        <ele>1205</ele>
        <time>2010-10-09T08:55:41Z</time>
      </trkpt>
      <trkpt lat="45.6318" lon="6.19155">
        <ele>1204</ele>
        <time>2010-10-09T08:55:43Z</time>
      </trkpt>
      <trkpt lat="45.63178" lon="6.19154">
        <ele>1204</ele>
        <time>2010-10-09T08:55:44Z</time>
      </trkpt>
      <trkpt lat="45.63176" lon="6.19154">
        <ele>1203</ele>
        <time>2010-10-09T08:55:45Z</time>
      </trkpt>
      <trkpt lat="45.63174" lon="6.19153">
        <ele>1203</ele>
        <time>2010-10-09T08:55:46Z</time>
      </trkpt>
      <trkpt lat="45.6317" lon="6.19151">
        <ele>1204</ele>
        <time>2010-10-09T08:55:48Z</time>
      </trkpt>
      <trkpt lat="45.63168" lon="6.19151">
        <ele>1204</ele>
        <time>2010-10-09T08:55:49Z</time>
      </trkpt>
      <trkpt lat="45.63166" lon="6.1915">
        <ele>1203</ele>
        <time>2010-10-09T08:55:50Z</time>
      </trkpt>
      <trkpt lat="45.63164" lon="6.19149">
        <ele>1203</ele>
        <time>2010-10-09T08:55:51Z</time>
      </trkpt>
      <trkpt lat="45.63162" lon="6.19149">
        <ele>1204</ele>
        <time>2010-10-09T08:55:53Z</time>
      </trkpt>
      <trkpt lat="45.6316" lon="6.19149">
        <ele>1204</ele>
        <time>2010-10-09T08:55:54Z</time>
      </trkpt>
      <trkpt lat="45.63155" lon="6.19148">
        <ele>1205</ele>
        <time>2010-10-09T08:55:55Z</time>
      </trkpt>
      <trkpt lat="45.63153" lon="6.19148">
        <ele>1205</ele>
        <time>2010-10-09T08:55:56Z</time>
      </trkpt>
      <trkpt lat="45.63149" lon="6.19147">
        <ele>1206</ele>
        <time>2010-10-09T08:55:58Z</time>
      </trkpt>
      <trkpt lat="45.63148" lon="6.19146">
        <ele>1206</ele>
        <time>2010-10-09T08:55:59Z</time>
      </trkpt>
      <trkpt lat="45.63147" lon="6.19146">
        <ele>1207</ele>
        <time>2010-10-09T08:56:00Z</time>
      </trkpt>
      <trkpt lat="45.63145" lon="6.19145">
        <ele>1207</ele>
        <time>2010-10-09T08:56:01Z</time>
      </trkpt>
      <trkpt lat="45.63141" lon="6.19144">
        <ele>1208</ele>
        <time>2010-10-09T08:56:03Z</time>
      </trkpt>
      <trkpt lat="45.63139" lon="6.19144">
        <ele>1208</ele>
        <time>2010-10-09T08:56:04Z</time>
      </trkpt>
      <trkpt lat="45.63136" lon="6.19144">
        <ele>1208</ele>
        <time>2010-10-09T08:56:05Z</time>
      </trkpt>
      <trkpt lat="45.63134" lon="6.19144">
        <ele>1208</ele>
        <time>2010-10-09T08:56:06Z</time>
      </trkpt>
      <trkpt lat="45.63132" lon="6.19144">
        <ele>1208</ele>
        <time>2010-10-09T08:56:07Z</time>
      </trkpt>
      <trkpt lat="45.6313" lon="6.19144">
        <ele>1208</ele>
        <time>2010-10-09T08:56:08Z</time>
      </trkpt>
      <trkpt lat="45.63128" lon="6.19143">
        <ele>1208</ele>
        <time>2010-10-09T08:56:09Z</time>
      </trkpt>
      <trkpt lat="45.63126" lon="6.19142">
        <ele>1208</ele>
        <time>2010-10-09T08:56:10Z</time>
      </trkpt>
      <trkpt lat="45.63124" lon="6.19142">
        <ele>1209</ele>
        <time>2010-10-09T08:56:11Z</time>
      </trkpt>
      <trkpt lat="45.63122" lon="6.19141">
        <ele>1209</ele>
        <time>2010-10-09T08:56:12Z</time>
      </trkpt>
      <trkpt lat="45.6312" lon="6.19141">
        <ele>1208</ele>
        <time>2010-10-09T08:56:13Z</time>
      </trkpt>
      <trkpt lat="45.63117" lon="6.19141">
        <ele>1208</ele>
        <time>2010-10-09T08:56:14Z</time>
      </trkpt>
      <trkpt lat="45.63115" lon="6.1914">
        <ele>1208</ele>
        <time>2010-10-09T08:56:15Z</time>
      </trkpt>
      <trkpt lat="45.63112" lon="6.1914">
        <ele>1208</ele>
        <time>2010-10-09T08:56:16Z</time>
      </trkpt>
      <trkpt lat="45.63108" lon="6.19139">
        <ele>1208</ele>
        <time>2010-10-09T08:56:18Z</time>
      </trkpt>
      <trkpt lat="45.63107" lon="6.19139">
        <ele>1208</ele>
        <time>2010-10-09T08:56:19Z</time>
      </trkpt>
      <trkpt lat="45.63105" lon="6.19138">
        <ele>1208</ele>
        <time>2010-10-09T08:56:20Z</time>
      </trkpt>
      <trkpt lat="45.63102" lon="6.19138">
        <ele>1208</ele>
        <time>2010-10-09T08:56:21Z</time>
      </trkpt>
      <trkpt lat="45.63098" lon="6.19138">
        <ele>1208</ele>
        <time>2010-10-09T08:56:23Z</time>
      </trkpt>
      <trkpt lat="45.63095" lon="6.19137">
        <ele>1208</ele>
        <time>2010-10-09T08:56:24Z</time>
      </trkpt>
      <trkpt lat="45.63093" lon="6.19137">
        <ele>1208</ele>
        <time>2010-10-09T08:56:25Z</time>
      </trkpt>
      <trkpt lat="45.6309" lon="6.19137">
        <ele>1208</ele>
        <time>2010-10-09T08:56:26Z</time>
      </trkpt>
      <trkpt lat="45.63088" lon="6.19136">
        <ele>1208</ele>
        <time>2010-10-09T08:56:27Z</time>
      </trkpt>
      <trkpt lat="45.63086" lon="6.19136">
        <ele>1208</ele>
        <time>2010-10-09T08:56:28Z</time>
      </trkpt>
      <trkpt lat="45.63083" lon="6.19135">
        <ele>1206</ele>
        <time>2010-10-09T08:56:29Z</time>
      </trkpt>
      <trkpt lat="45.63081" lon="6.19134">
        <ele>1206</ele>
        <time>2010-10-09T08:56:30Z</time>
      </trkpt>
      <trkpt lat="45.63079" lon="6.19134">
        <ele>1206</ele>
        <time>2010-10-09T08:56:31Z</time>
      </trkpt>
      <trkpt lat="45.63076" lon="6.19133">
        <ele>1206</ele>
        <time>2010-10-09T08:56:32Z</time>
      </trkpt>
      <trkpt lat="45.63074" lon="6.19132">
        <ele>1207</ele>
        <time>2010-10-09T08:56:33Z</time>
      </trkpt>
      <trkpt lat="45.63072" lon="6.19131">
        <ele>1207</ele>
        <time>2010-10-09T08:56:34Z</time>
      </trkpt>
      <trkpt lat="45.63071" lon="6.1913">
        <ele>1207</ele>
        <time>2010-10-09T08:56:35Z</time>
      </trkpt>
      <trkpt lat="45.63069" lon="6.19129">
        <ele>1208</ele>
        <time>2010-10-09T08:56:36Z</time>
      </trkpt>
      <trkpt lat="45.63067" lon="6.19128">
        <ele>1208</ele>
        <time>2010-10-09T08:56:37Z</time>
      </trkpt>
      <trkpt lat="45.63065" lon="6.19127">
        <ele>1208</ele>
        <time>2010-10-09T08:56:38Z</time>
      </trkpt>
      <trkpt lat="45.63063" lon="6.19127">
        <ele>1208</ele>
        <time>2010-10-09T08:56:39Z</time>
      </trkpt>
      <trkpt lat="45.63062" lon="6.19126">
        <ele>1208</ele>
        <time>2010-10-09T08:56:40Z</time>
      </trkpt>
      <trkpt lat="45.63061" lon="6.19126">
        <ele>1208</ele>
        <time>2010-10-09T08:56:42Z</time>
      </trkpt>
      <trkpt lat="45.63057" lon="6.19126">
        <ele>1208</ele>
        <time>2010-10-09T08:56:44Z</time>
      </trkpt>
      <trkpt lat="45.63053" lon="6.19126">
        <ele>1208</ele>
        <time>2010-10-09T08:56:45Z</time>
      </trkpt>
      <trkpt lat="45.63052" lon="6.19126">
        <ele>1208</ele>
        <time>2010-10-09T08:56:46Z</time>
      </trkpt>
      <trkpt lat="45.63048" lon="6.19125">
        <ele>1208</ele>
        <time>2010-10-09T08:56:48Z</time>
      </trkpt>
      <trkpt lat="45.63046" lon="6.19125">
        <ele>1208</ele>
        <time>2010-10-09T08:56:49Z</time>
      </trkpt>
      <trkpt lat="45.63044" lon="6.19126">
        <ele>1208</ele>
        <time>2010-10-09T08:56:50Z</time>
      </trkpt>
      <trkpt lat="45.63043" lon="6.19127">
        <ele>1208</ele>
        <time>2010-10-09T08:56:51Z</time>
      </trkpt>
      <trkpt lat="45.63042" lon="6.19128">
        <ele>1208</ele>
        <time>2010-10-09T08:56:52Z</time>
      </trkpt>
      <trkpt lat="45.63038" lon="6.19128">
        <ele>1207</ele>
        <time>2010-10-09T08:56:54Z</time>
      </trkpt>
      <trkpt lat="45.63036" lon="6.19128">
        <ele>1207</ele>
        <time>2010-10-09T08:56:55Z</time>
      </trkpt>
      <trkpt lat="45.63034" lon="6.19128">
        <ele>1207</ele>
        <time>2010-10-09T08:56:56Z</time>
      </trkpt>
      <trkpt lat="45.63031" lon="6.19128">
        <ele>1207</ele>
        <time>2010-10-09T08:56:58Z</time>
      </trkpt>
      <trkpt lat="45.6303" lon="6.19128">
        <ele>1207</ele>
        <time>2010-10-09T08:56:59Z</time>
      </trkpt>
      <trkpt lat="45.63028" lon="6.19129">
        <ele>1207</ele>
        <time>2010-10-09T08:57:00Z</time>
      </trkpt>
      <trkpt lat="45.63026" lon="6.1913">
        <ele>1206</ele>
        <time>2010-10-09T08:57:01Z</time>
      </trkpt>
      <trkpt lat="45.63022" lon="6.1913">
        <ele>1206</ele>
        <time>2010-10-09T08:57:03Z</time>
      </trkpt>
      <trkpt lat="45.63018" lon="6.19129">
        <ele>1206</ele>
        <time>2010-10-09T08:57:05Z</time>
      </trkpt>
      <trkpt lat="45.63015" lon="6.19129">
        <ele>1206</ele>
        <time>2010-10-09T08:57:06Z</time>
      </trkpt>
      <trkpt lat="45.63013" lon="6.19129">
        <ele>1206</ele>
        <time>2010-10-09T08:57:07Z</time>
      </trkpt>
      <trkpt lat="45.63011" lon="6.19129">
        <ele>1206</ele>
        <time>2010-10-09T08:57:08Z</time>
      </trkpt>
      <trkpt lat="45.63009" lon="6.19129">
        <ele>1206</ele>
        <time>2010-10-09T08:57:09Z</time>
      </trkpt>
      <trkpt lat="45.63007" lon="6.19129">
        <ele>1206</ele>
        <time>2010-10-09T08:57:10Z</time>
      </trkpt>
      <trkpt lat="45.63004" lon="6.19129">
        <ele>1206</ele>
        <time>2010-10-09T08:57:11Z</time>
      </trkpt>
      <trkpt lat="45.63002" lon="6.19129">
        <ele>1206</ele>
        <time>2010-10-09T08:57:12Z</time>
      </trkpt>
      <trkpt lat="45.63" lon="6.19128">
        <ele>1204</ele>
        <time>2010-10-09T08:57:13Z</time>
      </trkpt>
      <trkpt lat="45.62998" lon="6.19128">
        <ele>1204</ele>
        <time>2010-10-09T08:57:14Z</time>
      </trkpt>
      <trkpt lat="45.62996" lon="6.19127">
        <ele>1204</ele>
        <time>2010-10-09T08:57:15Z</time>
      </trkpt>
      <trkpt lat="45.62994" lon="6.19127">
        <ele>1205</ele>
        <time>2010-10-09T08:57:16Z</time>
      </trkpt>
      <trkpt lat="45.62991" lon="6.19126">
        <ele>1205</ele>
        <time>2010-10-09T08:57:17Z</time>
      </trkpt>
      <trkpt lat="45.62989" lon="6.19125">
        <ele>1205</ele>
        <time>2010-10-09T08:57:18Z</time>
      </trkpt>
      <trkpt lat="45.62987" lon="6.19125">
        <ele>1205</ele>
        <time>2010-10-09T08:57:19Z</time>
      </trkpt>
      <trkpt lat="45.62985" lon="6.19124">
        <ele>1205</ele>
        <time>2010-10-09T08:57:20Z</time>
      </trkpt>
      <trkpt lat="45.62983" lon="6.19124">
        <ele>1206</ele>
        <time>2010-10-09T08:57:21Z</time>
      </trkpt>
      <trkpt lat="45.6298" lon="6.19123">
        <ele>1206</ele>
        <time>2010-10-09T08:57:22Z</time>
      </trkpt>
      <trkpt lat="45.62978" lon="6.19123">
        <ele>1206</ele>
        <time>2010-10-09T08:57:23Z</time>
      </trkpt>
      <trkpt lat="45.62976" lon="6.19122">
        <ele>1206</ele>
        <time>2010-10-09T08:57:24Z</time>
      </trkpt>
      <trkpt lat="45.62973" lon="6.19121">
        <ele>1206</ele>
        <time>2010-10-09T08:57:25Z</time>
      </trkpt>
      <trkpt lat="45.62971" lon="6.19121">
        <ele>1206</ele>
        <time>2010-10-09T08:57:26Z</time>
      </trkpt>
      <trkpt lat="45.62969" lon="6.1912">
        <ele>1206</ele>
        <time>2010-10-09T08:57:27Z</time>
      </trkpt>
      <trkpt lat="45.62967" lon="6.1912">
        <ele>1206</ele>
        <time>2010-10-09T08:57:28Z</time>
      </trkpt>
      <trkpt lat="45.62965" lon="6.19119">
        <ele>1206</ele>
        <time>2010-10-09T08:57:29Z</time>
      </trkpt>
      <trkpt lat="45.62962" lon="6.19118">
        <ele>1206</ele>
        <time>2010-10-09T08:57:30Z</time>
      </trkpt>
      <trkpt lat="45.6296" lon="6.19118">
        <ele>1207</ele>
        <time>2010-10-09T08:57:31Z</time>
      </trkpt>
      <trkpt lat="45.62958" lon="6.19118">
        <ele>1207</ele>
        <time>2010-10-09T08:57:32Z</time>
      </trkpt>
      <trkpt lat="45.62955" lon="6.19117">
        <ele>1207</ele>
        <time>2010-10-09T08:57:33Z</time>
      </trkpt>
      <trkpt lat="45.62953" lon="6.19117">
        <ele>1207</ele>
        <time>2010-10-09T08:57:34Z</time>
      </trkpt>
      <trkpt lat="45.62951" lon="6.19116">
        <ele>1207</ele>
        <time>2010-10-09T08:57:35Z</time>
      </trkpt>
      <trkpt lat="45.62949" lon="6.19115">
        <ele>1207</ele>
        <time>2010-10-09T08:57:36Z</time>
      </trkpt>
      <trkpt lat="45.62947" lon="6.19115">
        <ele>1207</ele>
        <time>2010-10-09T08:57:37Z</time>
      </trkpt>
      <trkpt lat="45.62945" lon="6.19115">
        <ele>1207</ele>
        <time>2010-10-09T08:57:38Z</time>
      </trkpt>
      <trkpt lat="45.62943" lon="6.19114">
        <ele>1208</ele>
        <time>2010-10-09T08:57:39Z</time>
      </trkpt>
      <trkpt lat="45.62941" lon="6.19114">
        <ele>1208</ele>
        <time>2010-10-09T08:57:40Z</time>
      </trkpt>
      <trkpt lat="45.62939" lon="6.19114">
        <ele>1208</ele>
        <time>2010-10-09T08:57:41Z</time>
      </trkpt>
      <trkpt lat="45.62934" lon="6.19114">
        <ele>1208</ele>
        <time>2010-10-09T08:57:43Z</time>
      </trkpt>
      <trkpt lat="45.62932" lon="6.19113">
        <ele>1208</ele>
        <time>2010-10-09T08:57:44Z</time>
      </trkpt>
      <trkpt lat="45.62929" lon="6.19113">
        <ele>1209</ele>
        <time>2010-10-09T08:57:45Z</time>
      </trkpt>
      <trkpt lat="45.62927" lon="6.19112">
        <ele>1209</ele>
        <time>2010-10-09T08:57:46Z</time>
      </trkpt>
      <trkpt lat="45.62925" lon="6.19112">
        <ele>1209</ele>
        <time>2010-10-09T08:57:47Z</time>
      </trkpt>
      <trkpt lat="45.62923" lon="6.19111">
        <ele>1209</ele>
        <time>2010-10-09T08:57:48Z</time>
      </trkpt>
      <trkpt lat="45.62921" lon="6.19111">
        <ele>1210</ele>
        <time>2010-10-09T08:57:49Z</time>
      </trkpt>
      <trkpt lat="45.6292" lon="6.19112">
        <ele>1209</ele>
        <time>2010-10-09T08:57:50Z</time>
      </trkpt>
      <trkpt lat="45.62918" lon="6.19113">
        <ele>1209</ele>
        <time>2010-10-09T08:57:51Z</time>
      </trkpt>
      <trkpt lat="45.62915" lon="6.19114">
        <ele>1209</ele>
        <time>2010-10-09T08:57:53Z</time>
      </trkpt>
      <trkpt lat="45.62913" lon="6.19115">
        <ele>1208</ele>
        <time>2010-10-09T08:57:54Z</time>
      </trkpt>
      <trkpt lat="45.62911" lon="6.19117">
        <ele>1208</ele>
        <time>2010-10-09T08:57:55Z</time>
      </trkpt>
      <trkpt lat="45.62909" lon="6.19117">
        <ele>1208</ele>
        <time>2010-10-09T08:57:56Z</time>
      </trkpt>
      <trkpt lat="45.62905" lon="6.19118">
        <ele>1207</ele>
        <time>2010-10-09T08:57:58Z</time>
      </trkpt>
      <trkpt lat="45.62903" lon="6.19119">
        <ele>1207</ele>
        <time>2010-10-09T08:57:59Z</time>
      </trkpt>
      <trkpt lat="45.62901" lon="6.1912">
        <ele>1207</ele>
        <time>2010-10-09T08:58:00Z</time>
      </trkpt>
      <trkpt lat="45.62898" lon="6.1912">
        <ele>1207</ele>
        <time>2010-10-09T08:58:01Z</time>
      </trkpt>
      <trkpt lat="45.62893" lon="6.1912">
        <ele>1206</ele>
        <time>2010-10-09T08:58:03Z</time>
      </trkpt>
      <trkpt lat="45.62891" lon="6.19119">
        <ele>1207</ele>
        <time>2010-10-09T08:58:04Z</time>
      </trkpt>
      <trkpt lat="45.62888" lon="6.19119">
        <ele>1207</ele>
        <time>2010-10-09T08:58:05Z</time>
      </trkpt>
      <trkpt lat="45.62886" lon="6.19119">
        <ele>1207</ele>
        <time>2010-10-09T08:58:06Z</time>
      </trkpt>
      <trkpt lat="45.62881" lon="6.19118">
        <ele>1207</ele>
        <time>2010-10-09T08:58:08Z</time>
      </trkpt>
      <trkpt lat="45.62879" lon="6.19117">
        <ele>1207</ele>
        <time>2010-10-09T08:58:10Z</time>
      </trkpt>
      <trkpt lat="45.62874" lon="6.19114">
        <ele>1208</ele>
        <time>2010-10-09T08:58:11Z</time>
      </trkpt>
      <trkpt lat="45.62871" lon="6.19113">
        <ele>1208</ele>
        <time>2010-10-09T08:58:12Z</time>
      </trkpt>
      <trkpt lat="45.62869" lon="6.19112">
        <ele>1209</ele>
        <time>2010-10-09T08:58:13Z</time>
      </trkpt>
      <trkpt lat="45.62866" lon="6.19111">
        <ele>1209</ele>
        <time>2010-10-09T08:58:14Z</time>
      </trkpt>
      <trkpt lat="45.62864" lon="6.19111">
        <ele>1209</ele>
        <time>2010-10-09T08:58:15Z</time>
      </trkpt>
      <trkpt lat="45.62862" lon="6.1911">
        <ele>1210</ele>
        <time>2010-10-09T08:58:16Z</time>
      </trkpt>
      <trkpt lat="45.62857" lon="6.19109">
        <ele>1210</ele>
        <time>2010-10-09T08:58:18Z</time>
      </trkpt>
      <trkpt lat="45.62854" lon="6.19109">
        <ele>1211</ele>
        <time>2010-10-09T08:58:19Z</time>
      </trkpt>
      <trkpt lat="45.62851" lon="6.19108">
        <ele>1211</ele>
        <time>2010-10-09T08:58:20Z</time>
      </trkpt>
      <trkpt lat="45.62849" lon="6.19107">
        <ele>1212</ele>
        <time>2010-10-09T08:58:21Z</time>
      </trkpt>
      <trkpt lat="45.62847" lon="6.19106">
        <ele>1213</ele>
        <time>2010-10-09T08:58:22Z</time>
      </trkpt>
      <trkpt lat="45.62844" lon="6.19106">
        <ele>1213</ele>
        <time>2010-10-09T08:58:23Z</time>
      </trkpt>
      <trkpt lat="45.62842" lon="6.19106">
        <ele>1213</ele>
        <time>2010-10-09T08:58:24Z</time>
      </trkpt>
      <trkpt lat="45.62839" lon="6.19106">
        <ele>1214</ele>
        <time>2010-10-09T08:58:25Z</time>
      </trkpt>
      <trkpt lat="45.62837" lon="6.19106">
        <ele>1214</ele>
        <time>2010-10-09T08:58:26Z</time>
      </trkpt>
      <trkpt lat="45.62834" lon="6.19106">
        <ele>1214</ele>
        <time>2010-10-09T08:58:27Z</time>
      </trkpt>
      <trkpt lat="45.62831" lon="6.19105">
        <ele>1214</ele>
        <time>2010-10-09T08:58:28Z</time>
      </trkpt>
      <trkpt lat="45.62829" lon="6.19104">
        <ele>1214</ele>
        <time>2010-10-09T08:58:29Z</time>
      </trkpt>
      <trkpt lat="45.62827" lon="6.19104">
        <ele>1214</ele>
        <time>2010-10-09T08:58:30Z</time>
      </trkpt>
      <trkpt lat="45.62825" lon="6.19103">
        <ele>1214</ele>
        <time>2010-10-09T08:58:31Z</time>
      </trkpt>
      <trkpt lat="45.62822" lon="6.19103">
        <ele>1214</ele>
        <time>2010-10-09T08:58:32Z</time>
      </trkpt>
      <trkpt lat="45.6282" lon="6.19101">
        <ele>1214</ele>
        <time>2010-10-09T08:58:33Z</time>
      </trkpt>
      <trkpt lat="45.62817" lon="6.191">
        <ele>1214</ele>
        <time>2010-10-09T08:58:34Z</time>
      </trkpt>
      <trkpt lat="45.62815" lon="6.19099">
        <ele>1214</ele>
        <time>2010-10-09T08:58:35Z</time>
      </trkpt>
      <trkpt lat="45.62812" lon="6.19097">
        <ele>1214</ele>
        <time>2010-10-09T08:58:36Z</time>
      </trkpt>
      <trkpt lat="45.6281" lon="6.19096">
        <ele>1214</ele>
        <time>2010-10-09T08:58:37Z</time>
      </trkpt>
      <trkpt lat="45.62807" lon="6.19095">
        <ele>1213</ele>
        <time>2010-10-09T08:58:38Z</time>
      </trkpt>
      <trkpt lat="45.62804" lon="6.19095">
        <ele>1213</ele>
        <time>2010-10-09T08:58:39Z</time>
      </trkpt>
      <trkpt lat="45.62802" lon="6.19094">
        <ele>1213</ele>
        <time>2010-10-09T08:58:41Z</time>
      </trkpt>
      <trkpt lat="45.62796" lon="6.1909">
        <ele>1212</ele>
        <time>2010-10-09T08:58:42Z</time>
      </trkpt>
      <trkpt lat="45.62794" lon="6.1909">
        <ele>1212</ele>
        <time>2010-10-09T08:58:44Z</time>
      </trkpt>
      <trkpt lat="45.62793" lon="6.19088">
        <ele>1212</ele>
        <time>2010-10-09T08:58:45Z</time>
      </trkpt>
      <trkpt lat="45.62789" lon="6.19088">
        <ele>1212</ele>
        <time>2010-10-09T08:58:47Z</time>
      </trkpt>
      <trkpt lat="45.62787" lon="6.19089">
        <ele>1212</ele>
        <time>2010-10-09T08:58:48Z</time>
      </trkpt>
      <trkpt lat="45.62783" lon="6.19089">
        <ele>1212</ele>
        <time>2010-10-09T08:58:49Z</time>
      </trkpt>
      <trkpt lat="45.62778" lon="6.19089">
        <ele>1212</ele>
        <time>2010-10-09T08:58:51Z</time>
      </trkpt>
      <trkpt lat="45.62774" lon="6.1909">
        <ele>1213</ele>
        <time>2010-10-09T08:58:53Z</time>
      </trkpt>
      <trkpt lat="45.62772" lon="6.19091">
        <ele>1213</ele>
        <time>2010-10-09T08:58:54Z</time>
      </trkpt>
      <trkpt lat="45.6277" lon="6.19091">
        <ele>1213</ele>
        <time>2010-10-09T08:58:55Z</time>
      </trkpt>
      <trkpt lat="45.62768" lon="6.19091">
        <ele>1213</ele>
        <time>2010-10-09T08:58:56Z</time>
      </trkpt>
      <trkpt lat="45.62764" lon="6.1909">
        <ele>1214</ele>
        <time>2010-10-09T08:58:58Z</time>
      </trkpt>
      <trkpt lat="45.62762" lon="6.1909">
        <ele>1215</ele>
        <time>2010-10-09T08:58:59Z</time>
      </trkpt>
      <trkpt lat="45.6276" lon="6.1909">
        <ele>1215</ele>
        <time>2010-10-09T08:59:00Z</time>
      </trkpt>
      <trkpt lat="45.62758" lon="6.19089">
        <ele>1216</ele>
        <time>2010-10-09T08:59:01Z</time>
      </trkpt>
      <trkpt lat="45.62754" lon="6.19088">
        <ele>1218</ele>
        <time>2010-10-09T08:59:03Z</time>
      </trkpt>
      <trkpt lat="45.62751" lon="6.19087">
        <ele>1219</ele>
        <time>2010-10-09T08:59:04Z</time>
      </trkpt>
      <trkpt lat="45.62749" lon="6.19087">
        <ele>1219</ele>
        <time>2010-10-09T08:59:05Z</time>
      </trkpt>
      <trkpt lat="45.62746" lon="6.19085">
        <ele>1218</ele>
        <time>2010-10-09T08:59:07Z</time>
      </trkpt>
      <trkpt lat="45.6274" lon="6.19082">
        <ele>1228</ele>
        <time>2010-10-09T08:59:09Z</time>
      </trkpt>
      <trkpt lat="45.62739" lon="6.1908">
        <ele>1229</ele>
        <time>2010-10-09T08:59:10Z</time>
      </trkpt>
      <trkpt lat="45.62736" lon="6.19081">
        <ele>1230</ele>
        <time>2010-10-09T08:59:11Z</time>
      </trkpt>
      <trkpt lat="45.62732" lon="6.19079">
        <ele>1232</ele>
        <time>2010-10-09T08:59:12Z</time>
      </trkpt>
      <trkpt lat="45.6273" lon="6.1908">
        <ele>1232</ele>
        <time>2010-10-09T08:59:15Z</time>
      </trkpt>
      <trkpt lat="45.62727" lon="6.19081">
        <ele>1233</ele>
        <time>2010-10-09T08:59:17Z</time>
      </trkpt>
      <trkpt lat="45.62721" lon="6.19083">
        <ele>1211</ele>
        <time>2010-10-09T08:59:19Z</time>
      </trkpt>
      <trkpt lat="45.62718" lon="6.19084">
        <ele>1210</ele>
        <time>2010-10-09T08:59:21Z</time>
      </trkpt>
      <trkpt lat="45.62716" lon="6.19085">
        <ele>1210</ele>
        <time>2010-10-09T08:59:22Z</time>
      </trkpt>
      <trkpt lat="45.62714" lon="6.19086">
        <ele>1210</ele>
        <time>2010-10-09T08:59:23Z</time>
      </trkpt>
      <trkpt lat="45.62713" lon="6.19087">
        <ele>1210</ele>
        <time>2010-10-09T08:59:24Z</time>
      </trkpt>
      <trkpt lat="45.6271" lon="6.19087">
        <ele>1210</ele>
        <time>2010-10-09T08:59:27Z</time>
      </trkpt>
      <trkpt lat="45.62706" lon="6.19087">
        <ele>1210</ele>
        <time>2010-10-09T08:59:28Z</time>
      </trkpt>
      <trkpt lat="45.62703" lon="6.19087">
        <ele>1210</ele>
        <time>2010-10-09T08:59:29Z</time>
      </trkpt>
      <trkpt lat="45.62701" lon="6.19087">
        <ele>1210</ele>
        <time>2010-10-09T08:59:30Z</time>
      </trkpt>
      <trkpt lat="45.62698" lon="6.19087">
        <ele>1210</ele>
        <time>2010-10-09T08:59:31Z</time>
      </trkpt>
      <trkpt lat="45.62696" lon="6.19087">
        <ele>1210</ele>
        <time>2010-10-09T08:59:32Z</time>
      </trkpt>
      <trkpt lat="45.62694" lon="6.19087">
        <ele>1211</ele>
        <time>2010-10-09T08:59:33Z</time>
      </trkpt>
      <trkpt lat="45.62692" lon="6.19087">
        <ele>1211</ele>
        <time>2010-10-09T08:59:34Z</time>
      </trkpt>
      <trkpt lat="45.6269" lon="6.19087">
        <ele>1211</ele>
        <time>2010-10-09T08:59:35Z</time>
      </trkpt>
      <trkpt lat="45.62687" lon="6.19087">
        <ele>1212</ele>
        <time>2010-10-09T08:59:36Z</time>
      </trkpt>
      <trkpt lat="45.62685" lon="6.19087">
        <ele>1212</ele>
        <time>2010-10-09T08:59:37Z</time>
      </trkpt>
      <trkpt lat="45.62683" lon="6.19087">
        <ele>1213</ele>
        <time>2010-10-09T08:59:38Z</time>
      </trkpt>
      <trkpt lat="45.62681" lon="6.19087">
        <ele>1213</ele>
        <time>2010-10-09T08:59:39Z</time>
      </trkpt>
      <trkpt lat="45.62679" lon="6.19086">
        <ele>1214</ele>
        <time>2010-10-09T08:59:40Z</time>
      </trkpt>
      <trkpt lat="45.62677" lon="6.19086">
        <ele>1215</ele>
        <time>2010-10-09T08:59:41Z</time>
      </trkpt>
      <trkpt lat="45.62675" lon="6.19086">
        <ele>1215</ele>
        <time>2010-10-09T08:59:42Z</time>
      </trkpt>
      <trkpt lat="45.62672" lon="6.19085">
        <ele>1216</ele>
        <time>2010-10-09T08:59:43Z</time>
      </trkpt>
      <trkpt lat="45.6267" lon="6.19085">
        <ele>1218</ele>
        <time>2010-10-09T08:59:44Z</time>
      </trkpt>
      <trkpt lat="45.62668" lon="6.19084">
        <ele>1219</ele>
        <time>2010-10-09T08:59:45Z</time>
      </trkpt>
      <trkpt lat="45.62666" lon="6.19083">
        <ele>1220</ele>
        <time>2010-10-09T08:59:46Z</time>
      </trkpt>
      <trkpt lat="45.62664" lon="6.19083">
        <ele>1222</ele>
        <time>2010-10-09T08:59:47Z</time>
      </trkpt>
      <trkpt lat="45.62662" lon="6.19082">
        <ele>1224</ele>
        <time>2010-10-09T08:59:48Z</time>
      </trkpt>
      <trkpt lat="45.6266" lon="6.19082">
        <ele>1226</ele>
        <time>2010-10-09T08:59:49Z</time>
      </trkpt>
      <trkpt lat="45.62658" lon="6.19082">
        <ele>1227</ele>
        <time>2010-10-09T08:59:50Z</time>
      </trkpt>
      <trkpt lat="45.62656" lon="6.19081">
        <ele>1228</ele>
        <time>2010-10-09T08:59:51Z</time>
      </trkpt>
      <trkpt lat="45.62652" lon="6.19081">
        <ele>1230</ele>
        <time>2010-10-09T08:59:53Z</time>
      </trkpt>
      <trkpt lat="45.6265" lon="6.1908">
        <ele>1231</ele>
        <time>2010-10-09T08:59:54Z</time>
      </trkpt>
      <trkpt lat="45.62648" lon="6.1908">
        <ele>1232</ele>
        <time>2010-10-09T08:59:55Z</time>
      </trkpt>
      <trkpt lat="45.62646" lon="6.19079">
        <ele>1232</ele>
        <time>2010-10-09T08:59:56Z</time>
      </trkpt>
      <trkpt lat="45.62642" lon="6.19079">
        <ele>1234</ele>
        <time>2010-10-09T08:59:58Z</time>
      </trkpt>
      <trkpt lat="45.62639" lon="6.19078">
        <ele>1234</ele>
        <time>2010-10-09T08:59:59Z</time>
      </trkpt>
      <trkpt lat="45.62637" lon="6.19078">
        <ele>1234</ele>
        <time>2010-10-09T09:00:00Z</time>
      </trkpt>
      <trkpt lat="45.62635" lon="6.19078">
        <ele>1235</ele>
        <time>2010-10-09T09:00:01Z</time>
      </trkpt>
      <trkpt lat="45.62631" lon="6.19078">
        <ele>1235</ele>
        <time>2010-10-09T09:00:03Z</time>
      </trkpt>
      <trkpt lat="45.62629" lon="6.19078">
        <ele>1235</ele>
        <time>2010-10-09T09:00:04Z</time>
      </trkpt>
      <trkpt lat="45.62627" lon="6.19077">
        <ele>1236</ele>
        <time>2010-10-09T09:00:05Z</time>
      </trkpt>
      <trkpt lat="45.62624" lon="6.19077">
        <ele>1236</ele>
        <time>2010-10-09T09:00:06Z</time>
      </trkpt>
      <trkpt lat="45.6262" lon="6.19077">
        <ele>1236</ele>
        <time>2010-10-09T09:00:08Z</time>
      </trkpt>
      <trkpt lat="45.62618" lon="6.19077">
        <ele>1235</ele>
        <time>2010-10-09T09:00:09Z</time>
      </trkpt>
      <trkpt lat="45.62616" lon="6.19077">
        <ele>1235</ele>
        <time>2010-10-09T09:00:10Z</time>
      </trkpt>
      <trkpt lat="45.62614" lon="6.19076">
        <ele>1235</ele>
        <time>2010-10-09T09:00:11Z</time>
      </trkpt>
      <trkpt lat="45.62612" lon="6.19075">
        <ele>1235</ele>
        <time>2010-10-09T09:00:12Z</time>
      </trkpt>
      <trkpt lat="45.6261" lon="6.19075">
        <ele>1235</ele>
        <time>2010-10-09T09:00:13Z</time>
      </trkpt>
      <trkpt lat="45.62608" lon="6.19073">
        <ele>1235</ele>
        <time>2010-10-09T09:00:14Z</time>
      </trkpt>
      <trkpt lat="45.62607" lon="6.19073">
        <ele>1235</ele>
        <time>2010-10-09T09:00:15Z</time>
      </trkpt>
      <trkpt lat="45.62605" lon="6.19072">
        <ele>1235</ele>
        <time>2010-10-09T09:00:16Z</time>
      </trkpt>
      <trkpt lat="45.62603" lon="6.1907">
        <ele>1235</ele>
        <time>2010-10-09T09:00:17Z</time>
      </trkpt>
      <trkpt lat="45.62601" lon="6.19069">
        <ele>1235</ele>
        <time>2010-10-09T09:00:18Z</time>
      </trkpt>
      <trkpt lat="45.62599" lon="6.19069">
        <ele>1234</ele>
        <time>2010-10-09T09:00:19Z</time>
      </trkpt>
      <trkpt lat="45.62597" lon="6.19068">
        <ele>1234</ele>
        <time>2010-10-09T09:00:20Z</time>
      </trkpt>
      <trkpt lat="45.62595" lon="6.19067">
        <ele>1234</ele>
        <time>2010-10-09T09:00:21Z</time>
      </trkpt>
      <trkpt lat="45.62593" lon="6.19066">
        <ele>1234</ele>
        <time>2010-10-09T09:00:22Z</time>
      </trkpt>
      <trkpt lat="45.6259" lon="6.19065">
        <ele>1234</ele>
        <time>2010-10-09T09:00:23Z</time>
      </trkpt>
      <trkpt lat="45.62588" lon="6.19065">
        <ele>1234</ele>
        <time>2010-10-09T09:00:24Z</time>
      </trkpt>
      <trkpt lat="45.62586" lon="6.19064">
        <ele>1234</ele>
        <time>2010-10-09T09:00:25Z</time>
      </trkpt>
      <trkpt lat="45.62584" lon="6.19063">
        <ele>1235</ele>
        <time>2010-10-09T09:00:26Z</time>
      </trkpt>
      <trkpt lat="45.62582" lon="6.19063">
        <ele>1237</ele>
        <time>2010-10-09T09:00:27Z</time>
      </trkpt>
      <trkpt lat="45.6258" lon="6.19063">
        <ele>1237</ele>
        <time>2010-10-09T09:00:28Z</time>
      </trkpt>
      <trkpt lat="45.62578" lon="6.19062">
        <ele>1237</ele>
        <time>2010-10-09T09:00:29Z</time>
      </trkpt>
      <trkpt lat="45.62576" lon="6.19063">
        <ele>1237</ele>
        <time>2010-10-09T09:00:30Z</time>
      </trkpt>
      <trkpt lat="45.62574" lon="6.19063">
        <ele>1237</ele>
        <time>2010-10-09T09:00:31Z</time>
      </trkpt>
      <trkpt lat="45.6257" lon="6.19063">
        <ele>1238</ele>
        <time>2010-10-09T09:00:33Z</time>
      </trkpt>
      <trkpt lat="45.62569" lon="6.19063">
        <ele>1238</ele>
        <time>2010-10-09T09:00:34Z</time>
      </trkpt>
      <trkpt lat="45.62567" lon="6.19063">
        <ele>1239</ele>
        <time>2010-10-09T09:00:35Z</time>
      </trkpt>
      <trkpt lat="45.62565" lon="6.19063">
        <ele>1239</ele>
        <time>2010-10-09T09:00:36Z</time>
      </trkpt>
      <trkpt lat="45.62562" lon="6.19063">
        <ele>1240</ele>
        <time>2010-10-09T09:00:38Z</time>
      </trkpt>
      <trkpt lat="45.62561" lon="6.19064">
        <ele>1240</ele>
        <time>2010-10-09T09:00:39Z</time>
      </trkpt>
      <trkpt lat="45.62559" lon="6.19063">
        <ele>1240</ele>
        <time>2010-10-09T09:00:40Z</time>
      </trkpt>
      <trkpt lat="45.62558" lon="6.19065">
        <ele>1240</ele>
        <time>2010-10-09T09:00:41Z</time>
      </trkpt>
      <trkpt lat="45.62555" lon="6.19066">
        <ele>1240</ele>
        <time>2010-10-09T09:00:43Z</time>
      </trkpt>
      <trkpt lat="45.62553" lon="6.19067">
        <ele>1240</ele>
        <time>2010-10-09T09:00:44Z</time>
      </trkpt>
      <trkpt lat="45.62551" lon="6.19067">
        <ele>1241</ele>
        <time>2010-10-09T09:00:45Z</time>
      </trkpt>
      <trkpt lat="45.6255" lon="6.19067">
        <ele>1241</ele>
        <time>2010-10-09T09:00:46Z</time>
      </trkpt>
      <trkpt lat="45.62548" lon="6.19068">
        <ele>1241</ele>
        <time>2010-10-09T09:00:47Z</time>
      </trkpt>
      <trkpt lat="45.62547" lon="6.19069">
        <ele>1241</ele>
        <time>2010-10-09T09:00:48Z</time>
      </trkpt>
      <trkpt lat="45.62544" lon="6.19069">
        <ele>1241</ele>
        <time>2010-10-09T09:00:49Z</time>
      </trkpt>
      <trkpt lat="45.62542" lon="6.19071">
        <ele>1241</ele>
        <time>2010-10-09T09:00:50Z</time>
      </trkpt>
      <trkpt lat="45.6254" lon="6.19073">
        <ele>1241</ele>
        <time>2010-10-09T09:00:51Z</time>
      </trkpt>
      <trkpt lat="45.62536" lon="6.19074">
        <ele>1241</ele>
        <time>2010-10-09T09:00:53Z</time>
      </trkpt>
      <trkpt lat="45.62534" lon="6.19076">
        <ele>1241</ele>
        <time>2010-10-09T09:00:54Z</time>
      </trkpt>
      <trkpt lat="45.62532" lon="6.19077">
        <ele>1241</ele>
        <time>2010-10-09T09:00:55Z</time>
      </trkpt>
      <trkpt lat="45.62531" lon="6.19079">
        <ele>1241</ele>
        <time>2010-10-09T09:00:56Z</time>
      </trkpt>
      <trkpt lat="45.6253" lon="6.1908">
        <ele>1241</ele>
        <time>2010-10-09T09:00:58Z</time>
      </trkpt>
      <trkpt lat="45.62528" lon="6.19084">
        <ele>1225</ele>
        <time>2010-10-09T09:01:02Z</time>
      </trkpt>
      <trkpt lat="45.62526" lon="6.19087">
        <ele>1225</ele>
        <time>2010-10-09T09:01:03Z</time>
      </trkpt>
      <trkpt lat="45.62523" lon="6.19089">
        <ele>1226</ele>
        <time>2010-10-09T09:01:06Z</time>
      </trkpt>
      <trkpt lat="45.6252" lon="6.19093">
        <ele>1226</ele>
        <time>2010-10-09T09:01:08Z</time>
      </trkpt>
      <trkpt lat="45.62518" lon="6.19097">
        <ele>1226</ele>
        <time>2010-10-09T09:01:10Z</time>
      </trkpt>
      <trkpt lat="45.62517" lon="6.19099">
        <ele>1226</ele>
        <time>2010-10-09T09:01:11Z</time>
      </trkpt>
      <trkpt lat="45.62514" lon="6.19104">
        <ele>1225</ele>
        <time>2010-10-09T09:01:12Z</time>
      </trkpt>
      <trkpt lat="45.62513" lon="6.19108">
        <ele>1224</ele>
        <time>2010-10-09T09:01:14Z</time>
      </trkpt>
      <trkpt lat="45.62511" lon="6.19109">
        <ele>1224</ele>
        <time>2010-10-09T09:01:15Z</time>
      </trkpt>
      <trkpt lat="45.6251" lon="6.1911">
        <ele>1224</ele>
        <time>2010-10-09T09:01:16Z</time>
      </trkpt>
      <trkpt lat="45.62506" lon="6.19111">
        <ele>1224</ele>
        <time>2010-10-09T09:01:18Z</time>
      </trkpt>
      <trkpt lat="45.62505" lon="6.19111">
        <ele>1224</ele>
        <time>2010-10-09T09:01:19Z</time>
      </trkpt>
      <trkpt lat="45.62502" lon="6.19113">
        <ele>1224</ele>
        <time>2010-10-09T09:01:21Z</time>
      </trkpt>
      <trkpt lat="45.625" lon="6.19112">
        <ele>1232</ele>
        <time>2010-10-09T09:01:23Z</time>
      </trkpt>
      <trkpt lat="45.62498" lon="6.19112">
        <ele>1232</ele>
        <time>2010-10-09T09:01:24Z</time>
      </trkpt>
      <trkpt lat="45.62497" lon="6.19112">
        <ele>1232</ele>
        <time>2010-10-09T09:01:25Z</time>
      </trkpt>
      <trkpt lat="45.62495" lon="6.19111">
        <ele>1232</ele>
        <time>2010-10-09T09:01:26Z</time>
      </trkpt>
      <trkpt lat="45.62493" lon="6.1911">
        <ele>1232</ele>
        <time>2010-10-09T09:01:28Z</time>
      </trkpt>
      <trkpt lat="45.62492" lon="6.19109">
        <ele>1232</ele>
        <time>2010-10-09T09:01:29Z</time>
      </trkpt>
      <trkpt lat="45.6249" lon="6.19108">
        <ele>1232</ele>
        <time>2010-10-09T09:01:30Z</time>
      </trkpt>
      <trkpt lat="45.62489" lon="6.19108">
        <ele>1232</ele>
        <time>2010-10-09T09:01:31Z</time>
      </trkpt>
      <trkpt lat="45.62486" lon="6.19106">
        <ele>1233</ele>
        <time>2010-10-09T09:01:33Z</time>
      </trkpt>
      <trkpt lat="45.62485" lon="6.19105">
        <ele>1233</ele>
        <time>2010-10-09T09:01:34Z</time>
      </trkpt>
      <trkpt lat="45.62484" lon="6.19104">
        <ele>1233</ele>
        <time>2010-10-09T09:01:35Z</time>
      </trkpt>
      <trkpt lat="45.62482" lon="6.19103">
        <ele>1233</ele>
        <time>2010-10-09T09:01:36Z</time>
      </trkpt>
      <trkpt lat="45.62479" lon="6.19102">
        <ele>1233</ele>
        <time>2010-10-09T09:01:38Z</time>
      </trkpt>
      <trkpt lat="45.62477" lon="6.19102">
        <ele>1233</ele>
        <time>2010-10-09T09:01:39Z</time>
      </trkpt>
      <trkpt lat="45.62476" lon="6.19101">
        <ele>1233</ele>
        <time>2010-10-09T09:01:40Z</time>
      </trkpt>
      <trkpt lat="45.62475" lon="6.19101">
        <ele>1233</ele>
        <time>2010-10-09T09:01:41Z</time>
      </trkpt>
      <trkpt lat="45.62474" lon="6.191">
        <ele>1233</ele>
        <time>2010-10-09T09:01:42Z</time>
      </trkpt>
      <trkpt lat="45.62472" lon="6.19099">
        <ele>1233</ele>
        <time>2010-10-09T09:01:43Z</time>
      </trkpt>
      <trkpt lat="45.62471" lon="6.19098">
        <ele>1233</ele>
        <time>2010-10-09T09:01:44Z</time>
      </trkpt>
      <trkpt lat="45.6247" lon="6.19097">
        <ele>1233</ele>
        <time>2010-10-09T09:01:45Z</time>
      </trkpt>
      <trkpt lat="45.62468" lon="6.19097">
        <ele>1234</ele>
        <time>2010-10-09T09:01:46Z</time>
      </trkpt>
      <trkpt lat="45.62466" lon="6.19097">
        <ele>1234</ele>
        <time>2010-10-09T09:01:47Z</time>
      </trkpt>
      <trkpt lat="45.62465" lon="6.19097">
        <ele>1234</ele>
        <time>2010-10-09T09:01:48Z</time>
      </trkpt>
      <trkpt lat="45.62463" lon="6.19096">
        <ele>1234</ele>
        <time>2010-10-09T09:01:49Z</time>
      </trkpt>
      <trkpt lat="45.62461" lon="6.19096">
        <ele>1234</ele>
        <time>2010-10-09T09:01:50Z</time>
      </trkpt>
      <trkpt lat="45.6246" lon="6.19095">
        <ele>1234</ele>
        <time>2010-10-09T09:01:51Z</time>
      </trkpt>
      <trkpt lat="45.62459" lon="6.19095">
        <ele>1234</ele>
        <time>2010-10-09T09:01:52Z</time>
      </trkpt>
      <trkpt lat="45.62457" lon="6.19095">
        <ele>1234</ele>
        <time>2010-10-09T09:01:53Z</time>
      </trkpt>
      <trkpt lat="45.62456" lon="6.19095">
        <ele>1234</ele>
        <time>2010-10-09T09:01:54Z</time>
      </trkpt>
      <trkpt lat="45.62455" lon="6.19095">
        <ele>1234</ele>
        <time>2010-10-09T09:01:55Z</time>
      </trkpt>
      <trkpt lat="45.62453" lon="6.19094">
        <ele>1235</ele>
        <time>2010-10-09T09:01:56Z</time>
      </trkpt>
      <trkpt lat="45.62452" lon="6.19094">
        <ele>1235</ele>
        <time>2010-10-09T09:01:58Z</time>
      </trkpt>
      <trkpt lat="45.62449" lon="6.19095">
        <ele>1235</ele>
        <time>2010-10-09T09:01:59Z</time>
      </trkpt>
      <trkpt lat="45.62447" lon="6.19095">
        <ele>1235</ele>
        <time>2010-10-09T09:02:00Z</time>
      </trkpt>
      <trkpt lat="45.62446" lon="6.19096">
        <ele>1235</ele>
        <time>2010-10-09T09:02:01Z</time>
      </trkpt>
      <trkpt lat="45.62444" lon="6.19095">
        <ele>1236</ele>
        <time>2010-10-09T09:02:02Z</time>
      </trkpt>
      <trkpt lat="45.62442" lon="6.19095">
        <ele>1236</ele>
        <time>2010-10-09T09:02:03Z</time>
      </trkpt>
      <trkpt lat="45.6244" lon="6.19095">
        <ele>1236</ele>
        <time>2010-10-09T09:02:04Z</time>
      </trkpt>
      <trkpt lat="45.62438" lon="6.19095">
        <ele>1236</ele>
        <time>2010-10-09T09:02:05Z</time>
      </trkpt>
      <trkpt lat="45.62436" lon="6.19095">
        <ele>1237</ele>
        <time>2010-10-09T09:02:06Z</time>
      </trkpt>
      <trkpt lat="45.62434" lon="6.19096">
        <ele>1237</ele>
        <time>2010-10-09T09:02:08Z</time>
      </trkpt>
      <trkpt lat="45.62432" lon="6.19096">
        <ele>1237</ele>
        <time>2010-10-09T09:02:09Z</time>
      </trkpt>
      <trkpt lat="45.62431" lon="6.19095">
        <ele>1238</ele>
        <time>2010-10-09T09:02:10Z</time>
      </trkpt>
      <trkpt lat="45.62429" lon="6.19095">
        <ele>1238</ele>
        <time>2010-10-09T09:02:11Z</time>
      </trkpt>
      <trkpt lat="45.62426" lon="6.19095">
        <ele>1239</ele>
        <time>2010-10-09T09:02:13Z</time>
      </trkpt>
      <trkpt lat="45.62424" lon="6.19096">
        <ele>1239</ele>
        <time>2010-10-09T09:02:14Z</time>
      </trkpt>
      <trkpt lat="45.62422" lon="6.19096">
        <ele>1239</ele>
        <time>2010-10-09T09:02:16Z</time>
      </trkpt>
      <trkpt lat="45.62418" lon="6.19097">
        <ele>1239</ele>
        <time>2010-10-09T09:02:18Z</time>
      </trkpt>
      <trkpt lat="45.62417" lon="6.19097">
        <ele>1239</ele>
        <time>2010-10-09T09:02:19Z</time>
      </trkpt>
      <trkpt lat="45.62414" lon="6.19098">
        <ele>1243</ele>
        <time>2010-10-09T09:02:21Z</time>
      </trkpt>
      <trkpt lat="45.62411" lon="6.19099">
        <ele>1243</ele>
        <time>2010-10-09T09:02:23Z</time>
      </trkpt>
      <trkpt lat="45.6241" lon="6.191">
        <ele>1243</ele>
        <time>2010-10-09T09:02:24Z</time>
      </trkpt>
      <trkpt lat="45.62408" lon="6.19101">
        <ele>1243</ele>
        <time>2010-10-09T09:02:25Z</time>
      </trkpt>
      <trkpt lat="45.62407" lon="6.19102">
        <ele>1243</ele>
        <time>2010-10-09T09:02:27Z</time>
      </trkpt>
      <trkpt lat="45.62405" lon="6.19105">
        <ele>1243</ele>
        <time>2010-10-09T09:02:30Z</time>
      </trkpt>
      <trkpt lat="45.62404" lon="6.19107">
        <ele>1242</ele>
        <time>2010-10-09T09:02:31Z</time>
      </trkpt>
      <trkpt lat="45.62401" lon="6.19108">
        <ele>1242</ele>
        <time>2010-10-09T09:02:33Z</time>
      </trkpt>
      <trkpt lat="45.624" lon="6.19108">
        <ele>1242</ele>
        <time>2010-10-09T09:02:34Z</time>
      </trkpt>
      <trkpt lat="45.62399" lon="6.19109">
        <ele>1242</ele>
        <time>2010-10-09T09:02:35Z</time>
      </trkpt>
      <trkpt lat="45.62397" lon="6.19109">
        <ele>1242</ele>
        <time>2010-10-09T09:02:36Z</time>
      </trkpt>
      <trkpt lat="45.62394" lon="6.19109">
        <ele>1243</ele>
        <time>2010-10-09T09:02:39Z</time>
      </trkpt>
      <trkpt lat="45.6239" lon="6.1911">
        <ele>1243</ele>
        <time>2010-10-09T09:02:42Z</time>
      </trkpt>
      <trkpt lat="45.62389" lon="6.1911">
        <ele>1243</ele>
        <time>2010-10-09T09:02:43Z</time>
      </trkpt>
      <trkpt lat="45.62386" lon="6.19111">
        <ele>1243</ele>
        <time>2010-10-09T09:02:44Z</time>
      </trkpt>
      <trkpt lat="45.62383" lon="6.19111">
        <ele>1243</ele>
        <time>2010-10-09T09:02:46Z</time>
      </trkpt>
      <trkpt lat="45.62381" lon="6.19113">
        <ele>1243</ele>
        <time>2010-10-09T09:02:48Z</time>
      </trkpt>
      <trkpt lat="45.6238" lon="6.19114">
        <ele>1243</ele>
        <time>2010-10-09T09:02:49Z</time>
      </trkpt>
      <trkpt lat="45.62379" lon="6.19115">
        <ele>1243</ele>
        <time>2010-10-09T09:02:50Z</time>
      </trkpt>
      <trkpt lat="45.62377" lon="6.19114">
        <ele>1243</ele>
        <time>2010-10-09T09:02:52Z</time>
      </trkpt>
      <trkpt lat="45.62374" lon="6.19114">
        <ele>1243</ele>
        <time>2010-10-09T09:02:53Z</time>
      </trkpt>
      <trkpt lat="45.6237" lon="6.19114">
        <ele>1244</ele>
        <time>2010-10-09T09:02:54Z</time>
      </trkpt>
      <trkpt lat="45.62368" lon="6.19114">
        <ele>1244</ele>
        <time>2010-10-09T09:02:55Z</time>
      </trkpt>
      <trkpt lat="45.62366" lon="6.19115">
        <ele>1244</ele>
        <time>2010-10-09T09:02:56Z</time>
      </trkpt>
      <trkpt lat="45.62363" lon="6.19115">
        <ele>1244</ele>
        <time>2010-10-09T09:02:58Z</time>
      </trkpt>
      <trkpt lat="45.62361" lon="6.19116">
        <ele>1244</ele>
        <time>2010-10-09T09:03:01Z</time>
      </trkpt>
      <trkpt lat="45.62359" lon="6.19117">
        <ele>1244</ele>
        <time>2010-10-09T09:03:02Z</time>
      </trkpt>
      <trkpt lat="45.62355" lon="6.19119">
        <ele>1244</ele>
        <time>2010-10-09T09:03:03Z</time>
      </trkpt>
      <trkpt lat="45.62353" lon="6.19121">
        <ele>1244</ele>
        <time>2010-10-09T09:03:05Z</time>
      </trkpt>
      <trkpt lat="45.6235" lon="6.19122">
        <ele>1244</ele>
        <time>2010-10-09T09:03:07Z</time>
      </trkpt>
      <trkpt lat="45.62349" lon="6.19122">
        <ele>1244</ele>
        <time>2010-10-09T09:03:08Z</time>
      </trkpt>
      <trkpt lat="45.62348" lon="6.19124">
        <ele>1244</ele>
        <time>2010-10-09T09:03:09Z</time>
      </trkpt>
      <trkpt lat="45.62347" lon="6.19124">
        <ele>1244</ele>
        <time>2010-10-09T09:03:10Z</time>
      </trkpt>
      <trkpt lat="45.62345" lon="6.19125">
        <ele>1244</ele>
        <time>2010-10-09T09:03:11Z</time>
      </trkpt>
      <trkpt lat="45.62343" lon="6.19127">
        <ele>1244</ele>
        <time>2010-10-09T09:03:13Z</time>
      </trkpt>
      <trkpt lat="45.62341" lon="6.19129">
        <ele>1244</ele>
        <time>2010-10-09T09:03:14Z</time>
      </trkpt>
      <trkpt lat="45.62339" lon="6.1913">
        <ele>1244</ele>
        <time>2010-10-09T09:03:15Z</time>
      </trkpt>
      <trkpt lat="45.62337" lon="6.19131">
        <ele>1243</ele>
        <time>2010-10-09T09:03:16Z</time>
      </trkpt>
      <trkpt lat="45.62334" lon="6.19134">
        <ele>1243</ele>
        <time>2010-10-09T09:03:18Z</time>
      </trkpt>
      <trkpt lat="45.62332" lon="6.19135">
        <ele>1251</ele>
        <time>2010-10-09T09:03:19Z</time>
      </trkpt>
      <trkpt lat="45.62331" lon="6.19136">
        <ele>1250</ele>
        <time>2010-10-09T09:03:20Z</time>
      </trkpt>
      <trkpt lat="45.62329" lon="6.19137">
        <ele>1250</ele>
        <time>2010-10-09T09:03:21Z</time>
      </trkpt>
      <trkpt lat="45.62326" lon="6.19138">
        <ele>1250</ele>
        <time>2010-10-09T09:03:23Z</time>
      </trkpt>
      <trkpt lat="45.62325" lon="6.19139">
        <ele>1250</ele>
        <time>2010-10-09T09:03:25Z</time>
      </trkpt>
      <trkpt lat="45.62322" lon="6.19141">
        <ele>1250</ele>
        <time>2010-10-09T09:03:26Z</time>
      </trkpt>
      <trkpt lat="45.62318" lon="6.19141">
        <ele>1250</ele>
        <time>2010-10-09T09:03:28Z</time>
      </trkpt>
      <trkpt lat="45.62317" lon="6.19142">
        <ele>1250</ele>
        <time>2010-10-09T09:03:29Z</time>
      </trkpt>
      <trkpt lat="45.62315" lon="6.19143">
        <ele>1250</ele>
        <time>2010-10-09T09:03:30Z</time>
      </trkpt>
      <trkpt lat="45.62313" lon="6.19144">
        <ele>1250</ele>
        <time>2010-10-09T09:03:31Z</time>
      </trkpt>
      <trkpt lat="45.6231" lon="6.19146">
        <ele>1251</ele>
        <time>2010-10-09T09:03:33Z</time>
      </trkpt>
      <trkpt lat="45.62308" lon="6.19147">
        <ele>1251</ele>
        <time>2010-10-09T09:03:34Z</time>
      </trkpt>
      <trkpt lat="45.62306" lon="6.19147">
        <ele>1251</ele>
        <time>2010-10-09T09:03:35Z</time>
      </trkpt>
      <trkpt lat="45.62305" lon="6.19147">
        <ele>1251</ele>
        <time>2010-10-09T09:03:36Z</time>
      </trkpt>
      <trkpt lat="45.62302" lon="6.19146">
        <ele>1252</ele>
        <time>2010-10-09T09:03:38Z</time>
      </trkpt>
      <trkpt lat="45.623" lon="6.19147">
        <ele>1252</ele>
        <time>2010-10-09T09:03:40Z</time>
      </trkpt>
      <trkpt lat="45.62298" lon="6.19148">
        <ele>1252</ele>
        <time>2010-10-09T09:03:42Z</time>
      </trkpt>
      <trkpt lat="45.62296" lon="6.19147">
        <ele>1252</ele>
        <time>2010-10-09T09:03:43Z</time>
      </trkpt>
      <trkpt lat="45.62294" lon="6.19146">
        <ele>1253</ele>
        <time>2010-10-09T09:03:45Z</time>
      </trkpt>
      <trkpt lat="45.62293" lon="6.19144">
        <ele>1253</ele>
        <time>2010-10-09T09:03:50Z</time>
      </trkpt>
      <trkpt lat="45.62293" lon="6.19142">
        <ele>1253</ele>
        <time>2010-10-09T09:03:54Z</time>
      </trkpt>
      <trkpt lat="45.62294" lon="6.19141">
        <ele>1253</ele>
        <time>2010-10-09T09:03:58Z</time>
      </trkpt>
      <trkpt lat="45.62296" lon="6.1914">
        <ele>1253</ele>
        <time>2010-10-09T09:04:03Z</time>
      </trkpt>
      <trkpt lat="45.62293" lon="6.19141">
        <ele>1253</ele>
        <time>2010-10-09T09:04:05Z</time>
      </trkpt>
      <trkpt lat="45.62291" lon="6.19142">
        <ele>1253</ele>
        <time>2010-10-09T09:04:06Z</time>
      </trkpt>
      <trkpt lat="45.62289" lon="6.19143">
        <ele>1253</ele>
        <time>2010-10-09T09:04:09Z</time>
      </trkpt>
      <trkpt lat="45.62288" lon="6.19145">
        <ele>1253</ele>
        <time>2010-10-09T09:04:12Z</time>
      </trkpt>
      <trkpt lat="45.62286" lon="6.19146">
        <ele>1254</ele>
        <time>2010-10-09T09:04:15Z</time>
      </trkpt>
      <trkpt lat="45.62288" lon="6.19146">
        <ele>1253</ele>
        <time>2010-10-09T09:04:17Z</time>
      </trkpt>
      <trkpt lat="45.6229" lon="6.19146">
        <ele>1253</ele>
        <time>2010-10-09T09:04:18Z</time>
      </trkpt>
      <trkpt lat="45.62294" lon="6.19145">
        <ele>1253</ele>
        <time>2010-10-09T09:04:21Z</time>
      </trkpt>
      <trkpt lat="45.62293" lon="6.19145">
        <ele>1253</ele>
        <time>2010-10-09T09:04:22Z</time>
      </trkpt>
      <trkpt lat="45.62291" lon="6.19146">
        <ele>1253</ele>
        <time>2010-10-09T09:04:23Z</time>
      </trkpt>
      <trkpt lat="45.62292" lon="6.19147">
        <ele>1253</ele>
        <time>2010-10-09T09:04:26Z</time>
      </trkpt>
      <trkpt lat="45.62302" lon="6.19139">
        <ele>1252</ele>
        <time>2010-10-09T09:04:30Z</time>
      </trkpt>
      <trkpt lat="45.62297" lon="6.19139">
        <ele>1253</ele>
        <time>2010-10-09T09:04:33Z</time>
      </trkpt>
      <trkpt lat="45.62295" lon="6.1914">
        <ele>1253</ele>
        <time>2010-10-09T09:04:34Z</time>
      </trkpt>
      <trkpt lat="45.62293" lon="6.1914">
        <ele>1253</ele>
        <time>2010-10-09T09:04:35Z</time>
      </trkpt>
      <trkpt lat="45.62291" lon="6.19141">
        <ele>1253</ele>
        <time>2010-10-09T09:04:36Z</time>
      </trkpt>
      <trkpt lat="45.62292" lon="6.1914">
        <ele>1253</ele>
        <time>2010-10-09T09:04:40Z</time>
      </trkpt>
      <trkpt lat="45.62289" lon="6.19142">
        <ele>1253</ele>
        <time>2010-10-09T09:04:43Z</time>
      </trkpt>
      <trkpt lat="45.62288" lon="6.19145">
        <ele>1253</ele>
        <time>2010-10-09T09:04:45Z</time>
      </trkpt>
      <trkpt lat="45.62289" lon="6.19146">
        <ele>1253</ele>
        <time>2010-10-09T09:04:49Z</time>
      </trkpt>
      <trkpt lat="45.6229" lon="6.19147">
        <ele>1253</ele>
        <time>2010-10-09T09:04:52Z</time>
      </trkpt>
      <trkpt lat="45.62291" lon="6.19148">
        <ele>1253</ele>
        <time>2010-10-09T09:04:59Z</time>
      </trkpt>
      <trkpt lat="45.62288" lon="6.1915">
        <ele>1253</ele>
        <time>2010-10-09T09:05:02Z</time>
      </trkpt>
      <trkpt lat="45.62286" lon="6.1915">
        <ele>1253</ele>
        <time>2010-10-09T09:05:07Z</time>
      </trkpt>
      <trkpt lat="45.62286" lon="6.19144">
        <ele>1254</ele>
        <time>2010-10-09T09:05:12Z</time>
      </trkpt>
      <trkpt lat="45.62288" lon="6.19144">
        <ele>1254</ele>
        <time>2010-10-09T09:05:14Z</time>
      </trkpt>
      <trkpt lat="45.62289" lon="6.19144">
        <ele>1253</ele>
        <time>2010-10-09T09:05:16Z</time>
      </trkpt>
      <trkpt lat="45.62291" lon="6.19143">
        <ele>1253</ele>
        <time>2010-10-09T09:05:18Z</time>
      </trkpt>
      <trkpt lat="45.62292" lon="6.19143">
        <ele>1253</ele>
        <time>2010-10-09T09:05:20Z</time>
      </trkpt>
      <trkpt lat="45.62293" lon="6.19142">
        <ele>1253</ele>
        <time>2010-10-09T09:05:22Z</time>
      </trkpt>
      <trkpt lat="45.62295" lon="6.19142">
        <ele>1253</ele>
        <time>2010-10-09T09:05:27Z</time>
      </trkpt>
      <trkpt lat="45.62286" lon="6.19142">
        <ele>1254</ele>
        <time>2010-10-09T09:05:31Z</time>
      </trkpt>
      <trkpt lat="45.62286" lon="6.1914">
        <ele>1254</ele>
        <time>2010-10-09T09:05:33Z</time>
      </trkpt>
      <trkpt lat="45.62286" lon="6.19139">
        <ele>1254</ele>
        <time>2010-10-09T09:05:38Z</time>
      </trkpt>
      <trkpt lat="45.62284" lon="6.19139">
        <ele>1254</ele>
        <time>2010-10-09T09:05:41Z</time>
      </trkpt>
      <trkpt lat="45.62282" lon="6.19139">
        <ele>1254</ele>
        <time>2010-10-09T09:05:43Z</time>
      </trkpt>
      <trkpt lat="45.62281" lon="6.19138">
        <ele>1254</ele>
        <time>2010-10-09T09:05:44Z</time>
      </trkpt>
      <trkpt lat="45.6228" lon="6.19138">
        <ele>1254</ele>
        <time>2010-10-09T09:05:45Z</time>
      </trkpt>
      <trkpt lat="45.62279" lon="6.1914">
        <ele>1254</ele>
        <time>2010-10-09T09:05:47Z</time>
      </trkpt>
      <trkpt lat="45.62279" lon="6.19142">
        <ele>1254</ele>
        <time>2010-10-09T09:05:50Z</time>
      </trkpt>
      <trkpt lat="45.62278" lon="6.19144">
        <ele>1254</ele>
        <time>2010-10-09T09:05:51Z</time>
      </trkpt>
      <trkpt lat="45.62282" lon="6.19144">
        <ele>1254</ele>
        <time>2010-10-09T09:05:59Z</time>
      </trkpt>
      <trkpt lat="45.62284" lon="6.19144">
        <ele>1254</ele>
        <time>2010-10-09T09:06:01Z</time>
      </trkpt>
      <trkpt lat="45.62286" lon="6.19143">
        <ele>1254</ele>
        <time>2010-10-09T09:06:07Z</time>
      </trkpt>
      <trkpt lat="45.62287" lon="6.19143">
        <ele>1254</ele>
        <time>2010-10-09T09:06:10Z</time>
      </trkpt>
      <trkpt lat="45.62289" lon="6.19143">
        <ele>1253</ele>
        <time>2010-10-09T09:06:14Z</time>
      </trkpt>
      <trkpt lat="45.6229" lon="6.19142">
        <ele>1253</ele>
        <time>2010-10-09T09:06:17Z</time>
      </trkpt>
      <trkpt lat="45.62294" lon="6.19139">
        <ele>1253</ele>
        <time>2010-10-09T09:06:22Z</time>
      </trkpt>
      <trkpt lat="45.62296" lon="6.19137">
        <ele>1253</ele>
        <time>2010-10-09T09:06:23Z</time>
      </trkpt>
      <trkpt lat="45.62297" lon="6.19136">
        <ele>1253</ele>
        <time>2010-10-09T09:06:28Z</time>
      </trkpt>
      <trkpt lat="45.62296" lon="6.19136">
        <ele>1253</ele>
        <time>2010-10-09T09:06:30Z</time>
      </trkpt>
      <trkpt lat="45.62293" lon="6.19141">
        <ele>1253</ele>
        <time>2010-10-09T09:06:37Z</time>
      </trkpt>
      <trkpt lat="45.62284" lon="6.19152">
        <ele>1253</ele>
        <time>2010-10-09T09:06:46Z</time>
      </trkpt>
      <trkpt lat="45.62282" lon="6.19154">
        <ele>1254</ele>
        <time>2010-10-09T09:06:48Z</time>
      </trkpt>
      <trkpt lat="45.6228" lon="6.19155">
        <ele>1254</ele>
        <time>2010-10-09T09:06:49Z</time>
      </trkpt>
      <trkpt lat="45.62278" lon="6.19156">
        <ele>1254</ele>
        <time>2010-10-09T09:06:50Z</time>
      </trkpt>
      <trkpt lat="45.62274" lon="6.19157">
        <ele>1254</ele>
        <time>2010-10-09T09:06:54Z</time>
      </trkpt>
      <trkpt lat="45.6227" lon="6.19159">
        <ele>1255</ele>
        <time>2010-10-09T09:06:55Z</time>
      </trkpt>
      <trkpt lat="45.62265" lon="6.19162">
        <ele>1255</ele>
        <time>2010-10-09T09:06:59Z</time>
      </trkpt>
      <trkpt lat="45.62262" lon="6.19165">
        <ele>1255</ele>
        <time>2010-10-09T09:07:00Z</time>
      </trkpt>
      <trkpt lat="45.6226" lon="6.19165">
        <ele>1255</ele>
        <time>2010-10-09T09:07:01Z</time>
      </trkpt>
      <trkpt lat="45.6226" lon="6.19167">
        <ele>1254</ele>
        <time>2010-10-09T09:07:05Z</time>
      </trkpt>
      <trkpt lat="45.62258" lon="6.19175">
        <ele>1254</ele>
        <time>2010-10-09T09:07:07Z</time>
      </trkpt>
      <trkpt lat="45.62259" lon="6.1918">
        <ele>1254</ele>
        <time>2010-10-09T09:07:08Z</time>
      </trkpt>
      <trkpt lat="45.6226" lon="6.19187">
        <ele>1253</ele>
        <time>2010-10-09T09:07:12Z</time>
      </trkpt>
      <trkpt lat="45.62264" lon="6.1919">
        <ele>1253</ele>
        <time>2010-10-09T09:07:14Z</time>
      </trkpt>
      <trkpt lat="45.62269" lon="6.19196">
        <ele>1253</ele>
        <time>2010-10-09T09:07:18Z</time>
      </trkpt>
      <trkpt lat="45.62273" lon="6.19199">
        <ele>1252</ele>
        <time>2010-10-09T09:07:20Z</time>
      </trkpt>
      <trkpt lat="45.62278" lon="6.19201">
        <ele>1252</ele>
        <time>2010-10-09T09:07:25Z</time>
      </trkpt>
      <trkpt lat="45.62283" lon="6.19206">
        <ele>1252</ele>
        <time>2010-10-09T09:07:30Z</time>
      </trkpt>
      <trkpt lat="45.62289" lon="6.19211">
        <ele>1251</ele>
        <time>2010-10-09T09:07:32Z</time>
      </trkpt>
      <trkpt lat="45.62289" lon="6.19212">
        <ele>1251</ele>
        <time>2010-10-09T09:07:33Z</time>
      </trkpt>
      <trkpt lat="45.6229" lon="6.19217">
        <ele>1251</ele>
        <time>2010-10-09T09:07:38Z</time>
      </trkpt>
      <trkpt lat="45.6229" lon="6.19222">
        <ele>1252</ele>
        <time>2010-10-09T09:07:39Z</time>
      </trkpt>
      <trkpt lat="45.6229" lon="6.19225">
        <ele>1252</ele>
        <time>2010-10-09T09:07:40Z</time>
      </trkpt>
      <trkpt lat="45.6229" lon="6.19233">
        <ele>1252</ele>
        <time>2010-10-09T09:07:45Z</time>
      </trkpt>
      <trkpt lat="45.62291" lon="6.19239">
        <ele>1252</ele>
        <time>2010-10-09T09:07:46Z</time>
      </trkpt>
      <trkpt lat="45.62293" lon="6.19243">
        <ele>1252</ele>
        <time>2010-10-09T09:07:50Z</time>
      </trkpt>
      <trkpt lat="45.62297" lon="6.19251">
        <ele>1258</ele>
        <time>2010-10-09T09:07:52Z</time>
      </trkpt>
      <trkpt lat="45.62297" lon="6.19254">
        <ele>1258</ele>
        <time>2010-10-09T09:07:53Z</time>
      </trkpt>
      <trkpt lat="45.62302" lon="6.19259">
        <ele>1258</ele>
        <time>2010-10-09T09:07:57Z</time>
      </trkpt>
      <trkpt lat="45.62304" lon="6.19263">
        <ele>1258</ele>
        <time>2010-10-09T09:07:58Z</time>
      </trkpt>
      <trkpt lat="45.62306" lon="6.19269">
        <ele>1258</ele>
        <time>2010-10-09T09:08:02Z</time>
      </trkpt>
      <trkpt lat="45.62309" lon="6.19275">
        <ele>1259</ele>
        <time>2010-10-09T09:08:04Z</time>
      </trkpt>
      <trkpt lat="45.62313" lon="6.1928">
        <ele>1259</ele>
        <time>2010-10-09T09:08:09Z</time>
      </trkpt>
      <trkpt lat="45.62317" lon="6.19284">
        <ele>1259</ele>
        <time>2010-10-09T09:08:10Z</time>
      </trkpt>
      <trkpt lat="45.62318" lon="6.19285">
        <ele>1259</ele>
        <time>2010-10-09T09:08:11Z</time>
      </trkpt>
      <trkpt lat="45.62325" lon="6.1929">
        <ele>1259</ele>
        <time>2010-10-09T09:08:15Z</time>
      </trkpt>
      <trkpt lat="45.62326" lon="6.19292">
        <ele>1260</ele>
        <time>2010-10-09T09:08:16Z</time>
      </trkpt>
      <trkpt lat="45.62329" lon="6.19296">
        <ele>1260</ele>
        <time>2010-10-09T09:08:21Z</time>
      </trkpt>
      <trkpt lat="45.62334" lon="6.19305">
        <ele>1253</ele>
        <time>2010-10-09T09:08:23Z</time>
      </trkpt>
      <trkpt lat="45.62336" lon="6.19308">
        <ele>1253</ele>
        <time>2010-10-09T09:08:24Z</time>
      </trkpt>
      <trkpt lat="45.62335" lon="6.19317">
        <ele>1256</ele>
        <time>2010-10-09T09:08:27Z</time>
      </trkpt>
      <trkpt lat="45.62334" lon="6.19322">
        <ele>1258</ele>
        <time>2010-10-09T09:08:28Z</time>
      </trkpt>
      <trkpt lat="45.62331" lon="6.19329">
        <ele>1263</ele>
        <time>2010-10-09T09:08:31Z</time>
      </trkpt>
      <trkpt lat="45.62326" lon="6.19336">
        <ele>1269</ele>
        <time>2010-10-09T09:08:35Z</time>
      </trkpt>
      <trkpt lat="45.6232" lon="6.19339">
        <ele>1273</ele>
        <time>2010-10-09T09:08:36Z</time>
      </trkpt>
      <trkpt lat="45.62318" lon="6.19339">
        <ele>1274</ele>
        <time>2010-10-09T09:08:38Z</time>
      </trkpt>
      <trkpt lat="45.62311" lon="6.19334">
        <ele>1276</ele>
        <time>2010-10-09T09:08:42Z</time>
      </trkpt>
      <trkpt lat="45.62308" lon="6.19328">
        <ele>1263</ele>
        <time>2010-10-09T09:08:44Z</time>
      </trkpt>
      <trkpt lat="45.62307" lon="6.19322">
        <ele>1263</ele>
        <time>2010-10-09T09:08:46Z</time>
      </trkpt>
      <trkpt lat="45.62306" lon="6.19317">
        <ele>1263</ele>
        <time>2010-10-09T09:08:50Z</time>
      </trkpt>
      <trkpt lat="45.62305" lon="6.1931">
        <ele>1263</ele>
        <time>2010-10-09T09:08:51Z</time>
      </trkpt>
      <trkpt lat="45.62303" lon="6.19307">
        <ele>1262</ele>
        <time>2010-10-09T09:08:55Z</time>
      </trkpt>
      <trkpt lat="45.62299" lon="6.19297">
        <ele>1262</ele>
        <time>2010-10-09T09:09:02Z</time>
      </trkpt>
      <trkpt lat="45.62292" lon="6.19291">
        <ele>1262</ele>
        <time>2010-10-09T09:09:04Z</time>
      </trkpt>
      <trkpt lat="45.62288" lon="6.19288">
        <ele>1262</ele>
        <time>2010-10-09T09:09:07Z</time>
      </trkpt>
      <trkpt lat="45.62283" lon="6.19286">
        <ele>1262</ele>
        <time>2010-10-09T09:09:09Z</time>
      </trkpt>
      <trkpt lat="45.62278" lon="6.19284">
        <ele>1262</ele>
        <time>2010-10-09T09:09:13Z</time>
      </trkpt>
      <trkpt lat="45.62274" lon="6.19282">
        <ele>1262</ele>
        <time>2010-10-09T09:09:14Z</time>
      </trkpt>
      <trkpt lat="45.62269" lon="6.19281">
        <ele>1263</ele>
        <time>2010-10-09T09:09:18Z</time>
      </trkpt>
      <trkpt lat="45.62264" lon="6.19279">
        <ele>1263</ele>
        <time>2010-10-09T09:09:20Z</time>
      </trkpt>
      <trkpt lat="45.62258" lon="6.19276">
        <ele>1263</ele>
        <time>2010-10-09T09:09:24Z</time>
      </trkpt>
      <trkpt lat="45.62256" lon="6.19275">
        <ele>1263</ele>
        <time>2010-10-09T09:09:25Z</time>
      </trkpt>
      <trkpt lat="45.62251" lon="6.19273">
        <ele>1262</ele>
        <time>2010-10-09T09:09:30Z</time>
      </trkpt>
      <trkpt lat="45.62247" lon="6.19271">
        <ele>1270</ele>
        <time>2010-10-09T09:09:31Z</time>
      </trkpt>
      <trkpt lat="45.6224" lon="6.19268">
        <ele>1270</ele>
        <time>2010-10-09T09:09:35Z</time>
      </trkpt>
      <trkpt lat="45.62235" lon="6.19265">
        <ele>1270</ele>
        <time>2010-10-09T09:09:41Z</time>
      </trkpt>
      <trkpt lat="45.62228" lon="6.19262">
        <ele>1271</ele>
        <time>2010-10-09T09:09:42Z</time>
      </trkpt>
      <trkpt lat="45.62225" lon="6.19261">
        <ele>1271</ele>
        <time>2010-10-09T09:09:46Z</time>
      </trkpt>
      <trkpt lat="45.62218" lon="6.19259">
        <ele>1272</ele>
        <time>2010-10-09T09:09:48Z</time>
      </trkpt>
      <trkpt lat="45.62213" lon="6.19257">
        <ele>1273</ele>
        <time>2010-10-09T09:09:52Z</time>
      </trkpt>
      <trkpt lat="45.6221" lon="6.19256">
        <ele>1273</ele>
        <time>2010-10-09T09:09:53Z</time>
      </trkpt>
      <trkpt lat="45.62204" lon="6.19255">
        <ele>1274</ele>
        <time>2010-10-09T09:09:57Z</time>
      </trkpt>
      <trkpt lat="45.622" lon="6.19253">
        <ele>1274</ele>
        <time>2010-10-09T09:09:59Z</time>
      </trkpt>
      <trkpt lat="45.62194" lon="6.19251">
        <ele>1274</ele>
        <time>2010-10-09T09:10:03Z</time>
      </trkpt>
      <trkpt lat="45.6219" lon="6.19249">
        <ele>1268</ele>
        <time>2010-10-09T09:10:04Z</time>
      </trkpt>
      <trkpt lat="45.62185" lon="6.19247">
        <ele>1269</ele>
        <time>2010-10-09T09:10:09Z</time>
      </trkpt>
      <trkpt lat="45.62179" lon="6.19245">
        <ele>1270</ele>
        <time>2010-10-09T09:10:10Z</time>
      </trkpt>
      <trkpt lat="45.62173" lon="6.19243">
        <ele>1271</ele>
        <time>2010-10-09T09:10:14Z</time>
      </trkpt>
      <trkpt lat="45.6217" lon="6.19241">
        <ele>1271</ele>
        <time>2010-10-09T09:10:16Z</time>
      </trkpt>
      <trkpt lat="45.62166" lon="6.1924">
        <ele>1274</ele>
        <time>2010-10-09T09:10:20Z</time>
      </trkpt>
      <trkpt lat="45.6216" lon="6.19238">
        <ele>1274</ele>
        <time>2010-10-09T09:10:21Z</time>
      </trkpt>
      <trkpt lat="45.62157" lon="6.19237">
        <ele>1274</ele>
        <time>2010-10-09T09:10:25Z</time>
      </trkpt>
      <trkpt lat="45.6215" lon="6.19233">
        <ele>1274</ele>
        <time>2010-10-09T09:10:27Z</time>
      </trkpt>
      <trkpt lat="45.62143" lon="6.19231">
        <ele>1275</ele>
        <time>2010-10-09T09:10:31Z</time>
      </trkpt>
      <trkpt lat="45.62139" lon="6.19233">
        <ele>1275</ele>
        <time>2010-10-09T09:10:33Z</time>
      </trkpt>
      <trkpt lat="45.62137" lon="6.19234">
        <ele>1275</ele>
        <time>2010-10-09T09:10:34Z</time>
      </trkpt>
      <trkpt lat="45.62132" lon="6.19237">
        <ele>1276</ele>
        <time>2010-10-09T09:10:39Z</time>
      </trkpt>
      <trkpt lat="45.62123" lon="6.19241">
        <ele>1277</ele>
        <time>2010-10-09T09:10:44Z</time>
      </trkpt>
      <trkpt lat="45.62119" lon="6.19241">
        <ele>1277</ele>
        <time>2010-10-09T09:10:46Z</time>
      </trkpt>
      <trkpt lat="45.62115" lon="6.19241">
        <ele>1278</ele>
        <time>2010-10-09T09:10:50Z</time>
      </trkpt>
      <trkpt lat="45.62111" lon="6.1924">
        <ele>1278</ele>
        <time>2010-10-09T09:10:51Z</time>
      </trkpt>
      <trkpt lat="45.6211" lon="6.19239">
        <ele>1278</ele>
        <time>2010-10-09T09:10:53Z</time>
      </trkpt>
      <trkpt lat="45.62107" lon="6.19238">
        <ele>1278</ele>
        <time>2010-10-09T09:10:57Z</time>
      </trkpt>
      <trkpt lat="45.62102" lon="6.19237">
        <ele>1279</ele>
        <time>2010-10-09T09:10:58Z</time>
      </trkpt>
      <trkpt lat="45.62098" lon="6.19236">
        <ele>1280</ele>
        <time>2010-10-09T09:11:02Z</time>
      </trkpt>
      <trkpt lat="45.62094" lon="6.19236">
        <ele>1280</ele>
        <time>2010-10-09T09:11:04Z</time>
      </trkpt>
      <trkpt lat="45.6209" lon="6.19238">
        <ele>1281</ele>
        <time>2010-10-09T09:11:08Z</time>
      </trkpt>
      <trkpt lat="45.62087" lon="6.19238">
        <ele>1281</ele>
        <time>2010-10-09T09:11:09Z</time>
      </trkpt>
      <trkpt lat="45.62084" lon="6.19238">
        <ele>1282</ele>
        <time>2010-10-09T09:11:11Z</time>
      </trkpt>
      <trkpt lat="45.62081" lon="6.19238">
        <ele>1285</ele>
        <time>2010-10-09T09:11:15Z</time>
      </trkpt>
      <trkpt lat="45.62077" lon="6.19237">
        <ele>1285</ele>
        <time>2010-10-09T09:11:16Z</time>
      </trkpt>
      <trkpt lat="45.62074" lon="6.19237">
        <ele>1285</ele>
        <time>2010-10-09T09:11:20Z</time>
      </trkpt>
      <trkpt lat="45.62069" lon="6.19236">
        <ele>1285</ele>
        <time>2010-10-09T09:11:22Z</time>
      </trkpt>
      <trkpt lat="45.62064" lon="6.19235">
        <ele>1286</ele>
        <time>2010-10-09T09:11:26Z</time>
      </trkpt>
      <trkpt lat="45.62062" lon="6.19235">
        <ele>1286</ele>
        <time>2010-10-09T09:11:27Z</time>
      </trkpt>
      <trkpt lat="45.6206" lon="6.19234">
        <ele>1286</ele>
        <time>2010-10-09T09:11:32Z</time>
      </trkpt>
      <trkpt lat="45.62054" lon="6.19234">
        <ele>1286</ele>
        <time>2010-10-09T09:11:33Z</time>
      </trkpt>
      <trkpt lat="45.6205" lon="6.19233">
        <ele>1286</ele>
        <time>2010-10-09T09:11:37Z</time>
      </trkpt>
      <trkpt lat="45.62046" lon="6.19233">
        <ele>1286</ele>
        <time>2010-10-09T09:11:39Z</time>
      </trkpt>
      <trkpt lat="45.62042" lon="6.19234">
        <ele>1287</ele>
        <time>2010-10-09T09:11:43Z</time>
      </trkpt>
      <trkpt lat="45.6204" lon="6.19233">
        <ele>1287</ele>
        <time>2010-10-09T09:11:44Z</time>
      </trkpt>
      <trkpt lat="45.62036" lon="6.19234">
        <ele>1287</ele>
        <time>2010-10-09T09:11:48Z</time>
      </trkpt>
      <trkpt lat="45.62031" lon="6.19234">
        <ele>1288</ele>
        <time>2010-10-09T09:11:50Z</time>
      </trkpt>
      <trkpt lat="45.62025" lon="6.19234">
        <ele>1288</ele>
        <time>2010-10-09T09:11:54Z</time>
      </trkpt>
      <trkpt lat="45.62019" lon="6.19233">
        <ele>1289</ele>
        <time>2010-10-09T09:12:00Z</time>
      </trkpt>
      <trkpt lat="45.62015" lon="6.19232">
        <ele>1289</ele>
        <time>2010-10-09T09:12:01Z</time>
      </trkpt>
      <trkpt lat="45.62012" lon="6.19232">
        <ele>1290</ele>
        <time>2010-10-09T09:12:05Z</time>
      </trkpt>
      <trkpt lat="45.62006" lon="6.19231">
        <ele>1290</ele>
        <time>2010-10-09T09:12:07Z</time>
      </trkpt>
      <trkpt lat="45.62004" lon="6.1923">
        <ele>1290</ele>
        <time>2010-10-09T09:12:11Z</time>
      </trkpt>
      <trkpt lat="45.62001" lon="6.1923">
        <ele>1290</ele>
        <time>2010-10-09T09:12:12Z</time>
      </trkpt>
      <trkpt lat="45.61997" lon="6.19228">
        <ele>1296</ele>
        <time>2010-10-09T09:12:17Z</time>
      </trkpt>
      <trkpt lat="45.61988" lon="6.19225">
        <ele>1296</ele>
        <time>2010-10-09T09:12:22Z</time>
      </trkpt>
      <trkpt lat="45.61985" lon="6.19223">
        <ele>1296</ele>
        <time>2010-10-09T09:12:24Z</time>
      </trkpt>
      <trkpt lat="45.61981" lon="6.19223">
        <ele>1296</ele>
        <time>2010-10-09T09:12:28Z</time>
      </trkpt>
      <trkpt lat="45.61975" lon="6.19221">
        <ele>1296</ele>
        <time>2010-10-09T09:12:33Z</time>
      </trkpt>
      <trkpt lat="45.61972" lon="6.1922">
        <ele>1296</ele>
        <time>2010-10-09T09:12:35Z</time>
      </trkpt>
      <trkpt lat="45.61967" lon="6.19218">
        <ele>1297</ele>
        <time>2010-10-09T09:12:39Z</time>
      </trkpt>
      <trkpt lat="45.61966" lon="6.19218">
        <ele>1297</ele>
        <time>2010-10-09T09:12:40Z</time>
      </trkpt>
      <trkpt lat="45.61962" lon="6.19217">
        <ele>1297</ele>
        <time>2010-10-09T09:12:45Z</time>
      </trkpt>
      <trkpt lat="45.61956" lon="6.19218">
        <ele>1298</ele>
        <time>2010-10-09T09:12:48Z</time>
      </trkpt>
      <trkpt lat="45.61954" lon="6.19217">
        <ele>1298</ele>
        <time>2010-10-09T09:12:50Z</time>
      </trkpt>
      <trkpt lat="45.61951" lon="6.19217">
        <ele>1298</ele>
        <time>2010-10-09T09:12:51Z</time>
      </trkpt>
      <trkpt lat="45.61949" lon="6.19217">
        <ele>1298</ele>
        <time>2010-10-09T09:12:52Z</time>
      </trkpt>
      <trkpt lat="45.61948" lon="6.19217">
        <ele>1298</ele>
        <time>2010-10-09T09:12:53Z</time>
      </trkpt>
      <trkpt lat="45.61946" lon="6.19216">
        <ele>1298</ele>
        <time>2010-10-09T09:12:55Z</time>
      </trkpt>
      <trkpt lat="45.61944" lon="6.19215">
        <ele>1298</ele>
        <time>2010-10-09T09:12:56Z</time>
      </trkpt>
      <trkpt lat="45.61941" lon="6.19214">
        <ele>1299</ele>
        <time>2010-10-09T09:12:58Z</time>
      </trkpt>
      <trkpt lat="45.6194" lon="6.19213">
        <ele>1299</ele>
        <time>2010-10-09T09:12:59Z</time>
      </trkpt>
      <trkpt lat="45.61939" lon="6.19212">
        <ele>1299</ele>
        <time>2010-10-09T09:13:00Z</time>
      </trkpt>
      <trkpt lat="45.61937" lon="6.19211">
        <ele>1299</ele>
        <time>2010-10-09T09:13:01Z</time>
      </trkpt>
      <trkpt lat="45.61936" lon="6.19211">
        <ele>1299</ele>
        <time>2010-10-09T09:13:02Z</time>
      </trkpt>
      <trkpt lat="45.61935" lon="6.1921">
        <ele>1299</ele>
        <time>2010-10-09T09:13:03Z</time>
      </trkpt>
      <trkpt lat="45.61934" lon="6.1921">
        <ele>1299</ele>
        <time>2010-10-09T09:13:04Z</time>
      </trkpt>
      <trkpt lat="45.61932" lon="6.19209">
        <ele>1299</ele>
        <time>2010-10-09T09:13:05Z</time>
      </trkpt>
      <trkpt lat="45.6193" lon="6.19208">
        <ele>1299</ele>
        <time>2010-10-09T09:13:07Z</time>
      </trkpt>
      <trkpt lat="45.61929" lon="6.19208">
        <ele>1299</ele>
        <time>2010-10-09T09:13:08Z</time>
      </trkpt>
      <trkpt lat="45.61927" lon="6.19207">
        <ele>1299</ele>
        <time>2010-10-09T09:13:10Z</time>
      </trkpt>
      <trkpt lat="45.61925" lon="6.19207">
        <ele>1299</ele>
        <time>2010-10-09T09:13:11Z</time>
      </trkpt>
      <trkpt lat="45.61924" lon="6.19207">
        <ele>1299</ele>
        <time>2010-10-09T09:13:12Z</time>
      </trkpt>
      <trkpt lat="45.61923" lon="6.19206">
        <ele>1299</ele>
        <time>2010-10-09T09:13:13Z</time>
      </trkpt>
      <trkpt lat="45.61921" lon="6.19206">
        <ele>1299</ele>
        <time>2010-10-09T09:13:14Z</time>
      </trkpt>
      <trkpt lat="45.6192" lon="6.19206">
        <ele>1299</ele>
        <time>2010-10-09T09:13:15Z</time>
      </trkpt>
      <trkpt lat="45.61918" lon="6.19206">
        <ele>1299</ele>
        <time>2010-10-09T09:13:17Z</time>
      </trkpt>
      <trkpt lat="45.61917" lon="6.19205">
        <ele>1299</ele>
        <time>2010-10-09T09:13:18Z</time>
      </trkpt>
      <trkpt lat="45.61915" lon="6.19205">
        <ele>1308</ele>
        <time>2010-10-09T09:13:20Z</time>
      </trkpt>
      <trkpt lat="45.61914" lon="6.19204">
        <ele>1308</ele>
        <time>2010-10-09T09:13:21Z</time>
      </trkpt>
      <trkpt lat="45.61913" lon="6.19203">
        <ele>1308</ele>
        <time>2010-10-09T09:13:23Z</time>
      </trkpt>
      <trkpt lat="45.61911" lon="6.19203">
        <ele>1308</ele>
        <time>2010-10-09T09:13:24Z</time>
      </trkpt>
      <trkpt lat="45.61909" lon="6.19203">
        <ele>1308</ele>
        <time>2010-10-09T09:13:25Z</time>
      </trkpt>
      <trkpt lat="45.61907" lon="6.19203">
        <ele>1308</ele>
        <time>2010-10-09T09:13:26Z</time>
      </trkpt>
      <trkpt lat="45.61905" lon="6.19202">
        <ele>1308</ele>
        <time>2010-10-09T09:13:27Z</time>
      </trkpt>
      <trkpt lat="45.61903" lon="6.19202">
        <ele>1308</ele>
        <time>2010-10-09T09:13:28Z</time>
      </trkpt>
      <trkpt lat="45.61902" lon="6.19201">
        <ele>1308</ele>
        <time>2010-10-09T09:13:29Z</time>
      </trkpt>
      <trkpt lat="45.619" lon="6.19201">
        <ele>1308</ele>
        <time>2010-10-09T09:13:30Z</time>
      </trkpt>
      <trkpt lat="45.61899" lon="6.192">
        <ele>1308</ele>
        <time>2010-10-09T09:13:31Z</time>
      </trkpt>
      <trkpt lat="45.61897" lon="6.192">
        <ele>1308</ele>
        <time>2010-10-09T09:13:32Z</time>
      </trkpt>
      <trkpt lat="45.61896" lon="6.19199">
        <ele>1308</ele>
        <time>2010-10-09T09:13:34Z</time>
      </trkpt>
      <trkpt lat="45.61894" lon="6.19197">
        <ele>1308</ele>
        <time>2010-10-09T09:13:35Z</time>
      </trkpt>
      <trkpt lat="45.61893" lon="6.19196">
        <ele>1308</ele>
        <time>2010-10-09T09:13:36Z</time>
      </trkpt>
      <trkpt lat="45.61892" lon="6.19195">
        <ele>1308</ele>
        <time>2010-10-09T09:13:37Z</time>
      </trkpt>
      <trkpt lat="45.6189" lon="6.19195">
        <ele>1308</ele>
        <time>2010-10-09T09:13:38Z</time>
      </trkpt>
      <trkpt lat="45.61889" lon="6.19194">
        <ele>1308</ele>
        <time>2010-10-09T09:13:39Z</time>
      </trkpt>
      <trkpt lat="45.61888" lon="6.19194">
        <ele>1309</ele>
        <time>2010-10-09T09:13:40Z</time>
      </trkpt>
      <trkpt lat="45.61887" lon="6.19193">
        <ele>1309</ele>
        <time>2010-10-09T09:13:41Z</time>
      </trkpt>
      <trkpt lat="45.61885" lon="6.19192">
        <ele>1309</ele>
        <time>2010-10-09T09:13:43Z</time>
      </trkpt>
      <trkpt lat="45.61882" lon="6.19191">
        <ele>1309</ele>
        <time>2010-10-09T09:13:45Z</time>
      </trkpt>
      <trkpt lat="45.6188" lon="6.19189">
        <ele>1309</ele>
        <time>2010-10-09T09:13:47Z</time>
      </trkpt>
      <trkpt lat="45.61878" lon="6.19188">
        <ele>1309</ele>
        <time>2010-10-09T09:13:49Z</time>
      </trkpt>
      <trkpt lat="45.61877" lon="6.19187">
        <ele>1309</ele>
        <time>2010-10-09T09:13:50Z</time>
      </trkpt>
      <trkpt lat="45.61876" lon="6.19185">
        <ele>1309</ele>
        <time>2010-10-09T09:13:51Z</time>
      </trkpt>
      <trkpt lat="45.61873" lon="6.19183">
        <ele>1310</ele>
        <time>2010-10-09T09:13:53Z</time>
      </trkpt>
      <trkpt lat="45.61871" lon="6.19182">
        <ele>1310</ele>
        <time>2010-10-09T09:13:55Z</time>
      </trkpt>
      <trkpt lat="45.61869" lon="6.19179">
        <ele>1310</ele>
        <time>2010-10-09T09:13:57Z</time>
      </trkpt>
      <trkpt lat="45.61868" lon="6.19178">
        <ele>1310</ele>
        <time>2010-10-09T09:13:58Z</time>
      </trkpt>
      <trkpt lat="45.61866" lon="6.19177">
        <ele>1310</ele>
        <time>2010-10-09T09:14:00Z</time>
      </trkpt>
      <trkpt lat="45.61865" lon="6.19176">
        <ele>1310</ele>
        <time>2010-10-09T09:14:01Z</time>
      </trkpt>
      <trkpt lat="45.61864" lon="6.19175">
        <ele>1310</ele>
        <time>2010-10-09T09:14:02Z</time>
      </trkpt>
      <trkpt lat="45.61861" lon="6.19172">
        <ele>1310</ele>
        <time>2010-10-09T09:14:05Z</time>
      </trkpt>
      <trkpt lat="45.61858" lon="6.1917">
        <ele>1311</ele>
        <time>2010-10-09T09:14:07Z</time>
      </trkpt>
      <trkpt lat="45.61855" lon="6.19167">
        <ele>1311</ele>
        <time>2010-10-09T09:14:11Z</time>
      </trkpt>
      <trkpt lat="45.61853" lon="6.19165">
        <ele>1309</ele>
        <time>2010-10-09T09:14:12Z</time>
      </trkpt>
      <trkpt lat="45.61851" lon="6.19163">
        <ele>1310</ele>
        <time>2010-10-09T09:14:15Z</time>
      </trkpt>
      <trkpt lat="45.6185" lon="6.19162">
        <ele>1310</ele>
        <time>2010-10-09T09:14:16Z</time>
      </trkpt>
      <trkpt lat="45.61847" lon="6.1916">
        <ele>1310</ele>
        <time>2010-10-09T09:14:18Z</time>
      </trkpt>
      <trkpt lat="45.61846" lon="6.19159">
        <ele>1310</ele>
        <time>2010-10-09T09:14:19Z</time>
      </trkpt>
      <trkpt lat="45.61845" lon="6.19158">
        <ele>1310</ele>
        <time>2010-10-09T09:14:20Z</time>
      </trkpt>
      <trkpt lat="45.61843" lon="6.19156">
        <ele>1310</ele>
        <time>2010-10-09T09:14:22Z</time>
      </trkpt>
      <trkpt lat="45.61841" lon="6.19154">
        <ele>1310</ele>
        <time>2010-10-09T09:14:24Z</time>
      </trkpt>
      <trkpt lat="45.6184" lon="6.19153">
        <ele>1310</ele>
        <time>2010-10-09T09:14:26Z</time>
      </trkpt>
      <trkpt lat="45.61838" lon="6.19151">
        <ele>1310</ele>
        <time>2010-10-09T09:14:28Z</time>
      </trkpt>
      <trkpt lat="45.61836" lon="6.19151">
        <ele>1311</ele>
        <time>2010-10-09T09:14:30Z</time>
      </trkpt>
      <trkpt lat="45.61833" lon="6.19149">
        <ele>1319</ele>
        <time>2010-10-09T09:14:31Z</time>
      </trkpt>
      <trkpt lat="45.61832" lon="6.19148">
        <ele>1319</ele>
        <time>2010-10-09T09:14:33Z</time>
      </trkpt>
      <trkpt lat="45.61828" lon="6.19147">
        <ele>1320</ele>
        <time>2010-10-09T09:14:34Z</time>
      </trkpt>
      <trkpt lat="45.61826" lon="6.19145">
        <ele>1320</ele>
        <time>2010-10-09T09:14:36Z</time>
      </trkpt>
      <trkpt lat="45.61825" lon="6.19142">
        <ele>1321</ele>
        <time>2010-10-09T09:14:38Z</time>
      </trkpt>
      <trkpt lat="45.61824" lon="6.19141">
        <ele>1321</ele>
        <time>2010-10-09T09:14:39Z</time>
      </trkpt>
      <trkpt lat="45.61821" lon="6.19139">
        <ele>1321</ele>
        <time>2010-10-09T09:14:41Z</time>
      </trkpt>
      <trkpt lat="45.61819" lon="6.19137">
        <ele>1322</ele>
        <time>2010-10-09T09:14:44Z</time>
      </trkpt>
      <trkpt lat="45.61817" lon="6.19134">
        <ele>1322</ele>
        <time>2010-10-09T09:14:45Z</time>
      </trkpt>
      <trkpt lat="45.61816" lon="6.19132">
        <ele>1322</ele>
        <time>2010-10-09T09:14:46Z</time>
      </trkpt>
      <trkpt lat="45.61816" lon="6.1913">
        <ele>1322</ele>
        <time>2010-10-09T09:14:47Z</time>
      </trkpt>
      <trkpt lat="45.61815" lon="6.19129">
        <ele>1323</ele>
        <time>2010-10-09T09:14:49Z</time>
      </trkpt>
      <trkpt lat="45.61813" lon="6.19125">
        <ele>1323</ele>
        <time>2010-10-09T09:14:50Z</time>
      </trkpt>
      <trkpt lat="45.61813" lon="6.19123">
        <ele>1323</ele>
        <time>2010-10-09T09:14:52Z</time>
      </trkpt>
      <trkpt lat="45.61811" lon="6.19119">
        <ele>1323</ele>
        <time>2010-10-09T09:14:54Z</time>
      </trkpt>
      <trkpt lat="45.6181" lon="6.19115">
        <ele>1323</ele>
        <time>2010-10-09T09:14:55Z</time>
      </trkpt>
      <trkpt lat="45.61809" lon="6.19113">
        <ele>1323</ele>
        <time>2010-10-09T09:14:57Z</time>
      </trkpt>
      <trkpt lat="45.61808" lon="6.1911">
        <ele>1323</ele>
        <time>2010-10-09T09:14:58Z</time>
      </trkpt>
      <trkpt lat="45.61807" lon="6.19106">
        <ele>1323</ele>
        <time>2010-10-09T09:15:00Z</time>
      </trkpt>
      <trkpt lat="45.61807" lon="6.19104">
        <ele>1323</ele>
        <time>2010-10-09T09:15:01Z</time>
      </trkpt>
      <trkpt lat="45.61807" lon="6.19102">
        <ele>1323</ele>
        <time>2010-10-09T09:15:02Z</time>
      </trkpt>
      <trkpt lat="45.61807" lon="6.191">
        <ele>1323</ele>
        <time>2010-10-09T09:15:04Z</time>
      </trkpt>
      <trkpt lat="45.61806" lon="6.19095">
        <ele>1323</ele>
        <time>2010-10-09T09:15:05Z</time>
      </trkpt>
      <trkpt lat="45.61806" lon="6.19091">
        <ele>1323</ele>
        <time>2010-10-09T09:15:07Z</time>
      </trkpt>
      <trkpt lat="45.61806" lon="6.19089">
        <ele>1322</ele>
        <time>2010-10-09T09:15:08Z</time>
      </trkpt>
      <trkpt lat="45.61805" lon="6.19087">
        <ele>1323</ele>
        <time>2010-10-09T09:15:09Z</time>
      </trkpt>
      <trkpt lat="45.61805" lon="6.19085">
        <ele>1322</ele>
        <time>2010-10-09T09:15:11Z</time>
      </trkpt>
      <trkpt lat="45.61805" lon="6.19081">
        <ele>1324</ele>
        <time>2010-10-09T09:15:12Z</time>
      </trkpt>
      <trkpt lat="45.61806" lon="6.19077">
        <ele>1324</ele>
        <time>2010-10-09T09:15:16Z</time>
      </trkpt>
      <trkpt lat="45.61807" lon="6.19073">
        <ele>1324</ele>
        <time>2010-10-09T09:15:19Z</time>
      </trkpt>
      <trkpt lat="45.6181" lon="6.19073">
        <ele>1323</ele>
        <time>2010-10-09T09:15:20Z</time>
      </trkpt>
      <trkpt lat="45.61812" lon="6.19072">
        <ele>1323</ele>
        <time>2010-10-09T09:15:22Z</time>
      </trkpt>
      <trkpt lat="45.61813" lon="6.19072">
        <ele>1323</ele>
        <time>2010-10-09T09:15:24Z</time>
      </trkpt>
      <trkpt lat="45.61816" lon="6.1907">
        <ele>1323</ele>
        <time>2010-10-09T09:15:26Z</time>
      </trkpt>
      <trkpt lat="45.61817" lon="6.19069">
        <ele>1323</ele>
        <time>2010-10-09T09:15:27Z</time>
      </trkpt>
      <trkpt lat="45.6182" lon="6.19068">
        <ele>1322</ele>
        <time>2010-10-09T09:15:30Z</time>
      </trkpt>
      <trkpt lat="45.61823" lon="6.19066">
        <ele>1322</ele>
        <time>2010-10-09T09:15:32Z</time>
      </trkpt>
      <trkpt lat="45.61825" lon="6.19065">
        <ele>1322</ele>
        <time>2010-10-09T09:15:34Z</time>
      </trkpt>
      <trkpt lat="45.61827" lon="6.19063">
        <ele>1322</ele>
        <time>2010-10-09T09:15:36Z</time>
      </trkpt>
      <trkpt lat="45.61829" lon="6.19062">
        <ele>1322</ele>
        <time>2010-10-09T09:15:38Z</time>
      </trkpt>
      <trkpt lat="45.61829" lon="6.19059">
        <ele>1323</ele>
        <time>2010-10-09T09:15:41Z</time>
      </trkpt>
      <trkpt lat="45.61831" lon="6.19057">
        <ele>1323</ele>
        <time>2010-10-09T09:15:42Z</time>
      </trkpt>
      <trkpt lat="45.61831" lon="6.19055">
        <ele>1323</ele>
        <time>2010-10-09T09:15:44Z</time>
      </trkpt>
      <trkpt lat="45.61831" lon="6.19053">
        <ele>1324</ele>
        <time>2010-10-09T09:15:45Z</time>
      </trkpt>
      <trkpt lat="45.61832" lon="6.1905">
        <ele>1324</ele>
        <time>2010-10-09T09:15:47Z</time>
      </trkpt>
      <trkpt lat="45.61832" lon="6.19047">
        <ele>1324</ele>
        <time>2010-10-09T09:15:50Z</time>
      </trkpt>
      <trkpt lat="45.61832" lon="6.19044">
        <ele>1325</ele>
        <time>2010-10-09T09:15:51Z</time>
      </trkpt>
      <trkpt lat="45.61833" lon="6.19042">
        <ele>1325</ele>
        <time>2010-10-09T09:15:53Z</time>
      </trkpt>
      <trkpt lat="45.61834" lon="6.1904">
        <ele>1318</ele>
        <time>2010-10-09T09:15:54Z</time>
      </trkpt>
      <trkpt lat="45.61834" lon="6.19038">
        <ele>1318</ele>
        <time>2010-10-09T09:15:56Z</time>
      </trkpt>
      <trkpt lat="45.61835" lon="6.19036">
        <ele>1319</ele>
        <time>2010-10-09T09:15:58Z</time>
      </trkpt>
      <trkpt lat="45.61835" lon="6.19034">
        <ele>1319</ele>
        <time>2010-10-09T09:15:59Z</time>
      </trkpt>
      <trkpt lat="45.61835" lon="6.19032">
        <ele>1319</ele>
        <time>2010-10-09T09:16:00Z</time>
      </trkpt>
      <trkpt lat="45.61836" lon="6.19031">
        <ele>1319</ele>
        <time>2010-10-09T09:16:01Z</time>
      </trkpt>
      <trkpt lat="45.61836" lon="6.19028">
        <ele>1320</ele>
        <time>2010-10-09T09:16:03Z</time>
      </trkpt>
      <trkpt lat="45.61836" lon="6.19026">
        <ele>1320</ele>
        <time>2010-10-09T09:16:05Z</time>
      </trkpt>
      <trkpt lat="45.61837" lon="6.19023">
        <ele>1321</ele>
        <time>2010-10-09T09:16:06Z</time>
      </trkpt>
      <trkpt lat="45.61838" lon="6.19019">
        <ele>1321</ele>
        <time>2010-10-09T09:16:08Z</time>
      </trkpt>
      <trkpt lat="45.61839" lon="6.19017">
        <ele>1322</ele>
        <time>2010-10-09T09:16:09Z</time>
      </trkpt>
      <trkpt lat="45.61839" lon="6.19015">
        <ele>1322</ele>
        <time>2010-10-09T09:16:10Z</time>
      </trkpt>
      <trkpt lat="45.6184" lon="6.19013">
        <ele>1322</ele>
        <time>2010-10-09T09:16:11Z</time>
      </trkpt>
      <trkpt lat="45.6184" lon="6.19011">
        <ele>1323</ele>
        <time>2010-10-09T09:16:12Z</time>
      </trkpt>
      <trkpt lat="45.6184" lon="6.19009">
        <ele>1323</ele>
        <time>2010-10-09T09:16:13Z</time>
      </trkpt>
      <trkpt lat="45.61841" lon="6.19008">
        <ele>1323</ele>
        <time>2010-10-09T09:16:14Z</time>
      </trkpt>
      <trkpt lat="45.61841" lon="6.19006">
        <ele>1324</ele>
        <time>2010-10-09T09:16:15Z</time>
      </trkpt>
      <trkpt lat="45.61841" lon="6.19004">
        <ele>1324</ele>
        <time>2010-10-09T09:16:16Z</time>
      </trkpt>
      <trkpt lat="45.61841" lon="6.19003">
        <ele>1324</ele>
        <time>2010-10-09T09:16:17Z</time>
      </trkpt>
      <trkpt lat="45.61842" lon="6.19001">
        <ele>1324</ele>
        <time>2010-10-09T09:16:18Z</time>
      </trkpt>
      <trkpt lat="45.61842" lon="6.18999">
        <ele>1328</ele>
        <time>2010-10-09T09:16:19Z</time>
      </trkpt>
      <trkpt lat="45.61842" lon="6.18997">
        <ele>1328</ele>
        <time>2010-10-09T09:16:20Z</time>
      </trkpt>
      <trkpt lat="45.61843" lon="6.18996">
        <ele>1328</ele>
        <time>2010-10-09T09:16:21Z</time>
      </trkpt>
      <trkpt lat="45.61843" lon="6.18994">
        <ele>1329</ele>
        <time>2010-10-09T09:16:22Z</time>
      </trkpt>
      <trkpt lat="45.61843" lon="6.18992">
        <ele>1329</ele>
        <time>2010-10-09T09:16:23Z</time>
      </trkpt>
      <trkpt lat="45.61843" lon="6.1899">
        <ele>1329</ele>
        <time>2010-10-09T09:16:24Z</time>
      </trkpt>
      <trkpt lat="45.61843" lon="6.18989">
        <ele>1329</ele>
        <time>2010-10-09T09:16:25Z</time>
      </trkpt>
      <trkpt lat="45.61844" lon="6.18986">
        <ele>1329</ele>
        <time>2010-10-09T09:16:27Z</time>
      </trkpt>
      <trkpt lat="45.61844" lon="6.18984">
        <ele>1330</ele>
        <time>2010-10-09T09:16:29Z</time>
      </trkpt>
      <trkpt lat="45.61844" lon="6.18981">
        <ele>1330</ele>
        <time>2010-10-09T09:16:31Z</time>
      </trkpt>
      <trkpt lat="45.61845" lon="6.18976">
        <ele>1330</ele>
        <time>2010-10-09T09:16:33Z</time>
      </trkpt>
      <trkpt lat="45.61845" lon="6.18975">
        <ele>1331</ele>
        <time>2010-10-09T09:16:35Z</time>
      </trkpt>
      <trkpt lat="45.61847" lon="6.18972">
        <ele>1331</ele>
        <time>2010-10-09T09:16:36Z</time>
      </trkpt>
      <trkpt lat="45.6185" lon="6.18969">
        <ele>1331</ele>
        <time>2010-10-09T09:16:39Z</time>
      </trkpt>
      <trkpt lat="45.61852" lon="6.18966">
        <ele>1332</ele>
        <time>2010-10-09T09:16:42Z</time>
      </trkpt>
      <trkpt lat="45.61853" lon="6.18965">
        <ele>1332</ele>
        <time>2010-10-09T09:16:44Z</time>
      </trkpt>
      <trkpt lat="45.61854" lon="6.18964">
        <ele>1332</ele>
        <time>2010-10-09T09:16:46Z</time>
      </trkpt>
      <trkpt lat="45.61856" lon="6.18962">
        <ele>1332</ele>
        <time>2010-10-09T09:16:47Z</time>
      </trkpt>
      <trkpt lat="45.61858" lon="6.18961">
        <ele>1332</ele>
        <time>2010-10-09T09:16:49Z</time>
      </trkpt>
      <trkpt lat="45.6186" lon="6.1896">
        <ele>1332</ele>
        <time>2010-10-09T09:16:50Z</time>
      </trkpt>
      <trkpt lat="45.61861" lon="6.18959">
        <ele>1332</ele>
        <time>2010-10-09T09:16:51Z</time>
      </trkpt>
      <trkpt lat="45.61862" lon="6.18958">
        <ele>1332</ele>
        <time>2010-10-09T09:16:52Z</time>
      </trkpt>
      <trkpt lat="45.61864" lon="6.18957">
        <ele>1332</ele>
        <time>2010-10-09T09:16:53Z</time>
      </trkpt>
      <trkpt lat="45.61866" lon="6.18955">
        <ele>1332</ele>
        <time>2010-10-09T09:16:55Z</time>
      </trkpt>
      <trkpt lat="45.61867" lon="6.18954">
        <ele>1332</ele>
        <time>2010-10-09T09:16:56Z</time>
      </trkpt>
      <trkpt lat="45.61869" lon="6.18953">
        <ele>1332</ele>
        <time>2010-10-09T09:16:57Z</time>
      </trkpt>
      <trkpt lat="45.6187" lon="6.18953">
        <ele>1332</ele>
        <time>2010-10-09T09:16:58Z</time>
      </trkpt>
      <trkpt lat="45.61871" lon="6.18952">
        <ele>1332</ele>
        <time>2010-10-09T09:16:59Z</time>
      </trkpt>
      <trkpt lat="45.61873" lon="6.18952">
        <ele>1332</ele>
        <time>2010-10-09T09:17:00Z</time>
      </trkpt>
      <trkpt lat="45.61875" lon="6.18951">
        <ele>1332</ele>
        <time>2010-10-09T09:17:01Z</time>
      </trkpt>
      <trkpt lat="45.61876" lon="6.18951">
        <ele>1332</ele>
        <time>2010-10-09T09:17:03Z</time>
      </trkpt>
      <trkpt lat="45.61879" lon="6.18951">
        <ele>1332</ele>
        <time>2010-10-09T09:17:04Z</time>
      </trkpt>
      <trkpt lat="45.61882" lon="6.1895">
        <ele>1332</ele>
        <time>2010-10-09T09:17:06Z</time>
      </trkpt>
      <trkpt lat="45.61884" lon="6.1895">
        <ele>1332</ele>
        <time>2010-10-09T09:17:07Z</time>
      </trkpt>
      <trkpt lat="45.61886" lon="6.18949">
        <ele>1332</ele>
        <time>2010-10-09T09:17:08Z</time>
      </trkpt>
      <trkpt lat="45.61888" lon="6.18949">
        <ele>1332</ele>
        <time>2010-10-09T09:17:09Z</time>
      </trkpt>
      <trkpt lat="45.6189" lon="6.18948">
        <ele>1332</ele>
        <time>2010-10-09T09:17:10Z</time>
      </trkpt>
      <trkpt lat="45.61891" lon="6.18948">
        <ele>1332</ele>
        <time>2010-10-09T09:17:11Z</time>
      </trkpt>
      <trkpt lat="45.61893" lon="6.18948">
        <ele>1332</ele>
        <time>2010-10-09T09:17:12Z</time>
      </trkpt>
      <trkpt lat="45.61894" lon="6.18947">
        <ele>1332</ele>
        <time>2010-10-09T09:17:13Z</time>
      </trkpt>
      <trkpt lat="45.61896" lon="6.18947">
        <ele>1332</ele>
        <time>2010-10-09T09:17:14Z</time>
      </trkpt>
      <trkpt lat="45.61897" lon="6.18947">
        <ele>1332</ele>
        <time>2010-10-09T09:17:15Z</time>
      </trkpt>
      <trkpt lat="45.61899" lon="6.18947">
        <ele>1333</ele>
        <time>2010-10-09T09:17:16Z</time>
      </trkpt>
      <trkpt lat="45.619" lon="6.18947">
        <ele>1333</ele>
        <time>2010-10-09T09:17:17Z</time>
      </trkpt>
      <trkpt lat="45.61901" lon="6.18946">
        <ele>1333</ele>
        <time>2010-10-09T09:17:18Z</time>
      </trkpt>
      <trkpt lat="45.61903" lon="6.18946">
        <ele>1333</ele>
        <time>2010-10-09T09:17:19Z</time>
      </trkpt>
      <trkpt lat="45.61905" lon="6.18946">
        <ele>1333</ele>
        <time>2010-10-09T09:17:20Z</time>
      </trkpt>
      <trkpt lat="45.61906" lon="6.18946">
        <ele>1333</ele>
        <time>2010-10-09T09:17:21Z</time>
      </trkpt>
      <trkpt lat="45.61908" lon="6.18946">
        <ele>1333</ele>
        <time>2010-10-09T09:17:22Z</time>
      </trkpt>
      <trkpt lat="45.6191" lon="6.18946">
        <ele>1333</ele>
        <time>2010-10-09T09:17:23Z</time>
      </trkpt>
      <trkpt lat="45.61911" lon="6.18946">
        <ele>1333</ele>
        <time>2010-10-09T09:17:24Z</time>
      </trkpt>
      <trkpt lat="45.61913" lon="6.18946">
        <ele>1333</ele>
        <time>2010-10-09T09:17:25Z</time>
      </trkpt>
      <trkpt lat="45.61915" lon="6.18946">
        <ele>1333</ele>
        <time>2010-10-09T09:17:26Z</time>
      </trkpt>
      <trkpt lat="45.61916" lon="6.18945">
        <ele>1333</ele>
        <time>2010-10-09T09:17:28Z</time>
      </trkpt>
      <trkpt lat="45.6192" lon="6.18941">
        <ele>1331</ele>
        <time>2010-10-09T09:17:29Z</time>
      </trkpt>
      <trkpt lat="45.61921" lon="6.18937">
        <ele>1331</ele>
        <time>2010-10-09T09:17:31Z</time>
      </trkpt>
      <trkpt lat="45.61921" lon="6.18935">
        <ele>1332</ele>
        <time>2010-10-09T09:17:33Z</time>
      </trkpt>
      <trkpt lat="45.61921" lon="6.18934">
        <ele>1332</ele>
        <time>2010-10-09T09:17:34Z</time>
      </trkpt>
      <trkpt lat="45.61919" lon="6.18931">
        <ele>1333</ele>
        <time>2010-10-09T09:17:36Z</time>
      </trkpt>
      <trkpt lat="45.61916" lon="6.1893">
        <ele>1335</ele>
        <time>2010-10-09T09:17:37Z</time>
      </trkpt>
      <trkpt lat="45.61914" lon="6.18931">
        <ele>1335</ele>
        <time>2010-10-09T09:17:39Z</time>
      </trkpt>
      <trkpt lat="45.61913" lon="6.18931">
        <ele>1335</ele>
        <time>2010-10-09T09:17:41Z</time>
      </trkpt>
      <trkpt lat="45.6191" lon="6.18933">
        <ele>1335</ele>
        <time>2010-10-09T09:17:42Z</time>
      </trkpt>
      <trkpt lat="45.61909" lon="6.18933">
        <ele>1334</ele>
        <time>2010-10-09T09:17:43Z</time>
      </trkpt>
      <trkpt lat="45.61908" lon="6.18934">
        <ele>1334</ele>
        <time>2010-10-09T09:17:44Z</time>
      </trkpt>
      <trkpt lat="45.61906" lon="6.18934">
        <ele>1334</ele>
        <time>2010-10-09T09:17:45Z</time>
      </trkpt>
      <trkpt lat="45.61905" lon="6.18934">
        <ele>1334</ele>
        <time>2010-10-09T09:17:46Z</time>
      </trkpt>
      <trkpt lat="45.61903" lon="6.18935">
        <ele>1334</ele>
        <time>2010-10-09T09:17:47Z</time>
      </trkpt>
      <trkpt lat="45.61902" lon="6.18934">
        <ele>1334</ele>
        <time>2010-10-09T09:17:48Z</time>
      </trkpt>
      <trkpt lat="45.619" lon="6.18934">
        <ele>1334</ele>
        <time>2010-10-09T09:17:49Z</time>
      </trkpt>
      <trkpt lat="45.61899" lon="6.18934">
        <ele>1334</ele>
        <time>2010-10-09T09:17:50Z</time>
      </trkpt>
      <trkpt lat="45.61898" lon="6.18933">
        <ele>1334</ele>
        <time>2010-10-09T09:17:51Z</time>
      </trkpt>
      <trkpt lat="45.61896" lon="6.18933">
        <ele>1334</ele>
        <time>2010-10-09T09:17:52Z</time>
      </trkpt>
      <trkpt lat="45.61895" lon="6.18932">
        <ele>1334</ele>
        <time>2010-10-09T09:17:53Z</time>
      </trkpt>
      <trkpt lat="45.61893" lon="6.18932">
        <ele>1334</ele>
        <time>2010-10-09T09:17:54Z</time>
      </trkpt>
      <trkpt lat="45.61892" lon="6.18931">
        <ele>1334</ele>
        <time>2010-10-09T09:17:55Z</time>
      </trkpt>
      <trkpt lat="45.61891" lon="6.1893">
        <ele>1334</ele>
        <time>2010-10-09T09:17:56Z</time>
      </trkpt>
      <trkpt lat="45.6189" lon="6.1893">
        <ele>1334</ele>
        <time>2010-10-09T09:17:57Z</time>
      </trkpt>
      <trkpt lat="45.61888" lon="6.18929">
        <ele>1334</ele>
        <time>2010-10-09T09:17:58Z</time>
      </trkpt>
      <trkpt lat="45.61886" lon="6.18928">
        <ele>1334</ele>
        <time>2010-10-09T09:18:00Z</time>
      </trkpt>
      <trkpt lat="45.61885" lon="6.18928">
        <ele>1334</ele>
        <time>2010-10-09T09:18:01Z</time>
      </trkpt>
      <trkpt lat="45.61883" lon="6.18927">
        <ele>1334</ele>
        <time>2010-10-09T09:18:02Z</time>
      </trkpt>
      <trkpt lat="45.61882" lon="6.18927">
        <ele>1334</ele>
        <time>2010-10-09T09:18:03Z</time>
      </trkpt>
      <trkpt lat="45.61881" lon="6.18926">
        <ele>1334</ele>
        <time>2010-10-09T09:18:04Z</time>
      </trkpt>
      <trkpt lat="45.61878" lon="6.18925">
        <ele>1334</ele>
        <time>2010-10-09T09:18:06Z</time>
      </trkpt>
      <trkpt lat="45.61877" lon="6.18924">
        <ele>1335</ele>
        <time>2010-10-09T09:18:07Z</time>
      </trkpt>
      <trkpt lat="45.61876" lon="6.18924">
        <ele>1335</ele>
        <time>2010-10-09T09:18:08Z</time>
      </trkpt>
      <trkpt lat="45.61875" lon="6.18923">
        <ele>1335</ele>
        <time>2010-10-09T09:18:09Z</time>
      </trkpt>
      <trkpt lat="45.61874" lon="6.18922">
        <ele>1335</ele>
        <time>2010-10-09T09:18:10Z</time>
      </trkpt>
      <trkpt lat="45.61872" lon="6.18922">
        <ele>1335</ele>
        <time>2010-10-09T09:18:11Z</time>
      </trkpt>
      <trkpt lat="45.61871" lon="6.18921">
        <ele>1335</ele>
        <time>2010-10-09T09:18:12Z</time>
      </trkpt>
      <trkpt lat="45.6187" lon="6.1892">
        <ele>1335</ele>
        <time>2010-10-09T09:18:13Z</time>
      </trkpt>
      <trkpt lat="45.61868" lon="6.18919">
        <ele>1335</ele>
        <time>2010-10-09T09:18:15Z</time>
      </trkpt>
      <trkpt lat="45.61867" lon="6.18918">
        <ele>1335</ele>
        <time>2010-10-09T09:18:16Z</time>
      </trkpt>
      <trkpt lat="45.61866" lon="6.18917">
        <ele>1335</ele>
        <time>2010-10-09T09:18:17Z</time>
      </trkpt>
      <trkpt lat="45.61863" lon="6.18915">
        <ele>1348</ele>
        <time>2010-10-09T09:18:19Z</time>
      </trkpt>
      <trkpt lat="45.61862" lon="6.18914">
        <ele>1348</ele>
        <time>2010-10-09T09:18:20Z</time>
      </trkpt>
      <trkpt lat="45.61861" lon="6.18913">
        <ele>1348</ele>
        <time>2010-10-09T09:18:21Z</time>
      </trkpt>
      <trkpt lat="45.61859" lon="6.18911">
        <ele>1348</ele>
        <time>2010-10-09T09:18:23Z</time>
      </trkpt>
      <trkpt lat="45.61858" lon="6.1891">
        <ele>1348</ele>
        <time>2010-10-09T09:18:24Z</time>
      </trkpt>
      <trkpt lat="45.61857" lon="6.1891">
        <ele>1348</ele>
        <time>2010-10-09T09:18:25Z</time>
      </trkpt>
      <trkpt lat="45.61855" lon="6.18909">
        <ele>1348</ele>
        <time>2010-10-09T09:18:26Z</time>
      </trkpt>
      <trkpt lat="45.61853" lon="6.18907">
        <ele>1348</ele>
        <time>2010-10-09T09:18:28Z</time>
      </trkpt>
      <trkpt lat="45.61852" lon="6.18906">
        <ele>1348</ele>
        <time>2010-10-09T09:18:29Z</time>
      </trkpt>
      <trkpt lat="45.61851" lon="6.18905">
        <ele>1348</ele>
        <time>2010-10-09T09:18:30Z</time>
      </trkpt>
      <trkpt lat="45.6185" lon="6.18904">
        <ele>1348</ele>
        <time>2010-10-09T09:18:31Z</time>
      </trkpt>
      <trkpt lat="45.61848" lon="6.18904">
        <ele>1348</ele>
        <time>2010-10-09T09:18:32Z</time>
      </trkpt>
      <trkpt lat="45.61847" lon="6.18903">
        <ele>1348</ele>
        <time>2010-10-09T09:18:33Z</time>
      </trkpt>
      <trkpt lat="45.61846" lon="6.18903">
        <ele>1348</ele>
        <time>2010-10-09T09:18:34Z</time>
      </trkpt>
      <trkpt lat="45.61845" lon="6.18903">
        <ele>1348</ele>
        <time>2010-10-09T09:18:35Z</time>
      </trkpt>
      <trkpt lat="45.61843" lon="6.18903">
        <ele>1348</ele>
        <time>2010-10-09T09:18:36Z</time>
      </trkpt>
      <trkpt lat="45.61842" lon="6.18902">
        <ele>1348</ele>
        <time>2010-10-09T09:18:37Z</time>
      </trkpt>
      <trkpt lat="45.61841" lon="6.18902">
        <ele>1348</ele>
        <time>2010-10-09T09:18:38Z</time>
      </trkpt>
      <trkpt lat="45.6184" lon="6.18902">
        <ele>1348</ele>
        <time>2010-10-09T09:18:39Z</time>
      </trkpt>
      <trkpt lat="45.61838" lon="6.18902">
        <ele>1347</ele>
        <time>2010-10-09T09:18:40Z</time>
      </trkpt>
      <trkpt lat="45.61837" lon="6.18902">
        <ele>1347</ele>
        <time>2010-10-09T09:18:41Z</time>
      </trkpt>
      <trkpt lat="45.61835" lon="6.18902">
        <ele>1347</ele>
        <time>2010-10-09T09:18:42Z</time>
      </trkpt>
      <trkpt lat="45.61834" lon="6.18902">
        <ele>1347</ele>
        <time>2010-10-09T09:18:43Z</time>
      </trkpt>
      <trkpt lat="45.61832" lon="6.18902">
        <ele>1349</ele>
        <time>2010-10-09T09:18:44Z</time>
      </trkpt>
      <trkpt lat="45.61831" lon="6.18902">
        <ele>1349</ele>
        <time>2010-10-09T09:18:45Z</time>
      </trkpt>
      <trkpt lat="45.6183" lon="6.18902">
        <ele>1349</ele>
        <time>2010-10-09T09:18:46Z</time>
      </trkpt>
      <trkpt lat="45.61827" lon="6.18902">
        <ele>1349</ele>
        <time>2010-10-09T09:18:48Z</time>
      </trkpt>
      <trkpt lat="45.61826" lon="6.18902">
        <ele>1349</ele>
        <time>2010-10-09T09:18:49Z</time>
      </trkpt>
      <trkpt lat="45.61824" lon="6.18902">
        <ele>1349</ele>
        <time>2010-10-09T09:18:50Z</time>
      </trkpt>
      <trkpt lat="45.61821" lon="6.18902">
        <ele>1350</ele>
        <time>2010-10-09T09:18:52Z</time>
      </trkpt>
      <trkpt lat="45.6182" lon="6.18902">
        <ele>1350</ele>
        <time>2010-10-09T09:18:53Z</time>
      </trkpt>
      <trkpt lat="45.61819" lon="6.18901">
        <ele>1350</ele>
        <time>2010-10-09T09:18:54Z</time>
      </trkpt>
      <trkpt lat="45.61818" lon="6.18901">
        <ele>1351</ele>
        <time>2010-10-09T09:18:55Z</time>
      </trkpt>
      <trkpt lat="45.61816" lon="6.18901">
        <ele>1351</ele>
        <time>2010-10-09T09:18:56Z</time>
      </trkpt>
      <trkpt lat="45.61815" lon="6.18901">
        <ele>1351</ele>
        <time>2010-10-09T09:18:57Z</time>
      </trkpt>
      <trkpt lat="45.61814" lon="6.189">
        <ele>1351</ele>
        <time>2010-10-09T09:18:58Z</time>
      </trkpt>
      <trkpt lat="45.61813" lon="6.189">
        <ele>1351</ele>
        <time>2010-10-09T09:18:59Z</time>
      </trkpt>
      <trkpt lat="45.61812" lon="6.189">
        <ele>1352</ele>
        <time>2010-10-09T09:19:00Z</time>
      </trkpt>
      <trkpt lat="45.61811" lon="6.189">
        <ele>1352</ele>
        <time>2010-10-09T09:19:01Z</time>
      </trkpt>
      <trkpt lat="45.61809" lon="6.189">
        <ele>1352</ele>
        <time>2010-10-09T09:19:02Z</time>
      </trkpt>
      <trkpt lat="45.61808" lon="6.189">
        <ele>1352</ele>
        <time>2010-10-09T09:19:03Z</time>
      </trkpt>
      <trkpt lat="45.61806" lon="6.189">
        <ele>1352</ele>
        <time>2010-10-09T09:19:05Z</time>
      </trkpt>
      <trkpt lat="45.61805" lon="6.18899">
        <ele>1352</ele>
        <time>2010-10-09T09:19:06Z</time>
      </trkpt>
      <trkpt lat="45.61803" lon="6.18899">
        <ele>1353</ele>
        <time>2010-10-09T09:19:09Z</time>
      </trkpt>
      <trkpt lat="45.618" lon="6.18898">
        <ele>1353</ele>
        <time>2010-10-09T09:19:11Z</time>
      </trkpt>
      <trkpt lat="45.61798" lon="6.18897">
        <ele>1353</ele>
        <time>2010-10-09T09:19:13Z</time>
      </trkpt>
      <trkpt lat="45.61795" lon="6.18895">
        <ele>1354</ele>
        <time>2010-10-09T09:19:15Z</time>
      </trkpt>
      <trkpt lat="45.61794" lon="6.18895">
        <ele>1354</ele>
        <time>2010-10-09T09:19:16Z</time>
      </trkpt>
      <trkpt lat="45.61793" lon="6.18894">
        <ele>1354</ele>
        <time>2010-10-09T09:19:17Z</time>
      </trkpt>
      <trkpt lat="45.61792" lon="6.18894">
        <ele>1354</ele>
        <time>2010-10-09T09:19:18Z</time>
      </trkpt>
      <trkpt lat="45.6179" lon="6.18894">
        <ele>1354</ele>
        <time>2010-10-09T09:19:19Z</time>
      </trkpt>
      <trkpt lat="45.61789" lon="6.18894">
        <ele>1354</ele>
        <time>2010-10-09T09:19:20Z</time>
      </trkpt>
      <trkpt lat="45.61788" lon="6.18893">
        <ele>1354</ele>
        <time>2010-10-09T09:19:21Z</time>
      </trkpt>
      <trkpt lat="45.61787" lon="6.18893">
        <ele>1354</ele>
        <time>2010-10-09T09:19:22Z</time>
      </trkpt>
      <trkpt lat="45.61786" lon="6.18893">
        <ele>1354</ele>
        <time>2010-10-09T09:19:23Z</time>
      </trkpt>
      <trkpt lat="45.61784" lon="6.18893">
        <ele>1354</ele>
        <time>2010-10-09T09:19:24Z</time>
      </trkpt>
      <trkpt lat="45.61783" lon="6.18893">
        <ele>1354</ele>
        <time>2010-10-09T09:19:25Z</time>
      </trkpt>
      <trkpt lat="45.61782" lon="6.18893">
        <ele>1355</ele>
        <time>2010-10-09T09:19:26Z</time>
      </trkpt>
      <trkpt lat="45.61781" lon="6.18893">
        <ele>1355</ele>
        <time>2010-10-09T09:19:27Z</time>
      </trkpt>
      <trkpt lat="45.61779" lon="6.18893">
        <ele>1355</ele>
        <time>2010-10-09T09:19:28Z</time>
      </trkpt>
      <trkpt lat="45.61778" lon="6.18893">
        <ele>1355</ele>
        <time>2010-10-09T09:19:29Z</time>
      </trkpt>
      <trkpt lat="45.61777" lon="6.18893">
        <ele>1355</ele>
        <time>2010-10-09T09:19:30Z</time>
      </trkpt>
      <trkpt lat="45.61776" lon="6.18894">
        <ele>1354</ele>
        <time>2010-10-09T09:19:31Z</time>
      </trkpt>
      <trkpt lat="45.61774" lon="6.18894">
        <ele>1354</ele>
        <time>2010-10-09T09:19:33Z</time>
      </trkpt>
      <trkpt lat="45.61772" lon="6.18894">
        <ele>1354</ele>
        <time>2010-10-09T09:19:34Z</time>
      </trkpt>
      <trkpt lat="45.6177" lon="6.18894">
        <ele>1354</ele>
        <time>2010-10-09T09:19:36Z</time>
      </trkpt>
      <trkpt lat="45.61768" lon="6.18895">
        <ele>1354</ele>
        <time>2010-10-09T09:19:37Z</time>
      </trkpt>
      <trkpt lat="45.61767" lon="6.18895">
        <ele>1354</ele>
        <time>2010-10-09T09:19:38Z</time>
      </trkpt>
      <trkpt lat="45.61766" lon="6.18895">
        <ele>1354</ele>
        <time>2010-10-09T09:19:39Z</time>
      </trkpt>
      <trkpt lat="45.61765" lon="6.18895">
        <ele>1354</ele>
        <time>2010-10-09T09:19:40Z</time>
      </trkpt>
      <trkpt lat="45.61763" lon="6.18896">
        <ele>1354</ele>
        <time>2010-10-09T09:19:41Z</time>
      </trkpt>
      <trkpt lat="45.61762" lon="6.18896">
        <ele>1354</ele>
        <time>2010-10-09T09:19:42Z</time>
      </trkpt>
      <trkpt lat="45.61761" lon="6.18896">
        <ele>1354</ele>
        <time>2010-10-09T09:19:43Z</time>
      </trkpt>
      <trkpt lat="45.6176" lon="6.18896">
        <ele>1354</ele>
        <time>2010-10-09T09:19:44Z</time>
      </trkpt>
      <trkpt lat="45.61758" lon="6.18895">
        <ele>1354</ele>
        <time>2010-10-09T09:19:46Z</time>
      </trkpt>
      <trkpt lat="45.61757" lon="6.18896">
        <ele>1354</ele>
        <time>2010-10-09T09:19:48Z</time>
      </trkpt>
      <trkpt lat="45.61753" lon="6.18895">
        <ele>1354</ele>
        <time>2010-10-09T09:19:50Z</time>
      </trkpt>
      <trkpt lat="45.61751" lon="6.18895">
        <ele>1354</ele>
        <time>2010-10-09T09:19:51Z</time>
      </trkpt>
      <trkpt lat="45.6175" lon="6.18895">
        <ele>1354</ele>
        <time>2010-10-09T09:19:52Z</time>
      </trkpt>
      <trkpt lat="45.61749" lon="6.18895">
        <ele>1356</ele>
        <time>2010-10-09T09:19:53Z</time>
      </trkpt>
      <trkpt lat="45.61747" lon="6.18894">
        <ele>1357</ele>
        <time>2010-10-09T09:19:55Z</time>
      </trkpt>
      <trkpt lat="45.61745" lon="6.18893">
        <ele>1357</ele>
        <time>2010-10-09T09:19:57Z</time>
      </trkpt>
      <trkpt lat="45.61744" lon="6.18893">
        <ele>1357</ele>
        <time>2010-10-09T09:19:58Z</time>
      </trkpt>
      <trkpt lat="45.61743" lon="6.18893">
        <ele>1357</ele>
        <time>2010-10-09T09:20:00Z</time>
      </trkpt>
      <trkpt lat="45.61739" lon="6.18893">
        <ele>1357</ele>
        <time>2010-10-09T09:20:02Z</time>
      </trkpt>
      <trkpt lat="45.61738" lon="6.18893">
        <ele>1357</ele>
        <time>2010-10-09T09:20:03Z</time>
      </trkpt>
      <trkpt lat="45.61735" lon="6.18893">
        <ele>1358</ele>
        <time>2010-10-09T09:20:05Z</time>
      </trkpt>
      <trkpt lat="45.61734" lon="6.18892">
        <ele>1358</ele>
        <time>2010-10-09T09:20:06Z</time>
      </trkpt>
      <trkpt lat="45.61732" lon="6.18892">
        <ele>1358</ele>
        <time>2010-10-09T09:20:07Z</time>
      </trkpt>
      <trkpt lat="45.61731" lon="6.18892">
        <ele>1358</ele>
        <time>2010-10-09T09:20:08Z</time>
      </trkpt>
      <trkpt lat="45.61729" lon="6.18892">
        <ele>1358</ele>
        <time>2010-10-09T09:20:09Z</time>
      </trkpt>
      <trkpt lat="45.61728" lon="6.18891">
        <ele>1358</ele>
        <time>2010-10-09T09:20:10Z</time>
      </trkpt>
      <trkpt lat="45.61727" lon="6.18891">
        <ele>1359</ele>
        <time>2010-10-09T09:20:11Z</time>
      </trkpt>
      <trkpt lat="45.61726" lon="6.1889">
        <ele>1359</ele>
        <time>2010-10-09T09:20:12Z</time>
      </trkpt>
      <trkpt lat="45.61724" lon="6.1889">
        <ele>1359</ele>
        <time>2010-10-09T09:20:13Z</time>
      </trkpt>
      <trkpt lat="45.61723" lon="6.18889">
        <ele>1359</ele>
        <time>2010-10-09T09:20:14Z</time>
      </trkpt>
      <trkpt lat="45.61721" lon="6.18889">
        <ele>1359</ele>
        <time>2010-10-09T09:20:15Z</time>
      </trkpt>
      <trkpt lat="45.61719" lon="6.18888">
        <ele>1359</ele>
        <time>2010-10-09T09:20:17Z</time>
      </trkpt>
      <trkpt lat="45.61718" lon="6.18887">
        <ele>1360</ele>
        <time>2010-10-09T09:20:19Z</time>
      </trkpt>
      <trkpt lat="45.61716" lon="6.18887">
        <ele>1360</ele>
        <time>2010-10-09T09:20:20Z</time>
      </trkpt>
      <trkpt lat="45.61715" lon="6.18886">
        <ele>1360</ele>
        <time>2010-10-09T09:20:21Z</time>
      </trkpt>
      <trkpt lat="45.61714" lon="6.18886">
        <ele>1360</ele>
        <time>2010-10-09T09:20:22Z</time>
      </trkpt>
      <trkpt lat="45.61712" lon="6.18886">
        <ele>1360</ele>
        <time>2010-10-09T09:20:23Z</time>
      </trkpt>
      <trkpt lat="45.61711" lon="6.18885">
        <ele>1360</ele>
        <time>2010-10-09T09:20:24Z</time>
      </trkpt>
      <trkpt lat="45.6171" lon="6.18885">
        <ele>1360</ele>
        <time>2010-10-09T09:20:25Z</time>
      </trkpt>
      <trkpt lat="45.61709" lon="6.18884">
        <ele>1360</ele>
        <time>2010-10-09T09:20:26Z</time>
      </trkpt>
      <trkpt lat="45.61708" lon="6.18884">
        <ele>1360</ele>
        <time>2010-10-09T09:20:27Z</time>
      </trkpt>
      <trkpt lat="45.61706" lon="6.18883">
        <ele>1360</ele>
        <time>2010-10-09T09:20:28Z</time>
      </trkpt>
      <trkpt lat="45.61704" lon="6.18883">
        <ele>1361</ele>
        <time>2010-10-09T09:20:30Z</time>
      </trkpt>
      <trkpt lat="45.61702" lon="6.18882">
        <ele>1361</ele>
        <time>2010-10-09T09:20:32Z</time>
      </trkpt>
      <trkpt lat="45.61701" lon="6.18881">
        <ele>1361</ele>
        <time>2010-10-09T09:20:33Z</time>
      </trkpt>
      <trkpt lat="45.617" lon="6.18881">
        <ele>1361</ele>
        <time>2010-10-09T09:20:34Z</time>
      </trkpt>
      <trkpt lat="45.61699" lon="6.18881">
        <ele>1361</ele>
        <time>2010-10-09T09:20:35Z</time>
      </trkpt>
      <trkpt lat="45.61697" lon="6.1888">
        <ele>1361</ele>
        <time>2010-10-09T09:20:36Z</time>
      </trkpt>
      <trkpt lat="45.61696" lon="6.1888">
        <ele>1361</ele>
        <time>2010-10-09T09:20:37Z</time>
      </trkpt>
      <trkpt lat="45.61695" lon="6.18879">
        <ele>1361</ele>
        <time>2010-10-09T09:20:38Z</time>
      </trkpt>
      <trkpt lat="45.61694" lon="6.18879">
        <ele>1361</ele>
        <time>2010-10-09T09:20:39Z</time>
      </trkpt>
      <trkpt lat="45.61691" lon="6.18877">
        <ele>1361</ele>
        <time>2010-10-09T09:20:42Z</time>
      </trkpt>
      <trkpt lat="45.61689" lon="6.18877">
        <ele>1361</ele>
        <time>2010-10-09T09:20:43Z</time>
      </trkpt>
      <trkpt lat="45.61688" lon="6.18877">
        <ele>1361</ele>
        <time>2010-10-09T09:20:44Z</time>
      </trkpt>
      <trkpt lat="45.61687" lon="6.18877">
        <ele>1361</ele>
        <time>2010-10-09T09:20:45Z</time>
      </trkpt>
      <trkpt lat="45.61686" lon="6.18876">
        <ele>1362</ele>
        <time>2010-10-09T09:20:46Z</time>
      </trkpt>
      <trkpt lat="45.61684" lon="6.18876">
        <ele>1362</ele>
        <time>2010-10-09T09:20:47Z</time>
      </trkpt>
      <trkpt lat="45.61682" lon="6.18876">
        <ele>1362</ele>
        <time>2010-10-09T09:20:50Z</time>
      </trkpt>
      <trkpt lat="45.61681" lon="6.18875">
        <ele>1362</ele>
        <time>2010-10-09T09:20:51Z</time>
      </trkpt>
      <trkpt lat="45.61678" lon="6.18874">
        <ele>1362</ele>
        <time>2010-10-09T09:20:54Z</time>
      </trkpt>
      <trkpt lat="45.61675" lon="6.18874">
        <ele>1362</ele>
        <time>2010-10-09T09:20:56Z</time>
      </trkpt>
      <trkpt lat="45.61674" lon="6.18874">
        <ele>1362</ele>
        <time>2010-10-09T09:20:57Z</time>
      </trkpt>
      <trkpt lat="45.61673" lon="6.18873">
        <ele>1362</ele>
        <time>2010-10-09T09:20:59Z</time>
      </trkpt>
      <trkpt lat="45.61671" lon="6.18872">
        <ele>1362</ele>
        <time>2010-10-09T09:21:00Z</time>
      </trkpt>
      <trkpt lat="45.61667" lon="6.18872">
        <ele>1362</ele>
        <time>2010-10-09T09:21:04Z</time>
      </trkpt>
      <trkpt lat="45.61664" lon="6.18872">
        <ele>1365</ele>
        <time>2010-10-09T09:21:07Z</time>
      </trkpt>
      <trkpt lat="45.61662" lon="6.18871">
        <ele>1365</ele>
        <time>2010-10-09T09:21:08Z</time>
      </trkpt>
      <trkpt lat="45.6166" lon="6.18869">
        <ele>1366</ele>
        <time>2010-10-09T09:21:10Z</time>
      </trkpt>
      <trkpt lat="45.61658" lon="6.18869">
        <ele>1366</ele>
        <time>2010-10-09T09:21:12Z</time>
      </trkpt>
      <trkpt lat="45.61656" lon="6.18868">
        <ele>1366</ele>
        <time>2010-10-09T09:21:14Z</time>
      </trkpt>
      <trkpt lat="45.61653" lon="6.18868">
        <ele>1366</ele>
        <time>2010-10-09T09:21:16Z</time>
      </trkpt>
      <trkpt lat="45.61652" lon="6.18868">
        <ele>1366</ele>
        <time>2010-10-09T09:21:17Z</time>
      </trkpt>
      <trkpt lat="45.61651" lon="6.18867">
        <ele>1366</ele>
        <time>2010-10-09T09:21:18Z</time>
      </trkpt>
      <trkpt lat="45.61649" lon="6.18867">
        <ele>1366</ele>
        <time>2010-10-09T09:21:19Z</time>
      </trkpt>
      <trkpt lat="45.61648" lon="6.18866">
        <ele>1366</ele>
        <time>2010-10-09T09:21:20Z</time>
      </trkpt>
      <trkpt lat="45.61647" lon="6.18866">
        <ele>1366</ele>
        <time>2010-10-09T09:21:21Z</time>
      </trkpt>
      <trkpt lat="45.61645" lon="6.18865">
        <ele>1366</ele>
        <time>2010-10-09T09:21:23Z</time>
      </trkpt>
      <trkpt lat="45.61643" lon="6.18864">
        <ele>1366</ele>
        <time>2010-10-09T09:21:24Z</time>
      </trkpt>
      <trkpt lat="45.61641" lon="6.18863">
        <ele>1366</ele>
        <time>2010-10-09T09:21:26Z</time>
      </trkpt>
      <trkpt lat="45.6164" lon="6.18862">
        <ele>1367</ele>
        <time>2010-10-09T09:21:27Z</time>
      </trkpt>
      <trkpt lat="45.61638" lon="6.18861">
        <ele>1367</ele>
        <time>2010-10-09T09:21:28Z</time>
      </trkpt>
      <trkpt lat="45.61637" lon="6.1886">
        <ele>1367</ele>
        <time>2010-10-09T09:21:29Z</time>
      </trkpt>
      <trkpt lat="45.61636" lon="6.18859">
        <ele>1367</ele>
        <time>2010-10-09T09:21:30Z</time>
      </trkpt>
      <trkpt lat="45.61634" lon="6.18859">
        <ele>1367</ele>
        <time>2010-10-09T09:21:31Z</time>
      </trkpt>
      <trkpt lat="45.61633" lon="6.18858">
        <ele>1367</ele>
        <time>2010-10-09T09:21:32Z</time>
      </trkpt>
      <trkpt lat="45.61632" lon="6.18857">
        <ele>1367</ele>
        <time>2010-10-09T09:21:33Z</time>
      </trkpt>
      <trkpt lat="45.61631" lon="6.18856">
        <ele>1367</ele>
        <time>2010-10-09T09:21:34Z</time>
      </trkpt>
      <trkpt lat="45.6163" lon="6.18855">
        <ele>1367</ele>
        <time>2010-10-09T09:21:35Z</time>
      </trkpt>
      <trkpt lat="45.61628" lon="6.18854">
        <ele>1367</ele>
        <time>2010-10-09T09:21:37Z</time>
      </trkpt>
      <trkpt lat="45.61626" lon="6.18853">
        <ele>1368</ele>
        <time>2010-10-09T09:21:39Z</time>
      </trkpt>
      <trkpt lat="45.61625" lon="6.18851">
        <ele>1368</ele>
        <time>2010-10-09T09:21:42Z</time>
      </trkpt>
      <trkpt lat="45.61623" lon="6.18849">
        <ele>1368</ele>
        <time>2010-10-09T09:21:44Z</time>
      </trkpt>
      <trkpt lat="45.61621" lon="6.18849">
        <ele>1368</ele>
        <time>2010-10-09T09:21:46Z</time>
      </trkpt>
      <trkpt lat="45.6162" lon="6.18849">
        <ele>1368</ele>
        <time>2010-10-09T09:21:47Z</time>
      </trkpt>
      <trkpt lat="45.61619" lon="6.18849">
        <ele>1368</ele>
        <time>2010-10-09T09:21:48Z</time>
      </trkpt>
      <trkpt lat="45.61617" lon="6.18849">
        <ele>1368</ele>
        <time>2010-10-09T09:21:50Z</time>
      </trkpt>
      <trkpt lat="45.61613" lon="6.1885">
        <ele>1369</ele>
        <time>2010-10-09T09:21:53Z</time>
      </trkpt>
      <trkpt lat="45.61612" lon="6.1885">
        <ele>1369</ele>
        <time>2010-10-09T09:21:54Z</time>
      </trkpt>
      <trkpt lat="45.61611" lon="6.1885">
        <ele>1369</ele>
        <time>2010-10-09T09:21:55Z</time>
      </trkpt>
      <trkpt lat="45.61609" lon="6.1885">
        <ele>1369</ele>
        <time>2010-10-09T09:21:57Z</time>
      </trkpt>
      <trkpt lat="45.61607" lon="6.1885">
        <ele>1369</ele>
        <time>2010-10-09T09:21:59Z</time>
      </trkpt>
      <trkpt lat="45.61606" lon="6.1885">
        <ele>1369</ele>
        <time>2010-10-09T09:22:00Z</time>
      </trkpt>
      <trkpt lat="45.61604" lon="6.1885">
        <ele>1369</ele>
        <time>2010-10-09T09:22:02Z</time>
      </trkpt>
      <trkpt lat="45.61603" lon="6.1885">
        <ele>1369</ele>
        <time>2010-10-09T09:22:03Z</time>
      </trkpt>
      <trkpt lat="45.61602" lon="6.1885">
        <ele>1370</ele>
        <time>2010-10-09T09:22:04Z</time>
      </trkpt>
      <trkpt lat="45.616" lon="6.1885">
        <ele>1370</ele>
        <time>2010-10-09T09:22:06Z</time>
      </trkpt>
      <trkpt lat="45.61598" lon="6.1885">
        <ele>1370</ele>
        <time>2010-10-09T09:22:07Z</time>
      </trkpt>
      <trkpt lat="45.61595" lon="6.1885">
        <ele>1370</ele>
        <time>2010-10-09T09:22:09Z</time>
      </trkpt>
      <trkpt lat="45.61592" lon="6.18849">
        <ele>1371</ele>
        <time>2010-10-09T09:22:11Z</time>
      </trkpt>
      <trkpt lat="45.61591" lon="6.18849">
        <ele>1371</ele>
        <time>2010-10-09T09:22:12Z</time>
      </trkpt>
      <trkpt lat="45.6159" lon="6.18849">
        <ele>1371</ele>
        <time>2010-10-09T09:22:13Z</time>
      </trkpt>
      <trkpt lat="45.61589" lon="6.18848">
        <ele>1371</ele>
        <time>2010-10-09T09:22:14Z</time>
      </trkpt>
      <trkpt lat="45.61588" lon="6.18848">
        <ele>1371</ele>
        <time>2010-10-09T09:22:15Z</time>
      </trkpt>
      <trkpt lat="45.61585" lon="6.18847">
        <ele>1372</ele>
        <time>2010-10-09T09:22:17Z</time>
      </trkpt>
      <trkpt lat="45.61584" lon="6.18847">
        <ele>1372</ele>
        <time>2010-10-09T09:22:18Z</time>
      </trkpt>
      <trkpt lat="45.61582" lon="6.18845">
        <ele>1376</ele>
        <time>2010-10-09T09:22:20Z</time>
      </trkpt>
      <trkpt lat="45.6158" lon="6.18844">
        <ele>1376</ele>
        <time>2010-10-09T09:22:22Z</time>
      </trkpt>
      <trkpt lat="45.61578" lon="6.18841">
        <ele>1376</ele>
        <time>2010-10-09T09:22:24Z</time>
      </trkpt>
      <trkpt lat="45.61576" lon="6.18839">
        <ele>1376</ele>
        <time>2010-10-09T09:22:26Z</time>
      </trkpt>
      <trkpt lat="45.61575" lon="6.18836">
        <ele>1376</ele>
        <time>2010-10-09T09:22:28Z</time>
      </trkpt>
      <trkpt lat="45.61573" lon="6.18834">
        <ele>1377</ele>
        <time>2010-10-09T09:22:30Z</time>
      </trkpt>
      <trkpt lat="45.61571" lon="6.18831">
        <ele>1382</ele>
        <time>2010-10-09T09:22:32Z</time>
      </trkpt>
      <trkpt lat="45.6157" lon="6.18829">
        <ele>1383</ele>
        <time>2010-10-09T09:22:34Z</time>
      </trkpt>
      <trkpt lat="45.61568" lon="6.18827">
        <ele>1384</ele>
        <time>2010-10-09T09:22:37Z</time>
      </trkpt>
      <trkpt lat="45.61565" lon="6.18826">
        <ele>1385</ele>
        <time>2010-10-09T09:22:38Z</time>
      </trkpt>
      <trkpt lat="45.61564" lon="6.18825">
        <ele>1385</ele>
        <time>2010-10-09T09:22:39Z</time>
      </trkpt>
      <trkpt lat="45.61562" lon="6.18825">
        <ele>1386</ele>
        <time>2010-10-09T09:22:41Z</time>
      </trkpt>
      <trkpt lat="45.6156" lon="6.18825">
        <ele>1386</ele>
        <time>2010-10-09T09:22:42Z</time>
      </trkpt>
      <trkpt lat="45.61559" lon="6.18825">
        <ele>1386</ele>
        <time>2010-10-09T09:22:43Z</time>
      </trkpt>
      <trkpt lat="45.61558" lon="6.18824">
        <ele>1386</ele>
        <time>2010-10-09T09:22:44Z</time>
      </trkpt>
      <trkpt lat="45.61557" lon="6.18824">
        <ele>1387</ele>
        <time>2010-10-09T09:22:45Z</time>
      </trkpt>
      <trkpt lat="45.61555" lon="6.18825">
        <ele>1387</ele>
        <time>2010-10-09T09:22:46Z</time>
      </trkpt>
      <trkpt lat="45.61554" lon="6.18825">
        <ele>1387</ele>
        <time>2010-10-09T09:22:47Z</time>
      </trkpt>
      <trkpt lat="45.61552" lon="6.18825">
        <ele>1388</ele>
        <time>2010-10-09T09:22:49Z</time>
      </trkpt>
      <trkpt lat="45.61551" lon="6.18826">
        <ele>1388</ele>
        <time>2010-10-09T09:22:50Z</time>
      </trkpt>
      <trkpt lat="45.61549" lon="6.18826">
        <ele>1388</ele>
        <time>2010-10-09T09:22:52Z</time>
      </trkpt>
      <trkpt lat="45.61547" lon="6.18826">
        <ele>1388</ele>
        <time>2010-10-09T09:22:54Z</time>
      </trkpt>
      <trkpt lat="45.61545" lon="6.18827">
        <ele>1389</ele>
        <time>2010-10-09T09:22:56Z</time>
      </trkpt>
      <trkpt lat="45.61543" lon="6.18828">
        <ele>1389</ele>
        <time>2010-10-09T09:22:59Z</time>
      </trkpt>
      <trkpt lat="45.6154" lon="6.18828">
        <ele>1389</ele>
        <time>2010-10-09T09:23:01Z</time>
      </trkpt>
      <trkpt lat="45.61538" lon="6.18828">
        <ele>1389</ele>
        <time>2010-10-09T09:23:03Z</time>
      </trkpt>
      <trkpt lat="45.61536" lon="6.18827">
        <ele>1390</ele>
        <time>2010-10-09T09:23:05Z</time>
      </trkpt>
      <trkpt lat="45.61534" lon="6.18825">
        <ele>1390</ele>
        <time>2010-10-09T09:23:06Z</time>
      </trkpt>
      <trkpt lat="45.61533" lon="6.18824">
        <ele>1390</ele>
        <time>2010-10-09T09:23:07Z</time>
      </trkpt>
      <trkpt lat="45.61531" lon="6.18823">
        <ele>1390</ele>
        <time>2010-10-09T09:23:09Z</time>
      </trkpt>
      <trkpt lat="45.6153" lon="6.18822">
        <ele>1391</ele>
        <time>2010-10-09T09:23:10Z</time>
      </trkpt>
      <trkpt lat="45.61528" lon="6.18822">
        <ele>1391</ele>
        <time>2010-10-09T09:23:11Z</time>
      </trkpt>
      <trkpt lat="45.61527" lon="6.18821">
        <ele>1391</ele>
        <time>2010-10-09T09:23:12Z</time>
      </trkpt>
      <trkpt lat="45.61526" lon="6.1882">
        <ele>1391</ele>
        <time>2010-10-09T09:23:13Z</time>
      </trkpt>
      <trkpt lat="45.61523" lon="6.1882">
        <ele>1391</ele>
        <time>2010-10-09T09:23:15Z</time>
      </trkpt>
      <trkpt lat="45.61522" lon="6.18819">
        <ele>1391</ele>
        <time>2010-10-09T09:23:17Z</time>
      </trkpt>
      <trkpt lat="45.6152" lon="6.1882">
        <ele>1391</ele>
        <time>2010-10-09T09:23:19Z</time>
      </trkpt>
      <trkpt lat="45.61518" lon="6.18819">
        <ele>1391</ele>
        <time>2010-10-09T09:23:21Z</time>
      </trkpt>
      <trkpt lat="45.61516" lon="6.18819">
        <ele>1391</ele>
        <time>2010-10-09T09:23:23Z</time>
      </trkpt>
      <trkpt lat="45.61514" lon="6.1882">
        <ele>1391</ele>
        <time>2010-10-09T09:23:25Z</time>
      </trkpt>
      <trkpt lat="45.61513" lon="6.1882">
        <ele>1392</ele>
        <time>2010-10-09T09:23:26Z</time>
      </trkpt>
      <trkpt lat="45.61512" lon="6.1882">
        <ele>1392</ele>
        <time>2010-10-09T09:23:27Z</time>
      </trkpt>
      <trkpt lat="45.61509" lon="6.1882">
        <ele>1392</ele>
        <time>2010-10-09T09:23:29Z</time>
      </trkpt>
      <trkpt lat="45.61506" lon="6.18819">
        <ele>1392</ele>
        <time>2010-10-09T09:23:32Z</time>
      </trkpt>
      <trkpt lat="45.61504" lon="6.18818">
        <ele>1392</ele>
        <time>2010-10-09T09:23:34Z</time>
      </trkpt>
      <trkpt lat="45.61502" lon="6.18817">
        <ele>1392</ele>
        <time>2010-10-09T09:23:36Z</time>
      </trkpt>
      <trkpt lat="45.615" lon="6.18816">
        <ele>1392</ele>
        <time>2010-10-09T09:23:38Z</time>
      </trkpt>
      <trkpt lat="45.61499" lon="6.18815">
        <ele>1397</ele>
        <time>2010-10-09T09:23:40Z</time>
      </trkpt>
      <trkpt lat="45.61496" lon="6.18814">
        <ele>1397</ele>
        <time>2010-10-09T09:23:42Z</time>
      </trkpt>
      <trkpt lat="45.61494" lon="6.18814">
        <ele>1397</ele>
        <time>2010-10-09T09:23:44Z</time>
      </trkpt>
      <trkpt lat="45.61493" lon="6.18813">
        <ele>1397</ele>
        <time>2010-10-09T09:23:45Z</time>
      </trkpt>
      <trkpt lat="45.61492" lon="6.18813">
        <ele>1397</ele>
        <time>2010-10-09T09:23:46Z</time>
      </trkpt>
      <trkpt lat="45.6149" lon="6.18813">
        <ele>1398</ele>
        <time>2010-10-09T09:23:48Z</time>
      </trkpt>
      <trkpt lat="45.61488" lon="6.18814">
        <ele>1398</ele>
        <time>2010-10-09T09:23:49Z</time>
      </trkpt>
      <trkpt lat="45.61487" lon="6.18814">
        <ele>1398</ele>
        <time>2010-10-09T09:23:50Z</time>
      </trkpt>
      <trkpt lat="45.61485" lon="6.18815">
        <ele>1398</ele>
        <time>2010-10-09T09:23:52Z</time>
      </trkpt>
      <trkpt lat="45.61484" lon="6.18815">
        <ele>1398</ele>
        <time>2010-10-09T09:23:54Z</time>
      </trkpt>
      <trkpt lat="45.61481" lon="6.18817">
        <ele>1398</ele>
        <time>2010-10-09T09:23:57Z</time>
      </trkpt>
      <trkpt lat="45.61479" lon="6.18819">
        <ele>1398</ele>
        <time>2010-10-09T09:24:00Z</time>
      </trkpt>
      <trkpt lat="45.61476" lon="6.18822">
        <ele>1398</ele>
        <time>2010-10-09T09:24:02Z</time>
      </trkpt>
      <trkpt lat="45.61475" lon="6.18824">
        <ele>1398</ele>
        <time>2010-10-09T09:24:04Z</time>
      </trkpt>
      <trkpt lat="45.61473" lon="6.18825">
        <ele>1398</ele>
        <time>2010-10-09T09:24:05Z</time>
      </trkpt>
      <trkpt lat="45.61471" lon="6.18828">
        <ele>1398</ele>
        <time>2010-10-09T09:24:07Z</time>
      </trkpt>
      <trkpt lat="45.61469" lon="6.1883">
        <ele>1398</ele>
        <time>2010-10-09T09:24:09Z</time>
      </trkpt>
      <trkpt lat="45.61467" lon="6.18832">
        <ele>1398</ele>
        <time>2010-10-09T09:24:11Z</time>
      </trkpt>
      <trkpt lat="45.61466" lon="6.18832">
        <ele>1398</ele>
        <time>2010-10-09T09:24:13Z</time>
      </trkpt>
      <trkpt lat="45.61463" lon="6.18834">
        <ele>1392</ele>
        <time>2010-10-09T09:24:14Z</time>
      </trkpt>
      <trkpt lat="45.61461" lon="6.18834">
        <ele>1392</ele>
        <time>2010-10-09T09:24:15Z</time>
      </trkpt>
      <trkpt lat="45.6146" lon="6.18835">
        <ele>1392</ele>
        <time>2010-10-09T09:24:16Z</time>
      </trkpt>
      <trkpt lat="45.61458" lon="6.18835">
        <ele>1392</ele>
        <time>2010-10-09T09:24:18Z</time>
      </trkpt>
      <trkpt lat="45.61457" lon="6.18835">
        <ele>1392</ele>
        <time>2010-10-09T09:24:20Z</time>
      </trkpt>
      <trkpt lat="45.61455" lon="6.18834">
        <ele>1392</ele>
        <time>2010-10-09T09:24:22Z</time>
      </trkpt>
      <trkpt lat="45.61454" lon="6.18833">
        <ele>1399</ele>
        <time>2010-10-09T09:24:23Z</time>
      </trkpt>
      <trkpt lat="45.61453" lon="6.18833">
        <ele>1399</ele>
        <time>2010-10-09T09:24:24Z</time>
      </trkpt>
      <trkpt lat="45.61451" lon="6.18832">
        <ele>1399</ele>
        <time>2010-10-09T09:24:25Z</time>
      </trkpt>
      <trkpt lat="45.6145" lon="6.18832">
        <ele>1399</ele>
        <time>2010-10-09T09:24:26Z</time>
      </trkpt>
      <trkpt lat="45.61449" lon="6.18832">
        <ele>1399</ele>
        <time>2010-10-09T09:24:29Z</time>
      </trkpt>
      <trkpt lat="45.61447" lon="6.18833">
        <ele>1399</ele>
        <time>2010-10-09T09:24:30Z</time>
      </trkpt>
      <trkpt lat="45.61445" lon="6.18833">
        <ele>1399</ele>
        <time>2010-10-09T09:24:32Z</time>
      </trkpt>
      <trkpt lat="45.61443" lon="6.18834">
        <ele>1393</ele>
        <time>2010-10-09T09:24:34Z</time>
      </trkpt>
      <trkpt lat="45.61441" lon="6.18835">
        <ele>1393</ele>
        <time>2010-10-09T09:24:36Z</time>
      </trkpt>
      <trkpt lat="45.61439" lon="6.18836">
        <ele>1393</ele>
        <time>2010-10-09T09:24:38Z</time>
      </trkpt>
      <trkpt lat="45.61437" lon="6.18838">
        <ele>1393</ele>
        <time>2010-10-09T09:24:40Z</time>
      </trkpt>
      <trkpt lat="45.61435" lon="6.18839">
        <ele>1393</ele>
        <time>2010-10-09T09:24:41Z</time>
      </trkpt>
      <trkpt lat="45.61433" lon="6.1884">
        <ele>1393</ele>
        <time>2010-10-09T09:24:43Z</time>
      </trkpt>
      <trkpt lat="45.61432" lon="6.18841">
        <ele>1394</ele>
        <time>2010-10-09T09:24:44Z</time>
      </trkpt>
      <trkpt lat="45.6143" lon="6.18842">
        <ele>1394</ele>
        <time>2010-10-09T09:24:45Z</time>
      </trkpt>
      <trkpt lat="45.61429" lon="6.18843">
        <ele>1394</ele>
        <time>2010-10-09T09:24:46Z</time>
      </trkpt>
      <trkpt lat="45.61428" lon="6.18844">
        <ele>1394</ele>
        <time>2010-10-09T09:24:47Z</time>
      </trkpt>
      <trkpt lat="45.61427" lon="6.18844">
        <ele>1394</ele>
        <time>2010-10-09T09:24:48Z</time>
      </trkpt>
      <trkpt lat="45.61425" lon="6.18845">
        <ele>1394</ele>
        <time>2010-10-09T09:24:49Z</time>
      </trkpt>
      <trkpt lat="45.61423" lon="6.18847">
        <ele>1394</ele>
        <time>2010-10-09T09:24:51Z</time>
      </trkpt>
      <trkpt lat="45.61421" lon="6.18848">
        <ele>1394</ele>
        <time>2010-10-09T09:24:52Z</time>
      </trkpt>
      <trkpt lat="45.6142" lon="6.18849">
        <ele>1394</ele>
        <time>2010-10-09T09:24:53Z</time>
      </trkpt>
      <trkpt lat="45.61419" lon="6.1885">
        <ele>1394</ele>
        <time>2010-10-09T09:24:54Z</time>
      </trkpt>
      <trkpt lat="45.61417" lon="6.18851">
        <ele>1394</ele>
        <time>2010-10-09T09:24:55Z</time>
      </trkpt>
      <trkpt lat="45.61416" lon="6.18852">
        <ele>1399</ele>
        <time>2010-10-09T09:24:56Z</time>
      </trkpt>
      <trkpt lat="45.61415" lon="6.18853">
        <ele>1399</ele>
        <time>2010-10-09T09:24:57Z</time>
      </trkpt>
      <trkpt lat="45.61414" lon="6.18854">
        <ele>1399</ele>
        <time>2010-10-09T09:24:58Z</time>
      </trkpt>
      <trkpt lat="45.61412" lon="6.18854">
        <ele>1399</ele>
        <time>2010-10-09T09:24:59Z</time>
      </trkpt>
      <trkpt lat="45.61409" lon="6.18856">
        <ele>1399</ele>
        <time>2010-10-09T09:25:01Z</time>
      </trkpt>
      <trkpt lat="45.61408" lon="6.18856">
        <ele>1399</ele>
        <time>2010-10-09T09:25:02Z</time>
      </trkpt>
      <trkpt lat="45.61406" lon="6.18857">
        <ele>1399</ele>
        <time>2010-10-09T09:25:03Z</time>
      </trkpt>
      <trkpt lat="45.61405" lon="6.18857">
        <ele>1399</ele>
        <time>2010-10-09T09:25:04Z</time>
      </trkpt>
      <trkpt lat="45.61404" lon="6.18858">
        <ele>1399</ele>
        <time>2010-10-09T09:25:05Z</time>
      </trkpt>
      <trkpt lat="45.61402" lon="6.18858">
        <ele>1399</ele>
        <time>2010-10-09T09:25:07Z</time>
      </trkpt>
      <trkpt lat="45.61401" lon="6.18858">
        <ele>1400</ele>
        <time>2010-10-09T09:25:08Z</time>
      </trkpt>
      <trkpt lat="45.614" lon="6.18859">
        <ele>1400</ele>
        <time>2010-10-09T09:25:09Z</time>
      </trkpt>
      <trkpt lat="45.61398" lon="6.18859">
        <ele>1400</ele>
        <time>2010-10-09T09:25:11Z</time>
      </trkpt>
      <trkpt lat="45.61396" lon="6.1886">
        <ele>1400</ele>
        <time>2010-10-09T09:25:12Z</time>
      </trkpt>
      <trkpt lat="45.61394" lon="6.1886">
        <ele>1400</ele>
        <time>2010-10-09T09:25:14Z</time>
      </trkpt>
      <trkpt lat="45.61391" lon="6.1886">
        <ele>1400</ele>
        <time>2010-10-09T09:25:16Z</time>
      </trkpt>
      <trkpt lat="45.61389" lon="6.1886">
        <ele>1400</ele>
        <time>2010-10-09T09:25:18Z</time>
      </trkpt>
      <trkpt lat="45.61388" lon="6.1886">
        <ele>1401</ele>
        <time>2010-10-09T09:25:19Z</time>
      </trkpt>
      <trkpt lat="45.61386" lon="6.1886">
        <ele>1401</ele>
        <time>2010-10-09T09:25:20Z</time>
      </trkpt>
      <trkpt lat="45.61385" lon="6.1886">
        <ele>1401</ele>
        <time>2010-10-09T09:25:21Z</time>
      </trkpt>
      <trkpt lat="45.61383" lon="6.1886">
        <ele>1401</ele>
        <time>2010-10-09T09:25:22Z</time>
      </trkpt>
      <trkpt lat="45.61382" lon="6.1886">
        <ele>1401</ele>
        <time>2010-10-09T09:25:23Z</time>
      </trkpt>
      <trkpt lat="45.6138" lon="6.1886">
        <ele>1401</ele>
        <time>2010-10-09T09:25:24Z</time>
      </trkpt>
      <trkpt lat="45.61379" lon="6.1886">
        <ele>1401</ele>
        <time>2010-10-09T09:25:25Z</time>
      </trkpt>
      <trkpt lat="45.61378" lon="6.18859">
        <ele>1401</ele>
        <time>2010-10-09T09:25:26Z</time>
      </trkpt>
      <trkpt lat="45.61377" lon="6.18859">
        <ele>1401</ele>
        <time>2010-10-09T09:25:27Z</time>
      </trkpt>
      <trkpt lat="45.61375" lon="6.18858">
        <ele>1402</ele>
        <time>2010-10-09T09:25:28Z</time>
      </trkpt>
      <trkpt lat="45.61374" lon="6.18857">
        <ele>1402</ele>
        <time>2010-10-09T09:25:30Z</time>
      </trkpt>
      <trkpt lat="45.61371" lon="6.18853">
        <ele>1402</ele>
        <time>2010-10-09T09:25:32Z</time>
      </trkpt>
      <trkpt lat="45.61371" lon="6.18851">
        <ele>1402</ele>
        <time>2010-10-09T09:25:33Z</time>
      </trkpt>
      <trkpt lat="45.6137" lon="6.18848">
        <ele>1402</ele>
        <time>2010-10-09T09:25:35Z</time>
      </trkpt>
      <trkpt lat="45.6137" lon="6.18845">
        <ele>1402</ele>
        <time>2010-10-09T09:25:37Z</time>
      </trkpt>
      <trkpt lat="45.61371" lon="6.18842">
        <ele>1402</ele>
        <time>2010-10-09T09:25:39Z</time>
      </trkpt>
      <trkpt lat="45.61371" lon="6.1884">
        <ele>1402</ele>
        <time>2010-10-09T09:25:40Z</time>
      </trkpt>
      <trkpt lat="45.61371" lon="6.18838">
        <ele>1402</ele>
        <time>2010-10-09T09:25:41Z</time>
      </trkpt>
      <trkpt lat="45.61371" lon="6.18837">
        <ele>1402</ele>
        <time>2010-10-09T09:25:42Z</time>
      </trkpt>
      <trkpt lat="45.61372" lon="6.18835">
        <ele>1402</ele>
        <time>2010-10-09T09:25:43Z</time>
      </trkpt>
      <trkpt lat="45.61372" lon="6.1883">
        <ele>1408</ele>
        <time>2010-10-09T09:25:45Z</time>
      </trkpt>
      <trkpt lat="45.61372" lon="6.18828">
        <ele>1408</ele>
        <time>2010-10-09T09:25:47Z</time>
      </trkpt>
      <trkpt lat="45.61371" lon="6.18825">
        <ele>1408</ele>
        <time>2010-10-09T09:25:48Z</time>
      </trkpt>
      <trkpt lat="45.61371" lon="6.18823">
        <ele>1409</ele>
        <time>2010-10-09T09:25:51Z</time>
      </trkpt>
      <trkpt lat="45.61369" lon="6.18819">
        <ele>1409</ele>
        <time>2010-10-09T09:25:53Z</time>
      </trkpt>
      <trkpt lat="45.61367" lon="6.18818">
        <ele>1409</ele>
        <time>2010-10-09T09:25:55Z</time>
      </trkpt>
      <trkpt lat="45.61365" lon="6.18816">
        <ele>1409</ele>
        <time>2010-10-09T09:25:57Z</time>
      </trkpt>
      <trkpt lat="45.61364" lon="6.18815">
        <ele>1409</ele>
        <time>2010-10-09T09:25:59Z</time>
      </trkpt>
      <trkpt lat="45.61362" lon="6.18813">
        <ele>1410</ele>
        <time>2010-10-09T09:26:05Z</time>
      </trkpt>
      <trkpt lat="45.61361" lon="6.18813">
        <ele>1410</ele>
        <time>2010-10-09T09:26:07Z</time>
      </trkpt>
      <trkpt lat="45.61345" lon="6.18808">
        <ele>1411</ele>
        <time>2010-10-09T09:26:11Z</time>
      </trkpt>
      <trkpt lat="45.61343" lon="6.18809">
        <ele>1411</ele>
        <time>2010-10-09T09:26:13Z</time>
      </trkpt>
      <trkpt lat="45.61341" lon="6.18809">
        <ele>1411</ele>
        <time>2010-10-09T09:26:16Z</time>
      </trkpt>
      <trkpt lat="45.61339" lon="6.18809">
        <ele>1411</ele>
        <time>2010-10-09T09:26:17Z</time>
      </trkpt>
      <trkpt lat="45.61338" lon="6.1881">
        <ele>1411</ele>
        <time>2010-10-09T09:26:19Z</time>
      </trkpt>
      <trkpt lat="45.61337" lon="6.1881">
        <ele>1411</ele>
        <time>2010-10-09T09:26:20Z</time>
      </trkpt>
      <trkpt lat="45.61335" lon="6.18811">
        <ele>1411</ele>
        <time>2010-10-09T09:26:21Z</time>
      </trkpt>
      <trkpt lat="45.61333" lon="6.18812">
        <ele>1416</ele>
        <time>2010-10-09T09:26:23Z</time>
      </trkpt>
      <trkpt lat="45.61331" lon="6.18812">
        <ele>1416</ele>
        <time>2010-10-09T09:26:25Z</time>
      </trkpt>
      <trkpt lat="45.61328" lon="6.18812">
        <ele>1416</ele>
        <time>2010-10-09T09:26:26Z</time>
      </trkpt>
      <trkpt lat="45.61327" lon="6.18812">
        <ele>1416</ele>
        <time>2010-10-09T09:26:27Z</time>
      </trkpt>
      <trkpt lat="45.61325" lon="6.18813">
        <ele>1416</ele>
        <time>2010-10-09T09:26:29Z</time>
      </trkpt>
      <trkpt lat="45.61323" lon="6.18814">
        <ele>1416</ele>
        <time>2010-10-09T09:26:31Z</time>
      </trkpt>
      <trkpt lat="45.61322" lon="6.18815">
        <ele>1416</ele>
        <time>2010-10-09T09:26:32Z</time>
      </trkpt>
      <trkpt lat="45.61321" lon="6.18815">
        <ele>1416</ele>
        <time>2010-10-09T09:26:33Z</time>
      </trkpt>
      <trkpt lat="45.61319" lon="6.18816">
        <ele>1416</ele>
        <time>2010-10-09T09:26:34Z</time>
      </trkpt>
      <trkpt lat="45.61317" lon="6.18818">
        <ele>1416</ele>
        <time>2010-10-09T09:26:36Z</time>
      </trkpt>
      <trkpt lat="45.61315" lon="6.18819">
        <ele>1416</ele>
        <time>2010-10-09T09:26:38Z</time>
      </trkpt>
      <trkpt lat="45.61314" lon="6.1882">
        <ele>1416</ele>
        <time>2010-10-09T09:26:39Z</time>
      </trkpt>
      <trkpt lat="45.61312" lon="6.18821">
        <ele>1416</ele>
        <time>2010-10-09T09:26:40Z</time>
      </trkpt>
      <trkpt lat="45.6131" lon="6.18822">
        <ele>1416</ele>
        <time>2010-10-09T09:26:42Z</time>
      </trkpt>
      <trkpt lat="45.61309" lon="6.18823">
        <ele>1416</ele>
        <time>2010-10-09T09:26:43Z</time>
      </trkpt>
      <trkpt lat="45.61308" lon="6.18824">
        <ele>1416</ele>
        <time>2010-10-09T09:26:44Z</time>
      </trkpt>
      <trkpt lat="45.61305" lon="6.18825">
        <ele>1416</ele>
        <time>2010-10-09T09:26:46Z</time>
      </trkpt>
      <trkpt lat="45.61304" lon="6.18826">
        <ele>1416</ele>
        <time>2010-10-09T09:26:47Z</time>
      </trkpt>
      <trkpt lat="45.61303" lon="6.18826">
        <ele>1417</ele>
        <time>2010-10-09T09:26:48Z</time>
      </trkpt>
      <trkpt lat="45.61301" lon="6.18826">
        <ele>1417</ele>
        <time>2010-10-09T09:26:49Z</time>
      </trkpt>
      <trkpt lat="45.613" lon="6.18827">
        <ele>1417</ele>
        <time>2010-10-09T09:26:50Z</time>
      </trkpt>
      <trkpt lat="45.61298" lon="6.18827">
        <ele>1417</ele>
        <time>2010-10-09T09:26:52Z</time>
      </trkpt>
      <trkpt lat="45.61296" lon="6.18828">
        <ele>1417</ele>
        <time>2010-10-09T09:26:53Z</time>
      </trkpt>
      <trkpt lat="45.61295" lon="6.18828">
        <ele>1417</ele>
        <time>2010-10-09T09:26:54Z</time>
      </trkpt>
      <trkpt lat="45.61294" lon="6.18828">
        <ele>1417</ele>
        <time>2010-10-09T09:26:55Z</time>
      </trkpt>
      <trkpt lat="45.61293" lon="6.18828">
        <ele>1417</ele>
        <time>2010-10-09T09:26:56Z</time>
      </trkpt>
      <trkpt lat="45.61291" lon="6.18828">
        <ele>1417</ele>
        <time>2010-10-09T09:26:58Z</time>
      </trkpt>
      <trkpt lat="45.6129" lon="6.18828">
        <ele>1417</ele>
        <time>2010-10-09T09:26:59Z</time>
      </trkpt>
      <trkpt lat="45.61287" lon="6.18828">
        <ele>1418</ele>
        <time>2010-10-09T09:27:01Z</time>
      </trkpt>
      <trkpt lat="45.61286" lon="6.18827">
        <ele>1418</ele>
        <time>2010-10-09T09:27:02Z</time>
      </trkpt>
      <trkpt lat="45.61284" lon="6.18826">
        <ele>1418</ele>
        <time>2010-10-09T09:27:04Z</time>
      </trkpt>
      <trkpt lat="45.61282" lon="6.18826">
        <ele>1418</ele>
        <time>2010-10-09T09:27:06Z</time>
      </trkpt>
      <trkpt lat="45.61281" lon="6.18826">
        <ele>1418</ele>
        <time>2010-10-09T09:27:07Z</time>
      </trkpt>
      <trkpt lat="45.61279" lon="6.18826">
        <ele>1418</ele>
        <time>2010-10-09T09:27:08Z</time>
      </trkpt>
      <trkpt lat="45.61278" lon="6.18826">
        <ele>1418</ele>
        <time>2010-10-09T09:27:09Z</time>
      </trkpt>
      <trkpt lat="45.61276" lon="6.18826">
        <ele>1418</ele>
        <time>2010-10-09T09:27:11Z</time>
      </trkpt>
      <trkpt lat="45.61274" lon="6.18826">
        <ele>1418</ele>
        <time>2010-10-09T09:27:12Z</time>
      </trkpt>
      <trkpt lat="45.61273" lon="6.18825">
        <ele>1418</ele>
        <time>2010-10-09T09:27:15Z</time>
      </trkpt>
      <trkpt lat="45.61272" lon="6.18824">
        <ele>1418</ele>
        <time>2010-10-09T09:27:17Z</time>
      </trkpt>
      <trkpt lat="45.6127" lon="6.18823">
        <ele>1418</ele>
        <time>2010-10-09T09:27:19Z</time>
      </trkpt>
      <trkpt lat="45.61266" lon="6.18822">
        <ele>1418</ele>
        <time>2010-10-09T09:27:20Z</time>
      </trkpt>
      <trkpt lat="45.61265" lon="6.18821">
        <ele>1418</ele>
        <time>2010-10-09T09:27:22Z</time>
      </trkpt>
      <trkpt lat="45.61264" lon="6.1882">
        <ele>1418</ele>
        <time>2010-10-09T09:27:24Z</time>
      </trkpt>
      <trkpt lat="45.61262" lon="6.1882">
        <ele>1418</ele>
        <time>2010-10-09T09:27:26Z</time>
      </trkpt>
      <trkpt lat="45.6126" lon="6.1882">
        <ele>1418</ele>
        <time>2010-10-09T09:27:28Z</time>
      </trkpt>
      <trkpt lat="45.61258" lon="6.18821">
        <ele>1418</ele>
        <time>2010-10-09T09:27:30Z</time>
      </trkpt>
      <trkpt lat="45.61256" lon="6.18821">
        <ele>1418</ele>
        <time>2010-10-09T09:27:32Z</time>
      </trkpt>
      <trkpt lat="45.61255" lon="6.18821">
        <ele>1418</ele>
        <time>2010-10-09T09:27:33Z</time>
      </trkpt>
      <trkpt lat="45.61253" lon="6.18821">
        <ele>1418</ele>
        <time>2010-10-09T09:27:34Z</time>
      </trkpt>
      <trkpt lat="45.61251" lon="6.18821">
        <ele>1418</ele>
        <time>2010-10-09T09:27:36Z</time>
      </trkpt>
      <trkpt lat="45.61248" lon="6.18822">
        <ele>1421</ele>
        <time>2010-10-09T09:27:38Z</time>
      </trkpt>
      <trkpt lat="45.61247" lon="6.18821">
        <ele>1421</ele>
        <time>2010-10-09T09:27:39Z</time>
      </trkpt>
      <trkpt lat="45.61245" lon="6.18821">
        <ele>1421</ele>
        <time>2010-10-09T09:27:40Z</time>
      </trkpt>
      <trkpt lat="45.61242" lon="6.18821">
        <ele>1422</ele>
        <time>2010-10-09T09:27:42Z</time>
      </trkpt>
      <trkpt lat="45.61241" lon="6.18821">
        <ele>1422</ele>
        <time>2010-10-09T09:27:43Z</time>
      </trkpt>
      <trkpt lat="45.61239" lon="6.18821">
        <ele>1422</ele>
        <time>2010-10-09T09:27:44Z</time>
      </trkpt>
      <trkpt lat="45.61237" lon="6.1882">
        <ele>1423</ele>
        <time>2010-10-09T09:27:46Z</time>
      </trkpt>
      <trkpt lat="45.61234" lon="6.18819">
        <ele>1423</ele>
        <time>2010-10-09T09:27:48Z</time>
      </trkpt>
      <trkpt lat="45.61232" lon="6.18819">
        <ele>1424</ele>
        <time>2010-10-09T09:27:50Z</time>
      </trkpt>
      <trkpt lat="45.6123" lon="6.18819">
        <ele>1424</ele>
        <time>2010-10-09T09:27:52Z</time>
      </trkpt>
      <trkpt lat="45.61228" lon="6.18819">
        <ele>1424</ele>
        <time>2010-10-09T09:27:53Z</time>
      </trkpt>
      <trkpt lat="45.61227" lon="6.18819">
        <ele>1424</ele>
        <time>2010-10-09T09:27:54Z</time>
      </trkpt>
      <trkpt lat="45.61224" lon="6.18818">
        <ele>1425</ele>
        <time>2010-10-09T09:27:56Z</time>
      </trkpt>
      <trkpt lat="45.61221" lon="6.18818">
        <ele>1425</ele>
        <time>2010-10-09T09:27:59Z</time>
      </trkpt>
      <trkpt lat="45.61219" lon="6.18818">
        <ele>1425</ele>
        <time>2010-10-09T09:28:00Z</time>
      </trkpt>
      <trkpt lat="45.61217" lon="6.18818">
        <ele>1425</ele>
        <time>2010-10-09T09:28:02Z</time>
      </trkpt>
      <trkpt lat="45.61216" lon="6.18818">
        <ele>1426</ele>
        <time>2010-10-09T09:28:04Z</time>
      </trkpt>
      <trkpt lat="45.61214" lon="6.18818">
        <ele>1426</ele>
        <time>2010-10-09T09:28:05Z</time>
      </trkpt>
      <trkpt lat="45.61212" lon="6.18818">
        <ele>1426</ele>
        <time>2010-10-09T09:28:06Z</time>
      </trkpt>
      <trkpt lat="45.61209" lon="6.18817">
        <ele>1426</ele>
        <time>2010-10-09T09:28:08Z</time>
      </trkpt>
      <trkpt lat="45.61208" lon="6.18817">
        <ele>1426</ele>
        <time>2010-10-09T09:28:09Z</time>
      </trkpt>
      <trkpt lat="45.61207" lon="6.18817">
        <ele>1426</ele>
        <time>2010-10-09T09:28:11Z</time>
      </trkpt>
      <trkpt lat="45.61204" lon="6.18817">
        <ele>1427</ele>
        <time>2010-10-09T09:28:12Z</time>
      </trkpt>
      <trkpt lat="45.61203" lon="6.18817">
        <ele>1427</ele>
        <time>2010-10-09T09:28:13Z</time>
      </trkpt>
      <trkpt lat="45.61202" lon="6.18817">
        <ele>1427</ele>
        <time>2010-10-09T09:28:14Z</time>
      </trkpt>
      <trkpt lat="45.61199" lon="6.18817">
        <ele>1427</ele>
        <time>2010-10-09T09:28:16Z</time>
      </trkpt>
      <trkpt lat="45.61197" lon="6.18817">
        <ele>1427</ele>
        <time>2010-10-09T09:28:18Z</time>
      </trkpt>
      <trkpt lat="45.61195" lon="6.18817">
        <ele>1427</ele>
        <time>2010-10-09T09:28:19Z</time>
      </trkpt>
      <trkpt lat="45.61192" lon="6.18817">
        <ele>1427</ele>
        <time>2010-10-09T09:28:21Z</time>
      </trkpt>
      <trkpt lat="45.61189" lon="6.18818">
        <ele>1428</ele>
        <time>2010-10-09T09:28:23Z</time>
      </trkpt>
      <trkpt lat="45.61187" lon="6.18818">
        <ele>1428</ele>
        <time>2010-10-09T09:28:24Z</time>
      </trkpt>
      <trkpt lat="45.61186" lon="6.18818">
        <ele>1428</ele>
        <time>2010-10-09T09:28:25Z</time>
      </trkpt>
      <trkpt lat="45.61185" lon="6.18818">
        <ele>1428</ele>
        <time>2010-10-09T09:28:26Z</time>
      </trkpt>
      <trkpt lat="45.61182" lon="6.18817">
        <ele>1428</ele>
        <time>2010-10-09T09:28:28Z</time>
      </trkpt>
      <trkpt lat="45.6118" lon="6.18817">
        <ele>1428</ele>
        <time>2010-10-09T09:28:29Z</time>
      </trkpt>
      <trkpt lat="45.61178" lon="6.18817">
        <ele>1428</ele>
        <time>2010-10-09T09:28:31Z</time>
      </trkpt>
      <trkpt lat="45.61175" lon="6.18816">
        <ele>1428</ele>
        <time>2010-10-09T09:28:33Z</time>
      </trkpt>
      <trkpt lat="45.61174" lon="6.18816">
        <ele>1428</ele>
        <time>2010-10-09T09:28:34Z</time>
      </trkpt>
      <trkpt lat="45.61171" lon="6.18815">
        <ele>1428</ele>
        <time>2010-10-09T09:28:36Z</time>
      </trkpt>
      <trkpt lat="45.61168" lon="6.18814">
        <ele>1428</ele>
        <time>2010-10-09T09:28:38Z</time>
      </trkpt>
      <trkpt lat="45.61165" lon="6.18814">
        <ele>1434</ele>
        <time>2010-10-09T09:28:40Z</time>
      </trkpt>
      <trkpt lat="45.61163" lon="6.18813">
        <ele>1434</ele>
        <time>2010-10-09T09:28:42Z</time>
      </trkpt>
      <trkpt lat="45.6116" lon="6.18812">
        <ele>1434</ele>
        <time>2010-10-09T09:28:44Z</time>
      </trkpt>
      <trkpt lat="45.61158" lon="6.18812">
        <ele>1435</ele>
        <time>2010-10-09T09:28:46Z</time>
      </trkpt>
      <trkpt lat="45.61156" lon="6.18812">
        <ele>1435</ele>
        <time>2010-10-09T09:28:48Z</time>
      </trkpt>
      <trkpt lat="45.61154" lon="6.18811">
        <ele>1435</ele>
        <time>2010-10-09T09:28:50Z</time>
      </trkpt>
      <trkpt lat="45.61151" lon="6.1881">
        <ele>1435</ele>
        <time>2010-10-09T09:28:52Z</time>
      </trkpt>
      <trkpt lat="45.61148" lon="6.1881">
        <ele>1436</ele>
        <time>2010-10-09T09:28:54Z</time>
      </trkpt>
      <trkpt lat="45.61147" lon="6.18808">
        <ele>1436</ele>
        <time>2010-10-09T09:28:56Z</time>
      </trkpt>
      <trkpt lat="45.61145" lon="6.18807">
        <ele>1436</ele>
        <time>2010-10-09T09:28:58Z</time>
      </trkpt>
      <trkpt lat="45.61142" lon="6.18806">
        <ele>1437</ele>
        <time>2010-10-09T09:29:00Z</time>
      </trkpt>
      <trkpt lat="45.61141" lon="6.18805">
        <ele>1437</ele>
        <time>2010-10-09T09:29:01Z</time>
      </trkpt>
      <trkpt lat="45.6114" lon="6.18805">
        <ele>1437</ele>
        <time>2010-10-09T09:29:02Z</time>
      </trkpt>
      <trkpt lat="45.61137" lon="6.18804">
        <ele>1437</ele>
        <time>2010-10-09T09:29:04Z</time>
      </trkpt>
      <trkpt lat="45.61136" lon="6.18804">
        <ele>1437</ele>
        <time>2010-10-09T09:29:05Z</time>
      </trkpt>
      <trkpt lat="45.61135" lon="6.18803">
        <ele>1438</ele>
        <time>2010-10-09T09:29:06Z</time>
      </trkpt>
      <trkpt lat="45.61134" lon="6.18803">
        <ele>1438</ele>
        <time>2010-10-09T09:29:07Z</time>
      </trkpt>
      <trkpt lat="45.61131" lon="6.18803">
        <ele>1438</ele>
        <time>2010-10-09T09:29:10Z</time>
      </trkpt>
      <trkpt lat="45.61129" lon="6.18803">
        <ele>1438</ele>
        <time>2010-10-09T09:29:12Z</time>
      </trkpt>
      <trkpt lat="45.61127" lon="6.18803">
        <ele>1438</ele>
        <time>2010-10-09T09:29:14Z</time>
      </trkpt>
      <trkpt lat="45.61124" lon="6.18804">
        <ele>1438</ele>
        <time>2010-10-09T09:29:15Z</time>
      </trkpt>
      <trkpt lat="45.61123" lon="6.18804">
        <ele>1439</ele>
        <time>2010-10-09T09:29:16Z</time>
      </trkpt>
      <trkpt lat="45.61122" lon="6.18804">
        <ele>1439</ele>
        <time>2010-10-09T09:29:17Z</time>
      </trkpt>
      <trkpt lat="45.61119" lon="6.18804">
        <ele>1439</ele>
        <time>2010-10-09T09:29:19Z</time>
      </trkpt>
      <trkpt lat="45.61117" lon="6.18804">
        <ele>1439</ele>
        <time>2010-10-09T09:29:21Z</time>
      </trkpt>
      <trkpt lat="45.61115" lon="6.18804">
        <ele>1439</ele>
        <time>2010-10-09T09:29:23Z</time>
      </trkpt>
      <trkpt lat="45.61113" lon="6.18804">
        <ele>1439</ele>
        <time>2010-10-09T09:29:24Z</time>
      </trkpt>
      <trkpt lat="45.61112" lon="6.18804">
        <ele>1439</ele>
        <time>2010-10-09T09:29:25Z</time>
      </trkpt>
      <trkpt lat="45.61109" lon="6.18805">
        <ele>1440</ele>
        <time>2010-10-09T09:29:29Z</time>
      </trkpt>
      <trkpt lat="45.61106" lon="6.18806">
        <ele>1440</ele>
        <time>2010-10-09T09:29:31Z</time>
      </trkpt>
      <trkpt lat="45.61104" lon="6.18807">
        <ele>1440</ele>
        <time>2010-10-09T09:29:32Z</time>
      </trkpt>
      <trkpt lat="45.61102" lon="6.18809">
        <ele>1440</ele>
        <time>2010-10-09T09:29:34Z</time>
      </trkpt>
      <trkpt lat="45.611" lon="6.18811">
        <ele>1440</ele>
        <time>2010-10-09T09:29:36Z</time>
      </trkpt>
      <trkpt lat="45.611" lon="6.18813">
        <ele>1440</ele>
        <time>2010-10-09T09:29:37Z</time>
      </trkpt>
      <trkpt lat="45.61099" lon="6.18814">
        <ele>1440</ele>
        <time>2010-10-09T09:29:38Z</time>
      </trkpt>
      <trkpt lat="45.61098" lon="6.18816">
        <ele>1440</ele>
        <time>2010-10-09T09:29:39Z</time>
      </trkpt>
      <trkpt lat="45.61098" lon="6.18818">
        <ele>1440</ele>
        <time>2010-10-09T09:29:41Z</time>
      </trkpt>
      <trkpt lat="45.61096" lon="6.18821">
        <ele>1440</ele>
        <time>2010-10-09T09:29:42Z</time>
      </trkpt>
      <trkpt lat="45.61095" lon="6.18825">
        <ele>1441</ele>
        <time>2010-10-09T09:29:44Z</time>
      </trkpt>
      <trkpt lat="45.61094" lon="6.18828">
        <ele>1441</ele>
        <time>2010-10-09T09:29:46Z</time>
      </trkpt>
      <trkpt lat="45.61092" lon="6.1883">
        <ele>1441</ele>
        <time>2010-10-09T09:29:47Z</time>
      </trkpt>
      <trkpt lat="45.61092" lon="6.18831">
        <ele>1441</ele>
        <time>2010-10-09T09:29:48Z</time>
      </trkpt>
      <trkpt lat="45.61091" lon="6.18833">
        <ele>1441</ele>
        <time>2010-10-09T09:29:49Z</time>
      </trkpt>
      <trkpt lat="45.6109" lon="6.18835">
        <ele>1440</ele>
        <time>2010-10-09T09:29:50Z</time>
      </trkpt>
      <trkpt lat="45.61089" lon="6.18838">
        <ele>1439</ele>
        <time>2010-10-09T09:29:52Z</time>
      </trkpt>
      <trkpt lat="45.61088" lon="6.1884">
        <ele>1439</ele>
        <time>2010-10-09T09:29:53Z</time>
      </trkpt>
      <trkpt lat="45.61087" lon="6.18841">
        <ele>1439</ele>
        <time>2010-10-09T09:29:54Z</time>
      </trkpt>
      <trkpt lat="45.61086" lon="6.18843">
        <ele>1439</ele>
        <time>2010-10-09T09:29:55Z</time>
      </trkpt>
      <trkpt lat="45.61085" lon="6.18844">
        <ele>1438</ele>
        <time>2010-10-09T09:29:56Z</time>
      </trkpt>
      <trkpt lat="45.61084" lon="6.18846">
        <ele>1438</ele>
        <time>2010-10-09T09:29:57Z</time>
      </trkpt>
      <trkpt lat="45.61083" lon="6.18847">
        <ele>1442</ele>
        <time>2010-10-09T09:29:58Z</time>
      </trkpt>
      <trkpt lat="45.61081" lon="6.1885">
        <ele>1442</ele>
        <time>2010-10-09T09:30:00Z</time>
      </trkpt>
      <trkpt lat="45.61078" lon="6.18852">
        <ele>1442</ele>
        <time>2010-10-09T09:30:02Z</time>
      </trkpt>
      <trkpt lat="45.61077" lon="6.18853">
        <ele>1442</ele>
        <time>2010-10-09T09:30:04Z</time>
      </trkpt>
      <trkpt lat="45.61074" lon="6.18855">
        <ele>1442</ele>
        <time>2010-10-09T09:30:06Z</time>
      </trkpt>
      <trkpt lat="45.61073" lon="6.18855">
        <ele>1442</ele>
        <time>2010-10-09T09:30:08Z</time>
      </trkpt>
      <trkpt lat="45.61071" lon="6.18854">
        <ele>1442</ele>
        <time>2010-10-09T09:30:09Z</time>
      </trkpt>
      <trkpt lat="45.61069" lon="6.18854">
        <ele>1442</ele>
        <time>2010-10-09T09:30:10Z</time>
      </trkpt>
      <trkpt lat="45.61067" lon="6.18853">
        <ele>1442</ele>
        <time>2010-10-09T09:30:12Z</time>
      </trkpt>
      <trkpt lat="45.61066" lon="6.18853">
        <ele>1442</ele>
        <time>2010-10-09T09:30:13Z</time>
      </trkpt>
      <trkpt lat="45.61064" lon="6.18853">
        <ele>1442</ele>
        <time>2010-10-09T09:30:14Z</time>
      </trkpt>
      <trkpt lat="45.61063" lon="6.18853">
        <ele>1442</ele>
        <time>2010-10-09T09:30:15Z</time>
      </trkpt>
      <trkpt lat="45.61061" lon="6.18852">
        <ele>1443</ele>
        <time>2010-10-09T09:30:16Z</time>
      </trkpt>
      <trkpt lat="45.61058" lon="6.18851">
        <ele>1443</ele>
        <time>2010-10-09T09:30:19Z</time>
      </trkpt>
      <trkpt lat="45.61056" lon="6.18851">
        <ele>1443</ele>
        <time>2010-10-09T09:30:20Z</time>
      </trkpt>
      <trkpt lat="45.61052" lon="6.18851">
        <ele>1443</ele>
        <time>2010-10-09T09:30:22Z</time>
      </trkpt>
      <trkpt lat="45.61051" lon="6.18852">
        <ele>1443</ele>
        <time>2010-10-09T09:30:23Z</time>
      </trkpt>
      <trkpt lat="45.6105" lon="6.18852">
        <ele>1443</ele>
        <time>2010-10-09T09:30:24Z</time>
      </trkpt>
      <trkpt lat="45.61047" lon="6.18854">
        <ele>1443</ele>
        <time>2010-10-09T09:30:26Z</time>
      </trkpt>
      <trkpt lat="45.61045" lon="6.18855">
        <ele>1443</ele>
        <time>2010-10-09T09:30:28Z</time>
      </trkpt>
      <trkpt lat="45.61042" lon="6.18857">
        <ele>1443</ele>
        <time>2010-10-09T09:30:29Z</time>
      </trkpt>
      <trkpt lat="45.61041" lon="6.18857">
        <ele>1443</ele>
        <time>2010-10-09T09:30:30Z</time>
      </trkpt>
      <trkpt lat="45.6104" lon="6.18858">
        <ele>1443</ele>
        <time>2010-10-09T09:30:31Z</time>
      </trkpt>
      <trkpt lat="45.61038" lon="6.18859">
        <ele>1443</ele>
        <time>2010-10-09T09:30:32Z</time>
      </trkpt>
      <trkpt lat="45.61037" lon="6.18859">
        <ele>1443</ele>
        <time>2010-10-09T09:30:33Z</time>
      </trkpt>
      <trkpt lat="45.61035" lon="6.18859">
        <ele>1443</ele>
        <time>2010-10-09T09:30:34Z</time>
      </trkpt>
      <trkpt lat="45.61034" lon="6.18859">
        <ele>1443</ele>
        <time>2010-10-09T09:30:35Z</time>
      </trkpt>
      <trkpt lat="45.61032" lon="6.18858">
        <ele>1443</ele>
        <time>2010-10-09T09:30:37Z</time>
      </trkpt>
      <trkpt lat="45.61031" lon="6.18857">
        <ele>1444</ele>
        <time>2010-10-09T09:30:38Z</time>
      </trkpt>
      <trkpt lat="45.6103" lon="6.18856">
        <ele>1444</ele>
        <time>2010-10-09T09:30:39Z</time>
      </trkpt>
      <trkpt lat="45.61028" lon="6.18852">
        <ele>1444</ele>
        <time>2010-10-09T09:30:41Z</time>
      </trkpt>
      <trkpt lat="45.61028" lon="6.18848">
        <ele>1444</ele>
        <time>2010-10-09T09:30:43Z</time>
      </trkpt>
      <trkpt lat="45.61028" lon="6.18845">
        <ele>1444</ele>
        <time>2010-10-09T09:30:44Z</time>
      </trkpt>
      <trkpt lat="45.61028" lon="6.18842">
        <ele>1444</ele>
        <time>2010-10-09T09:30:46Z</time>
      </trkpt>
      <trkpt lat="45.61029" lon="6.18838">
        <ele>1444</ele>
        <time>2010-10-09T09:30:47Z</time>
      </trkpt>
      <trkpt lat="45.61029" lon="6.18837">
        <ele>1444</ele>
        <time>2010-10-09T09:30:49Z</time>
      </trkpt>
      <trkpt lat="45.61031" lon="6.18835">
        <ele>1444</ele>
        <time>2010-10-09T09:30:51Z</time>
      </trkpt>
      <trkpt lat="45.61033" lon="6.18833">
        <ele>1447</ele>
        <time>2010-10-09T09:30:52Z</time>
      </trkpt>
      <trkpt lat="45.61036" lon="6.18831">
        <ele>1447</ele>
        <time>2010-10-09T09:30:54Z</time>
      </trkpt>
      <trkpt lat="45.61038" lon="6.18828">
        <ele>1447</ele>
        <time>2010-10-09T09:30:56Z</time>
      </trkpt>
      <trkpt lat="45.61039" lon="6.18827">
        <ele>1447</ele>
        <time>2010-10-09T09:30:57Z</time>
      </trkpt>
      <trkpt lat="45.6104" lon="6.18826">
        <ele>1447</ele>
        <time>2010-10-09T09:30:58Z</time>
      </trkpt>
      <trkpt lat="45.61042" lon="6.18824">
        <ele>1447</ele>
        <time>2010-10-09T09:30:59Z</time>
      </trkpt>
      <trkpt lat="45.61044" lon="6.18822">
        <ele>1447</ele>
        <time>2010-10-09T09:31:01Z</time>
      </trkpt>
      <trkpt lat="45.61044" lon="6.1882">
        <ele>1447</ele>
        <time>2010-10-09T09:31:02Z</time>
      </trkpt>
      <trkpt lat="45.61046" lon="6.18819">
        <ele>1447</ele>
        <time>2010-10-09T09:31:03Z</time>
      </trkpt>
      <trkpt lat="45.61047" lon="6.18818">
        <ele>1447</ele>
        <time>2010-10-09T09:31:04Z</time>
      </trkpt>
      <trkpt lat="45.6105" lon="6.18814">
        <ele>1447</ele>
        <time>2010-10-09T09:31:07Z</time>
      </trkpt>
      <trkpt lat="45.61052" lon="6.18811">
        <ele>1447</ele>
        <time>2010-10-09T09:31:09Z</time>
      </trkpt>
      <trkpt lat="45.61052" lon="6.18809">
        <ele>1447</ele>
        <time>2010-10-09T09:31:11Z</time>
      </trkpt>
      <trkpt lat="45.61053" lon="6.18807">
        <ele>1447</ele>
        <time>2010-10-09T09:31:13Z</time>
      </trkpt>
      <trkpt lat="45.61054" lon="6.18805">
        <ele>1447</ele>
        <time>2010-10-09T09:31:14Z</time>
      </trkpt>
      <trkpt lat="45.61054" lon="6.18803">
        <ele>1447</ele>
        <time>2010-10-09T09:31:15Z</time>
      </trkpt>
      <trkpt lat="45.61056" lon="6.18798">
        <ele>1448</ele>
        <time>2010-10-09T09:31:17Z</time>
      </trkpt>
      <trkpt lat="45.61056" lon="6.18796">
        <ele>1448</ele>
        <time>2010-10-09T09:31:18Z</time>
      </trkpt>
      <trkpt lat="45.61057" lon="6.18794">
        <ele>1448</ele>
        <time>2010-10-09T09:31:19Z</time>
      </trkpt>
      <trkpt lat="45.61057" lon="6.18792">
        <ele>1448</ele>
        <time>2010-10-09T09:31:20Z</time>
      </trkpt>
      <trkpt lat="45.61058" lon="6.1879">
        <ele>1448</ele>
        <time>2010-10-09T09:31:21Z</time>
      </trkpt>
      <trkpt lat="45.61058" lon="6.18788">
        <ele>1448</ele>
        <time>2010-10-09T09:31:22Z</time>
      </trkpt>
      <trkpt lat="45.61059" lon="6.18785">
        <ele>1448</ele>
        <time>2010-10-09T09:31:24Z</time>
      </trkpt>
      <trkpt lat="45.61059" lon="6.18783">
        <ele>1448</ele>
        <time>2010-10-09T09:31:25Z</time>
      </trkpt>
      <trkpt lat="45.61059" lon="6.18781">
        <ele>1448</ele>
        <time>2010-10-09T09:31:26Z</time>
      </trkpt>
      <trkpt lat="45.6106" lon="6.18777">
        <ele>1449</ele>
        <time>2010-10-09T09:31:28Z</time>
      </trkpt>
      <trkpt lat="45.6106" lon="6.18775">
        <ele>1449</ele>
        <time>2010-10-09T09:31:29Z</time>
      </trkpt>
      <trkpt lat="45.6106" lon="6.18773">
        <ele>1449</ele>
        <time>2010-10-09T09:31:30Z</time>
      </trkpt>
      <trkpt lat="45.6106" lon="6.18771">
        <ele>1449</ele>
        <time>2010-10-09T09:31:31Z</time>
      </trkpt>
      <trkpt lat="45.61061" lon="6.18769">
        <ele>1449</ele>
        <time>2010-10-09T09:31:32Z</time>
      </trkpt>
      <trkpt lat="45.61061" lon="6.18767">
        <ele>1449</ele>
        <time>2010-10-09T09:31:33Z</time>
      </trkpt>
      <trkpt lat="45.61061" lon="6.18765">
        <ele>1449</ele>
        <time>2010-10-09T09:31:34Z</time>
      </trkpt>
      <trkpt lat="45.61062" lon="6.18762">
        <ele>1449</ele>
        <time>2010-10-09T09:31:36Z</time>
      </trkpt>
      <trkpt lat="45.61062" lon="6.1876">
        <ele>1449</ele>
        <time>2010-10-09T09:31:37Z</time>
      </trkpt>
      <trkpt lat="45.61063" lon="6.18758">
        <ele>1449</ele>
        <time>2010-10-09T09:31:38Z</time>
      </trkpt>
      <trkpt lat="45.61063" lon="6.18756">
        <ele>1449</ele>
        <time>2010-10-09T09:31:39Z</time>
      </trkpt>
      <trkpt lat="45.61064" lon="6.18755">
        <ele>1449</ele>
        <time>2010-10-09T09:31:41Z</time>
      </trkpt>
      <trkpt lat="45.61066" lon="6.18752">
        <ele>1449</ele>
        <time>2010-10-09T09:31:42Z</time>
      </trkpt>
      <trkpt lat="45.61067" lon="6.18749">
        <ele>1454</ele>
        <time>2010-10-09T09:31:44Z</time>
      </trkpt>
      <trkpt lat="45.61069" lon="6.18746">
        <ele>1453</ele>
        <time>2010-10-09T09:31:47Z</time>
      </trkpt>
      <trkpt lat="45.6107" lon="6.18743">
        <ele>1453</ele>
        <time>2010-10-09T09:31:49Z</time>
      </trkpt>
      <trkpt lat="45.61071" lon="6.18739">
        <ele>1454</ele>
        <time>2010-10-09T09:31:51Z</time>
      </trkpt>
      <trkpt lat="45.61072" lon="6.18737">
        <ele>1454</ele>
        <time>2010-10-09T09:31:52Z</time>
      </trkpt>
      <trkpt lat="45.61073" lon="6.18736">
        <ele>1454</ele>
        <time>2010-10-09T09:31:53Z</time>
      </trkpt>
      <trkpt lat="45.61074" lon="6.18734">
        <ele>1454</ele>
        <time>2010-10-09T09:31:54Z</time>
      </trkpt>
      <trkpt lat="45.61076" lon="6.18729">
        <ele>1455</ele>
        <time>2010-10-09T09:31:56Z</time>
      </trkpt>
      <trkpt lat="45.61077" lon="6.18726">
        <ele>1455</ele>
        <time>2010-10-09T09:31:58Z</time>
      </trkpt>
      <trkpt lat="45.61078" lon="6.18725">
        <ele>1455</ele>
        <time>2010-10-09T09:31:59Z</time>
      </trkpt>
      <trkpt lat="45.61078" lon="6.18723">
        <ele>1456</ele>
        <time>2010-10-09T09:32:00Z</time>
      </trkpt>
      <trkpt lat="45.61078" lon="6.18721">
        <ele>1456</ele>
        <time>2010-10-09T09:32:01Z</time>
      </trkpt>
      <trkpt lat="45.61078" lon="6.18719">
        <ele>1456</ele>
        <time>2010-10-09T09:32:03Z</time>
      </trkpt>
      <trkpt lat="45.61078" lon="6.18717">
        <ele>1456</ele>
        <time>2010-10-09T09:32:04Z</time>
      </trkpt>
      <trkpt lat="45.61079" lon="6.18715">
        <ele>1457</ele>
        <time>2010-10-09T09:32:06Z</time>
      </trkpt>
      <trkpt lat="45.6108" lon="6.18713">
        <ele>1457</ele>
        <time>2010-10-09T09:32:08Z</time>
      </trkpt>
      <trkpt lat="45.61081" lon="6.18709">
        <ele>1457</ele>
        <time>2010-10-09T09:32:09Z</time>
      </trkpt>
      <trkpt lat="45.61081" lon="6.18706">
        <ele>1457</ele>
        <time>2010-10-09T09:32:11Z</time>
      </trkpt>
      <trkpt lat="45.61082" lon="6.18704">
        <ele>1458</ele>
        <time>2010-10-09T09:32:13Z</time>
      </trkpt>
      <trkpt lat="45.61084" lon="6.18701">
        <ele>1452</ele>
        <time>2010-10-09T09:32:15Z</time>
      </trkpt>
      <trkpt lat="45.61085" lon="6.187">
        <ele>1452</ele>
        <time>2010-10-09T09:32:17Z</time>
      </trkpt>
      <trkpt lat="45.61088" lon="6.18698">
        <ele>1453</ele>
        <time>2010-10-09T09:32:18Z</time>
      </trkpt>
      <trkpt lat="45.61089" lon="6.18697">
        <ele>1453</ele>
        <time>2010-10-09T09:32:19Z</time>
      </trkpt>
      <trkpt lat="45.61091" lon="6.18696">
        <ele>1453</ele>
        <time>2010-10-09T09:32:21Z</time>
      </trkpt>
      <trkpt lat="45.61094" lon="6.18694">
        <ele>1453</ele>
        <time>2010-10-09T09:32:22Z</time>
      </trkpt>
      <trkpt lat="45.61095" lon="6.18694">
        <ele>1453</ele>
        <time>2010-10-09T09:32:23Z</time>
      </trkpt>
      <trkpt lat="45.61097" lon="6.18694">
        <ele>1453</ele>
        <time>2010-10-09T09:32:24Z</time>
      </trkpt>
      <trkpt lat="45.61099" lon="6.18693">
        <ele>1452</ele>
        <time>2010-10-09T09:32:26Z</time>
      </trkpt>
      <trkpt lat="45.61102" lon="6.18694">
        <ele>1452</ele>
        <time>2010-10-09T09:32:27Z</time>
      </trkpt>
      <trkpt lat="45.61103" lon="6.18694">
        <ele>1452</ele>
        <time>2010-10-09T09:32:28Z</time>
      </trkpt>
      <trkpt lat="45.61105" lon="6.18693">
        <ele>1452</ele>
        <time>2010-10-09T09:32:29Z</time>
      </trkpt>
      <trkpt lat="45.61108" lon="6.18693">
        <ele>1452</ele>
        <time>2010-10-09T09:32:31Z</time>
      </trkpt>
      <trkpt lat="45.61111" lon="6.18693">
        <ele>1452</ele>
        <time>2010-10-09T09:32:33Z</time>
      </trkpt>
      <trkpt lat="45.61112" lon="6.18693">
        <ele>1452</ele>
        <time>2010-10-09T09:32:34Z</time>
      </trkpt>
      <trkpt lat="45.61115" lon="6.18692">
        <ele>1451</ele>
        <time>2010-10-09T09:32:36Z</time>
      </trkpt>
      <trkpt lat="45.61118" lon="6.1869">
        <ele>1451</ele>
        <time>2010-10-09T09:32:38Z</time>
      </trkpt>
      <trkpt lat="45.61119" lon="6.18689">
        <ele>1451</ele>
        <time>2010-10-09T09:32:39Z</time>
      </trkpt>
      <trkpt lat="45.61121" lon="6.18687">
        <ele>1451</ele>
        <time>2010-10-09T09:32:42Z</time>
      </trkpt>
      <trkpt lat="45.61124" lon="6.18685">
        <ele>1451</ele>
        <time>2010-10-09T09:32:43Z</time>
      </trkpt>
      <trkpt lat="45.61126" lon="6.18683">
        <ele>1451</ele>
        <time>2010-10-09T09:32:45Z</time>
      </trkpt>
      <trkpt lat="45.61127" lon="6.18681">
        <ele>1451</ele>
        <time>2010-10-09T09:32:47Z</time>
      </trkpt>
      <trkpt lat="45.61129" lon="6.18679">
        <ele>1451</ele>
        <time>2010-10-09T09:32:49Z</time>
      </trkpt>
      <trkpt lat="45.61131" lon="6.18677">
        <ele>1451</ele>
        <time>2010-10-09T09:32:51Z</time>
      </trkpt>
      <trkpt lat="45.61132" lon="6.18674">
        <ele>1451</ele>
        <time>2010-10-09T09:32:53Z</time>
      </trkpt>
      <trkpt lat="45.61133" lon="6.18673">
        <ele>1451</ele>
        <time>2010-10-09T09:32:54Z</time>
      </trkpt>
      <trkpt lat="45.61133" lon="6.1867">
        <ele>1451</ele>
        <time>2010-10-09T09:32:57Z</time>
      </trkpt>
      <trkpt lat="45.61134" lon="6.18668">
        <ele>1451</ele>
        <time>2010-10-09T09:32:58Z</time>
      </trkpt>
      <trkpt lat="45.61134" lon="6.18665">
        <ele>1458</ele>
        <time>2010-10-09T09:32:59Z</time>
      </trkpt>
      <trkpt lat="45.61133" lon="6.18663">
        <ele>1458</ele>
        <time>2010-10-09T09:33:00Z</time>
      </trkpt>
      <trkpt lat="45.61133" lon="6.18661">
        <ele>1458</ele>
        <time>2010-10-09T09:33:02Z</time>
      </trkpt>
      <trkpt lat="45.61132" lon="6.18659">
        <ele>1458</ele>
        <time>2010-10-09T09:33:03Z</time>
      </trkpt>
      <trkpt lat="45.61131" lon="6.18656">
        <ele>1458</ele>
        <time>2010-10-09T09:33:05Z</time>
      </trkpt>
      <trkpt lat="45.6113" lon="6.18654">
        <ele>1458</ele>
        <time>2010-10-09T09:33:07Z</time>
      </trkpt>
      <trkpt lat="45.61127" lon="6.1865">
        <ele>1459</ele>
        <time>2010-10-09T09:33:09Z</time>
      </trkpt>
      <trkpt lat="45.61126" lon="6.18649">
        <ele>1459</ele>
        <time>2010-10-09T09:33:11Z</time>
      </trkpt>
      <trkpt lat="45.61124" lon="6.18645">
        <ele>1459</ele>
        <time>2010-10-09T09:33:12Z</time>
      </trkpt>
      <trkpt lat="45.61122" lon="6.18644">
        <ele>1459</ele>
        <time>2010-10-09T09:33:14Z</time>
      </trkpt>
      <trkpt lat="45.6112" lon="6.18642">
        <ele>1459</ele>
        <time>2010-10-09T09:33:16Z</time>
      </trkpt>
      <trkpt lat="45.61118" lon="6.1864">
        <ele>1459</ele>
        <time>2010-10-09T09:33:18Z</time>
      </trkpt>
      <trkpt lat="45.61117" lon="6.18639">
        <ele>1460</ele>
        <time>2010-10-09T09:33:19Z</time>
      </trkpt>
      <trkpt lat="45.61115" lon="6.18637">
        <ele>1460</ele>
        <time>2010-10-09T09:33:21Z</time>
      </trkpt>
      <trkpt lat="45.61113" lon="6.18635">
        <ele>1460</ele>
        <time>2010-10-09T09:33:23Z</time>
      </trkpt>
      <trkpt lat="45.61112" lon="6.18634">
        <ele>1460</ele>
        <time>2010-10-09T09:33:26Z</time>
      </trkpt>
      <trkpt lat="45.6111" lon="6.18632">
        <ele>1460</ele>
        <time>2010-10-09T09:33:27Z</time>
      </trkpt>
      <trkpt lat="45.61109" lon="6.18631">
        <ele>1460</ele>
        <time>2010-10-09T09:33:29Z</time>
      </trkpt>
      <trkpt lat="45.61107" lon="6.1863">
        <ele>1460</ele>
        <time>2010-10-09T09:33:31Z</time>
      </trkpt>
      <trkpt lat="45.61105" lon="6.18629">
        <ele>1460</ele>
        <time>2010-10-09T09:33:33Z</time>
      </trkpt>
      <trkpt lat="45.61103" lon="6.18629">
        <ele>1461</ele>
        <time>2010-10-09T09:33:35Z</time>
      </trkpt>
      <trkpt lat="45.61101" lon="6.18628">
        <ele>1461</ele>
        <time>2010-10-09T09:33:36Z</time>
      </trkpt>
      <trkpt lat="45.611" lon="6.18628">
        <ele>1461</ele>
        <time>2010-10-09T09:33:37Z</time>
      </trkpt>
      <trkpt lat="45.61098" lon="6.18627">
        <ele>1461</ele>
        <time>2010-10-09T09:33:39Z</time>
      </trkpt>
      <trkpt lat="45.61097" lon="6.18626">
        <ele>1461</ele>
        <time>2010-10-09T09:33:40Z</time>
      </trkpt>
      <trkpt lat="45.61095" lon="6.18625">
        <ele>1461</ele>
        <time>2010-10-09T09:33:42Z</time>
      </trkpt>
      <trkpt lat="45.61093" lon="6.18624">
        <ele>1461</ele>
        <time>2010-10-09T09:33:43Z</time>
      </trkpt>
      <trkpt lat="45.61092" lon="6.18623">
        <ele>1461</ele>
        <time>2010-10-09T09:33:45Z</time>
      </trkpt>
      <trkpt lat="45.6109" lon="6.18622">
        <ele>1461</ele>
        <time>2010-10-09T09:33:46Z</time>
      </trkpt>
      <trkpt lat="45.61088" lon="6.18622">
        <ele>1461</ele>
        <time>2010-10-09T09:33:48Z</time>
      </trkpt>
      <trkpt lat="45.61087" lon="6.1862">
        <ele>1461</ele>
        <time>2010-10-09T09:33:50Z</time>
      </trkpt>
      <trkpt lat="45.61085" lon="6.18619">
        <ele>1462</ele>
        <time>2010-10-09T09:33:52Z</time>
      </trkpt>
      <trkpt lat="45.61084" lon="6.18617">
        <ele>1462</ele>
        <time>2010-10-09T09:33:53Z</time>
      </trkpt>
      <trkpt lat="45.61082" lon="6.18616">
        <ele>1467</ele>
        <time>2010-10-09T09:33:55Z</time>
      </trkpt>
      <trkpt lat="45.6108" lon="6.18614">
        <ele>1467</ele>
        <time>2010-10-09T09:33:57Z</time>
      </trkpt>
      <trkpt lat="45.61078" lon="6.18612">
        <ele>1467</ele>
        <time>2010-10-09T09:33:59Z</time>
      </trkpt>
      <trkpt lat="45.61077" lon="6.18611">
        <ele>1467</ele>
        <time>2010-10-09T09:34:01Z</time>
      </trkpt>
      <trkpt lat="45.61075" lon="6.1861">
        <ele>1467</ele>
        <time>2010-10-09T09:34:03Z</time>
      </trkpt>
      <trkpt lat="45.61073" lon="6.18608">
        <ele>1467</ele>
        <time>2010-10-09T09:34:05Z</time>
      </trkpt>
      <trkpt lat="45.61071" lon="6.18606">
        <ele>1467</ele>
        <time>2010-10-09T09:34:07Z</time>
      </trkpt>
      <trkpt lat="45.61069" lon="6.18604">
        <ele>1467</ele>
        <time>2010-10-09T09:34:09Z</time>
      </trkpt>
      <trkpt lat="45.61068" lon="6.18603">
        <ele>1467</ele>
        <time>2010-10-09T09:34:11Z</time>
      </trkpt>
      <trkpt lat="45.61066" lon="6.18601">
        <ele>1467</ele>
        <time>2010-10-09T09:34:14Z</time>
      </trkpt>
      <trkpt lat="45.61064" lon="6.18599">
        <ele>1467</ele>
        <time>2010-10-09T09:34:15Z</time>
      </trkpt>
      <trkpt lat="45.61063" lon="6.18598">
        <ele>1468</ele>
        <time>2010-10-09T09:34:17Z</time>
      </trkpt>
      <trkpt lat="45.61061" lon="6.18596">
        <ele>1468</ele>
        <time>2010-10-09T09:34:19Z</time>
      </trkpt>
      <trkpt lat="45.6106" lon="6.18594">
        <ele>1468</ele>
        <time>2010-10-09T09:34:21Z</time>
      </trkpt>
      <trkpt lat="45.61059" lon="6.18592">
        <ele>1468</ele>
        <time>2010-10-09T09:34:22Z</time>
      </trkpt>
      <trkpt lat="45.61057" lon="6.1859">
        <ele>1468</ele>
        <time>2010-10-09T09:34:24Z</time>
      </trkpt>
      <trkpt lat="45.61055" lon="6.18588">
        <ele>1468</ele>
        <time>2010-10-09T09:34:26Z</time>
      </trkpt>
      <trkpt lat="45.61053" lon="6.18586">
        <ele>1468</ele>
        <time>2010-10-09T09:34:28Z</time>
      </trkpt>
      <trkpt lat="45.61052" lon="6.18584">
        <ele>1468</ele>
        <time>2010-10-09T09:34:30Z</time>
      </trkpt>
      <trkpt lat="45.6105" lon="6.18582">
        <ele>1473</ele>
        <time>2010-10-09T09:34:32Z</time>
      </trkpt>
      <trkpt lat="45.61048" lon="6.18581">
        <ele>1473</ele>
        <time>2010-10-09T09:34:34Z</time>
      </trkpt>
      <trkpt lat="45.61046" lon="6.18579">
        <ele>1473</ele>
        <time>2010-10-09T09:34:36Z</time>
      </trkpt>
      <trkpt lat="45.61044" lon="6.18577">
        <ele>1473</ele>
        <time>2010-10-09T09:34:38Z</time>
      </trkpt>
      <trkpt lat="45.61043" lon="6.18575">
        <ele>1473</ele>
        <time>2010-10-09T09:34:40Z</time>
      </trkpt>
      <trkpt lat="45.61041" lon="6.18574">
        <ele>1473</ele>
        <time>2010-10-09T09:34:42Z</time>
      </trkpt>
      <trkpt lat="45.61039" lon="6.18572">
        <ele>1474</ele>
        <time>2010-10-09T09:34:44Z</time>
      </trkpt>
      <trkpt lat="45.61037" lon="6.1857">
        <ele>1474</ele>
        <time>2010-10-09T09:34:46Z</time>
      </trkpt>
      <trkpt lat="45.61036" lon="6.18569">
        <ele>1474</ele>
        <time>2010-10-09T09:34:48Z</time>
      </trkpt>
      <trkpt lat="45.61033" lon="6.18567">
        <ele>1474</ele>
        <time>2010-10-09T09:34:51Z</time>
      </trkpt>
      <trkpt lat="45.61031" lon="6.18566">
        <ele>1474</ele>
        <time>2010-10-09T09:34:52Z</time>
      </trkpt>
      <trkpt lat="45.6103" lon="6.18564">
        <ele>1474</ele>
        <time>2010-10-09T09:34:54Z</time>
      </trkpt>
      <trkpt lat="45.61029" lon="6.18564">
        <ele>1474</ele>
        <time>2010-10-09T09:34:55Z</time>
      </trkpt>
      <trkpt lat="45.61026" lon="6.18562">
        <ele>1474</ele>
        <time>2010-10-09T09:34:57Z</time>
      </trkpt>
      <trkpt lat="45.61025" lon="6.1856">
        <ele>1474</ele>
        <time>2010-10-09T09:34:59Z</time>
      </trkpt>
      <trkpt lat="45.61023" lon="6.18558">
        <ele>1475</ele>
        <time>2010-10-09T09:35:01Z</time>
      </trkpt>
      <trkpt lat="45.61022" lon="6.18556">
        <ele>1475</ele>
        <time>2010-10-09T09:35:03Z</time>
      </trkpt>
      <trkpt lat="45.61021" lon="6.18554">
        <ele>1475</ele>
        <time>2010-10-09T09:35:06Z</time>
      </trkpt>
      <trkpt lat="45.61019" lon="6.18551">
        <ele>1475</ele>
        <time>2010-10-09T09:35:07Z</time>
      </trkpt>
      <trkpt lat="45.61018" lon="6.1855">
        <ele>1475</ele>
        <time>2010-10-09T09:35:08Z</time>
      </trkpt>
      <trkpt lat="45.61016" lon="6.18548">
        <ele>1475</ele>
        <time>2010-10-09T09:35:10Z</time>
      </trkpt>
      <trkpt lat="45.61015" lon="6.18546">
        <ele>1475</ele>
        <time>2010-10-09T09:35:12Z</time>
      </trkpt>
      <trkpt lat="45.61014" lon="6.18543">
        <ele>1475</ele>
        <time>2010-10-09T09:35:14Z</time>
      </trkpt>
      <trkpt lat="45.61012" lon="6.1854">
        <ele>1476</ele>
        <time>2010-10-09T09:35:16Z</time>
      </trkpt>
      <trkpt lat="45.61011" lon="6.18539">
        <ele>1476</ele>
        <time>2010-10-09T09:35:18Z</time>
      </trkpt>
      <trkpt lat="45.61009" lon="6.18537">
        <ele>1476</ele>
        <time>2010-10-09T09:35:20Z</time>
      </trkpt>
      <trkpt lat="45.61007" lon="6.18536">
        <ele>1476</ele>
        <time>2010-10-09T09:35:22Z</time>
      </trkpt>
      <trkpt lat="45.61005" lon="6.18534">
        <ele>1476</ele>
        <time>2010-10-09T09:35:24Z</time>
      </trkpt>
      <trkpt lat="45.61004" lon="6.18532">
        <ele>1476</ele>
        <time>2010-10-09T09:35:26Z</time>
      </trkpt>
      <trkpt lat="45.61002" lon="6.18531">
        <ele>1477</ele>
        <time>2010-10-09T09:35:28Z</time>
      </trkpt>
      <trkpt lat="45.61" lon="6.18529">
        <ele>1480</ele>
        <time>2010-10-09T09:35:30Z</time>
      </trkpt>
      <trkpt lat="45.60998" lon="6.18527">
        <ele>1480</ele>
        <time>2010-10-09T09:35:32Z</time>
      </trkpt>
      <trkpt lat="45.60996" lon="6.18526">
        <ele>1480</ele>
        <time>2010-10-09T09:35:34Z</time>
      </trkpt>
      <trkpt lat="45.60994" lon="6.18525">
        <ele>1480</ele>
        <time>2010-10-09T09:35:36Z</time>
      </trkpt>
      <trkpt lat="45.60992" lon="6.18524">
        <ele>1480</ele>
        <time>2010-10-09T09:35:38Z</time>
      </trkpt>
      <trkpt lat="45.6099" lon="6.18523">
        <ele>1480</ele>
        <time>2010-10-09T09:35:41Z</time>
      </trkpt>
      <trkpt lat="45.60987" lon="6.18522">
        <ele>1480</ele>
        <time>2010-10-09T09:35:43Z</time>
      </trkpt>
      <trkpt lat="45.60989" lon="6.1852">
        <ele>1480</ele>
        <time>2010-10-09T09:35:50Z</time>
      </trkpt>
      <trkpt lat="45.60988" lon="6.18519">
        <ele>1480</ele>
        <time>2010-10-09T09:35:53Z</time>
      </trkpt>
      <trkpt lat="45.60986" lon="6.18517">
        <ele>1480</ele>
        <time>2010-10-09T09:35:56Z</time>
      </trkpt>
      <trkpt lat="45.60983" lon="6.18516">
        <ele>1480</ele>
        <time>2010-10-09T09:35:58Z</time>
      </trkpt>
      <trkpt lat="45.60982" lon="6.18516">
        <ele>1480</ele>
        <time>2010-10-09T09:35:59Z</time>
      </trkpt>
      <trkpt lat="45.60981" lon="6.18516">
        <ele>1480</ele>
        <time>2010-10-09T09:36:00Z</time>
      </trkpt>
      <trkpt lat="45.60979" lon="6.18515">
        <ele>1480</ele>
        <time>2010-10-09T09:36:02Z</time>
      </trkpt>
      <trkpt lat="45.60978" lon="6.18515">
        <ele>1480</ele>
        <time>2010-10-09T09:36:03Z</time>
      </trkpt>
      <trkpt lat="45.60976" lon="6.18514">
        <ele>1480</ele>
        <time>2010-10-09T09:36:05Z</time>
      </trkpt>
      <trkpt lat="45.60974" lon="6.18513">
        <ele>1480</ele>
        <time>2010-10-09T09:36:07Z</time>
      </trkpt>
      <trkpt lat="45.60973" lon="6.18513">
        <ele>1480</ele>
        <time>2010-10-09T09:36:09Z</time>
      </trkpt>
      <trkpt lat="45.60967" lon="6.18506">
        <ele>1481</ele>
        <time>2010-10-09T09:36:15Z</time>
      </trkpt>
      <trkpt lat="45.60965" lon="6.18505">
        <ele>1481</ele>
        <time>2010-10-09T09:36:17Z</time>
      </trkpt>
      <trkpt lat="45.60963" lon="6.18504">
        <ele>1481</ele>
        <time>2010-10-09T09:36:20Z</time>
      </trkpt>
      <trkpt lat="45.60961" lon="6.18503">
        <ele>1481</ele>
        <time>2010-10-09T09:36:21Z</time>
      </trkpt>
      <trkpt lat="45.6096" lon="6.18503">
        <ele>1481</ele>
        <time>2010-10-09T09:36:22Z</time>
      </trkpt>
      <trkpt lat="45.60957" lon="6.18502">
        <ele>1481</ele>
        <time>2010-10-09T09:36:24Z</time>
      </trkpt>
      <trkpt lat="45.60956" lon="6.18502">
        <ele>1481</ele>
        <time>2010-10-09T09:36:25Z</time>
      </trkpt>
      <trkpt lat="45.60955" lon="6.18502">
        <ele>1481</ele>
        <time>2010-10-09T09:36:26Z</time>
      </trkpt>
      <trkpt lat="45.60953" lon="6.18501">
        <ele>1481</ele>
        <time>2010-10-09T09:36:28Z</time>
      </trkpt>
      <trkpt lat="45.60951" lon="6.185">
        <ele>1481</ele>
        <time>2010-10-09T09:36:30Z</time>
      </trkpt>
      <trkpt lat="45.60949" lon="6.185">
        <ele>1489</ele>
        <time>2010-10-09T09:36:32Z</time>
      </trkpt>
      <trkpt lat="45.60947" lon="6.18498">
        <ele>1489</ele>
        <time>2010-10-09T09:36:34Z</time>
      </trkpt>
      <trkpt lat="45.60946" lon="6.18497">
        <ele>1489</ele>
        <time>2010-10-09T09:36:37Z</time>
      </trkpt>
      <trkpt lat="45.60944" lon="6.18496">
        <ele>1489</ele>
        <time>2010-10-09T09:36:38Z</time>
      </trkpt>
      <trkpt lat="45.60943" lon="6.18494">
        <ele>1489</ele>
        <time>2010-10-09T09:36:42Z</time>
      </trkpt>
      <trkpt lat="45.60937" lon="6.18487">
        <ele>1489</ele>
        <time>2010-10-09T09:36:47Z</time>
      </trkpt>
      <trkpt lat="45.60937" lon="6.18485">
        <ele>1489</ele>
        <time>2010-10-09T09:36:51Z</time>
      </trkpt>
      <trkpt lat="45.60934" lon="6.18485">
        <ele>1489</ele>
        <time>2010-10-09T09:36:53Z</time>
      </trkpt>
      <trkpt lat="45.60933" lon="6.18484">
        <ele>1489</ele>
        <time>2010-10-09T09:36:54Z</time>
      </trkpt>
      <trkpt lat="45.60929" lon="6.18483">
        <ele>1489</ele>
        <time>2010-10-09T09:36:57Z</time>
      </trkpt>
      <trkpt lat="45.60928" lon="6.18483">
        <ele>1489</ele>
        <time>2010-10-09T09:36:58Z</time>
      </trkpt>
      <trkpt lat="45.60925" lon="6.18482">
        <ele>1489</ele>
        <time>2010-10-09T09:37:00Z</time>
      </trkpt>
      <trkpt lat="45.60924" lon="6.18482">
        <ele>1489</ele>
        <time>2010-10-09T09:37:01Z</time>
      </trkpt>
      <trkpt lat="45.60922" lon="6.18481">
        <ele>1489</ele>
        <time>2010-10-09T09:37:02Z</time>
      </trkpt>
      <trkpt lat="45.60921" lon="6.1848">
        <ele>1489</ele>
        <time>2010-10-09T09:37:03Z</time>
      </trkpt>
      <trkpt lat="45.60919" lon="6.18479">
        <ele>1489</ele>
        <time>2010-10-09T09:37:05Z</time>
      </trkpt>
      <trkpt lat="45.60917" lon="6.18478">
        <ele>1490</ele>
        <time>2010-10-09T09:37:07Z</time>
      </trkpt>
      <trkpt lat="45.60915" lon="6.18476">
        <ele>1492</ele>
        <time>2010-10-09T09:37:09Z</time>
      </trkpt>
      <trkpt lat="45.60913" lon="6.18476">
        <ele>1493</ele>
        <time>2010-10-09T09:37:11Z</time>
      </trkpt>
      <trkpt lat="45.60911" lon="6.18475">
        <ele>1493</ele>
        <time>2010-10-09T09:37:13Z</time>
      </trkpt>
      <trkpt lat="45.6091" lon="6.18474">
        <ele>1493</ele>
        <time>2010-10-09T09:37:14Z</time>
      </trkpt>
      <trkpt lat="45.60908" lon="6.18473">
        <ele>1493</ele>
        <time>2010-10-09T09:37:16Z</time>
      </trkpt>
      <trkpt lat="45.60905" lon="6.1847">
        <ele>1494</ele>
        <time>2010-10-09T09:37:19Z</time>
      </trkpt>
      <trkpt lat="45.60904" lon="6.18469">
        <ele>1494</ele>
        <time>2010-10-09T09:37:21Z</time>
      </trkpt>
      <trkpt lat="45.60902" lon="6.18467">
        <ele>1494</ele>
        <time>2010-10-09T09:37:23Z</time>
      </trkpt>
      <trkpt lat="45.60901" lon="6.18466">
        <ele>1495</ele>
        <time>2010-10-09T09:37:25Z</time>
      </trkpt>
      <trkpt lat="45.60899" lon="6.18465">
        <ele>1495</ele>
        <time>2010-10-09T09:37:26Z</time>
      </trkpt>
      <trkpt lat="45.60898" lon="6.18464">
        <ele>1495</ele>
        <time>2010-10-09T09:37:27Z</time>
      </trkpt>
      <trkpt lat="45.60896" lon="6.18464">
        <ele>1495</ele>
        <time>2010-10-09T09:37:29Z</time>
      </trkpt>
      <trkpt lat="45.60894" lon="6.18463">
        <ele>1495</ele>
        <time>2010-10-09T09:37:31Z</time>
      </trkpt>
      <trkpt lat="45.60891" lon="6.18463">
        <ele>1495</ele>
        <time>2010-10-09T09:37:33Z</time>
      </trkpt>
      <trkpt lat="45.60889" lon="6.18462">
        <ele>1495</ele>
        <time>2010-10-09T09:37:35Z</time>
      </trkpt>
      <trkpt lat="45.60888" lon="6.18462">
        <ele>1496</ele>
        <time>2010-10-09T09:37:36Z</time>
      </trkpt>
      <trkpt lat="45.60885" lon="6.18462">
        <ele>1496</ele>
        <time>2010-10-09T09:37:38Z</time>
      </trkpt>
      <trkpt lat="45.60884" lon="6.18462">
        <ele>1496</ele>
        <time>2010-10-09T09:37:39Z</time>
      </trkpt>
      <trkpt lat="45.60883" lon="6.18463">
        <ele>1496</ele>
        <time>2010-10-09T09:37:41Z</time>
      </trkpt>
      <trkpt lat="45.6088" lon="6.18463">
        <ele>1496</ele>
        <time>2010-10-09T09:37:42Z</time>
      </trkpt>
      <trkpt lat="45.60878" lon="6.18463">
        <ele>1496</ele>
        <time>2010-10-09T09:37:44Z</time>
      </trkpt>
      <trkpt lat="45.60876" lon="6.18463">
        <ele>1496</ele>
        <time>2010-10-09T09:37:45Z</time>
      </trkpt>
      <trkpt lat="45.60875" lon="6.18462">
        <ele>1496</ele>
        <time>2010-10-09T09:37:46Z</time>
      </trkpt>
      <trkpt lat="45.60874" lon="6.18462">
        <ele>1496</ele>
        <time>2010-10-09T09:37:47Z</time>
      </trkpt>
      <trkpt lat="45.60872" lon="6.18462">
        <ele>1496</ele>
        <time>2010-10-09T09:37:49Z</time>
      </trkpt>
      <trkpt lat="45.6087" lon="6.18461">
        <ele>1497</ele>
        <time>2010-10-09T09:37:50Z</time>
      </trkpt>
      <trkpt lat="45.60869" lon="6.18461">
        <ele>1497</ele>
        <time>2010-10-09T09:37:51Z</time>
      </trkpt>
      <trkpt lat="45.60868" lon="6.18461">
        <ele>1497</ele>
        <time>2010-10-09T09:37:52Z</time>
      </trkpt>
      <trkpt lat="45.60866" lon="6.18459">
        <ele>1497</ele>
        <time>2010-10-09T09:37:54Z</time>
      </trkpt>
      <trkpt lat="45.60864" lon="6.18459">
        <ele>1497</ele>
        <time>2010-10-09T09:37:56Z</time>
      </trkpt>
      <trkpt lat="45.60863" lon="6.18459">
        <ele>1497</ele>
        <time>2010-10-09T09:37:57Z</time>
      </trkpt>
      <trkpt lat="45.60859" lon="6.18458">
        <ele>1497</ele>
        <time>2010-10-09T09:38:00Z</time>
      </trkpt>
      <trkpt lat="45.60858" lon="6.18459">
        <ele>1497</ele>
        <time>2010-10-09T09:38:01Z</time>
      </trkpt>
      <trkpt lat="45.60857" lon="6.18459">
        <ele>1497</ele>
        <time>2010-10-09T09:38:02Z</time>
      </trkpt>
      <trkpt lat="45.60854" lon="6.18459">
        <ele>1498</ele>
        <time>2010-10-09T09:38:04Z</time>
      </trkpt>
      <trkpt lat="45.60852" lon="6.18458">
        <ele>1498</ele>
        <time>2010-10-09T09:38:06Z</time>
      </trkpt>
      <trkpt lat="45.60851" lon="6.18457">
        <ele>1498</ele>
        <time>2010-10-09T09:38:08Z</time>
      </trkpt>
      <trkpt lat="45.60849" lon="6.18457">
        <ele>1498</ele>
        <time>2010-10-09T09:38:10Z</time>
      </trkpt>
      <trkpt lat="45.60847" lon="6.18457">
        <ele>1498</ele>
        <time>2010-10-09T09:38:11Z</time>
      </trkpt>
      <trkpt lat="45.60846" lon="6.18457">
        <ele>1498</ele>
        <time>2010-10-09T09:38:12Z</time>
      </trkpt>
      <trkpt lat="45.60844" lon="6.18456">
        <ele>1498</ele>
        <time>2010-10-09T09:38:14Z</time>
      </trkpt>
      <trkpt lat="45.60842" lon="6.18456">
        <ele>1498</ele>
        <time>2010-10-09T09:38:16Z</time>
      </trkpt>
      <trkpt lat="45.60841" lon="6.18456">
        <ele>1498</ele>
        <time>2010-10-09T09:38:17Z</time>
      </trkpt>
      <trkpt lat="45.6084" lon="6.18455">
        <ele>1498</ele>
        <time>2010-10-09T09:38:18Z</time>
      </trkpt>
      <trkpt lat="45.60838" lon="6.18455">
        <ele>1499</ele>
        <time>2010-10-09T09:38:20Z</time>
      </trkpt>
      <trkpt lat="45.60836" lon="6.18454">
        <ele>1499</ele>
        <time>2010-10-09T09:38:22Z</time>
      </trkpt>
      <trkpt lat="45.60833" lon="6.18453">
        <ele>1499</ele>
        <time>2010-10-09T09:38:24Z</time>
      </trkpt>
      <trkpt lat="45.60831" lon="6.18452">
        <ele>1501</ele>
        <time>2010-10-09T09:38:26Z</time>
      </trkpt>
      <trkpt lat="45.60829" lon="6.18451">
        <ele>1501</ele>
        <time>2010-10-09T09:38:28Z</time>
      </trkpt>
      <trkpt lat="45.60827" lon="6.1845">
        <ele>1501</ele>
        <time>2010-10-09T09:38:30Z</time>
      </trkpt>
      <trkpt lat="45.60825" lon="6.18449">
        <ele>1502</ele>
        <time>2010-10-09T09:38:32Z</time>
      </trkpt>
      <trkpt lat="45.60824" lon="6.18447">
        <ele>1502</ele>
        <time>2010-10-09T09:38:34Z</time>
      </trkpt>
      <trkpt lat="45.60822" lon="6.18446">
        <ele>1502</ele>
        <time>2010-10-09T09:38:36Z</time>
      </trkpt>
      <trkpt lat="45.6082" lon="6.18445">
        <ele>1502</ele>
        <time>2010-10-09T09:38:38Z</time>
      </trkpt>
      <trkpt lat="45.60818" lon="6.18444">
        <ele>1502</ele>
        <time>2010-10-09T09:38:40Z</time>
      </trkpt>
      <trkpt lat="45.60816" lon="6.18443">
        <ele>1502</ele>
        <time>2010-10-09T09:38:42Z</time>
      </trkpt>
      <trkpt lat="45.60815" lon="6.18442">
        <ele>1502</ele>
        <time>2010-10-09T09:38:43Z</time>
      </trkpt>
      <trkpt lat="45.60813" lon="6.18441">
        <ele>1502</ele>
        <time>2010-10-09T09:38:45Z</time>
      </trkpt>
      <trkpt lat="45.60811" lon="6.18439">
        <ele>1502</ele>
        <time>2010-10-09T09:38:47Z</time>
      </trkpt>
      <trkpt lat="45.60809" lon="6.18438">
        <ele>1502</ele>
        <time>2010-10-09T09:38:49Z</time>
      </trkpt>
      <trkpt lat="45.60808" lon="6.18436">
        <ele>1502</ele>
        <time>2010-10-09T09:38:51Z</time>
      </trkpt>
      <trkpt lat="45.60807" lon="6.18433">
        <ele>1502</ele>
        <time>2010-10-09T09:38:55Z</time>
      </trkpt>
      <trkpt lat="45.60806" lon="6.18431">
        <ele>1503</ele>
        <time>2010-10-09T09:38:58Z</time>
      </trkpt>
      <trkpt lat="45.60804" lon="6.18429">
        <ele>1503</ele>
        <time>2010-10-09T09:39:00Z</time>
      </trkpt>
      <trkpt lat="45.60802" lon="6.18427">
        <ele>1503</ele>
        <time>2010-10-09T09:39:02Z</time>
      </trkpt>
      <trkpt lat="45.60801" lon="6.18426">
        <ele>1503</ele>
        <time>2010-10-09T09:39:04Z</time>
      </trkpt>
      <trkpt lat="45.60799" lon="6.18424">
        <ele>1503</ele>
        <time>2010-10-09T09:39:06Z</time>
      </trkpt>
      <trkpt lat="45.60797" lon="6.18423">
        <ele>1503</ele>
        <time>2010-10-09T09:39:08Z</time>
      </trkpt>
      <trkpt lat="45.60795" lon="6.18421">
        <ele>1503</ele>
        <time>2010-10-09T09:39:10Z</time>
      </trkpt>
      <trkpt lat="45.60794" lon="6.18421">
        <ele>1503</ele>
        <time>2010-10-09T09:39:12Z</time>
      </trkpt>
      <trkpt lat="45.60792" lon="6.18419">
        <ele>1503</ele>
        <time>2010-10-09T09:39:14Z</time>
      </trkpt>
      <trkpt lat="45.6079" lon="6.18417">
        <ele>1503</ele>
        <time>2010-10-09T09:39:16Z</time>
      </trkpt>
      <trkpt lat="45.60788" lon="6.18416">
        <ele>1511</ele>
        <time>2010-10-09T09:39:18Z</time>
      </trkpt>
      <trkpt lat="45.60786" lon="6.18415">
        <ele>1511</ele>
        <time>2010-10-09T09:39:20Z</time>
      </trkpt>
      <trkpt lat="45.60785" lon="6.18413">
        <ele>1511</ele>
        <time>2010-10-09T09:39:22Z</time>
      </trkpt>
      <trkpt lat="45.60783" lon="6.18412">
        <ele>1511</ele>
        <time>2010-10-09T09:39:24Z</time>
      </trkpt>
      <trkpt lat="45.60781" lon="6.1841">
        <ele>1511</ele>
        <time>2010-10-09T09:39:26Z</time>
      </trkpt>
      <trkpt lat="45.60779" lon="6.18409">
        <ele>1511</ele>
        <time>2010-10-09T09:39:28Z</time>
      </trkpt>
      <trkpt lat="45.60777" lon="6.18408">
        <ele>1511</ele>
        <time>2010-10-09T09:39:30Z</time>
      </trkpt>
      <trkpt lat="45.60775" lon="6.18406">
        <ele>1511</ele>
        <time>2010-10-09T09:39:32Z</time>
      </trkpt>
      <trkpt lat="45.60773" lon="6.18405">
        <ele>1511</ele>
        <time>2010-10-09T09:39:34Z</time>
      </trkpt>
      <trkpt lat="45.60771" lon="6.18404">
        <ele>1511</ele>
        <time>2010-10-09T09:39:36Z</time>
      </trkpt>
      <trkpt lat="45.60769" lon="6.18403">
        <ele>1511</ele>
        <time>2010-10-09T09:39:38Z</time>
      </trkpt>
      <trkpt lat="45.60767" lon="6.18401">
        <ele>1511</ele>
        <time>2010-10-09T09:39:40Z</time>
      </trkpt>
      <trkpt lat="45.60765" lon="6.184">
        <ele>1511</ele>
        <time>2010-10-09T09:39:42Z</time>
      </trkpt>
      <trkpt lat="45.60764" lon="6.184">
        <ele>1511</ele>
        <time>2010-10-09T09:39:43Z</time>
      </trkpt>
      <trkpt lat="45.60762" lon="6.18398">
        <ele>1511</ele>
        <time>2010-10-09T09:39:45Z</time>
      </trkpt>
      <trkpt lat="45.60761" lon="6.18398">
        <ele>1511</ele>
        <time>2010-10-09T09:39:46Z</time>
      </trkpt>
      <trkpt lat="45.60757" lon="6.18397">
        <ele>1511</ele>
        <time>2010-10-09T09:39:49Z</time>
      </trkpt>
      <trkpt lat="45.60756" lon="6.18397">
        <ele>1511</ele>
        <time>2010-10-09T09:39:51Z</time>
      </trkpt>
      <trkpt lat="45.60752" lon="6.18396">
        <ele>1511</ele>
        <time>2010-10-09T09:39:54Z</time>
      </trkpt>
      <trkpt lat="45.6075" lon="6.18395">
        <ele>1511</ele>
        <time>2010-10-09T09:39:56Z</time>
      </trkpt>
      <trkpt lat="45.60748" lon="6.18395">
        <ele>1512</ele>
        <time>2010-10-09T09:39:58Z</time>
      </trkpt>
      <trkpt lat="45.60747" lon="6.18396">
        <ele>1512</ele>
        <time>2010-10-09T09:39:59Z</time>
      </trkpt>
      <trkpt lat="45.60745" lon="6.18395">
        <ele>1512</ele>
        <time>2010-10-09T09:40:01Z</time>
      </trkpt>
      <trkpt lat="45.60743" lon="6.18395">
        <ele>1513</ele>
        <time>2010-10-09T09:40:03Z</time>
      </trkpt>
      <trkpt lat="45.60741" lon="6.18394">
        <ele>1513</ele>
        <time>2010-10-09T09:40:05Z</time>
      </trkpt>
      <trkpt lat="45.60739" lon="6.18394">
        <ele>1513</ele>
        <time>2010-10-09T09:40:06Z</time>
      </trkpt>
      <trkpt lat="45.60737" lon="6.18393">
        <ele>1513</ele>
        <time>2010-10-09T09:40:08Z</time>
      </trkpt>
      <trkpt lat="45.60736" lon="6.18393">
        <ele>1513</ele>
        <time>2010-10-09T09:40:09Z</time>
      </trkpt>
      <trkpt lat="45.60734" lon="6.18392">
        <ele>1513</ele>
        <time>2010-10-09T09:40:11Z</time>
      </trkpt>
      <trkpt lat="45.60731" lon="6.18391">
        <ele>1514</ele>
        <time>2010-10-09T09:40:14Z</time>
      </trkpt>
      <trkpt lat="45.60729" lon="6.1839">
        <ele>1514</ele>
        <time>2010-10-09T09:40:16Z</time>
      </trkpt>
      <trkpt lat="45.60727" lon="6.18389">
        <ele>1514</ele>
        <time>2010-10-09T09:40:18Z</time>
      </trkpt>
      <trkpt lat="45.60724" lon="6.18387">
        <ele>1514</ele>
        <time>2010-10-09T09:40:20Z</time>
      </trkpt>
      <trkpt lat="45.60723" lon="6.18387">
        <ele>1514</ele>
        <time>2010-10-09T09:40:21Z</time>
      </trkpt>
      <trkpt lat="45.60721" lon="6.18387">
        <ele>1515</ele>
        <time>2010-10-09T09:40:23Z</time>
      </trkpt>
      <trkpt lat="45.60719" lon="6.18388">
        <ele>1515</ele>
        <time>2010-10-09T09:40:24Z</time>
      </trkpt>
      <trkpt lat="45.60718" lon="6.18388">
        <ele>1515</ele>
        <time>2010-10-09T09:40:25Z</time>
      </trkpt>
      <trkpt lat="45.60716" lon="6.18387">
        <ele>1515</ele>
        <time>2010-10-09T09:40:27Z</time>
      </trkpt>
      <trkpt lat="45.60714" lon="6.18386">
        <ele>1515</ele>
        <time>2010-10-09T09:40:29Z</time>
      </trkpt>
      <trkpt lat="45.60712" lon="6.18386">
        <ele>1515</ele>
        <time>2010-10-09T09:40:30Z</time>
      </trkpt>
      <trkpt lat="45.60711" lon="6.18385">
        <ele>1515</ele>
        <time>2010-10-09T09:40:31Z</time>
      </trkpt>
      <trkpt lat="45.6071" lon="6.18385">
        <ele>1515</ele>
        <time>2010-10-09T09:40:32Z</time>
      </trkpt>
      <trkpt lat="45.60709" lon="6.18385">
        <ele>1515</ele>
        <time>2010-10-09T09:40:33Z</time>
      </trkpt>
      <trkpt lat="45.60706" lon="6.18384">
        <ele>1515</ele>
        <time>2010-10-09T09:40:35Z</time>
      </trkpt>
      <trkpt lat="45.60705" lon="6.18384">
        <ele>1515</ele>
        <time>2010-10-09T09:40:36Z</time>
      </trkpt>
      <trkpt lat="45.60704" lon="6.18384">
        <ele>1515</ele>
        <time>2010-10-09T09:40:37Z</time>
      </trkpt>
      <trkpt lat="45.60703" lon="6.18384">
        <ele>1515</ele>
        <time>2010-10-09T09:40:38Z</time>
      </trkpt>
      <trkpt lat="45.607" lon="6.18383">
        <ele>1516</ele>
        <time>2010-10-09T09:40:40Z</time>
      </trkpt>
      <trkpt lat="45.60699" lon="6.18382">
        <ele>1516</ele>
        <time>2010-10-09T09:40:41Z</time>
      </trkpt>
      <trkpt lat="45.60697" lon="6.18382">
        <ele>1516</ele>
        <time>2010-10-09T09:40:42Z</time>
      </trkpt>
      <trkpt lat="45.60696" lon="6.18382">
        <ele>1516</ele>
        <time>2010-10-09T09:40:43Z</time>
      </trkpt>
      <trkpt lat="45.60693" lon="6.18381">
        <ele>1516</ele>
        <time>2010-10-09T09:40:45Z</time>
      </trkpt>
      <trkpt lat="45.60692" lon="6.18381">
        <ele>1516</ele>
        <time>2010-10-09T09:40:46Z</time>
      </trkpt>
      <trkpt lat="45.6069" lon="6.1838">
        <ele>1516</ele>
        <time>2010-10-09T09:40:48Z</time>
      </trkpt>
      <trkpt lat="45.60687" lon="6.1838">
        <ele>1516</ele>
        <time>2010-10-09T09:40:51Z</time>
      </trkpt>
      <trkpt lat="45.60685" lon="6.18379">
        <ele>1516</ele>
        <time>2010-10-09T09:40:53Z</time>
      </trkpt>
      <trkpt lat="45.60682" lon="6.18378">
        <ele>1516</ele>
        <time>2010-10-09T09:40:56Z</time>
      </trkpt>
      <trkpt lat="45.60682" lon="6.18375">
        <ele>1517</ele>
        <time>2010-10-09T09:41:00Z</time>
      </trkpt>
      <trkpt lat="45.6068" lon="6.18373">
        <ele>1517</ele>
        <time>2010-10-09T09:41:02Z</time>
      </trkpt>
      <trkpt lat="45.60678" lon="6.18372">
        <ele>1517</ele>
        <time>2010-10-09T09:41:05Z</time>
      </trkpt>
      <trkpt lat="45.60677" lon="6.18371">
        <ele>1517</ele>
        <time>2010-10-09T09:41:07Z</time>
      </trkpt>
      <trkpt lat="45.60675" lon="6.18371">
        <ele>1517</ele>
        <time>2010-10-09T09:41:09Z</time>
      </trkpt>
      <trkpt lat="45.60674" lon="6.18371">
        <ele>1517</ele>
        <time>2010-10-09T09:41:10Z</time>
      </trkpt>
      <trkpt lat="45.60672" lon="6.1837">
        <ele>1518</ele>
        <time>2010-10-09T09:41:11Z</time>
      </trkpt>
      <trkpt lat="45.60669" lon="6.18372">
        <ele>1517</ele>
        <time>2010-10-09T09:41:13Z</time>
      </trkpt>
      <trkpt lat="45.60668" lon="6.18372">
        <ele>1517</ele>
        <time>2010-10-09T09:41:14Z</time>
      </trkpt>
      <trkpt lat="45.60665" lon="6.18373">
        <ele>1522</ele>
        <time>2010-10-09T09:41:16Z</time>
      </trkpt>
      <trkpt lat="45.60664" lon="6.18372">
        <ele>1522</ele>
        <time>2010-10-09T09:41:17Z</time>
      </trkpt>
      <trkpt lat="45.60661" lon="6.18372">
        <ele>1522</ele>
        <time>2010-10-09T09:41:19Z</time>
      </trkpt>
      <trkpt lat="45.60659" lon="6.18373">
        <ele>1522</ele>
        <time>2010-10-09T09:41:20Z</time>
      </trkpt>
      <trkpt lat="45.60658" lon="6.18372">
        <ele>1522</ele>
        <time>2010-10-09T09:41:21Z</time>
      </trkpt>
      <trkpt lat="45.60657" lon="6.18372">
        <ele>1523</ele>
        <time>2010-10-09T09:41:22Z</time>
      </trkpt>
      <trkpt lat="45.60655" lon="6.18372">
        <ele>1523</ele>
        <time>2010-10-09T09:41:24Z</time>
      </trkpt>
      <trkpt lat="45.60653" lon="6.18372">
        <ele>1523</ele>
        <time>2010-10-09T09:41:26Z</time>
      </trkpt>
      <trkpt lat="45.6065" lon="6.18373">
        <ele>1523</ele>
        <time>2010-10-09T09:41:28Z</time>
      </trkpt>
      <trkpt lat="45.60648" lon="6.18374">
        <ele>1523</ele>
        <time>2010-10-09T09:41:30Z</time>
      </trkpt>
      <trkpt lat="45.60646" lon="6.18375">
        <ele>1523</ele>
        <time>2010-10-09T09:41:32Z</time>
      </trkpt>
      <trkpt lat="45.60644" lon="6.18375">
        <ele>1523</ele>
        <time>2010-10-09T09:41:33Z</time>
      </trkpt>
      <trkpt lat="45.60643" lon="6.18376">
        <ele>1523</ele>
        <time>2010-10-09T09:41:34Z</time>
      </trkpt>
      <trkpt lat="45.60641" lon="6.18377">
        <ele>1523</ele>
        <time>2010-10-09T09:41:36Z</time>
      </trkpt>
      <trkpt lat="45.60639" lon="6.18378">
        <ele>1523</ele>
        <time>2010-10-09T09:41:38Z</time>
      </trkpt>
      <trkpt lat="45.60637" lon="6.18379">
        <ele>1523</ele>
        <time>2010-10-09T09:41:40Z</time>
      </trkpt>
      <trkpt lat="45.60636" lon="6.18379">
        <ele>1523</ele>
        <time>2010-10-09T09:41:41Z</time>
      </trkpt>
      <trkpt lat="45.60634" lon="6.1838">
        <ele>1523</ele>
        <time>2010-10-09T09:41:42Z</time>
      </trkpt>
      <trkpt lat="45.60631" lon="6.18381">
        <ele>1523</ele>
        <time>2010-10-09T09:41:45Z</time>
      </trkpt>
      <trkpt lat="45.6063" lon="6.18381">
        <ele>1523</ele>
        <time>2010-10-09T09:41:46Z</time>
      </trkpt>
      <trkpt lat="45.60627" lon="6.1838">
        <ele>1524</ele>
        <time>2010-10-09T09:41:48Z</time>
      </trkpt>
      <trkpt lat="45.60624" lon="6.18379">
        <ele>1524</ele>
        <time>2010-10-09T09:41:50Z</time>
      </trkpt>
      <trkpt lat="45.60623" lon="6.1838">
        <ele>1524</ele>
        <time>2010-10-09T09:41:51Z</time>
      </trkpt>
      <trkpt lat="45.60621" lon="6.18379">
        <ele>1524</ele>
        <time>2010-10-09T09:41:52Z</time>
      </trkpt>
      <trkpt lat="45.60619" lon="6.18379">
        <ele>1524</ele>
        <time>2010-10-09T09:41:54Z</time>
      </trkpt>
      <trkpt lat="45.60616" lon="6.18378">
        <ele>1525</ele>
        <time>2010-10-09T09:41:57Z</time>
      </trkpt>
      <trkpt lat="45.60614" lon="6.18377">
        <ele>1525</ele>
        <time>2010-10-09T09:41:59Z</time>
      </trkpt>
      <trkpt lat="45.60612" lon="6.18376">
        <ele>1525</ele>
        <time>2010-10-09T09:42:01Z</time>
      </trkpt>
      <trkpt lat="45.60611" lon="6.18376">
        <ele>1525</ele>
        <time>2010-10-09T09:42:02Z</time>
      </trkpt>
      <trkpt lat="45.60608" lon="6.18375">
        <ele>1525</ele>
        <time>2010-10-09T09:42:06Z</time>
      </trkpt>
      <trkpt lat="45.60606" lon="6.18374">
        <ele>1525</ele>
        <time>2010-10-09T09:42:10Z</time>
      </trkpt>
      <trkpt lat="45.60605" lon="6.18373">
        <ele>1525</ele>
        <time>2010-10-09T09:42:12Z</time>
      </trkpt>
      <trkpt lat="45.60603" lon="6.18372">
        <ele>1525</ele>
        <time>2010-10-09T09:42:13Z</time>
      </trkpt>
      <trkpt lat="45.606" lon="6.18371">
        <ele>1526</ele>
        <time>2010-10-09T09:42:15Z</time>
      </trkpt>
      <trkpt lat="45.60598" lon="6.18371">
        <ele>1526</ele>
        <time>2010-10-09T09:42:16Z</time>
      </trkpt>
      <trkpt lat="45.60597" lon="6.18371">
        <ele>1526</ele>
        <time>2010-10-09T09:42:17Z</time>
      </trkpt>
      <trkpt lat="45.60596" lon="6.18371">
        <ele>1526</ele>
        <time>2010-10-09T09:42:18Z</time>
      </trkpt>
      <trkpt lat="45.60593" lon="6.18371">
        <ele>1526</ele>
        <time>2010-10-09T09:42:20Z</time>
      </trkpt>
      <trkpt lat="45.60591" lon="6.1837">
        <ele>1526</ele>
        <time>2010-10-09T09:42:21Z</time>
      </trkpt>
      <trkpt lat="45.60588" lon="6.1837">
        <ele>1526</ele>
        <time>2010-10-09T09:42:23Z</time>
      </trkpt>
      <trkpt lat="45.60586" lon="6.1837">
        <ele>1526</ele>
        <time>2010-10-09T09:42:25Z</time>
      </trkpt>
      <trkpt lat="45.60585" lon="6.1837">
        <ele>1526</ele>
        <time>2010-10-09T09:42:26Z</time>
      </trkpt>
      <trkpt lat="45.60583" lon="6.1837">
        <ele>1532</ele>
        <time>2010-10-09T09:42:27Z</time>
      </trkpt>
      <trkpt lat="45.60582" lon="6.1837">
        <ele>1532</ele>
        <time>2010-10-09T09:42:28Z</time>
      </trkpt>
      <trkpt lat="45.6058" lon="6.1837">
        <ele>1532</ele>
        <time>2010-10-09T09:42:30Z</time>
      </trkpt>
      <trkpt lat="45.60578" lon="6.1837">
        <ele>1532</ele>
        <time>2010-10-09T09:42:31Z</time>
      </trkpt>
      <trkpt lat="45.60577" lon="6.1837">
        <ele>1532</ele>
        <time>2010-10-09T09:42:32Z</time>
      </trkpt>
      <trkpt lat="45.60576" lon="6.18369">
        <ele>1532</ele>
        <time>2010-10-09T09:42:33Z</time>
      </trkpt>
      <trkpt lat="45.60573" lon="6.18368">
        <ele>1532</ele>
        <time>2010-10-09T09:42:35Z</time>
      </trkpt>
      <trkpt lat="45.60572" lon="6.18367">
        <ele>1532</ele>
        <time>2010-10-09T09:42:36Z</time>
      </trkpt>
      <trkpt lat="45.6057" lon="6.18367">
        <ele>1532</ele>
        <time>2010-10-09T09:42:37Z</time>
      </trkpt>
      <trkpt lat="45.60567" lon="6.18366">
        <ele>1532</ele>
        <time>2010-10-09T09:42:39Z</time>
      </trkpt>
      <trkpt lat="45.60566" lon="6.18365">
        <ele>1532</ele>
        <time>2010-10-09T09:42:41Z</time>
      </trkpt>
      <trkpt lat="45.60565" lon="6.18365">
        <ele>1532</ele>
        <time>2010-10-09T09:42:44Z</time>
      </trkpt>
      <trkpt lat="45.60564" lon="6.18366">
        <ele>1532</ele>
        <time>2010-10-09T09:42:46Z</time>
      </trkpt>
      <trkpt lat="45.60564" lon="6.18368">
        <ele>1532</ele>
        <time>2010-10-09T09:42:47Z</time>
      </trkpt>
      <trkpt lat="45.60563" lon="6.18366">
        <ele>1532</ele>
        <time>2010-10-09T09:42:51Z</time>
      </trkpt>
      <trkpt lat="45.60562" lon="6.18368">
        <ele>1532</ele>
        <time>2010-10-09T09:42:54Z</time>
      </trkpt>
      <trkpt lat="45.60561" lon="6.18367">
        <ele>1532</ele>
        <time>2010-10-09T09:42:55Z</time>
      </trkpt>
      <trkpt lat="45.60559" lon="6.18365">
        <ele>1533</ele>
        <time>2010-10-09T09:42:57Z</time>
      </trkpt>
      <trkpt lat="45.60556" lon="6.18363">
        <ele>1533</ele>
        <time>2010-10-09T09:43:00Z</time>
      </trkpt>
      <trkpt lat="45.60552" lon="6.18362">
        <ele>1533</ele>
        <time>2010-10-09T09:43:02Z</time>
      </trkpt>
      <trkpt lat="45.60551" lon="6.18361">
        <ele>1533</ele>
        <time>2010-10-09T09:43:03Z</time>
      </trkpt>
      <trkpt lat="45.60549" lon="6.18361">
        <ele>1533</ele>
        <time>2010-10-09T09:43:04Z</time>
      </trkpt>
      <trkpt lat="45.60547" lon="6.18361">
        <ele>1533</ele>
        <time>2010-10-09T09:43:05Z</time>
      </trkpt>
      <trkpt lat="45.60545" lon="6.18361">
        <ele>1533</ele>
        <time>2010-10-09T09:43:06Z</time>
      </trkpt>
      <trkpt lat="45.60544" lon="6.18357">
        <ele>1534</ele>
        <time>2010-10-09T09:43:09Z</time>
      </trkpt>
      <trkpt lat="45.60543" lon="6.18352">
        <ele>1534</ele>
        <time>2010-10-09T09:43:10Z</time>
      </trkpt>
      <trkpt lat="45.60544" lon="6.18349">
        <ele>1534</ele>
        <time>2010-10-09T09:43:12Z</time>
      </trkpt>
      <trkpt lat="45.60542" lon="6.18347">
        <ele>1534</ele>
        <time>2010-10-09T09:43:16Z</time>
      </trkpt>
      <trkpt lat="45.6054" lon="6.18347">
        <ele>1534</ele>
        <time>2010-10-09T09:43:18Z</time>
      </trkpt>
      <trkpt lat="45.60539" lon="6.18345">
        <ele>1534</ele>
        <time>2010-10-09T09:43:20Z</time>
      </trkpt>
      <trkpt lat="45.60537" lon="6.18345">
        <ele>1534</ele>
        <time>2010-10-09T09:43:22Z</time>
      </trkpt>
      <trkpt lat="45.60538" lon="6.18344">
        <ele>1534</ele>
        <time>2010-10-09T09:43:23Z</time>
      </trkpt>
      <trkpt lat="45.6054" lon="6.18342">
        <ele>1534</ele>
        <time>2010-10-09T09:43:25Z</time>
      </trkpt>
      <trkpt lat="45.60542" lon="6.18341">
        <ele>1534</ele>
        <time>2010-10-09T09:43:26Z</time>
      </trkpt>
      <trkpt lat="45.60545" lon="6.18339">
        <ele>1534</ele>
        <time>2010-10-09T09:43:29Z</time>
      </trkpt>
      <trkpt lat="45.60547" lon="6.18337">
        <ele>1533</ele>
        <time>2010-10-09T09:43:30Z</time>
      </trkpt>
      <trkpt lat="45.6055" lon="6.18337">
        <ele>1533</ele>
        <time>2010-10-09T09:43:32Z</time>
      </trkpt>
      <trkpt lat="45.60553" lon="6.18337">
        <ele>1533</ele>
        <time>2010-10-09T09:43:35Z</time>
      </trkpt>
      <trkpt lat="45.60555" lon="6.18338">
        <ele>1533</ele>
        <time>2010-10-09T09:43:37Z</time>
      </trkpt>
      <trkpt lat="45.60558" lon="6.18338">
        <ele>1532</ele>
        <time>2010-10-09T09:43:40Z</time>
      </trkpt>
      <trkpt lat="45.6056" lon="6.18339">
        <ele>1532</ele>
        <time>2010-10-09T09:43:42Z</time>
      </trkpt>
      <trkpt lat="45.60562" lon="6.18339">
        <ele>1532</ele>
        <time>2010-10-09T09:43:44Z</time>
      </trkpt>
      <trkpt lat="45.60565" lon="6.18339">
        <ele>1532</ele>
        <time>2010-10-09T09:43:46Z</time>
      </trkpt>
      <trkpt lat="45.60568" lon="6.18338">
        <ele>1531</ele>
        <time>2010-10-09T09:43:49Z</time>
      </trkpt>
      <trkpt lat="45.6057" lon="6.18338">
        <ele>1531</ele>
        <time>2010-10-09T09:43:51Z</time>
      </trkpt>
      <trkpt lat="45.60572" lon="6.18338">
        <ele>1531</ele>
        <time>2010-10-09T09:43:52Z</time>
      </trkpt>
      <trkpt lat="45.60574" lon="6.18337">
        <ele>1531</ele>
        <time>2010-10-09T09:43:54Z</time>
      </trkpt>
      <trkpt lat="45.60576" lon="6.18335">
        <ele>1530</ele>
        <time>2010-10-09T09:43:55Z</time>
      </trkpt>
      <trkpt lat="45.60577" lon="6.18335">
        <ele>1530</ele>
        <time>2010-10-09T09:43:56Z</time>
      </trkpt>
      <trkpt lat="45.60579" lon="6.18334">
        <ele>1530</ele>
        <time>2010-10-09T09:43:58Z</time>
      </trkpt>
      <trkpt lat="45.6058" lon="6.18333">
        <ele>1530</ele>
        <time>2010-10-09T09:44:00Z</time>
      </trkpt>
      <trkpt lat="45.60576" lon="6.18325">
        <ele>1535</ele>
        <time>2010-10-09T09:44:06Z</time>
      </trkpt>
      <trkpt lat="45.60577" lon="6.1832">
        <ele>1537</ele>
        <time>2010-10-09T09:44:11Z</time>
      </trkpt>
      <trkpt lat="45.60583" lon="6.18326">
        <ele>1534</ele>
        <time>2010-10-09T09:44:18Z</time>
      </trkpt>
      <trkpt lat="45.6059" lon="6.18327">
        <ele>1532</ele>
        <time>2010-10-09T09:44:22Z</time>
      </trkpt>
      <trkpt lat="45.60591" lon="6.18328">
        <ele>1532</ele>
        <time>2010-10-09T09:44:23Z</time>
      </trkpt>
      <trkpt lat="45.60593" lon="6.18328">
        <ele>1532</ele>
        <time>2010-10-09T09:44:26Z</time>
      </trkpt>
      <trkpt lat="45.60592" lon="6.18329">
        <ele>1532</ele>
        <time>2010-10-09T09:44:32Z</time>
      </trkpt>
      <trkpt lat="45.6059" lon="6.18329">
        <ele>1531</ele>
        <time>2010-10-09T09:44:34Z</time>
      </trkpt>
      <trkpt lat="45.60588" lon="6.18329">
        <ele>1531</ele>
        <time>2010-10-09T09:44:36Z</time>
      </trkpt>
      <trkpt lat="45.6059" lon="6.18329">
        <ele>1531</ele>
        <time>2010-10-09T09:44:41Z</time>
      </trkpt>
      <trkpt lat="45.60592" lon="6.18329">
        <ele>1532</ele>
        <time>2010-10-09T09:44:43Z</time>
      </trkpt>
      <trkpt lat="45.60594" lon="6.18328">
        <ele>1532</ele>
        <time>2010-10-09T09:44:45Z</time>
      </trkpt>
      <trkpt lat="45.60595" lon="6.18328">
        <ele>1532</ele>
        <time>2010-10-09T09:44:48Z</time>
      </trkpt>
      <trkpt lat="45.60593" lon="6.18329">
        <ele>1532</ele>
        <time>2010-10-09T09:44:53Z</time>
      </trkpt>
      <trkpt lat="45.60592" lon="6.1833">
        <ele>1531</ele>
        <time>2010-10-09T09:44:56Z</time>
      </trkpt>
      <trkpt lat="45.60596" lon="6.18329">
        <ele>1532</ele>
        <time>2010-10-09T09:45:00Z</time>
      </trkpt>
      <trkpt lat="45.60597" lon="6.18329">
        <ele>1532</ele>
        <time>2010-10-09T09:45:03Z</time>
      </trkpt>
      <trkpt lat="45.60598" lon="6.1833">
        <ele>1532</ele>
        <time>2010-10-09T09:45:08Z</time>
      </trkpt>
      <trkpt lat="45.60595" lon="6.18331">
        <ele>1532</ele>
        <time>2010-10-09T09:45:12Z</time>
      </trkpt>
      <trkpt lat="45.60594" lon="6.18332">
        <ele>1532</ele>
        <time>2010-10-09T09:45:14Z</time>
      </trkpt>
      <trkpt lat="45.60592" lon="6.18332">
        <ele>1531</ele>
        <time>2010-10-09T09:45:18Z</time>
      </trkpt>
      <trkpt lat="45.60591" lon="6.18333">
        <ele>1531</ele>
        <time>2010-10-09T09:45:21Z</time>
      </trkpt>
      <trkpt lat="45.6059" lon="6.18333">
        <ele>1528</ele>
        <time>2010-10-09T09:45:25Z</time>
      </trkpt>
      <trkpt lat="45.60591" lon="6.18333">
        <ele>1531</ele>
        <time>2010-10-09T09:45:31Z</time>
      </trkpt>
      <trkpt lat="45.60588" lon="6.18334">
        <ele>1528</ele>
        <time>2010-10-09T09:45:36Z</time>
      </trkpt>
      <trkpt lat="45.60594" lon="6.18331">
        <ele>1532</ele>
        <time>2010-10-09T09:45:47Z</time>
      </trkpt>
      <trkpt lat="45.60593" lon="6.18332">
        <ele>1531</ele>
        <time>2010-10-09T09:45:49Z</time>
      </trkpt>
      <trkpt lat="45.60591" lon="6.18332">
        <ele>1531</ele>
        <time>2010-10-09T09:45:51Z</time>
      </trkpt>
      <trkpt lat="45.6059" lon="6.18332">
        <ele>1531</ele>
        <time>2010-10-09T09:45:53Z</time>
      </trkpt>
      <trkpt lat="45.60589" lon="6.18332">
        <ele>1531</ele>
        <time>2010-10-09T09:45:57Z</time>
      </trkpt>
      <trkpt lat="45.60585" lon="6.18332">
        <ele>1530</ele>
        <time>2010-10-09T09:46:00Z</time>
      </trkpt>
      <trkpt lat="45.60587" lon="6.18333">
        <ele>1530</ele>
        <time>2010-10-09T09:46:02Z</time>
      </trkpt>
      <trkpt lat="45.6059" lon="6.18333">
        <ele>1531</ele>
        <time>2010-10-09T09:46:03Z</time>
      </trkpt>
      <trkpt lat="45.60591" lon="6.18333">
        <ele>1528</ele>
        <time>2010-10-09T09:46:04Z</time>
      </trkpt>
      <trkpt lat="45.60593" lon="6.18334">
        <ele>1528</ele>
        <time>2010-10-09T09:46:06Z</time>
      </trkpt>
      <trkpt lat="45.60595" lon="6.18334">
        <ele>1527</ele>
        <time>2010-10-09T09:46:08Z</time>
      </trkpt>
      <trkpt lat="45.60597" lon="6.18334">
        <ele>1527</ele>
        <time>2010-10-09T09:46:13Z</time>
      </trkpt>
      <trkpt lat="45.60599" lon="6.18334">
        <ele>1527</ele>
        <time>2010-10-09T09:46:17Z</time>
      </trkpt>
      <trkpt lat="45.606" lon="6.18335">
        <ele>1527</ele>
        <time>2010-10-09T09:46:19Z</time>
      </trkpt>
      <trkpt lat="45.60598" lon="6.18331">
        <ele>1532</ele>
        <time>2010-10-09T09:46:25Z</time>
      </trkpt>
      <trkpt lat="45.60598" lon="6.18333">
        <ele>1532</ele>
        <time>2010-10-09T09:46:27Z</time>
      </trkpt>
      <trkpt lat="45.606" lon="6.18334">
        <ele>1527</ele>
        <time>2010-10-09T09:46:29Z</time>
      </trkpt>
      <trkpt lat="45.60601" lon="6.18334">
        <ele>1527</ele>
        <time>2010-10-09T09:46:32Z</time>
      </trkpt>
      <trkpt lat="45.60595" lon="6.18335">
        <ele>1527</ele>
        <time>2010-10-09T09:46:39Z</time>
      </trkpt>
      <trkpt lat="45.60588" lon="6.18334">
        <ele>1528</ele>
        <time>2010-10-09T09:46:41Z</time>
      </trkpt>
      <trkpt lat="45.60586" lon="6.18335">
        <ele>1528</ele>
        <time>2010-10-09T09:46:43Z</time>
      </trkpt>
      <trkpt lat="45.60584" lon="6.18335">
        <ele>1529</ele>
        <time>2010-10-09T09:46:44Z</time>
      </trkpt>
      <trkpt lat="45.60583" lon="6.18336">
        <ele>1529</ele>
        <time>2010-10-09T09:46:45Z</time>
      </trkpt>
      <trkpt lat="45.60581" lon="6.18336">
        <ele>1530</ele>
        <time>2010-10-09T09:46:47Z</time>
      </trkpt>
      <trkpt lat="45.6058" lon="6.18336">
        <ele>1530</ele>
        <time>2010-10-09T09:46:49Z</time>
      </trkpt>
      <trkpt lat="45.60578" lon="6.18336">
        <ele>1530</ele>
        <time>2010-10-09T09:46:52Z</time>
      </trkpt>
      <trkpt lat="45.60577" lon="6.18336">
        <ele>1530</ele>
        <time>2010-10-09T09:46:53Z</time>
      </trkpt>
      <trkpt lat="45.60575" lon="6.18337">
        <ele>1530</ele>
        <time>2010-10-09T09:46:54Z</time>
      </trkpt>
      <trkpt lat="45.60574" lon="6.18337">
        <ele>1531</ele>
        <time>2010-10-09T09:46:55Z</time>
      </trkpt>
      <trkpt lat="45.60577" lon="6.18336">
        <ele>1530</ele>
        <time>2010-10-09T09:46:59Z</time>
      </trkpt>
      <trkpt lat="45.6058" lon="6.18335">
        <ele>1530</ele>
        <time>2010-10-09T09:47:01Z</time>
      </trkpt>
      <trkpt lat="45.60581" lon="6.18335">
        <ele>1530</ele>
        <time>2010-10-09T09:47:02Z</time>
      </trkpt>
      <trkpt lat="45.60583" lon="6.18335">
        <ele>1529</ele>
        <time>2010-10-09T09:47:04Z</time>
      </trkpt>
      <trkpt lat="45.60586" lon="6.18333">
        <ele>1530</ele>
        <time>2010-10-09T09:47:06Z</time>
      </trkpt>
      <trkpt lat="45.60587" lon="6.18332">
        <ele>1530</ele>
        <time>2010-10-09T09:47:07Z</time>
      </trkpt>
      <trkpt lat="45.60589" lon="6.1833">
        <ele>1531</ele>
        <time>2010-10-09T09:47:10Z</time>
      </trkpt>
      <trkpt lat="45.6059" lon="6.18329">
        <ele>1531</ele>
        <time>2010-10-09T09:47:12Z</time>
      </trkpt>
      <trkpt lat="45.60592" lon="6.18328">
        <ele>1532</ele>
        <time>2010-10-09T09:47:17Z</time>
      </trkpt>
      <trkpt lat="45.60595" lon="6.18327">
        <ele>1532</ele>
        <time>2010-10-09T09:47:21Z</time>
      </trkpt>
      <trkpt lat="45.60593" lon="6.1833">
        <ele>1532</ele>
        <time>2010-10-09T09:47:26Z</time>
      </trkpt>
      <trkpt lat="45.60592" lon="6.18329">
        <ele>1532</ele>
        <time>2010-10-09T09:47:30Z</time>
      </trkpt>
      <trkpt lat="45.60591" lon="6.18329">
        <ele>1531</ele>
        <time>2010-10-09T09:47:31Z</time>
      </trkpt>
      <trkpt lat="45.6059" lon="6.18328">
        <ele>1531</ele>
        <time>2010-10-09T09:47:35Z</time>
      </trkpt>
      <trkpt lat="45.60588" lon="6.18328">
        <ele>1531</ele>
        <time>2010-10-09T09:47:38Z</time>
      </trkpt>
      <trkpt lat="45.60582" lon="6.1833">
        <ele>1531</ele>
        <time>2010-10-09T09:47:43Z</time>
      </trkpt>
      <trkpt lat="45.6058" lon="6.1833">
        <ele>1532</ele>
        <time>2010-10-09T09:47:45Z</time>
      </trkpt>
      <trkpt lat="45.60579" lon="6.18331">
        <ele>1532</ele>
        <time>2010-10-09T09:47:47Z</time>
      </trkpt>
      <trkpt lat="45.60577" lon="6.18331">
        <ele>1533</ele>
        <time>2010-10-09T09:47:50Z</time>
      </trkpt>
      <trkpt lat="45.6058" lon="6.18337">
        <ele>1530</ele>
        <time>2010-10-09T09:47:53Z</time>
      </trkpt>
      <trkpt lat="45.6058" lon="6.18339">
        <ele>1530</ele>
        <time>2010-10-09T09:47:55Z</time>
      </trkpt>
      <trkpt lat="45.6058" lon="6.18343">
        <ele>1530</ele>
        <time>2010-10-09T09:47:57Z</time>
      </trkpt>
      <trkpt lat="45.60581" lon="6.18344">
        <ele>1531</ele>
        <time>2010-10-09T09:48:03Z</time>
      </trkpt>
      <trkpt lat="45.60586" lon="6.1835">
        <ele>1527</ele>
        <time>2010-10-09T09:48:04Z</time>
      </trkpt>
      <trkpt lat="45.60587" lon="6.18348">
        <ele>1527</ele>
        <time>2010-10-09T09:48:06Z</time>
      </trkpt>
      <trkpt lat="45.60587" lon="6.18347">
        <ele>1527</ele>
        <time>2010-10-09T09:48:09Z</time>
      </trkpt>
      <trkpt lat="45.60588" lon="6.18345">
        <ele>1527</ele>
        <time>2010-10-09T09:48:13Z</time>
      </trkpt>
      <trkpt lat="45.60588" lon="6.18344">
        <ele>1527</ele>
        <time>2010-10-09T09:48:17Z</time>
      </trkpt>
      <trkpt lat="45.60591" lon="6.18343">
        <ele>1527</ele>
        <time>2010-10-09T09:48:23Z</time>
      </trkpt>
      <trkpt lat="45.6059" lon="6.18341">
        <ele>1528</ele>
        <time>2010-10-09T09:48:25Z</time>
      </trkpt>
      <trkpt lat="45.60588" lon="6.1834">
        <ele>1528</ele>
        <time>2010-10-09T09:48:27Z</time>
      </trkpt>
      <trkpt lat="45.60586" lon="6.1834">
        <ele>1528</ele>
        <time>2010-10-09T09:48:28Z</time>
      </trkpt>
      <trkpt lat="45.60585" lon="6.18339">
        <ele>1528</ele>
        <time>2010-10-09T09:48:29Z</time>
      </trkpt>
      <trkpt lat="45.60584" lon="6.18339">
        <ele>1528</ele>
        <time>2010-10-09T09:48:34Z</time>
      </trkpt>
      <trkpt lat="45.60582" lon="6.1834">
        <ele>1530</ele>
        <time>2010-10-09T09:48:37Z</time>
      </trkpt>
      <trkpt lat="45.60583" lon="6.1834">
        <ele>1530</ele>
        <time>2010-10-09T09:48:40Z</time>
      </trkpt>
      <trkpt lat="45.60585" lon="6.18341">
        <ele>1528</ele>
        <time>2010-10-09T09:48:41Z</time>
      </trkpt>
      <trkpt lat="45.60586" lon="6.18342">
        <ele>1528</ele>
        <time>2010-10-09T09:48:44Z</time>
      </trkpt>
      <trkpt lat="45.60587" lon="6.18343">
        <ele>1528</ele>
        <time>2010-10-09T09:48:47Z</time>
      </trkpt>
      <trkpt lat="45.60593" lon="6.18349">
        <ele>1527</ele>
        <time>2010-10-09T09:48:51Z</time>
      </trkpt>
      <trkpt lat="45.60591" lon="6.18348">
        <ele>1527</ele>
        <time>2010-10-09T09:48:58Z</time>
      </trkpt>
      <trkpt lat="45.6059" lon="6.18348">
        <ele>1527</ele>
        <time>2010-10-09T09:48:59Z</time>
      </trkpt>
      <trkpt lat="45.60588" lon="6.18347">
        <ele>1527</ele>
        <time>2010-10-09T09:49:00Z</time>
      </trkpt>
      <trkpt lat="45.60587" lon="6.18346">
        <ele>1527</ele>
        <time>2010-10-09T09:49:01Z</time>
      </trkpt>
      <trkpt lat="45.60586" lon="6.18344">
        <ele>1527</ele>
        <time>2010-10-09T09:49:03Z</time>
      </trkpt>
      <trkpt lat="45.60585" lon="6.18342">
        <ele>1528</ele>
        <time>2010-10-09T09:49:06Z</time>
      </trkpt>
      <trkpt lat="45.60587" lon="6.18341">
        <ele>1528</ele>
        <time>2010-10-09T09:49:09Z</time>
      </trkpt>
      <trkpt lat="45.60586" lon="6.1834">
        <ele>1528</ele>
        <time>2010-10-09T09:49:11Z</time>
      </trkpt>
      <trkpt lat="45.60581" lon="6.1834">
        <ele>1530</ele>
        <time>2010-10-09T09:49:12Z</time>
      </trkpt>
      <trkpt lat="45.6058" lon="6.18339">
        <ele>1530</ele>
        <time>2010-10-09T09:49:13Z</time>
      </trkpt>
      <trkpt lat="45.60578" lon="6.18335">
        <ele>1530</ele>
        <time>2010-10-09T09:49:20Z</time>
      </trkpt>
      <trkpt lat="45.60569" lon="6.18336">
        <ele>1531</ele>
        <time>2010-10-09T09:49:24Z</time>
      </trkpt>
      <trkpt lat="45.60568" lon="6.18337">
        <ele>1531</ele>
        <time>2010-10-09T09:49:29Z</time>
      </trkpt>
      <trkpt lat="45.60569" lon="6.18336">
        <ele>1531</ele>
        <time>2010-10-09T09:49:31Z</time>
      </trkpt>
      <trkpt lat="45.60581" lon="6.1834">
        <ele>1530</ele>
        <time>2010-10-09T09:49:36Z</time>
      </trkpt>
      <trkpt lat="45.60582" lon="6.18342">
        <ele>1530</ele>
        <time>2010-10-09T09:49:41Z</time>
      </trkpt>
      <trkpt lat="45.60583" lon="6.18343">
        <ele>1530</ele>
        <time>2010-10-09T09:49:46Z</time>
      </trkpt>
      <trkpt lat="45.60582" lon="6.18339">
        <ele>1530</ele>
        <time>2010-10-09T09:49:49Z</time>
      </trkpt>
      <trkpt lat="45.60582" lon="6.18338">
        <ele>1530</ele>
        <time>2010-10-09T09:49:52Z</time>
      </trkpt>
      <trkpt lat="45.60585" lon="6.18334">
        <ele>1529</ele>
        <time>2010-10-09T09:50:00Z</time>
      </trkpt>
      <trkpt lat="45.60598" lon="6.18329">
        <ele>1533</ele>
        <time>2010-10-09T09:50:02Z</time>
      </trkpt>
      <trkpt lat="45.60601" lon="6.1833">
        <ele>1533</ele>
        <time>2010-10-09T09:50:03Z</time>
      </trkpt>
      <trkpt lat="45.60609" lon="6.18334">
        <ele>1526</ele>
        <time>2010-10-09T09:50:05Z</time>
      </trkpt>
      <trkpt lat="45.60617" lon="6.1834">
        <ele>1526</ele>
        <time>2010-10-09T09:50:07Z</time>
      </trkpt>
      <trkpt lat="45.60621" lon="6.18344">
        <ele>1525</ele>
        <time>2010-10-09T09:50:08Z</time>
      </trkpt>
      <trkpt lat="45.60629" lon="6.18349">
        <ele>1525</ele>
        <time>2010-10-09T09:50:10Z</time>
      </trkpt>
      <trkpt lat="45.60633" lon="6.18352">
        <ele>1525</ele>
        <time>2010-10-09T09:50:11Z</time>
      </trkpt>
      <trkpt lat="45.60637" lon="6.18354">
        <ele>1524</ele>
        <time>2010-10-09T09:50:12Z</time>
      </trkpt>
      <trkpt lat="45.60641" lon="6.18357">
        <ele>1524</ele>
        <time>2010-10-09T09:50:13Z</time>
      </trkpt>
      <trkpt lat="45.60644" lon="6.18359">
        <ele>1524</ele>
        <time>2010-10-09T09:50:14Z</time>
      </trkpt>
      <trkpt lat="45.60647" lon="6.18361">
        <ele>1524</ele>
        <time>2010-10-09T09:50:15Z</time>
      </trkpt>
      <trkpt lat="45.60649" lon="6.18362">
        <ele>1524</ele>
        <time>2010-10-09T09:50:16Z</time>
      </trkpt>
      <trkpt lat="45.60653" lon="6.18364">
        <ele>1523</ele>
        <time>2010-10-09T09:50:18Z</time>
      </trkpt>
      <trkpt lat="45.60655" lon="6.18366">
        <ele>1523</ele>
        <time>2010-10-09T09:50:19Z</time>
      </trkpt>
      <trkpt lat="45.60661" lon="6.18369">
        <ele>1523</ele>
        <time>2010-10-09T09:50:21Z</time>
      </trkpt>
      <trkpt lat="45.60664" lon="6.18372">
        <ele>1522</ele>
        <time>2010-10-09T09:50:22Z</time>
      </trkpt>
      <trkpt lat="45.60667" lon="6.18375">
        <ele>1522</ele>
        <time>2010-10-09T09:50:23Z</time>
      </trkpt>
      <trkpt lat="45.60675" lon="6.18384">
        <ele>1516</ele>
        <time>2010-10-09T09:50:25Z</time>
      </trkpt>
      <trkpt lat="45.6068" lon="6.18388">
        <ele>1515</ele>
        <time>2010-10-09T09:50:26Z</time>
      </trkpt>
      <trkpt lat="45.60693" lon="6.18399">
        <ele>1514</ele>
        <time>2010-10-09T09:50:28Z</time>
      </trkpt>
      <trkpt lat="45.60699" lon="6.18404">
        <ele>1514</ele>
        <time>2010-10-09T09:50:29Z</time>
      </trkpt>
      <trkpt lat="45.60705" lon="6.18409">
        <ele>1514</ele>
        <time>2010-10-09T09:50:30Z</time>
      </trkpt>
      <trkpt lat="45.60712" lon="6.18414">
        <ele>1513</ele>
        <time>2010-10-09T09:50:31Z</time>
      </trkpt>
      <trkpt lat="45.60719" lon="6.18421">
        <ele>1505</ele>
        <time>2010-10-09T09:50:32Z</time>
      </trkpt>
      <trkpt lat="45.60735" lon="6.18436">
        <ele>1504</ele>
        <time>2010-10-09T09:50:34Z</time>
      </trkpt>
      <trkpt lat="45.60744" lon="6.18441">
        <ele>1504</ele>
        <time>2010-10-09T09:50:35Z</time>
      </trkpt>
      <trkpt lat="45.60763" lon="6.18448">
        <ele>1501</ele>
        <time>2010-10-09T09:50:37Z</time>
      </trkpt>
      <trkpt lat="45.60773" lon="6.18452">
        <ele>1501</ele>
        <time>2010-10-09T09:50:38Z</time>
      </trkpt>
      <trkpt lat="45.60782" lon="6.18457">
        <ele>1500</ele>
        <time>2010-10-09T09:50:39Z</time>
      </trkpt>
      <trkpt lat="45.6079" lon="6.18462">
        <ele>1500</ele>
        <time>2010-10-09T09:50:40Z</time>
      </trkpt>
      <trkpt lat="45.60799" lon="6.18466">
        <ele>1500</ele>
        <time>2010-10-09T09:50:41Z</time>
      </trkpt>
      <trkpt lat="45.60806" lon="6.18469">
        <ele>1499</ele>
        <time>2010-10-09T09:50:42Z</time>
      </trkpt>
      <trkpt lat="45.60821" lon="6.18476">
        <ele>1499</ele>
        <time>2010-10-09T09:50:44Z</time>
      </trkpt>
      <trkpt lat="45.60828" lon="6.1848">
        <ele>1498</ele>
        <time>2010-10-09T09:50:45Z</time>
      </trkpt>
      <trkpt lat="45.60843" lon="6.18487">
        <ele>1496</ele>
        <time>2010-10-09T09:50:47Z</time>
      </trkpt>
      <trkpt lat="45.6085" lon="6.18491">
        <ele>1496</ele>
        <time>2010-10-09T09:50:48Z</time>
      </trkpt>
      <trkpt lat="45.60867" lon="6.18498">
        <ele>1495</ele>
        <time>2010-10-09T09:50:50Z</time>
      </trkpt>
      <trkpt lat="45.60876" lon="6.18502">
        <ele>1488</ele>
        <time>2010-10-09T09:50:51Z</time>
      </trkpt>
      <trkpt lat="45.60896" lon="6.18513">
        <ele>1486</ele>
        <time>2010-10-09T09:50:53Z</time>
      </trkpt>
      <trkpt lat="45.60907" lon="6.18519">
        <ele>1486</ele>
        <time>2010-10-09T09:50:54Z</time>
      </trkpt>
      <trkpt lat="45.60918" lon="6.18526">
        <ele>1482</ele>
        <time>2010-10-09T09:50:55Z</time>
      </trkpt>
      <trkpt lat="45.60939" lon="6.18539">
        <ele>1480</ele>
        <time>2010-10-09T09:50:57Z</time>
      </trkpt>
      <trkpt lat="45.60961" lon="6.1855">
        <ele>1479</ele>
        <time>2010-10-09T09:50:59Z</time>
      </trkpt>
      <trkpt lat="45.60972" lon="6.18554">
        <ele>1479</ele>
        <time>2010-10-09T09:51:00Z</time>
      </trkpt>
      <trkpt lat="45.60994" lon="6.18561">
        <ele>1477</ele>
        <time>2010-10-09T09:51:02Z</time>
      </trkpt>
      <trkpt lat="45.61003" lon="6.18564">
        <ele>1475</ele>
        <time>2010-10-09T09:51:03Z</time>
      </trkpt>
      <trkpt lat="45.61012" lon="6.18565">
        <ele>1474</ele>
        <time>2010-10-09T09:51:04Z</time>
      </trkpt>
      <trkpt lat="45.61021" lon="6.18565">
        <ele>1474</ele>
        <time>2010-10-09T09:51:05Z</time>
      </trkpt>
      <trkpt lat="45.61029" lon="6.18565">
        <ele>1474</ele>
        <time>2010-10-09T09:51:06Z</time>
      </trkpt>
      <trkpt lat="45.61043" lon="6.18566">
        <ele>1474</ele>
        <time>2010-10-09T09:51:08Z</time>
      </trkpt>
      <trkpt lat="45.61048" lon="6.18569">
        <ele>1473</ele>
        <time>2010-10-09T09:51:09Z</time>
      </trkpt>
      <trkpt lat="45.61054" lon="6.18573">
        <ele>1472</ele>
        <time>2010-10-09T09:51:10Z</time>
      </trkpt>
      <trkpt lat="45.61058" lon="6.1858">
        <ele>1472</ele>
        <time>2010-10-09T09:51:12Z</time>
      </trkpt>
      <trkpt lat="45.61069" lon="6.18595">
        <ele>1467</ele>
        <time>2010-10-09T09:51:13Z</time>
      </trkpt>
      <trkpt lat="45.61081" lon="6.18608">
        <ele>1467</ele>
        <time>2010-10-09T09:51:15Z</time>
      </trkpt>
      <trkpt lat="45.61087" lon="6.18614">
        <ele>1462</ele>
        <time>2010-10-09T09:51:16Z</time>
      </trkpt>
      <trkpt lat="45.61099" lon="6.18622">
        <ele>1461</ele>
        <time>2010-10-09T09:51:18Z</time>
      </trkpt>
      <trkpt lat="45.61105" lon="6.18625">
        <ele>1461</ele>
        <time>2010-10-09T09:51:19Z</time>
      </trkpt>
      <trkpt lat="45.6112" lon="6.1863">
        <ele>1460</ele>
        <time>2010-10-09T09:51:21Z</time>
      </trkpt>
      <trkpt lat="45.61132" lon="6.18637">
        <ele>1459</ele>
        <time>2010-10-09T09:51:23Z</time>
      </trkpt>
      <trkpt lat="45.61141" lon="6.18645">
        <ele>1458</ele>
        <time>2010-10-09T09:51:25Z</time>
      </trkpt>
      <trkpt lat="45.61144" lon="6.1865">
        <ele>1457</ele>
        <time>2010-10-09T09:51:26Z</time>
      </trkpt>
      <trkpt lat="45.61146" lon="6.18657">
        <ele>1457</ele>
        <time>2010-10-09T09:51:27Z</time>
      </trkpt>
      <trkpt lat="45.61147" lon="6.18663">
        <ele>1456</ele>
        <time>2010-10-09T09:51:28Z</time>
      </trkpt>
      <trkpt lat="45.61142" lon="6.18682">
        <ele>1451</ele>
        <time>2010-10-09T09:51:30Z</time>
      </trkpt>
      <trkpt lat="45.61137" lon="6.18687">
        <ele>1450</ele>
        <time>2010-10-09T09:51:31Z</time>
      </trkpt>
      <trkpt lat="45.61129" lon="6.18692">
        <ele>1451</ele>
        <time>2010-10-09T09:51:32Z</time>
      </trkpt>
      <trkpt lat="45.61113" lon="6.18696">
        <ele>1451</ele>
        <time>2010-10-09T09:51:34Z</time>
      </trkpt>
      <trkpt lat="45.61105" lon="6.18698">
        <ele>1452</ele>
        <time>2010-10-09T09:51:35Z</time>
      </trkpt>
      <trkpt lat="45.61099" lon="6.18698">
        <ele>1452</ele>
        <time>2010-10-09T09:51:37Z</time>
      </trkpt>
      <trkpt lat="45.61084" lon="6.1871">
        <ele>1451</ele>
        <time>2010-10-09T09:51:39Z</time>
      </trkpt>
      <trkpt lat="45.61081" lon="6.18716">
        <ele>1456</ele>
        <time>2010-10-09T09:51:40Z</time>
      </trkpt>
      <trkpt lat="45.61081" lon="6.1872">
        <ele>1456</ele>
        <time>2010-10-09T09:51:41Z</time>
      </trkpt>
      <trkpt lat="45.61081" lon="6.18724">
        <ele>1455</ele>
        <time>2010-10-09T09:51:43Z</time>
      </trkpt>
      <trkpt lat="45.61079" lon="6.18734">
        <ele>1454</ele>
        <time>2010-10-09T09:51:44Z</time>
      </trkpt>
      <trkpt lat="45.61075" lon="6.18745">
        <ele>1452</ele>
        <time>2010-10-09T09:51:46Z</time>
      </trkpt>
      <trkpt lat="45.61072" lon="6.18753">
        <ele>1449</ele>
        <time>2010-10-09T09:51:47Z</time>
      </trkpt>
      <trkpt lat="45.61069" lon="6.18769">
        <ele>1449</ele>
        <time>2010-10-09T09:51:49Z</time>
      </trkpt>
      <trkpt lat="45.61067" lon="6.18778">
        <ele>1448</ele>
        <time>2010-10-09T09:51:50Z</time>
      </trkpt>
      <trkpt lat="45.61063" lon="6.18795">
        <ele>1448</ele>
        <time>2010-10-09T09:51:52Z</time>
      </trkpt>
      <trkpt lat="45.61058" lon="6.18805">
        <ele>1447</ele>
        <time>2010-10-09T09:51:53Z</time>
      </trkpt>
      <trkpt lat="45.61049" lon="6.18817">
        <ele>1447</ele>
        <time>2010-10-09T09:51:55Z</time>
      </trkpt>
      <trkpt lat="45.61044" lon="6.18824">
        <ele>1447</ele>
        <time>2010-10-09T09:51:56Z</time>
      </trkpt>
      <trkpt lat="45.61034" lon="6.18833">
        <ele>1447</ele>
        <time>2010-10-09T09:51:58Z</time>
      </trkpt>
      <trkpt lat="45.61028" lon="6.1884">
        <ele>1444</ele>
        <time>2010-10-09T09:52:00Z</time>
      </trkpt>
      <trkpt lat="45.61024" lon="6.1885">
        <ele>1444</ele>
        <time>2010-10-09T09:52:02Z</time>
      </trkpt>
      <trkpt lat="45.61024" lon="6.18855">
        <ele>1444</ele>
        <time>2010-10-09T09:52:03Z</time>
      </trkpt>
      <trkpt lat="45.61036" lon="6.18859">
        <ele>1443</ele>
        <time>2010-10-09T09:52:05Z</time>
      </trkpt>
      <trkpt lat="45.61041" lon="6.18858">
        <ele>1443</ele>
        <time>2010-10-09T09:52:06Z</time>
      </trkpt>
      <trkpt lat="45.61051" lon="6.18853">
        <ele>1443</ele>
        <time>2010-10-09T09:52:08Z</time>
      </trkpt>
      <trkpt lat="45.61055" lon="6.1885">
        <ele>1443</ele>
        <time>2010-10-09T09:52:09Z</time>
      </trkpt>
      <trkpt lat="45.61061" lon="6.18851">
        <ele>1443</ele>
        <time>2010-10-09T09:52:12Z</time>
      </trkpt>
      <trkpt lat="45.6106" lon="6.18855">
        <ele>1443</ele>
        <time>2010-10-09T09:52:13Z</time>
      </trkpt>
      <trkpt lat="45.61057" lon="6.18856">
        <ele>1443</ele>
        <time>2010-10-09T09:52:14Z</time>
      </trkpt>
      <trkpt lat="45.61054" lon="6.18858">
        <ele>1443</ele>
        <time>2010-10-09T09:52:16Z</time>
      </trkpt>
      <trkpt lat="45.61048" lon="6.18862">
        <ele>1443</ele>
        <time>2010-10-09T09:52:17Z</time>
      </trkpt>
      <trkpt lat="45.61046" lon="6.18867">
        <ele>1443</ele>
        <time>2010-10-09T09:52:18Z</time>
      </trkpt>
      <trkpt lat="45.61044" lon="6.1887">
        <ele>1443</ele>
        <time>2010-10-09T09:52:19Z</time>
      </trkpt>
      <trkpt lat="45.61039" lon="6.18879">
        <ele>1443</ele>
        <time>2010-10-09T09:52:21Z</time>
      </trkpt>
      <trkpt lat="45.61037" lon="6.18884">
        <ele>1443</ele>
        <time>2010-10-09T09:52:22Z</time>
      </trkpt>
      <trkpt lat="45.61034" lon="6.18896">
        <ele>1443</ele>
        <time>2010-10-09T09:52:24Z</time>
      </trkpt>
      <trkpt lat="45.61033" lon="6.18902">
        <ele>1443</ele>
        <time>2010-10-09T09:52:25Z</time>
      </trkpt>
      <trkpt lat="45.61028" lon="6.18914">
        <ele>1443</ele>
        <time>2010-10-09T09:52:27Z</time>
      </trkpt>
      <trkpt lat="45.61026" lon="6.18922">
        <ele>1442</ele>
        <time>2010-10-09T09:52:28Z</time>
      </trkpt>
      <trkpt lat="45.61023" lon="6.18935">
        <ele>1442</ele>
        <time>2010-10-09T09:52:30Z</time>
      </trkpt>
      <trkpt lat="45.61024" lon="6.1894">
        <ele>1442</ele>
        <time>2010-10-09T09:52:31Z</time>
      </trkpt>
      <trkpt lat="45.61025" lon="6.18946">
        <ele>1442</ele>
        <time>2010-10-09T09:52:33Z</time>
      </trkpt>
      <trkpt lat="45.61028" lon="6.18956">
        <ele>1441</ele>
        <time>2010-10-09T09:52:34Z</time>
      </trkpt>
      <trkpt lat="45.61031" lon="6.18963">
        <ele>1441</ele>
        <time>2010-10-09T09:52:36Z</time>
      </trkpt>
      <trkpt lat="45.61033" lon="6.18967">
        <ele>1441</ele>
        <time>2010-10-09T09:52:37Z</time>
      </trkpt>
      <trkpt lat="45.61035" lon="6.18971">
        <ele>1441</ele>
        <time>2010-10-09T09:52:38Z</time>
      </trkpt>
      <trkpt lat="45.61039" lon="6.1898">
        <ele>1441</ele>
        <time>2010-10-09T09:52:40Z</time>
      </trkpt>
      <trkpt lat="45.61043" lon="6.18989">
        <ele>1441</ele>
        <time>2010-10-09T09:52:42Z</time>
      </trkpt>
      <trkpt lat="45.61046" lon="6.18993">
        <ele>1440</ele>
        <time>2010-10-09T09:52:43Z</time>
      </trkpt>
      <trkpt lat="45.61048" lon="6.18998">
        <ele>1440</ele>
        <time>2010-10-09T09:52:44Z</time>
      </trkpt>
      <trkpt lat="45.6105" lon="6.19002">
        <ele>1441</ele>
        <time>2010-10-09T09:52:45Z</time>
      </trkpt>
      <trkpt lat="45.61055" lon="6.19012">
        <ele>1441</ele>
        <time>2010-10-09T09:52:47Z</time>
      </trkpt>
      <trkpt lat="45.61057" lon="6.19017">
        <ele>1441</ele>
        <time>2010-10-09T09:52:48Z</time>
      </trkpt>
      <trkpt lat="45.61058" lon="6.19023">
        <ele>1441</ele>
        <time>2010-10-09T09:52:49Z</time>
      </trkpt>
      <trkpt lat="45.61061" lon="6.19034">
        <ele>1441</ele>
        <time>2010-10-09T09:52:51Z</time>
      </trkpt>
      <trkpt lat="45.61062" lon="6.19041">
        <ele>1442</ele>
        <time>2010-10-09T09:52:52Z</time>
      </trkpt>
      <trkpt lat="45.61063" lon="6.19045">
        <ele>1442</ele>
        <time>2010-10-09T09:52:53Z</time>
      </trkpt>
      <trkpt lat="45.61064" lon="6.19051">
        <ele>1442</ele>
        <time>2010-10-09T09:52:54Z</time>
      </trkpt>
      <trkpt lat="45.61067" lon="6.1906">
        <ele>1442</ele>
        <time>2010-10-09T09:52:56Z</time>
      </trkpt>
      <trkpt lat="45.61071" lon="6.19063">
        <ele>1442</ele>
        <time>2010-10-09T09:52:58Z</time>
      </trkpt>
      <trkpt lat="45.61074" lon="6.19064">
        <ele>1442</ele>
        <time>2010-10-09T09:52:59Z</time>
      </trkpt>
      <trkpt lat="45.61078" lon="6.19065">
        <ele>1442</ele>
        <time>2010-10-09T09:53:01Z</time>
      </trkpt>
      <trkpt lat="45.61083" lon="6.19067">
        <ele>1442</ele>
        <time>2010-10-09T09:53:03Z</time>
      </trkpt>
      <trkpt lat="45.61084" lon="6.19069">
        <ele>1439</ele>
        <time>2010-10-09T09:53:04Z</time>
      </trkpt>
      <trkpt lat="45.61086" lon="6.19071">
        <ele>1439</ele>
        <time>2010-10-09T09:53:05Z</time>
      </trkpt>
      <trkpt lat="45.61087" lon="6.19074">
        <ele>1439</ele>
        <time>2010-10-09T09:53:07Z</time>
      </trkpt>
      <trkpt lat="45.6109" lon="6.19078">
        <ele>1440</ele>
        <time>2010-10-09T09:53:08Z</time>
      </trkpt>
      <trkpt lat="45.61091" lon="6.19085">
        <ele>1442</ele>
        <time>2010-10-09T09:53:10Z</time>
      </trkpt>
      <trkpt lat="45.61091" lon="6.19088">
        <ele>1442</ele>
        <time>2010-10-09T09:53:11Z</time>
      </trkpt>
      <trkpt lat="45.61091" lon="6.1909">
        <ele>1442</ele>
        <time>2010-10-09T09:53:12Z</time>
      </trkpt>
      <trkpt lat="45.61093" lon="6.19096">
        <ele>1442</ele>
        <time>2010-10-09T09:53:14Z</time>
      </trkpt>
      <trkpt lat="45.61095" lon="6.191">
        <ele>1442</ele>
        <time>2010-10-09T09:53:15Z</time>
      </trkpt>
      <trkpt lat="45.611" lon="6.19105">
        <ele>1442</ele>
        <time>2010-10-09T09:53:17Z</time>
      </trkpt>
      <trkpt lat="45.61103" lon="6.19106">
        <ele>1442</ele>
        <time>2010-10-09T09:53:18Z</time>
      </trkpt>
      <trkpt lat="45.61106" lon="6.19107">
        <ele>1442</ele>
        <time>2010-10-09T09:53:19Z</time>
      </trkpt>
      <trkpt lat="45.6111" lon="6.19108">
        <ele>1442</ele>
        <time>2010-10-09T09:53:21Z</time>
      </trkpt>
      <trkpt lat="45.61115" lon="6.19111">
        <ele>1442</ele>
        <time>2010-10-09T09:53:23Z</time>
      </trkpt>
      <trkpt lat="45.61119" lon="6.19116">
        <ele>1442</ele>
        <time>2010-10-09T09:53:24Z</time>
      </trkpt>
      <trkpt lat="45.61124" lon="6.19117">
        <ele>1442</ele>
        <time>2010-10-09T09:53:26Z</time>
      </trkpt>
      <trkpt lat="45.61124" lon="6.19121">
        <ele>1442</ele>
        <time>2010-10-09T09:53:27Z</time>
      </trkpt>
      <trkpt lat="45.61126" lon="6.19125">
        <ele>1442</ele>
        <time>2010-10-09T09:53:28Z</time>
      </trkpt>
      <trkpt lat="45.61129" lon="6.19128">
        <ele>1442</ele>
        <time>2010-10-09T09:53:29Z</time>
      </trkpt>
      <trkpt lat="45.61131" lon="6.19131">
        <ele>1442</ele>
        <time>2010-10-09T09:53:31Z</time>
      </trkpt>
      <trkpt lat="45.61139" lon="6.19139">
        <ele>1442</ele>
        <time>2010-10-09T09:53:33Z</time>
      </trkpt>
      <trkpt lat="45.61144" lon="6.19141">
        <ele>1442</ele>
        <time>2010-10-09T09:53:34Z</time>
      </trkpt>
      <trkpt lat="45.61153" lon="6.19147">
        <ele>1441</ele>
        <time>2010-10-09T09:53:36Z</time>
      </trkpt>
      <trkpt lat="45.61157" lon="6.1915">
        <ele>1441</ele>
        <time>2010-10-09T09:53:37Z</time>
      </trkpt>
      <trkpt lat="45.61161" lon="6.19153">
        <ele>1441</ele>
        <time>2010-10-09T09:53:38Z</time>
      </trkpt>
      <trkpt lat="45.61164" lon="6.19157">
        <ele>1441</ele>
        <time>2010-10-09T09:53:39Z</time>
      </trkpt>
      <trkpt lat="45.61168" lon="6.19161">
        <ele>1437</ele>
        <time>2010-10-09T09:53:40Z</time>
      </trkpt>
      <trkpt lat="45.61171" lon="6.19164">
        <ele>1438</ele>
        <time>2010-10-09T09:53:41Z</time>
      </trkpt>
      <trkpt lat="45.61175" lon="6.19168">
        <ele>1439</ele>
        <time>2010-10-09T09:53:42Z</time>
      </trkpt>
      <trkpt lat="45.61178" lon="6.19173">
        <ele>1439</ele>
        <time>2010-10-09T09:53:43Z</time>
      </trkpt>
      <trkpt lat="45.61181" lon="6.19178">
        <ele>1438</ele>
        <time>2010-10-09T09:53:44Z</time>
      </trkpt>
      <trkpt lat="45.61184" lon="6.19182">
        <ele>1438</ele>
        <time>2010-10-09T09:53:45Z</time>
      </trkpt>
      <trkpt lat="45.61188" lon="6.19186">
        <ele>1438</ele>
        <time>2010-10-09T09:53:46Z</time>
      </trkpt>
      <trkpt lat="45.61192" lon="6.19189">
        <ele>1438</ele>
        <time>2010-10-09T09:53:47Z</time>
      </trkpt>
      <trkpt lat="45.61195" lon="6.19191">
        <ele>1438</ele>
        <time>2010-10-09T09:53:48Z</time>
      </trkpt>
      <trkpt lat="45.61201" lon="6.19194">
        <ele>1437</ele>
        <time>2010-10-09T09:53:50Z</time>
      </trkpt>
      <trkpt lat="45.61204" lon="6.19194">
        <ele>1437</ele>
        <time>2010-10-09T09:53:51Z</time>
      </trkpt>
      <trkpt lat="45.6121" lon="6.19196">
        <ele>1437</ele>
        <time>2010-10-09T09:53:53Z</time>
      </trkpt>
      <trkpt lat="45.61213" lon="6.19198">
        <ele>1436</ele>
        <time>2010-10-09T09:53:54Z</time>
      </trkpt>
      <trkpt lat="45.61219" lon="6.192">
        <ele>1436</ele>
        <time>2010-10-09T09:53:56Z</time>
      </trkpt>
      <trkpt lat="45.61223" lon="6.19201">
        <ele>1436</ele>
        <time>2010-10-09T09:53:57Z</time>
      </trkpt>
      <trkpt lat="45.61226" lon="6.19201">
        <ele>1436</ele>
        <time>2010-10-09T09:53:58Z</time>
      </trkpt>
      <trkpt lat="45.61233" lon="6.19203">
        <ele>1435</ele>
        <time>2010-10-09T09:54:00Z</time>
      </trkpt>
      <trkpt lat="45.61237" lon="6.19204">
        <ele>1435</ele>
        <time>2010-10-09T09:54:01Z</time>
      </trkpt>
      <trkpt lat="45.61241" lon="6.19205">
        <ele>1435</ele>
        <time>2010-10-09T09:54:02Z</time>
      </trkpt>
      <trkpt lat="45.61245" lon="6.19207">
        <ele>1435</ele>
        <time>2010-10-09T09:54:03Z</time>
      </trkpt>
      <trkpt lat="45.61248" lon="6.19209">
        <ele>1435</ele>
        <time>2010-10-09T09:54:04Z</time>
      </trkpt>
      <trkpt lat="45.61251" lon="6.1921">
        <ele>1432</ele>
        <time>2010-10-09T09:54:05Z</time>
      </trkpt>
      <trkpt lat="45.61255" lon="6.19212">
        <ele>1432</ele>
        <time>2010-10-09T09:54:06Z</time>
      </trkpt>
      <trkpt lat="45.61259" lon="6.19214">
        <ele>1433</ele>
        <time>2010-10-09T09:54:07Z</time>
      </trkpt>
      <trkpt lat="45.61263" lon="6.19216">
        <ele>1433</ele>
        <time>2010-10-09T09:54:08Z</time>
      </trkpt>
      <trkpt lat="45.61267" lon="6.19218">
        <ele>1433</ele>
        <time>2010-10-09T09:54:09Z</time>
      </trkpt>
      <trkpt lat="45.61272" lon="6.1922">
        <ele>1433</ele>
        <time>2010-10-09T09:54:10Z</time>
      </trkpt>
      <trkpt lat="45.61278" lon="6.19224">
        <ele>1433</ele>
        <time>2010-10-09T09:54:11Z</time>
      </trkpt>
      <trkpt lat="45.61288" lon="6.19231">
        <ele>1434</ele>
        <time>2010-10-09T09:54:13Z</time>
      </trkpt>
      <trkpt lat="45.61293" lon="6.19235">
        <ele>1434</ele>
        <time>2010-10-09T09:54:14Z</time>
      </trkpt>
      <trkpt lat="45.61295" lon="6.19238">
        <ele>1434</ele>
        <time>2010-10-09T09:54:15Z</time>
      </trkpt>
      <trkpt lat="45.61297" lon="6.19242">
        <ele>1434</ele>
        <time>2010-10-09T09:54:16Z</time>
      </trkpt>
      <trkpt lat="45.613" lon="6.19246">
        <ele>1435</ele>
        <time>2010-10-09T09:54:17Z</time>
      </trkpt>
      <trkpt lat="45.61304" lon="6.19252">
        <ele>1440</ele>
        <time>2010-10-09T09:54:18Z</time>
      </trkpt>
      <trkpt lat="45.61305" lon="6.19258">
        <ele>1440</ele>
        <time>2010-10-09T09:54:19Z</time>
      </trkpt>
      <trkpt lat="45.61309" lon="6.1927">
        <ele>1440</ele>
        <time>2010-10-09T09:54:21Z</time>
      </trkpt>
      <trkpt lat="45.61311" lon="6.19275">
        <ele>1440</ele>
        <time>2010-10-09T09:54:23Z</time>
      </trkpt>
      <trkpt lat="45.61317" lon="6.19282">
        <ele>1440</ele>
        <time>2010-10-09T09:54:24Z</time>
      </trkpt>
      <trkpt lat="45.6132" lon="6.19284">
        <ele>1440</ele>
        <time>2010-10-09T09:54:26Z</time>
      </trkpt>
      <trkpt lat="45.61323" lon="6.19284">
        <ele>1440</ele>
        <time>2010-10-09T09:54:27Z</time>
      </trkpt>
      <trkpt lat="45.61325" lon="6.19284">
        <ele>1440</ele>
        <time>2010-10-09T09:54:29Z</time>
      </trkpt>
      <trkpt lat="45.61329" lon="6.19288">
        <ele>1439</ele>
        <time>2010-10-09T09:54:30Z</time>
      </trkpt>
      <trkpt lat="45.61333" lon="6.19297">
        <ele>1439</ele>
        <time>2010-10-09T09:54:32Z</time>
      </trkpt>
      <trkpt lat="45.61333" lon="6.19301">
        <ele>1439</ele>
        <time>2010-10-09T09:54:33Z</time>
      </trkpt>
      <trkpt lat="45.61334" lon="6.1931">
        <ele>1435</ele>
        <time>2010-10-09T09:54:35Z</time>
      </trkpt>
      <trkpt lat="45.61333" lon="6.1932">
        <ele>1435</ele>
        <time>2010-10-09T09:54:37Z</time>
      </trkpt>
      <trkpt lat="45.61333" lon="6.19324">
        <ele>1438</ele>
        <time>2010-10-09T09:54:38Z</time>
      </trkpt>
      <trkpt lat="45.61332" lon="6.1933">
        <ele>1438</ele>
        <time>2010-10-09T09:54:39Z</time>
      </trkpt>
      <trkpt lat="45.61332" lon="6.19334">
        <ele>1437</ele>
        <time>2010-10-09T09:54:40Z</time>
      </trkpt>
      <trkpt lat="45.61332" lon="6.19339">
        <ele>1438</ele>
        <time>2010-10-09T09:54:41Z</time>
      </trkpt>
      <trkpt lat="45.61331" lon="6.19344">
        <ele>1439</ele>
        <time>2010-10-09T09:54:42Z</time>
      </trkpt>
      <trkpt lat="45.61331" lon="6.19348">
        <ele>1439</ele>
        <time>2010-10-09T09:54:43Z</time>
      </trkpt>
      <trkpt lat="45.6133" lon="6.19353">
        <ele>1440</ele>
        <time>2010-10-09T09:54:44Z</time>
      </trkpt>
      <trkpt lat="45.6133" lon="6.19358">
        <ele>1440</ele>
        <time>2010-10-09T09:54:45Z</time>
      </trkpt>
      <trkpt lat="45.61331" lon="6.19363">
        <ele>1440</ele>
        <time>2010-10-09T09:54:46Z</time>
      </trkpt>
      <trkpt lat="45.61332" lon="6.19367">
        <ele>1440</ele>
        <time>2010-10-09T09:54:47Z</time>
      </trkpt>
      <trkpt lat="45.61333" lon="6.19372">
        <ele>1440</ele>
        <time>2010-10-09T09:54:48Z</time>
      </trkpt>
      <trkpt lat="45.61335" lon="6.19378">
        <ele>1437</ele>
        <time>2010-10-09T09:54:49Z</time>
      </trkpt>
      <trkpt lat="45.61336" lon="6.19382">
        <ele>1437</ele>
        <time>2010-10-09T09:54:50Z</time>
      </trkpt>
      <trkpt lat="45.61334" lon="6.19385">
        <ele>1437</ele>
        <time>2010-10-09T09:54:51Z</time>
      </trkpt>
      <trkpt lat="45.61333" lon="6.19388">
        <ele>1437</ele>
        <time>2010-10-09T09:54:52Z</time>
      </trkpt>
      <trkpt lat="45.61333" lon="6.1939">
        <ele>1437</ele>
        <time>2010-10-09T09:54:53Z</time>
      </trkpt>
      <trkpt lat="45.61335" lon="6.19391">
        <ele>1437</ele>
        <time>2010-10-09T09:54:54Z</time>
      </trkpt>
      <trkpt lat="45.61338" lon="6.19393">
        <ele>1437</ele>
        <time>2010-10-09T09:54:57Z</time>
      </trkpt>
      <trkpt lat="45.61342" lon="6.19393">
        <ele>1437</ele>
        <time>2010-10-09T09:54:59Z</time>
      </trkpt>
      <trkpt lat="45.61343" lon="6.19394">
        <ele>1437</ele>
        <time>2010-10-09T09:55:00Z</time>
      </trkpt>
      <trkpt lat="45.61347" lon="6.19395">
        <ele>1437</ele>
        <time>2010-10-09T09:55:02Z</time>
      </trkpt>
      <trkpt lat="45.6135" lon="6.19397">
        <ele>1437</ele>
        <time>2010-10-09T09:55:04Z</time>
      </trkpt>
      <trkpt lat="45.61354" lon="6.19399">
        <ele>1437</ele>
        <time>2010-10-09T09:55:06Z</time>
      </trkpt>
      <trkpt lat="45.61356" lon="6.194">
        <ele>1437</ele>
        <time>2010-10-09T09:55:07Z</time>
      </trkpt>
      <trkpt lat="45.61358" lon="6.19401">
        <ele>1438</ele>
        <time>2010-10-09T09:55:08Z</time>
      </trkpt>
      <trkpt lat="45.61362" lon="6.19402">
        <ele>1438</ele>
        <time>2010-10-09T09:55:10Z</time>
      </trkpt>
      <trkpt lat="45.61364" lon="6.19403">
        <ele>1438</ele>
        <time>2010-10-09T09:55:11Z</time>
      </trkpt>
      <trkpt lat="45.61365" lon="6.19404">
        <ele>1438</ele>
        <time>2010-10-09T09:55:12Z</time>
      </trkpt>
      <trkpt lat="45.61367" lon="6.19404">
        <ele>1438</ele>
        <time>2010-10-09T09:55:13Z</time>
      </trkpt>
      <trkpt lat="45.61369" lon="6.19405">
        <ele>1438</ele>
        <time>2010-10-09T09:55:14Z</time>
      </trkpt>
      <trkpt lat="45.61371" lon="6.19405">
        <ele>1438</ele>
        <time>2010-10-09T09:55:15Z</time>
      </trkpt>
      <trkpt lat="45.61373" lon="6.19405">
        <ele>1438</ele>
        <time>2010-10-09T09:55:16Z</time>
      </trkpt>
      <trkpt lat="45.61375" lon="6.19406">
        <ele>1438</ele>
        <time>2010-10-09T09:55:17Z</time>
      </trkpt>
      <trkpt lat="45.61377" lon="6.19406">
        <ele>1438</ele>
        <time>2010-10-09T09:55:18Z</time>
      </trkpt>
      <trkpt lat="45.61379" lon="6.19406">
        <ele>1439</ele>
        <time>2010-10-09T09:55:19Z</time>
      </trkpt>
      <trkpt lat="45.61381" lon="6.19406">
        <ele>1439</ele>
        <time>2010-10-09T09:55:20Z</time>
      </trkpt>
      <trkpt lat="45.61383" lon="6.19407">
        <ele>1439</ele>
        <time>2010-10-09T09:55:21Z</time>
      </trkpt>
      <trkpt lat="45.61385" lon="6.19407">
        <ele>1439</ele>
        <time>2010-10-09T09:55:22Z</time>
      </trkpt>
      <trkpt lat="45.61388" lon="6.19408">
        <ele>1439</ele>
        <time>2010-10-09T09:55:24Z</time>
      </trkpt>
      <trkpt lat="45.6139" lon="6.19408">
        <ele>1439</ele>
        <time>2010-10-09T09:55:25Z</time>
      </trkpt>
      <trkpt lat="45.61393" lon="6.1941">
        <ele>1440</ele>
        <time>2010-10-09T09:55:26Z</time>
      </trkpt>
      <trkpt lat="45.61395" lon="6.19411">
        <ele>1440</ele>
        <time>2010-10-09T09:55:27Z</time>
      </trkpt>
      <trkpt lat="45.61398" lon="6.19414">
        <ele>1441</ele>
        <time>2010-10-09T09:55:29Z</time>
      </trkpt>
      <trkpt lat="45.614" lon="6.19415">
        <ele>1441</ele>
        <time>2010-10-09T09:55:30Z</time>
      </trkpt>
      <trkpt lat="45.61402" lon="6.19416">
        <ele>1441</ele>
        <time>2010-10-09T09:55:31Z</time>
      </trkpt>
      <trkpt lat="45.61404" lon="6.19417">
        <ele>1448</ele>
        <time>2010-10-09T09:55:32Z</time>
      </trkpt>
      <trkpt lat="45.61406" lon="6.19418">
        <ele>1448</ele>
        <time>2010-10-09T09:55:33Z</time>
      </trkpt>
      <trkpt lat="45.61408" lon="6.1942">
        <ele>1448</ele>
        <time>2010-10-09T09:55:34Z</time>
      </trkpt>
      <trkpt lat="45.6141" lon="6.19421">
        <ele>1448</ele>
        <time>2010-10-09T09:55:35Z</time>
      </trkpt>
      <trkpt lat="45.61411" lon="6.19422">
        <ele>1448</ele>
        <time>2010-10-09T09:55:36Z</time>
      </trkpt>
      <trkpt lat="45.61413" lon="6.19423">
        <ele>1448</ele>
        <time>2010-10-09T09:55:38Z</time>
      </trkpt>
      <trkpt lat="45.61414" lon="6.19424">
        <ele>1448</ele>
        <time>2010-10-09T09:55:39Z</time>
      </trkpt>
      <trkpt lat="45.61416" lon="6.19424">
        <ele>1447</ele>
        <time>2010-10-09T09:55:40Z</time>
      </trkpt>
      <trkpt lat="45.61419" lon="6.19424">
        <ele>1449</ele>
        <time>2010-10-09T09:55:41Z</time>
      </trkpt>
      <trkpt lat="45.61421" lon="6.19424">
        <ele>1450</ele>
        <time>2010-10-09T09:55:42Z</time>
      </trkpt>
      <trkpt lat="45.61422" lon="6.19425">
        <ele>1450</ele>
        <time>2010-10-09T09:55:43Z</time>
      </trkpt>
      <trkpt lat="45.61423" lon="6.19425">
        <ele>1451</ele>
        <time>2010-10-09T09:55:44Z</time>
      </trkpt>
      <trkpt lat="45.61425" lon="6.19427">
        <ele>1452</ele>
        <time>2010-10-09T09:55:47Z</time>
      </trkpt>
      <trkpt lat="45.61427" lon="6.19429">
        <ele>1453</ele>
        <time>2010-10-09T09:55:49Z</time>
      </trkpt>
      <trkpt lat="45.6143" lon="6.19429">
        <ele>1453</ele>
        <time>2010-10-09T09:55:51Z</time>
      </trkpt>
      <trkpt lat="45.61431" lon="6.1943">
        <ele>1454</ele>
        <time>2010-10-09T09:55:52Z</time>
      </trkpt>
      <trkpt lat="45.61433" lon="6.19431">
        <ele>1454</ele>
        <time>2010-10-09T09:55:53Z</time>
      </trkpt>
      <trkpt lat="45.61436" lon="6.19432">
        <ele>1455</ele>
        <time>2010-10-09T09:55:57Z</time>
      </trkpt>
      <trkpt lat="45.61441" lon="6.19434">
        <ele>1456</ele>
        <time>2010-10-09T09:56:00Z</time>
      </trkpt>
      <trkpt lat="45.61446" lon="6.19436">
        <ele>1457</ele>
        <time>2010-10-09T09:56:02Z</time>
      </trkpt>
      <trkpt lat="45.61447" lon="6.19437">
        <ele>1457</ele>
        <time>2010-10-09T09:56:03Z</time>
      </trkpt>
      <trkpt lat="45.61449" lon="6.19438">
        <ele>1457</ele>
        <time>2010-10-09T09:56:05Z</time>
      </trkpt>
      <trkpt lat="45.61451" lon="6.19437">
        <ele>1457</ele>
        <time>2010-10-09T09:56:08Z</time>
      </trkpt>
      <trkpt lat="45.61454" lon="6.19437">
        <ele>1457</ele>
        <time>2010-10-09T09:56:11Z</time>
      </trkpt>
      <trkpt lat="45.61456" lon="6.19436">
        <ele>1457</ele>
        <time>2010-10-09T09:56:14Z</time>
      </trkpt>
      <trkpt lat="45.61458" lon="6.19436">
        <ele>1457</ele>
        <time>2010-10-09T09:56:17Z</time>
      </trkpt>
      <trkpt lat="45.61461" lon="6.19435">
        <ele>1457</ele>
        <time>2010-10-09T09:56:21Z</time>
      </trkpt>
      <trkpt lat="45.61463" lon="6.19436">
        <ele>1458</ele>
        <time>2010-10-09T09:56:22Z</time>
      </trkpt>
      <trkpt lat="45.61466" lon="6.19438">
        <ele>1458</ele>
        <time>2010-10-09T09:56:27Z</time>
      </trkpt>
      <trkpt lat="45.61467" lon="6.19437">
        <ele>1458</ele>
        <time>2010-10-09T09:56:30Z</time>
      </trkpt>
      <trkpt lat="45.61468" lon="6.19435">
        <ele>1457</ele>
        <time>2010-10-09T09:56:33Z</time>
      </trkpt>
      <trkpt lat="45.6147" lon="6.19436">
        <ele>1457</ele>
        <time>2010-10-09T09:56:34Z</time>
      </trkpt>
      <trkpt lat="45.61472" lon="6.19435">
        <ele>1457</ele>
        <time>2010-10-09T09:56:36Z</time>
      </trkpt>
      <trkpt lat="45.61473" lon="6.19435">
        <ele>1457</ele>
        <time>2010-10-09T09:56:37Z</time>
      </trkpt>
      <trkpt lat="45.61475" lon="6.19436">
        <ele>1457</ele>
        <time>2010-10-09T09:56:38Z</time>
      </trkpt>
      <trkpt lat="45.61476" lon="6.19437">
        <ele>1457</ele>
        <time>2010-10-09T09:56:39Z</time>
      </trkpt>
      <trkpt lat="45.61479" lon="6.19437">
        <ele>1457</ele>
        <time>2010-10-09T09:56:40Z</time>
      </trkpt>
      <trkpt lat="45.61484" lon="6.19439">
        <ele>1457</ele>
        <time>2010-10-09T09:56:42Z</time>
      </trkpt>
      <trkpt lat="45.61488" lon="6.19439">
        <ele>1457</ele>
        <time>2010-10-09T09:56:45Z</time>
      </trkpt>
      <trkpt lat="45.61491" lon="6.1944">
        <ele>1457</ele>
        <time>2010-10-09T09:56:48Z</time>
      </trkpt>
      <trkpt lat="45.61492" lon="6.1944">
        <ele>1457</ele>
        <time>2010-10-09T09:56:49Z</time>
      </trkpt>
      <trkpt lat="45.61494" lon="6.1944">
        <ele>1457</ele>
        <time>2010-10-09T09:56:50Z</time>
      </trkpt>
      <trkpt lat="45.61499" lon="6.19441">
        <ele>1457</ele>
        <time>2010-10-09T09:56:52Z</time>
      </trkpt>
      <trkpt lat="45.61502" lon="6.19442">
        <ele>1459</ele>
        <time>2010-10-09T09:56:54Z</time>
      </trkpt>
      <trkpt lat="45.61503" lon="6.19442">
        <ele>1459</ele>
        <time>2010-10-09T09:56:55Z</time>
      </trkpt>
      <trkpt lat="45.61504" lon="6.19443">
        <ele>1459</ele>
        <time>2010-10-09T09:56:56Z</time>
      </trkpt>
      <trkpt lat="45.61508" lon="6.19443">
        <ele>1460</ele>
        <time>2010-10-09T09:56:58Z</time>
      </trkpt>
      <trkpt lat="45.6151" lon="6.19444">
        <ele>1460</ele>
        <time>2010-10-09T09:57:00Z</time>
      </trkpt>
      <trkpt lat="45.61513" lon="6.19444">
        <ele>1460</ele>
        <time>2010-10-09T09:57:02Z</time>
      </trkpt>
      <trkpt lat="45.61515" lon="6.19445">
        <ele>1460</ele>
        <time>2010-10-09T09:57:03Z</time>
      </trkpt>
      <trkpt lat="45.61518" lon="6.19446">
        <ele>1461</ele>
        <time>2010-10-09T09:57:06Z</time>
      </trkpt>
      <trkpt lat="45.6152" lon="6.19447">
        <ele>1461</ele>
        <time>2010-10-09T09:57:07Z</time>
      </trkpt>
      <trkpt lat="45.61525" lon="6.19448">
        <ele>1462</ele>
        <time>2010-10-09T09:57:10Z</time>
      </trkpt>
      <trkpt lat="45.61528" lon="6.19449">
        <ele>1462</ele>
        <time>2010-10-09T09:57:12Z</time>
      </trkpt>
      <trkpt lat="45.61529" lon="6.1945">
        <ele>1462</ele>
        <time>2010-10-09T09:57:14Z</time>
      </trkpt>
      <trkpt lat="45.61531" lon="6.19451">
        <ele>1462</ele>
        <time>2010-10-09T09:57:16Z</time>
      </trkpt>
      <trkpt lat="45.6153" lon="6.1945">
        <ele>1462</ele>
        <time>2010-10-09T09:57:18Z</time>
      </trkpt>
      <trkpt lat="45.61523" lon="6.19443">
        <ele>1461</ele>
        <time>2010-10-09T09:57:19Z</time>
      </trkpt>
      <trkpt lat="45.61522" lon="6.19442">
        <ele>1460</ele>
        <time>2010-10-09T09:57:20Z</time>
      </trkpt>
      <trkpt lat="45.6152" lon="6.1944">
        <ele>1460</ele>
        <time>2010-10-09T09:57:22Z</time>
      </trkpt>
      <trkpt lat="45.61521" lon="6.19441">
        <ele>1460</ele>
        <time>2010-10-09T09:57:26Z</time>
      </trkpt>
      <trkpt lat="45.61523" lon="6.19442">
        <ele>1460</ele>
        <time>2010-10-09T09:57:27Z</time>
      </trkpt>
      <trkpt lat="45.61527" lon="6.19446">
        <ele>1461</ele>
        <time>2010-10-09T09:57:29Z</time>
      </trkpt>
      <trkpt lat="45.6153" lon="6.19448">
        <ele>1462</ele>
        <time>2010-10-09T09:57:30Z</time>
      </trkpt>
      <trkpt lat="45.61534" lon="6.19452">
        <ele>1462</ele>
        <time>2010-10-09T09:57:31Z</time>
      </trkpt>
      <trkpt lat="45.61539" lon="6.19456">
        <ele>1463</ele>
        <time>2010-10-09T09:57:33Z</time>
      </trkpt>
      <trkpt lat="45.61538" lon="6.19455">
        <ele>1463</ele>
        <time>2010-10-09T09:57:34Z</time>
      </trkpt>
      <trkpt lat="45.61535" lon="6.19455">
        <ele>1463</ele>
        <time>2010-10-09T09:57:38Z</time>
      </trkpt>
      <trkpt lat="45.61535" lon="6.19457">
        <ele>1463</ele>
        <time>2010-10-09T09:57:41Z</time>
      </trkpt>
      <trkpt lat="45.61533" lon="6.19456">
        <ele>1463</ele>
        <time>2010-10-09T09:57:45Z</time>
      </trkpt>
      <trkpt lat="45.61531" lon="6.19455">
        <ele>1463</ele>
        <time>2010-10-09T09:57:46Z</time>
      </trkpt>
      <trkpt lat="45.61528" lon="6.19452">
        <ele>1462</ele>
        <time>2010-10-09T09:57:50Z</time>
      </trkpt>
      <trkpt lat="45.61526" lon="6.19451">
        <ele>1462</ele>
        <time>2010-10-09T09:57:51Z</time>
      </trkpt>
      <trkpt lat="45.61523" lon="6.19448">
        <ele>1461</ele>
        <time>2010-10-09T09:57:55Z</time>
      </trkpt>
      <trkpt lat="45.61521" lon="6.19446">
        <ele>1461</ele>
        <time>2010-10-09T09:57:58Z</time>
      </trkpt>
      <trkpt lat="45.61518" lon="6.19444">
        <ele>1460</ele>
        <time>2010-10-09T09:58:01Z</time>
      </trkpt>
      <trkpt lat="45.61516" lon="6.19442">
        <ele>1460</ele>
        <time>2010-10-09T09:58:02Z</time>
      </trkpt>
      <trkpt lat="45.61514" lon="6.1944">
        <ele>1459</ele>
        <time>2010-10-09T09:58:06Z</time>
      </trkpt>
      <trkpt lat="45.61513" lon="6.19439">
        <ele>1459</ele>
        <time>2010-10-09T09:58:09Z</time>
      </trkpt>
      <trkpt lat="45.61512" lon="6.19438">
        <ele>1458</ele>
        <time>2010-10-09T09:58:12Z</time>
      </trkpt>
      <trkpt lat="45.6151" lon="6.19437">
        <ele>1458</ele>
        <time>2010-10-09T09:58:14Z</time>
      </trkpt>
      <trkpt lat="45.61507" lon="6.1943">
        <ele>1456</ele>
        <time>2010-10-09T09:58:18Z</time>
      </trkpt>
      <trkpt lat="45.61506" lon="6.19428">
        <ele>1455</ele>
        <time>2010-10-09T09:58:21Z</time>
      </trkpt>
      <trkpt lat="45.61505" lon="6.19427">
        <ele>1454</ele>
        <time>2010-10-09T09:58:23Z</time>
      </trkpt>
      <trkpt lat="45.61504" lon="6.19425">
        <ele>1454</ele>
        <time>2010-10-09T09:58:26Z</time>
      </trkpt>
      <trkpt lat="45.6151" lon="6.19432">
        <ele>1457</ele>
        <time>2010-10-09T09:58:30Z</time>
      </trkpt>
      <trkpt lat="45.61513" lon="6.19436">
        <ele>1458</ele>
        <time>2010-10-09T09:58:33Z</time>
      </trkpt>
      <trkpt lat="45.61514" lon="6.19437">
        <ele>1458</ele>
        <time>2010-10-09T09:58:35Z</time>
      </trkpt>
      <trkpt lat="45.61515" lon="6.1944">
        <ele>1459</ele>
        <time>2010-10-09T09:58:36Z</time>
      </trkpt>
      <trkpt lat="45.61517" lon="6.19441">
        <ele>1460</ele>
        <time>2010-10-09T09:58:38Z</time>
      </trkpt>
      <trkpt lat="45.61519" lon="6.19445">
        <ele>1461</ele>
        <time>2010-10-09T09:58:42Z</time>
      </trkpt>
      <trkpt lat="45.61519" lon="6.19448">
        <ele>1461</ele>
        <time>2010-10-09T09:58:43Z</time>
      </trkpt>
      <trkpt lat="45.61521" lon="6.19449">
        <ele>1461</ele>
        <time>2010-10-09T09:58:46Z</time>
      </trkpt>
      <trkpt lat="45.61523" lon="6.1945">
        <ele>1462</ele>
        <time>2010-10-09T09:58:48Z</time>
      </trkpt>
      <trkpt lat="45.61525" lon="6.19451">
        <ele>1462</ele>
        <time>2010-10-09T09:58:50Z</time>
      </trkpt>
      <trkpt lat="45.61526" lon="6.19451">
        <ele>1462</ele>
        <time>2010-10-09T09:58:51Z</time>
      </trkpt>
      <trkpt lat="45.61527" lon="6.19452">
        <ele>1462</ele>
        <time>2010-10-09T09:58:52Z</time>
      </trkpt>
      <trkpt lat="45.61529" lon="6.19453">
        <ele>1463</ele>
        <time>2010-10-09T09:58:54Z</time>
      </trkpt>
      <trkpt lat="45.61531" lon="6.19454">
        <ele>1463</ele>
        <time>2010-10-09T09:58:55Z</time>
      </trkpt>
      <trkpt lat="45.61532" lon="6.19455">
        <ele>1463</ele>
        <time>2010-10-09T09:58:57Z</time>
      </trkpt>
      <trkpt lat="45.61533" lon="6.19457">
        <ele>1463</ele>
        <time>2010-10-09T09:58:58Z</time>
      </trkpt>
      <trkpt lat="45.61533" lon="6.19459">
        <ele>1464</ele>
        <time>2010-10-09T09:59:00Z</time>
      </trkpt>
      <trkpt lat="45.61535" lon="6.1946">
        <ele>1464</ele>
        <time>2010-10-09T09:59:02Z</time>
      </trkpt>
      <trkpt lat="45.61536" lon="6.19461">
        <ele>1464</ele>
        <time>2010-10-09T09:59:04Z</time>
      </trkpt>
      <trkpt lat="45.61538" lon="6.19462">
        <ele>1464</ele>
        <time>2010-10-09T09:59:06Z</time>
      </trkpt>
      <trkpt lat="45.61539" lon="6.19462">
        <ele>1464</ele>
        <time>2010-10-09T09:59:07Z</time>
      </trkpt>
      <trkpt lat="45.61542" lon="6.1946">
        <ele>1464</ele>
        <time>2010-10-09T09:59:10Z</time>
      </trkpt>
      <trkpt lat="45.61544" lon="6.1946">
        <ele>1464</ele>
        <time>2010-10-09T09:59:12Z</time>
      </trkpt>
      <trkpt lat="45.61547" lon="6.1946">
        <ele>1464</ele>
        <time>2010-10-09T09:59:14Z</time>
      </trkpt>
      <trkpt lat="45.61549" lon="6.19461">
        <ele>1464</ele>
        <time>2010-10-09T09:59:16Z</time>
      </trkpt>
      <trkpt lat="45.61551" lon="6.19461">
        <ele>1464</ele>
        <time>2010-10-09T09:59:18Z</time>
      </trkpt>
      <trkpt lat="45.61551" lon="6.19458">
        <ele>1464</ele>
        <time>2010-10-09T09:59:20Z</time>
      </trkpt>
      <trkpt lat="45.61552" lon="6.19457">
        <ele>1464</ele>
        <time>2010-10-09T09:59:22Z</time>
      </trkpt>
      <trkpt lat="45.61554" lon="6.19457">
        <ele>1464</ele>
        <time>2010-10-09T09:59:23Z</time>
      </trkpt>
      <trkpt lat="45.61554" lon="6.19459">
        <ele>1464</ele>
        <time>2010-10-09T09:59:24Z</time>
      </trkpt>
      <trkpt lat="45.61556" lon="6.1946">
        <ele>1464</ele>
        <time>2010-10-09T09:59:26Z</time>
      </trkpt>
      <trkpt lat="45.61558" lon="6.19461">
        <ele>1464</ele>
        <time>2010-10-09T09:59:28Z</time>
      </trkpt>
      <trkpt lat="45.61559" lon="6.1946">
        <ele>1464</ele>
        <time>2010-10-09T09:59:29Z</time>
      </trkpt>
      <trkpt lat="45.61563" lon="6.19461">
        <ele>1465</ele>
        <time>2010-10-09T09:59:32Z</time>
      </trkpt>
      <trkpt lat="45.61564" lon="6.1946">
        <ele>1464</ele>
        <time>2010-10-09T09:59:34Z</time>
      </trkpt>
      <trkpt lat="45.61566" lon="6.1946">
        <ele>1464</ele>
        <time>2010-10-09T09:59:39Z</time>
      </trkpt>
      <trkpt lat="45.61569" lon="6.19462">
        <ele>1465</ele>
        <time>2010-10-09T09:59:42Z</time>
      </trkpt>
      <trkpt lat="45.6157" lon="6.19463">
        <ele>1465</ele>
        <time>2010-10-09T09:59:44Z</time>
      </trkpt>
      <trkpt lat="45.61573" lon="6.19461">
        <ele>1465</ele>
        <time>2010-10-09T09:59:48Z</time>
      </trkpt>
      <trkpt lat="45.61575" lon="6.19461">
        <ele>1465</ele>
        <time>2010-10-09T09:59:49Z</time>
      </trkpt>
      <trkpt lat="45.61577" lon="6.19462">
        <ele>1465</ele>
        <time>2010-10-09T09:59:50Z</time>
      </trkpt>
      <trkpt lat="45.61578" lon="6.19462">
        <ele>1465</ele>
        <time>2010-10-09T09:59:52Z</time>
      </trkpt>
      <trkpt lat="45.61577" lon="6.1946">
        <ele>1464</ele>
        <time>2010-10-09T09:59:53Z</time>
      </trkpt>
      <trkpt lat="45.61581" lon="6.19461">
        <ele>1465</ele>
        <time>2010-10-09T09:59:58Z</time>
      </trkpt>
      <trkpt lat="45.61583" lon="6.19462">
        <ele>1465</ele>
        <time>2010-10-09T10:00:01Z</time>
      </trkpt>
      <trkpt lat="45.61586" lon="6.19463">
        <ele>1464</ele>
        <time>2010-10-09T10:00:02Z</time>
      </trkpt>
      <trkpt lat="45.61588" lon="6.19464">
        <ele>1464</ele>
        <time>2010-10-09T10:00:04Z</time>
      </trkpt>
      <trkpt lat="45.61589" lon="6.19464">
        <ele>1464</ele>
        <time>2010-10-09T10:00:05Z</time>
      </trkpt>
      <trkpt lat="45.6159" lon="6.19464">
        <ele>1464</ele>
        <time>2010-10-09T10:00:08Z</time>
      </trkpt>
      <trkpt lat="45.61591" lon="6.19465">
        <ele>1464</ele>
        <time>2010-10-09T10:00:10Z</time>
      </trkpt>
      <trkpt lat="45.61592" lon="6.19463">
        <ele>1464</ele>
        <time>2010-10-09T10:00:12Z</time>
      </trkpt>
      <trkpt lat="45.61592" lon="6.19462">
        <ele>1463</ele>
        <time>2010-10-09T10:00:14Z</time>
      </trkpt>
      <trkpt lat="45.61594" lon="6.19462">
        <ele>1463</ele>
        <time>2010-10-09T10:00:15Z</time>
      </trkpt>
      <trkpt lat="45.61597" lon="6.19463">
        <ele>1463</ele>
        <time>2010-10-09T10:00:18Z</time>
      </trkpt>
      <trkpt lat="45.616" lon="6.19463">
        <ele>1463</ele>
        <time>2010-10-09T10:00:20Z</time>
      </trkpt>
      <trkpt lat="45.61603" lon="6.19467">
        <ele>1464</ele>
        <time>2010-10-09T10:00:21Z</time>
      </trkpt>
      <trkpt lat="45.61606" lon="6.19468">
        <ele>1464</ele>
        <time>2010-10-09T10:00:24Z</time>
      </trkpt>
      <trkpt lat="45.61607" lon="6.19467">
        <ele>1464</ele>
        <time>2010-10-09T10:00:26Z</time>
      </trkpt>
      <trkpt lat="45.61609" lon="6.19468">
        <ele>1464</ele>
        <time>2010-10-09T10:00:27Z</time>
      </trkpt>
      <trkpt lat="45.61611" lon="6.19469">
        <ele>1464</ele>
        <time>2010-10-09T10:00:29Z</time>
      </trkpt>
      <trkpt lat="45.61612" lon="6.19469">
        <ele>1464</ele>
        <time>2010-10-09T10:00:30Z</time>
      </trkpt>
      <trkpt lat="45.61614" lon="6.19469">
        <ele>1464</ele>
        <time>2010-10-09T10:00:32Z</time>
      </trkpt>
      <trkpt lat="45.61616" lon="6.19469">
        <ele>1464</ele>
        <time>2010-10-09T10:00:33Z</time>
      </trkpt>
      <trkpt lat="45.61618" lon="6.19467">
        <ele>1463</ele>
        <time>2010-10-09T10:00:34Z</time>
      </trkpt>
      <trkpt lat="45.6162" lon="6.19466">
        <ele>1463</ele>
        <time>2010-10-09T10:00:37Z</time>
      </trkpt>
      <trkpt lat="45.61623" lon="6.19466">
        <ele>1463</ele>
        <time>2010-10-09T10:00:38Z</time>
      </trkpt>
      <trkpt lat="45.61625" lon="6.19468">
        <ele>1463</ele>
        <time>2010-10-09T10:00:40Z</time>
      </trkpt>
      <trkpt lat="45.61628" lon="6.1947">
        <ele>1463</ele>
        <time>2010-10-09T10:00:42Z</time>
      </trkpt>
      <trkpt lat="45.61629" lon="6.1947">
        <ele>1463</ele>
        <time>2010-10-09T10:00:43Z</time>
      </trkpt>
      <trkpt lat="45.61631" lon="6.1947">
        <ele>1463</ele>
        <time>2010-10-09T10:00:45Z</time>
      </trkpt>
      <trkpt lat="45.61634" lon="6.19472">
        <ele>1463</ele>
        <time>2010-10-09T10:00:46Z</time>
      </trkpt>
      <trkpt lat="45.61636" lon="6.19476">
        <ele>1464</ele>
        <time>2010-10-09T10:00:49Z</time>
      </trkpt>
      <trkpt lat="45.61637" lon="6.19477">
        <ele>1464</ele>
        <time>2010-10-09T10:00:51Z</time>
      </trkpt>
      <trkpt lat="45.61641" lon="6.19478">
        <ele>1464</ele>
        <time>2010-10-09T10:00:52Z</time>
      </trkpt>
      <trkpt lat="45.61645" lon="6.19478">
        <ele>1465</ele>
        <time>2010-10-09T10:00:55Z</time>
      </trkpt>
      <trkpt lat="45.61648" lon="6.19479">
        <ele>1465</ele>
        <time>2010-10-09T10:00:56Z</time>
      </trkpt>
      <trkpt lat="45.61649" lon="6.19479">
        <ele>1465</ele>
        <time>2010-10-09T10:00:58Z</time>
      </trkpt>
      <trkpt lat="45.61652" lon="6.1948">
        <ele>1465</ele>
        <time>2010-10-09T10:00:59Z</time>
      </trkpt>
      <trkpt lat="45.61655" lon="6.19479">
        <ele>1465</ele>
        <time>2010-10-09T10:01:02Z</time>
      </trkpt>
      <trkpt lat="45.61656" lon="6.19481">
        <ele>1466</ele>
        <time>2010-10-09T10:01:06Z</time>
      </trkpt>
      <trkpt lat="45.61662" lon="6.19485">
        <ele>1468</ele>
        <time>2010-10-09T10:01:10Z</time>
      </trkpt>
      <trkpt lat="45.61663" lon="6.19487">
        <ele>1468</ele>
        <time>2010-10-09T10:01:11Z</time>
      </trkpt>
      <trkpt lat="45.61664" lon="6.19488">
        <ele>1469</ele>
        <time>2010-10-09T10:01:12Z</time>
      </trkpt>
      <trkpt lat="45.61666" lon="6.19488">
        <ele>1469</ele>
        <time>2010-10-09T10:01:13Z</time>
      </trkpt>
      <trkpt lat="45.61668" lon="6.1949">
        <ele>1466</ele>
        <time>2010-10-09T10:01:16Z</time>
      </trkpt>
      <trkpt lat="45.61672" lon="6.19493">
        <ele>1466</ele>
        <time>2010-10-09T10:01:17Z</time>
      </trkpt>
      <trkpt lat="45.61674" lon="6.19493">
        <ele>1466</ele>
        <time>2010-10-09T10:01:19Z</time>
      </trkpt>
      <trkpt lat="45.61676" lon="6.19495">
        <ele>1465</ele>
        <time>2010-10-09T10:01:21Z</time>
      </trkpt>
      <trkpt lat="45.61678" lon="6.19496">
        <ele>1464</ele>
        <time>2010-10-09T10:01:24Z</time>
      </trkpt>
      <trkpt lat="45.61679" lon="6.19499">
        <ele>1464</ele>
        <time>2010-10-09T10:01:26Z</time>
      </trkpt>
      <trkpt lat="45.61681" lon="6.195">
        <ele>1475</ele>
        <time>2010-10-09T10:01:28Z</time>
      </trkpt>
      <trkpt lat="45.61685" lon="6.19501">
        <ele>1475</ele>
        <time>2010-10-09T10:01:31Z</time>
      </trkpt>
      <trkpt lat="45.61688" lon="6.19502">
        <ele>1475</ele>
        <time>2010-10-09T10:01:34Z</time>
      </trkpt>
      <trkpt lat="45.61689" lon="6.19503">
        <ele>1475</ele>
        <time>2010-10-09T10:01:35Z</time>
      </trkpt>
      <trkpt lat="45.61691" lon="6.19502">
        <ele>1475</ele>
        <time>2010-10-09T10:01:38Z</time>
      </trkpt>
      <trkpt lat="45.61689" lon="6.19502">
        <ele>1475</ele>
        <time>2010-10-09T10:01:41Z</time>
      </trkpt>
      <trkpt lat="45.61688" lon="6.19502">
        <ele>1475</ele>
        <time>2010-10-09T10:01:42Z</time>
      </trkpt>
      <trkpt lat="45.61686" lon="6.19503">
        <ele>1475</ele>
        <time>2010-10-09T10:01:45Z</time>
      </trkpt>
      <trkpt lat="45.61688" lon="6.19503">
        <ele>1475</ele>
        <time>2010-10-09T10:01:48Z</time>
      </trkpt>
      <trkpt lat="45.61696" lon="6.19505">
        <ele>1474</ele>
        <time>2010-10-09T10:01:50Z</time>
      </trkpt>
      <trkpt lat="45.61695" lon="6.19506">
        <ele>1474</ele>
        <time>2010-10-09T10:01:55Z</time>
      </trkpt>
      <trkpt lat="45.61698" lon="6.19509">
        <ele>1474</ele>
        <time>2010-10-09T10:01:56Z</time>
      </trkpt>
      <trkpt lat="45.61698" lon="6.19511">
        <ele>1475</ele>
        <time>2010-10-09T10:01:58Z</time>
      </trkpt>
      <trkpt lat="45.61698" lon="6.19514">
        <ele>1475</ele>
        <time>2010-10-09T10:01:59Z</time>
      </trkpt>
      <trkpt lat="45.61698" lon="6.19517">
        <ele>1475</ele>
        <time>2010-10-09T10:02:00Z</time>
      </trkpt>
      <trkpt lat="45.617" lon="6.19518">
        <ele>1475</ele>
        <time>2010-10-09T10:02:05Z</time>
      </trkpt>
      <trkpt lat="45.61703" lon="6.19518">
        <ele>1475</ele>
        <time>2010-10-09T10:02:06Z</time>
      </trkpt>
      <trkpt lat="45.61704" lon="6.19518">
        <ele>1475</ele>
        <time>2010-10-09T10:02:08Z</time>
      </trkpt>
      <trkpt lat="45.61705" lon="6.19519">
        <ele>1475</ele>
        <time>2010-10-09T10:02:11Z</time>
      </trkpt>
      <trkpt lat="45.61707" lon="6.19518">
        <ele>1474</ele>
        <time>2010-10-09T10:02:16Z</time>
      </trkpt>
      <trkpt lat="45.61709" lon="6.19518">
        <ele>1474</ele>
        <time>2010-10-09T10:02:20Z</time>
      </trkpt>
      <trkpt lat="45.61707" lon="6.19517">
        <ele>1474</ele>
        <time>2010-10-09T10:02:23Z</time>
      </trkpt>
      <trkpt lat="45.61715" lon="6.19522">
        <ele>1474</ele>
        <time>2010-10-09T10:02:25Z</time>
      </trkpt>
      <trkpt lat="45.61718" lon="6.19523">
        <ele>1473</ele>
        <time>2010-10-09T10:02:26Z</time>
      </trkpt>
      <trkpt lat="45.61719" lon="6.19523">
        <ele>1473</ele>
        <time>2010-10-09T10:02:27Z</time>
      </trkpt>
      <trkpt lat="45.61721" lon="6.19525">
        <ele>1473</ele>
        <time>2010-10-09T10:02:28Z</time>
      </trkpt>
      <trkpt lat="45.61723" lon="6.19529">
        <ele>1474</ele>
        <time>2010-10-09T10:02:32Z</time>
      </trkpt>
      <trkpt lat="45.61725" lon="6.19532">
        <ele>1474</ele>
        <time>2010-10-09T10:02:35Z</time>
      </trkpt>
      <trkpt lat="45.61726" lon="6.19534">
        <ele>1474</ele>
        <time>2010-10-09T10:02:36Z</time>
      </trkpt>
      <trkpt lat="45.61729" lon="6.19535">
        <ele>1474</ele>
        <time>2010-10-09T10:02:38Z</time>
      </trkpt>
      <trkpt lat="45.61731" lon="6.19538">
        <ele>1474</ele>
        <time>2010-10-09T10:02:40Z</time>
      </trkpt>
      <trkpt lat="45.61733" lon="6.19541">
        <ele>1475</ele>
        <time>2010-10-09T10:02:42Z</time>
      </trkpt>
      <trkpt lat="45.61735" lon="6.19543">
        <ele>1475</ele>
        <time>2010-10-09T10:02:44Z</time>
      </trkpt>
      <trkpt lat="45.61737" lon="6.19545">
        <ele>1476</ele>
        <time>2010-10-09T10:02:46Z</time>
      </trkpt>
      <trkpt lat="45.61738" lon="6.19548">
        <ele>1476</ele>
        <time>2010-10-09T10:02:48Z</time>
      </trkpt>
      <trkpt lat="45.6174" lon="6.1955">
        <ele>1477</ele>
        <time>2010-10-09T10:02:50Z</time>
      </trkpt>
      <trkpt lat="45.61741" lon="6.19551">
        <ele>1477</ele>
        <time>2010-10-09T10:02:51Z</time>
      </trkpt>
      <trkpt lat="45.61743" lon="6.19551">
        <ele>1477</ele>
        <time>2010-10-09T10:02:52Z</time>
      </trkpt>
      <trkpt lat="45.61744" lon="6.19553">
        <ele>1477</ele>
        <time>2010-10-09T10:02:54Z</time>
      </trkpt>
      <trkpt lat="45.61747" lon="6.19555">
        <ele>1477</ele>
        <time>2010-10-09T10:02:55Z</time>
      </trkpt>
      <trkpt lat="45.61749" lon="6.19555">
        <ele>1477</ele>
        <time>2010-10-09T10:03:03Z</time>
      </trkpt>
      <trkpt lat="45.61756" lon="6.19556">
        <ele>1466</ele>
        <time>2010-10-09T10:03:04Z</time>
      </trkpt>
      <trkpt lat="45.61757" lon="6.19556">
        <ele>1466</ele>
        <time>2010-10-09T10:03:06Z</time>
      </trkpt>
      <trkpt lat="45.6176" lon="6.19562">
        <ele>1468</ele>
        <time>2010-10-09T10:03:12Z</time>
      </trkpt>
      <trkpt lat="45.6176" lon="6.19564">
        <ele>1469</ele>
        <time>2010-10-09T10:03:14Z</time>
      </trkpt>
      <trkpt lat="45.61761" lon="6.19566">
        <ele>1469</ele>
        <time>2010-10-09T10:03:17Z</time>
      </trkpt>
      <trkpt lat="45.6176" lon="6.19567">
        <ele>1470</ele>
        <time>2010-10-09T10:03:20Z</time>
      </trkpt>
      <trkpt lat="45.61754" lon="6.19565">
        <ele>1470</ele>
        <time>2010-10-09T10:03:22Z</time>
      </trkpt>
      <trkpt lat="45.61753" lon="6.19565">
        <ele>1470</ele>
        <time>2010-10-09T10:03:25Z</time>
      </trkpt>
      <trkpt lat="45.61751" lon="6.19566">
        <ele>1471</ele>
        <time>2010-10-09T10:03:28Z</time>
      </trkpt>
      <trkpt lat="45.6175" lon="6.19569">
        <ele>1480</ele>
        <time>2010-10-09T10:03:29Z</time>
      </trkpt>
      <trkpt lat="45.61749" lon="6.19572">
        <ele>1481</ele>
        <time>2010-10-09T10:03:31Z</time>
      </trkpt>
      <trkpt lat="45.61749" lon="6.19574">
        <ele>1481</ele>
        <time>2010-10-09T10:03:35Z</time>
      </trkpt>
      <trkpt lat="45.6175" lon="6.19576">
        <ele>1481</ele>
        <time>2010-10-09T10:03:36Z</time>
      </trkpt>
      <trkpt lat="45.61751" lon="6.19575">
        <ele>1476</ele>
        <time>2010-10-09T10:03:38Z</time>
      </trkpt>
      <trkpt lat="45.61751" lon="6.19573">
        <ele>1475</ele>
        <time>2010-10-09T10:03:42Z</time>
      </trkpt>
      <trkpt lat="45.6175" lon="6.19571">
        <ele>1474</ele>
        <time>2010-10-09T10:03:44Z</time>
      </trkpt>
      <trkpt lat="45.61751" lon="6.19569">
        <ele>1472</ele>
        <time>2010-10-09T10:03:47Z</time>
      </trkpt>
      <trkpt lat="45.61751" lon="6.19568">
        <ele>1472</ele>
        <time>2010-10-09T10:03:49Z</time>
      </trkpt>
      <trkpt lat="45.6176" lon="6.19566">
        <ele>1470</ele>
        <time>2010-10-09T10:03:55Z</time>
      </trkpt>
      <trkpt lat="45.61763" lon="6.19568">
        <ele>1469</ele>
        <time>2010-10-09T10:03:56Z</time>
      </trkpt>
      <trkpt lat="45.61766" lon="6.19569">
        <ele>1469</ele>
        <time>2010-10-09T10:03:57Z</time>
      </trkpt>
      <trkpt lat="45.61773" lon="6.19574">
        <ele>1468</ele>
        <time>2010-10-09T10:03:59Z</time>
      </trkpt>
      <trkpt lat="45.61777" lon="6.19576">
        <ele>1467</ele>
        <time>2010-10-09T10:04:00Z</time>
      </trkpt>
      <trkpt lat="45.61786" lon="6.1958">
        <ele>1465</ele>
        <time>2010-10-09T10:04:02Z</time>
      </trkpt>
      <trkpt lat="45.61792" lon="6.19582">
        <ele>1464</ele>
        <time>2010-10-09T10:04:03Z</time>
      </trkpt>
      <trkpt lat="45.61797" lon="6.19584">
        <ele>1480</ele>
        <time>2010-10-09T10:04:04Z</time>
      </trkpt>
      <trkpt lat="45.61803" lon="6.19586">
        <ele>1478</ele>
        <time>2010-10-09T10:04:05Z</time>
      </trkpt>
      <trkpt lat="45.6181" lon="6.19589">
        <ele>1477</ele>
        <time>2010-10-09T10:04:06Z</time>
      </trkpt>
      <trkpt lat="45.61816" lon="6.19592">
        <ele>1475</ele>
        <time>2010-10-09T10:04:07Z</time>
      </trkpt>
      <trkpt lat="45.6183" lon="6.19602">
        <ele>1475</ele>
        <time>2010-10-09T10:04:09Z</time>
      </trkpt>
      <trkpt lat="45.61837" lon="6.19607">
        <ele>1468</ele>
        <time>2010-10-09T10:04:10Z</time>
      </trkpt>
      <trkpt lat="45.61844" lon="6.19613">
        <ele>1469</ele>
        <time>2010-10-09T10:04:11Z</time>
      </trkpt>
      <trkpt lat="45.61851" lon="6.1962">
        <ele>1470</ele>
        <time>2010-10-09T10:04:12Z</time>
      </trkpt>
      <trkpt lat="45.61866" lon="6.19631">
        <ele>1470</ele>
        <time>2010-10-09T10:04:14Z</time>
      </trkpt>
      <trkpt lat="45.61884" lon="6.19637">
        <ele>1469</ele>
        <time>2010-10-09T10:04:16Z</time>
      </trkpt>
      <trkpt lat="45.61893" lon="6.19638">
        <ele>1468</ele>
        <time>2010-10-09T10:04:17Z</time>
      </trkpt>
      <trkpt lat="45.61902" lon="6.19638">
        <ele>1468</ele>
        <time>2010-10-09T10:04:18Z</time>
      </trkpt>
      <trkpt lat="45.61911" lon="6.19636">
        <ele>1467</ele>
        <time>2010-10-09T10:04:19Z</time>
      </trkpt>
      <trkpt lat="45.6192" lon="6.19635">
        <ele>1458</ele>
        <time>2010-10-09T10:04:20Z</time>
      </trkpt>
      <trkpt lat="45.61929" lon="6.19634">
        <ele>1457</ele>
        <time>2010-10-09T10:04:21Z</time>
      </trkpt>
      <trkpt lat="45.61938" lon="6.19634">
        <ele>1456</ele>
        <time>2010-10-09T10:04:22Z</time>
      </trkpt>
      <trkpt lat="45.61947" lon="6.19634">
        <ele>1455</ele>
        <time>2010-10-09T10:04:23Z</time>
      </trkpt>
      <trkpt lat="45.61955" lon="6.19634">
        <ele>1455</ele>
        <time>2010-10-09T10:04:24Z</time>
      </trkpt>
      <trkpt lat="45.61963" lon="6.19635">
        <ele>1455</ele>
        <time>2010-10-09T10:04:25Z</time>
      </trkpt>
      <trkpt lat="45.61969" lon="6.19636">
        <ele>1454</ele>
        <time>2010-10-09T10:04:26Z</time>
      </trkpt>
      <trkpt lat="45.61975" lon="6.19637">
        <ele>1454</ele>
        <time>2010-10-09T10:04:27Z</time>
      </trkpt>
      <trkpt lat="45.61981" lon="6.19638">
        <ele>1455</ele>
        <time>2010-10-09T10:04:28Z</time>
      </trkpt>
      <trkpt lat="45.61992" lon="6.19641">
        <ele>1455</ele>
        <time>2010-10-09T10:04:30Z</time>
      </trkpt>
      <trkpt lat="45.61996" lon="6.19642">
        <ele>1455</ele>
        <time>2010-10-09T10:04:31Z</time>
      </trkpt>
      <trkpt lat="45.61999" lon="6.19642">
        <ele>1455</ele>
        <time>2010-10-09T10:04:32Z</time>
      </trkpt>
      <trkpt lat="45.62002" lon="6.19643">
        <ele>1449</ele>
        <time>2010-10-09T10:04:33Z</time>
      </trkpt>
      <trkpt lat="45.62005" lon="6.19643">
        <ele>1449</ele>
        <time>2010-10-09T10:04:34Z</time>
      </trkpt>
      <trkpt lat="45.62007" lon="6.19644">
        <ele>1449</ele>
        <time>2010-10-09T10:04:35Z</time>
      </trkpt>
      <trkpt lat="45.6201" lon="6.19645">
        <ele>1449</ele>
        <time>2010-10-09T10:04:36Z</time>
      </trkpt>
      <trkpt lat="45.62013" lon="6.19646">
        <ele>1449</ele>
        <time>2010-10-09T10:04:37Z</time>
      </trkpt>
      <trkpt lat="45.62015" lon="6.19647">
        <ele>1448</ele>
        <time>2010-10-09T10:04:38Z</time>
      </trkpt>
      <trkpt lat="45.62018" lon="6.19649">
        <ele>1449</ele>
        <time>2010-10-09T10:04:39Z</time>
      </trkpt>
      <trkpt lat="45.62021" lon="6.19653">
        <ele>1449</ele>
        <time>2010-10-09T10:04:40Z</time>
      </trkpt>
      <trkpt lat="45.62029" lon="6.19658">
        <ele>1448</ele>
        <time>2010-10-09T10:04:42Z</time>
      </trkpt>
      <trkpt lat="45.62033" lon="6.1966">
        <ele>1447</ele>
        <time>2010-10-09T10:04:43Z</time>
      </trkpt>
      <trkpt lat="45.62039" lon="6.19662">
        <ele>1446</ele>
        <time>2010-10-09T10:04:44Z</time>
      </trkpt>
      <trkpt lat="45.62044" lon="6.19664">
        <ele>1445</ele>
        <time>2010-10-09T10:04:45Z</time>
      </trkpt>
      <trkpt lat="45.6205" lon="6.19665">
        <ele>1445</ele>
        <time>2010-10-09T10:04:46Z</time>
      </trkpt>
      <trkpt lat="45.62055" lon="6.19666">
        <ele>1444</ele>
        <time>2010-10-09T10:04:47Z</time>
      </trkpt>
      <trkpt lat="45.62061" lon="6.19668">
        <ele>1456</ele>
        <time>2010-10-09T10:04:48Z</time>
      </trkpt>
      <trkpt lat="45.62067" lon="6.1967">
        <ele>1454</ele>
        <time>2010-10-09T10:04:49Z</time>
      </trkpt>
      <trkpt lat="45.62074" lon="6.19673">
        <ele>1452</ele>
        <time>2010-10-09T10:04:50Z</time>
      </trkpt>
      <trkpt lat="45.62081" lon="6.19675">
        <ele>1451</ele>
        <time>2010-10-09T10:04:51Z</time>
      </trkpt>
      <trkpt lat="45.62088" lon="6.19679">
        <ele>1446</ele>
        <time>2010-10-09T10:04:52Z</time>
      </trkpt>
      <trkpt lat="45.62096" lon="6.19682">
        <ele>1447</ele>
        <time>2010-10-09T10:04:53Z</time>
      </trkpt>
      <trkpt lat="45.62103" lon="6.19685">
        <ele>1447</ele>
        <time>2010-10-09T10:04:54Z</time>
      </trkpt>
      <trkpt lat="45.62112" lon="6.19689">
        <ele>1447</ele>
        <time>2010-10-09T10:04:55Z</time>
      </trkpt>
      <trkpt lat="45.6212" lon="6.19692">
        <ele>1446</ele>
        <time>2010-10-09T10:04:56Z</time>
      </trkpt>
      <trkpt lat="45.62129" lon="6.19694">
        <ele>1446</ele>
        <time>2010-10-09T10:04:57Z</time>
      </trkpt>
      <trkpt lat="45.62138" lon="6.19697">
        <ele>1445</ele>
        <time>2010-10-09T10:04:58Z</time>
      </trkpt>
      <trkpt lat="45.62148" lon="6.197">
        <ele>1445</ele>
        <time>2010-10-09T10:04:59Z</time>
      </trkpt>
      <trkpt lat="45.62157" lon="6.19702">
        <ele>1444</ele>
        <time>2010-10-09T10:05:00Z</time>
      </trkpt>
      <trkpt lat="45.62167" lon="6.19705">
        <ele>1444</ele>
        <time>2010-10-09T10:05:01Z</time>
      </trkpt>
      <trkpt lat="45.62175" lon="6.19709">
        <ele>1435</ele>
        <time>2010-10-09T10:05:02Z</time>
      </trkpt>
      <trkpt lat="45.62184" lon="6.19712">
        <ele>1435</ele>
        <time>2010-10-09T10:05:03Z</time>
      </trkpt>
      <trkpt lat="45.62191" lon="6.19715">
        <ele>1435</ele>
        <time>2010-10-09T10:05:04Z</time>
      </trkpt>
      <trkpt lat="45.62199" lon="6.19719">
        <ele>1434</ele>
        <time>2010-10-09T10:05:05Z</time>
      </trkpt>
      <trkpt lat="45.62206" lon="6.19723">
        <ele>1434</ele>
        <time>2010-10-09T10:05:06Z</time>
      </trkpt>
      <trkpt lat="45.62212" lon="6.19727">
        <ele>1433</ele>
        <time>2010-10-09T10:05:07Z</time>
      </trkpt>
      <trkpt lat="45.62217" lon="6.19731">
        <ele>1433</ele>
        <time>2010-10-09T10:05:08Z</time>
      </trkpt>
      <trkpt lat="45.6222" lon="6.19738">
        <ele>1433</ele>
        <time>2010-10-09T10:05:09Z</time>
      </trkpt>
      <trkpt lat="45.62225" lon="6.19756">
        <ele>1435</ele>
        <time>2010-10-09T10:05:11Z</time>
      </trkpt>
      <trkpt lat="45.62225" lon="6.19764">
        <ele>1435</ele>
        <time>2010-10-09T10:05:12Z</time>
      </trkpt>
      <trkpt lat="45.62227" lon="6.19783">
        <ele>1435</ele>
        <time>2010-10-09T10:05:14Z</time>
      </trkpt>
      <trkpt lat="45.6223" lon="6.19801">
        <ele>1434</ele>
        <time>2010-10-09T10:05:16Z</time>
      </trkpt>
      <trkpt lat="45.62233" lon="6.19808">
        <ele>1433</ele>
        <time>2010-10-09T10:05:17Z</time>
      </trkpt>
      <trkpt lat="45.62236" lon="6.19814">
        <ele>1432</ele>
        <time>2010-10-09T10:05:18Z</time>
      </trkpt>
      <trkpt lat="45.62239" lon="6.19822">
        <ele>1431</ele>
        <time>2010-10-09T10:05:19Z</time>
      </trkpt>
      <trkpt lat="45.62241" lon="6.19829">
        <ele>1428</ele>
        <time>2010-10-09T10:05:20Z</time>
      </trkpt>
      <trkpt lat="45.62243" lon="6.19836">
        <ele>1426</ele>
        <time>2010-10-09T10:05:21Z</time>
      </trkpt>
      <trkpt lat="45.62243" lon="6.19843">
        <ele>1427</ele>
        <time>2010-10-09T10:05:22Z</time>
      </trkpt>
      <trkpt lat="45.62241" lon="6.19849">
        <ele>1428</ele>
        <time>2010-10-09T10:05:24Z</time>
      </trkpt>
      <trkpt lat="45.62233" lon="6.19861">
        <ele>1429</ele>
        <time>2010-10-09T10:05:25Z</time>
      </trkpt>
      <trkpt lat="45.62223" lon="6.19867">
        <ele>1430</ele>
        <time>2010-10-09T10:05:27Z</time>
      </trkpt>
      <trkpt lat="45.62217" lon="6.1987">
        <ele>1431</ele>
        <time>2010-10-09T10:05:28Z</time>
      </trkpt>
      <trkpt lat="45.62207" lon="6.19876">
        <ele>1432</ele>
        <time>2010-10-09T10:05:30Z</time>
      </trkpt>
      <trkpt lat="45.62202" lon="6.19881">
        <ele>1432</ele>
        <time>2010-10-09T10:05:31Z</time>
      </trkpt>
      <trkpt lat="45.62197" lon="6.19885">
        <ele>1433</ele>
        <time>2010-10-09T10:05:32Z</time>
      </trkpt>
      <trkpt lat="45.62188" lon="6.19889">
        <ele>1433</ele>
        <time>2010-10-09T10:05:34Z</time>
      </trkpt>
      <trkpt lat="45.62184" lon="6.19893">
        <ele>1434</ele>
        <time>2010-10-09T10:05:35Z</time>
      </trkpt>
      <trkpt lat="45.62179" lon="6.19897">
        <ele>1434</ele>
        <time>2010-10-09T10:05:36Z</time>
      </trkpt>
      <trkpt lat="45.62174" lon="6.19899">
        <ele>1434</ele>
        <time>2010-10-09T10:05:37Z</time>
      </trkpt>
      <trkpt lat="45.62162" lon="6.19906">
        <ele>1443</ele>
        <time>2010-10-09T10:05:39Z</time>
      </trkpt>
      <trkpt lat="45.62157" lon="6.19909">
        <ele>1443</ele>
        <time>2010-10-09T10:05:40Z</time>
      </trkpt>
      <trkpt lat="45.62151" lon="6.19912">
        <ele>1445</ele>
        <time>2010-10-09T10:05:41Z</time>
      </trkpt>
      <trkpt lat="45.62146" lon="6.19916">
        <ele>1446</ele>
        <time>2010-10-09T10:05:42Z</time>
      </trkpt>
      <trkpt lat="45.62141" lon="6.19919">
        <ele>1433</ele>
        <time>2010-10-09T10:05:43Z</time>
      </trkpt>
      <trkpt lat="45.62135" lon="6.19923">
        <ele>1433</ele>
        <time>2010-10-09T10:05:44Z</time>
      </trkpt>
      <trkpt lat="45.6213" lon="6.19927">
        <ele>1433</ele>
        <time>2010-10-09T10:05:45Z</time>
      </trkpt>
      <trkpt lat="45.62125" lon="6.1993">
        <ele>1433</ele>
        <time>2010-10-09T10:05:46Z</time>
      </trkpt>
      <trkpt lat="45.6212" lon="6.19933">
        <ele>1433</ele>
        <time>2010-10-09T10:05:47Z</time>
      </trkpt>
      <trkpt lat="45.62115" lon="6.19936">
        <ele>1434</ele>
        <time>2010-10-09T10:05:48Z</time>
      </trkpt>
      <trkpt lat="45.62106" lon="6.19941">
        <ele>1435</ele>
        <time>2010-10-09T10:05:50Z</time>
      </trkpt>
      <trkpt lat="45.62101" lon="6.19943">
        <ele>1435</ele>
        <time>2010-10-09T10:05:51Z</time>
      </trkpt>
      <trkpt lat="45.62097" lon="6.19945">
        <ele>1435</ele>
        <time>2010-10-09T10:05:52Z</time>
      </trkpt>
      <trkpt lat="45.62093" lon="6.19948">
        <ele>1434</ele>
        <time>2010-10-09T10:05:53Z</time>
      </trkpt>
      <trkpt lat="45.62087" lon="6.19953">
        <ele>1434</ele>
        <time>2010-10-09T10:05:55Z</time>
      </trkpt>
      <trkpt lat="45.62084" lon="6.19956">
        <ele>1433</ele>
        <time>2010-10-09T10:05:56Z</time>
      </trkpt>
      <trkpt lat="45.62079" lon="6.19963">
        <ele>1444</ele>
        <time>2010-10-09T10:05:58Z</time>
      </trkpt>
      <trkpt lat="45.62077" lon="6.19967">
        <ele>1443</ele>
        <time>2010-10-09T10:05:59Z</time>
      </trkpt>
      <trkpt lat="45.62074" lon="6.19971">
        <ele>1442</ele>
        <time>2010-10-09T10:06:00Z</time>
      </trkpt>
      <trkpt lat="45.62072" lon="6.19975">
        <ele>1441</ele>
        <time>2010-10-09T10:06:01Z</time>
      </trkpt>
      <trkpt lat="45.62069" lon="6.1998">
        <ele>1440</ele>
        <time>2010-10-09T10:06:03Z</time>
      </trkpt>
      <trkpt lat="45.62066" lon="6.19988">
        <ele>1438</ele>
        <time>2010-10-09T10:06:05Z</time>
      </trkpt>
      <trkpt lat="45.62065" lon="6.19992">
        <ele>1438</ele>
        <time>2010-10-09T10:06:06Z</time>
      </trkpt>
      <trkpt lat="45.62064" lon="6.19996">
        <ele>1438</ele>
        <time>2010-10-09T10:06:07Z</time>
      </trkpt>
      <trkpt lat="45.62064" lon="6.20001">
        <ele>1430</ele>
        <time>2010-10-09T10:06:08Z</time>
      </trkpt>
      <trkpt lat="45.62064" lon="6.20006">
        <ele>1430</ele>
        <time>2010-10-09T10:06:09Z</time>
      </trkpt>
      <trkpt lat="45.62064" lon="6.2001">
        <ele>1430</ele>
        <time>2010-10-09T10:06:10Z</time>
      </trkpt>
      <trkpt lat="45.62064" lon="6.20014">
        <ele>1430</ele>
        <time>2010-10-09T10:06:12Z</time>
      </trkpt>
      <trkpt lat="45.62066" lon="6.2002">
        <ele>1430</ele>
        <time>2010-10-09T10:06:13Z</time>
      </trkpt>
      <trkpt lat="45.62068" lon="6.20023">
        <ele>1430</ele>
        <time>2010-10-09T10:06:15Z</time>
      </trkpt>
      <trkpt lat="45.6207" lon="6.20028">
        <ele>1430</ele>
        <time>2010-10-09T10:06:16Z</time>
      </trkpt>
      <trkpt lat="45.62072" lon="6.20035">
        <ele>1430</ele>
        <time>2010-10-09T10:06:18Z</time>
      </trkpt>
      <trkpt lat="45.62073" lon="6.20037">
        <ele>1430</ele>
        <time>2010-10-09T10:06:19Z</time>
      </trkpt>
      <trkpt lat="45.62074" lon="6.2004">
        <ele>1430</ele>
        <time>2010-10-09T10:06:20Z</time>
      </trkpt>
      <trkpt lat="45.62074" lon="6.20042">
        <ele>1430</ele>
        <time>2010-10-09T10:06:21Z</time>
      </trkpt>
      <trkpt lat="45.62075" lon="6.20044">
        <ele>1430</ele>
        <time>2010-10-09T10:06:22Z</time>
      </trkpt>
      <trkpt lat="45.62076" lon="6.20045">
        <ele>1430</ele>
        <time>2010-10-09T10:06:25Z</time>
      </trkpt>
      <trkpt lat="45.62067" lon="6.20044">
        <ele>1431</ele>
        <time>2010-10-09T10:06:30Z</time>
      </trkpt>
      <trkpt lat="45.62067" lon="6.20042">
        <ele>1431</ele>
        <time>2010-10-09T10:06:31Z</time>
      </trkpt>
      <trkpt lat="45.6207" lon="6.20042">
        <ele>1430</ele>
        <time>2010-10-09T10:06:33Z</time>
      </trkpt>
      <trkpt lat="45.62072" lon="6.20043">
        <ele>1430</ele>
        <time>2010-10-09T10:06:37Z</time>
      </trkpt>
      <trkpt lat="45.62073" lon="6.20041">
        <ele>1430</ele>
        <time>2010-10-09T10:06:42Z</time>
      </trkpt>
      <trkpt lat="45.62075" lon="6.20041">
        <ele>1430</ele>
        <time>2010-10-09T10:06:43Z</time>
      </trkpt>
      <trkpt lat="45.62076" lon="6.2004">
        <ele>1430</ele>
        <time>2010-10-09T10:06:47Z</time>
      </trkpt>
      <trkpt lat="45.62077" lon="6.2004">
        <ele>1430</ele>
        <time>2010-10-09T10:06:49Z</time>
      </trkpt>
      <trkpt lat="45.62079" lon="6.2004">
        <ele>1430</ele>
        <time>2010-10-09T10:06:50Z</time>
      </trkpt>
      <trkpt lat="45.62083" lon="6.20045">
        <ele>1418</ele>
        <time>2010-10-09T10:06:52Z</time>
      </trkpt>
      <trkpt lat="45.62086" lon="6.20048">
        <ele>1418</ele>
        <time>2010-10-09T10:06:54Z</time>
      </trkpt>
      <trkpt lat="45.62088" lon="6.20051">
        <ele>1418</ele>
        <time>2010-10-09T10:06:55Z</time>
      </trkpt>
      <trkpt lat="45.62091" lon="6.2006">
        <ele>1419</ele>
        <time>2010-10-09T10:06:57Z</time>
      </trkpt>
      <trkpt lat="45.62092" lon="6.20071">
        <ele>1421</ele>
        <time>2010-10-09T10:06:58Z</time>
      </trkpt>
      <trkpt lat="45.62092" lon="6.20077">
        <ele>1423</ele>
        <time>2010-10-09T10:07:00Z</time>
      </trkpt>
      <trkpt lat="45.62091" lon="6.20089">
        <ele>1423</ele>
        <time>2010-10-09T10:07:02Z</time>
      </trkpt>
      <trkpt lat="45.62089" lon="6.20097">
        <ele>1421</ele>
        <time>2010-10-09T10:07:04Z</time>
      </trkpt>
      <trkpt lat="45.62088" lon="6.20101">
        <ele>1420</ele>
        <time>2010-10-09T10:07:10Z</time>
      </trkpt>
      <trkpt lat="45.62084" lon="6.20113">
        <ele>1418</ele>
        <time>2010-10-09T10:07:12Z</time>
      </trkpt>
      <trkpt lat="45.62083" lon="6.20116">
        <ele>1429</ele>
        <time>2010-10-09T10:07:13Z</time>
      </trkpt>
      <trkpt lat="45.6208" lon="6.20126">
        <ele>1428</ele>
        <time>2010-10-09T10:07:15Z</time>
      </trkpt>
      <trkpt lat="45.6208" lon="6.20132">
        <ele>1428</ele>
        <time>2010-10-09T10:07:16Z</time>
      </trkpt>
      <trkpt lat="45.62079" lon="6.20139">
        <ele>1428</ele>
        <time>2010-10-09T10:07:17Z</time>
      </trkpt>
      <trkpt lat="45.6208" lon="6.20145">
        <ele>1427</ele>
        <time>2010-10-09T10:07:19Z</time>
      </trkpt>
      <trkpt lat="45.62081" lon="6.20159">
        <ele>1425</ele>
        <time>2010-10-09T10:07:20Z</time>
      </trkpt>
      <trkpt lat="45.62086" lon="6.20174">
        <ele>1419</ele>
        <time>2010-10-09T10:07:22Z</time>
      </trkpt>
      <trkpt lat="45.62092" lon="6.2019">
        <ele>1413</ele>
        <time>2010-10-09T10:07:24Z</time>
      </trkpt>
      <trkpt lat="45.62098" lon="6.20206">
        <ele>1411</ele>
        <time>2010-10-09T10:07:26Z</time>
      </trkpt>
      <trkpt lat="45.62101" lon="6.20213">
        <ele>1410</ele>
        <time>2010-10-09T10:07:27Z</time>
      </trkpt>
      <trkpt lat="45.62104" lon="6.20229">
        <ele>1410</ele>
        <time>2010-10-09T10:07:29Z</time>
      </trkpt>
      <trkpt lat="45.62105" lon="6.20246">
        <ele>1410</ele>
        <time>2010-10-09T10:07:31Z</time>
      </trkpt>
      <trkpt lat="45.62105" lon="6.20256">
        <ele>1408</ele>
        <time>2010-10-09T10:07:32Z</time>
      </trkpt>
      <trkpt lat="45.62105" lon="6.20266">
        <ele>1408</ele>
        <time>2010-10-09T10:07:33Z</time>
      </trkpt>
      <trkpt lat="45.62104" lon="6.20288">
        <ele>1407</ele>
        <time>2010-10-09T10:07:35Z</time>
      </trkpt>
      <trkpt lat="45.62105" lon="6.20299">
        <ele>1407</ele>
        <time>2010-10-09T10:07:36Z</time>
      </trkpt>
      <trkpt lat="45.62104" lon="6.20309">
        <ele>1407</ele>
        <time>2010-10-09T10:07:37Z</time>
      </trkpt>
      <trkpt lat="45.62104" lon="6.20319">
        <ele>1408</ele>
        <time>2010-10-09T10:07:38Z</time>
      </trkpt>
      <trkpt lat="45.62106" lon="6.20335">
        <ele>1412</ele>
        <time>2010-10-09T10:07:40Z</time>
      </trkpt>
      <trkpt lat="45.62106" lon="6.20343">
        <ele>1412</ele>
        <time>2010-10-09T10:07:41Z</time>
      </trkpt>
      <trkpt lat="45.62107" lon="6.20351">
        <ele>1411</ele>
        <time>2010-10-09T10:07:42Z</time>
      </trkpt>
      <trkpt lat="45.62109" lon="6.20359">
        <ele>1411</ele>
        <time>2010-10-09T10:07:44Z</time>
      </trkpt>
      <trkpt lat="45.62111" lon="6.20359">
        <ele>1411</ele>
        <time>2010-10-09T10:07:45Z</time>
      </trkpt>
      <trkpt lat="45.62114" lon="6.20362">
        <ele>1410</ele>
        <time>2010-10-09T10:07:47Z</time>
      </trkpt>
      <trkpt lat="45.62117" lon="6.20372">
        <ele>1410</ele>
        <time>2010-10-09T10:07:48Z</time>
      </trkpt>
      <trkpt lat="45.6212" lon="6.20373">
        <ele>1410</ele>
        <time>2010-10-09T10:07:50Z</time>
      </trkpt>
      <trkpt lat="45.62121" lon="6.20374">
        <ele>1410</ele>
        <time>2010-10-09T10:07:51Z</time>
      </trkpt>
      <trkpt lat="45.62121" lon="6.20377">
        <ele>1410</ele>
        <time>2010-10-09T10:07:52Z</time>
      </trkpt>
      <trkpt lat="45.62123" lon="6.20382">
        <ele>1410</ele>
        <time>2010-10-09T10:07:54Z</time>
      </trkpt>
      <trkpt lat="45.62126" lon="6.20386">
        <ele>1410</ele>
        <time>2010-10-09T10:07:55Z</time>
      </trkpt>
      <trkpt lat="45.62128" lon="6.20389">
        <ele>1410</ele>
        <time>2010-10-09T10:07:57Z</time>
      </trkpt>
      <trkpt lat="45.62132" lon="6.20393">
        <ele>1409</ele>
        <time>2010-10-09T10:07:58Z</time>
      </trkpt>
      <trkpt lat="45.62135" lon="6.20401">
        <ele>1409</ele>
        <time>2010-10-09T10:08:01Z</time>
      </trkpt>
      <trkpt lat="45.62143" lon="6.20409">
        <ele>1407</ele>
        <time>2010-10-09T10:08:02Z</time>
      </trkpt>
      <trkpt lat="45.62145" lon="6.20413">
        <ele>1406</ele>
        <time>2010-10-09T10:08:04Z</time>
      </trkpt>
      <trkpt lat="45.62146" lon="6.20415">
        <ele>1406</ele>
        <time>2010-10-09T10:08:06Z</time>
      </trkpt>
      <trkpt lat="45.62148" lon="6.20419">
        <ele>1415</ele>
        <time>2010-10-09T10:08:07Z</time>
      </trkpt>
      <trkpt lat="45.62156" lon="6.20427">
        <ele>1412</ele>
        <time>2010-10-09T10:08:09Z</time>
      </trkpt>
      <trkpt lat="45.62167" lon="6.20436">
        <ele>1400</ele>
        <time>2010-10-09T10:08:11Z</time>
      </trkpt>
      <trkpt lat="45.62172" lon="6.20442">
        <ele>1400</ele>
        <time>2010-10-09T10:08:12Z</time>
      </trkpt>
      <trkpt lat="45.62174" lon="6.20448">
        <ele>1400</ele>
        <time>2010-10-09T10:08:13Z</time>
      </trkpt>
      <trkpt lat="45.62179" lon="6.2045">
        <ele>1400</ele>
        <time>2010-10-09T10:08:14Z</time>
      </trkpt>
      <trkpt lat="45.62186" lon="6.20452">
        <ele>1400</ele>
        <time>2010-10-09T10:08:16Z</time>
      </trkpt>
      <trkpt lat="45.62194" lon="6.20455">
        <ele>1399</ele>
        <time>2010-10-09T10:08:17Z</time>
      </trkpt>
      <trkpt lat="45.62205" lon="6.20459">
        <ele>1398</ele>
        <time>2010-10-09T10:08:19Z</time>
      </trkpt>
      <trkpt lat="45.62215" lon="6.20458">
        <ele>1396</ele>
        <time>2010-10-09T10:08:21Z</time>
      </trkpt>
      <trkpt lat="45.62226" lon="6.20462">
        <ele>1395</ele>
        <time>2010-10-09T10:08:23Z</time>
      </trkpt>
      <trkpt lat="45.62233" lon="6.20464">
        <ele>1394</ele>
        <time>2010-10-09T10:08:24Z</time>
      </trkpt>
      <trkpt lat="45.62237" lon="6.20467">
        <ele>1394</ele>
        <time>2010-10-09T10:08:25Z</time>
      </trkpt>
      <trkpt lat="45.62243" lon="6.20471">
        <ele>1393</ele>
        <time>2010-10-09T10:08:26Z</time>
      </trkpt>
      <trkpt lat="45.62253" lon="6.20482">
        <ele>1380</ele>
        <time>2010-10-09T10:08:28Z</time>
      </trkpt>
      <trkpt lat="45.62259" lon="6.20489">
        <ele>1381</ele>
        <time>2010-10-09T10:08:29Z</time>
      </trkpt>
      <trkpt lat="45.62263" lon="6.20496">
        <ele>1381</ele>
        <time>2010-10-09T10:08:30Z</time>
      </trkpt>
      <trkpt lat="45.6227" lon="6.2051">
        <ele>1379</ele>
        <time>2010-10-09T10:08:32Z</time>
      </trkpt>
      <trkpt lat="45.62273" lon="6.20517">
        <ele>1378</ele>
        <time>2010-10-09T10:08:33Z</time>
      </trkpt>
      <trkpt lat="45.62275" lon="6.20524">
        <ele>1377</ele>
        <time>2010-10-09T10:08:34Z</time>
      </trkpt>
      <trkpt lat="45.62276" lon="6.20532">
        <ele>1376</ele>
        <time>2010-10-09T10:08:35Z</time>
      </trkpt>
      <trkpt lat="45.62278" lon="6.2054">
        <ele>1376</ele>
        <time>2010-10-09T10:08:36Z</time>
      </trkpt>
      <trkpt lat="45.62283" lon="6.20554">
        <ele>1375</ele>
        <time>2010-10-09T10:08:38Z</time>
      </trkpt>
      <trkpt lat="45.62285" lon="6.20561">
        <ele>1374</ele>
        <time>2010-10-09T10:08:39Z</time>
      </trkpt>
      <trkpt lat="45.62285" lon="6.20566">
        <ele>1374</ele>
        <time>2010-10-09T10:08:40Z</time>
      </trkpt>
      <trkpt lat="45.62285" lon="6.20571">
        <ele>1374</ele>
        <time>2010-10-09T10:08:41Z</time>
      </trkpt>
      <trkpt lat="45.62285" lon="6.2058">
        <ele>1374</ele>
        <time>2010-10-09T10:08:43Z</time>
      </trkpt>
      <trkpt lat="45.62285" lon="6.20585">
        <ele>1370</ele>
        <time>2010-10-09T10:08:44Z</time>
      </trkpt>
      <trkpt lat="45.62284" lon="6.2059">
        <ele>1370</ele>
        <time>2010-10-09T10:08:45Z</time>
      </trkpt>
      <trkpt lat="45.62284" lon="6.20594">
        <ele>1370</ele>
        <time>2010-10-09T10:08:47Z</time>
      </trkpt>
      <trkpt lat="45.62283" lon="6.206">
        <ele>1370</ele>
        <time>2010-10-09T10:08:48Z</time>
      </trkpt>
      <trkpt lat="45.62283" lon="6.20607">
        <ele>1369</ele>
        <time>2010-10-09T10:08:50Z</time>
      </trkpt>
      <trkpt lat="45.62283" lon="6.20611">
        <ele>1369</ele>
        <time>2010-10-09T10:08:51Z</time>
      </trkpt>
      <trkpt lat="45.62284" lon="6.2062">
        <ele>1368</ele>
        <time>2010-10-09T10:08:53Z</time>
      </trkpt>
      <trkpt lat="45.62283" lon="6.20623">
        <ele>1368</ele>
        <time>2010-10-09T10:08:54Z</time>
      </trkpt>
      <trkpt lat="45.62282" lon="6.20628">
        <ele>1368</ele>
        <time>2010-10-09T10:08:56Z</time>
      </trkpt>
      <trkpt lat="45.6228" lon="6.20635">
        <ele>1368</ele>
        <time>2010-10-09T10:08:58Z</time>
      </trkpt>
      <trkpt lat="45.62279" lon="6.20638">
        <ele>1369</ele>
        <time>2010-10-09T10:09:00Z</time>
      </trkpt>
      <trkpt lat="45.62279" lon="6.20644">
        <ele>1368</ele>
        <time>2010-10-09T10:09:01Z</time>
      </trkpt>
      <trkpt lat="45.62279" lon="6.20648">
        <ele>1368</ele>
        <time>2010-10-09T10:09:03Z</time>
      </trkpt>
      <trkpt lat="45.62279" lon="6.20656">
        <ele>1368</ele>
        <time>2010-10-09T10:09:04Z</time>
      </trkpt>
      <trkpt lat="45.6228" lon="6.2066">
        <ele>1368</ele>
        <time>2010-10-09T10:09:05Z</time>
      </trkpt>
      <trkpt lat="45.62279" lon="6.20663">
        <ele>1368</ele>
        <time>2010-10-09T10:09:06Z</time>
      </trkpt>
      <trkpt lat="45.62279" lon="6.20667">
        <ele>1367</ele>
        <time>2010-10-09T10:09:08Z</time>
      </trkpt>
      <trkpt lat="45.6228" lon="6.20674">
        <ele>1367</ele>
        <time>2010-10-09T10:09:09Z</time>
      </trkpt>
      <trkpt lat="45.62283" lon="6.2068">
        <ele>1366</ele>
        <time>2010-10-09T10:09:11Z</time>
      </trkpt>
      <trkpt lat="45.62283" lon="6.20687">
        <ele>1365</ele>
        <time>2010-10-09T10:09:13Z</time>
      </trkpt>
      <trkpt lat="45.62286" lon="6.20694">
        <ele>1365</ele>
        <time>2010-10-09T10:09:15Z</time>
      </trkpt>
      <trkpt lat="45.62286" lon="6.20696">
        <ele>1365</ele>
        <time>2010-10-09T10:09:16Z</time>
      </trkpt>
      <trkpt lat="45.62288" lon="6.20698">
        <ele>1365</ele>
        <time>2010-10-09T10:09:18Z</time>
      </trkpt>
      <trkpt lat="45.62287" lon="6.20703">
        <ele>1365</ele>
        <time>2010-10-09T10:09:19Z</time>
      </trkpt>
      <trkpt lat="45.62283" lon="6.20705">
        <ele>1366</ele>
        <time>2010-10-09T10:09:20Z</time>
      </trkpt>
      <trkpt lat="45.6228" lon="6.20707">
        <ele>1366</ele>
        <time>2010-10-09T10:09:21Z</time>
      </trkpt>
      <trkpt lat="45.62283" lon="6.20713">
        <ele>1366</ele>
        <time>2010-10-09T10:09:23Z</time>
      </trkpt>
      <trkpt lat="45.62284" lon="6.20715">
        <ele>1366</ele>
        <time>2010-10-09T10:09:25Z</time>
      </trkpt>
      <trkpt lat="45.62288" lon="6.20719">
        <ele>1365</ele>
        <time>2010-10-09T10:09:26Z</time>
      </trkpt>
      <trkpt lat="45.62289" lon="6.2072">
        <ele>1365</ele>
        <time>2010-10-09T10:09:27Z</time>
      </trkpt>
      <trkpt lat="45.6229" lon="6.20721">
        <ele>1365</ele>
        <time>2010-10-09T10:09:29Z</time>
      </trkpt>
      <trkpt lat="45.62294" lon="6.20724">
        <ele>1364</ele>
        <time>2010-10-09T10:09:30Z</time>
      </trkpt>
      <trkpt lat="45.62294" lon="6.20726">
        <ele>1364</ele>
        <time>2010-10-09T10:09:33Z</time>
      </trkpt>
      <trkpt lat="45.62296" lon="6.20728">
        <ele>1363</ele>
        <time>2010-10-09T10:09:35Z</time>
      </trkpt>
      <trkpt lat="45.623" lon="6.2073">
        <ele>1362</ele>
        <time>2010-10-09T10:09:36Z</time>
      </trkpt>
      <trkpt lat="45.62303" lon="6.20734">
        <ele>1361</ele>
        <time>2010-10-09T10:09:38Z</time>
      </trkpt>
      <trkpt lat="45.62302" lon="6.20736">
        <ele>1362</ele>
        <time>2010-10-09T10:09:42Z</time>
      </trkpt>
      <trkpt lat="45.62301" lon="6.20739">
        <ele>1362</ele>
        <time>2010-10-09T10:09:44Z</time>
      </trkpt>
      <trkpt lat="45.62303" lon="6.20739">
        <ele>1361</ele>
        <time>2010-10-09T10:09:46Z</time>
      </trkpt>
      <trkpt lat="45.62305" lon="6.2074">
        <ele>1360</ele>
        <time>2010-10-09T10:09:47Z</time>
      </trkpt>
      <trkpt lat="45.62308" lon="6.2074">
        <ele>1360</ele>
        <time>2010-10-09T10:09:49Z</time>
      </trkpt>
      <trkpt lat="45.62306" lon="6.20742">
        <ele>1360</ele>
        <time>2010-10-09T10:09:52Z</time>
      </trkpt>
      <trkpt lat="45.62304" lon="6.20743">
        <ele>1361</ele>
        <time>2010-10-09T10:09:53Z</time>
      </trkpt>
      <trkpt lat="45.62306" lon="6.20745">
        <ele>1360</ele>
        <time>2010-10-09T10:09:56Z</time>
      </trkpt>
      <trkpt lat="45.62307" lon="6.20744">
        <ele>1360</ele>
        <time>2010-10-09T10:09:58Z</time>
      </trkpt>
      <trkpt lat="45.62309" lon="6.20745">
        <ele>1359</ele>
        <time>2010-10-09T10:09:59Z</time>
      </trkpt>
      <trkpt lat="45.62311" lon="6.20747">
        <ele>1358</ele>
        <time>2010-10-09T10:10:00Z</time>
      </trkpt>
      <trkpt lat="45.62309" lon="6.20745">
        <ele>1359</ele>
        <time>2010-10-09T10:10:03Z</time>
      </trkpt>
      <trkpt lat="45.62305" lon="6.20751">
        <ele>1362</ele>
        <time>2010-10-09T10:10:06Z</time>
      </trkpt>
      <trkpt lat="45.62301" lon="6.20752">
        <ele>1363</ele>
        <time>2010-10-09T10:10:08Z</time>
      </trkpt>
      <trkpt lat="45.623" lon="6.20752">
        <ele>1364</ele>
        <time>2010-10-09T10:10:10Z</time>
      </trkpt>
      <trkpt lat="45.62299" lon="6.20753">
        <ele>1364</ele>
        <time>2010-10-09T10:10:11Z</time>
      </trkpt>
      <trkpt lat="45.62296" lon="6.20752">
        <ele>1365</ele>
        <time>2010-10-09T10:10:12Z</time>
      </trkpt>
      <trkpt lat="45.62299" lon="6.20752">
        <ele>1364</ele>
        <time>2010-10-09T10:10:15Z</time>
      </trkpt>
      <trkpt lat="45.62299" lon="6.20754">
        <ele>1364</ele>
        <time>2010-10-09T10:10:16Z</time>
      </trkpt>
      <trkpt lat="45.62298" lon="6.20757">
        <ele>1365</ele>
        <time>2010-10-09T10:10:17Z</time>
      </trkpt>
      <trkpt lat="45.62298" lon="6.20763">
        <ele>1365</ele>
        <time>2010-10-09T10:10:19Z</time>
      </trkpt>
      <trkpt lat="45.62296" lon="6.20764">
        <ele>1365</ele>
        <time>2010-10-09T10:10:20Z</time>
      </trkpt>
      <trkpt lat="45.62297" lon="6.20765">
        <ele>1365</ele>
        <time>2010-10-09T10:10:21Z</time>
      </trkpt>
      <trkpt lat="45.62292" lon="6.20763">
        <ele>1367</ele>
        <time>2010-10-09T10:10:23Z</time>
      </trkpt>
      <trkpt lat="45.62286" lon="6.20761">
        <ele>1368</ele>
        <time>2010-10-09T10:10:24Z</time>
      </trkpt>
      <trkpt lat="45.62281" lon="6.20757">
        <ele>1370</ele>
        <time>2010-10-09T10:10:26Z</time>
      </trkpt>
      <trkpt lat="45.62281" lon="6.20758">
        <ele>1370</ele>
        <time>2010-10-09T10:10:28Z</time>
      </trkpt>
      <trkpt lat="45.62295" lon="6.20765">
        <ele>1366</ele>
        <time>2010-10-09T10:10:30Z</time>
      </trkpt>
      <trkpt lat="45.623" lon="6.20767">
        <ele>1364</ele>
        <time>2010-10-09T10:10:31Z</time>
      </trkpt>
      <trkpt lat="45.62305" lon="6.2077">
        <ele>1363</ele>
        <time>2010-10-09T10:10:32Z</time>
      </trkpt>
      <trkpt lat="45.62317" lon="6.20774">
        <ele>1360</ele>
        <time>2010-10-09T10:10:34Z</time>
      </trkpt>
      <trkpt lat="45.62315" lon="6.20772">
        <ele>1361</ele>
        <time>2010-10-09T10:10:35Z</time>
      </trkpt>
      <trkpt lat="45.62307" lon="6.20769">
        <ele>1362</ele>
        <time>2010-10-09T10:10:36Z</time>
      </trkpt>
      <trkpt lat="45.62292" lon="6.20763">
        <ele>1367</ele>
        <time>2010-10-09T10:10:38Z</time>
      </trkpt>
      <trkpt lat="45.62281" lon="6.20759">
        <ele>1370</ele>
        <time>2010-10-09T10:10:39Z</time>
      </trkpt>
      <trkpt lat="45.62267" lon="6.20755">
        <ele>1375</ele>
        <time>2010-10-09T10:10:41Z</time>
      </trkpt>
      <trkpt lat="45.62259" lon="6.20751">
        <ele>1378</ele>
        <time>2010-10-09T10:10:42Z</time>
      </trkpt>
      <trkpt lat="45.62247" lon="6.20745">
        <ele>1387</ele>
        <time>2010-10-09T10:10:44Z</time>
      </trkpt>
      <trkpt lat="45.62234" lon="6.2074">
        <ele>1394</ele>
        <time>2010-10-09T10:10:45Z</time>
      </trkpt>
      <trkpt lat="45.62236" lon="6.20741">
        <ele>1392</ele>
        <time>2010-10-09T10:10:46Z</time>
      </trkpt>
      <trkpt lat="45.62246" lon="6.20744">
        <ele>1388</ele>
        <time>2010-10-09T10:10:47Z</time>
      </trkpt>
      <trkpt lat="45.6225" lon="6.20746">
        <ele>1386</ele>
        <time>2010-10-09T10:10:48Z</time>
      </trkpt>
      <trkpt lat="45.62266" lon="6.20753">
        <ele>1375</ele>
        <time>2010-10-09T10:10:50Z</time>
      </trkpt>
      <trkpt lat="45.62271" lon="6.20755">
        <ele>1373</ele>
        <time>2010-10-09T10:10:51Z</time>
      </trkpt>
      <trkpt lat="45.62265" lon="6.20754">
        <ele>1376</ele>
        <time>2010-10-09T10:10:53Z</time>
      </trkpt>
      <trkpt lat="45.62263" lon="6.20754">
        <ele>1376</ele>
        <time>2010-10-09T10:10:55Z</time>
      </trkpt>
      <trkpt lat="45.6227" lon="6.20756">
        <ele>1374</ele>
        <time>2010-10-09T10:10:57Z</time>
      </trkpt>
      <trkpt lat="45.62274" lon="6.20757">
        <ele>1372</ele>
        <time>2010-10-09T10:10:59Z</time>
      </trkpt>
      <trkpt lat="45.62269" lon="6.20755">
        <ele>1374</ele>
        <time>2010-10-09T10:11:01Z</time>
      </trkpt>
      <trkpt lat="45.62265" lon="6.20755">
        <ele>1375</ele>
        <time>2010-10-09T10:11:02Z</time>
      </trkpt>
      <trkpt lat="45.62268" lon="6.20756">
        <ele>1374</ele>
        <time>2010-10-09T10:11:03Z</time>
      </trkpt>
      <trkpt lat="45.62259" lon="6.20754">
        <ele>1378</ele>
        <time>2010-10-09T10:11:05Z</time>
      </trkpt>
      <trkpt lat="45.62267" lon="6.2076">
        <ele>1374</ele>
        <time>2010-10-09T10:11:06Z</time>
      </trkpt>
      <trkpt lat="45.62265" lon="6.2076">
        <ele>1375</ele>
        <time>2010-10-09T10:11:08Z</time>
      </trkpt>
      <trkpt lat="45.62262" lon="6.20759">
        <ele>1376</ele>
        <time>2010-10-09T10:11:09Z</time>
      </trkpt>
      <trkpt lat="45.62265" lon="6.20759">
        <ele>1375</ele>
        <time>2010-10-09T10:11:10Z</time>
      </trkpt>
      <trkpt lat="45.62276" lon="6.2076">
        <ele>1371</ele>
        <time>2010-10-09T10:11:12Z</time>
      </trkpt>
      <trkpt lat="45.62277" lon="6.20761">
        <ele>1371</ele>
        <time>2010-10-09T10:11:13Z</time>
      </trkpt>
      <trkpt lat="45.62264" lon="6.20757">
        <ele>1376</ele>
        <time>2010-10-09T10:11:16Z</time>
      </trkpt>
      <trkpt lat="45.62265" lon="6.20759">
        <ele>1375</ele>
        <time>2010-10-09T10:11:17Z</time>
      </trkpt>
      <trkpt lat="45.62299" lon="6.20771">
        <ele>1365</ele>
        <time>2010-10-09T10:11:19Z</time>
      </trkpt>
      <trkpt lat="45.62313" lon="6.20776">
        <ele>1362</ele>
        <time>2010-10-09T10:11:20Z</time>
      </trkpt>
      <trkpt lat="45.62325" lon="6.2078">
        <ele>1360</ele>
        <time>2010-10-09T10:11:21Z</time>
      </trkpt>
      <trkpt lat="45.62326" lon="6.20781">
        <ele>1360</ele>
        <time>2010-10-09T10:11:22Z</time>
      </trkpt>
      <trkpt lat="45.6231" lon="6.2078">
        <ele>1363</ele>
        <time>2010-10-09T10:11:24Z</time>
      </trkpt>
      <trkpt lat="45.62312" lon="6.2078">
        <ele>1362</ele>
        <time>2010-10-09T10:11:25Z</time>
      </trkpt>
      <trkpt lat="45.6231" lon="6.20782">
        <ele>1363</ele>
        <time>2010-10-09T10:11:26Z</time>
      </trkpt>
      <trkpt lat="45.62313" lon="6.20793">
        <ele>1362</ele>
        <time>2010-10-09T10:11:29Z</time>
      </trkpt>
      <trkpt lat="45.62305" lon="6.20794">
        <ele>1364</ele>
        <time>2010-10-09T10:11:31Z</time>
      </trkpt>
      <trkpt lat="45.62296" lon="6.2079">
        <ele>1366</ele>
        <time>2010-10-09T10:11:32Z</time>
      </trkpt>
      <trkpt lat="45.62293" lon="6.20787">
        <ele>1367</ele>
        <time>2010-10-09T10:11:33Z</time>
      </trkpt>
      <trkpt lat="45.62305" lon="6.20787">
        <ele>1364</ele>
        <time>2010-10-09T10:11:35Z</time>
      </trkpt>
      <trkpt lat="45.62306" lon="6.20785">
        <ele>1364</ele>
        <time>2010-10-09T10:11:36Z</time>
      </trkpt>
      <trkpt lat="45.62302" lon="6.2078">
        <ele>1364</ele>
        <time>2010-10-09T10:11:38Z</time>
      </trkpt>
      <trkpt lat="45.62275" lon="6.2077">
        <ele>1371</ele>
        <time>2010-10-09T10:11:40Z</time>
      </trkpt>
      <trkpt lat="45.62262" lon="6.20766">
        <ele>1375</ele>
        <time>2010-10-09T10:11:41Z</time>
      </trkpt>
      <trkpt lat="45.62252" lon="6.20762">
        <ele>1378</ele>
        <time>2010-10-09T10:11:43Z</time>
      </trkpt>
      <trkpt lat="45.6224" lon="6.20757">
        <ele>1395</ele>
        <time>2010-10-09T10:11:45Z</time>
      </trkpt>
      <trkpt lat="45.62248" lon="6.20759">
        <ele>1392</ele>
        <time>2010-10-09T10:11:46Z</time>
      </trkpt>
      <trkpt lat="45.62256" lon="6.2076">
        <ele>1377</ele>
        <time>2010-10-09T10:11:48Z</time>
      </trkpt>
      <trkpt lat="45.62255" lon="6.20762">
        <ele>1377</ele>
        <time>2010-10-09T10:11:51Z</time>
      </trkpt>
      <trkpt lat="45.62254" lon="6.20778">
        <ele>1375</ele>
        <time>2010-10-09T10:11:54Z</time>
      </trkpt>
      <trkpt lat="45.62246" lon="6.2078">
        <ele>1402</ele>
        <time>2010-10-09T10:11:56Z</time>
      </trkpt>
      <trkpt lat="45.62251" lon="6.20794">
        <ele>1375</ele>
        <time>2010-10-09T10:11:58Z</time>
      </trkpt>
      <trkpt lat="45.62246" lon="6.20799">
        <ele>1404</ele>
        <time>2010-10-09T10:11:59Z</time>
      </trkpt>
      <trkpt lat="45.62248" lon="6.20805">
        <ele>1404</ele>
        <time>2010-10-09T10:12:01Z</time>
      </trkpt>
      <trkpt lat="45.6228" lon="6.20834">
        <ele>1372</ele>
        <time>2010-10-09T10:12:04Z</time>
      </trkpt>
      <trkpt lat="45.62289" lon="6.20841">
        <ele>1368</ele>
        <time>2010-10-09T10:12:06Z</time>
      </trkpt>
      <trkpt lat="45.62289" lon="6.20845">
        <ele>1367</ele>
        <time>2010-10-09T10:12:07Z</time>
      </trkpt>
      <trkpt lat="45.62294" lon="6.20853">
        <ele>1365</ele>
        <time>2010-10-09T10:12:09Z</time>
      </trkpt>
      <trkpt lat="45.62307" lon="6.20862">
        <ele>1361</ele>
        <time>2010-10-09T10:12:11Z</time>
      </trkpt>
      <trkpt lat="45.62306" lon="6.20863">
        <ele>1361</ele>
        <time>2010-10-09T10:12:12Z</time>
      </trkpt>
      <trkpt lat="45.62307" lon="6.20861">
        <ele>1361</ele>
        <time>2010-10-09T10:12:14Z</time>
      </trkpt>
      <trkpt lat="45.62312" lon="6.20861">
        <ele>1359</ele>
        <time>2010-10-09T10:12:15Z</time>
      </trkpt>
      <trkpt lat="45.62312" lon="6.20859">
        <ele>1359</ele>
        <time>2010-10-09T10:12:16Z</time>
      </trkpt>
      <trkpt lat="45.62302" lon="6.20856">
        <ele>1362</ele>
        <time>2010-10-09T10:12:20Z</time>
      </trkpt>
      <trkpt lat="45.62307" lon="6.20862">
        <ele>1361</ele>
        <time>2010-10-09T10:12:21Z</time>
      </trkpt>
      <trkpt lat="45.62312" lon="6.20867">
        <ele>1359</ele>
        <time>2010-10-09T10:12:23Z</time>
      </trkpt>
      <trkpt lat="45.6232" lon="6.20872">
        <ele>1357</ele>
        <time>2010-10-09T10:12:24Z</time>
      </trkpt>
      <trkpt lat="45.62323" lon="6.20874">
        <ele>1356</ele>
        <time>2010-10-09T10:12:25Z</time>
      </trkpt>
      <trkpt lat="45.62326" lon="6.20875">
        <ele>1355</ele>
        <time>2010-10-09T10:12:27Z</time>
      </trkpt>
      <trkpt lat="45.62331" lon="6.20877">
        <ele>1354</ele>
        <time>2010-10-09T10:12:28Z</time>
      </trkpt>
      <trkpt lat="45.62333" lon="6.20878">
        <ele>1354</ele>
        <time>2010-10-09T10:12:29Z</time>
      </trkpt>
      <trkpt lat="45.62335" lon="6.20879">
        <ele>1316</ele>
        <time>2010-10-09T10:12:30Z</time>
      </trkpt>
      <trkpt lat="45.62342" lon="6.20882">
        <ele>1315</ele>
        <time>2010-10-09T10:12:32Z</time>
      </trkpt>
      <trkpt lat="45.62349" lon="6.20885">
        <ele>1313</ele>
        <time>2010-10-09T10:12:33Z</time>
      </trkpt>
      <trkpt lat="45.62358" lon="6.20888">
        <ele>1310</ele>
        <time>2010-10-09T10:12:35Z</time>
      </trkpt>
      <trkpt lat="45.62344" lon="6.20882">
        <ele>1314</ele>
        <time>2010-10-09T10:12:37Z</time>
      </trkpt>
      <trkpt lat="45.62337" lon="6.20879">
        <ele>1316</ele>
        <time>2010-10-09T10:12:40Z</time>
      </trkpt>
      <trkpt lat="45.62339" lon="6.2088">
        <ele>1315</ele>
        <time>2010-10-09T10:12:41Z</time>
      </trkpt>
      <trkpt lat="45.62343" lon="6.20881">
        <ele>1315</ele>
        <time>2010-10-09T10:12:43Z</time>
      </trkpt>
      <trkpt lat="45.62348" lon="6.20882">
        <ele>1313</ele>
        <time>2010-10-09T10:12:44Z</time>
      </trkpt>
      <trkpt lat="45.62354" lon="6.20884">
        <ele>1311</ele>
        <time>2010-10-09T10:12:45Z</time>
      </trkpt>
      <trkpt lat="45.62361" lon="6.20887">
        <ele>1309</ele>
        <time>2010-10-09T10:12:46Z</time>
      </trkpt>
      <trkpt lat="45.62356" lon="6.20885">
        <ele>1311</ele>
        <time>2010-10-09T10:12:48Z</time>
      </trkpt>
      <trkpt lat="45.62358" lon="6.20885">
        <ele>1310</ele>
        <time>2010-10-09T10:12:50Z</time>
      </trkpt>
      <trkpt lat="45.62361" lon="6.20885">
        <ele>1309</ele>
        <time>2010-10-09T10:12:51Z</time>
      </trkpt>
      <trkpt lat="45.62376" lon="6.20889">
        <ele>1303</ele>
        <time>2010-10-09T10:12:52Z</time>
      </trkpt>
      <trkpt lat="45.62374" lon="6.20887">
        <ele>1304</ele>
        <time>2010-10-09T10:12:54Z</time>
      </trkpt>
      <trkpt lat="45.62372" lon="6.20885">
        <ele>1305</ele>
        <time>2010-10-09T10:12:55Z</time>
      </trkpt>
      <trkpt lat="45.62376" lon="6.20881">
        <ele>1304</ele>
        <time>2010-10-09T10:12:57Z</time>
      </trkpt>
      <trkpt lat="45.62386" lon="6.20877">
        <ele>1300</ele>
        <time>2010-10-09T10:12:58Z</time>
      </trkpt>
      <trkpt lat="45.62378" lon="6.2087">
        <ele>1304</ele>
        <time>2010-10-09T10:13:00Z</time>
      </trkpt>
      <trkpt lat="45.62374" lon="6.20863">
        <ele>1306</ele>
        <time>2010-10-09T10:13:01Z</time>
      </trkpt>
      <trkpt lat="45.6236" lon="6.20851">
        <ele>1315</ele>
        <time>2010-10-09T10:13:03Z</time>
      </trkpt>
      <trkpt lat="45.62355" lon="6.20847">
        <ele>1318</ele>
        <time>2010-10-09T10:13:04Z</time>
      </trkpt>
      <trkpt lat="45.62348" lon="6.20842">
        <ele>1325</ele>
        <time>2010-10-09T10:13:05Z</time>
      </trkpt>
      <trkpt lat="45.62347" lon="6.20842">
        <ele>1326</ele>
        <time>2010-10-09T10:13:07Z</time>
      </trkpt>
      <trkpt lat="45.62337" lon="6.20841">
        <ele>1333</ele>
        <time>2010-10-09T10:13:08Z</time>
      </trkpt>
      <trkpt lat="45.62341" lon="6.20846">
        <ele>1328</ele>
        <time>2010-10-09T10:13:10Z</time>
      </trkpt>
      <trkpt lat="45.62343" lon="6.20849">
        <ele>1325</ele>
        <time>2010-10-09T10:13:11Z</time>
      </trkpt>
      <trkpt lat="45.62343" lon="6.20857">
        <ele>1320</ele>
        <time>2010-10-09T10:13:12Z</time>
      </trkpt>
      <trkpt lat="45.62343" lon="6.20863">
        <ele>1318</ele>
        <time>2010-10-09T10:13:15Z</time>
      </trkpt>
      <trkpt lat="45.6235" lon="6.20869">
        <ele>1314</ele>
        <time>2010-10-09T10:13:16Z</time>
      </trkpt>
      <trkpt lat="45.62351" lon="6.20872">
        <ele>1314</ele>
        <time>2010-10-09T10:13:18Z</time>
      </trkpt>
      <trkpt lat="45.62349" lon="6.20877">
        <ele>1313</ele>
        <time>2010-10-09T10:13:19Z</time>
      </trkpt>
      <trkpt lat="45.62346" lon="6.20878">
        <ele>1314</ele>
        <time>2010-10-09T10:13:21Z</time>
      </trkpt>
      <trkpt lat="45.6236" lon="6.20888">
        <ele>1309</ele>
        <time>2010-10-09T10:13:22Z</time>
      </trkpt>
      <trkpt lat="45.62361" lon="6.20891">
        <ele>1309</ele>
        <time>2010-10-09T10:13:24Z</time>
      </trkpt>
      <trkpt lat="45.62367" lon="6.20897">
        <ele>1306</ele>
        <time>2010-10-09T10:13:25Z</time>
      </trkpt>
      <trkpt lat="45.62383" lon="6.20915">
        <ele>1296</ele>
        <time>2010-10-09T10:13:26Z</time>
      </trkpt>
      <trkpt lat="45.62382" lon="6.20917">
        <ele>1285</ele>
        <time>2010-10-09T10:13:28Z</time>
      </trkpt>
      <trkpt lat="45.62379" lon="6.20921">
        <ele>1286</ele>
        <time>2010-10-09T10:13:30Z</time>
      </trkpt>
      <trkpt lat="45.62369" lon="6.2092">
        <ele>1292</ele>
        <time>2010-10-09T10:13:31Z</time>
      </trkpt>
      <trkpt lat="45.62358" lon="6.20918">
        <ele>1300</ele>
        <time>2010-10-09T10:13:32Z</time>
      </trkpt>
      <trkpt lat="45.62347" lon="6.20917">
        <ele>1310</ele>
        <time>2010-10-09T10:13:34Z</time>
      </trkpt>
      <trkpt lat="45.62338" lon="6.20916">
        <ele>1324</ele>
        <time>2010-10-09T10:13:35Z</time>
      </trkpt>
      <trkpt lat="45.62329" lon="6.20914">
        <ele>1335</ele>
        <time>2010-10-09T10:13:36Z</time>
      </trkpt>
      <trkpt lat="45.6232" lon="6.20912">
        <ele>1345</ele>
        <time>2010-10-09T10:13:38Z</time>
      </trkpt>
      <trkpt lat="45.62316" lon="6.20912">
        <ele>1348</ele>
        <time>2010-10-09T10:13:39Z</time>
      </trkpt>
      <trkpt lat="45.62304" lon="6.20911">
        <ele>1356</ele>
        <time>2010-10-09T10:13:41Z</time>
      </trkpt>
      <trkpt lat="45.62299" lon="6.20908">
        <ele>1360</ele>
        <time>2010-10-09T10:13:42Z</time>
      </trkpt>
      <trkpt lat="45.62292" lon="6.20908">
        <ele>1364</ele>
        <time>2010-10-09T10:13:45Z</time>
      </trkpt>
      <trkpt lat="45.62298" lon="6.20911">
        <ele>1360</ele>
        <time>2010-10-09T10:13:48Z</time>
      </trkpt>
      <trkpt lat="45.62311" lon="6.20915">
        <ele>1352</ele>
        <time>2010-10-09T10:13:49Z</time>
      </trkpt>
      <trkpt lat="45.62317" lon="6.20918">
        <ele>1342</ele>
        <time>2010-10-09T10:13:51Z</time>
      </trkpt>
      <trkpt lat="45.62323" lon="6.2092">
        <ele>1338</ele>
        <time>2010-10-09T10:13:52Z</time>
      </trkpt>
      <trkpt lat="45.62325" lon="6.20923">
        <ele>1337</ele>
        <time>2010-10-09T10:13:54Z</time>
      </trkpt>
      <trkpt lat="45.62336" lon="6.20927">
        <ele>1313</ele>
        <time>2010-10-09T10:13:55Z</time>
      </trkpt>
      <trkpt lat="45.6234" lon="6.2093">
        <ele>1309</ele>
        <time>2010-10-09T10:13:57Z</time>
      </trkpt>
      <trkpt lat="45.62343" lon="6.20933">
        <ele>1306</ele>
        <time>2010-10-09T10:13:58Z</time>
      </trkpt>
      <trkpt lat="45.6235" lon="6.20936">
        <ele>1300</ele>
        <time>2010-10-09T10:14:00Z</time>
      </trkpt>
      <trkpt lat="45.62357" lon="6.20941">
        <ele>1295</ele>
        <time>2010-10-09T10:14:02Z</time>
      </trkpt>
      <trkpt lat="45.6236" lon="6.20943">
        <ele>1293</ele>
        <time>2010-10-09T10:14:03Z</time>
      </trkpt>
      <trkpt lat="45.62362" lon="6.20944">
        <ele>1292</ele>
        <time>2010-10-09T10:14:06Z</time>
      </trkpt>
      <trkpt lat="45.62367" lon="6.20949">
        <ele>1289</ele>
        <time>2010-10-09T10:14:07Z</time>
      </trkpt>
      <trkpt lat="45.62371" lon="6.20953">
        <ele>1287</ele>
        <time>2010-10-09T10:14:08Z</time>
      </trkpt>
      <trkpt lat="45.62384" lon="6.20956">
        <ele>1281</ele>
        <time>2010-10-09T10:14:10Z</time>
      </trkpt>
      <trkpt lat="45.62401" lon="6.20961">
        <ele>1275</ele>
        <time>2010-10-09T10:14:11Z</time>
      </trkpt>
      <trkpt lat="45.62408" lon="6.20963">
        <ele>1272</ele>
        <time>2010-10-09T10:14:12Z</time>
      </trkpt>
      <trkpt lat="45.62414" lon="6.20966">
        <ele>1270</ele>
        <time>2010-10-09T10:14:13Z</time>
      </trkpt>
      <trkpt lat="45.62417" lon="6.20968">
        <ele>1231</ele>
        <time>2010-10-09T10:14:14Z</time>
      </trkpt>
      <trkpt lat="45.62421" lon="6.20969">
        <ele>1230</ele>
        <time>2010-10-09T10:14:16Z</time>
      </trkpt>
      <trkpt lat="45.62413" lon="6.20968">
        <ele>1270</ele>
        <time>2010-10-09T10:14:17Z</time>
      </trkpt>
      <trkpt lat="45.6241" lon="6.20967">
        <ele>1271</ele>
        <time>2010-10-09T10:14:19Z</time>
      </trkpt>
      <trkpt lat="45.62402" lon="6.20966">
        <ele>1273</ele>
        <time>2010-10-09T10:14:20Z</time>
      </trkpt>
      <trkpt lat="45.62391" lon="6.20965">
        <ele>1277</ele>
        <time>2010-10-09T10:14:22Z</time>
      </trkpt>
      <trkpt lat="45.62379" lon="6.20965">
        <ele>1282</ele>
        <time>2010-10-09T10:14:23Z</time>
      </trkpt>
      <trkpt lat="45.62381" lon="6.20969">
        <ele>1281</ele>
        <time>2010-10-09T10:14:24Z</time>
      </trkpt>
      <trkpt lat="45.62377" lon="6.20972">
        <ele>1282</ele>
        <time>2010-10-09T10:14:25Z</time>
      </trkpt>
      <trkpt lat="45.62367" lon="6.20973">
        <ele>1287</ele>
        <time>2010-10-09T10:14:29Z</time>
      </trkpt>
      <trkpt lat="45.62362" lon="6.20972">
        <ele>1289</ele>
        <time>2010-10-09T10:14:30Z</time>
      </trkpt>
      <trkpt lat="45.62353" lon="6.2097">
        <ele>1292</ele>
        <time>2010-10-09T10:14:32Z</time>
      </trkpt>
      <trkpt lat="45.62337" lon="6.20967">
        <ele>1296</ele>
        <time>2010-10-09T10:14:33Z</time>
      </trkpt>
      <trkpt lat="45.62329" lon="6.20968">
        <ele>1340</ele>
        <time>2010-10-09T10:14:35Z</time>
      </trkpt>
      <trkpt lat="45.62331" lon="6.2097">
        <ele>1339</ele>
        <time>2010-10-09T10:14:36Z</time>
      </trkpt>
      <trkpt lat="45.62334" lon="6.20972">
        <ele>1297</ele>
        <time>2010-10-09T10:14:38Z</time>
      </trkpt>
      <trkpt lat="45.62333" lon="6.20973">
        <ele>1337</ele>
        <time>2010-10-09T10:14:40Z</time>
      </trkpt>
      <trkpt lat="45.62322" lon="6.20971">
        <ele>1341</ele>
        <time>2010-10-09T10:14:41Z</time>
      </trkpt>
      <trkpt lat="45.62329" lon="6.20975">
        <ele>1337</ele>
        <time>2010-10-09T10:14:42Z</time>
      </trkpt>
      <trkpt lat="45.62332" lon="6.20976">
        <ele>1335</ele>
        <time>2010-10-09T10:14:44Z</time>
      </trkpt>
      <trkpt lat="45.62331" lon="6.20976">
        <ele>1336</ele>
        <time>2010-10-09T10:14:45Z</time>
      </trkpt>
      <trkpt lat="45.62336" lon="6.20979">
        <ele>1297</ele>
        <time>2010-10-09T10:14:52Z</time>
      </trkpt>
      <trkpt lat="45.62331" lon="6.20978">
        <ele>1335</ele>
        <time>2010-10-09T10:14:54Z</time>
      </trkpt>
      <trkpt lat="45.62317" lon="6.20975">
        <ele>1341</ele>
        <time>2010-10-09T10:14:55Z</time>
      </trkpt>
      <trkpt lat="45.62312" lon="6.20974">
        <ele>1344</ele>
        <time>2010-10-09T10:14:57Z</time>
      </trkpt>
      <trkpt lat="45.62311" lon="6.20974">
        <ele>1344</ele>
        <time>2010-10-09T10:14:58Z</time>
      </trkpt>
      <trkpt lat="45.62314" lon="6.20975">
        <ele>1343</ele>
        <time>2010-10-09T10:14:59Z</time>
      </trkpt>
      <trkpt lat="45.62319" lon="6.20976">
        <ele>1340</ele>
        <time>2010-10-09T10:15:01Z</time>
      </trkpt>
      <trkpt lat="45.62326" lon="6.20978">
        <ele>1336</ele>
        <time>2010-10-09T10:15:02Z</time>
      </trkpt>
      <trkpt lat="45.62339" lon="6.20981">
        <ele>1297</ele>
        <time>2010-10-09T10:15:04Z</time>
      </trkpt>
      <trkpt lat="45.62344" lon="6.20982">
        <ele>1296</ele>
        <time>2010-10-09T10:15:05Z</time>
      </trkpt>
      <trkpt lat="45.62346" lon="6.20983">
        <ele>1295</ele>
        <time>2010-10-09T10:15:06Z</time>
      </trkpt>
      <trkpt lat="45.62351" lon="6.20987">
        <ele>1294</ele>
        <time>2010-10-09T10:15:08Z</time>
      </trkpt>
      <trkpt lat="45.62357" lon="6.20991">
        <ele>1291</ele>
        <time>2010-10-09T10:15:09Z</time>
      </trkpt>
      <trkpt lat="45.6236" lon="6.20997">
        <ele>1290</ele>
        <time>2010-10-09T10:15:10Z</time>
      </trkpt>
      <trkpt lat="45.62365" lon="6.21001">
        <ele>1276</ele>
        <time>2010-10-09T10:15:11Z</time>
      </trkpt>
      <trkpt lat="45.62369" lon="6.21007">
        <ele>1272</ele>
        <time>2010-10-09T10:15:13Z</time>
      </trkpt>
      <trkpt lat="45.62364" lon="6.21008">
        <ele>1275</ele>
        <time>2010-10-09T10:15:14Z</time>
      </trkpt>
      <trkpt lat="45.62361" lon="6.2101">
        <ele>1277</ele>
        <time>2010-10-09T10:15:16Z</time>
      </trkpt>
      <trkpt lat="45.62363" lon="6.21013">
        <ele>1275</ele>
        <time>2010-10-09T10:15:17Z</time>
      </trkpt>
      <trkpt lat="45.62365" lon="6.21019">
        <ele>1273</ele>
        <time>2010-10-09T10:15:18Z</time>
      </trkpt>
      <trkpt lat="45.62368" lon="6.21022">
        <ele>1271</ele>
        <time>2010-10-09T10:15:19Z</time>
      </trkpt>
      <trkpt lat="45.62383" lon="6.21034">
        <ele>1263</ele>
        <time>2010-10-09T10:15:20Z</time>
      </trkpt>
      <trkpt lat="45.6239" lon="6.21047">
        <ele>1258</ele>
        <time>2010-10-09T10:15:22Z</time>
      </trkpt>
      <trkpt lat="45.62391" lon="6.21051">
        <ele>1257</ele>
        <time>2010-10-09T10:15:25Z</time>
      </trkpt>
      <trkpt lat="45.62392" lon="6.21056">
        <ele>1255</ele>
        <time>2010-10-09T10:15:29Z</time>
      </trkpt>
      <trkpt lat="45.6238" lon="6.21052">
        <ele>1262</ele>
        <time>2010-10-09T10:15:30Z</time>
      </trkpt>
      <trkpt lat="45.62378" lon="6.21055">
        <ele>1262</ele>
        <time>2010-10-09T10:15:32Z</time>
      </trkpt>
      <trkpt lat="45.62378" lon="6.21058">
        <ele>1262</ele>
        <time>2010-10-09T10:15:33Z</time>
      </trkpt>
      <trkpt lat="45.62374" lon="6.21064">
        <ele>1263</ele>
        <time>2010-10-09T10:15:34Z</time>
      </trkpt>
      <trkpt lat="45.62372" lon="6.21069">
        <ele>1264</ele>
        <time>2010-10-09T10:15:37Z</time>
      </trkpt>
      <trkpt lat="45.6237" lon="6.21073">
        <ele>1265</ele>
        <time>2010-10-09T10:15:38Z</time>
      </trkpt>
      <trkpt lat="45.62365" lon="6.21074">
        <ele>1269</ele>
        <time>2010-10-09T10:15:40Z</time>
      </trkpt>
      <trkpt lat="45.62371" lon="6.21082">
        <ele>1265</ele>
        <time>2010-10-09T10:15:42Z</time>
      </trkpt>
      <trkpt lat="45.62375" lon="6.21084">
        <ele>1250</ele>
        <time>2010-10-09T10:15:43Z</time>
      </trkpt>
      <trkpt lat="45.62383" lon="6.21085">
        <ele>1244</ele>
        <time>2010-10-09T10:15:44Z</time>
      </trkpt>
      <trkpt lat="45.62387" lon="6.21086">
        <ele>1242</ele>
        <time>2010-10-09T10:15:45Z</time>
      </trkpt>
      <trkpt lat="45.62374" lon="6.21082">
        <ele>1262</ele>
        <time>2010-10-09T10:15:48Z</time>
      </trkpt>
      <trkpt lat="45.62371" lon="6.21082">
        <ele>1264</ele>
        <time>2010-10-09T10:15:50Z</time>
      </trkpt>
      <trkpt lat="45.62374" lon="6.21083">
        <ele>1263</ele>
        <time>2010-10-09T10:15:52Z</time>
      </trkpt>
      <trkpt lat="45.62371" lon="6.21082">
        <ele>1264</ele>
        <time>2010-10-09T10:15:54Z</time>
      </trkpt>
      <trkpt lat="45.62371" lon="6.21084">
        <ele>1253</ele>
        <time>2010-10-09T10:15:56Z</time>
      </trkpt>
      <trkpt lat="45.62365" lon="6.21084">
        <ele>1256</ele>
        <time>2010-10-09T10:15:57Z</time>
      </trkpt>
      <trkpt lat="45.62357" lon="6.21083">
        <ele>1273</ele>
        <time>2010-10-09T10:15:58Z</time>
      </trkpt>
      <trkpt lat="45.62369" lon="6.21087">
        <ele>1254</ele>
        <time>2010-10-09T10:16:00Z</time>
      </trkpt>
      <trkpt lat="45.62366" lon="6.21088">
        <ele>1256</ele>
        <time>2010-10-09T10:16:02Z</time>
      </trkpt>
      <trkpt lat="45.62367" lon="6.21093">
        <ele>1254</ele>
        <time>2010-10-09T10:16:04Z</time>
      </trkpt>
      <trkpt lat="45.62371" lon="6.21095">
        <ele>1251</ele>
        <time>2010-10-09T10:16:05Z</time>
      </trkpt>
      <trkpt lat="45.62377" lon="6.21097">
        <ele>1247</ele>
        <time>2010-10-09T10:16:06Z</time>
      </trkpt>
      <trkpt lat="45.62379" lon="6.211">
        <ele>1246</ele>
        <time>2010-10-09T10:16:08Z</time>
      </trkpt>
      <trkpt lat="45.62377" lon="6.211">
        <ele>1247</ele>
        <time>2010-10-09T10:16:09Z</time>
      </trkpt>
      <trkpt lat="45.62378" lon="6.21102">
        <ele>1247</ele>
        <time>2010-10-09T10:16:11Z</time>
      </trkpt>
      <trkpt lat="45.62376" lon="6.21102">
        <ele>1248</ele>
        <time>2010-10-09T10:16:12Z</time>
      </trkpt>
      <trkpt lat="45.62374" lon="6.21103">
        <ele>1249</ele>
        <time>2010-10-09T10:16:14Z</time>
      </trkpt>
      <trkpt lat="45.62373" lon="6.21105">
        <ele>1249</ele>
        <time>2010-10-09T10:16:15Z</time>
      </trkpt>
      <trkpt lat="45.62367" lon="6.21107">
        <ele>1252</ele>
        <time>2010-10-09T10:16:16Z</time>
      </trkpt>
      <trkpt lat="45.62368" lon="6.21109">
        <ele>1252</ele>
        <time>2010-10-09T10:16:18Z</time>
      </trkpt>
      <trkpt lat="45.62366" lon="6.21111">
        <ele>1252</ele>
        <time>2010-10-09T10:16:19Z</time>
      </trkpt>
      <trkpt lat="45.62361" lon="6.21117">
        <ele>1254</ele>
        <time>2010-10-09T10:16:22Z</time>
      </trkpt>
      <trkpt lat="45.62358" lon="6.21117">
        <ele>1255</ele>
        <time>2010-10-09T10:16:24Z</time>
      </trkpt>
      <trkpt lat="45.62354" lon="6.21114">
        <ele>1257</ele>
        <time>2010-10-09T10:16:25Z</time>
      </trkpt>
      <trkpt lat="45.62349" lon="6.21114">
        <ele>1259</ele>
        <time>2010-10-09T10:16:27Z</time>
      </trkpt>
      <trkpt lat="45.62353" lon="6.21116">
        <ele>1257</ele>
        <time>2010-10-09T10:16:28Z</time>
      </trkpt>
      <trkpt lat="45.62362" lon="6.21119">
        <ele>1252</ele>
        <time>2010-10-09T10:16:29Z</time>
      </trkpt>
      <trkpt lat="45.62366" lon="6.21122">
        <ele>1250</ele>
        <time>2010-10-09T10:16:31Z</time>
      </trkpt>
      <trkpt lat="45.62363" lon="6.21122">
        <ele>1252</ele>
        <time>2010-10-09T10:16:32Z</time>
      </trkpt>
      <trkpt lat="45.62365" lon="6.21123">
        <ele>1251</ele>
        <time>2010-10-09T10:16:36Z</time>
      </trkpt>
      <trkpt lat="45.62369" lon="6.21125">
        <ele>1249</ele>
        <time>2010-10-09T10:16:37Z</time>
      </trkpt>
      <trkpt lat="45.62371" lon="6.21129">
        <ele>1247</ele>
        <time>2010-10-09T10:16:38Z</time>
      </trkpt>
      <trkpt lat="45.6237" lon="6.2113">
        <ele>1247</ele>
        <time>2010-10-09T10:16:40Z</time>
      </trkpt>
      <trkpt lat="45.62365" lon="6.21129">
        <ele>1250</ele>
        <time>2010-10-09T10:16:42Z</time>
      </trkpt>
      <trkpt lat="45.62368" lon="6.2113">
        <ele>1249</ele>
        <time>2010-10-09T10:16:43Z</time>
      </trkpt>
      <trkpt lat="45.6237" lon="6.2113">
        <ele>1248</ele>
        <time>2010-10-09T10:16:47Z</time>
      </trkpt>
      <trkpt lat="45.62373" lon="6.21132">
        <ele>1246</ele>
        <time>2010-10-09T10:16:48Z</time>
      </trkpt>
      <trkpt lat="45.62375" lon="6.21133">
        <ele>1245</ele>
        <time>2010-10-09T10:16:52Z</time>
      </trkpt>
      <trkpt lat="45.62377" lon="6.21134">
        <ele>1244</ele>
        <time>2010-10-09T10:16:53Z</time>
      </trkpt>
      <trkpt lat="45.62384" lon="6.21137">
        <ele>1240</ele>
        <time>2010-10-09T10:16:54Z</time>
      </trkpt>
      <trkpt lat="45.62387" lon="6.21138">
        <ele>1238</ele>
        <time>2010-10-09T10:16:57Z</time>
      </trkpt>
      <trkpt lat="45.62388" lon="6.2114">
        <ele>1237</ele>
        <time>2010-10-09T10:16:58Z</time>
      </trkpt>
      <trkpt lat="45.62386" lon="6.2114">
        <ele>1238</ele>
        <time>2010-10-09T10:16:59Z</time>
      </trkpt>
      <trkpt lat="45.62382" lon="6.21138">
        <ele>1240</ele>
        <time>2010-10-09T10:17:02Z</time>
      </trkpt>
      <trkpt lat="45.62376" lon="6.2114">
        <ele>1244</ele>
        <time>2010-10-09T10:17:04Z</time>
      </trkpt>
      <trkpt lat="45.62371" lon="6.21139">
        <ele>1246</ele>
        <time>2010-10-09T10:17:06Z</time>
      </trkpt>
      <trkpt lat="45.62372" lon="6.21142">
        <ele>1246</ele>
        <time>2010-10-09T10:17:08Z</time>
      </trkpt>
      <trkpt lat="45.62374" lon="6.21143">
        <ele>1244</ele>
        <time>2010-10-09T10:17:10Z</time>
      </trkpt>
      <trkpt lat="45.6237" lon="6.21143">
        <ele>1247</ele>
        <time>2010-10-09T10:17:11Z</time>
      </trkpt>
      <trkpt lat="45.6237" lon="6.21145">
        <ele>1246</ele>
        <time>2010-10-09T10:17:12Z</time>
      </trkpt>
      <trkpt lat="45.62371" lon="6.21148">
        <ele>1246</ele>
        <time>2010-10-09T10:17:13Z</time>
      </trkpt>
      <trkpt lat="45.62378" lon="6.21151">
        <ele>1241</ele>
        <time>2010-10-09T10:17:16Z</time>
      </trkpt>
      <trkpt lat="45.62386" lon="6.21153">
        <ele>1235</ele>
        <time>2010-10-09T10:17:18Z</time>
      </trkpt>
      <trkpt lat="45.62399" lon="6.2116">
        <ele>1222</ele>
        <time>2010-10-09T10:17:21Z</time>
      </trkpt>
      <trkpt lat="45.624" lon="6.21162">
        <ele>1221</ele>
        <time>2010-10-09T10:17:23Z</time>
      </trkpt>
      <trkpt lat="45.62393" lon="6.2116">
        <ele>1228</ele>
        <time>2010-10-09T10:17:25Z</time>
      </trkpt>
      <trkpt lat="45.62394" lon="6.21162">
        <ele>1226</ele>
        <time>2010-10-09T10:17:27Z</time>
      </trkpt>
      <trkpt lat="45.62391" lon="6.21161">
        <ele>1229</ele>
        <time>2010-10-09T10:17:28Z</time>
      </trkpt>
      <trkpt lat="45.62385" lon="6.21159">
        <ele>1235</ele>
        <time>2010-10-09T10:17:30Z</time>
      </trkpt>
      <trkpt lat="45.62384" lon="6.21161">
        <ele>1235</ele>
        <time>2010-10-09T10:17:33Z</time>
      </trkpt>
      <trkpt lat="45.62388" lon="6.21164">
        <ele>1232</ele>
        <time>2010-10-09T10:17:35Z</time>
      </trkpt>
      <trkpt lat="45.62392" lon="6.21165">
        <ele>1227</ele>
        <time>2010-10-09T10:17:36Z</time>
      </trkpt>
      <trkpt lat="45.62391" lon="6.21165">
        <ele>1229</ele>
        <time>2010-10-09T10:17:38Z</time>
      </trkpt>
      <trkpt lat="45.62389" lon="6.21166">
        <ele>1230</ele>
        <time>2010-10-09T10:17:42Z</time>
      </trkpt>
      <trkpt lat="45.62392" lon="6.21169">
        <ele>1218</ele>
        <time>2010-10-09T10:17:43Z</time>
      </trkpt>
      <trkpt lat="45.62394" lon="6.2117">
        <ele>1216</ele>
        <time>2010-10-09T10:17:47Z</time>
      </trkpt>
      <trkpt lat="45.62396" lon="6.21171">
        <ele>1214</ele>
        <time>2010-10-09T10:17:49Z</time>
      </trkpt>
      <trkpt lat="45.62401" lon="6.21171">
        <ele>1210</ele>
        <time>2010-10-09T10:17:50Z</time>
      </trkpt>
      <trkpt lat="45.62408" lon="6.21173">
        <ele>1205</ele>
        <time>2010-10-09T10:17:51Z</time>
      </trkpt>
      <trkpt lat="45.62406" lon="6.21173">
        <ele>1207</ele>
        <time>2010-10-09T10:17:53Z</time>
      </trkpt>
      <trkpt lat="45.624" lon="6.21171">
        <ele>1211</ele>
        <time>2010-10-09T10:17:56Z</time>
      </trkpt>
      <trkpt lat="45.62387" lon="6.21168">
        <ele>1221</ele>
        <time>2010-10-09T10:17:58Z</time>
      </trkpt>
      <trkpt lat="45.62368" lon="6.21165">
        <ele>1247</ele>
        <time>2010-10-09T10:17:59Z</time>
      </trkpt>
      <trkpt lat="45.62361" lon="6.21164">
        <ele>1252</ele>
        <time>2010-10-09T10:18:01Z</time>
      </trkpt>
      <trkpt lat="45.62349" lon="6.21161">
        <ele>1261</ele>
        <time>2010-10-09T10:18:02Z</time>
      </trkpt>
      <trkpt lat="45.62342" lon="6.2116">
        <ele>1266</ele>
        <time>2010-10-09T10:18:04Z</time>
      </trkpt>
      <trkpt lat="45.62334" lon="6.21158">
        <ele>1269</ele>
        <time>2010-10-09T10:18:05Z</time>
      </trkpt>
      <trkpt lat="45.62336" lon="6.21158">
        <ele>1269</ele>
        <time>2010-10-09T10:18:07Z</time>
      </trkpt>
      <trkpt lat="45.62342" lon="6.2116">
        <ele>1266</ele>
        <time>2010-10-09T10:18:08Z</time>
      </trkpt>
      <trkpt lat="45.62351" lon="6.21162">
        <ele>1260</ele>
        <time>2010-10-09T10:18:10Z</time>
      </trkpt>
      <trkpt lat="45.62353" lon="6.21162">
        <ele>1258</ele>
        <time>2010-10-09T10:18:11Z</time>
      </trkpt>
      <trkpt lat="45.62357" lon="6.21163">
        <ele>1256</ele>
        <time>2010-10-09T10:18:12Z</time>
      </trkpt>
      <trkpt lat="45.62362" lon="6.21164">
        <ele>1251</ele>
        <time>2010-10-09T10:18:13Z</time>
      </trkpt>
      <trkpt lat="45.62365" lon="6.21165">
        <ele>1249</ele>
        <time>2010-10-09T10:18:15Z</time>
      </trkpt>
      <trkpt lat="45.62393" lon="6.21171">
        <ele>1216</ele>
        <time>2010-10-09T10:18:17Z</time>
      </trkpt>
      <trkpt lat="45.62399" lon="6.21173">
        <ele>1212</ele>
        <time>2010-10-09T10:18:19Z</time>
      </trkpt>
      <trkpt lat="45.62406" lon="6.21174">
        <ele>1207</ele>
        <time>2010-10-09T10:18:21Z</time>
      </trkpt>
      <trkpt lat="45.6241" lon="6.21173">
        <ele>1204</ele>
        <time>2010-10-09T10:18:25Z</time>
      </trkpt>
      <trkpt lat="45.62406" lon="6.21172">
        <ele>1206</ele>
        <time>2010-10-09T10:18:27Z</time>
      </trkpt>
      <trkpt lat="45.62402" lon="6.21172">
        <ele>1210</ele>
        <time>2010-10-09T10:18:28Z</time>
      </trkpt>
      <trkpt lat="45.62392" lon="6.21171">
        <ele>1217</ele>
        <time>2010-10-09T10:18:29Z</time>
      </trkpt>
      <trkpt lat="45.62387" lon="6.2117">
        <ele>1221</ele>
        <time>2010-10-09T10:18:31Z</time>
      </trkpt>
      <trkpt lat="45.62383" lon="6.21169">
        <ele>1224</ele>
        <time>2010-10-09T10:18:32Z</time>
      </trkpt>
      <trkpt lat="45.62378" lon="6.21168">
        <ele>1228</ele>
        <time>2010-10-09T10:18:33Z</time>
      </trkpt>
      <trkpt lat="45.62372" lon="6.21167">
        <ele>1232</ele>
        <time>2010-10-09T10:18:35Z</time>
      </trkpt>
      <trkpt lat="45.6237" lon="6.21167">
        <ele>1246</ele>
        <time>2010-10-09T10:18:36Z</time>
      </trkpt>
      <trkpt lat="45.62366" lon="6.21166">
        <ele>1249</ele>
        <time>2010-10-09T10:18:38Z</time>
      </trkpt>
      <trkpt lat="45.62364" lon="6.21166">
        <ele>1250</ele>
        <time>2010-10-09T10:18:39Z</time>
      </trkpt>
      <trkpt lat="45.62359" lon="6.21166">
        <ele>1254</ele>
        <time>2010-10-09T10:18:42Z</time>
      </trkpt>
      <trkpt lat="45.62356" lon="6.21166">
        <ele>1256</ele>
        <time>2010-10-09T10:18:43Z</time>
      </trkpt>
      <trkpt lat="45.62357" lon="6.21166">
        <ele>1255</ele>
        <time>2010-10-09T10:18:47Z</time>
      </trkpt>
      <trkpt lat="45.62354" lon="6.21168">
        <ele>1248</ele>
        <time>2010-10-09T10:18:49Z</time>
      </trkpt>
      <trkpt lat="45.62361" lon="6.21169">
        <ele>1242</ele>
        <time>2010-10-09T10:18:50Z</time>
      </trkpt>
      <trkpt lat="45.62371" lon="6.21169">
        <ele>1233</ele>
        <time>2010-10-09T10:18:53Z</time>
      </trkpt>
      <trkpt lat="45.62371" lon="6.21171">
        <ele>1233</ele>
        <time>2010-10-09T10:18:56Z</time>
      </trkpt>
      <trkpt lat="45.62367" lon="6.21171">
        <ele>1236</ele>
        <time>2010-10-09T10:18:59Z</time>
      </trkpt>
      <trkpt lat="45.62366" lon="6.21172">
        <ele>1237</ele>
        <time>2010-10-09T10:19:00Z</time>
      </trkpt>
      <trkpt lat="45.62367" lon="6.21173">
        <ele>1236</ele>
        <time>2010-10-09T10:19:02Z</time>
      </trkpt>
      <trkpt lat="45.62364" lon="6.21173">
        <ele>1239</ele>
        <time>2010-10-09T10:19:03Z</time>
      </trkpt>
      <trkpt lat="45.62364" lon="6.21175">
        <ele>1238</ele>
        <time>2010-10-09T10:19:06Z</time>
      </trkpt>
      <trkpt lat="45.62364" lon="6.21177">
        <ele>1238</ele>
        <time>2010-10-09T10:19:08Z</time>
      </trkpt>
      <trkpt lat="45.62363" lon="6.21178">
        <ele>1238</ele>
        <time>2010-10-09T10:19:11Z</time>
      </trkpt>
      <trkpt lat="45.62358" lon="6.21178">
        <ele>1242</ele>
        <time>2010-10-09T10:19:12Z</time>
      </trkpt>
      <trkpt lat="45.62359" lon="6.21178">
        <ele>1241</ele>
        <time>2010-10-09T10:19:13Z</time>
      </trkpt>
      <trkpt lat="45.62366" lon="6.21182">
        <ele>1235</ele>
        <time>2010-10-09T10:19:16Z</time>
      </trkpt>
      <trkpt lat="45.62365" lon="6.21182">
        <ele>1236</ele>
        <time>2010-10-09T10:19:17Z</time>
      </trkpt>
      <trkpt lat="45.62368" lon="6.21185">
        <ele>1234</ele>
        <time>2010-10-09T10:19:20Z</time>
      </trkpt>
      <trkpt lat="45.62364" lon="6.21187">
        <ele>1236</ele>
        <time>2010-10-09T10:19:23Z</time>
      </trkpt>
      <trkpt lat="45.62361" lon="6.21187">
        <ele>1238</ele>
        <time>2010-10-09T10:19:25Z</time>
      </trkpt>
      <trkpt lat="45.62362" lon="6.21189">
        <ele>1236</ele>
        <time>2010-10-09T10:19:26Z</time>
      </trkpt>
      <trkpt lat="45.6236" lon="6.21188">
        <ele>1238</ele>
        <time>2010-10-09T10:19:28Z</time>
      </trkpt>
      <trkpt lat="45.62358" lon="6.21188">
        <ele>1239</ele>
        <time>2010-10-09T10:19:30Z</time>
      </trkpt>
      <trkpt lat="45.6236" lon="6.21189">
        <ele>1238</ele>
        <time>2010-10-09T10:19:32Z</time>
      </trkpt>
      <trkpt lat="45.62359" lon="6.21192">
        <ele>1238</ele>
        <time>2010-10-09T10:19:33Z</time>
      </trkpt>
      <trkpt lat="45.62364" lon="6.21194">
        <ele>1234</ele>
        <time>2010-10-09T10:19:35Z</time>
      </trkpt>
      <trkpt lat="45.62366" lon="6.21196">
        <ele>1233</ele>
        <time>2010-10-09T10:19:36Z</time>
      </trkpt>
      <trkpt lat="45.62368" lon="6.212">
        <ele>1231</ele>
        <time>2010-10-09T10:19:39Z</time>
      </trkpt>
      <trkpt lat="45.62366" lon="6.21199">
        <ele>1232</ele>
        <time>2010-10-09T10:19:40Z</time>
      </trkpt>
      <trkpt lat="45.62368" lon="6.21202">
        <ele>1231</ele>
        <time>2010-10-09T10:19:43Z</time>
      </trkpt>
      <trkpt lat="45.62365" lon="6.21203">
        <ele>1232</ele>
        <time>2010-10-09T10:19:45Z</time>
      </trkpt>
      <trkpt lat="45.6237" lon="6.21206">
        <ele>1229</ele>
        <time>2010-10-09T10:19:46Z</time>
      </trkpt>
      <trkpt lat="45.62372" lon="6.21207">
        <ele>1228</ele>
        <time>2010-10-09T10:19:47Z</time>
      </trkpt>
      <trkpt lat="45.62371" lon="6.21209">
        <ele>1229</ele>
        <time>2010-10-09T10:19:50Z</time>
      </trkpt>
      <trkpt lat="45.6237" lon="6.21213">
        <ele>1229</ele>
        <time>2010-10-09T10:19:53Z</time>
      </trkpt>
      <trkpt lat="45.62366" lon="6.21216">
        <ele>1230</ele>
        <time>2010-10-09T10:19:56Z</time>
      </trkpt>
      <trkpt lat="45.62367" lon="6.21218">
        <ele>1230</ele>
        <time>2010-10-09T10:19:58Z</time>
      </trkpt>
      <trkpt lat="45.62367" lon="6.21222">
        <ele>1229</ele>
        <time>2010-10-09T10:20:00Z</time>
      </trkpt>
      <trkpt lat="45.62367" lon="6.21225">
        <ele>1229</ele>
        <time>2010-10-09T10:20:02Z</time>
      </trkpt>
      <trkpt lat="45.62368" lon="6.21227">
        <ele>1229</ele>
        <time>2010-10-09T10:20:03Z</time>
      </trkpt>
      <trkpt lat="45.62367" lon="6.21229">
        <ele>1229</ele>
        <time>2010-10-09T10:20:05Z</time>
      </trkpt>
      <trkpt lat="45.62366" lon="6.2123">
        <ele>1230</ele>
        <time>2010-10-09T10:20:08Z</time>
      </trkpt>
      <trkpt lat="45.62366" lon="6.21233">
        <ele>1230</ele>
        <time>2010-10-09T10:20:10Z</time>
      </trkpt>
      <trkpt lat="45.62366" lon="6.21235">
        <ele>1230</ele>
        <time>2010-10-09T10:20:12Z</time>
      </trkpt>
      <trkpt lat="45.62364" lon="6.21235">
        <ele>1231</ele>
        <time>2010-10-09T10:20:14Z</time>
      </trkpt>
      <trkpt lat="45.62357" lon="6.21236">
        <ele>1235</ele>
        <time>2010-10-09T10:20:15Z</time>
      </trkpt>
      <trkpt lat="45.62356" lon="6.2124">
        <ele>1236</ele>
        <time>2010-10-09T10:20:18Z</time>
      </trkpt>
      <trkpt lat="45.62354" lon="6.21241">
        <ele>1237</ele>
        <time>2010-10-09T10:20:20Z</time>
      </trkpt>
      <trkpt lat="45.62352" lon="6.21243">
        <ele>1239</ele>
        <time>2010-10-09T10:20:21Z</time>
      </trkpt>
      <trkpt lat="45.62347" lon="6.21243">
        <ele>1243</ele>
        <time>2010-10-09T10:20:24Z</time>
      </trkpt>
      <trkpt lat="45.62345" lon="6.21244">
        <ele>1244</ele>
        <time>2010-10-09T10:20:25Z</time>
      </trkpt>
      <trkpt lat="45.62339" lon="6.21249">
        <ele>1250</ele>
        <time>2010-10-09T10:20:27Z</time>
      </trkpt>
      <trkpt lat="45.62337" lon="6.2125">
        <ele>1250</ele>
        <time>2010-10-09T10:20:28Z</time>
      </trkpt>
      <trkpt lat="45.62337" lon="6.21252">
        <ele>1250</ele>
        <time>2010-10-09T10:20:30Z</time>
      </trkpt>
      <trkpt lat="45.62336" lon="6.21254">
        <ele>1249</ele>
        <time>2010-10-09T10:20:31Z</time>
      </trkpt>
      <trkpt lat="45.62331" lon="6.21256">
        <ele>1265</ele>
        <time>2010-10-09T10:20:33Z</time>
      </trkpt>
      <trkpt lat="45.62335" lon="6.21259">
        <ele>1244</ele>
        <time>2010-10-09T10:20:34Z</time>
      </trkpt>
      <trkpt lat="45.62331" lon="6.21263">
        <ele>1272</ele>
        <time>2010-10-09T10:20:37Z</time>
      </trkpt>
      <trkpt lat="45.62335" lon="6.21268">
        <ele>1237</ele>
        <time>2010-10-09T10:20:38Z</time>
      </trkpt>
      <trkpt lat="45.62339" lon="6.21272">
        <ele>1234</ele>
        <time>2010-10-09T10:20:39Z</time>
      </trkpt>
      <trkpt lat="45.62338" lon="6.21275">
        <ele>1233</ele>
        <time>2010-10-09T10:20:42Z</time>
      </trkpt>
      <trkpt lat="45.62343" lon="6.21276">
        <ele>1231</ele>
        <time>2010-10-09T10:20:43Z</time>
      </trkpt>
      <trkpt lat="45.62347" lon="6.21277">
        <ele>1229</ele>
        <time>2010-10-09T10:20:45Z</time>
      </trkpt>
      <trkpt lat="45.62345" lon="6.21277">
        <ele>1230</ele>
        <time>2010-10-09T10:20:47Z</time>
      </trkpt>
      <trkpt lat="45.62342" lon="6.21278">
        <ele>1231</ele>
        <time>2010-10-09T10:20:52Z</time>
      </trkpt>
      <trkpt lat="45.62339" lon="6.21277">
        <ele>1232</ele>
        <time>2010-10-09T10:20:53Z</time>
      </trkpt>
      <trkpt lat="45.62338" lon="6.21277">
        <ele>1232</ele>
        <time>2010-10-09T10:20:54Z</time>
      </trkpt>
      <trkpt lat="45.62339" lon="6.21277">
        <ele>1232</ele>
        <time>2010-10-09T10:20:55Z</time>
      </trkpt>
      <trkpt lat="45.62341" lon="6.21278">
        <ele>1231</ele>
        <time>2010-10-09T10:20:57Z</time>
      </trkpt>
      <trkpt lat="45.62342" lon="6.2128">
        <ele>1230</ele>
        <time>2010-10-09T10:20:58Z</time>
      </trkpt>
      <trkpt lat="45.62344" lon="6.21282">
        <ele>1229</ele>
        <time>2010-10-09T10:20:59Z</time>
      </trkpt>
      <trkpt lat="45.62347" lon="6.21284">
        <ele>1228</ele>
        <time>2010-10-09T10:21:00Z</time>
      </trkpt>
      <trkpt lat="45.62347" lon="6.21287">
        <ele>1227</ele>
        <time>2010-10-09T10:21:02Z</time>
      </trkpt>
      <trkpt lat="45.62346" lon="6.21288">
        <ele>1227</ele>
        <time>2010-10-09T10:21:04Z</time>
      </trkpt>
      <trkpt lat="45.62343" lon="6.21288">
        <ele>1228</ele>
        <time>2010-10-09T10:21:05Z</time>
      </trkpt>
      <trkpt lat="45.62348" lon="6.21292">
        <ele>1227</ele>
        <time>2010-10-09T10:21:08Z</time>
      </trkpt>
      <trkpt lat="45.62347" lon="6.21293">
        <ele>1227</ele>
        <time>2010-10-09T10:21:11Z</time>
      </trkpt>
      <trkpt lat="45.62349" lon="6.21296">
        <ele>1226</ele>
        <time>2010-10-09T10:21:14Z</time>
      </trkpt>
      <trkpt lat="45.62347" lon="6.21296">
        <ele>1227</ele>
        <time>2010-10-09T10:21:15Z</time>
      </trkpt>
      <trkpt lat="45.62338" lon="6.21295">
        <ele>1229</ele>
        <time>2010-10-09T10:21:17Z</time>
      </trkpt>
      <trkpt lat="45.62336" lon="6.21295">
        <ele>1229</ele>
        <time>2010-10-09T10:21:18Z</time>
      </trkpt>
      <trkpt lat="45.62334" lon="6.21298">
        <ele>1230</ele>
        <time>2010-10-09T10:21:22Z</time>
      </trkpt>
      <trkpt lat="45.62337" lon="6.21299">
        <ele>1229</ele>
        <time>2010-10-09T10:21:23Z</time>
      </trkpt>
      <trkpt lat="45.6234" lon="6.213">
        <ele>1228</ele>
        <time>2010-10-09T10:21:25Z</time>
      </trkpt>
      <trkpt lat="45.62338" lon="6.213">
        <ele>1229</ele>
        <time>2010-10-09T10:21:26Z</time>
      </trkpt>
      <trkpt lat="45.6234" lon="6.21301">
        <ele>1229</ele>
        <time>2010-10-09T10:21:27Z</time>
      </trkpt>
      <trkpt lat="45.62348" lon="6.21307">
        <ele>1227</ele>
        <time>2010-10-09T10:21:30Z</time>
      </trkpt>
      <trkpt lat="45.62353" lon="6.21312">
        <ele>1226</ele>
        <time>2010-10-09T10:21:33Z</time>
      </trkpt>
      <trkpt lat="45.62349" lon="6.21313">
        <ele>1228</ele>
        <time>2010-10-09T10:21:35Z</time>
      </trkpt>
      <trkpt lat="45.62348" lon="6.21313">
        <ele>1228</ele>
        <time>2010-10-09T10:21:37Z</time>
      </trkpt>
      <trkpt lat="45.62349" lon="6.21312">
        <ele>1228</ele>
        <time>2010-10-09T10:21:40Z</time>
      </trkpt>
      <trkpt lat="45.62351" lon="6.21313">
        <ele>1227</ele>
        <time>2010-10-09T10:21:43Z</time>
      </trkpt>
      <trkpt lat="45.62354" lon="6.21313">
        <ele>1226</ele>
        <time>2010-10-09T10:21:44Z</time>
      </trkpt>
      <trkpt lat="45.62357" lon="6.21314">
        <ele>1225</ele>
        <time>2010-10-09T10:21:46Z</time>
      </trkpt>
      <trkpt lat="45.6236" lon="6.21315">
        <ele>1223</ele>
        <time>2010-10-09T10:21:49Z</time>
      </trkpt>
      <trkpt lat="45.62359" lon="6.21315">
        <ele>1224</ele>
        <time>2010-10-09T10:21:50Z</time>
      </trkpt>
      <trkpt lat="45.62349" lon="6.21314">
        <ele>1228</ele>
        <time>2010-10-09T10:21:53Z</time>
      </trkpt>
      <trkpt lat="45.62352" lon="6.21317">
        <ele>1227</ele>
        <time>2010-10-09T10:21:55Z</time>
      </trkpt>
      <trkpt lat="45.62356" lon="6.21321">
        <ele>1226</ele>
        <time>2010-10-09T10:21:56Z</time>
      </trkpt>
      <trkpt lat="45.62358" lon="6.21323">
        <ele>1225</ele>
        <time>2010-10-09T10:21:57Z</time>
      </trkpt>
      <trkpt lat="45.62358" lon="6.21325">
        <ele>1225</ele>
        <time>2010-10-09T10:21:59Z</time>
      </trkpt>
      <trkpt lat="45.62361" lon="6.21328">
        <ele>1224</ele>
        <time>2010-10-09T10:22:00Z</time>
      </trkpt>
      <trkpt lat="45.62368" lon="6.21333">
        <ele>1220</ele>
        <time>2010-10-09T10:22:01Z</time>
      </trkpt>
      <trkpt lat="45.6237" lon="6.21336">
        <ele>1216</ele>
        <time>2010-10-09T10:22:03Z</time>
      </trkpt>
      <trkpt lat="45.62371" lon="6.21338">
        <ele>1216</ele>
        <time>2010-10-09T10:22:04Z</time>
      </trkpt>
      <trkpt lat="45.62375" lon="6.21342">
        <ele>1214</ele>
        <time>2010-10-09T10:22:06Z</time>
      </trkpt>
      <trkpt lat="45.62381" lon="6.21347">
        <ele>1210</ele>
        <time>2010-10-09T10:22:08Z</time>
      </trkpt>
      <trkpt lat="45.62382" lon="6.21349">
        <ele>1210</ele>
        <time>2010-10-09T10:22:10Z</time>
      </trkpt>
      <trkpt lat="45.6238" lon="6.21348">
        <ele>1211</ele>
        <time>2010-10-09T10:22:11Z</time>
      </trkpt>
      <trkpt lat="45.62377" lon="6.21351">
        <ele>1213</ele>
        <time>2010-10-09T10:22:13Z</time>
      </trkpt>
      <trkpt lat="45.62374" lon="6.21351">
        <ele>1214</ele>
        <time>2010-10-09T10:22:15Z</time>
      </trkpt>
      <trkpt lat="45.62372" lon="6.2135">
        <ele>1215</ele>
        <time>2010-10-09T10:22:17Z</time>
      </trkpt>
      <trkpt lat="45.6237" lon="6.2135">
        <ele>1216</ele>
        <time>2010-10-09T10:22:18Z</time>
      </trkpt>
      <trkpt lat="45.6237" lon="6.21352">
        <ele>1215</ele>
        <time>2010-10-09T10:22:20Z</time>
      </trkpt>
      <trkpt lat="45.62372" lon="6.21353">
        <ele>1215</ele>
        <time>2010-10-09T10:22:24Z</time>
      </trkpt>
      <trkpt lat="45.62375" lon="6.21355">
        <ele>1213</ele>
        <time>2010-10-09T10:22:27Z</time>
      </trkpt>
      <trkpt lat="45.62373" lon="6.21354">
        <ele>1214</ele>
        <time>2010-10-09T10:22:33Z</time>
      </trkpt>
      <trkpt lat="45.62374" lon="6.21351">
        <ele>1214</ele>
        <time>2010-10-09T10:22:38Z</time>
      </trkpt>
      <trkpt lat="45.62376" lon="6.2135">
        <ele>1213</ele>
        <time>2010-10-09T10:22:40Z</time>
      </trkpt>
      <trkpt lat="45.62377" lon="6.21349">
        <ele>1212</ele>
        <time>2010-10-09T10:22:41Z</time>
      </trkpt>
      <trkpt lat="45.62379" lon="6.21347">
        <ele>1211</ele>
        <time>2010-10-09T10:22:44Z</time>
      </trkpt>
      <trkpt lat="45.62381" lon="6.21346">
        <ele>1210</ele>
        <time>2010-10-09T10:22:46Z</time>
      </trkpt>
      <trkpt lat="45.62384" lon="6.21341">
        <ele>1209</ele>
        <time>2010-10-09T10:22:47Z</time>
      </trkpt>
      <trkpt lat="45.62387" lon="6.21335">
        <ele>1207</ele>
        <time>2010-10-09T10:22:49Z</time>
      </trkpt>
      <trkpt lat="45.62389" lon="6.21332">
        <ele>1207</ele>
        <time>2010-10-09T10:22:50Z</time>
      </trkpt>
      <trkpt lat="45.62393" lon="6.21326">
        <ele>1205</ele>
        <time>2010-10-09T10:22:52Z</time>
      </trkpt>
      <trkpt lat="45.62395" lon="6.21322">
        <ele>1204</ele>
        <time>2010-10-09T10:22:54Z</time>
      </trkpt>
      <trkpt lat="45.62396" lon="6.2132">
        <ele>1204</ele>
        <time>2010-10-09T10:22:55Z</time>
      </trkpt>
      <trkpt lat="45.62397" lon="6.2132">
        <ele>1203</ele>
        <time>2010-10-09T10:22:57Z</time>
      </trkpt>
      <trkpt lat="45.624" lon="6.21316">
        <ele>1203</ele>
        <time>2010-10-09T10:22:58Z</time>
      </trkpt>
      <trkpt lat="45.62404" lon="6.21313">
        <ele>1202</ele>
        <time>2010-10-09T10:23:00Z</time>
      </trkpt>
      <trkpt lat="45.62405" lon="6.21311">
        <ele>1202</ele>
        <time>2010-10-09T10:23:02Z</time>
      </trkpt>
      <trkpt lat="45.62408" lon="6.2131">
        <ele>1202</ele>
        <time>2010-10-09T10:23:03Z</time>
      </trkpt>
      <trkpt lat="45.62413" lon="6.21306">
        <ele>1202</ele>
        <time>2010-10-09T10:23:05Z</time>
      </trkpt>
      <trkpt lat="45.62415" lon="6.21305">
        <ele>1201</ele>
        <time>2010-10-09T10:23:06Z</time>
      </trkpt>
      <trkpt lat="45.6242" lon="6.21303">
        <ele>1173</ele>
        <time>2010-10-09T10:23:08Z</time>
      </trkpt>
      <trkpt lat="45.62424" lon="6.21303">
        <ele>1172</ele>
        <time>2010-10-09T10:23:09Z</time>
      </trkpt>
      <trkpt lat="45.62431" lon="6.21298">
        <ele>1171</ele>
        <time>2010-10-09T10:23:11Z</time>
      </trkpt>
      <trkpt lat="45.62434" lon="6.21295">
        <ele>1170</ele>
        <time>2010-10-09T10:23:12Z</time>
      </trkpt>
      <trkpt lat="45.62439" lon="6.21285">
        <ele>1170</ele>
        <time>2010-10-09T10:23:14Z</time>
      </trkpt>
      <trkpt lat="45.6244" lon="6.21281">
        <ele>1169</ele>
        <time>2010-10-09T10:23:15Z</time>
      </trkpt>
      <trkpt lat="45.62444" lon="6.2128">
        <ele>1169</ele>
        <time>2010-10-09T10:23:17Z</time>
      </trkpt>
      <trkpt lat="45.62445" lon="6.21279">
        <ele>1169</ele>
        <time>2010-10-09T10:23:19Z</time>
      </trkpt>
      <trkpt lat="45.62448" lon="6.21278">
        <ele>1168</ele>
        <time>2010-10-09T10:23:20Z</time>
      </trkpt>
      <trkpt lat="45.6245" lon="6.21278">
        <ele>1168</ele>
        <time>2010-10-09T10:23:21Z</time>
      </trkpt>
      <trkpt lat="45.62452" lon="6.21277">
        <ele>1167</ele>
        <time>2010-10-09T10:23:22Z</time>
      </trkpt>
      <trkpt lat="45.62455" lon="6.21279">
        <ele>1167</ele>
        <time>2010-10-09T10:23:24Z</time>
      </trkpt>
      <trkpt lat="45.62457" lon="6.21278">
        <ele>1166</ele>
        <time>2010-10-09T10:23:26Z</time>
      </trkpt>
      <trkpt lat="45.62465" lon="6.21277">
        <ele>1165</ele>
        <time>2010-10-09T10:23:29Z</time>
      </trkpt>
      <trkpt lat="45.62473" lon="6.21274">
        <ele>1163</ele>
        <time>2010-10-09T10:23:31Z</time>
      </trkpt>
      <trkpt lat="45.62463" lon="6.21271">
        <ele>1165</ele>
        <time>2010-10-09T10:23:34Z</time>
      </trkpt>
      <trkpt lat="45.62459" lon="6.2127">
        <ele>1166</ele>
        <time>2010-10-09T10:23:36Z</time>
      </trkpt>
      <trkpt lat="45.62442" lon="6.21267">
        <ele>1170</ele>
        <time>2010-10-09T10:23:37Z</time>
      </trkpt>
      <trkpt lat="45.62432" lon="6.21265">
        <ele>1172</ele>
        <time>2010-10-09T10:23:39Z</time>
      </trkpt>
      <trkpt lat="45.6243" lon="6.21266">
        <ele>1172</ele>
        <time>2010-10-09T10:23:40Z</time>
      </trkpt>
      <trkpt lat="45.62429" lon="6.21266">
        <ele>1173</ele>
        <time>2010-10-09T10:23:41Z</time>
      </trkpt>
      <trkpt lat="45.62431" lon="6.21268">
        <ele>1172</ele>
        <time>2010-10-09T10:23:44Z</time>
      </trkpt>
      <trkpt lat="45.62435" lon="6.21269">
        <ele>1171</ele>
        <time>2010-10-09T10:23:46Z</time>
      </trkpt>
      <trkpt lat="45.62437" lon="6.2127">
        <ele>1171</ele>
        <time>2010-10-09T10:23:47Z</time>
      </trkpt>
      <trkpt lat="45.62445" lon="6.21272">
        <ele>1169</ele>
        <time>2010-10-09T10:23:50Z</time>
      </trkpt>
      <trkpt lat="45.62443" lon="6.21272">
        <ele>1169</ele>
        <time>2010-10-09T10:23:54Z</time>
      </trkpt>
      <trkpt lat="45.6245" lon="6.21275">
        <ele>1168</ele>
        <time>2010-10-09T10:23:56Z</time>
      </trkpt>
      <trkpt lat="45.62452" lon="6.21274">
        <ele>1167</ele>
        <time>2010-10-09T10:23:58Z</time>
      </trkpt>
      <trkpt lat="45.62452" lon="6.21272">
        <ele>1167</ele>
        <time>2010-10-09T10:24:00Z</time>
      </trkpt>
      <trkpt lat="45.6245" lon="6.21268">
        <ele>1168</ele>
        <time>2010-10-09T10:24:01Z</time>
      </trkpt>
      <trkpt lat="45.62451" lon="6.21268">
        <ele>1168</ele>
        <time>2010-10-09T10:24:06Z</time>
      </trkpt>
      <trkpt lat="45.62452" lon="6.2127">
        <ele>1167</ele>
        <time>2010-10-09T10:24:11Z</time>
      </trkpt>
      <trkpt lat="45.62454" lon="6.21267">
        <ele>1167</ele>
        <time>2010-10-09T10:24:14Z</time>
      </trkpt>
      <trkpt lat="45.62455" lon="6.21266">
        <ele>1167</ele>
        <time>2010-10-09T10:24:16Z</time>
      </trkpt>
      <trkpt lat="45.62458" lon="6.21267">
        <ele>1166</ele>
        <time>2010-10-09T10:24:17Z</time>
      </trkpt>
      <trkpt lat="45.6246" lon="6.21268">
        <ele>1166</ele>
        <time>2010-10-09T10:24:19Z</time>
      </trkpt>
      <trkpt lat="45.62461" lon="6.21268">
        <ele>1165</ele>
        <time>2010-10-09T10:24:20Z</time>
      </trkpt>
      <trkpt lat="45.62463" lon="6.21269">
        <ele>1165</ele>
        <time>2010-10-09T10:24:25Z</time>
      </trkpt>
      <trkpt lat="45.62464" lon="6.21267">
        <ele>1165</ele>
        <time>2010-10-09T10:24:27Z</time>
      </trkpt>
      <trkpt lat="45.62466" lon="6.21268">
        <ele>1164</ele>
        <time>2010-10-09T10:24:30Z</time>
      </trkpt>
      <trkpt lat="45.62467" lon="6.21267">
        <ele>1164</ele>
        <time>2010-10-09T10:24:34Z</time>
      </trkpt>
      <trkpt lat="45.62468" lon="6.21269">
        <ele>1164</ele>
        <time>2010-10-09T10:24:37Z</time>
      </trkpt>
      <trkpt lat="45.62469" lon="6.21272">
        <ele>1164</ele>
        <time>2010-10-09T10:24:39Z</time>
      </trkpt>
      <trkpt lat="45.62469" lon="6.21274">
        <ele>1164</ele>
        <time>2010-10-09T10:24:40Z</time>
      </trkpt>
      <trkpt lat="45.6247" lon="6.21276">
        <ele>1164</ele>
        <time>2010-10-09T10:24:42Z</time>
      </trkpt>
      <trkpt lat="45.6247" lon="6.21278">
        <ele>1164</ele>
        <time>2010-10-09T10:24:45Z</time>
      </trkpt>
      <trkpt lat="45.6247" lon="6.21276">
        <ele>1164</ele>
        <time>2010-10-09T10:24:47Z</time>
      </trkpt>
      <trkpt lat="45.62469" lon="6.21274">
        <ele>1164</ele>
        <time>2010-10-09T10:24:48Z</time>
      </trkpt>
      <trkpt lat="45.62468" lon="6.21271">
        <ele>1164</ele>
        <time>2010-10-09T10:24:50Z</time>
      </trkpt>
      <trkpt lat="45.62468" lon="6.21269">
        <ele>1164</ele>
        <time>2010-10-09T10:24:52Z</time>
      </trkpt>
      <trkpt lat="45.62466" lon="6.21265">
        <ele>1164</ele>
        <time>2010-10-09T10:24:54Z</time>
      </trkpt>
      <trkpt lat="45.62466" lon="6.21263">
        <ele>1164</ele>
        <time>2010-10-09T10:24:55Z</time>
      </trkpt>
      <trkpt lat="45.62463" lon="6.21259">
        <ele>1164</ele>
        <time>2010-10-09T10:24:58Z</time>
      </trkpt>
      <trkpt lat="45.62461" lon="6.21256">
        <ele>1165</ele>
        <time>2010-10-09T10:25:00Z</time>
      </trkpt>
      <trkpt lat="45.6246" lon="6.21255">
        <ele>1165</ele>
        <time>2010-10-09T10:25:01Z</time>
      </trkpt>
      <trkpt lat="45.62459" lon="6.21254">
        <ele>1165</ele>
        <time>2010-10-09T10:25:03Z</time>
      </trkpt>
      <trkpt lat="45.62458" lon="6.21256">
        <ele>1166</ele>
        <time>2010-10-09T10:25:05Z</time>
      </trkpt>
      <trkpt lat="45.62464" lon="6.21261">
        <ele>1164</ele>
        <time>2010-10-09T10:25:08Z</time>
      </trkpt>
      <trkpt lat="45.6247" lon="6.21266">
        <ele>1163</ele>
        <time>2010-10-09T10:25:10Z</time>
      </trkpt>
      <trkpt lat="45.62473" lon="6.21268">
        <ele>1162</ele>
        <time>2010-10-09T10:25:11Z</time>
      </trkpt>
      <trkpt lat="45.62475" lon="6.21269">
        <ele>1162</ele>
        <time>2010-10-09T10:25:13Z</time>
      </trkpt>
      <trkpt lat="45.62477" lon="6.21269">
        <ele>1161</ele>
        <time>2010-10-09T10:25:16Z</time>
      </trkpt>
      <trkpt lat="45.62479" lon="6.21269">
        <ele>1161</ele>
        <time>2010-10-09T10:25:19Z</time>
      </trkpt>
      <trkpt lat="45.62484" lon="6.21268">
        <ele>1160</ele>
        <time>2010-10-09T10:25:22Z</time>
      </trkpt>
      <trkpt lat="45.62487" lon="6.21267">
        <ele>1159</ele>
        <time>2010-10-09T10:25:23Z</time>
      </trkpt>
      <trkpt lat="45.62489" lon="6.21269">
        <ele>1159</ele>
        <time>2010-10-09T10:25:25Z</time>
      </trkpt>
      <trkpt lat="45.62491" lon="6.2127">
        <ele>1159</ele>
        <time>2010-10-09T10:25:27Z</time>
      </trkpt>
      <trkpt lat="45.62493" lon="6.2127">
        <ele>1158</ele>
        <time>2010-10-09T10:25:29Z</time>
      </trkpt>
      <trkpt lat="45.62496" lon="6.21271">
        <ele>1158</ele>
        <time>2010-10-09T10:25:31Z</time>
      </trkpt>
      <trkpt lat="45.62498" lon="6.21271">
        <ele>1158</ele>
        <time>2010-10-09T10:25:33Z</time>
      </trkpt>
      <trkpt lat="45.62501" lon="6.2127">
        <ele>1152</ele>
        <time>2010-10-09T10:25:36Z</time>
      </trkpt>
      <trkpt lat="45.62502" lon="6.21269">
        <ele>1152</ele>
        <time>2010-10-09T10:25:39Z</time>
      </trkpt>
      <trkpt lat="45.62504" lon="6.21269">
        <ele>1152</ele>
        <time>2010-10-09T10:25:40Z</time>
      </trkpt>
      <trkpt lat="45.62502" lon="6.21267">
        <ele>1152</ele>
        <time>2010-10-09T10:25:44Z</time>
      </trkpt>
      <trkpt lat="45.62502" lon="6.21265">
        <ele>1151</ele>
        <time>2010-10-09T10:25:45Z</time>
      </trkpt>
      <trkpt lat="45.62503" lon="6.21263">
        <ele>1151</ele>
        <time>2010-10-09T10:25:52Z</time>
      </trkpt>
      <trkpt lat="45.62506" lon="6.21263">
        <ele>1151</ele>
        <time>2010-10-09T10:25:53Z</time>
      </trkpt>
      <trkpt lat="45.62505" lon="6.2126">
        <ele>1151</ele>
        <time>2010-10-09T10:25:57Z</time>
      </trkpt>
      <trkpt lat="45.62506" lon="6.21257">
        <ele>1150</ele>
        <time>2010-10-09T10:25:58Z</time>
      </trkpt>
      <trkpt lat="45.62506" lon="6.21255">
        <ele>1150</ele>
        <time>2010-10-09T10:26:00Z</time>
      </trkpt>
      <trkpt lat="45.62508" lon="6.21253">
        <ele>1150</ele>
        <time>2010-10-09T10:26:02Z</time>
      </trkpt>
      <trkpt lat="45.62507" lon="6.2125">
        <ele>1147</ele>
        <time>2010-10-09T10:26:05Z</time>
      </trkpt>
      <trkpt lat="45.6251" lon="6.2125">
        <ele>1150</ele>
        <time>2010-10-09T10:26:09Z</time>
      </trkpt>
      <trkpt lat="45.6251" lon="6.21248">
        <ele>1146</ele>
        <time>2010-10-09T10:26:10Z</time>
      </trkpt>
      <trkpt lat="45.6251" lon="6.21245">
        <ele>1146</ele>
        <time>2010-10-09T10:26:12Z</time>
      </trkpt>
      <trkpt lat="45.62511" lon="6.21245">
        <ele>1146</ele>
        <time>2010-10-09T10:26:15Z</time>
      </trkpt>
      <trkpt lat="45.62512" lon="6.21245">
        <ele>1146</ele>
        <time>2010-10-09T10:26:17Z</time>
      </trkpt>
      <trkpt lat="45.62513" lon="6.21245">
        <ele>1146</ele>
        <time>2010-10-09T10:26:19Z</time>
      </trkpt>
      <trkpt lat="45.62519" lon="6.21234">
        <ele>1144</ele>
        <time>2010-10-09T10:26:23Z</time>
      </trkpt>
      <trkpt lat="45.62519" lon="6.2123">
        <ele>1144</ele>
        <time>2010-10-09T10:26:25Z</time>
      </trkpt>
      <trkpt lat="45.6252" lon="6.21228">
        <ele>1144</ele>
        <time>2010-10-09T10:26:27Z</time>
      </trkpt>
      <trkpt lat="45.62518" lon="6.21225">
        <ele>1144</ele>
        <time>2010-10-09T10:26:29Z</time>
      </trkpt>
      <trkpt lat="45.62524" lon="6.21222">
        <ele>1143</ele>
        <time>2010-10-09T10:26:34Z</time>
      </trkpt>
      <trkpt lat="45.62526" lon="6.21221">
        <ele>1143</ele>
        <time>2010-10-09T10:26:36Z</time>
      </trkpt>
      <trkpt lat="45.62526" lon="6.21219">
        <ele>1143</ele>
        <time>2010-10-09T10:26:37Z</time>
      </trkpt>
      <trkpt lat="45.62527" lon="6.21216">
        <ele>1143</ele>
        <time>2010-10-09T10:26:40Z</time>
      </trkpt>
      <trkpt lat="45.62529" lon="6.21215">
        <ele>1143</ele>
        <time>2010-10-09T10:26:43Z</time>
      </trkpt>
      <trkpt lat="45.62525" lon="6.21212">
        <ele>1143</ele>
        <time>2010-10-09T10:26:44Z</time>
      </trkpt>
      <trkpt lat="45.62523" lon="6.21213">
        <ele>1143</ele>
        <time>2010-10-09T10:26:46Z</time>
      </trkpt>
      <trkpt lat="45.62522" lon="6.21213">
        <ele>1143</ele>
        <time>2010-10-09T10:26:49Z</time>
      </trkpt>
      <trkpt lat="45.62523" lon="6.21211">
        <ele>1143</ele>
        <time>2010-10-09T10:26:53Z</time>
      </trkpt>
      <trkpt lat="45.62522" lon="6.21209">
        <ele>1143</ele>
        <time>2010-10-09T10:26:55Z</time>
      </trkpt>
      <trkpt lat="45.62522" lon="6.21206">
        <ele>1143</ele>
        <time>2010-10-09T10:26:58Z</time>
      </trkpt>
      <trkpt lat="45.62523" lon="6.21204">
        <ele>1143</ele>
        <time>2010-10-09T10:27:00Z</time>
      </trkpt>
      <trkpt lat="45.62522" lon="6.21202">
        <ele>1143</ele>
        <time>2010-10-09T10:27:01Z</time>
      </trkpt>
      <trkpt lat="45.62522" lon="6.21199">
        <ele>1143</ele>
        <time>2010-10-09T10:27:03Z</time>
      </trkpt>
      <trkpt lat="45.62522" lon="6.21197">
        <ele>1143</ele>
        <time>2010-10-09T10:27:04Z</time>
      </trkpt>
      <trkpt lat="45.62523" lon="6.21195">
        <ele>1143</ele>
        <time>2010-10-09T10:27:05Z</time>
      </trkpt>
      <trkpt lat="45.62525" lon="6.21191">
        <ele>1142</ele>
        <time>2010-10-09T10:27:10Z</time>
      </trkpt>
      <trkpt lat="45.62526" lon="6.21189">
        <ele>1142</ele>
        <time>2010-10-09T10:27:13Z</time>
      </trkpt>
      <trkpt lat="45.62526" lon="6.21187">
        <ele>1142</ele>
        <time>2010-10-09T10:27:16Z</time>
      </trkpt>
      <trkpt lat="45.62525" lon="6.21184">
        <ele>1142</ele>
        <time>2010-10-09T10:27:18Z</time>
      </trkpt>
      <trkpt lat="45.62527" lon="6.21183">
        <ele>1142</ele>
        <time>2010-10-09T10:27:19Z</time>
      </trkpt>
      <trkpt lat="45.62529" lon="6.21182">
        <ele>1142</ele>
        <time>2010-10-09T10:27:22Z</time>
      </trkpt>
      <trkpt lat="45.62531" lon="6.2118">
        <ele>1141</ele>
        <time>2010-10-09T10:27:24Z</time>
      </trkpt>
      <trkpt lat="45.6253" lon="6.21177">
        <ele>1142</ele>
        <time>2010-10-09T10:27:25Z</time>
      </trkpt>
      <trkpt lat="45.62529" lon="6.21175">
        <ele>1142</ele>
        <time>2010-10-09T10:27:27Z</time>
      </trkpt>
      <trkpt lat="45.6253" lon="6.21168">
        <ele>1142</ele>
        <time>2010-10-09T10:27:30Z</time>
      </trkpt>
      <trkpt lat="45.6253" lon="6.21164">
        <ele>1140</ele>
        <time>2010-10-09T10:27:33Z</time>
      </trkpt>
      <trkpt lat="45.6253" lon="6.21162">
        <ele>1140</ele>
        <time>2010-10-09T10:27:34Z</time>
      </trkpt>
      <trkpt lat="45.62532" lon="6.21161">
        <ele>1139</ele>
        <time>2010-10-09T10:27:35Z</time>
      </trkpt>
      <trkpt lat="45.62534" lon="6.21164">
        <ele>1139</ele>
        <time>2010-10-09T10:27:41Z</time>
      </trkpt>
      <trkpt lat="45.62537" lon="6.21166">
        <ele>1138</ele>
        <time>2010-10-09T10:27:44Z</time>
      </trkpt>
      <trkpt lat="45.62539" lon="6.21167">
        <ele>1140</ele>
        <time>2010-10-09T10:27:48Z</time>
      </trkpt>
      <trkpt lat="45.6254" lon="6.21168">
        <ele>1140</ele>
        <time>2010-10-09T10:27:49Z</time>
      </trkpt>
      <trkpt lat="45.62541" lon="6.21169">
        <ele>1139</ele>
        <time>2010-10-09T10:27:51Z</time>
      </trkpt>
      <trkpt lat="45.62546" lon="6.2117">
        <ele>1138</ele>
        <time>2010-10-09T10:27:53Z</time>
      </trkpt>
      <trkpt lat="45.62545" lon="6.21172">
        <ele>1138</ele>
        <time>2010-10-09T10:27:54Z</time>
      </trkpt>
      <trkpt lat="45.62547" lon="6.21173">
        <ele>1138</ele>
        <time>2010-10-09T10:27:55Z</time>
      </trkpt>
      <trkpt lat="45.62549" lon="6.2117">
        <ele>1137</ele>
        <time>2010-10-09T10:27:58Z</time>
      </trkpt>
      <trkpt lat="45.6255" lon="6.21168">
        <ele>1137</ele>
        <time>2010-10-09T10:28:00Z</time>
      </trkpt>
      <trkpt lat="45.62548" lon="6.21167">
        <ele>1137</ele>
        <time>2010-10-09T10:28:02Z</time>
      </trkpt>
      <trkpt lat="45.62548" lon="6.21165">
        <ele>1135</ele>
        <time>2010-10-09T10:28:03Z</time>
      </trkpt>
      <trkpt lat="45.62549" lon="6.2116">
        <ele>1135</ele>
        <time>2010-10-09T10:28:05Z</time>
      </trkpt>
      <trkpt lat="45.62549" lon="6.21158">
        <ele>1135</ele>
        <time>2010-10-09T10:28:07Z</time>
      </trkpt>
      <trkpt lat="45.6255" lon="6.21156">
        <ele>1135</ele>
        <time>2010-10-09T10:28:08Z</time>
      </trkpt>
      <trkpt lat="45.6255" lon="6.21152">
        <ele>1135</ele>
        <time>2010-10-09T10:28:10Z</time>
      </trkpt>
      <trkpt lat="45.6255" lon="6.21151">
        <ele>1135</ele>
        <time>2010-10-09T10:28:11Z</time>
      </trkpt>
      <trkpt lat="45.6255" lon="6.21148">
        <ele>1135</ele>
        <time>2010-10-09T10:28:13Z</time>
      </trkpt>
      <trkpt lat="45.6255" lon="6.21145">
        <ele>1135</ele>
        <time>2010-10-09T10:28:17Z</time>
      </trkpt>
      <trkpt lat="45.6255" lon="6.21143">
        <ele>1135</ele>
        <time>2010-10-09T10:28:18Z</time>
      </trkpt>
      <trkpt lat="45.62551" lon="6.21141">
        <ele>1135</ele>
        <time>2010-10-09T10:28:20Z</time>
      </trkpt>
      <trkpt lat="45.62552" lon="6.21139">
        <ele>1135</ele>
        <time>2010-10-09T10:28:22Z</time>
      </trkpt>
      <trkpt lat="45.62551" lon="6.21136">
        <ele>1135</ele>
        <time>2010-10-09T10:28:25Z</time>
      </trkpt>
      <trkpt lat="45.62552" lon="6.21133">
        <ele>1135</ele>
        <time>2010-10-09T10:28:26Z</time>
      </trkpt>
      <trkpt lat="45.62553" lon="6.21131">
        <ele>1135</ele>
        <time>2010-10-09T10:28:28Z</time>
      </trkpt>
      <trkpt lat="45.62554" lon="6.21129">
        <ele>1135</ele>
        <time>2010-10-09T10:28:31Z</time>
      </trkpt>
      <trkpt lat="45.62556" lon="6.21127">
        <ele>1134</ele>
        <time>2010-10-09T10:28:33Z</time>
      </trkpt>
      <trkpt lat="45.62557" lon="6.21125">
        <ele>1134</ele>
        <time>2010-10-09T10:28:34Z</time>
      </trkpt>
      <trkpt lat="45.62558" lon="6.21122">
        <ele>1134</ele>
        <time>2010-10-09T10:28:37Z</time>
      </trkpt>
      <trkpt lat="45.62559" lon="6.21119">
        <ele>1134</ele>
        <time>2010-10-09T10:28:39Z</time>
      </trkpt>
      <trkpt lat="45.6256" lon="6.21118">
        <ele>1133</ele>
        <time>2010-10-09T10:28:41Z</time>
      </trkpt>
      <trkpt lat="45.62562" lon="6.21114">
        <ele>1133</ele>
        <time>2010-10-09T10:28:44Z</time>
      </trkpt>
      <trkpt lat="45.62564" lon="6.21109">
        <ele>1132</ele>
        <time>2010-10-09T10:28:48Z</time>
      </trkpt>
      <trkpt lat="45.62564" lon="6.21108">
        <ele>1132</ele>
        <time>2010-10-09T10:28:50Z</time>
      </trkpt>
      <trkpt lat="45.62566" lon="6.21104">
        <ele>1130</ele>
        <time>2010-10-09T10:28:51Z</time>
      </trkpt>
      <trkpt lat="45.62568" lon="6.21102">
        <ele>1129</ele>
        <time>2010-10-09T10:28:54Z</time>
      </trkpt>
      <trkpt lat="45.62569" lon="6.21099">
        <ele>1128</ele>
        <time>2010-10-09T10:28:58Z</time>
      </trkpt>
      <trkpt lat="45.62574" lon="6.21097">
        <ele>1127</ele>
        <time>2010-10-09T10:29:00Z</time>
      </trkpt>
      <trkpt lat="45.62577" lon="6.21097">
        <ele>1126</ele>
        <time>2010-10-09T10:29:02Z</time>
      </trkpt>
      <trkpt lat="45.6258" lon="6.21095">
        <ele>1124</ele>
        <time>2010-10-09T10:29:03Z</time>
      </trkpt>
      <trkpt lat="45.62582" lon="6.21092">
        <ele>1122</ele>
        <time>2010-10-09T10:29:04Z</time>
      </trkpt>
      <trkpt lat="45.62585" lon="6.2109">
        <ele>1116</ele>
        <time>2010-10-09T10:29:07Z</time>
      </trkpt>
      <trkpt lat="45.62585" lon="6.21088">
        <ele>1116</ele>
        <time>2010-10-09T10:29:12Z</time>
      </trkpt>
      <trkpt lat="45.62582" lon="6.21087">
        <ele>1119</ele>
        <time>2010-10-09T10:29:14Z</time>
      </trkpt>
      <trkpt lat="45.62586" lon="6.21087">
        <ele>1116</ele>
        <time>2010-10-09T10:29:16Z</time>
      </trkpt>
      <trkpt lat="45.62585" lon="6.21085">
        <ele>1116</ele>
        <time>2010-10-09T10:29:19Z</time>
      </trkpt>
      <trkpt lat="45.62585" lon="6.21083">
        <ele>1116</ele>
        <time>2010-10-09T10:29:21Z</time>
      </trkpt>
      <trkpt lat="45.62589" lon="6.21083">
        <ele>1115</ele>
        <time>2010-10-09T10:29:23Z</time>
      </trkpt>
      <trkpt lat="45.62591" lon="6.21083">
        <ele>1114</ele>
        <time>2010-10-09T10:29:24Z</time>
      </trkpt>
      <trkpt lat="45.62593" lon="6.21081">
        <ele>1114</ele>
        <time>2010-10-09T10:29:26Z</time>
      </trkpt>
      <trkpt lat="45.62597" lon="6.2108">
        <ele>1113</ele>
        <time>2010-10-09T10:29:30Z</time>
      </trkpt>
      <trkpt lat="45.62599" lon="6.21081">
        <ele>1113</ele>
        <time>2010-10-09T10:29:33Z</time>
      </trkpt>
      <trkpt lat="45.62601" lon="6.21082">
        <ele>1113</ele>
        <time>2010-10-09T10:29:37Z</time>
      </trkpt>
      <trkpt lat="45.62603" lon="6.21083">
        <ele>1112</ele>
        <time>2010-10-09T10:29:39Z</time>
      </trkpt>
      <trkpt lat="45.62604" lon="6.21084">
        <ele>1115</ele>
        <time>2010-10-09T10:29:43Z</time>
      </trkpt>
      <trkpt lat="45.62606" lon="6.21083">
        <ele>1115</ele>
        <time>2010-10-09T10:29:46Z</time>
      </trkpt>
      <trkpt lat="45.62608" lon="6.21083">
        <ele>1115</ele>
        <time>2010-10-09T10:29:49Z</time>
      </trkpt>
      <trkpt lat="45.6261" lon="6.21084">
        <ele>1115</ele>
        <time>2010-10-09T10:29:50Z</time>
      </trkpt>
      <trkpt lat="45.62611" lon="6.21084">
        <ele>1115</ele>
        <time>2010-10-09T10:29:53Z</time>
      </trkpt>
      <trkpt lat="45.62613" lon="6.21085">
        <ele>1115</ele>
        <time>2010-10-09T10:29:59Z</time>
      </trkpt>
      <trkpt lat="45.62614" lon="6.21086">
        <ele>1114</ele>
        <time>2010-10-09T10:30:01Z</time>
      </trkpt>
      <trkpt lat="45.62616" lon="6.21089">
        <ele>1114</ele>
        <time>2010-10-09T10:30:02Z</time>
      </trkpt>
      <trkpt lat="45.62617" lon="6.2109">
        <ele>1114</ele>
        <time>2010-10-09T10:30:05Z</time>
      </trkpt>
      <trkpt lat="45.62619" lon="6.21092">
        <ele>1114</ele>
        <time>2010-10-09T10:30:07Z</time>
      </trkpt>
      <trkpt lat="45.6262" lon="6.21091">
        <ele>1114</ele>
        <time>2010-10-09T10:30:08Z</time>
      </trkpt>
      <trkpt lat="45.62622" lon="6.21089">
        <ele>1114</ele>
        <time>2010-10-09T10:30:09Z</time>
      </trkpt>
      <trkpt lat="45.62624" lon="6.2109">
        <ele>1114</ele>
        <time>2010-10-09T10:30:12Z</time>
      </trkpt>
      <trkpt lat="45.62625" lon="6.21088">
        <ele>1113</ele>
        <time>2010-10-09T10:30:15Z</time>
      </trkpt>
      <trkpt lat="45.62626" lon="6.21084">
        <ele>1113</ele>
        <time>2010-10-09T10:30:18Z</time>
      </trkpt>
      <trkpt lat="45.62627" lon="6.21082">
        <ele>1109</ele>
        <time>2010-10-09T10:30:21Z</time>
      </trkpt>
      <trkpt lat="45.6263" lon="6.2108">
        <ele>1108</ele>
        <time>2010-10-09T10:30:27Z</time>
      </trkpt>
      <trkpt lat="45.62631" lon="6.21079">
        <ele>1108</ele>
        <time>2010-10-09T10:30:30Z</time>
      </trkpt>
      <trkpt lat="45.62632" lon="6.21077">
        <ele>1108</ele>
        <time>2010-10-09T10:30:34Z</time>
      </trkpt>
      <trkpt lat="45.62639" lon="6.21081">
        <ele>1107</ele>
        <time>2010-10-09T10:30:38Z</time>
      </trkpt>
      <trkpt lat="45.62642" lon="6.2108">
        <ele>1106</ele>
        <time>2010-10-09T10:30:40Z</time>
      </trkpt>
      <trkpt lat="45.62643" lon="6.21079">
        <ele>1106</ele>
        <time>2010-10-09T10:30:41Z</time>
      </trkpt>
      <trkpt lat="45.62645" lon="6.21078">
        <ele>1105</ele>
        <time>2010-10-09T10:30:42Z</time>
      </trkpt>
      <trkpt lat="45.6265" lon="6.21075">
        <ele>1105</ele>
        <time>2010-10-09T10:30:44Z</time>
      </trkpt>
      <trkpt lat="45.62656" lon="6.21071">
        <ele>1104</ele>
        <time>2010-10-09T10:30:46Z</time>
      </trkpt>
      <trkpt lat="45.62664" lon="6.21067">
        <ele>1104</ele>
        <time>2010-10-09T10:30:48Z</time>
      </trkpt>
      <trkpt lat="45.62668" lon="6.21064">
        <ele>1100</ele>
        <time>2010-10-09T10:30:49Z</time>
      </trkpt>
      <trkpt lat="45.62678" lon="6.21056">
        <ele>1100</ele>
        <time>2010-10-09T10:30:51Z</time>
      </trkpt>
      <trkpt lat="45.62683" lon="6.2105">
        <ele>1100</ele>
        <time>2010-10-09T10:30:52Z</time>
      </trkpt>
      <trkpt lat="45.62695" lon="6.21037">
        <ele>1099</ele>
        <time>2010-10-09T10:30:54Z</time>
      </trkpt>
      <trkpt lat="45.62708" lon="6.21022">
        <ele>1098</ele>
        <time>2010-10-09T10:30:56Z</time>
      </trkpt>
      <trkpt lat="45.62715" lon="6.21014">
        <ele>1098</ele>
        <time>2010-10-09T10:30:57Z</time>
      </trkpt>
      <trkpt lat="45.62722" lon="6.21006">
        <ele>1097</ele>
        <time>2010-10-09T10:30:58Z</time>
      </trkpt>
      <trkpt lat="45.6273" lon="6.20999">
        <ele>1091</ele>
        <time>2010-10-09T10:30:59Z</time>
      </trkpt>
      <trkpt lat="45.62737" lon="6.20991">
        <ele>1091</ele>
        <time>2010-10-09T10:31:00Z</time>
      </trkpt>
      <trkpt lat="45.62751" lon="6.20974">
        <ele>1091</ele>
        <time>2010-10-09T10:31:02Z</time>
      </trkpt>
      <trkpt lat="45.62757" lon="6.20965">
        <ele>1090</ele>
        <time>2010-10-09T10:31:03Z</time>
      </trkpt>
      <trkpt lat="45.62765" lon="6.20956">
        <ele>1090</ele>
        <time>2010-10-09T10:31:04Z</time>
      </trkpt>
      <trkpt lat="45.62778" lon="6.20941">
        <ele>1089</ele>
        <time>2010-10-09T10:31:06Z</time>
      </trkpt>
      <trkpt lat="45.62784" lon="6.20934">
        <ele>1089</ele>
        <time>2010-10-09T10:31:07Z</time>
      </trkpt>
      <trkpt lat="45.62796" lon="6.20918">
        <ele>1089</ele>
        <time>2010-10-09T10:31:09Z</time>
      </trkpt>
      <trkpt lat="45.62802" lon="6.20911">
        <ele>1080</ele>
        <time>2010-10-09T10:31:10Z</time>
      </trkpt>
      <trkpt lat="45.62815" lon="6.20897">
        <ele>1080</ele>
        <time>2010-10-09T10:31:12Z</time>
      </trkpt>
      <trkpt lat="45.62822" lon="6.20891">
        <ele>1080</ele>
        <time>2010-10-09T10:31:13Z</time>
      </trkpt>
      <trkpt lat="45.62829" lon="6.20886">
        <ele>1079</ele>
        <time>2010-10-09T10:31:14Z</time>
      </trkpt>
      <trkpt lat="45.62844" lon="6.20876">
        <ele>1085</ele>
        <time>2010-10-09T10:31:16Z</time>
      </trkpt>
      <trkpt lat="45.62851" lon="6.20872">
        <ele>1085</ele>
        <time>2010-10-09T10:31:17Z</time>
      </trkpt>
      <trkpt lat="45.62857" lon="6.20869">
        <ele>1085</ele>
        <time>2010-10-09T10:31:18Z</time>
      </trkpt>
      <trkpt lat="45.62861" lon="6.20867">
        <ele>1085</ele>
        <time>2010-10-09T10:31:19Z</time>
      </trkpt>
      <trkpt lat="45.62863" lon="6.20866">
        <ele>1085</ele>
        <time>2010-10-09T10:31:20Z</time>
      </trkpt>
      <trkpt lat="45.62867" lon="6.20862">
        <ele>1085</ele>
        <time>2010-10-09T10:31:22Z</time>
      </trkpt>
      <trkpt lat="45.62869" lon="6.20859">
        <ele>1085</ele>
        <time>2010-10-09T10:31:23Z</time>
      </trkpt>
      <trkpt lat="45.62872" lon="6.20854">
        <ele>1085</ele>
        <time>2010-10-09T10:31:25Z</time>
      </trkpt>
      <trkpt lat="45.62875" lon="6.20851">
        <ele>1085</ele>
        <time>2010-10-09T10:31:28Z</time>
      </trkpt>
      <trkpt lat="45.62875" lon="6.20853">
        <ele>1086</ele>
        <time>2010-10-09T10:31:33Z</time>
      </trkpt>
      <trkpt lat="45.62878" lon="6.20853">
        <ele>1086</ele>
        <time>2010-10-09T10:31:35Z</time>
      </trkpt>
      <trkpt lat="45.62874" lon="6.20848">
        <ele>1085</ele>
        <time>2010-10-09T10:31:38Z</time>
      </trkpt>
      <trkpt lat="45.62874" lon="6.20846">
        <ele>1085</ele>
        <time>2010-10-09T10:31:41Z</time>
      </trkpt>
      <trkpt lat="45.62873" lon="6.20846">
        <ele>1085</ele>
        <time>2010-10-09T10:31:42Z</time>
      </trkpt>
      <trkpt lat="45.62871" lon="6.20844">
        <ele>1084</ele>
        <time>2010-10-09T10:31:45Z</time>
      </trkpt>
      <trkpt lat="45.62869" lon="6.20842">
        <ele>1084</ele>
        <time>2010-10-09T10:31:48Z</time>
      </trkpt>
      <trkpt lat="45.62868" lon="6.20841">
        <ele>1083</ele>
        <time>2010-10-09T10:31:49Z</time>
      </trkpt>
      <trkpt lat="45.62867" lon="6.20837">
        <ele>1083</ele>
        <time>2010-10-09T10:31:52Z</time>
      </trkpt>
      <trkpt lat="45.62867" lon="6.20836">
        <ele>1083</ele>
        <time>2010-10-09T10:31:53Z</time>
      </trkpt>
      <trkpt lat="45.62867" lon="6.20834">
        <ele>1083</ele>
        <time>2010-10-09T10:31:54Z</time>
      </trkpt>
      <trkpt lat="45.62868" lon="6.20831">
        <ele>1073</ele>
        <time>2010-10-09T10:31:56Z</time>
      </trkpt>
      <trkpt lat="45.62869" lon="6.20823">
        <ele>1073</ele>
        <time>2010-10-09T10:31:57Z</time>
      </trkpt>
      <trkpt lat="45.62871" lon="6.20814">
        <ele>1073</ele>
        <time>2010-10-09T10:31:59Z</time>
      </trkpt>
      <trkpt lat="45.62872" lon="6.20809">
        <ele>1073</ele>
        <time>2010-10-09T10:32:00Z</time>
      </trkpt>
      <trkpt lat="45.62873" lon="6.20805">
        <ele>1073</ele>
        <time>2010-10-09T10:32:01Z</time>
      </trkpt>
      <trkpt lat="45.62875" lon="6.20801">
        <ele>1073</ele>
        <time>2010-10-09T10:32:02Z</time>
      </trkpt>
      <trkpt lat="45.62877" lon="6.20798">
        <ele>1073</ele>
        <time>2010-10-09T10:32:03Z</time>
      </trkpt>
      <trkpt lat="45.62879" lon="6.20795">
        <ele>1072</ele>
        <time>2010-10-09T10:32:04Z</time>
      </trkpt>
      <trkpt lat="45.62887" lon="6.20785">
        <ele>1072</ele>
        <time>2010-10-09T10:32:06Z</time>
      </trkpt>
      <trkpt lat="45.62892" lon="6.2078">
        <ele>1071</ele>
        <time>2010-10-09T10:32:07Z</time>
      </trkpt>
      <trkpt lat="45.62905" lon="6.20769">
        <ele>1069</ele>
        <time>2010-10-09T10:32:09Z</time>
      </trkpt>
      <trkpt lat="45.62912" lon="6.20762">
        <ele>1067</ele>
        <time>2010-10-09T10:32:10Z</time>
      </trkpt>
      <trkpt lat="45.6292" lon="6.20755">
        <ele>1067</ele>
        <time>2010-10-09T10:32:11Z</time>
      </trkpt>
      <trkpt lat="45.62936" lon="6.20743">
        <ele>1061</ele>
        <time>2010-10-09T10:32:13Z</time>
      </trkpt>
      <trkpt lat="45.62944" lon="6.20735">
        <ele>1061</ele>
        <time>2010-10-09T10:32:14Z</time>
      </trkpt>
      <trkpt lat="45.62951" lon="6.20727">
        <ele>1060</ele>
        <time>2010-10-09T10:32:15Z</time>
      </trkpt>
      <trkpt lat="45.62957" lon="6.20719">
        <ele>1059</ele>
        <time>2010-10-09T10:32:16Z</time>
      </trkpt>
      <trkpt lat="45.62965" lon="6.20712">
        <ele>1059</ele>
        <time>2010-10-09T10:32:17Z</time>
      </trkpt>
      <trkpt lat="45.62981" lon="6.20701">
        <ele>1058</ele>
        <time>2010-10-09T10:32:19Z</time>
      </trkpt>
      <trkpt lat="45.62989" lon="6.20697">
        <ele>1057</ele>
        <time>2010-10-09T10:32:20Z</time>
      </trkpt>
      <trkpt lat="45.63005" lon="6.2069">
        <ele>1065</ele>
        <time>2010-10-09T10:32:22Z</time>
      </trkpt>
      <trkpt lat="45.63012" lon="6.20686">
        <ele>1065</ele>
        <time>2010-10-09T10:32:23Z</time>
      </trkpt>
      <trkpt lat="45.63027" lon="6.20679">
        <ele>1067</ele>
        <time>2010-10-09T10:32:25Z</time>
      </trkpt>
      <trkpt lat="45.63034" lon="6.20676">
        <ele>1069</ele>
        <time>2010-10-09T10:32:26Z</time>
      </trkpt>
      <trkpt lat="45.63041" lon="6.20672">
        <ele>1070</ele>
        <time>2010-10-09T10:32:27Z</time>
      </trkpt>
      <trkpt lat="45.63053" lon="6.20664">
        <ele>1055</ele>
        <time>2010-10-09T10:32:29Z</time>
      </trkpt>
      <trkpt lat="45.63058" lon="6.2066">
        <ele>1056</ele>
        <time>2010-10-09T10:32:30Z</time>
      </trkpt>
      <trkpt lat="45.63064" lon="6.20656">
        <ele>1058</ele>
        <time>2010-10-09T10:32:31Z</time>
      </trkpt>
      <trkpt lat="45.63074" lon="6.20647">
        <ele>1058</ele>
        <time>2010-10-09T10:32:33Z</time>
      </trkpt>
      <trkpt lat="45.63078" lon="6.20643">
        <ele>1057</ele>
        <time>2010-10-09T10:32:34Z</time>
      </trkpt>
      <trkpt lat="45.63083" lon="6.20638">
        <ele>1055</ele>
        <time>2010-10-09T10:32:35Z</time>
      </trkpt>
      <trkpt lat="45.63087" lon="6.20634">
        <ele>1072</ele>
        <time>2010-10-09T10:32:36Z</time>
      </trkpt>
      <trkpt lat="45.63097" lon="6.20626">
        <ele>1071</ele>
        <time>2010-10-09T10:32:38Z</time>
      </trkpt>
      <trkpt lat="45.63105" lon="6.20616">
        <ele>1070</ele>
        <time>2010-10-09T10:32:40Z</time>
      </trkpt>
      <trkpt lat="45.63109" lon="6.20609">
        <ele>1069</ele>
        <time>2010-10-09T10:32:41Z</time>
      </trkpt>
      <trkpt lat="45.63113" lon="6.20602">
        <ele>1069</ele>
        <time>2010-10-09T10:32:42Z</time>
      </trkpt>
      <trkpt lat="45.63121" lon="6.20588">
        <ele>1070</ele>
        <time>2010-10-09T10:32:44Z</time>
      </trkpt>
      <trkpt lat="45.63126" lon="6.20581">
        <ele>1054</ele>
        <time>2010-10-09T10:32:45Z</time>
      </trkpt>
      <trkpt lat="45.63131" lon="6.20575">
        <ele>1055</ele>
        <time>2010-10-09T10:32:46Z</time>
      </trkpt>
      <trkpt lat="45.63135" lon="6.20567">
        <ele>1056</ele>
        <time>2010-10-09T10:32:47Z</time>
      </trkpt>
      <trkpt lat="45.63143" lon="6.20551">
        <ele>1055</ele>
        <time>2010-10-09T10:32:49Z</time>
      </trkpt>
      <trkpt lat="45.63146" lon="6.20543">
        <ele>1054</ele>
        <time>2010-10-09T10:32:50Z</time>
      </trkpt>
      <trkpt lat="45.63149" lon="6.20535">
        <ele>1053</ele>
        <time>2010-10-09T10:32:51Z</time>
      </trkpt>
      <trkpt lat="45.63153" lon="6.20527">
        <ele>1053</ele>
        <time>2010-10-09T10:32:52Z</time>
      </trkpt>
      <trkpt lat="45.63162" lon="6.20514">
        <ele>1054</ele>
        <time>2010-10-09T10:32:54Z</time>
      </trkpt>
      <trkpt lat="45.63173" lon="6.20502">
        <ele>1064</ele>
        <time>2010-10-09T10:32:56Z</time>
      </trkpt>
      <trkpt lat="45.63178" lon="6.20495">
        <ele>1059</ele>
        <time>2010-10-09T10:32:57Z</time>
      </trkpt>
      <trkpt lat="45.63183" lon="6.20487">
        <ele>1060</ele>
        <time>2010-10-09T10:32:58Z</time>
      </trkpt>
      <trkpt lat="45.63188" lon="6.20479">
        <ele>1061</ele>
        <time>2010-10-09T10:32:59Z</time>
      </trkpt>
      <trkpt lat="45.63197" lon="6.20463">
        <ele>1061</ele>
        <time>2010-10-09T10:33:01Z</time>
      </trkpt>
      <trkpt lat="45.63206" lon="6.2045">
        <ele>1061</ele>
        <time>2010-10-09T10:33:03Z</time>
      </trkpt>
      <trkpt lat="45.63211" lon="6.20445">
        <ele>1061</ele>
        <time>2010-10-09T10:33:04Z</time>
      </trkpt>
      <trkpt lat="45.63215" lon="6.20441">
        <ele>1061</ele>
        <time>2010-10-09T10:33:05Z</time>
      </trkpt>
      <trkpt lat="45.63219" lon="6.20438">
        <ele>1062</ele>
        <time>2010-10-09T10:33:06Z</time>
      </trkpt>
      <trkpt lat="45.63225" lon="6.20433">
        <ele>1062</ele>
        <time>2010-10-09T10:33:08Z</time>
      </trkpt>
      <trkpt lat="45.63227" lon="6.2043">
        <ele>1062</ele>
        <time>2010-10-09T10:33:09Z</time>
      </trkpt>
      <trkpt lat="45.63231" lon="6.20428">
        <ele>1063</ele>
        <time>2010-10-09T10:33:10Z</time>
      </trkpt>
      <trkpt lat="45.63233" lon="6.20426">
        <ele>1063</ele>
        <time>2010-10-09T10:33:11Z</time>
      </trkpt>
      <trkpt lat="45.63235" lon="6.20424">
        <ele>1063</ele>
        <time>2010-10-09T10:33:12Z</time>
      </trkpt>
      <trkpt lat="45.63238" lon="6.20421">
        <ele>1063</ele>
        <time>2010-10-09T10:33:13Z</time>
      </trkpt>
      <trkpt lat="45.6324" lon="6.20418">
        <ele>1063</ele>
        <time>2010-10-09T10:33:14Z</time>
      </trkpt>
      <trkpt lat="45.63242" lon="6.20416">
        <ele>1055</ele>
        <time>2010-10-09T10:33:15Z</time>
      </trkpt>
      <trkpt lat="45.63245" lon="6.20414">
        <ele>1057</ele>
        <time>2010-10-09T10:33:16Z</time>
      </trkpt>
      <trkpt lat="45.63248" lon="6.20412">
        <ele>1057</ele>
        <time>2010-10-09T10:33:17Z</time>
      </trkpt>
      <trkpt lat="45.6325" lon="6.2041">
        <ele>1064</ele>
        <time>2010-10-09T10:33:18Z</time>
      </trkpt>
      <trkpt lat="45.63253" lon="6.20408">
        <ele>1064</ele>
        <time>2010-10-09T10:33:19Z</time>
      </trkpt>
      <trkpt lat="45.63255" lon="6.20405">
        <ele>1064</ele>
        <time>2010-10-09T10:33:20Z</time>
      </trkpt>
      <trkpt lat="45.63257" lon="6.20403">
        <ele>1064</ele>
        <time>2010-10-09T10:33:21Z</time>
      </trkpt>
      <trkpt lat="45.6326" lon="6.20401">
        <ele>1064</ele>
        <time>2010-10-09T10:33:22Z</time>
      </trkpt>
      <trkpt lat="45.63262" lon="6.20399">
        <ele>1064</ele>
        <time>2010-10-09T10:33:23Z</time>
      </trkpt>
      <trkpt lat="45.63267" lon="6.20394">
        <ele>1064</ele>
        <time>2010-10-09T10:33:25Z</time>
      </trkpt>
      <trkpt lat="45.63269" lon="6.20391">
        <ele>1064</ele>
        <time>2010-10-09T10:33:26Z</time>
      </trkpt>
      <trkpt lat="45.63272" lon="6.20388">
        <ele>1064</ele>
        <time>2010-10-09T10:33:27Z</time>
      </trkpt>
      <trkpt lat="45.63278" lon="6.20381">
        <ele>1063</ele>
        <time>2010-10-09T10:33:29Z</time>
      </trkpt>
      <trkpt lat="45.63281" lon="6.20378">
        <ele>1063</ele>
        <time>2010-10-09T10:33:30Z</time>
      </trkpt>
      <trkpt lat="45.63285" lon="6.20374">
        <ele>1063</ele>
        <time>2010-10-09T10:33:31Z</time>
      </trkpt>
      <trkpt lat="45.63292" lon="6.20367">
        <ele>1063</ele>
        <time>2010-10-09T10:33:33Z</time>
      </trkpt>
      <trkpt lat="45.63295" lon="6.20363">
        <ele>1063</ele>
        <time>2010-10-09T10:33:34Z</time>
      </trkpt>
      <trkpt lat="45.63299" lon="6.2036">
        <ele>1064</ele>
        <time>2010-10-09T10:33:35Z</time>
      </trkpt>
      <trkpt lat="45.63302" lon="6.20356">
        <ele>1064</ele>
        <time>2010-10-09T10:33:36Z</time>
      </trkpt>
      <trkpt lat="45.63306" lon="6.20352">
        <ele>1064</ele>
        <time>2010-10-09T10:33:37Z</time>
      </trkpt>
      <trkpt lat="45.6331" lon="6.20349">
        <ele>1064</ele>
        <time>2010-10-09T10:33:38Z</time>
      </trkpt>
      <trkpt lat="45.63318" lon="6.20341">
        <ele>1065</ele>
        <time>2010-10-09T10:33:40Z</time>
      </trkpt>
      <trkpt lat="45.63322" lon="6.20337">
        <ele>1065</ele>
        <time>2010-10-09T10:33:41Z</time>
      </trkpt>
      <trkpt lat="45.63326" lon="6.20334">
        <ele>1066</ele>
        <time>2010-10-09T10:33:42Z</time>
      </trkpt>
      <trkpt lat="45.63332" lon="6.20328">
        <ele>1058</ele>
        <time>2010-10-09T10:33:44Z</time>
      </trkpt>
      <trkpt lat="45.63335" lon="6.20325">
        <ele>1064</ele>
        <time>2010-10-09T10:33:45Z</time>
      </trkpt>
      <trkpt lat="45.63338" lon="6.20323">
        <ele>1064</ele>
        <time>2010-10-09T10:33:46Z</time>
      </trkpt>
      <trkpt lat="45.6334" lon="6.20321">
        <ele>1063</ele>
        <time>2010-10-09T10:33:47Z</time>
      </trkpt>
      <trkpt lat="45.63344" lon="6.20318">
        <ele>1063</ele>
        <time>2010-10-09T10:33:49Z</time>
      </trkpt>
      <trkpt lat="45.63346" lon="6.20316">
        <ele>1063</ele>
        <time>2010-10-09T10:33:50Z</time>
      </trkpt>
      <trkpt lat="45.63348" lon="6.20314">
        <ele>1062</ele>
        <time>2010-10-09T10:33:51Z</time>
      </trkpt>
      <trkpt lat="45.63352" lon="6.2031">
        <ele>1062</ele>
        <time>2010-10-09T10:33:53Z</time>
      </trkpt>
      <trkpt lat="45.63354" lon="6.20308">
        <ele>1062</ele>
        <time>2010-10-09T10:33:54Z</time>
      </trkpt>
      <trkpt lat="45.63356" lon="6.20306">
        <ele>1062</ele>
        <time>2010-10-09T10:33:55Z</time>
      </trkpt>
      <trkpt lat="45.63359" lon="6.20305">
        <ele>1062</ele>
        <time>2010-10-09T10:33:56Z</time>
      </trkpt>
      <trkpt lat="45.63361" lon="6.20303">
        <ele>1062</ele>
        <time>2010-10-09T10:33:57Z</time>
      </trkpt>
      <trkpt lat="45.63364" lon="6.20302">
        <ele>1062</ele>
        <time>2010-10-09T10:33:58Z</time>
      </trkpt>
      <trkpt lat="45.63367" lon="6.20299">
        <ele>1062</ele>
        <time>2010-10-09T10:33:59Z</time>
      </trkpt>
      <trkpt lat="45.63373" lon="6.20295">
        <ele>1062</ele>
        <time>2010-10-09T10:34:01Z</time>
      </trkpt>
      <trkpt lat="45.63377" lon="6.20293">
        <ele>1062</ele>
        <time>2010-10-09T10:34:02Z</time>
      </trkpt>
      <trkpt lat="45.6338" lon="6.20291">
        <ele>1062</ele>
        <time>2010-10-09T10:34:03Z</time>
      </trkpt>
      <trkpt lat="45.63386" lon="6.20287">
        <ele>1062</ele>
        <time>2010-10-09T10:34:05Z</time>
      </trkpt>
      <trkpt lat="45.6339" lon="6.20284">
        <ele>1062</ele>
        <time>2010-10-09T10:34:06Z</time>
      </trkpt>
      <trkpt lat="45.63393" lon="6.20282">
        <ele>1062</ele>
        <time>2010-10-09T10:34:07Z</time>
      </trkpt>
      <trkpt lat="45.63395" lon="6.2028">
        <ele>1062</ele>
        <time>2010-10-09T10:34:08Z</time>
      </trkpt>
      <trkpt lat="45.63398" lon="6.20278">
        <ele>1061</ele>
        <time>2010-10-09T10:34:09Z</time>
      </trkpt>
      <trkpt lat="45.63401" lon="6.20275">
        <ele>1061</ele>
        <time>2010-10-09T10:34:10Z</time>
      </trkpt>
      <trkpt lat="45.63404" lon="6.20273">
        <ele>1061</ele>
        <time>2010-10-09T10:34:11Z</time>
      </trkpt>
      <trkpt lat="45.63411" lon="6.20267">
        <ele>1059</ele>
        <time>2010-10-09T10:34:13Z</time>
      </trkpt>
      <trkpt lat="45.63414" lon="6.20265">
        <ele>1059</ele>
        <time>2010-10-09T10:34:14Z</time>
      </trkpt>
      <trkpt lat="45.63417" lon="6.20263">
        <ele>1066</ele>
        <time>2010-10-09T10:34:15Z</time>
      </trkpt>
      <trkpt lat="45.63419" lon="6.20261">
        <ele>1065</ele>
        <time>2010-10-09T10:34:16Z</time>
      </trkpt>
      <trkpt lat="45.63422" lon="6.20258">
        <ele>1064</ele>
        <time>2010-10-09T10:34:17Z</time>
      </trkpt>
      <trkpt lat="45.63425" lon="6.20256">
        <ele>1064</ele>
        <time>2010-10-09T10:34:18Z</time>
      </trkpt>
      <trkpt lat="45.63428" lon="6.20254">
        <ele>1065</ele>
        <time>2010-10-09T10:34:19Z</time>
      </trkpt>
      <trkpt lat="45.63431" lon="6.20251">
        <ele>1066</ele>
        <time>2010-10-09T10:34:20Z</time>
      </trkpt>
      <trkpt lat="45.63435" lon="6.20247">
        <ele>1048</ele>
        <time>2010-10-09T10:34:21Z</time>
      </trkpt>
      <trkpt lat="45.63438" lon="6.20245">
        <ele>1048</ele>
        <time>2010-10-09T10:34:22Z</time>
      </trkpt>
      <trkpt lat="45.63441" lon="6.20243">
        <ele>1047</ele>
        <time>2010-10-09T10:34:23Z</time>
      </trkpt>
      <trkpt lat="45.63447" lon="6.20242">
        <ele>1047</ele>
        <time>2010-10-09T10:34:25Z</time>
      </trkpt>
      <trkpt lat="45.63451" lon="6.20241">
        <ele>1046</ele>
        <time>2010-10-09T10:34:26Z</time>
      </trkpt>
      <trkpt lat="45.63454" lon="6.20238">
        <ele>1046</ele>
        <time>2010-10-09T10:34:27Z</time>
      </trkpt>
      <trkpt lat="45.63457" lon="6.20237">
        <ele>1046</ele>
        <time>2010-10-09T10:34:28Z</time>
      </trkpt>
      <trkpt lat="45.63464" lon="6.20234">
        <ele>1046</ele>
        <time>2010-10-09T10:34:30Z</time>
      </trkpt>
      <trkpt lat="45.63467" lon="6.20232">
        <ele>1046</ele>
        <time>2010-10-09T10:34:31Z</time>
      </trkpt>
      <trkpt lat="45.63472" lon="6.20231">
        <ele>1046</ele>
        <time>2010-10-09T10:34:33Z</time>
      </trkpt>
      <trkpt lat="45.63478" lon="6.20229">
        <ele>1047</ele>
        <time>2010-10-09T10:34:35Z</time>
      </trkpt>
      <trkpt lat="45.6348" lon="6.20228">
        <ele>1047</ele>
        <time>2010-10-09T10:34:36Z</time>
      </trkpt>
      <trkpt lat="45.63483" lon="6.20228">
        <ele>1047</ele>
        <time>2010-10-09T10:34:38Z</time>
      </trkpt>
      <trkpt lat="45.63484" lon="6.20229">
        <ele>1048</ele>
        <time>2010-10-09T10:34:39Z</time>
      </trkpt>
      <trkpt lat="45.63486" lon="6.20231">
        <ele>1049</ele>
        <time>2010-10-09T10:34:40Z</time>
      </trkpt>
      <trkpt lat="45.63488" lon="6.20233">
        <ele>1050</ele>
        <time>2010-10-09T10:34:42Z</time>
      </trkpt>
      <trkpt lat="45.63494" lon="6.20236">
        <ele>1053</ele>
        <time>2010-10-09T10:34:43Z</time>
      </trkpt>
      <trkpt lat="45.63496" lon="6.2024">
        <ele>1055</ele>
        <time>2010-10-09T10:34:45Z</time>
      </trkpt>
      <trkpt lat="45.63501" lon="6.20249">
        <ele>1060</ele>
        <time>2010-10-09T10:34:48Z</time>
      </trkpt>
      <trkpt lat="45.63531" lon="6.20285">
        <ele>1060</ele>
        <time>2010-10-09T10:34:54Z</time>
      </trkpt>
      <trkpt lat="45.63543" lon="6.20316">
        <ele>1062</ele>
        <time>2010-10-09T10:34:56Z</time>
      </trkpt>
      <trkpt lat="45.63549" lon="6.20329">
        <ele>1061</ele>
        <time>2010-10-09T10:34:57Z</time>
      </trkpt>
      <trkpt lat="45.63562" lon="6.20349">
        <ele>1073</ele>
        <time>2010-10-09T10:34:59Z</time>
      </trkpt>
      <trkpt lat="45.63565" lon="6.20355">
        <ele>1074</ele>
        <time>2010-10-09T10:35:00Z</time>
      </trkpt>
      <trkpt lat="45.63569" lon="6.2036">
        <ele>1074</ele>
        <time>2010-10-09T10:35:01Z</time>
      </trkpt>
      <trkpt lat="45.63574" lon="6.20365">
        <ele>1075</ele>
        <time>2010-10-09T10:35:02Z</time>
      </trkpt>
      <trkpt lat="45.63583" lon="6.2037">
        <ele>1075</ele>
        <time>2010-10-09T10:35:04Z</time>
      </trkpt>
      <trkpt lat="45.63586" lon="6.20366">
        <ele>1036</ele>
        <time>2010-10-09T10:35:05Z</time>
      </trkpt>
      <trkpt lat="45.63588" lon="6.20364">
        <ele>1035</ele>
        <time>2010-10-09T10:35:07Z</time>
      </trkpt>
      <trkpt lat="45.63589" lon="6.2036">
        <ele>1035</ele>
        <time>2010-10-09T10:35:08Z</time>
      </trkpt>
      <trkpt lat="45.63588" lon="6.20353">
        <ele>1036</ele>
        <time>2010-10-09T10:35:09Z</time>
      </trkpt>
      <trkpt lat="45.63582" lon="6.20345">
        <ele>1060</ele>
        <time>2010-10-09T10:35:10Z</time>
      </trkpt>
      <trkpt lat="45.63578" lon="6.20339">
        <ele>1055</ele>
        <time>2010-10-09T10:35:12Z</time>
      </trkpt>
      <trkpt lat="45.6357" lon="6.20325">
        <ele>1051</ele>
        <time>2010-10-09T10:35:13Z</time>
      </trkpt>
      <trkpt lat="45.63567" lon="6.20318">
        <ele>1053</ele>
        <time>2010-10-09T10:35:14Z</time>
      </trkpt>
      <trkpt lat="45.6356" lon="6.20299">
        <ele>1053</ele>
        <time>2010-10-09T10:35:16Z</time>
      </trkpt>
      <trkpt lat="45.63551" lon="6.20277">
        <ele>1051</ele>
        <time>2010-10-09T10:35:18Z</time>
      </trkpt>
      <trkpt lat="45.63548" lon="6.20266">
        <ele>1050</ele>
        <time>2010-10-09T10:35:19Z</time>
      </trkpt>
      <trkpt lat="45.63543" lon="6.20256">
        <ele>1051</ele>
        <time>2010-10-09T10:35:20Z</time>
      </trkpt>
      <trkpt lat="45.63538" lon="6.20247">
        <ele>1030</ele>
        <time>2010-10-09T10:35:21Z</time>
      </trkpt>
      <trkpt lat="45.63531" lon="6.2023">
        <ele>1031</ele>
        <time>2010-10-09T10:35:23Z</time>
      </trkpt>
      <trkpt lat="45.63526" lon="6.20223">
        <ele>1030</ele>
        <time>2010-10-09T10:35:24Z</time>
      </trkpt>
      <trkpt lat="45.63524" lon="6.20215">
        <ele>1029</ele>
        <time>2010-10-09T10:35:25Z</time>
      </trkpt>
      <trkpt lat="45.63521" lon="6.20207">
        <ele>1027</ele>
        <time>2010-10-09T10:35:26Z</time>
      </trkpt>
      <trkpt lat="45.63517" lon="6.20193">
        <ele>1025</ele>
        <time>2010-10-09T10:35:28Z</time>
      </trkpt>
      <trkpt lat="45.63514" lon="6.20188">
        <ele>1024</ele>
        <time>2010-10-09T10:35:29Z</time>
      </trkpt>
      <trkpt lat="45.63511" lon="6.20182">
        <ele>1024</ele>
        <time>2010-10-09T10:35:30Z</time>
      </trkpt>
      <trkpt lat="45.63507" lon="6.20178">
        <ele>1024</ele>
        <time>2010-10-09T10:35:31Z</time>
      </trkpt>
      <trkpt lat="45.63495" lon="6.20166">
        <ele>1021</ele>
        <time>2010-10-09T10:35:33Z</time>
      </trkpt>
      <trkpt lat="45.63487" lon="6.20161">
        <ele>1016</ele>
        <time>2010-10-09T10:35:34Z</time>
      </trkpt>
      <trkpt lat="45.63482" lon="6.20161">
        <ele>1015</ele>
        <time>2010-10-09T10:35:35Z</time>
      </trkpt>
      <trkpt lat="45.63478" lon="6.20162">
        <ele>1014</ele>
        <time>2010-10-09T10:35:36Z</time>
      </trkpt>
      <trkpt lat="45.63476" lon="6.20161">
        <ele>1013</ele>
        <time>2010-10-09T10:35:40Z</time>
      </trkpt>
      <trkpt lat="45.63482" lon="6.20156">
        <ele>1014</ele>
        <time>2010-10-09T10:35:41Z</time>
      </trkpt>
      <trkpt lat="45.63486" lon="6.20155">
        <ele>1014</ele>
        <time>2010-10-09T10:35:42Z</time>
      </trkpt>
      <trkpt lat="45.63491" lon="6.20156">
        <ele>1016</ele>
        <time>2010-10-09T10:35:44Z</time>
      </trkpt>
      <trkpt lat="45.635" lon="6.20157">
        <ele>1018</ele>
        <time>2010-10-09T10:35:45Z</time>
      </trkpt>
      <trkpt lat="45.63508" lon="6.20156">
        <ele>1010</ele>
        <time>2010-10-09T10:35:46Z</time>
      </trkpt>
      <trkpt lat="45.63523" lon="6.20162">
        <ele>1003</ele>
        <time>2010-10-09T10:35:48Z</time>
      </trkpt>
      <trkpt lat="45.63544" lon="6.2018">
        <ele>1017</ele>
        <time>2010-10-09T10:35:51Z</time>
      </trkpt>
      <trkpt lat="45.63555" lon="6.2019">
        <ele>1015</ele>
        <time>2010-10-09T10:35:53Z</time>
      </trkpt>
      <trkpt lat="45.63567" lon="6.20213">
        <ele>1018</ele>
        <time>2010-10-09T10:35:54Z</time>
      </trkpt>
      <trkpt lat="45.63577" lon="6.20224">
        <ele>1018</ele>
        <time>2010-10-09T10:35:55Z</time>
      </trkpt>
      <trkpt lat="45.63589" lon="6.20244">
        <ele>1005</ele>
        <time>2010-10-09T10:35:57Z</time>
      </trkpt>
      <trkpt lat="45.63598" lon="6.20263">
        <ele>1008</ele>
        <time>2010-10-09T10:35:59Z</time>
      </trkpt>
      <trkpt lat="45.63606" lon="6.20279">
        <ele>1005</ele>
        <time>2010-10-09T10:36:01Z</time>
      </trkpt>
      <trkpt lat="45.63609" lon="6.20288">
        <ele>1005</ele>
        <time>2010-10-09T10:36:02Z</time>
      </trkpt>
      <trkpt lat="45.63618" lon="6.20305">
        <ele>1005</ele>
        <time>2010-10-09T10:36:04Z</time>
      </trkpt>
      <trkpt lat="45.63627" lon="6.20326">
        <ele>1004</ele>
        <time>2010-10-09T10:36:06Z</time>
      </trkpt>
      <trkpt lat="45.63633" lon="6.20334">
        <ele>1017</ele>
        <time>2010-10-09T10:36:07Z</time>
      </trkpt>
      <trkpt lat="45.63649" lon="6.20355">
        <ele>1012</ele>
        <time>2010-10-09T10:36:09Z</time>
      </trkpt>
      <trkpt lat="45.6366" lon="6.20373">
        <ele>1015</ele>
        <time>2010-10-09T10:36:11Z</time>
      </trkpt>
      <trkpt lat="45.63665" lon="6.20382">
        <ele>1016</ele>
        <time>2010-10-09T10:36:12Z</time>
      </trkpt>
      <trkpt lat="45.63678" lon="6.204">
        <ele>985</ele>
        <time>2010-10-09T10:36:14Z</time>
      </trkpt>
      <trkpt lat="45.63694" lon="6.20422">
        <ele>993</ele>
        <time>2010-10-09T10:36:17Z</time>
      </trkpt>
      <trkpt lat="45.6371" lon="6.2045">
        <ele>988</ele>
        <time>2010-10-09T10:36:19Z</time>
      </trkpt>
      <trkpt lat="45.63731" lon="6.20484">
        <ele>984</ele>
        <time>2010-10-09T10:36:21Z</time>
      </trkpt>
      <trkpt lat="45.63741" lon="6.2051">
        <ele>989</ele>
        <time>2010-10-09T10:36:23Z</time>
      </trkpt>
      <trkpt lat="45.63748" lon="6.20522">
        <ele>994</ele>
        <time>2010-10-09T10:36:24Z</time>
      </trkpt>
      <trkpt lat="45.63755" lon="6.20532">
        <ele>967</ele>
        <time>2010-10-09T10:36:25Z</time>
      </trkpt>
      <trkpt lat="45.6376" lon="6.20541">
        <ele>968</ele>
        <time>2010-10-09T10:36:26Z</time>
      </trkpt>
      <trkpt lat="45.63771" lon="6.20562">
        <ele>971</ele>
        <time>2010-10-09T10:36:28Z</time>
      </trkpt>
      <trkpt lat="45.63775" lon="6.20571">
        <ele>971</ele>
        <time>2010-10-09T10:36:29Z</time>
      </trkpt>
      <trkpt lat="45.63788" lon="6.2059">
        <ele>984</ele>
        <time>2010-10-09T10:36:31Z</time>
      </trkpt>
      <trkpt lat="45.63794" lon="6.20598">
        <ele>982</ele>
        <time>2010-10-09T10:36:32Z</time>
      </trkpt>
      <trkpt lat="45.638" lon="6.20606">
        <ele>981</ele>
        <time>2010-10-09T10:36:33Z</time>
      </trkpt>
      <trkpt lat="45.63806" lon="6.20611">
        <ele>980</ele>
        <time>2010-10-09T10:36:34Z</time>
      </trkpt>
      <trkpt lat="45.63822" lon="6.20622">
        <ele>979</ele>
        <time>2010-10-09T10:36:36Z</time>
      </trkpt>
      <trkpt lat="45.63834" lon="6.20632">
        <ele>950</ele>
        <time>2010-10-09T10:36:38Z</time>
      </trkpt>
      <trkpt lat="45.63843" lon="6.20641">
        <ele>952</ele>
        <time>2010-10-09T10:36:39Z</time>
      </trkpt>
      <trkpt lat="45.63855" lon="6.20651">
        <ele>951</ele>
        <time>2010-10-09T10:36:41Z</time>
      </trkpt>
      <trkpt lat="45.63865" lon="6.20664">
        <ele>949</ele>
        <time>2010-10-09T10:36:43Z</time>
      </trkpt>
      <trkpt lat="45.63869" lon="6.20672">
        <ele>963</ele>
        <time>2010-10-09T10:36:44Z</time>
      </trkpt>
      <trkpt lat="45.63877" lon="6.2069">
        <ele>961</ele>
        <time>2010-10-09T10:36:46Z</time>
      </trkpt>
      <trkpt lat="45.63884" lon="6.20706">
        <ele>960</ele>
        <time>2010-10-09T10:36:48Z</time>
      </trkpt>
      <trkpt lat="45.63888" lon="6.20711">
        <ele>960</ele>
        <time>2010-10-09T10:36:49Z</time>
      </trkpt>
      <trkpt lat="45.639" lon="6.20717">
        <ele>957</ele>
        <time>2010-10-09T10:36:51Z</time>
      </trkpt>
      <trkpt lat="45.63904" lon="6.20716">
        <ele>956</ele>
        <time>2010-10-09T10:36:53Z</time>
      </trkpt>
      <trkpt lat="45.63911" lon="6.2072">
        <ele>955</ele>
        <time>2010-10-09T10:36:54Z</time>
      </trkpt>
      <trkpt lat="45.63924" lon="6.20737">
        <ele>932</ele>
        <time>2010-10-09T10:36:57Z</time>
      </trkpt>
      <trkpt lat="45.63927" lon="6.20748">
        <ele>935</ele>
        <time>2010-10-09T10:36:59Z</time>
      </trkpt>
      <trkpt lat="45.63935" lon="6.20771">
        <ele>938</ele>
        <time>2010-10-09T10:37:00Z</time>
      </trkpt>
      <trkpt lat="45.63938" lon="6.20782">
        <ele>938</ele>
        <time>2010-10-09T10:37:01Z</time>
      </trkpt>
      <trkpt lat="45.63943" lon="6.20804">
        <ele>940</ele>
        <time>2010-10-09T10:37:03Z</time>
      </trkpt>
      <trkpt lat="45.6395" lon="6.20822">
        <ele>940</ele>
        <time>2010-10-09T10:37:05Z</time>
      </trkpt>
      <trkpt lat="45.63953" lon="6.2083">
        <ele>939</ele>
        <time>2010-10-09T10:37:06Z</time>
      </trkpt>
      <trkpt lat="45.63954" lon="6.20834">
        <ele>954</ele>
        <time>2010-10-09T10:37:07Z</time>
      </trkpt>
      <trkpt lat="45.63968" lon="6.20845">
        <ele>950</ele>
        <time>2010-10-09T10:37:09Z</time>
      </trkpt>
      <trkpt lat="45.63977" lon="6.20849">
        <ele>946</ele>
        <time>2010-10-09T10:37:11Z</time>
      </trkpt>
      <trkpt lat="45.63985" lon="6.2085">
        <ele>942</ele>
        <time>2010-10-09T10:37:13Z</time>
      </trkpt>
      <trkpt lat="45.6399" lon="6.20851">
        <ele>941</ele>
        <time>2010-10-09T10:37:14Z</time>
      </trkpt>
      <trkpt lat="45.64001" lon="6.20851">
        <ele>920</ele>
        <time>2010-10-09T10:37:16Z</time>
      </trkpt>
      <trkpt lat="45.64007" lon="6.20852">
        <ele>919</ele>
        <time>2010-10-09T10:37:17Z</time>
      </trkpt>
      <trkpt lat="45.64013" lon="6.20855">
        <ele>919</ele>
        <time>2010-10-09T10:37:18Z</time>
      </trkpt>
      <trkpt lat="45.64024" lon="6.20857">
        <ele>917</ele>
        <time>2010-10-09T10:37:20Z</time>
      </trkpt>
      <trkpt lat="45.64029" lon="6.20859">
        <ele>917</ele>
        <time>2010-10-09T10:37:21Z</time>
      </trkpt>
      <trkpt lat="45.64033" lon="6.20864">
        <ele>916</ele>
        <time>2010-10-09T10:37:22Z</time>
      </trkpt>
      <trkpt lat="45.64039" lon="6.20882">
        <ele>917</ele>
        <time>2010-10-09T10:37:24Z</time>
      </trkpt>
      <trkpt lat="45.64043" lon="6.20892">
        <ele>918</ele>
        <time>2010-10-09T10:37:25Z</time>
      </trkpt>
      <trkpt lat="45.6406" lon="6.20919">
        <ele>926</ele>
        <time>2010-10-09T10:37:29Z</time>
      </trkpt>
      <trkpt lat="45.64068" lon="6.20942">
        <ele>928</ele>
        <time>2010-10-09T10:37:30Z</time>
      </trkpt>
      <trkpt lat="45.64073" lon="6.20952">
        <ele>930</ele>
        <time>2010-10-09T10:37:31Z</time>
      </trkpt>
      <trkpt lat="45.64076" lon="6.20961">
        <ele>931</ele>
        <time>2010-10-09T10:37:32Z</time>
      </trkpt>
      <trkpt lat="45.64081" lon="6.20972">
        <ele>931</ele>
        <time>2010-10-09T10:37:33Z</time>
      </trkpt>
      <trkpt lat="45.64085" lon="6.20983">
        <ele>913</ele>
        <time>2010-10-09T10:37:34Z</time>
      </trkpt>
      <trkpt lat="45.64094" lon="6.21006">
        <ele>920</ele>
        <time>2010-10-09T10:37:36Z</time>
      </trkpt>
      <trkpt lat="45.64105" lon="6.21032">
        <ele>917</ele>
        <time>2010-10-09T10:37:38Z</time>
      </trkpt>
      <trkpt lat="45.64112" lon="6.21043">
        <ele>916</ele>
        <time>2010-10-09T10:37:39Z</time>
      </trkpt>
      <trkpt lat="45.64121" lon="6.21055">
        <ele>915</ele>
        <time>2010-10-09T10:37:40Z</time>
      </trkpt>
      <trkpt lat="45.64126" lon="6.21062">
        <ele>914</ele>
        <time>2010-10-09T10:37:41Z</time>
      </trkpt>
      <trkpt lat="45.64134" lon="6.21079">
        <ele>912</ele>
        <time>2010-10-09T10:37:43Z</time>
      </trkpt>
      <trkpt lat="45.64151" lon="6.21106">
        <ele>916</ele>
        <time>2010-10-09T10:37:46Z</time>
      </trkpt>
      <trkpt lat="45.64154" lon="6.21124">
        <ele>919</ele>
        <time>2010-10-09T10:37:48Z</time>
      </trkpt>
      <trkpt lat="45.64157" lon="6.2113">
        <ele>919</ele>
        <time>2010-10-09T10:37:49Z</time>
      </trkpt>
      <trkpt lat="45.64165" lon="6.21138">
        <ele>917</ele>
        <time>2010-10-09T10:37:50Z</time>
      </trkpt>
      <trkpt lat="45.64172" lon="6.21143">
        <ele>903</ele>
        <time>2010-10-09T10:37:51Z</time>
      </trkpt>
      <trkpt lat="45.64181" lon="6.21142">
        <ele>903</ele>
        <time>2010-10-09T10:37:52Z</time>
      </trkpt>
      <trkpt lat="45.6418" lon="6.21138">
        <ele>903</ele>
        <time>2010-10-09T10:37:53Z</time>
      </trkpt>
      <trkpt lat="45.64182" lon="6.21129">
        <ele>902</ele>
        <time>2010-10-09T10:37:54Z</time>
      </trkpt>
      <trkpt lat="45.64174" lon="6.21111">
        <ele>900</ele>
        <time>2010-10-09T10:37:56Z</time>
      </trkpt>
      <trkpt lat="45.64172" lon="6.21101">
        <ele>899</ele>
        <time>2010-10-09T10:37:57Z</time>
      </trkpt>
      <trkpt lat="45.64165" lon="6.21085">
        <ele>897</ele>
        <time>2010-10-09T10:37:59Z</time>
      </trkpt>
      <trkpt lat="45.64161" lon="6.21077">
        <ele>900</ele>
        <time>2010-10-09T10:38:01Z</time>
      </trkpt>
      <trkpt lat="45.64153" lon="6.21058">
        <ele>906</ele>
        <time>2010-10-09T10:38:02Z</time>
      </trkpt>
      <trkpt lat="45.64147" lon="6.21039">
        <ele>908</ele>
        <time>2010-10-09T10:38:04Z</time>
      </trkpt>
      <trkpt lat="45.64143" lon="6.2103">
        <ele>908</ele>
        <time>2010-10-09T10:38:05Z</time>
      </trkpt>
      <trkpt lat="45.64138" lon="6.21021">
        <ele>908</ele>
        <time>2010-10-09T10:38:06Z</time>
      </trkpt>
      <trkpt lat="45.64135" lon="6.21011">
        <ele>908</ele>
        <time>2010-10-09T10:38:07Z</time>
      </trkpt>
      <trkpt lat="45.64131" lon="6.21001">
        <ele>908</ele>
        <time>2010-10-09T10:38:08Z</time>
      </trkpt>
      <trkpt lat="45.64125" lon="6.20982">
        <ele>903</ele>
        <time>2010-10-09T10:38:10Z</time>
      </trkpt>
      <trkpt lat="45.64116" lon="6.20951">
        <ele>903</ele>
        <time>2010-10-09T10:38:13Z</time>
      </trkpt>
      <trkpt lat="45.64114" lon="6.2094">
        <ele>903</ele>
        <time>2010-10-09T10:38:14Z</time>
      </trkpt>
      <trkpt lat="45.64111" lon="6.20927">
        <ele>902</ele>
        <time>2010-10-09T10:38:15Z</time>
      </trkpt>
      <trkpt lat="45.64108" lon="6.20916">
        <ele>899</ele>
        <time>2010-10-09T10:38:16Z</time>
      </trkpt>
      <trkpt lat="45.64106" lon="6.20892">
        <ele>898</ele>
        <time>2010-10-09T10:38:18Z</time>
      </trkpt>
      <trkpt lat="45.64101" lon="6.20881">
        <ele>897</ele>
        <time>2010-10-09T10:38:19Z</time>
      </trkpt>
      <trkpt lat="45.64093" lon="6.20859">
        <ele>894</ele>
        <time>2010-10-09T10:38:21Z</time>
      </trkpt>
      <trkpt lat="45.64086" lon="6.20841">
        <ele>890</ele>
        <time>2010-10-09T10:38:23Z</time>
      </trkpt>
      <trkpt lat="45.64081" lon="6.20831">
        <ele>889</ele>
        <time>2010-10-09T10:38:24Z</time>
      </trkpt>
      <trkpt lat="45.64075" lon="6.20814">
        <ele>893</ele>
        <time>2010-10-09T10:38:26Z</time>
      </trkpt>
      <trkpt lat="45.64072" lon="6.20798">
        <ele>893</ele>
        <time>2010-10-09T10:38:28Z</time>
      </trkpt>
      <trkpt lat="45.64071" lon="6.20789">
        <ele>893</ele>
        <time>2010-10-09T10:38:29Z</time>
      </trkpt>
      <trkpt lat="45.64072" lon="6.20778">
        <ele>891</ele>
        <time>2010-10-09T10:38:31Z</time>
      </trkpt>
      <trkpt lat="45.6407" lon="6.20772">
        <ele>890</ele>
        <time>2010-10-09T10:38:33Z</time>
      </trkpt>
      <trkpt lat="45.64071" lon="6.2077">
        <ele>890</ele>
        <time>2010-10-09T10:38:35Z</time>
      </trkpt>
      <trkpt lat="45.64068" lon="6.20767">
        <ele>890</ele>
        <time>2010-10-09T10:38:36Z</time>
      </trkpt>
      <trkpt lat="45.64066" lon="6.20761">
        <ele>889</ele>
        <time>2010-10-09T10:38:38Z</time>
      </trkpt>
      <trkpt lat="45.64065" lon="6.20759">
        <ele>889</ele>
        <time>2010-10-09T10:38:40Z</time>
      </trkpt>
      <trkpt lat="45.64062" lon="6.20757">
        <ele>890</ele>
        <time>2010-10-09T10:38:42Z</time>
      </trkpt>
      <trkpt lat="45.64062" lon="6.20752">
        <ele>889</ele>
        <time>2010-10-09T10:38:44Z</time>
      </trkpt>
      <trkpt lat="45.64063" lon="6.20752">
        <ele>889</ele>
        <time>2010-10-09T10:38:47Z</time>
      </trkpt>
      <trkpt lat="45.64064" lon="6.20757">
        <ele>889</ele>
        <time>2010-10-09T10:38:48Z</time>
      </trkpt>
      <trkpt lat="45.64064" lon="6.20759">
        <ele>890</ele>
        <time>2010-10-09T10:38:49Z</time>
      </trkpt>
      <trkpt lat="45.64064" lon="6.20762">
        <ele>890</ele>
        <time>2010-10-09T10:38:50Z</time>
      </trkpt>
      <trkpt lat="45.64064" lon="6.20767">
        <ele>891</ele>
        <time>2010-10-09T10:38:52Z</time>
      </trkpt>
      <trkpt lat="45.64066" lon="6.2077">
        <ele>891</ele>
        <time>2010-10-09T10:38:54Z</time>
      </trkpt>
      <trkpt lat="45.64065" lon="6.20775">
        <ele>891</ele>
        <time>2010-10-09T10:38:55Z</time>
      </trkpt>
      <trkpt lat="45.64069" lon="6.20776">
        <ele>891</ele>
        <time>2010-10-09T10:38:57Z</time>
      </trkpt>
      <trkpt lat="45.64071" lon="6.20776">
        <ele>891</ele>
        <time>2010-10-09T10:38:58Z</time>
      </trkpt>
      <trkpt lat="45.64074" lon="6.20774">
        <ele>890</ele>
        <time>2010-10-09T10:39:00Z</time>
      </trkpt>
      <trkpt lat="45.64074" lon="6.20773">
        <ele>890</ele>
        <time>2010-10-09T10:39:01Z</time>
      </trkpt>
      <trkpt lat="45.64072" lon="6.20771">
        <ele>890</ele>
        <time>2010-10-09T10:39:02Z</time>
      </trkpt>
      <trkpt lat="45.64071" lon="6.2077">
        <ele>890</ele>
        <time>2010-10-09T10:39:03Z</time>
      </trkpt>
      <trkpt lat="45.64068" lon="6.20768">
        <ele>890</ele>
        <time>2010-10-09T10:39:05Z</time>
      </trkpt>
      <trkpt lat="45.64066" lon="6.20766">
        <ele>890</ele>
        <time>2010-10-09T10:39:07Z</time>
      </trkpt>
      <trkpt lat="45.64065" lon="6.20762">
        <ele>889</ele>
        <time>2010-10-09T10:39:08Z</time>
      </trkpt>
      <trkpt lat="45.64065" lon="6.20759">
        <ele>889</ele>
        <time>2010-10-09T10:39:09Z</time>
      </trkpt>
      <trkpt lat="45.64065" lon="6.20757">
        <ele>889</ele>
        <time>2010-10-09T10:39:10Z</time>
      </trkpt>
      <trkpt lat="45.64062" lon="6.20756">
        <ele>890</ele>
        <time>2010-10-09T10:39:12Z</time>
      </trkpt>
      <trkpt lat="45.64061" lon="6.20754">
        <ele>890</ele>
        <time>2010-10-09T10:39:13Z</time>
      </trkpt>
      <trkpt lat="45.64061" lon="6.20759">
        <ele>890</ele>
        <time>2010-10-09T10:39:16Z</time>
      </trkpt>
      <trkpt lat="45.64063" lon="6.20763">
        <ele>890</ele>
        <time>2010-10-09T10:39:18Z</time>
      </trkpt>
      <trkpt lat="45.64064" lon="6.20763">
        <ele>890</ele>
        <time>2010-10-09T10:39:20Z</time>
      </trkpt>
      <trkpt lat="45.64067" lon="6.20763">
        <ele>889</ele>
        <time>2010-10-09T10:39:21Z</time>
      </trkpt>
      <trkpt lat="45.64066" lon="6.20759">
        <ele>889</ele>
        <time>2010-10-09T10:39:25Z</time>
      </trkpt>
      <trkpt lat="45.64065" lon="6.20757">
        <ele>889</ele>
        <time>2010-10-09T10:39:26Z</time>
      </trkpt>
      <trkpt lat="45.64063" lon="6.20756">
        <ele>889</ele>
        <time>2010-10-09T10:39:29Z</time>
      </trkpt>
      <trkpt lat="45.64062" lon="6.20754">
        <ele>889</ele>
        <time>2010-10-09T10:39:30Z</time>
      </trkpt>
      <trkpt lat="45.64059" lon="6.20752">
        <ele>890</ele>
        <time>2010-10-09T10:39:33Z</time>
      </trkpt>
      <trkpt lat="45.64058" lon="6.20749">
        <ele>885</ele>
        <time>2010-10-09T10:39:35Z</time>
      </trkpt>
      <trkpt lat="45.64059" lon="6.20747">
        <ele>885</ele>
        <time>2010-10-09T10:39:36Z</time>
      </trkpt>
      <trkpt lat="45.64058" lon="6.20744">
        <ele>885</ele>
        <time>2010-10-09T10:39:38Z</time>
      </trkpt>
      <trkpt lat="45.64059" lon="6.20744">
        <ele>885</ele>
        <time>2010-10-09T10:39:41Z</time>
      </trkpt>
      <trkpt lat="45.64058" lon="6.20743">
        <ele>885</ele>
        <time>2010-10-09T10:39:42Z</time>
      </trkpt>
      <trkpt lat="45.64057" lon="6.20739">
        <ele>885</ele>
        <time>2010-10-09T10:39:45Z</time>
      </trkpt>
      <trkpt lat="45.64056" lon="6.20735">
        <ele>886</ele>
        <time>2010-10-09T10:39:46Z</time>
      </trkpt>
      <trkpt lat="45.64056" lon="6.20734">
        <ele>886</ele>
        <time>2010-10-09T10:39:47Z</time>
      </trkpt>
      <trkpt lat="45.64055" lon="6.20732">
        <ele>886</ele>
        <time>2010-10-09T10:39:49Z</time>
      </trkpt>
      <trkpt lat="45.64055" lon="6.2073">
        <ele>886</ele>
        <time>2010-10-09T10:39:50Z</time>
      </trkpt>
      <trkpt lat="45.64052" lon="6.20726">
        <ele>886</ele>
        <time>2010-10-09T10:39:52Z</time>
      </trkpt>
      <trkpt lat="45.64051" lon="6.20724">
        <ele>886</ele>
        <time>2010-10-09T10:39:53Z</time>
      </trkpt>
      <trkpt lat="45.64049" lon="6.20721">
        <ele>886</ele>
        <time>2010-10-09T10:39:55Z</time>
      </trkpt>
      <trkpt lat="45.64049" lon="6.20718">
        <ele>886</ele>
        <time>2010-10-09T10:39:57Z</time>
      </trkpt>
      <trkpt lat="45.64047" lon="6.20716">
        <ele>886</ele>
        <time>2010-10-09T10:39:59Z</time>
      </trkpt>
      <trkpt lat="45.64045" lon="6.20712">
        <ele>886</ele>
        <time>2010-10-09T10:40:01Z</time>
      </trkpt>
      <trkpt lat="45.64043" lon="6.2071">
        <ele>886</ele>
        <time>2010-10-09T10:40:02Z</time>
      </trkpt>
      <trkpt lat="45.6404" lon="6.20705">
        <ele>886</ele>
        <time>2010-10-09T10:40:04Z</time>
      </trkpt>
      <trkpt lat="45.64035" lon="6.207">
        <ele>886</ele>
        <time>2010-10-09T10:40:06Z</time>
      </trkpt>
      <trkpt lat="45.6403" lon="6.20695">
        <ele>886</ele>
        <time>2010-10-09T10:40:08Z</time>
      </trkpt>
      <trkpt lat="45.64027" lon="6.20691">
        <ele>886</ele>
        <time>2010-10-09T10:40:09Z</time>
      </trkpt>
      <trkpt lat="45.64022" lon="6.20684">
        <ele>886</ele>
        <time>2010-10-09T10:40:11Z</time>
      </trkpt>
      <trkpt lat="45.64017" lon="6.20675">
        <ele>885</ele>
        <time>2010-10-09T10:40:13Z</time>
      </trkpt>
      <trkpt lat="45.64015" lon="6.2067">
        <ele>885</ele>
        <time>2010-10-09T10:40:14Z</time>
      </trkpt>
      <trkpt lat="45.64008" lon="6.2066">
        <ele>883</ele>
        <time>2010-10-09T10:40:16Z</time>
      </trkpt>
      <trkpt lat="45.63999" lon="6.20649">
        <ele>889</ele>
        <time>2010-10-09T10:40:18Z</time>
      </trkpt>
      <trkpt lat="45.63995" lon="6.20645">
        <ele>890</ele>
        <time>2010-10-09T10:40:19Z</time>
      </trkpt>
      <trkpt lat="45.63988" lon="6.20635">
        <ele>891</ele>
        <time>2010-10-09T10:40:21Z</time>
      </trkpt>
      <trkpt lat="45.63987" lon="6.20631">
        <ele>891</ele>
        <time>2010-10-09T10:40:22Z</time>
      </trkpt>
      <trkpt lat="45.63982" lon="6.20622">
        <ele>891</ele>
        <time>2010-10-09T10:40:24Z</time>
      </trkpt>
      <trkpt lat="45.63978" lon="6.20614">
        <ele>891</ele>
        <time>2010-10-09T10:40:26Z</time>
      </trkpt>
      <trkpt lat="45.63974" lon="6.20606">
        <ele>891</ele>
        <time>2010-10-09T10:40:28Z</time>
      </trkpt>
      <trkpt lat="45.63968" lon="6.20598">
        <ele>891</ele>
        <time>2010-10-09T10:40:30Z</time>
      </trkpt>
      <trkpt lat="45.63965" lon="6.20592">
        <ele>891</ele>
        <time>2010-10-09T10:40:31Z</time>
      </trkpt>
      <trkpt lat="45.63963" lon="6.20587">
        <ele>891</ele>
        <time>2010-10-09T10:40:32Z</time>
      </trkpt>
      <trkpt lat="45.63956" lon="6.20577">
        <ele>884</ele>
        <time>2010-10-09T10:40:34Z</time>
      </trkpt>
      <trkpt lat="45.63953" lon="6.20572">
        <ele>884</ele>
        <time>2010-10-09T10:40:35Z</time>
      </trkpt>
      <trkpt lat="45.63949" lon="6.20567">
        <ele>884</ele>
        <time>2010-10-09T10:40:36Z</time>
      </trkpt>
      <trkpt lat="45.63943" lon="6.20557">
        <ele>884</ele>
        <time>2010-10-09T10:40:38Z</time>
      </trkpt>
      <trkpt lat="45.63939" lon="6.20552">
        <ele>884</ele>
        <time>2010-10-09T10:40:39Z</time>
      </trkpt>
      <trkpt lat="45.63934" lon="6.20546">
        <ele>884</ele>
        <time>2010-10-09T10:40:40Z</time>
      </trkpt>
      <trkpt lat="45.63928" lon="6.20541">
        <ele>883</ele>
        <time>2010-10-09T10:40:41Z</time>
      </trkpt>
      <trkpt lat="45.63923" lon="6.20536">
        <ele>882</ele>
        <time>2010-10-09T10:40:42Z</time>
      </trkpt>
      <trkpt lat="45.63918" lon="6.2053">
        <ele>881</ele>
        <time>2010-10-09T10:40:43Z</time>
      </trkpt>
      <trkpt lat="45.63913" lon="6.20524">
        <ele>895</ele>
        <time>2010-10-09T10:40:44Z</time>
      </trkpt>
      <trkpt lat="45.63901" lon="6.20507">
        <ele>892</ele>
        <time>2010-10-09T10:40:46Z</time>
      </trkpt>
      <trkpt lat="45.63891" lon="6.2049">
        <ele>885</ele>
        <time>2010-10-09T10:40:48Z</time>
      </trkpt>
      <trkpt lat="45.63882" lon="6.2047">
        <ele>887</ele>
        <time>2010-10-09T10:40:50Z</time>
      </trkpt>
      <trkpt lat="45.63876" lon="6.20459">
        <ele>888</ele>
        <time>2010-10-09T10:40:51Z</time>
      </trkpt>
      <trkpt lat="45.63871" lon="6.20449">
        <ele>888</ele>
        <time>2010-10-09T10:40:52Z</time>
      </trkpt>
      <trkpt lat="45.63861" lon="6.20427">
        <ele>888</ele>
        <time>2010-10-09T10:40:54Z</time>
      </trkpt>
      <trkpt lat="45.63849" lon="6.20405">
        <ele>883</ele>
        <time>2010-10-09T10:40:56Z</time>
      </trkpt>
      <trkpt lat="45.6384" lon="6.20383">
        <ele>879</ele>
        <time>2010-10-09T10:40:58Z</time>
      </trkpt>
      <trkpt lat="45.63831" lon="6.20358">
        <ele>896</ele>
        <time>2010-10-09T10:41:00Z</time>
      </trkpt>
      <trkpt lat="45.63828" lon="6.20343">
        <ele>888</ele>
        <time>2010-10-09T10:41:01Z</time>
      </trkpt>
      <trkpt lat="45.63822" lon="6.20315">
        <ele>883</ele>
        <time>2010-10-09T10:41:03Z</time>
      </trkpt>
      <trkpt lat="45.63818" lon="6.20302">
        <ele>884</ele>
        <time>2010-10-09T10:41:04Z</time>
      </trkpt>
      <trkpt lat="45.63814" lon="6.20288">
        <ele>884</ele>
        <time>2010-10-09T10:41:05Z</time>
      </trkpt>
      <trkpt lat="45.6381" lon="6.20272">
        <ele>882</ele>
        <time>2010-10-09T10:41:06Z</time>
      </trkpt>
      <trkpt lat="45.638" lon="6.2024">
        <ele>873</ele>
        <time>2010-10-09T10:41:08Z</time>
      </trkpt>
      <trkpt lat="45.63794" lon="6.20224">
        <ele>874</ele>
        <time>2010-10-09T10:41:09Z</time>
      </trkpt>
      <trkpt lat="45.63789" lon="6.20208">
        <ele>873</ele>
        <time>2010-10-09T10:41:10Z</time>
      </trkpt>
      <trkpt lat="45.63783" lon="6.2019">
        <ele>873</ele>
        <time>2010-10-09T10:41:11Z</time>
      </trkpt>
      <trkpt lat="45.63773" lon="6.20157">
        <ele>868</ele>
        <time>2010-10-09T10:41:13Z</time>
      </trkpt>
      <trkpt lat="45.63767" lon="6.2014">
        <ele>867</ele>
        <time>2010-10-09T10:41:14Z</time>
      </trkpt>
      <trkpt lat="45.63763" lon="6.20124">
        <ele>865</ele>
        <time>2010-10-09T10:41:15Z</time>
      </trkpt>
      <trkpt lat="45.63758" lon="6.20109">
        <ele>863</ele>
        <time>2010-10-09T10:41:16Z</time>
      </trkpt>
      <trkpt lat="45.63746" lon="6.20083">
        <ele>862</ele>
        <time>2010-10-09T10:41:18Z</time>
      </trkpt>
      <trkpt lat="45.63739" lon="6.20071">
        <ele>868</ele>
        <time>2010-10-09T10:41:19Z</time>
      </trkpt>
      <trkpt lat="45.63733" lon="6.20057">
        <ele>871</ele>
        <time>2010-10-09T10:41:20Z</time>
      </trkpt>
      <trkpt lat="45.63727" lon="6.20044">
        <ele>873</ele>
        <time>2010-10-09T10:41:21Z</time>
      </trkpt>
      <trkpt lat="45.63716" lon="6.20018">
        <ele>873</ele>
        <time>2010-10-09T10:41:23Z</time>
      </trkpt>
      <trkpt lat="45.6371" lon="6.20006">
        <ele>874</ele>
        <time>2010-10-09T10:41:24Z</time>
      </trkpt>
      <trkpt lat="45.63702" lon="6.19995">
        <ele>868</ele>
        <time>2010-10-09T10:41:25Z</time>
      </trkpt>
      <trkpt lat="45.63696" lon="6.19984">
        <ele>869</ele>
        <time>2010-10-09T10:41:26Z</time>
      </trkpt>
      <trkpt lat="45.63683" lon="6.19965">
        <ele>869</ele>
        <time>2010-10-09T10:41:28Z</time>
      </trkpt>
      <trkpt lat="45.63678" lon="6.19954">
        <ele>868</ele>
        <time>2010-10-09T10:41:29Z</time>
      </trkpt>
      <trkpt lat="45.63674" lon="6.19944">
        <ele>867</ele>
        <time>2010-10-09T10:41:30Z</time>
      </trkpt>
      <trkpt lat="45.63672" lon="6.19932">
        <ele>866</ele>
        <time>2010-10-09T10:41:31Z</time>
      </trkpt>
      <trkpt lat="45.6367" lon="6.19918">
        <ele>864</ele>
        <time>2010-10-09T10:41:32Z</time>
      </trkpt>
      <trkpt lat="45.63666" lon="6.19888">
        <ele>868</ele>
        <time>2010-10-09T10:41:34Z</time>
      </trkpt>
      <trkpt lat="45.63662" lon="6.19874">
        <ele>867</ele>
        <time>2010-10-09T10:41:35Z</time>
      </trkpt>
      <trkpt lat="45.63658" lon="6.19859">
        <ele>864</ele>
        <time>2010-10-09T10:41:36Z</time>
      </trkpt>
      <trkpt lat="45.63646" lon="6.19836">
        <ele>863</ele>
        <time>2010-10-09T10:41:38Z</time>
      </trkpt>
      <trkpt lat="45.63641" lon="6.19815">
        <ele>864</ele>
        <time>2010-10-09T10:41:40Z</time>
      </trkpt>
      <trkpt lat="45.63638" lon="6.19802">
        <ele>865</ele>
        <time>2010-10-09T10:41:41Z</time>
      </trkpt>
      <trkpt lat="45.63631" lon="6.19773">
        <ele>868</ele>
        <time>2010-10-09T10:41:43Z</time>
      </trkpt>
      <trkpt lat="45.63632" lon="6.19759">
        <ele>867</ele>
        <time>2010-10-09T10:41:44Z</time>
      </trkpt>
      <trkpt lat="45.63645" lon="6.19734">
        <ele>869</ele>
        <time>2010-10-09T10:41:46Z</time>
      </trkpt>
      <trkpt lat="45.63655" lon="6.19704">
        <ele>870</ele>
        <time>2010-10-09T10:41:48Z</time>
      </trkpt>
      <trkpt lat="45.63663" lon="6.19675">
        <ele>865</ele>
        <time>2010-10-09T10:41:50Z</time>
      </trkpt>
      <trkpt lat="45.63665" lon="6.19658">
        <ele>866</ele>
        <time>2010-10-09T10:41:51Z</time>
      </trkpt>
      <trkpt lat="45.63664" lon="6.19629">
        <ele>870</ele>
        <time>2010-10-09T10:41:53Z</time>
      </trkpt>
      <trkpt lat="45.6367" lon="6.19594">
        <ele>858</ele>
        <time>2010-10-09T10:41:56Z</time>
      </trkpt>
      <trkpt lat="45.63673" lon="6.19551">
        <ele>854</ele>
        <time>2010-10-09T10:41:57Z</time>
      </trkpt>
      <trkpt lat="45.63667" lon="6.19528">
        <ele>863</ele>
        <time>2010-10-09T10:41:59Z</time>
      </trkpt>
      <trkpt lat="45.63667" lon="6.19512">
        <ele>854</ele>
        <time>2010-10-09T10:42:00Z</time>
      </trkpt>
      <trkpt lat="45.63665" lon="6.19495">
        <ele>848</ele>
        <time>2010-10-09T10:42:01Z</time>
      </trkpt>
      <trkpt lat="45.6367" lon="6.1947">
        <ele>845</ele>
        <time>2010-10-09T10:42:03Z</time>
      </trkpt>
      <trkpt lat="45.63683" lon="6.1945">
        <ele>846</ele>
        <time>2010-10-09T10:42:05Z</time>
      </trkpt>
      <trkpt lat="45.63689" lon="6.19438">
        <ele>846</ele>
        <time>2010-10-09T10:42:07Z</time>
      </trkpt>
      <trkpt lat="45.63703" lon="6.19417">
        <ele>845</ele>
        <time>2010-10-09T10:42:08Z</time>
      </trkpt>
      <trkpt lat="45.63718" lon="6.19395">
        <ele>846</ele>
        <time>2010-10-09T10:42:10Z</time>
      </trkpt>
      <trkpt lat="45.63724" lon="6.19385">
        <ele>846</ele>
        <time>2010-10-09T10:42:11Z</time>
      </trkpt>
      <trkpt lat="45.63739" lon="6.19364">
        <ele>844</ele>
        <time>2010-10-09T10:42:13Z</time>
      </trkpt>
      <trkpt lat="45.63748" lon="6.19353">
        <ele>842</ele>
        <time>2010-10-09T10:42:14Z</time>
      </trkpt>
      <trkpt lat="45.63756" lon="6.19342">
        <ele>835</ele>
        <time>2010-10-09T10:42:15Z</time>
      </trkpt>
      <trkpt lat="45.63763" lon="6.1933">
        <ele>834</ele>
        <time>2010-10-09T10:42:16Z</time>
      </trkpt>
      <trkpt lat="45.63778" lon="6.19307">
        <ele>835</ele>
        <time>2010-10-09T10:42:18Z</time>
      </trkpt>
      <trkpt lat="45.63787" lon="6.19298">
        <ele>835</ele>
        <time>2010-10-09T10:42:19Z</time>
      </trkpt>
      <trkpt lat="45.63804" lon="6.19281">
        <ele>833</ele>
        <time>2010-10-09T10:42:21Z</time>
      </trkpt>
      <trkpt lat="45.63822" lon="6.19266">
        <ele>828</ele>
        <time>2010-10-09T10:42:23Z</time>
      </trkpt>
      <trkpt lat="45.6384" lon="6.19249">
        <ele>820</ele>
        <time>2010-10-09T10:42:25Z</time>
      </trkpt>
      <trkpt lat="45.63849" lon="6.1924">
        <ele>822</ele>
        <time>2010-10-09T10:42:26Z</time>
      </trkpt>
      <trkpt lat="45.63858" lon="6.19232">
        <ele>823</ele>
        <time>2010-10-09T10:42:27Z</time>
      </trkpt>
      <trkpt lat="45.63876" lon="6.19216">
        <ele>823</ele>
        <time>2010-10-09T10:42:29Z</time>
      </trkpt>
      <trkpt lat="45.63895" lon="6.19201">
        <ele>822</ele>
        <time>2010-10-09T10:42:31Z</time>
      </trkpt>
      <trkpt lat="45.63912" lon="6.19184">
        <ele>820</ele>
        <time>2010-10-09T10:42:33Z</time>
      </trkpt>
      <trkpt lat="45.63921" lon="6.19176">
        <ele>818</ele>
        <time>2010-10-09T10:42:34Z</time>
      </trkpt>
      <trkpt lat="45.63931" lon="6.19168">
        <ele>818</ele>
        <time>2010-10-09T10:42:35Z</time>
      </trkpt>
      <trkpt lat="45.6394" lon="6.19161">
        <ele>818</ele>
        <time>2010-10-09T10:42:36Z</time>
      </trkpt>
      <trkpt lat="45.63956" lon="6.19143">
        <ele>819</ele>
        <time>2010-10-09T10:42:38Z</time>
      </trkpt>
      <trkpt lat="45.63963" lon="6.19135">
        <ele>819</ele>
        <time>2010-10-09T10:42:39Z</time>
      </trkpt>
      <trkpt lat="45.6397" lon="6.19127">
        <ele>819</ele>
        <time>2010-10-09T10:42:40Z</time>
      </trkpt>
      <trkpt lat="45.63978" lon="6.1912">
        <ele>818</ele>
        <time>2010-10-09T10:42:41Z</time>
      </trkpt>
      <trkpt lat="45.6399" lon="6.19101">
        <ele>816</ele>
        <time>2010-10-09T10:42:43Z</time>
      </trkpt>
      <trkpt lat="45.63995" lon="6.19091">
        <ele>813</ele>
        <time>2010-10-09T10:42:44Z</time>
      </trkpt>
      <trkpt lat="45.63997" lon="6.19081">
        <ele>812</ele>
        <time>2010-10-09T10:42:45Z</time>
      </trkpt>
      <trkpt lat="45.64" lon="6.19069">
        <ele>816</ele>
        <time>2010-10-09T10:42:46Z</time>
      </trkpt>
      <trkpt lat="45.64004" lon="6.19046">
        <ele>812</ele>
        <time>2010-10-09T10:42:48Z</time>
      </trkpt>
      <trkpt lat="45.64" lon="6.19032">
        <ele>820</ele>
        <time>2010-10-09T10:42:49Z</time>
      </trkpt>
      <trkpt lat="45.63998" lon="6.19017">
        <ele>818</ele>
        <time>2010-10-09T10:42:50Z</time>
      </trkpt>
      <trkpt lat="45.64002" lon="6.18991">
        <ele>811</ele>
        <time>2010-10-09T10:42:52Z</time>
      </trkpt>
      <trkpt lat="45.64005" lon="6.18977">
        <ele>812</ele>
        <time>2010-10-09T10:42:53Z</time>
      </trkpt>
      <trkpt lat="45.64011" lon="6.18966">
        <ele>812</ele>
        <time>2010-10-09T10:42:54Z</time>
      </trkpt>
      <trkpt lat="45.64018" lon="6.18958">
        <ele>813</ele>
        <time>2010-10-09T10:42:55Z</time>
      </trkpt>
      <trkpt lat="45.64026" lon="6.1895">
        <ele>813</ele>
        <time>2010-10-09T10:42:56Z</time>
      </trkpt>
      <trkpt lat="45.64046" lon="6.18937">
        <ele>811</ele>
        <time>2010-10-09T10:42:58Z</time>
      </trkpt>
      <trkpt lat="45.64055" lon="6.18929">
        <ele>809</ele>
        <time>2010-10-09T10:42:59Z</time>
      </trkpt>
      <trkpt lat="45.64075" lon="6.18916">
        <ele>806</ele>
        <time>2010-10-09T10:43:01Z</time>
      </trkpt>
      <trkpt lat="45.64093" lon="6.18904">
        <ele>803</ele>
        <time>2010-10-09T10:43:03Z</time>
      </trkpt>
      <trkpt lat="45.64103" lon="6.18896">
        <ele>804</ele>
        <time>2010-10-09T10:43:04Z</time>
      </trkpt>
      <trkpt lat="45.64112" lon="6.18888">
        <ele>804</ele>
        <time>2010-10-09T10:43:05Z</time>
      </trkpt>
      <trkpt lat="45.64124" lon="6.18881">
        <ele>804</ele>
        <time>2010-10-09T10:43:06Z</time>
      </trkpt>
      <trkpt lat="45.64138" lon="6.18859">
        <ele>803</ele>
        <time>2010-10-09T10:43:08Z</time>
      </trkpt>
      <trkpt lat="45.64141" lon="6.18847">
        <ele>802</ele>
        <time>2010-10-09T10:43:09Z</time>
      </trkpt>
      <trkpt lat="45.64142" lon="6.18834">
        <ele>801</ele>
        <time>2010-10-09T10:43:10Z</time>
      </trkpt>
      <trkpt lat="45.64143" lon="6.1882">
        <ele>806</ele>
        <time>2010-10-09T10:43:12Z</time>
      </trkpt>
      <trkpt lat="45.64148" lon="6.18792">
        <ele>809</ele>
        <time>2010-10-09T10:43:13Z</time>
      </trkpt>
      <trkpt lat="45.64153" lon="6.18767">
        <ele>808</ele>
        <time>2010-10-09T10:43:15Z</time>
      </trkpt>
      <trkpt lat="45.64161" lon="6.18734">
        <ele>817</ele>
        <time>2010-10-09T10:43:18Z</time>
      </trkpt>
      <trkpt lat="45.64174" lon="6.18721">
        <ele>803</ele>
        <time>2010-10-09T10:43:21Z</time>
      </trkpt>
      <trkpt lat="45.64184" lon="6.18721">
        <ele>802</ele>
        <time>2010-10-09T10:43:22Z</time>
      </trkpt>
      <trkpt lat="45.64204" lon="6.18729">
        <ele>800</ele>
        <time>2010-10-09T10:43:23Z</time>
      </trkpt>
      <trkpt lat="45.6421" lon="6.18734">
        <ele>799</ele>
        <time>2010-10-09T10:43:24Z</time>
      </trkpt>
      <trkpt lat="45.64218" lon="6.18739">
        <ele>797</ele>
        <time>2010-10-09T10:43:26Z</time>
      </trkpt>
      <trkpt lat="45.64232" lon="6.18747">
        <ele>793</ele>
        <time>2010-10-09T10:43:27Z</time>
      </trkpt>
      <trkpt lat="45.64238" lon="6.18745">
        <ele>792</ele>
        <time>2010-10-09T10:43:28Z</time>
      </trkpt>
      <trkpt lat="45.64244" lon="6.18742">
        <ele>791</ele>
        <time>2010-10-09T10:43:30Z</time>
      </trkpt>
      <trkpt lat="45.64253" lon="6.18737">
        <ele>787</ele>
        <time>2010-10-09T10:43:31Z</time>
      </trkpt>
      <trkpt lat="45.64259" lon="6.18735">
        <ele>787</ele>
        <time>2010-10-09T10:43:33Z</time>
      </trkpt>
      <trkpt lat="45.64261" lon="6.18736">
        <ele>787</ele>
        <time>2010-10-09T10:43:34Z</time>
      </trkpt>
      <trkpt lat="45.64262" lon="6.18737">
        <ele>787</ele>
        <time>2010-10-09T10:43:35Z</time>
      </trkpt>
      <trkpt lat="45.64265" lon="6.18736">
        <ele>787</ele>
        <time>2010-10-09T10:43:41Z</time>
      </trkpt>
      <trkpt lat="45.64262" lon="6.18738">
        <ele>787</ele>
        <time>2010-10-09T10:43:44Z</time>
      </trkpt>
      <trkpt lat="45.64265" lon="6.18742">
        <ele>787</ele>
        <time>2010-10-09T10:43:45Z</time>
      </trkpt>
      <trkpt lat="45.64266" lon="6.18742">
        <ele>787</ele>
        <time>2010-10-09T10:43:46Z</time>
      </trkpt>
      <trkpt lat="45.64268" lon="6.18743">
        <ele>787</ele>
        <time>2010-10-09T10:43:47Z</time>
      </trkpt>
      <trkpt lat="45.64271" lon="6.18743">
        <ele>787</ele>
        <time>2010-10-09T10:43:50Z</time>
      </trkpt>
      <trkpt lat="45.64273" lon="6.18744">
        <ele>787</ele>
        <time>2010-10-09T10:43:52Z</time>
      </trkpt>
      <trkpt lat="45.64269" lon="6.1874">
        <ele>787</ele>
        <time>2010-10-09T10:43:59Z</time>
      </trkpt>
      <trkpt lat="45.64265" lon="6.18741">
        <ele>787</ele>
        <time>2010-10-09T10:44:06Z</time>
      </trkpt>
      <trkpt lat="45.64263" lon="6.18741">
        <ele>787</ele>
        <time>2010-10-09T10:44:09Z</time>
      </trkpt>
      <trkpt lat="45.64261" lon="6.18741">
        <ele>787</ele>
        <time>2010-10-09T10:44:11Z</time>
      </trkpt>
      <trkpt lat="45.6426" lon="6.1874">
        <ele>787</ele>
        <time>2010-10-09T10:44:12Z</time>
      </trkpt>
      <trkpt lat="45.64259" lon="6.18737">
        <ele>787</ele>
        <time>2010-10-09T10:44:13Z</time>
      </trkpt>
      <trkpt lat="45.6426" lon="6.18734">
        <ele>787</ele>
        <time>2010-10-09T10:44:15Z</time>
      </trkpt>
      <trkpt lat="45.64264" lon="6.18728">
        <ele>787</ele>
        <time>2010-10-09T10:44:16Z</time>
      </trkpt>
      <trkpt lat="45.64267" lon="6.18725">
        <ele>787</ele>
        <time>2010-10-09T10:44:17Z</time>
      </trkpt>
      <trkpt lat="45.6427" lon="6.18721">
        <ele>787</ele>
        <time>2010-10-09T10:44:19Z</time>
      </trkpt>
      <trkpt lat="45.64276" lon="6.18713">
        <ele>787</ele>
        <time>2010-10-09T10:44:20Z</time>
      </trkpt>
      <trkpt lat="45.64282" lon="6.18703">
        <ele>787</ele>
        <time>2010-10-09T10:44:22Z</time>
      </trkpt>
      <trkpt lat="45.64288" lon="6.18692">
        <ele>787</ele>
        <time>2010-10-09T10:44:24Z</time>
      </trkpt>
      <trkpt lat="45.64294" lon="6.1868">
        <ele>787</ele>
        <time>2010-10-09T10:44:26Z</time>
      </trkpt>
      <trkpt lat="45.64297" lon="6.18673">
        <ele>786</ele>
        <time>2010-10-09T10:44:27Z</time>
      </trkpt>
      <trkpt lat="45.64304" lon="6.18659">
        <ele>788</ele>
        <time>2010-10-09T10:44:29Z</time>
      </trkpt>
      <trkpt lat="45.64307" lon="6.18653">
        <ele>788</ele>
        <time>2010-10-09T10:44:30Z</time>
      </trkpt>
      <trkpt lat="45.64315" lon="6.18639">
        <ele>788</ele>
        <time>2010-10-09T10:44:32Z</time>
      </trkpt>
      <trkpt lat="45.64322" lon="6.18625">
        <ele>788</ele>
        <time>2010-10-09T10:44:34Z</time>
      </trkpt>
      <trkpt lat="45.64326" lon="6.18619">
        <ele>788</ele>
        <time>2010-10-09T10:44:35Z</time>
      </trkpt>
      <trkpt lat="45.64335" lon="6.18607">
        <ele>783</ele>
        <time>2010-10-09T10:44:37Z</time>
      </trkpt>
      <trkpt lat="45.64344" lon="6.18596">
        <ele>783</ele>
        <time>2010-10-09T10:44:39Z</time>
      </trkpt>
      <trkpt lat="45.64349" lon="6.1859">
        <ele>783</ele>
        <time>2010-10-09T10:44:40Z</time>
      </trkpt>
      <trkpt lat="45.64358" lon="6.1858">
        <ele>783</ele>
        <time>2010-10-09T10:44:42Z</time>
      </trkpt>
      <trkpt lat="45.64363" lon="6.18574">
        <ele>782</ele>
        <time>2010-10-09T10:44:43Z</time>
      </trkpt>
      <trkpt lat="45.64375" lon="6.18565">
        <ele>782</ele>
        <time>2010-10-09T10:44:45Z</time>
      </trkpt>
      <trkpt lat="45.64386" lon="6.18555">
        <ele>782</ele>
        <time>2010-10-09T10:44:47Z</time>
      </trkpt>
      <trkpt lat="45.64396" lon="6.18546">
        <ele>781</ele>
        <time>2010-10-09T10:44:49Z</time>
      </trkpt>
      <trkpt lat="45.644" lon="6.18541">
        <ele>781</ele>
        <time>2010-10-09T10:44:50Z</time>
      </trkpt>
      <trkpt lat="45.64409" lon="6.18531">
        <ele>781</ele>
        <time>2010-10-09T10:44:52Z</time>
      </trkpt>
      <trkpt lat="45.64419" lon="6.18521">
        <ele>779</ele>
        <time>2010-10-09T10:44:54Z</time>
      </trkpt>
      <trkpt lat="45.64423" lon="6.18515">
        <ele>779</ele>
        <time>2010-10-09T10:44:55Z</time>
      </trkpt>
      <trkpt lat="45.64429" lon="6.1851">
        <ele>779</ele>
        <time>2010-10-09T10:44:56Z</time>
      </trkpt>
      <trkpt lat="45.64434" lon="6.18505">
        <ele>779</ele>
        <time>2010-10-09T10:44:57Z</time>
      </trkpt>
      <trkpt lat="45.6444" lon="6.185">
        <ele>778</ele>
        <time>2010-10-09T10:44:58Z</time>
      </trkpt>
      <trkpt lat="45.64445" lon="6.18495">
        <ele>778</ele>
        <time>2010-10-09T10:44:59Z</time>
      </trkpt>
      <trkpt lat="45.6445" lon="6.1849">
        <ele>778</ele>
        <time>2010-10-09T10:45:00Z</time>
      </trkpt>
      <trkpt lat="45.64455" lon="6.18485">
        <ele>778</ele>
        <time>2010-10-09T10:45:01Z</time>
      </trkpt>
      <trkpt lat="45.6446" lon="6.1848">
        <ele>778</ele>
        <time>2010-10-09T10:45:02Z</time>
      </trkpt>
      <trkpt lat="45.64466" lon="6.18476">
        <ele>778</ele>
        <time>2010-10-09T10:45:03Z</time>
      </trkpt>
      <trkpt lat="45.6447" lon="6.18471">
        <ele>778</ele>
        <time>2010-10-09T10:45:04Z</time>
      </trkpt>
      <trkpt lat="45.64475" lon="6.18466">
        <ele>778</ele>
        <time>2010-10-09T10:45:05Z</time>
      </trkpt>
      <trkpt lat="45.64479" lon="6.18461">
        <ele>777</ele>
        <time>2010-10-09T10:45:06Z</time>
      </trkpt>
      <trkpt lat="45.64483" lon="6.18455">
        <ele>777</ele>
        <time>2010-10-09T10:45:07Z</time>
      </trkpt>
      <trkpt lat="45.64487" lon="6.18449">
        <ele>777</ele>
        <time>2010-10-09T10:45:08Z</time>
      </trkpt>
      <trkpt lat="45.64491" lon="6.18443">
        <ele>776</ele>
        <time>2010-10-09T10:45:09Z</time>
      </trkpt>
      <trkpt lat="45.64495" lon="6.18436">
        <ele>776</ele>
        <time>2010-10-09T10:45:10Z</time>
      </trkpt>
      <trkpt lat="45.64499" lon="6.1843">
        <ele>775</ele>
        <time>2010-10-09T10:45:11Z</time>
      </trkpt>
      <trkpt lat="45.64502" lon="6.18423">
        <ele>776</ele>
        <time>2010-10-09T10:45:12Z</time>
      </trkpt>
      <trkpt lat="45.64506" lon="6.18415">
        <ele>775</ele>
        <time>2010-10-09T10:45:13Z</time>
      </trkpt>
      <trkpt lat="45.64509" lon="6.18408">
        <ele>776</ele>
        <time>2010-10-09T10:45:14Z</time>
      </trkpt>
      <trkpt lat="45.64511" lon="6.184">
        <ele>777</ele>
        <time>2010-10-09T10:45:15Z</time>
      </trkpt>
      <trkpt lat="45.64514" lon="6.18393">
        <ele>778</ele>
        <time>2010-10-09T10:45:16Z</time>
      </trkpt>
      <trkpt lat="45.64518" lon="6.18385">
        <ele>778</ele>
        <time>2010-10-09T10:45:17Z</time>
      </trkpt>
      <trkpt lat="45.64521" lon="6.18378">
        <ele>779</ele>
        <time>2010-10-09T10:45:18Z</time>
      </trkpt>
      <trkpt lat="45.64524" lon="6.1837">
        <ele>779</ele>
        <time>2010-10-09T10:45:19Z</time>
      </trkpt>
      <trkpt lat="45.64527" lon="6.18362">
        <ele>779</ele>
        <time>2010-10-09T10:45:20Z</time>
      </trkpt>
      <trkpt lat="45.64531" lon="6.18354">
        <ele>779</ele>
        <time>2010-10-09T10:45:21Z</time>
      </trkpt>
      <trkpt lat="45.64534" lon="6.18345">
        <ele>779</ele>
        <time>2010-10-09T10:45:22Z</time>
      </trkpt>
      <trkpt lat="45.64538" lon="6.18337">
        <ele>779</ele>
        <time>2010-10-09T10:45:23Z</time>
      </trkpt>
      <trkpt lat="45.64542" lon="6.18329">
        <ele>777</ele>
        <time>2010-10-09T10:45:24Z</time>
      </trkpt>
      <trkpt lat="45.64549" lon="6.18315">
        <ele>777</ele>
        <time>2010-10-09T10:45:26Z</time>
      </trkpt>
      <trkpt lat="45.64552" lon="6.18307">
        <ele>777</ele>
        <time>2010-10-09T10:45:27Z</time>
      </trkpt>
      <trkpt lat="45.64555" lon="6.18299">
        <ele>777</ele>
        <time>2010-10-09T10:45:28Z</time>
      </trkpt>
      <trkpt lat="45.64559" lon="6.18291">
        <ele>777</ele>
        <time>2010-10-09T10:45:29Z</time>
      </trkpt>
      <trkpt lat="45.64563" lon="6.18282">
        <ele>777</ele>
        <time>2010-10-09T10:45:30Z</time>
      </trkpt>
      <trkpt lat="45.64566" lon="6.18274">
        <ele>776</ele>
        <time>2010-10-09T10:45:31Z</time>
      </trkpt>
      <trkpt lat="45.64569" lon="6.18265">
        <ele>776</ele>
        <time>2010-10-09T10:45:32Z</time>
      </trkpt>
      <trkpt lat="45.64572" lon="6.18257">
        <ele>775</ele>
        <time>2010-10-09T10:45:33Z</time>
      </trkpt>
      <trkpt lat="45.64576" lon="6.18249">
        <ele>774</ele>
        <time>2010-10-09T10:45:34Z</time>
      </trkpt>
      <trkpt lat="45.64579" lon="6.1824">
        <ele>775</ele>
        <time>2010-10-09T10:45:35Z</time>
      </trkpt>
      <trkpt lat="45.64582" lon="6.18231">
        <ele>775</ele>
        <time>2010-10-09T10:45:36Z</time>
      </trkpt>
      <trkpt lat="45.64585" lon="6.18223">
        <ele>780</ele>
        <time>2010-10-09T10:45:37Z</time>
      </trkpt>
      <trkpt lat="45.64588" lon="6.18214">
        <ele>780</ele>
        <time>2010-10-09T10:45:38Z</time>
      </trkpt>
      <trkpt lat="45.64591" lon="6.18205">
        <ele>780</ele>
        <time>2010-10-09T10:45:39Z</time>
      </trkpt>
      <trkpt lat="45.64595" lon="6.18197">
        <ele>780</ele>
        <time>2010-10-09T10:45:40Z</time>
      </trkpt>
      <trkpt lat="45.64598" lon="6.18188">
        <ele>779</ele>
        <time>2010-10-09T10:45:41Z</time>
      </trkpt>
      <trkpt lat="45.64601" lon="6.18179">
        <ele>778</ele>
        <time>2010-10-09T10:45:42Z</time>
      </trkpt>
      <trkpt lat="45.64605" lon="6.18171">
        <ele>778</ele>
        <time>2010-10-09T10:45:43Z</time>
      </trkpt>
      <trkpt lat="45.64608" lon="6.18162">
        <ele>776</ele>
        <time>2010-10-09T10:45:44Z</time>
      </trkpt>
      <trkpt lat="45.64611" lon="6.18153">
        <ele>777</ele>
        <time>2010-10-09T10:45:45Z</time>
      </trkpt>
      <trkpt lat="45.64614" lon="6.18144">
        <ele>778</ele>
        <time>2010-10-09T10:45:46Z</time>
      </trkpt>
      <trkpt lat="45.64617" lon="6.18135">
        <ele>778</ele>
        <time>2010-10-09T10:45:47Z</time>
      </trkpt>
      <trkpt lat="45.6462" lon="6.18126">
        <ele>778</ele>
        <time>2010-10-09T10:45:48Z</time>
      </trkpt>
      <trkpt lat="45.64623" lon="6.18118">
        <ele>778</ele>
        <time>2010-10-09T10:45:49Z</time>
      </trkpt>
      <trkpt lat="45.64626" lon="6.18109">
        <ele>778</ele>
        <time>2010-10-09T10:45:50Z</time>
      </trkpt>
      <trkpt lat="45.64629" lon="6.181">
        <ele>778</ele>
        <time>2010-10-09T10:45:51Z</time>
      </trkpt>
      <trkpt lat="45.64632" lon="6.18091">
        <ele>778</ele>
        <time>2010-10-09T10:45:52Z</time>
      </trkpt>
      <trkpt lat="45.64636" lon="6.18083">
        <ele>777</ele>
        <time>2010-10-09T10:45:53Z</time>
      </trkpt>
      <trkpt lat="45.64639" lon="6.18073">
        <ele>777</ele>
        <time>2010-10-09T10:45:54Z</time>
      </trkpt>
      <trkpt lat="45.64643" lon="6.18065">
        <ele>777</ele>
        <time>2010-10-09T10:45:55Z</time>
      </trkpt>
      <trkpt lat="45.64647" lon="6.18057">
        <ele>776</ele>
        <time>2010-10-09T10:45:56Z</time>
      </trkpt>
      <trkpt lat="45.64652" lon="6.1805">
        <ele>776</ele>
        <time>2010-10-09T10:45:57Z</time>
      </trkpt>
      <trkpt lat="45.64658" lon="6.18043">
        <ele>776</ele>
        <time>2010-10-09T10:45:58Z</time>
      </trkpt>
      <trkpt lat="45.64664" lon="6.18037">
        <ele>776</ele>
        <time>2010-10-09T10:45:59Z</time>
      </trkpt>
      <trkpt lat="45.64672" lon="6.18031">
        <ele>783</ele>
        <time>2010-10-09T10:46:00Z</time>
      </trkpt>
      <trkpt lat="45.64678" lon="6.18025">
        <ele>783</ele>
        <time>2010-10-09T10:46:01Z</time>
      </trkpt>
      <trkpt lat="45.64685" lon="6.1802">
        <ele>783</ele>
        <time>2010-10-09T10:46:02Z</time>
      </trkpt>
      <trkpt lat="45.64691" lon="6.18013">
        <ele>784</ele>
        <time>2010-10-09T10:46:03Z</time>
      </trkpt>
      <trkpt lat="45.64697" lon="6.18006">
        <ele>785</ele>
        <time>2010-10-09T10:46:04Z</time>
      </trkpt>
      <trkpt lat="45.64703" lon="6.17998">
        <ele>781</ele>
        <time>2010-10-09T10:46:05Z</time>
      </trkpt>
      <trkpt lat="45.64706" lon="6.17988">
        <ele>782</ele>
        <time>2010-10-09T10:46:06Z</time>
      </trkpt>
      <trkpt lat="45.64709" lon="6.17977">
        <ele>782</ele>
        <time>2010-10-09T10:46:07Z</time>
      </trkpt>
      <trkpt lat="45.64712" lon="6.17967">
        <ele>782</ele>
        <time>2010-10-09T10:46:08Z</time>
      </trkpt>
      <trkpt lat="45.64713" lon="6.17955">
        <ele>781</ele>
        <time>2010-10-09T10:46:09Z</time>
      </trkpt>
      <trkpt lat="45.64713" lon="6.17944">
        <ele>780</ele>
        <time>2010-10-09T10:46:10Z</time>
      </trkpt>
      <trkpt lat="45.64713" lon="6.17933">
        <ele>780</ele>
        <time>2010-10-09T10:46:11Z</time>
      </trkpt>
      <trkpt lat="45.64713" lon="6.17921">
        <ele>780</ele>
        <time>2010-10-09T10:46:12Z</time>
      </trkpt>
      <trkpt lat="45.64715" lon="6.17909">
        <ele>778</ele>
        <time>2010-10-09T10:46:13Z</time>
      </trkpt>
      <trkpt lat="45.64717" lon="6.17898">
        <ele>778</ele>
        <time>2010-10-09T10:46:14Z</time>
      </trkpt>
      <trkpt lat="45.64722" lon="6.17886">
        <ele>778</ele>
        <time>2010-10-09T10:46:15Z</time>
      </trkpt>
      <trkpt lat="45.64727" lon="6.17876">
        <ele>778</ele>
        <time>2010-10-09T10:46:16Z</time>
      </trkpt>
      <trkpt lat="45.64733" lon="6.17867">
        <ele>777</ele>
        <time>2010-10-09T10:46:17Z</time>
      </trkpt>
      <trkpt lat="45.64739" lon="6.17857">
        <ele>776</ele>
        <time>2010-10-09T10:46:18Z</time>
      </trkpt>
      <trkpt lat="45.64745" lon="6.17848">
        <ele>774</ele>
        <time>2010-10-09T10:46:19Z</time>
      </trkpt>
      <trkpt lat="45.64751" lon="6.17839">
        <ele>775</ele>
        <time>2010-10-09T10:46:20Z</time>
      </trkpt>
      <trkpt lat="45.64757" lon="6.17831">
        <ele>773</ele>
        <time>2010-10-09T10:46:21Z</time>
      </trkpt>
      <trkpt lat="45.64762" lon="6.17822">
        <ele>777</ele>
        <time>2010-10-09T10:46:22Z</time>
      </trkpt>
      <trkpt lat="45.64767" lon="6.17813">
        <ele>780</ele>
        <time>2010-10-09T10:46:23Z</time>
      </trkpt>
      <trkpt lat="45.64772" lon="6.17802">
        <ele>781</ele>
        <time>2010-10-09T10:46:24Z</time>
      </trkpt>
      <trkpt lat="45.64776" lon="6.17792">
        <ele>782</ele>
        <time>2010-10-09T10:46:25Z</time>
      </trkpt>
      <trkpt lat="45.6478" lon="6.17781">
        <ele>782</ele>
        <time>2010-10-09T10:46:26Z</time>
      </trkpt>
      <trkpt lat="45.64782" lon="6.17771">
        <ele>781</ele>
        <time>2010-10-09T10:46:27Z</time>
      </trkpt>
      <trkpt lat="45.64785" lon="6.17761">
        <ele>781</ele>
        <time>2010-10-09T10:46:28Z</time>
      </trkpt>
      <trkpt lat="45.64787" lon="6.1775">
        <ele>781</ele>
        <time>2010-10-09T10:46:29Z</time>
      </trkpt>
      <trkpt lat="45.64789" lon="6.1774">
        <ele>775</ele>
        <time>2010-10-09T10:46:30Z</time>
      </trkpt>
      <trkpt lat="45.64791" lon="6.17729">
        <ele>775</ele>
        <time>2010-10-09T10:46:31Z</time>
      </trkpt>
      <trkpt lat="45.64793" lon="6.17718">
        <ele>775</ele>
        <time>2010-10-09T10:46:32Z</time>
      </trkpt>
      <trkpt lat="45.64796" lon="6.17707">
        <ele>774</ele>
        <time>2010-10-09T10:46:33Z</time>
      </trkpt>
      <trkpt lat="45.64798" lon="6.17697">
        <ele>773</ele>
        <time>2010-10-09T10:46:34Z</time>
      </trkpt>
      <trkpt lat="45.64801" lon="6.17687">
        <ele>772</ele>
        <time>2010-10-09T10:46:35Z</time>
      </trkpt>
      <trkpt lat="45.64804" lon="6.17677">
        <ele>772</ele>
        <time>2010-10-09T10:46:36Z</time>
      </trkpt>
      <trkpt lat="45.64809" lon="6.17667">
        <ele>771</ele>
        <time>2010-10-09T10:46:37Z</time>
      </trkpt>
      <trkpt lat="45.64813" lon="6.17658">
        <ele>767</ele>
        <time>2010-10-09T10:46:38Z</time>
      </trkpt>
      <trkpt lat="45.64818" lon="6.17649">
        <ele>766</ele>
        <time>2010-10-09T10:46:39Z</time>
      </trkpt>
      <trkpt lat="45.64822" lon="6.1764">
        <ele>766</ele>
        <time>2010-10-09T10:46:40Z</time>
      </trkpt>
      <trkpt lat="45.64827" lon="6.17632">
        <ele>766</ele>
        <time>2010-10-09T10:46:41Z</time>
      </trkpt>
      <trkpt lat="45.64832" lon="6.17624">
        <ele>765</ele>
        <time>2010-10-09T10:46:42Z</time>
      </trkpt>
      <trkpt lat="45.64837" lon="6.17617">
        <ele>766</ele>
        <time>2010-10-09T10:46:43Z</time>
      </trkpt>
      <trkpt lat="45.64842" lon="6.1761">
        <ele>765</ele>
        <time>2010-10-09T10:46:44Z</time>
      </trkpt>
      <trkpt lat="45.64848" lon="6.17604">
        <ele>764</ele>
        <time>2010-10-09T10:46:45Z</time>
      </trkpt>
      <trkpt lat="45.64853" lon="6.17598">
        <ele>764</ele>
        <time>2010-10-09T10:46:46Z</time>
      </trkpt>
      <trkpt lat="45.64858" lon="6.17592">
        <ele>765</ele>
        <time>2010-10-09T10:46:47Z</time>
      </trkpt>
      <trkpt lat="45.64863" lon="6.17586">
        <ele>766</ele>
        <time>2010-10-09T10:46:48Z</time>
      </trkpt>
      <trkpt lat="45.64867" lon="6.17579">
        <ele>757</ele>
        <time>2010-10-09T10:46:49Z</time>
      </trkpt>
      <trkpt lat="45.64872" lon="6.17572">
        <ele>758</ele>
        <time>2010-10-09T10:46:50Z</time>
      </trkpt>
      <trkpt lat="45.64877" lon="6.17565">
        <ele>758</ele>
        <time>2010-10-09T10:46:51Z</time>
      </trkpt>
      <trkpt lat="45.64883" lon="6.17557">
        <ele>758</ele>
        <time>2010-10-09T10:46:52Z</time>
      </trkpt>
      <trkpt lat="45.64887" lon="6.17551">
        <ele>758</ele>
        <time>2010-10-09T10:46:53Z</time>
      </trkpt>
      <trkpt lat="45.64892" lon="6.17544">
        <ele>758</ele>
        <time>2010-10-09T10:46:54Z</time>
      </trkpt>
      <trkpt lat="45.64896" lon="6.17538">
        <ele>757</ele>
        <time>2010-10-09T10:46:55Z</time>
      </trkpt>
      <trkpt lat="45.64901" lon="6.17532">
        <ele>756</ele>
        <time>2010-10-09T10:46:56Z</time>
      </trkpt>
      <trkpt lat="45.64906" lon="6.17525">
        <ele>754</ele>
        <time>2010-10-09T10:46:57Z</time>
      </trkpt>
      <trkpt lat="45.64912" lon="6.17518">
        <ele>752</ele>
        <time>2010-10-09T10:46:58Z</time>
      </trkpt>
      <trkpt lat="45.64917" lon="6.1751">
        <ele>754</ele>
        <time>2010-10-09T10:46:59Z</time>
      </trkpt>
      <trkpt lat="45.64924" lon="6.17502">
        <ele>752</ele>
        <time>2010-10-09T10:47:00Z</time>
      </trkpt>
      <trkpt lat="45.6493" lon="6.17494">
        <ele>749</ele>
        <time>2010-10-09T10:47:01Z</time>
      </trkpt>
      <trkpt lat="45.64936" lon="6.17486">
        <ele>750</ele>
        <time>2010-10-09T10:47:02Z</time>
      </trkpt>
      <trkpt lat="45.64941" lon="6.17478">
        <ele>751</ele>
        <time>2010-10-09T10:47:03Z</time>
      </trkpt>
      <trkpt lat="45.64946" lon="6.1747">
        <ele>752</ele>
        <time>2010-10-09T10:47:04Z</time>
      </trkpt>
      <trkpt lat="45.64952" lon="6.17463">
        <ele>752</ele>
        <time>2010-10-09T10:47:05Z</time>
      </trkpt>
      <trkpt lat="45.64957" lon="6.17456">
        <ele>752</ele>
        <time>2010-10-09T10:47:06Z</time>
      </trkpt>
      <trkpt lat="45.64961" lon="6.17449">
        <ele>752</ele>
        <time>2010-10-09T10:47:07Z</time>
      </trkpt>
      <trkpt lat="45.64965" lon="6.17441">
        <ele>752</ele>
        <time>2010-10-09T10:47:08Z</time>
      </trkpt>
      <trkpt lat="45.64967" lon="6.17432">
        <ele>751</ele>
        <time>2010-10-09T10:47:09Z</time>
      </trkpt>
      <trkpt lat="45.6497" lon="6.17423">
        <ele>751</ele>
        <time>2010-10-09T10:47:10Z</time>
      </trkpt>
      <trkpt lat="45.64974" lon="6.17416">
        <ele>745</ele>
        <time>2010-10-09T10:47:11Z</time>
      </trkpt>
      <trkpt lat="45.64978" lon="6.17409">
        <ele>745</ele>
        <time>2010-10-09T10:47:12Z</time>
      </trkpt>
      <trkpt lat="45.64984" lon="6.17403">
        <ele>745</ele>
        <time>2010-10-09T10:47:13Z</time>
      </trkpt>
      <trkpt lat="45.64988" lon="6.17399">
        <ele>745</ele>
        <time>2010-10-09T10:47:14Z</time>
      </trkpt>
      <trkpt lat="45.64993" lon="6.17394">
        <ele>745</ele>
        <time>2010-10-09T10:47:15Z</time>
      </trkpt>
      <trkpt lat="45.64996" lon="6.1739">
        <ele>745</ele>
        <time>2010-10-09T10:47:16Z</time>
      </trkpt>
      <trkpt lat="45.65" lon="6.17385">
        <ele>748</ele>
        <time>2010-10-09T10:47:17Z</time>
      </trkpt>
      <trkpt lat="45.65004" lon="6.17381">
        <ele>748</ele>
        <time>2010-10-09T10:47:18Z</time>
      </trkpt>
      <trkpt lat="45.65008" lon="6.17377">
        <ele>748</ele>
        <time>2010-10-09T10:47:19Z</time>
      </trkpt>
      <trkpt lat="45.65012" lon="6.17374">
        <ele>748</ele>
        <time>2010-10-09T10:47:20Z</time>
      </trkpt>
      <trkpt lat="45.65015" lon="6.17371">
        <ele>747</ele>
        <time>2010-10-09T10:47:21Z</time>
      </trkpt>
      <trkpt lat="45.65019" lon="6.17369">
        <ele>748</ele>
        <time>2010-10-09T10:47:22Z</time>
      </trkpt>
      <trkpt lat="45.65023" lon="6.17368">
        <ele>748</ele>
        <time>2010-10-09T10:47:23Z</time>
      </trkpt>
      <trkpt lat="45.65026" lon="6.17366">
        <ele>748</ele>
        <time>2010-10-09T10:47:24Z</time>
      </trkpt>
      <trkpt lat="45.65029" lon="6.17365">
        <ele>748</ele>
        <time>2010-10-09T10:47:25Z</time>
      </trkpt>
      <trkpt lat="45.65033" lon="6.17363">
        <ele>748</ele>
        <time>2010-10-09T10:47:26Z</time>
      </trkpt>
      <trkpt lat="45.65036" lon="6.17362">
        <ele>748</ele>
        <time>2010-10-09T10:47:27Z</time>
      </trkpt>
      <trkpt lat="45.65039" lon="6.17361">
        <ele>748</ele>
        <time>2010-10-09T10:47:28Z</time>
      </trkpt>
      <trkpt lat="45.65041" lon="6.1736">
        <ele>748</ele>
        <time>2010-10-09T10:47:29Z</time>
      </trkpt>
      <trkpt lat="45.65044" lon="6.17358">
        <ele>748</ele>
        <time>2010-10-09T10:47:30Z</time>
      </trkpt>
      <trkpt lat="45.65047" lon="6.17356">
        <ele>748</ele>
        <time>2010-10-09T10:47:31Z</time>
      </trkpt>
      <trkpt lat="45.65049" lon="6.17355">
        <ele>748</ele>
        <time>2010-10-09T10:47:32Z</time>
      </trkpt>
      <trkpt lat="45.65052" lon="6.17354">
        <ele>748</ele>
        <time>2010-10-09T10:47:33Z</time>
      </trkpt>
      <trkpt lat="45.65054" lon="6.17352">
        <ele>748</ele>
        <time>2010-10-09T10:47:34Z</time>
      </trkpt>
      <trkpt lat="45.65056" lon="6.1735">
        <ele>748</ele>
        <time>2010-10-09T10:47:35Z</time>
      </trkpt>
      <trkpt lat="45.65058" lon="6.17348">
        <ele>748</ele>
        <time>2010-10-09T10:47:36Z</time>
      </trkpt>
      <trkpt lat="45.6506" lon="6.17346">
        <ele>748</ele>
        <time>2010-10-09T10:47:37Z</time>
      </trkpt>
      <trkpt lat="45.65062" lon="6.17345">
        <ele>748</ele>
        <time>2010-10-09T10:47:38Z</time>
      </trkpt>
      <trkpt lat="45.65065" lon="6.17343">
        <ele>748</ele>
        <time>2010-10-09T10:47:39Z</time>
      </trkpt>
      <trkpt lat="45.65067" lon="6.17342">
        <ele>748</ele>
        <time>2010-10-09T10:47:40Z</time>
      </trkpt>
      <trkpt lat="45.65069" lon="6.1734">
        <ele>747</ele>
        <time>2010-10-09T10:47:41Z</time>
      </trkpt>
      <trkpt lat="45.65072" lon="6.17339">
        <ele>747</ele>
        <time>2010-10-09T10:47:42Z</time>
      </trkpt>
      <trkpt lat="45.65073" lon="6.17338">
        <ele>747</ele>
        <time>2010-10-09T10:47:43Z</time>
      </trkpt>
      <trkpt lat="45.65076" lon="6.17336">
        <ele>746</ele>
        <time>2010-10-09T10:47:44Z</time>
      </trkpt>
      <trkpt lat="45.65078" lon="6.17336">
        <ele>746</ele>
        <time>2010-10-09T10:47:45Z</time>
      </trkpt>
      <trkpt lat="45.6508" lon="6.17335">
        <ele>746</ele>
        <time>2010-10-09T10:47:46Z</time>
      </trkpt>
      <trkpt lat="45.65081" lon="6.17334">
        <ele>746</ele>
        <time>2010-10-09T10:47:47Z</time>
      </trkpt>
      <trkpt lat="45.65083" lon="6.17334">
        <ele>745</ele>
        <time>2010-10-09T10:47:48Z</time>
      </trkpt>
      <trkpt lat="45.65084" lon="6.17333">
        <ele>745</ele>
        <time>2010-10-09T10:47:49Z</time>
      </trkpt>
      <trkpt lat="45.65086" lon="6.17332">
        <ele>745</ele>
        <time>2010-10-09T10:47:50Z</time>
      </trkpt>
      <trkpt lat="45.65088" lon="6.17331">
        <ele>745</ele>
        <time>2010-10-09T10:47:51Z</time>
      </trkpt>
      <trkpt lat="45.6509" lon="6.1733">
        <ele>745</ele>
        <time>2010-10-09T10:47:52Z</time>
      </trkpt>
      <trkpt lat="45.65092" lon="6.1733">
        <ele>745</ele>
        <time>2010-10-09T10:47:53Z</time>
      </trkpt>
      <trkpt lat="45.65093" lon="6.1733">
        <ele>744</ele>
        <time>2010-10-09T10:47:54Z</time>
      </trkpt>
      <trkpt lat="45.65095" lon="6.1733">
        <ele>744</ele>
        <time>2010-10-09T10:47:55Z</time>
      </trkpt>
      <trkpt lat="45.65097" lon="6.1733">
        <ele>744</ele>
        <time>2010-10-09T10:47:56Z</time>
      </trkpt>
      <trkpt lat="45.65098" lon="6.17329">
        <ele>744</ele>
        <time>2010-10-09T10:47:57Z</time>
      </trkpt>
      <trkpt lat="45.651" lon="6.17328">
        <ele>744</ele>
        <time>2010-10-09T10:47:58Z</time>
      </trkpt>
      <trkpt lat="45.65102" lon="6.17328">
        <ele>744</ele>
        <time>2010-10-09T10:47:59Z</time>
      </trkpt>
      <trkpt lat="45.65104" lon="6.17327">
        <ele>744</ele>
        <time>2010-10-09T10:48:00Z</time>
      </trkpt>
      <trkpt lat="45.65105" lon="6.17327">
        <ele>744</ele>
        <time>2010-10-09T10:48:01Z</time>
      </trkpt>
      <trkpt lat="45.65107" lon="6.17326">
        <ele>744</ele>
        <time>2010-10-09T10:48:02Z</time>
      </trkpt>
      <trkpt lat="45.65109" lon="6.17325">
        <ele>744</ele>
        <time>2010-10-09T10:48:03Z</time>
      </trkpt>
      <trkpt lat="45.65111" lon="6.17325">
        <ele>744</ele>
        <time>2010-10-09T10:48:04Z</time>
      </trkpt>
      <trkpt lat="45.65113" lon="6.17324">
        <ele>744</ele>
        <time>2010-10-09T10:48:05Z</time>
      </trkpt>
      <trkpt lat="45.65115" lon="6.17323">
        <ele>744</ele>
        <time>2010-10-09T10:48:06Z</time>
      </trkpt>
      <trkpt lat="45.65117" lon="6.17323">
        <ele>745</ele>
        <time>2010-10-09T10:48:07Z</time>
      </trkpt>
      <trkpt lat="45.65118" lon="6.17322">
        <ele>745</ele>
        <time>2010-10-09T10:48:08Z</time>
      </trkpt>
      <trkpt lat="45.6512" lon="6.17322">
        <ele>745</ele>
        <time>2010-10-09T10:48:09Z</time>
      </trkpt>
      <trkpt lat="45.65122" lon="6.17322">
        <ele>745</ele>
        <time>2010-10-09T10:48:10Z</time>
      </trkpt>
      <trkpt lat="45.65125" lon="6.17322">
        <ele>745</ele>
        <time>2010-10-09T10:48:11Z</time>
      </trkpt>
      <trkpt lat="45.65128" lon="6.17323">
        <ele>745</ele>
        <time>2010-10-09T10:48:12Z</time>
      </trkpt>
      <trkpt lat="45.65131" lon="6.17324">
        <ele>745</ele>
        <time>2010-10-09T10:48:13Z</time>
      </trkpt>
      <trkpt lat="45.65134" lon="6.17324">
        <ele>746</ele>
        <time>2010-10-09T10:48:14Z</time>
      </trkpt>
      <trkpt lat="45.65136" lon="6.17325">
        <ele>746</ele>
        <time>2010-10-09T10:48:15Z</time>
      </trkpt>
      <trkpt lat="45.65139" lon="6.17325">
        <ele>746</ele>
        <time>2010-10-09T10:48:16Z</time>
      </trkpt>
      <trkpt lat="45.65142" lon="6.17325">
        <ele>747</ele>
        <time>2010-10-09T10:48:17Z</time>
      </trkpt>
      <trkpt lat="45.65144" lon="6.17325">
        <ele>747</ele>
        <time>2010-10-09T10:48:18Z</time>
      </trkpt>
      <trkpt lat="45.65146" lon="6.17324">
        <ele>747</ele>
        <time>2010-10-09T10:48:19Z</time>
      </trkpt>
      <trkpt lat="45.65148" lon="6.17323">
        <ele>747</ele>
        <time>2010-10-09T10:48:20Z</time>
      </trkpt>
      <trkpt lat="45.6515" lon="6.17324">
        <ele>748</ele>
        <time>2010-10-09T10:48:21Z</time>
      </trkpt>
      <trkpt lat="45.65152" lon="6.17324">
        <ele>748</ele>
        <time>2010-10-09T10:48:22Z</time>
      </trkpt>
      <trkpt lat="45.65155" lon="6.17324">
        <ele>748</ele>
        <time>2010-10-09T10:48:23Z</time>
      </trkpt>
      <trkpt lat="45.65157" lon="6.17325">
        <ele>749</ele>
        <time>2010-10-09T10:48:24Z</time>
      </trkpt>
      <trkpt lat="45.65159" lon="6.17325">
        <ele>749</ele>
        <time>2010-10-09T10:48:25Z</time>
      </trkpt>
      <trkpt lat="45.65161" lon="6.17325">
        <ele>750</ele>
        <time>2010-10-09T10:48:26Z</time>
      </trkpt>
      <trkpt lat="45.65163" lon="6.17326">
        <ele>750</ele>
        <time>2010-10-09T10:48:27Z</time>
      </trkpt>
      <trkpt lat="45.65166" lon="6.17326">
        <ele>750</ele>
        <time>2010-10-09T10:48:28Z</time>
      </trkpt>
      <trkpt lat="45.65168" lon="6.17326">
        <ele>752</ele>
        <time>2010-10-09T10:48:29Z</time>
      </trkpt>
      <trkpt lat="45.6517" lon="6.17327">
        <ele>752</ele>
        <time>2010-10-09T10:48:30Z</time>
      </trkpt>
      <trkpt lat="45.65171" lon="6.17327">
        <ele>752</ele>
        <time>2010-10-09T10:48:31Z</time>
      </trkpt>
      <trkpt lat="45.65173" lon="6.17327">
        <ele>751</ele>
        <time>2010-10-09T10:48:32Z</time>
      </trkpt>
      <trkpt lat="45.65174" lon="6.17327">
        <ele>751</ele>
        <time>2010-10-09T10:48:33Z</time>
      </trkpt>
      <trkpt lat="45.65176" lon="6.17326">
        <ele>751</ele>
        <time>2010-10-09T10:48:34Z</time>
      </trkpt>
      <trkpt lat="45.65178" lon="6.17326">
        <ele>751</ele>
        <time>2010-10-09T10:48:35Z</time>
      </trkpt>
      <trkpt lat="45.6518" lon="6.17326">
        <ele>751</ele>
        <time>2010-10-09T10:48:36Z</time>
      </trkpt>
      <trkpt lat="45.65182" lon="6.17326">
        <ele>751</ele>
        <time>2010-10-09T10:48:37Z</time>
      </trkpt>
      <trkpt lat="45.65184" lon="6.17326">
        <ele>750</ele>
        <time>2010-10-09T10:48:38Z</time>
      </trkpt>
      <trkpt lat="45.65186" lon="6.17325">
        <ele>750</ele>
        <time>2010-10-09T10:48:39Z</time>
      </trkpt>
      <trkpt lat="45.65188" lon="6.17325">
        <ele>750</ele>
        <time>2010-10-09T10:48:40Z</time>
      </trkpt>
      <trkpt lat="45.6519" lon="6.17326">
        <ele>750</ele>
        <time>2010-10-09T10:48:41Z</time>
      </trkpt>
      <trkpt lat="45.65192" lon="6.17326">
        <ele>750</ele>
        <time>2010-10-09T10:48:42Z</time>
      </trkpt>
      <trkpt lat="45.65195" lon="6.17326">
        <ele>750</ele>
        <time>2010-10-09T10:48:43Z</time>
      </trkpt>
      <trkpt lat="45.65197" lon="6.17325">
        <ele>750</ele>
        <time>2010-10-09T10:48:44Z</time>
      </trkpt>
      <trkpt lat="45.65198" lon="6.17325">
        <ele>750</ele>
        <time>2010-10-09T10:48:45Z</time>
      </trkpt>
      <trkpt lat="45.652" lon="6.17324">
        <ele>750</ele>
        <time>2010-10-09T10:48:46Z</time>
      </trkpt>
      <trkpt lat="45.65202" lon="6.17324">
        <ele>750</ele>
        <time>2010-10-09T10:48:47Z</time>
      </trkpt>
      <trkpt lat="45.65204" lon="6.17324">
        <ele>750</ele>
        <time>2010-10-09T10:48:48Z</time>
      </trkpt>
      <trkpt lat="45.65206" lon="6.17323">
        <ele>750</ele>
        <time>2010-10-09T10:48:49Z</time>
      </trkpt>
      <trkpt lat="45.65208" lon="6.17323">
        <ele>750</ele>
        <time>2010-10-09T10:48:50Z</time>
      </trkpt>
      <trkpt lat="45.65209" lon="6.17324">
        <ele>750</ele>
        <time>2010-10-09T10:48:51Z</time>
      </trkpt>
      <trkpt lat="45.65211" lon="6.17324">
        <ele>750</ele>
        <time>2010-10-09T10:48:52Z</time>
      </trkpt>
      <trkpt lat="45.65213" lon="6.17324">
        <ele>751</ele>
        <time>2010-10-09T10:48:53Z</time>
      </trkpt>
      <trkpt lat="45.65215" lon="6.17324">
        <ele>751</ele>
        <time>2010-10-09T10:48:54Z</time>
      </trkpt>
      <trkpt lat="45.65217" lon="6.17324">
        <ele>751</ele>
        <time>2010-10-09T10:48:55Z</time>
      </trkpt>
      <trkpt lat="45.65219" lon="6.17324">
        <ele>751</ele>
        <time>2010-10-09T10:48:56Z</time>
      </trkpt>
      <trkpt lat="45.65221" lon="6.17325">
        <ele>751</ele>
        <time>2010-10-09T10:48:57Z</time>
      </trkpt>
      <trkpt lat="45.65223" lon="6.17325">
        <ele>752</ele>
        <time>2010-10-09T10:48:58Z</time>
      </trkpt>
      <trkpt lat="45.65225" lon="6.17325">
        <ele>752</ele>
        <time>2010-10-09T10:48:59Z</time>
      </trkpt>
      <trkpt lat="45.65228" lon="6.17325">
        <ele>752</ele>
        <time>2010-10-09T10:49:00Z</time>
      </trkpt>
      <trkpt lat="45.6523" lon="6.17324">
        <ele>752</ele>
        <time>2010-10-09T10:49:01Z</time>
      </trkpt>
      <trkpt lat="45.65232" lon="6.17324">
        <ele>753</ele>
        <time>2010-10-09T10:49:02Z</time>
      </trkpt>
      <trkpt lat="45.65234" lon="6.17323">
        <ele>753</ele>
        <time>2010-10-09T10:49:03Z</time>
      </trkpt>
      <trkpt lat="45.65237" lon="6.17324">
        <ele>753</ele>
        <time>2010-10-09T10:49:04Z</time>
      </trkpt>
      <trkpt lat="45.65239" lon="6.17324">
        <ele>754</ele>
        <time>2010-10-09T10:49:05Z</time>
      </trkpt>
      <trkpt lat="45.6524" lon="6.17324">
        <ele>754</ele>
        <time>2010-10-09T10:49:06Z</time>
      </trkpt>
      <trkpt lat="45.65242" lon="6.17324">
        <ele>755</ele>
        <time>2010-10-09T10:49:07Z</time>
      </trkpt>
      <trkpt lat="45.65245" lon="6.17324">
        <ele>755</ele>
        <time>2010-10-09T10:49:08Z</time>
      </trkpt>
      <trkpt lat="45.65247" lon="6.17324">
        <ele>755</ele>
        <time>2010-10-09T10:49:09Z</time>
      </trkpt>
      <trkpt lat="45.65249" lon="6.17325">
        <ele>756</ele>
        <time>2010-10-09T10:49:10Z</time>
      </trkpt>
      <trkpt lat="45.65252" lon="6.17325">
        <ele>757</ele>
        <time>2010-10-09T10:49:11Z</time>
      </trkpt>
      <trkpt lat="45.65254" lon="6.17326">
        <ele>757</ele>
        <time>2010-10-09T10:49:12Z</time>
      </trkpt>
      <trkpt lat="45.65256" lon="6.17326">
        <ele>757</ele>
        <time>2010-10-09T10:49:13Z</time>
      </trkpt>
      <trkpt lat="45.65258" lon="6.17327">
        <ele>757</ele>
        <time>2010-10-09T10:49:14Z</time>
      </trkpt>
      <trkpt lat="45.6526" lon="6.17327">
        <ele>756</ele>
        <time>2010-10-09T10:49:15Z</time>
      </trkpt>
      <trkpt lat="45.65263" lon="6.17328">
        <ele>756</ele>
        <time>2010-10-09T10:49:16Z</time>
      </trkpt>
      <trkpt lat="45.65264" lon="6.17328">
        <ele>756</ele>
        <time>2010-10-09T10:49:17Z</time>
      </trkpt>
      <trkpt lat="45.65266" lon="6.17327">
        <ele>756</ele>
        <time>2010-10-09T10:49:18Z</time>
      </trkpt>
      <trkpt lat="45.65268" lon="6.17327">
        <ele>756</ele>
        <time>2010-10-09T10:49:19Z</time>
      </trkpt>
      <trkpt lat="45.6527" lon="6.17327">
        <ele>755</ele>
        <time>2010-10-09T10:49:20Z</time>
      </trkpt>
      <trkpt lat="45.65272" lon="6.17327">
        <ele>755</ele>
        <time>2010-10-09T10:49:21Z</time>
      </trkpt>
      <trkpt lat="45.65275" lon="6.17328">
        <ele>755</ele>
        <time>2010-10-09T10:49:22Z</time>
      </trkpt>
      <trkpt lat="45.65276" lon="6.17327">
        <ele>755</ele>
        <time>2010-10-09T10:49:23Z</time>
      </trkpt>
      <trkpt lat="45.65278" lon="6.17327">
        <ele>755</ele>
        <time>2010-10-09T10:49:24Z</time>
      </trkpt>
      <trkpt lat="45.65279" lon="6.17326">
        <ele>755</ele>
        <time>2010-10-09T10:49:25Z</time>
      </trkpt>
      <trkpt lat="45.65281" lon="6.17325">
        <ele>755</ele>
        <time>2010-10-09T10:49:26Z</time>
      </trkpt>
      <trkpt lat="45.65283" lon="6.17326">
        <ele>755</ele>
        <time>2010-10-09T10:49:27Z</time>
      </trkpt>
      <trkpt lat="45.65284" lon="6.17326">
        <ele>755</ele>
        <time>2010-10-09T10:49:28Z</time>
      </trkpt>
      <trkpt lat="45.65286" lon="6.17326">
        <ele>755</ele>
        <time>2010-10-09T10:49:29Z</time>
      </trkpt>
      <trkpt lat="45.65287" lon="6.17326">
        <ele>755</ele>
        <time>2010-10-09T10:49:30Z</time>
      </trkpt>
      <trkpt lat="45.6529" lon="6.17327">
        <ele>755</ele>
        <time>2010-10-09T10:49:31Z</time>
      </trkpt>
      <trkpt lat="45.65292" lon="6.17328">
        <ele>755</ele>
        <time>2010-10-09T10:49:32Z</time>
      </trkpt>
      <trkpt lat="45.65294" lon="6.17329">
        <ele>755</ele>
        <time>2010-10-09T10:49:33Z</time>
      </trkpt>
      <trkpt lat="45.65296" lon="6.17329">
        <ele>755</ele>
        <time>2010-10-09T10:49:34Z</time>
      </trkpt>
      <trkpt lat="45.65298" lon="6.17329">
        <ele>755</ele>
        <time>2010-10-09T10:49:35Z</time>
      </trkpt>
      <trkpt lat="45.653" lon="6.17329">
        <ele>756</ele>
        <time>2010-10-09T10:49:36Z</time>
      </trkpt>
      <trkpt lat="45.65302" lon="6.17329">
        <ele>756</ele>
        <time>2010-10-09T10:49:37Z</time>
      </trkpt>
      <trkpt lat="45.65304" lon="6.1733">
        <ele>756</ele>
        <time>2010-10-09T10:49:38Z</time>
      </trkpt>
      <trkpt lat="45.65306" lon="6.1733">
        <ele>756</ele>
        <time>2010-10-09T10:49:39Z</time>
      </trkpt>
      <trkpt lat="45.65308" lon="6.1733">
        <ele>756</ele>
        <time>2010-10-09T10:49:40Z</time>
      </trkpt>
      <trkpt lat="45.6531" lon="6.1733">
        <ele>757</ele>
        <time>2010-10-09T10:49:41Z</time>
      </trkpt>
      <trkpt lat="45.65312" lon="6.1733">
        <ele>757</ele>
        <time>2010-10-09T10:49:42Z</time>
      </trkpt>
      <trkpt lat="45.65313" lon="6.1733">
        <ele>757</ele>
        <time>2010-10-09T10:49:43Z</time>
      </trkpt>
      <trkpt lat="45.65315" lon="6.17329">
        <ele>757</ele>
        <time>2010-10-09T10:49:44Z</time>
      </trkpt>
      <trkpt lat="45.65317" lon="6.17329">
        <ele>758</ele>
        <time>2010-10-09T10:49:45Z</time>
      </trkpt>
      <trkpt lat="45.65319" lon="6.1733">
        <ele>758</ele>
        <time>2010-10-09T10:49:46Z</time>
      </trkpt>
      <trkpt lat="45.6532" lon="6.17329">
        <ele>758</ele>
        <time>2010-10-09T10:49:47Z</time>
      </trkpt>
      <trkpt lat="45.65322" lon="6.17329">
        <ele>759</ele>
        <time>2010-10-09T10:49:48Z</time>
      </trkpt>
      <trkpt lat="45.65324" lon="6.17329">
        <ele>759</ele>
        <time>2010-10-09T10:49:49Z</time>
      </trkpt>
      <trkpt lat="45.65327" lon="6.17329">
        <ele>760</ele>
        <time>2010-10-09T10:49:50Z</time>
      </trkpt>
      <trkpt lat="45.65329" lon="6.17329">
        <ele>761</ele>
        <time>2010-10-09T10:49:51Z</time>
      </trkpt>
      <trkpt lat="45.65331" lon="6.17327">
        <ele>760</ele>
        <time>2010-10-09T10:49:52Z</time>
      </trkpt>
      <trkpt lat="45.65333" lon="6.17325">
        <ele>760</ele>
        <time>2010-10-09T10:49:53Z</time>
      </trkpt>
      <trkpt lat="45.65334" lon="6.17324">
        <ele>761</ele>
        <time>2010-10-09T10:49:54Z</time>
      </trkpt>
      <trkpt lat="45.65335" lon="6.17323">
        <ele>761</ele>
        <time>2010-10-09T10:49:55Z</time>
      </trkpt>
      <trkpt lat="45.65337" lon="6.17323">
        <ele>761</ele>
        <time>2010-10-09T10:49:56Z</time>
      </trkpt>
      <trkpt lat="45.65339" lon="6.17322">
        <ele>761</ele>
        <time>2010-10-09T10:49:57Z</time>
      </trkpt>
      <trkpt lat="45.6534" lon="6.17322">
        <ele>761</ele>
        <time>2010-10-09T10:49:58Z</time>
      </trkpt>
      <trkpt lat="45.65342" lon="6.17322">
        <ele>761</ele>
        <time>2010-10-09T10:49:59Z</time>
      </trkpt>
      <trkpt lat="45.65344" lon="6.17322">
        <ele>760</ele>
        <time>2010-10-09T10:50:00Z</time>
      </trkpt>
      <trkpt lat="45.65346" lon="6.17323">
        <ele>760</ele>
        <time>2010-10-09T10:50:01Z</time>
      </trkpt>
      <trkpt lat="45.65348" lon="6.17323">
        <ele>760</ele>
        <time>2010-10-09T10:50:02Z</time>
      </trkpt>
      <trkpt lat="45.6535" lon="6.17323">
        <ele>760</ele>
        <time>2010-10-09T10:50:03Z</time>
      </trkpt>
      <trkpt lat="45.65352" lon="6.17324">
        <ele>760</ele>
        <time>2010-10-09T10:50:04Z</time>
      </trkpt>
      <trkpt lat="45.65354" lon="6.17325">
        <ele>760</ele>
        <time>2010-10-09T10:50:05Z</time>
      </trkpt>
      <trkpt lat="45.65355" lon="6.17327">
        <ele>760</ele>
        <time>2010-10-09T10:50:06Z</time>
      </trkpt>
      <trkpt lat="45.65356" lon="6.1733">
        <ele>760</ele>
        <time>2010-10-09T10:50:07Z</time>
      </trkpt>
      <trkpt lat="45.65357" lon="6.17333">
        <ele>760</ele>
        <time>2010-10-09T10:50:08Z</time>
      </trkpt>
      <trkpt lat="45.65357" lon="6.17336">
        <ele>771</ele>
        <time>2010-10-09T10:50:09Z</time>
      </trkpt>
      <trkpt lat="45.65356" lon="6.17338">
        <ele>771</ele>
        <time>2010-10-09T10:50:10Z</time>
      </trkpt>
      <trkpt lat="45.65355" lon="6.17342">
        <ele>771</ele>
        <time>2010-10-09T10:50:11Z</time>
      </trkpt>
      <trkpt lat="45.65354" lon="6.17344">
        <ele>771</ele>
        <time>2010-10-09T10:50:12Z</time>
      </trkpt>
      <trkpt lat="45.65353" lon="6.17345">
        <ele>771</ele>
        <time>2010-10-09T10:50:13Z</time>
      </trkpt>
      <trkpt lat="45.65351" lon="6.17346">
        <ele>771</ele>
        <time>2010-10-09T10:50:14Z</time>
      </trkpt>
      <trkpt lat="45.65349" lon="6.17347">
        <ele>771</ele>
        <time>2010-10-09T10:50:15Z</time>
      </trkpt>
      <trkpt lat="45.65347" lon="6.17348">
        <ele>771</ele>
        <time>2010-10-09T10:50:16Z</time>
      </trkpt>
      <trkpt lat="45.65345" lon="6.17349">
        <ele>771</ele>
        <time>2010-10-09T10:50:17Z</time>
      </trkpt>
      <trkpt lat="45.65344" lon="6.1735">
        <ele>771</ele>
        <time>2010-10-09T10:50:18Z</time>
      </trkpt>
      <trkpt lat="45.65342" lon="6.17351">
        <ele>771</ele>
        <time>2010-10-09T10:50:19Z</time>
      </trkpt>
      <trkpt lat="45.6534" lon="6.17351">
        <ele>771</ele>
        <time>2010-10-09T10:50:20Z</time>
      </trkpt>
      <trkpt lat="45.65337" lon="6.17352">
        <ele>771</ele>
        <time>2010-10-09T10:50:22Z</time>
      </trkpt>
      <trkpt lat="45.65335" lon="6.17353">
        <ele>771</ele>
        <time>2010-10-09T10:50:23Z</time>
      </trkpt>
      <trkpt lat="45.65334" lon="6.17353">
        <ele>771</ele>
        <time>2010-10-09T10:50:24Z</time>
      </trkpt>
      <trkpt lat="45.65332" lon="6.17354">
        <ele>768</ele>
        <time>2010-10-09T10:50:25Z</time>
      </trkpt>
      <trkpt lat="45.65331" lon="6.17355">
        <ele>768</ele>
        <time>2010-10-09T10:50:26Z</time>
      </trkpt>
      <trkpt lat="45.65329" lon="6.17356">
        <ele>768</ele>
        <time>2010-10-09T10:50:27Z</time>
      </trkpt>
      <trkpt lat="45.65326" lon="6.17356">
        <ele>769</ele>
        <time>2010-10-09T10:50:28Z</time>
      </trkpt>
      <trkpt lat="45.65324" lon="6.17357">
        <ele>769</ele>
        <time>2010-10-09T10:50:29Z</time>
      </trkpt>
      <trkpt lat="45.65322" lon="6.17358">
        <ele>769</ele>
        <time>2010-10-09T10:50:30Z</time>
      </trkpt>
      <trkpt lat="45.65321" lon="6.1736">
        <ele>769</ele>
        <time>2010-10-09T10:50:31Z</time>
      </trkpt>
      <trkpt lat="45.6532" lon="6.17361">
        <ele>769</ele>
        <time>2010-10-09T10:50:32Z</time>
      </trkpt>
      <trkpt lat="45.65318" lon="6.17362">
        <ele>770</ele>
        <time>2010-10-09T10:50:33Z</time>
      </trkpt>
      <trkpt lat="45.65316" lon="6.17362">
        <ele>770</ele>
        <time>2010-10-09T10:50:34Z</time>
      </trkpt>
      <trkpt lat="45.65313" lon="6.17364">
        <ele>770</ele>
        <time>2010-10-09T10:50:35Z</time>
      </trkpt>
      <trkpt lat="45.65311" lon="6.17365">
        <ele>770</ele>
        <time>2010-10-09T10:50:36Z</time>
      </trkpt>
      <trkpt lat="45.6531" lon="6.17366">
        <ele>770</ele>
        <time>2010-10-09T10:50:37Z</time>
      </trkpt>
      <trkpt lat="45.65308" lon="6.17367">
        <ele>770</ele>
        <time>2010-10-09T10:50:38Z</time>
      </trkpt>
      <trkpt lat="45.65305" lon="6.17368">
        <ele>770</ele>
        <time>2010-10-09T10:50:39Z</time>
      </trkpt>
      <trkpt lat="45.65303" lon="6.17369">
        <ele>771</ele>
        <time>2010-10-09T10:50:40Z</time>
      </trkpt>
      <trkpt lat="45.65301" lon="6.17371">
        <ele>771</ele>
        <time>2010-10-09T10:50:41Z</time>
      </trkpt>
      <trkpt lat="45.65299" lon="6.17372">
        <ele>771</ele>
        <time>2010-10-09T10:50:42Z</time>
      </trkpt>
      <trkpt lat="45.65297" lon="6.17373">
        <ele>771</ele>
        <time>2010-10-09T10:50:43Z</time>
      </trkpt>
      <trkpt lat="45.65295" lon="6.17374">
        <ele>771</ele>
        <time>2010-10-09T10:50:44Z</time>
      </trkpt>
      <trkpt lat="45.65293" lon="6.17375">
        <ele>771</ele>
        <time>2010-10-09T10:50:45Z</time>
      </trkpt>
      <trkpt lat="45.65291" lon="6.17376">
        <ele>771</ele>
        <time>2010-10-09T10:50:46Z</time>
      </trkpt>
      <trkpt lat="45.65289" lon="6.17378">
        <ele>771</ele>
        <time>2010-10-09T10:50:47Z</time>
      </trkpt>
      <trkpt lat="45.65286" lon="6.17379">
        <ele>771</ele>
        <time>2010-10-09T10:50:48Z</time>
      </trkpt>
      <trkpt lat="45.65284" lon="6.1738">
        <ele>771</ele>
        <time>2010-10-09T10:50:49Z</time>
      </trkpt>
      <trkpt lat="45.65282" lon="6.17381">
        <ele>772</ele>
        <time>2010-10-09T10:50:50Z</time>
      </trkpt>
      <trkpt lat="45.6528" lon="6.17382">
        <ele>772</ele>
        <time>2010-10-09T10:50:51Z</time>
      </trkpt>
      <trkpt lat="45.65278" lon="6.17383">
        <ele>772</ele>
        <time>2010-10-09T10:50:52Z</time>
      </trkpt>
      <trkpt lat="45.65276" lon="6.17384">
        <ele>772</ele>
        <time>2010-10-09T10:50:53Z</time>
      </trkpt>
      <trkpt lat="45.65274" lon="6.17386">
        <ele>772</ele>
        <time>2010-10-09T10:50:54Z</time>
      </trkpt>
      <trkpt lat="45.65271" lon="6.17386">
        <ele>772</ele>
        <time>2010-10-09T10:50:55Z</time>
      </trkpt>
      <trkpt lat="45.65269" lon="6.17387">
        <ele>772</ele>
        <time>2010-10-09T10:50:56Z</time>
      </trkpt>
      <trkpt lat="45.65267" lon="6.17388">
        <ele>772</ele>
        <time>2010-10-09T10:50:57Z</time>
      </trkpt>
      <trkpt lat="45.65265" lon="6.17389">
        <ele>773</ele>
        <time>2010-10-09T10:50:58Z</time>
      </trkpt>
      <trkpt lat="45.65263" lon="6.17389">
        <ele>773</ele>
        <time>2010-10-09T10:50:59Z</time>
      </trkpt>
      <trkpt lat="45.65261" lon="6.1739">
        <ele>773</ele>
        <time>2010-10-09T10:51:00Z</time>
      </trkpt>
      <trkpt lat="45.65259" lon="6.17391">
        <ele>773</ele>
        <time>2010-10-09T10:51:01Z</time>
      </trkpt>
      <trkpt lat="45.65258" lon="6.17392">
        <ele>773</ele>
        <time>2010-10-09T10:51:02Z</time>
      </trkpt>
      <trkpt lat="45.65255" lon="6.17394">
        <ele>774</ele>
        <time>2010-10-09T10:51:04Z</time>
      </trkpt>
      <trkpt lat="45.65254" lon="6.17395">
        <ele>774</ele>
        <time>2010-10-09T10:51:05Z</time>
      </trkpt>
      <trkpt lat="45.65252" lon="6.17395">
        <ele>774</ele>
        <time>2010-10-09T10:51:06Z</time>
      </trkpt>
      <trkpt lat="45.6525" lon="6.17396">
        <ele>774</ele>
        <time>2010-10-09T10:51:07Z</time>
      </trkpt>
      <trkpt lat="45.65248" lon="6.17397">
        <ele>772</ele>
        <time>2010-10-09T10:51:08Z</time>
      </trkpt>
      <trkpt lat="45.65246" lon="6.17397">
        <ele>772</ele>
        <time>2010-10-09T10:51:09Z</time>
      </trkpt>
      <trkpt lat="45.65245" lon="6.17398">
        <ele>772</ele>
        <time>2010-10-09T10:51:10Z</time>
      </trkpt>
      <trkpt lat="45.65243" lon="6.17399">
        <ele>772</ele>
        <time>2010-10-09T10:51:11Z</time>
      </trkpt>
      <trkpt lat="45.65241" lon="6.174">
        <ele>772</ele>
        <time>2010-10-09T10:51:12Z</time>
      </trkpt>
      <trkpt lat="45.65239" lon="6.17401">
        <ele>772</ele>
        <time>2010-10-09T10:51:13Z</time>
      </trkpt>
      <trkpt lat="45.65237" lon="6.17402">
        <ele>772</ele>
        <time>2010-10-09T10:51:14Z</time>
      </trkpt>
      <trkpt lat="45.65235" lon="6.17402">
        <ele>772</ele>
        <time>2010-10-09T10:51:15Z</time>
      </trkpt>
      <trkpt lat="45.65233" lon="6.17403">
        <ele>772</ele>
        <time>2010-10-09T10:51:16Z</time>
      </trkpt>
      <trkpt lat="45.65231" lon="6.17404">
        <ele>772</ele>
        <time>2010-10-09T10:51:17Z</time>
      </trkpt>
      <trkpt lat="45.65229" lon="6.17404">
        <ele>771</ele>
        <time>2010-10-09T10:51:18Z</time>
      </trkpt>
      <trkpt lat="45.65228" lon="6.17405">
        <ele>771</ele>
        <time>2010-10-09T10:51:19Z</time>
      </trkpt>
      <trkpt lat="45.65226" lon="6.17405">
        <ele>771</ele>
        <time>2010-10-09T10:51:20Z</time>
      </trkpt>
      <trkpt lat="45.65224" lon="6.17406">
        <ele>771</ele>
        <time>2010-10-09T10:51:21Z</time>
      </trkpt>
      <trkpt lat="45.65223" lon="6.17407">
        <ele>771</ele>
        <time>2010-10-09T10:51:22Z</time>
      </trkpt>
      <trkpt lat="45.65221" lon="6.17407">
        <ele>771</ele>
        <time>2010-10-09T10:51:23Z</time>
      </trkpt>
      <trkpt lat="45.6522" lon="6.17408">
        <ele>771</ele>
        <time>2010-10-09T10:51:24Z</time>
      </trkpt>
      <trkpt lat="45.65218" lon="6.17408">
        <ele>771</ele>
        <time>2010-10-09T10:51:25Z</time>
      </trkpt>
      <trkpt lat="45.65216" lon="6.17408">
        <ele>770</ele>
        <time>2010-10-09T10:51:26Z</time>
      </trkpt>
      <trkpt lat="45.65214" lon="6.17408">
        <ele>770</ele>
        <time>2010-10-09T10:51:27Z</time>
      </trkpt>
      <trkpt lat="45.65213" lon="6.17408">
        <ele>770</ele>
        <time>2010-10-09T10:51:28Z</time>
      </trkpt>
      <trkpt lat="45.65211" lon="6.17408">
        <ele>770</ele>
        <time>2010-10-09T10:51:29Z</time>
      </trkpt>
      <trkpt lat="45.65209" lon="6.17409">
        <ele>770</ele>
        <time>2010-10-09T10:51:31Z</time>
      </trkpt>
      <trkpt lat="45.65214" lon="6.17407">
        <ele>770</ele>
        <time>2010-10-09T10:51:35Z</time>
      </trkpt>
      <trkpt lat="45.65215" lon="6.17407">
        <ele>770</ele>
        <time>2010-10-09T10:51:36Z</time>
      </trkpt>
      <trkpt lat="45.65217" lon="6.17407">
        <ele>770</ele>
        <time>2010-10-09T10:51:37Z</time>
      </trkpt>
      <trkpt lat="45.65216" lon="6.17404">
        <ele>770</ele>
        <time>2010-10-09T10:51:40Z</time>
      </trkpt>
      <trkpt lat="45.65214" lon="6.17403">
        <ele>770</ele>
        <time>2010-10-09T10:51:41Z</time>
      </trkpt>
      <trkpt lat="45.65212" lon="6.17403">
        <ele>770</ele>
        <time>2010-10-09T10:51:42Z</time>
      </trkpt>
      <trkpt lat="45.65211" lon="6.17403">
        <ele>770</ele>
        <time>2010-10-09T10:51:44Z</time>
      </trkpt>
      <trkpt lat="45.65211" lon="6.17405">
        <ele>770</ele>
        <time>2010-10-09T10:51:47Z</time>
      </trkpt>
      <trkpt lat="45.65209" lon="6.17405">
        <ele>770</ele>
        <time>2010-10-09T10:51:50Z</time>
      </trkpt>
      <trkpt lat="45.65208" lon="6.17406">
        <ele>770</ele>
        <time>2010-10-09T10:51:54Z</time>
      </trkpt>
      <trkpt lat="45.65203" lon="6.17404">
        <ele>770</ele>
        <time>2010-10-09T10:51:58Z</time>
      </trkpt>
      <trkpt lat="45.652" lon="6.17402">
        <ele>769</ele>
        <time>2010-10-09T10:52:01Z</time>
      </trkpt>
      <trkpt lat="45.65205" lon="6.17402">
        <ele>769</ele>
        <time>2010-10-09T10:52:05Z</time>
      </trkpt>
      <trkpt lat="45.65207" lon="6.17404">
        <ele>770</ele>
        <time>2010-10-09T10:52:07Z</time>
      </trkpt>
      <trkpt lat="45.65209" lon="6.17406">
        <ele>770</ele>
        <time>2010-10-09T10:52:11Z</time>
      </trkpt>
      <trkpt lat="45.65211" lon="6.17407">
        <ele>770</ele>
        <time>2010-10-09T10:52:13Z</time>
      </trkpt>
      <trkpt lat="45.65212" lon="6.17408">
        <ele>770</ele>
        <time>2010-10-09T10:52:15Z</time>
      </trkpt>
      <trkpt lat="45.6521" lon="6.17408">
        <ele>770</ele>
        <time>2010-10-09T10:52:17Z</time>
      </trkpt>
      <trkpt lat="45.65209" lon="6.17407">
        <ele>770</ele>
        <time>2010-10-09T10:52:19Z</time>
      </trkpt>
      <trkpt lat="45.65208" lon="6.17407">
        <ele>770</ele>
        <time>2010-10-09T10:52:23Z</time>
      </trkpt>
      <trkpt lat="45.652" lon="6.17407">
        <ele>770</ele>
        <time>2010-10-09T10:52:24Z</time>
      </trkpt>
      <trkpt lat="45.65198" lon="6.17407">
        <ele>770</ele>
        <time>2010-10-09T10:52:25Z</time>
      </trkpt>
      <trkpt lat="45.65196" lon="6.17406">
        <ele>770</ele>
        <time>2010-10-09T10:52:26Z</time>
      </trkpt>
      <trkpt lat="45.65194" lon="6.17406">
        <ele>770</ele>
        <time>2010-10-09T10:52:27Z</time>
      </trkpt>
      <trkpt lat="45.65192" lon="6.17406">
        <ele>770</ele>
        <time>2010-10-09T10:52:28Z</time>
      </trkpt>
      <trkpt lat="45.65189" lon="6.17406">
        <ele>770</ele>
        <time>2010-10-09T10:52:29Z</time>
      </trkpt>
      <trkpt lat="45.65187" lon="6.17406">
        <ele>770</ele>
        <time>2010-10-09T10:52:30Z</time>
      </trkpt>
      <trkpt lat="45.65186" lon="6.17406">
        <ele>770</ele>
        <time>2010-10-09T10:52:31Z</time>
      </trkpt>
      <trkpt lat="45.65183" lon="6.17407">
        <ele>771</ele>
        <time>2010-10-09T10:52:32Z</time>
      </trkpt>
      <trkpt lat="45.65181" lon="6.17407">
        <ele>771</ele>
        <time>2010-10-09T10:52:33Z</time>
      </trkpt>
      <trkpt lat="45.6518" lon="6.17408">
        <ele>771</ele>
        <time>2010-10-09T10:52:34Z</time>
      </trkpt>
      <trkpt lat="45.65178" lon="6.17407">
        <ele>771</ele>
        <time>2010-10-09T10:52:35Z</time>
      </trkpt>
      <trkpt lat="45.65175" lon="6.17407">
        <ele>772</ele>
        <time>2010-10-09T10:52:36Z</time>
      </trkpt>
      <trkpt lat="45.65173" lon="6.17408">
        <ele>772</ele>
        <time>2010-10-09T10:52:37Z</time>
      </trkpt>
      <trkpt lat="45.65171" lon="6.17408">
        <ele>772</ele>
        <time>2010-10-09T10:52:38Z</time>
      </trkpt>
      <trkpt lat="45.6517" lon="6.17408">
        <ele>772</ele>
        <time>2010-10-09T10:52:39Z</time>
      </trkpt>
      <trkpt lat="45.65167" lon="6.17408">
        <ele>772</ele>
        <time>2010-10-09T10:52:40Z</time>
      </trkpt>
      <trkpt lat="45.65165" lon="6.17408">
        <ele>771</ele>
        <time>2010-10-09T10:52:41Z</time>
      </trkpt>
      <trkpt lat="45.65163" lon="6.17409">
        <ele>771</ele>
        <time>2010-10-09T10:52:42Z</time>
      </trkpt>
      <trkpt lat="45.65161" lon="6.17409">
        <ele>771</ele>
        <time>2010-10-09T10:52:43Z</time>
      </trkpt>
      <trkpt lat="45.65159" lon="6.1741">
        <ele>770</ele>
        <time>2010-10-09T10:52:44Z</time>
      </trkpt>
      <trkpt lat="45.65159" lon="6.17411">
        <ele>771</ele>
        <time>2010-10-09T10:52:45Z</time>
      </trkpt>
      <trkpt lat="45.65157" lon="6.17414">
        <ele>771</ele>
        <time>2010-10-09T10:52:47Z</time>
      </trkpt>
      <trkpt lat="45.65155" lon="6.17415">
        <ele>770</ele>
        <time>2010-10-09T10:52:48Z</time>
      </trkpt>
      <trkpt lat="45.65153" lon="6.17417">
        <ele>778</ele>
        <time>2010-10-09T10:52:50Z</time>
      </trkpt>
      <trkpt lat="45.65152" lon="6.1742">
        <ele>779</ele>
        <time>2010-10-09T10:52:52Z</time>
      </trkpt>
      <trkpt lat="45.65151" lon="6.17421">
        <ele>779</ele>
        <time>2010-10-09T10:52:53Z</time>
      </trkpt>
      <trkpt lat="45.65149" lon="6.17422">
        <ele>779</ele>
        <time>2010-10-09T10:52:54Z</time>
      </trkpt>
      <trkpt lat="45.65148" lon="6.17423">
        <ele>779</ele>
        <time>2010-10-09T10:52:55Z</time>
      </trkpt>
      <trkpt lat="45.65146" lon="6.17424">
        <ele>779</ele>
        <time>2010-10-09T10:52:56Z</time>
      </trkpt>
      <trkpt lat="45.65144" lon="6.17424">
        <ele>780</ele>
        <time>2010-10-09T10:52:57Z</time>
      </trkpt>
      <trkpt lat="45.65143" lon="6.17425">
        <ele>780</ele>
        <time>2010-10-09T10:52:58Z</time>
      </trkpt>
      <trkpt lat="45.65142" lon="6.17427">
        <ele>780</ele>
        <time>2010-10-09T10:52:59Z</time>
      </trkpt>
      <trkpt lat="45.6514" lon="6.17428">
        <ele>780</ele>
        <time>2010-10-09T10:53:00Z</time>
      </trkpt>
      <trkpt lat="45.65139" lon="6.17429">
        <ele>780</ele>
        <time>2010-10-09T10:53:01Z</time>
      </trkpt>
      <trkpt lat="45.65137" lon="6.1743">
        <ele>781</ele>
        <time>2010-10-09T10:53:02Z</time>
      </trkpt>
      <trkpt lat="45.65135" lon="6.17432">
        <ele>781</ele>
        <time>2010-10-09T10:53:03Z</time>
      </trkpt>
      <trkpt lat="45.65134" lon="6.17434">
        <ele>781</ele>
        <time>2010-10-09T10:53:04Z</time>
      </trkpt>
      <trkpt lat="45.65133" lon="6.17435">
        <ele>781</ele>
        <time>2010-10-09T10:53:05Z</time>
      </trkpt>
      <trkpt lat="45.65131" lon="6.17437">
        <ele>781</ele>
        <time>2010-10-09T10:53:06Z</time>
      </trkpt>
      <trkpt lat="45.65129" lon="6.17438">
        <ele>781</ele>
        <time>2010-10-09T10:53:07Z</time>
      </trkpt>
      <trkpt lat="45.65127" lon="6.17438">
        <ele>781</ele>
        <time>2010-10-09T10:53:08Z</time>
      </trkpt>
      <trkpt lat="45.65125" lon="6.17439">
        <ele>781</ele>
        <time>2010-10-09T10:53:09Z</time>
      </trkpt>
      <trkpt lat="45.65123" lon="6.1744">
        <ele>781</ele>
        <time>2010-10-09T10:53:10Z</time>
      </trkpt>
      <trkpt lat="45.65121" lon="6.17441">
        <ele>781</ele>
        <time>2010-10-09T10:53:11Z</time>
      </trkpt>
      <trkpt lat="45.65119" lon="6.17442">
        <ele>781</ele>
        <time>2010-10-09T10:53:12Z</time>
      </trkpt>
      <trkpt lat="45.65117" lon="6.17442">
        <ele>781</ele>
        <time>2010-10-09T10:53:13Z</time>
      </trkpt>
      <trkpt lat="45.65115" lon="6.17443">
        <ele>781</ele>
        <time>2010-10-09T10:53:14Z</time>
      </trkpt>
      <trkpt lat="45.65114" lon="6.17444">
        <ele>781</ele>
        <time>2010-10-09T10:53:15Z</time>
      </trkpt>
      <trkpt lat="45.65112" lon="6.17444">
        <ele>781</ele>
        <time>2010-10-09T10:53:16Z</time>
      </trkpt>
      <trkpt lat="45.6511" lon="6.17445">
        <ele>781</ele>
        <time>2010-10-09T10:53:17Z</time>
      </trkpt>
      <trkpt lat="45.65108" lon="6.17446">
        <ele>781</ele>
        <time>2010-10-09T10:53:18Z</time>
      </trkpt>
      <trkpt lat="45.65106" lon="6.17447">
        <ele>781</ele>
        <time>2010-10-09T10:53:19Z</time>
      </trkpt>
      <trkpt lat="45.65104" lon="6.17448">
        <ele>782</ele>
        <time>2010-10-09T10:53:20Z</time>
      </trkpt>
      <trkpt lat="45.65103" lon="6.1745">
        <ele>782</ele>
        <time>2010-10-09T10:53:21Z</time>
      </trkpt>
      <trkpt lat="45.65101" lon="6.17451">
        <ele>782</ele>
        <time>2010-10-09T10:53:22Z</time>
      </trkpt>
      <trkpt lat="45.65099" lon="6.17452">
        <ele>782</ele>
        <time>2010-10-09T10:53:23Z</time>
      </trkpt>
      <trkpt lat="45.65097" lon="6.17452">
        <ele>782</ele>
        <time>2010-10-09T10:53:24Z</time>
      </trkpt>
      <trkpt lat="45.65095" lon="6.17453">
        <ele>782</ele>
        <time>2010-10-09T10:53:25Z</time>
      </trkpt>
      <trkpt lat="45.65093" lon="6.17454">
        <ele>782</ele>
        <time>2010-10-09T10:53:26Z</time>
      </trkpt>
      <trkpt lat="45.65091" lon="6.17454">
        <ele>782</ele>
        <time>2010-10-09T10:53:27Z</time>
      </trkpt>
      <trkpt lat="45.65089" lon="6.17455">
        <ele>782</ele>
        <time>2010-10-09T10:53:28Z</time>
      </trkpt>
      <trkpt lat="45.65087" lon="6.17456">
        <ele>782</ele>
        <time>2010-10-09T10:53:29Z</time>
      </trkpt>
      <trkpt lat="45.65084" lon="6.17457">
        <ele>783</ele>
        <time>2010-10-09T10:53:30Z</time>
      </trkpt>
      <trkpt lat="45.65083" lon="6.17458">
        <ele>775</ele>
        <time>2010-10-09T10:53:31Z</time>
      </trkpt>
      <trkpt lat="45.65081" lon="6.17459">
        <ele>775</ele>
        <time>2010-10-09T10:53:32Z</time>
      </trkpt>
      <trkpt lat="45.65079" lon="6.1746">
        <ele>775</ele>
        <time>2010-10-09T10:53:33Z</time>
      </trkpt>
      <trkpt lat="45.65077" lon="6.1746">
        <ele>775</ele>
        <time>2010-10-09T10:53:34Z</time>
      </trkpt>
      <trkpt lat="45.65075" lon="6.17461">
        <ele>775</ele>
        <time>2010-10-09T10:53:35Z</time>
      </trkpt>
      <trkpt lat="45.65073" lon="6.17463">
        <ele>775</ele>
        <time>2010-10-09T10:53:36Z</time>
      </trkpt>
      <trkpt lat="45.6507" lon="6.17463">
        <ele>775</ele>
        <time>2010-10-09T10:53:37Z</time>
      </trkpt>
      <trkpt lat="45.65068" lon="6.17464">
        <ele>775</ele>
        <time>2010-10-09T10:53:38Z</time>
      </trkpt>
      <trkpt lat="45.65067" lon="6.17465">
        <ele>775</ele>
        <time>2010-10-09T10:53:39Z</time>
      </trkpt>
      <trkpt lat="45.65068" lon="6.17466">
        <ele>776</ele>
        <time>2010-10-09T10:53:40Z</time>
      </trkpt>
      <trkpt lat="45.65066" lon="6.17467">
        <ele>776</ele>
        <time>2010-10-09T10:53:41Z</time>
      </trkpt>
      <trkpt lat="45.65064" lon="6.17468">
        <ele>776</ele>
        <time>2010-10-09T10:53:42Z</time>
      </trkpt>
      <trkpt lat="45.65062" lon="6.17469">
        <ele>776</ele>
        <time>2010-10-09T10:53:43Z</time>
      </trkpt>
      <trkpt lat="45.6506" lon="6.1747">
        <ele>776</ele>
        <time>2010-10-09T10:53:44Z</time>
      </trkpt>
      <trkpt lat="45.65059" lon="6.17471">
        <ele>776</ele>
        <time>2010-10-09T10:53:45Z</time>
      </trkpt>
      <trkpt lat="45.65057" lon="6.17473">
        <ele>776</ele>
        <time>2010-10-09T10:53:46Z</time>
      </trkpt>
      <trkpt lat="45.65055" lon="6.17474">
        <ele>776</ele>
        <time>2010-10-09T10:53:47Z</time>
      </trkpt>
      <trkpt lat="45.65054" lon="6.17475">
        <ele>775</ele>
        <time>2010-10-09T10:53:48Z</time>
      </trkpt>
      <trkpt lat="45.65051" lon="6.17476">
        <ele>775</ele>
        <time>2010-10-09T10:53:49Z</time>
      </trkpt>
      <trkpt lat="45.65049" lon="6.17477">
        <ele>775</ele>
        <time>2010-10-09T10:53:50Z</time>
      </trkpt>
      <trkpt lat="45.65048" lon="6.17478">
        <ele>775</ele>
        <time>2010-10-09T10:53:51Z</time>
      </trkpt>
      <trkpt lat="45.65046" lon="6.1748">
        <ele>775</ele>
        <time>2010-10-09T10:53:52Z</time>
      </trkpt>
      <trkpt lat="45.65045" lon="6.17481">
        <ele>775</ele>
        <time>2010-10-09T10:53:53Z</time>
      </trkpt>
      <trkpt lat="45.65044" lon="6.17483">
        <ele>775</ele>
        <time>2010-10-09T10:53:54Z</time>
      </trkpt>
      <trkpt lat="45.65042" lon="6.17485">
        <ele>775</ele>
        <time>2010-10-09T10:53:55Z</time>
      </trkpt>
      <trkpt lat="45.65041" lon="6.17487">
        <ele>775</ele>
        <time>2010-10-09T10:53:56Z</time>
      </trkpt>
      <trkpt lat="45.6504" lon="6.1749">
        <ele>775</ele>
        <time>2010-10-09T10:53:57Z</time>
      </trkpt>
      <trkpt lat="45.65039" lon="6.17492">
        <ele>775</ele>
        <time>2010-10-09T10:53:58Z</time>
      </trkpt>
      <trkpt lat="45.65038" lon="6.17494">
        <ele>775</ele>
        <time>2010-10-09T10:53:59Z</time>
      </trkpt>
      <trkpt lat="45.65036" lon="6.17495">
        <ele>775</ele>
        <time>2010-10-09T10:54:00Z</time>
      </trkpt>
      <trkpt lat="45.65035" lon="6.17496">
        <ele>775</ele>
        <time>2010-10-09T10:54:01Z</time>
      </trkpt>
      <trkpt lat="45.65035" lon="6.17499">
        <ele>775</ele>
        <time>2010-10-09T10:54:02Z</time>
      </trkpt>
      <trkpt lat="45.65035" lon="6.17501">
        <ele>791</ele>
        <time>2010-10-09T10:54:03Z</time>
      </trkpt>
      <trkpt lat="45.65035" lon="6.17504">
        <ele>791</ele>
        <time>2010-10-09T10:54:04Z</time>
      </trkpt>
      <trkpt lat="45.65035" lon="6.17507">
        <ele>791</ele>
        <time>2010-10-09T10:54:05Z</time>
      </trkpt>
      <trkpt lat="45.65036" lon="6.1751">
        <ele>792</ele>
        <time>2010-10-09T10:54:06Z</time>
      </trkpt>
      <trkpt lat="45.65037" lon="6.17512">
        <ele>792</ele>
        <time>2010-10-09T10:54:07Z</time>
      </trkpt>
      <trkpt lat="45.65038" lon="6.17513">
        <ele>793</ele>
        <time>2010-10-09T10:54:08Z</time>
      </trkpt>
      <trkpt lat="45.6504" lon="6.17515">
        <ele>793</ele>
        <time>2010-10-09T10:54:09Z</time>
      </trkpt>
      <trkpt lat="45.65041" lon="6.17516">
        <ele>793</ele>
        <time>2010-10-09T10:54:10Z</time>
      </trkpt>
      <trkpt lat="45.65043" lon="6.17516">
        <ele>794</ele>
        <time>2010-10-09T10:54:11Z</time>
      </trkpt>
      <trkpt lat="45.65045" lon="6.17517">
        <ele>794</ele>
        <time>2010-10-09T10:54:12Z</time>
      </trkpt>
      <trkpt lat="45.65048" lon="6.17517">
        <ele>794</ele>
        <time>2010-10-09T10:54:13Z</time>
      </trkpt>
      <trkpt lat="45.6505" lon="6.17516">
        <ele>794</ele>
        <time>2010-10-09T10:54:14Z</time>
      </trkpt>
      <trkpt lat="45.65052" lon="6.17516">
        <ele>795</ele>
        <time>2010-10-09T10:54:15Z</time>
      </trkpt>
      <trkpt lat="45.65054" lon="6.17515">
        <ele>795</ele>
        <time>2010-10-09T10:54:16Z</time>
      </trkpt>
      <trkpt lat="45.65055" lon="6.17514">
        <ele>795</ele>
        <time>2010-10-09T10:54:17Z</time>
      </trkpt>
      <trkpt lat="45.65057" lon="6.17513">
        <ele>795</ele>
        <time>2010-10-09T10:54:18Z</time>
      </trkpt>
      <trkpt lat="45.65059" lon="6.17512">
        <ele>795</ele>
        <time>2010-10-09T10:54:19Z</time>
      </trkpt>
      <trkpt lat="45.6506" lon="6.17509">
        <ele>794</ele>
        <time>2010-10-09T10:54:20Z</time>
      </trkpt>
      <trkpt lat="45.65061" lon="6.17506">
        <ele>794</ele>
        <time>2010-10-09T10:54:21Z</time>
      </trkpt>
      <trkpt lat="45.65062" lon="6.17504">
        <ele>794</ele>
        <time>2010-10-09T10:54:22Z</time>
      </trkpt>
      <trkpt lat="45.65064" lon="6.17502">
        <ele>794</ele>
        <time>2010-10-09T10:54:23Z</time>
      </trkpt>
      <trkpt lat="45.65065" lon="6.175">
        <ele>794</ele>
        <time>2010-10-09T10:54:24Z</time>
      </trkpt>
      <trkpt lat="45.65067" lon="6.17499">
        <ele>783</ele>
        <time>2010-10-09T10:54:25Z</time>
      </trkpt>
      <trkpt lat="45.65068" lon="6.17497">
        <ele>783</ele>
        <time>2010-10-09T10:54:26Z</time>
      </trkpt>
      <trkpt lat="45.6507" lon="6.17496">
        <ele>784</ele>
        <time>2010-10-09T10:54:27Z</time>
      </trkpt>
      <trkpt lat="45.65071" lon="6.17495">
        <ele>784</ele>
        <time>2010-10-09T10:54:28Z</time>
      </trkpt>
      <trkpt lat="45.65073" lon="6.17493">
        <ele>785</ele>
        <time>2010-10-09T10:54:29Z</time>
      </trkpt>
      <trkpt lat="45.65075" lon="6.17494">
        <ele>786</ele>
        <time>2010-10-09T10:54:30Z</time>
      </trkpt>
      <trkpt lat="45.65077" lon="6.17492">
        <ele>786</ele>
        <time>2010-10-09T10:54:31Z</time>
      </trkpt>
      <trkpt lat="45.65078" lon="6.17492">
        <ele>786</ele>
        <time>2010-10-09T10:54:32Z</time>
      </trkpt>
      <trkpt lat="45.65079" lon="6.1749">
        <ele>786</ele>
        <time>2010-10-09T10:54:33Z</time>
      </trkpt>
      <trkpt lat="45.65081" lon="6.1749">
        <ele>786</ele>
        <time>2010-10-09T10:54:34Z</time>
      </trkpt>
      <trkpt lat="45.65084" lon="6.1749">
        <ele>790</ele>
        <time>2010-10-09T10:54:35Z</time>
      </trkpt>
      <trkpt lat="45.65086" lon="6.17491">
        <ele>790</ele>
        <time>2010-10-09T10:54:36Z</time>
      </trkpt>
      <trkpt lat="45.65089" lon="6.17491">
        <ele>790</ele>
        <time>2010-10-09T10:54:37Z</time>
      </trkpt>
      <trkpt lat="45.65091" lon="6.17492">
        <ele>790</ele>
        <time>2010-10-09T10:54:38Z</time>
      </trkpt>
      <trkpt lat="45.65094" lon="6.17492">
        <ele>789</ele>
        <time>2010-10-09T10:54:39Z</time>
      </trkpt>
      <trkpt lat="45.65096" lon="6.17493">
        <ele>789</ele>
        <time>2010-10-09T10:54:40Z</time>
      </trkpt>
      <trkpt lat="45.65099" lon="6.17494">
        <ele>789</ele>
        <time>2010-10-09T10:54:41Z</time>
      </trkpt>
      <trkpt lat="45.65101" lon="6.17494">
        <ele>789</ele>
        <time>2010-10-09T10:54:42Z</time>
      </trkpt>
      <trkpt lat="45.65103" lon="6.17495">
        <ele>788</ele>
        <time>2010-10-09T10:54:43Z</time>
      </trkpt>
      <trkpt lat="45.65106" lon="6.17495">
        <ele>788</ele>
        <time>2010-10-09T10:54:44Z</time>
      </trkpt>
      <trkpt lat="45.65108" lon="6.17495">
        <ele>788</ele>
        <time>2010-10-09T10:54:45Z</time>
      </trkpt>
      <trkpt lat="45.6511" lon="6.17496">
        <ele>788</ele>
        <time>2010-10-09T10:54:46Z</time>
      </trkpt>
      <trkpt lat="45.65113" lon="6.17496">
        <ele>788</ele>
        <time>2010-10-09T10:54:47Z</time>
      </trkpt>
      <trkpt lat="45.65115" lon="6.17496">
        <ele>788</ele>
        <time>2010-10-09T10:54:48Z</time>
      </trkpt>
      <trkpt lat="45.65116" lon="6.17495">
        <ele>788</ele>
        <time>2010-10-09T10:54:49Z</time>
      </trkpt>
      <trkpt lat="45.65117" lon="6.17493">
        <ele>788</ele>
        <time>2010-10-09T10:54:50Z</time>
      </trkpt>
      <trkpt lat="45.65119" lon="6.17493">
        <ele>788</ele>
        <time>2010-10-09T10:54:51Z</time>
      </trkpt>
      <trkpt lat="45.65121" lon="6.17493">
        <ele>788</ele>
        <time>2010-10-09T10:54:52Z</time>
      </trkpt>
      <trkpt lat="45.65124" lon="6.17494">
        <ele>788</ele>
        <time>2010-10-09T10:54:53Z</time>
      </trkpt>
      <trkpt lat="45.65127" lon="6.17494">
        <ele>788</ele>
        <time>2010-10-09T10:54:54Z</time>
      </trkpt>
      <trkpt lat="45.65129" lon="6.17495">
        <ele>788</ele>
        <time>2010-10-09T10:54:55Z</time>
      </trkpt>
      <trkpt lat="45.65132" lon="6.17495">
        <ele>788</ele>
        <time>2010-10-09T10:54:56Z</time>
      </trkpt>
      <trkpt lat="45.65134" lon="6.17495">
        <ele>788</ele>
        <time>2010-10-09T10:54:57Z</time>
      </trkpt>
      <trkpt lat="45.65136" lon="6.17495">
        <ele>789</ele>
        <time>2010-10-09T10:54:58Z</time>
      </trkpt>
      <trkpt lat="45.65138" lon="6.17495">
        <ele>789</ele>
        <time>2010-10-09T10:54:59Z</time>
      </trkpt>
      <trkpt lat="45.6514" lon="6.17495">
        <ele>789</ele>
        <time>2010-10-09T10:55:00Z</time>
      </trkpt>
      <trkpt lat="45.65142" lon="6.17495">
        <ele>789</ele>
        <time>2010-10-09T10:55:01Z</time>
      </trkpt>
      <trkpt lat="45.65145" lon="6.17495">
        <ele>790</ele>
        <time>2010-10-09T10:55:02Z</time>
      </trkpt>
      <trkpt lat="45.65147" lon="6.17495">
        <ele>790</ele>
        <time>2010-10-09T10:55:03Z</time>
      </trkpt>
      <trkpt lat="45.65149" lon="6.17496">
        <ele>791</ele>
        <time>2010-10-09T10:55:04Z</time>
      </trkpt>
      <trkpt lat="45.65151" lon="6.17495">
        <ele>791</ele>
        <time>2010-10-09T10:55:05Z</time>
      </trkpt>
      <trkpt lat="45.65153" lon="6.17495">
        <ele>791</ele>
        <time>2010-10-09T10:55:06Z</time>
      </trkpt>
      <trkpt lat="45.65155" lon="6.17496">
        <ele>792</ele>
        <time>2010-10-09T10:55:07Z</time>
      </trkpt>
      <trkpt lat="45.65157" lon="6.17496">
        <ele>793</ele>
        <time>2010-10-09T10:55:08Z</time>
      </trkpt>
      <trkpt lat="45.6516" lon="6.17496">
        <ele>793</ele>
        <time>2010-10-09T10:55:09Z</time>
      </trkpt>
      <trkpt lat="45.65162" lon="6.17496">
        <ele>794</ele>
        <time>2010-10-09T10:55:10Z</time>
      </trkpt>
      <trkpt lat="45.65164" lon="6.17496">
        <ele>795</ele>
        <time>2010-10-09T10:55:11Z</time>
      </trkpt>
      <trkpt lat="45.65166" lon="6.17497">
        <ele>795</ele>
        <time>2010-10-09T10:55:12Z</time>
      </trkpt>
      <trkpt lat="45.65168" lon="6.17497">
        <ele>796</ele>
        <time>2010-10-09T10:55:13Z</time>
      </trkpt>
      <trkpt lat="45.6517" lon="6.17497">
        <ele>795</ele>
        <time>2010-10-09T10:55:14Z</time>
      </trkpt>
      <trkpt lat="45.65172" lon="6.17498">
        <ele>795</ele>
        <time>2010-10-09T10:55:15Z</time>
      </trkpt>
      <trkpt lat="45.65174" lon="6.17499">
        <ele>794</ele>
        <time>2010-10-09T10:55:16Z</time>
      </trkpt>
      <trkpt lat="45.65176" lon="6.17499">
        <ele>794</ele>
        <time>2010-10-09T10:55:17Z</time>
      </trkpt>
      <trkpt lat="45.65178" lon="6.175">
        <ele>794</ele>
        <time>2010-10-09T10:55:18Z</time>
      </trkpt>
      <trkpt lat="45.6518" lon="6.175">
        <ele>801</ele>
        <time>2010-10-09T10:55:19Z</time>
      </trkpt>
      <trkpt lat="45.65182" lon="6.17501">
        <ele>801</ele>
        <time>2010-10-09T10:55:20Z</time>
      </trkpt>
      <trkpt lat="45.65184" lon="6.17501">
        <ele>802</ele>
        <time>2010-10-09T10:55:21Z</time>
      </trkpt>
      <trkpt lat="45.65186" lon="6.17502">
        <ele>802</ele>
        <time>2010-10-09T10:55:22Z</time>
      </trkpt>
      <trkpt lat="45.65188" lon="6.17502">
        <ele>802</ele>
        <time>2010-10-09T10:55:23Z</time>
      </trkpt>
      <trkpt lat="45.6519" lon="6.17502">
        <ele>802</ele>
        <time>2010-10-09T10:55:24Z</time>
      </trkpt>
      <trkpt lat="45.65192" lon="6.17503">
        <ele>803</ele>
        <time>2010-10-09T10:55:25Z</time>
      </trkpt>
      <trkpt lat="45.65194" lon="6.17504">
        <ele>803</ele>
        <time>2010-10-09T10:55:26Z</time>
      </trkpt>
      <trkpt lat="45.65197" lon="6.17505">
        <ele>803</ele>
        <time>2010-10-09T10:55:27Z</time>
      </trkpt>
      <trkpt lat="45.65199" lon="6.17505">
        <ele>803</ele>
        <time>2010-10-09T10:55:28Z</time>
      </trkpt>
      <trkpt lat="45.65201" lon="6.17506">
        <ele>803</ele>
        <time>2010-10-09T10:55:29Z</time>
      </trkpt>
      <trkpt lat="45.65203" lon="6.17507">
        <ele>803</ele>
        <time>2010-10-09T10:55:30Z</time>
      </trkpt>
      <trkpt lat="45.65205" lon="6.17508">
        <ele>803</ele>
        <time>2010-10-09T10:55:31Z</time>
      </trkpt>
      <trkpt lat="45.65207" lon="6.17508">
        <ele>803</ele>
        <time>2010-10-09T10:55:32Z</time>
      </trkpt>
      <trkpt lat="45.65209" lon="6.17509">
        <ele>803</ele>
        <time>2010-10-09T10:55:33Z</time>
      </trkpt>
      <trkpt lat="45.65211" lon="6.1751">
        <ele>804</ele>
        <time>2010-10-09T10:55:34Z</time>
      </trkpt>
      <trkpt lat="45.65213" lon="6.1751">
        <ele>803</ele>
        <time>2010-10-09T10:55:35Z</time>
      </trkpt>
      <trkpt lat="45.65216" lon="6.17511">
        <ele>803</ele>
        <time>2010-10-09T10:55:36Z</time>
      </trkpt>
      <trkpt lat="45.65218" lon="6.17512">
        <ele>803</ele>
        <time>2010-10-09T10:55:37Z</time>
      </trkpt>
      <trkpt lat="45.6522" lon="6.17513">
        <ele>803</ele>
        <time>2010-10-09T10:55:38Z</time>
      </trkpt>
      <trkpt lat="45.65222" lon="6.17514">
        <ele>803</ele>
        <time>2010-10-09T10:55:39Z</time>
      </trkpt>
      <trkpt lat="45.65224" lon="6.17515">
        <ele>803</ele>
        <time>2010-10-09T10:55:40Z</time>
      </trkpt>
      <trkpt lat="45.65226" lon="6.17515">
        <ele>803</ele>
        <time>2010-10-09T10:55:41Z</time>
      </trkpt>
      <trkpt lat="45.65228" lon="6.17515">
        <ele>803</ele>
        <time>2010-10-09T10:55:42Z</time>
      </trkpt>
      <trkpt lat="45.6523" lon="6.17516">
        <ele>803</ele>
        <time>2010-10-09T10:55:43Z</time>
      </trkpt>
      <trkpt lat="45.65231" lon="6.17517">
        <ele>803</ele>
        <time>2010-10-09T10:55:44Z</time>
      </trkpt>
      <trkpt lat="45.65233" lon="6.17518">
        <ele>803</ele>
        <time>2010-10-09T10:55:45Z</time>
      </trkpt>
      <trkpt lat="45.65235" lon="6.17519">
        <ele>803</ele>
        <time>2010-10-09T10:55:46Z</time>
      </trkpt>
      <trkpt lat="45.65237" lon="6.1752">
        <ele>803</ele>
        <time>2010-10-09T10:55:47Z</time>
      </trkpt>
      <trkpt lat="45.65239" lon="6.17521">
        <ele>803</ele>
        <time>2010-10-09T10:55:48Z</time>
      </trkpt>
      <trkpt lat="45.65241" lon="6.17522">
        <ele>803</ele>
        <time>2010-10-09T10:55:49Z</time>
      </trkpt>
      <trkpt lat="45.65243" lon="6.17523">
        <ele>803</ele>
        <time>2010-10-09T10:55:50Z</time>
      </trkpt>
      <trkpt lat="45.65245" lon="6.17524">
        <ele>803</ele>
        <time>2010-10-09T10:55:51Z</time>
      </trkpt>
      <trkpt lat="45.65246" lon="6.17526">
        <ele>804</ele>
        <time>2010-10-09T10:55:52Z</time>
      </trkpt>
      <trkpt lat="45.65248" lon="6.17527">
        <ele>804</ele>
        <time>2010-10-09T10:55:53Z</time>
      </trkpt>
      <trkpt lat="45.6525" lon="6.17529">
        <ele>803</ele>
        <time>2010-10-09T10:55:54Z</time>
      </trkpt>
      <trkpt lat="45.65252" lon="6.1753">
        <ele>803</ele>
        <time>2010-10-09T10:55:55Z</time>
      </trkpt>
      <trkpt lat="45.65254" lon="6.17531">
        <ele>803</ele>
        <time>2010-10-09T10:55:56Z</time>
      </trkpt>
      <trkpt lat="45.65256" lon="6.17532">
        <ele>803</ele>
        <time>2010-10-09T10:55:57Z</time>
      </trkpt>
      <trkpt lat="45.65258" lon="6.17532">
        <ele>804</ele>
        <time>2010-10-09T10:55:58Z</time>
      </trkpt>
      <trkpt lat="45.6526" lon="6.17533">
        <ele>804</ele>
        <time>2010-10-09T10:55:59Z</time>
      </trkpt>
      <trkpt lat="45.65262" lon="6.17534">
        <ele>804</ele>
        <time>2010-10-09T10:56:00Z</time>
      </trkpt>
      <trkpt lat="45.65264" lon="6.17535">
        <ele>804</ele>
        <time>2010-10-09T10:56:01Z</time>
      </trkpt>
      <trkpt lat="45.65266" lon="6.17534">
        <ele>804</ele>
        <time>2010-10-09T10:56:02Z</time>
      </trkpt>
      <trkpt lat="45.65268" lon="6.17532">
        <ele>804</ele>
        <time>2010-10-09T10:56:03Z</time>
      </trkpt>
      <trkpt lat="45.6527" lon="6.17532">
        <ele>804</ele>
        <time>2010-10-09T10:56:04Z</time>
      </trkpt>
      <trkpt lat="45.65273" lon="6.17532">
        <ele>804</ele>
        <time>2010-10-09T10:56:05Z</time>
      </trkpt>
      <trkpt lat="45.65275" lon="6.1753">
        <ele>804</ele>
        <time>2010-10-09T10:56:06Z</time>
      </trkpt>
      <trkpt lat="45.65278" lon="6.1753">
        <ele>804</ele>
        <time>2010-10-09T10:56:07Z</time>
      </trkpt>
      <trkpt lat="45.65281" lon="6.1753">
        <ele>804</ele>
        <time>2010-10-09T10:56:08Z</time>
      </trkpt>
      <trkpt lat="45.65283" lon="6.1753">
        <ele>804</ele>
        <time>2010-10-09T10:56:09Z</time>
      </trkpt>
      <trkpt lat="45.65285" lon="6.1753">
        <ele>804</ele>
        <time>2010-10-09T10:56:10Z</time>
      </trkpt>
      <trkpt lat="45.65287" lon="6.1753">
        <ele>804</ele>
        <time>2010-10-09T10:56:11Z</time>
      </trkpt>
      <trkpt lat="45.65289" lon="6.1753">
        <ele>804</ele>
        <time>2010-10-09T10:56:12Z</time>
      </trkpt>
      <trkpt lat="45.65291" lon="6.17529">
        <ele>804</ele>
        <time>2010-10-09T10:56:13Z</time>
      </trkpt>
      <trkpt lat="45.65293" lon="6.17529">
        <ele>804</ele>
        <time>2010-10-09T10:56:14Z</time>
      </trkpt>
      <trkpt lat="45.65295" lon="6.17529">
        <ele>804</ele>
        <time>2010-10-09T10:56:15Z</time>
      </trkpt>
      <trkpt lat="45.65297" lon="6.1753">
        <ele>804</ele>
        <time>2010-10-09T10:56:16Z</time>
      </trkpt>
      <trkpt lat="45.65299" lon="6.1753">
        <ele>804</ele>
        <time>2010-10-09T10:56:17Z</time>
      </trkpt>
      <trkpt lat="45.65301" lon="6.1753">
        <ele>804</ele>
        <time>2010-10-09T10:56:18Z</time>
      </trkpt>
      <trkpt lat="45.65303" lon="6.17531">
        <ele>804</ele>
        <time>2010-10-09T10:56:19Z</time>
      </trkpt>
      <trkpt lat="45.65305" lon="6.17532">
        <ele>804</ele>
        <time>2010-10-09T10:56:20Z</time>
      </trkpt>
      <trkpt lat="45.65307" lon="6.17532">
        <ele>804</ele>
        <time>2010-10-09T10:56:21Z</time>
      </trkpt>
      <trkpt lat="45.65309" lon="6.17533">
        <ele>804</ele>
        <time>2010-10-09T10:56:22Z</time>
      </trkpt>
      <trkpt lat="45.65311" lon="6.17534">
        <ele>804</ele>
        <time>2010-10-09T10:56:23Z</time>
      </trkpt>
      <trkpt lat="45.65313" lon="6.17535">
        <ele>804</ele>
        <time>2010-10-09T10:56:24Z</time>
      </trkpt>
      <trkpt lat="45.65316" lon="6.17536">
        <ele>804</ele>
        <time>2010-10-09T10:56:25Z</time>
      </trkpt>
      <trkpt lat="45.65318" lon="6.17537">
        <ele>804</ele>
        <time>2010-10-09T10:56:26Z</time>
      </trkpt>
      <trkpt lat="45.6532" lon="6.17538">
        <ele>804</ele>
        <time>2010-10-09T10:56:27Z</time>
      </trkpt>
      <trkpt lat="45.65322" lon="6.17539">
        <ele>804</ele>
        <time>2010-10-09T10:56:28Z</time>
      </trkpt>
      <trkpt lat="45.65324" lon="6.1754">
        <ele>804</ele>
        <time>2010-10-09T10:56:29Z</time>
      </trkpt>
      <trkpt lat="45.65325" lon="6.17541">
        <ele>805</ele>
        <time>2010-10-09T10:56:30Z</time>
      </trkpt>
      <trkpt lat="45.65327" lon="6.17543">
        <ele>805</ele>
        <time>2010-10-09T10:56:31Z</time>
      </trkpt>
      <trkpt lat="45.65329" lon="6.17544">
        <ele>805</ele>
        <time>2010-10-09T10:56:32Z</time>
      </trkpt>
      <trkpt lat="45.65331" lon="6.17545">
        <ele>805</ele>
        <time>2010-10-09T10:56:33Z</time>
      </trkpt>
      <trkpt lat="45.65333" lon="6.17547">
        <ele>805</ele>
        <time>2010-10-09T10:56:34Z</time>
      </trkpt>
      <trkpt lat="45.65334" lon="6.17548">
        <ele>806</ele>
        <time>2010-10-09T10:56:35Z</time>
      </trkpt>
      <trkpt lat="45.65336" lon="6.17549">
        <ele>807</ele>
        <time>2010-10-09T10:56:36Z</time>
      </trkpt>
      <trkpt lat="45.65338" lon="6.1755">
        <ele>807</ele>
        <time>2010-10-09T10:56:37Z</time>
      </trkpt>
      <trkpt lat="45.6534" lon="6.17551">
        <ele>807</ele>
        <time>2010-10-09T10:56:38Z</time>
      </trkpt>
      <trkpt lat="45.65342" lon="6.17553">
        <ele>807</ele>
        <time>2010-10-09T10:56:39Z</time>
      </trkpt>
      <trkpt lat="45.65343" lon="6.17554">
        <ele>807</ele>
        <time>2010-10-09T10:56:40Z</time>
      </trkpt>
      <trkpt lat="45.65345" lon="6.17555">
        <ele>807</ele>
        <time>2010-10-09T10:56:41Z</time>
      </trkpt>
      <trkpt lat="45.65347" lon="6.17556">
        <ele>807</ele>
        <time>2010-10-09T10:56:42Z</time>
      </trkpt>
      <trkpt lat="45.65348" lon="6.17558">
        <ele>807</ele>
        <time>2010-10-09T10:56:43Z</time>
      </trkpt>
      <trkpt lat="45.6535" lon="6.17559">
        <ele>808</ele>
        <time>2010-10-09T10:56:44Z</time>
      </trkpt>
      <trkpt lat="45.65352" lon="6.1756">
        <ele>808</ele>
        <time>2010-10-09T10:56:45Z</time>
      </trkpt>
      <trkpt lat="45.65354" lon="6.17562">
        <ele>808</ele>
        <time>2010-10-09T10:56:46Z</time>
      </trkpt>
      <trkpt lat="45.65356" lon="6.17563">
        <ele>808</ele>
        <time>2010-10-09T10:56:47Z</time>
      </trkpt>
      <trkpt lat="45.65357" lon="6.17565">
        <ele>808</ele>
        <time>2010-10-09T10:56:48Z</time>
      </trkpt>
      <trkpt lat="45.65359" lon="6.17566">
        <ele>808</ele>
        <time>2010-10-09T10:56:49Z</time>
      </trkpt>
      <trkpt lat="45.65361" lon="6.17567">
        <ele>808</ele>
        <time>2010-10-09T10:56:50Z</time>
      </trkpt>
      <trkpt lat="45.65363" lon="6.17569">
        <ele>808</ele>
        <time>2010-10-09T10:56:51Z</time>
      </trkpt>
      <trkpt lat="45.65364" lon="6.1757">
        <ele>808</ele>
        <time>2010-10-09T10:56:52Z</time>
      </trkpt>
      <trkpt lat="45.65366" lon="6.17571">
        <ele>808</ele>
        <time>2010-10-09T10:56:53Z</time>
      </trkpt>
      <trkpt lat="45.65368" lon="6.17573">
        <ele>808</ele>
        <time>2010-10-09T10:56:54Z</time>
      </trkpt>
      <trkpt lat="45.6537" lon="6.17574">
        <ele>808</ele>
        <time>2010-10-09T10:56:55Z</time>
      </trkpt>
      <trkpt lat="45.65372" lon="6.17576">
        <ele>808</ele>
        <time>2010-10-09T10:56:56Z</time>
      </trkpt>
      <trkpt lat="45.65374" lon="6.17578">
        <ele>808</ele>
        <time>2010-10-09T10:56:57Z</time>
      </trkpt>
      <trkpt lat="45.65375" lon="6.17579">
        <ele>808</ele>
        <time>2010-10-09T10:56:58Z</time>
      </trkpt>
      <trkpt lat="45.65377" lon="6.1758">
        <ele>809</ele>
        <time>2010-10-09T10:56:59Z</time>
      </trkpt>
      <trkpt lat="45.65379" lon="6.17582">
        <ele>809</ele>
        <time>2010-10-09T10:57:00Z</time>
      </trkpt>
      <trkpt lat="45.65381" lon="6.17583">
        <ele>809</ele>
        <time>2010-10-09T10:57:01Z</time>
      </trkpt>
      <trkpt lat="45.65382" lon="6.17584">
        <ele>815</ele>
        <time>2010-10-09T10:57:02Z</time>
      </trkpt>
      <trkpt lat="45.65384" lon="6.17585">
        <ele>815</ele>
        <time>2010-10-09T10:57:03Z</time>
      </trkpt>
      <trkpt lat="45.65386" lon="6.17586">
        <ele>815</ele>
        <time>2010-10-09T10:57:04Z</time>
      </trkpt>
      <trkpt lat="45.65388" lon="6.17588">
        <ele>815</ele>
        <time>2010-10-09T10:57:05Z</time>
      </trkpt>
      <trkpt lat="45.6539" lon="6.17589">
        <ele>815</ele>
        <time>2010-10-09T10:57:06Z</time>
      </trkpt>
      <trkpt lat="45.65391" lon="6.1759">
        <ele>815</ele>
        <time>2010-10-09T10:57:07Z</time>
      </trkpt>
      <trkpt lat="45.65393" lon="6.17592">
        <ele>815</ele>
        <time>2010-10-09T10:57:08Z</time>
      </trkpt>
      <trkpt lat="45.65395" lon="6.17593">
        <ele>815</ele>
        <time>2010-10-09T10:57:09Z</time>
      </trkpt>
      <trkpt lat="45.65397" lon="6.17595">
        <ele>815</ele>
        <time>2010-10-09T10:57:10Z</time>
      </trkpt>
      <trkpt lat="45.65398" lon="6.17596">
        <ele>815</ele>
        <time>2010-10-09T10:57:11Z</time>
      </trkpt>
      <trkpt lat="45.654" lon="6.17597">
        <ele>815</ele>
        <time>2010-10-09T10:57:12Z</time>
      </trkpt>
      <trkpt lat="45.65401" lon="6.17599">
        <ele>815</ele>
        <time>2010-10-09T10:57:13Z</time>
      </trkpt>
      <trkpt lat="45.65403" lon="6.176">
        <ele>815</ele>
        <time>2010-10-09T10:57:14Z</time>
      </trkpt>
      <trkpt lat="45.65404" lon="6.17601">
        <ele>815</ele>
        <time>2010-10-09T10:57:15Z</time>
      </trkpt>
      <trkpt lat="45.65406" lon="6.17602">
        <ele>815</ele>
        <time>2010-10-09T10:57:16Z</time>
      </trkpt>
      <trkpt lat="45.65408" lon="6.17604">
        <ele>815</ele>
        <time>2010-10-09T10:57:17Z</time>
      </trkpt>
      <trkpt lat="45.65409" lon="6.17605">
        <ele>815</ele>
        <time>2010-10-09T10:57:18Z</time>
      </trkpt>
      <trkpt lat="45.65411" lon="6.17607">
        <ele>815</ele>
        <time>2010-10-09T10:57:19Z</time>
      </trkpt>
      <trkpt lat="45.65412" lon="6.17608">
        <ele>815</ele>
        <time>2010-10-09T10:57:20Z</time>
      </trkpt>
      <trkpt lat="45.65414" lon="6.1761">
        <ele>816</ele>
        <time>2010-10-09T10:57:21Z</time>
      </trkpt>
      <trkpt lat="45.65415" lon="6.17611">
        <ele>816</ele>
        <time>2010-10-09T10:57:22Z</time>
      </trkpt>
      <trkpt lat="45.65416" lon="6.17613">
        <ele>816</ele>
        <time>2010-10-09T10:57:23Z</time>
      </trkpt>
      <trkpt lat="45.65417" lon="6.17615">
        <ele>816</ele>
        <time>2010-10-09T10:57:24Z</time>
      </trkpt>
      <trkpt lat="45.65419" lon="6.17616">
        <ele>816</ele>
        <time>2010-10-09T10:57:25Z</time>
      </trkpt>
      <trkpt lat="45.6542" lon="6.17617">
        <ele>816</ele>
        <time>2010-10-09T10:57:26Z</time>
      </trkpt>
      <trkpt lat="45.65422" lon="6.17619">
        <ele>816</ele>
        <time>2010-10-09T10:57:27Z</time>
      </trkpt>
      <trkpt lat="45.65424" lon="6.17621">
        <ele>817</ele>
        <time>2010-10-09T10:57:28Z</time>
      </trkpt>
      <trkpt lat="45.65425" lon="6.17623">
        <ele>817</ele>
        <time>2010-10-09T10:57:29Z</time>
      </trkpt>
      <trkpt lat="45.65427" lon="6.17624">
        <ele>817</ele>
        <time>2010-10-09T10:57:30Z</time>
      </trkpt>
      <trkpt lat="45.65429" lon="6.17626">
        <ele>817</ele>
        <time>2010-10-09T10:57:31Z</time>
      </trkpt>
      <trkpt lat="45.6543" lon="6.17627">
        <ele>817</ele>
        <time>2010-10-09T10:57:32Z</time>
      </trkpt>
      <trkpt lat="45.65432" lon="6.17629">
        <ele>817</ele>
        <time>2010-10-09T10:57:33Z</time>
      </trkpt>
      <trkpt lat="45.65434" lon="6.17631">
        <ele>817</ele>
        <time>2010-10-09T10:57:34Z</time>
      </trkpt>
      <trkpt lat="45.65435" lon="6.17633">
        <ele>817</ele>
        <time>2010-10-09T10:57:35Z</time>
      </trkpt>
      <trkpt lat="45.65437" lon="6.17634">
        <ele>817</ele>
        <time>2010-10-09T10:57:36Z</time>
      </trkpt>
      <trkpt lat="45.65439" lon="6.17636">
        <ele>817</ele>
        <time>2010-10-09T10:57:37Z</time>
      </trkpt>
      <trkpt lat="45.65441" lon="6.17638">
        <ele>818</ele>
        <time>2010-10-09T10:57:38Z</time>
      </trkpt>
      <trkpt lat="45.65443" lon="6.1764">
        <ele>818</ele>
        <time>2010-10-09T10:57:39Z</time>
      </trkpt>
      <trkpt lat="45.65445" lon="6.17641">
        <ele>818</ele>
        <time>2010-10-09T10:57:40Z</time>
      </trkpt>
      <trkpt lat="45.65447" lon="6.17643">
        <ele>818</ele>
        <time>2010-10-09T10:57:41Z</time>
      </trkpt>
      <trkpt lat="45.65448" lon="6.17645">
        <ele>818</ele>
        <time>2010-10-09T10:57:42Z</time>
      </trkpt>
      <trkpt lat="45.65451" lon="6.17646">
        <ele>818</ele>
        <time>2010-10-09T10:57:43Z</time>
      </trkpt>
      <trkpt lat="45.65453" lon="6.17648">
        <ele>818</ele>
        <time>2010-10-09T10:57:44Z</time>
      </trkpt>
      <trkpt lat="45.65454" lon="6.17649">
        <ele>818</ele>
        <time>2010-10-09T10:57:45Z</time>
      </trkpt>
      <trkpt lat="45.65456" lon="6.17651">
        <ele>818</ele>
        <time>2010-10-09T10:57:46Z</time>
      </trkpt>
      <trkpt lat="45.65458" lon="6.17652">
        <ele>818</ele>
        <time>2010-10-09T10:57:47Z</time>
      </trkpt>
      <trkpt lat="45.6546" lon="6.17653">
        <ele>818</ele>
        <time>2010-10-09T10:57:48Z</time>
      </trkpt>
      <trkpt lat="45.65462" lon="6.17655">
        <ele>818</ele>
        <time>2010-10-09T10:57:49Z</time>
      </trkpt>
      <trkpt lat="45.65464" lon="6.17656">
        <ele>818</ele>
        <time>2010-10-09T10:57:50Z</time>
      </trkpt>
      <trkpt lat="45.65466" lon="6.17657">
        <ele>818</ele>
        <time>2010-10-09T10:57:51Z</time>
      </trkpt>
      <trkpt lat="45.65468" lon="6.17658">
        <ele>818</ele>
        <time>2010-10-09T10:57:52Z</time>
      </trkpt>
      <trkpt lat="45.6547" lon="6.1766">
        <ele>818</ele>
        <time>2010-10-09T10:57:53Z</time>
      </trkpt>
      <trkpt lat="45.65472" lon="6.17661">
        <ele>818</ele>
        <time>2010-10-09T10:57:54Z</time>
      </trkpt>
      <trkpt lat="45.65473" lon="6.17662">
        <ele>818</ele>
        <time>2010-10-09T10:57:55Z</time>
      </trkpt>
      <trkpt lat="45.65475" lon="6.17663">
        <ele>818</ele>
        <time>2010-10-09T10:57:56Z</time>
      </trkpt>
      <trkpt lat="45.65477" lon="6.17665">
        <ele>818</ele>
        <time>2010-10-09T10:57:57Z</time>
      </trkpt>
      <trkpt lat="45.65479" lon="6.17666">
        <ele>818</ele>
        <time>2010-10-09T10:57:58Z</time>
      </trkpt>
      <trkpt lat="45.6548" lon="6.17667">
        <ele>823</ele>
        <time>2010-10-09T10:57:59Z</time>
      </trkpt>
      <trkpt lat="45.65482" lon="6.17668">
        <ele>823</ele>
        <time>2010-10-09T10:58:00Z</time>
      </trkpt>
      <trkpt lat="45.65483" lon="6.17669">
        <ele>823</ele>
        <time>2010-10-09T10:58:01Z</time>
      </trkpt>
      <trkpt lat="45.65485" lon="6.17671">
        <ele>823</ele>
        <time>2010-10-09T10:58:02Z</time>
      </trkpt>
      <trkpt lat="45.65486" lon="6.17672">
        <ele>823</ele>
        <time>2010-10-09T10:58:03Z</time>
      </trkpt>
      <trkpt lat="45.65488" lon="6.17674">
        <ele>823</ele>
        <time>2010-10-09T10:58:04Z</time>
      </trkpt>
      <trkpt lat="45.6549" lon="6.17677">
        <ele>823</ele>
        <time>2010-10-09T10:58:06Z</time>
      </trkpt>
      <trkpt lat="45.65491" lon="6.17678">
        <ele>823</ele>
        <time>2010-10-09T10:58:07Z</time>
      </trkpt>
      <trkpt lat="45.65493" lon="6.1768">
        <ele>823</ele>
        <time>2010-10-09T10:58:08Z</time>
      </trkpt>
      <trkpt lat="45.65495" lon="6.17681">
        <ele>823</ele>
        <time>2010-10-09T10:58:09Z</time>
      </trkpt>
      <trkpt lat="45.65497" lon="6.17684">
        <ele>823</ele>
        <time>2010-10-09T10:58:11Z</time>
      </trkpt>
      <trkpt lat="45.65499" lon="6.17686">
        <ele>823</ele>
        <time>2010-10-09T10:58:12Z</time>
      </trkpt>
      <trkpt lat="45.655" lon="6.17688">
        <ele>824</ele>
        <time>2010-10-09T10:58:13Z</time>
      </trkpt>
      <trkpt lat="45.65501" lon="6.17689">
        <ele>824</ele>
        <time>2010-10-09T10:58:14Z</time>
      </trkpt>
      <trkpt lat="45.65503" lon="6.17692">
        <ele>824</ele>
        <time>2010-10-09T10:58:15Z</time>
      </trkpt>
      <trkpt lat="45.65505" lon="6.17694">
        <ele>824</ele>
        <time>2010-10-09T10:58:16Z</time>
      </trkpt>
      <trkpt lat="45.65507" lon="6.17696">
        <ele>825</ele>
        <time>2010-10-09T10:58:17Z</time>
      </trkpt>
      <trkpt lat="45.65508" lon="6.17697">
        <ele>825</ele>
        <time>2010-10-09T10:58:18Z</time>
      </trkpt>
      <trkpt lat="45.6551" lon="6.17699">
        <ele>825</ele>
        <time>2010-10-09T10:58:19Z</time>
      </trkpt>
      <trkpt lat="45.65512" lon="6.17701">
        <ele>825</ele>
        <time>2010-10-09T10:58:20Z</time>
      </trkpt>
      <trkpt lat="45.65514" lon="6.17702">
        <ele>825</ele>
        <time>2010-10-09T10:58:21Z</time>
      </trkpt>
      <trkpt lat="45.65516" lon="6.17705">
        <ele>826</ele>
        <time>2010-10-09T10:58:23Z</time>
      </trkpt>
      <trkpt lat="45.65518" lon="6.17706">
        <ele>826</ele>
        <time>2010-10-09T10:58:24Z</time>
      </trkpt>
      <trkpt lat="45.65519" lon="6.17708">
        <ele>826</ele>
        <time>2010-10-09T10:58:25Z</time>
      </trkpt>
      <trkpt lat="45.65521" lon="6.1771">
        <ele>826</ele>
        <time>2010-10-09T10:58:26Z</time>
      </trkpt>
      <trkpt lat="45.65523" lon="6.17712">
        <ele>826</ele>
        <time>2010-10-09T10:58:27Z</time>
      </trkpt>
      <trkpt lat="45.65524" lon="6.17714">
        <ele>826</ele>
        <time>2010-10-09T10:58:28Z</time>
      </trkpt>
      <trkpt lat="45.65525" lon="6.17716">
        <ele>826</ele>
        <time>2010-10-09T10:58:29Z</time>
      </trkpt>
      <trkpt lat="45.65527" lon="6.17717">
        <ele>827</ele>
        <time>2010-10-09T10:58:30Z</time>
      </trkpt>
      <trkpt lat="45.65529" lon="6.17719">
        <ele>827</ele>
        <time>2010-10-09T10:58:31Z</time>
      </trkpt>
      <trkpt lat="45.65531" lon="6.1772">
        <ele>827</ele>
        <time>2010-10-09T10:58:32Z</time>
      </trkpt>
      <trkpt lat="45.65533" lon="6.17722">
        <ele>827</ele>
        <time>2010-10-09T10:58:33Z</time>
      </trkpt>
      <trkpt lat="45.65536" lon="6.17724">
        <ele>827</ele>
        <time>2010-10-09T10:58:34Z</time>
      </trkpt>
      <trkpt lat="45.65538" lon="6.17725">
        <ele>827</ele>
        <time>2010-10-09T10:58:35Z</time>
      </trkpt>
      <trkpt lat="45.6554" lon="6.17726">
        <ele>827</ele>
        <time>2010-10-09T10:58:36Z</time>
      </trkpt>
      <trkpt lat="45.65542" lon="6.17727">
        <ele>827</ele>
        <time>2010-10-09T10:58:37Z</time>
      </trkpt>
      <trkpt lat="45.65545" lon="6.17728">
        <ele>827</ele>
        <time>2010-10-09T10:58:38Z</time>
      </trkpt>
      <trkpt lat="45.65547" lon="6.17729">
        <ele>827</ele>
        <time>2010-10-09T10:58:39Z</time>
      </trkpt>
      <trkpt lat="45.65549" lon="6.17729">
        <ele>828</ele>
        <time>2010-10-09T10:58:40Z</time>
      </trkpt>
      <trkpt lat="45.65551" lon="6.1773">
        <ele>828</ele>
        <time>2010-10-09T10:58:41Z</time>
      </trkpt>
      <trkpt lat="45.65553" lon="6.17729">
        <ele>828</ele>
        <time>2010-10-09T10:58:42Z</time>
      </trkpt>
      <trkpt lat="45.65554" lon="6.17728">
        <ele>828</ele>
        <time>2010-10-09T10:58:43Z</time>
      </trkpt>
      <trkpt lat="45.65556" lon="6.17728">
        <ele>828</ele>
        <time>2010-10-09T10:58:44Z</time>
      </trkpt>
      <trkpt lat="45.65558" lon="6.17727">
        <ele>828</ele>
        <time>2010-10-09T10:58:45Z</time>
      </trkpt>
      <trkpt lat="45.65559" lon="6.17727">
        <ele>828</ele>
        <time>2010-10-09T10:58:46Z</time>
      </trkpt>
      <trkpt lat="45.65561" lon="6.17726">
        <ele>828</ele>
        <time>2010-10-09T10:58:47Z</time>
      </trkpt>
      <trkpt lat="45.65563" lon="6.17725">
        <ele>828</ele>
        <time>2010-10-09T10:58:48Z</time>
      </trkpt>
      <trkpt lat="45.65564" lon="6.17724">
        <ele>828</ele>
        <time>2010-10-09T10:58:49Z</time>
      </trkpt>
      <trkpt lat="45.65565" lon="6.17723">
        <ele>828</ele>
        <time>2010-10-09T10:58:50Z</time>
      </trkpt>
      <trkpt lat="45.65567" lon="6.17722">
        <ele>828</ele>
        <time>2010-10-09T10:58:51Z</time>
      </trkpt>
      <trkpt lat="45.65568" lon="6.17721">
        <ele>828</ele>
        <time>2010-10-09T10:58:52Z</time>
      </trkpt>
      <trkpt lat="45.65569" lon="6.1772">
        <ele>828</ele>
        <time>2010-10-09T10:58:53Z</time>
      </trkpt>
      <trkpt lat="45.65571" lon="6.17719">
        <ele>827</ele>
        <time>2010-10-09T10:58:54Z</time>
      </trkpt>
      <trkpt lat="45.65572" lon="6.17718">
        <ele>827</ele>
        <time>2010-10-09T10:58:55Z</time>
      </trkpt>
      <trkpt lat="45.65574" lon="6.17717">
        <ele>827</ele>
        <time>2010-10-09T10:58:56Z</time>
      </trkpt>
      <trkpt lat="45.65576" lon="6.17717">
        <ele>827</ele>
        <time>2010-10-09T10:58:57Z</time>
      </trkpt>
      <trkpt lat="45.65577" lon="6.17716">
        <ele>827</ele>
        <time>2010-10-09T10:58:58Z</time>
      </trkpt>
      <trkpt lat="45.65579" lon="6.17715">
        <ele>827</ele>
        <time>2010-10-09T10:58:59Z</time>
      </trkpt>
      <trkpt lat="45.65581" lon="6.17714">
        <ele>827</ele>
        <time>2010-10-09T10:59:00Z</time>
      </trkpt>
      <trkpt lat="45.65583" lon="6.17713">
        <ele>827</ele>
        <time>2010-10-09T10:59:01Z</time>
      </trkpt>
      <trkpt lat="45.65584" lon="6.17712">
        <ele>830</ele>
        <time>2010-10-09T10:59:02Z</time>
      </trkpt>
      <trkpt lat="45.65585" lon="6.17711">
        <ele>830</ele>
        <time>2010-10-09T10:59:03Z</time>
      </trkpt>
      <trkpt lat="45.65587" lon="6.17711">
        <ele>830</ele>
        <time>2010-10-09T10:59:04Z</time>
      </trkpt>
      <trkpt lat="45.65588" lon="6.17711">
        <ele>830</ele>
        <time>2010-10-09T10:59:05Z</time>
      </trkpt>
      <trkpt lat="45.6559" lon="6.1771">
        <ele>830</ele>
        <time>2010-10-09T10:59:06Z</time>
      </trkpt>
      <trkpt lat="45.65591" lon="6.17709">
        <ele>830</ele>
        <time>2010-10-09T10:59:07Z</time>
      </trkpt>
      <trkpt lat="45.65593" lon="6.17708">
        <ele>830</ele>
        <time>2010-10-09T10:59:08Z</time>
      </trkpt>
      <trkpt lat="45.65594" lon="6.17707">
        <ele>830</ele>
        <time>2010-10-09T10:59:09Z</time>
      </trkpt>
      <trkpt lat="45.65596" lon="6.17706">
        <ele>830</ele>
        <time>2010-10-09T10:59:10Z</time>
      </trkpt>
      <trkpt lat="45.65598" lon="6.17705">
        <ele>830</ele>
        <time>2010-10-09T10:59:11Z</time>
      </trkpt>
      <trkpt lat="45.656" lon="6.17705">
        <ele>830</ele>
        <time>2010-10-09T10:59:12Z</time>
      </trkpt>
      <trkpt lat="45.65601" lon="6.17705">
        <ele>830</ele>
        <time>2010-10-09T10:59:13Z</time>
      </trkpt>
      <trkpt lat="45.65603" lon="6.17704">
        <ele>830</ele>
        <time>2010-10-09T10:59:14Z</time>
      </trkpt>
      <trkpt lat="45.65605" lon="6.17703">
        <ele>830</ele>
        <time>2010-10-09T10:59:15Z</time>
      </trkpt>
      <trkpt lat="45.65606" lon="6.17702">
        <ele>830</ele>
        <time>2010-10-09T10:59:16Z</time>
      </trkpt>
      <trkpt lat="45.65607" lon="6.17699">
        <ele>830</ele>
        <time>2010-10-09T10:59:17Z</time>
      </trkpt>
      <trkpt lat="45.65609" lon="6.17698">
        <ele>830</ele>
        <time>2010-10-09T10:59:18Z</time>
      </trkpt>
      <trkpt lat="45.65611" lon="6.17698">
        <ele>830</ele>
        <time>2010-10-09T10:59:19Z</time>
      </trkpt>
      <trkpt lat="45.65613" lon="6.17699">
        <ele>830</ele>
        <time>2010-10-09T10:59:20Z</time>
      </trkpt>
      <trkpt lat="45.65615" lon="6.17699">
        <ele>831</ele>
        <time>2010-10-09T10:59:21Z</time>
      </trkpt>
      <trkpt lat="45.65617" lon="6.17699">
        <ele>831</ele>
        <time>2010-10-09T10:59:22Z</time>
      </trkpt>
      <trkpt lat="45.6562" lon="6.17701">
        <ele>831</ele>
        <time>2010-10-09T10:59:23Z</time>
      </trkpt>
      <trkpt lat="45.65622" lon="6.17703">
        <ele>831</ele>
        <time>2010-10-09T10:59:24Z</time>
      </trkpt>
      <trkpt lat="45.65625" lon="6.17705">
        <ele>831</ele>
        <time>2010-10-09T10:59:25Z</time>
      </trkpt>
      <trkpt lat="45.65626" lon="6.17706">
        <ele>831</ele>
        <time>2010-10-09T10:59:26Z</time>
      </trkpt>
      <trkpt lat="45.65628" lon="6.17708">
        <ele>832</ele>
        <time>2010-10-09T10:59:27Z</time>
      </trkpt>
      <trkpt lat="45.6563" lon="6.1771">
        <ele>832</ele>
        <time>2010-10-09T10:59:28Z</time>
      </trkpt>
      <trkpt lat="45.65631" lon="6.17712">
        <ele>832</ele>
        <time>2010-10-09T10:59:29Z</time>
      </trkpt>
      <trkpt lat="45.65632" lon="6.17714">
        <ele>832</ele>
        <time>2010-10-09T10:59:30Z</time>
      </trkpt>
      <trkpt lat="45.65633" lon="6.17715">
        <ele>832</ele>
        <time>2010-10-09T10:59:31Z</time>
      </trkpt>
      <trkpt lat="45.65635" lon="6.17717">
        <ele>832</ele>
        <time>2010-10-09T10:59:32Z</time>
      </trkpt>
      <trkpt lat="45.65637" lon="6.17718">
        <ele>832</ele>
        <time>2010-10-09T10:59:33Z</time>
      </trkpt>
      <trkpt lat="45.6564" lon="6.17719">
        <ele>833</ele>
        <time>2010-10-09T10:59:34Z</time>
      </trkpt>
      <trkpt lat="45.65642" lon="6.17721">
        <ele>833</ele>
        <time>2010-10-09T10:59:35Z</time>
      </trkpt>
      <trkpt lat="45.65644" lon="6.17722">
        <ele>833</ele>
        <time>2010-10-09T10:59:36Z</time>
      </trkpt>
      <trkpt lat="45.65646" lon="6.17724">
        <ele>833</ele>
        <time>2010-10-09T10:59:37Z</time>
      </trkpt>
      <trkpt lat="45.65648" lon="6.17725">
        <ele>833</ele>
        <time>2010-10-09T10:59:38Z</time>
      </trkpt>
      <trkpt lat="45.6565" lon="6.17727">
        <ele>834</ele>
        <time>2010-10-09T10:59:39Z</time>
      </trkpt>
      <trkpt lat="45.65653" lon="6.17729">
        <ele>834</ele>
        <time>2010-10-09T10:59:40Z</time>
      </trkpt>
      <trkpt lat="45.65656" lon="6.17731">
        <ele>834</ele>
        <time>2010-10-09T10:59:41Z</time>
      </trkpt>
      <trkpt lat="45.65658" lon="6.17734">
        <ele>835</ele>
        <time>2010-10-09T10:59:42Z</time>
      </trkpt>
      <trkpt lat="45.6566" lon="6.17735">
        <ele>835</ele>
        <time>2010-10-09T10:59:43Z</time>
      </trkpt>
      <trkpt lat="45.65663" lon="6.17737">
        <ele>835</ele>
        <time>2010-10-09T10:59:44Z</time>
      </trkpt>
      <trkpt lat="45.65666" lon="6.1774">
        <ele>836</ele>
        <time>2010-10-09T10:59:45Z</time>
      </trkpt>
      <trkpt lat="45.65668" lon="6.17743">
        <ele>838</ele>
        <time>2010-10-09T10:59:46Z</time>
      </trkpt>
      <trkpt lat="45.6567" lon="6.17745">
        <ele>838</ele>
        <time>2010-10-09T10:59:47Z</time>
      </trkpt>
      <trkpt lat="45.65671" lon="6.17747">
        <ele>838</ele>
        <time>2010-10-09T10:59:48Z</time>
      </trkpt>
      <trkpt lat="45.65672" lon="6.17748">
        <ele>838</ele>
        <time>2010-10-09T10:59:49Z</time>
      </trkpt>
      <trkpt lat="45.65673" lon="6.1775">
        <ele>839</ele>
        <time>2010-10-09T10:59:50Z</time>
      </trkpt>
      <trkpt lat="45.65676" lon="6.17751">
        <ele>839</ele>
        <time>2010-10-09T10:59:52Z</time>
      </trkpt>
      <trkpt lat="45.65678" lon="6.17752">
        <ele>839</ele>
        <time>2010-10-09T10:59:53Z</time>
      </trkpt>
      <trkpt lat="45.65679" lon="6.17752">
        <ele>839</ele>
        <time>2010-10-09T10:59:54Z</time>
      </trkpt>
      <trkpt lat="45.6568" lon="6.17753">
        <ele>839</ele>
        <time>2010-10-09T10:59:55Z</time>
      </trkpt>
      <trkpt lat="45.65681" lon="6.17754">
        <ele>839</ele>
        <time>2010-10-09T10:59:56Z</time>
      </trkpt>
      <trkpt lat="45.65683" lon="6.17755">
        <ele>839</ele>
        <time>2010-10-09T10:59:57Z</time>
      </trkpt>
      <trkpt lat="45.65685" lon="6.17756">
        <ele>839</ele>
        <time>2010-10-09T10:59:59Z</time>
      </trkpt>
      <trkpt lat="45.65688" lon="6.17754">
        <ele>839</ele>
        <time>2010-10-09T11:00:01Z</time>
      </trkpt>
      <trkpt lat="45.65691" lon="6.17754">
        <ele>839</ele>
        <time>2010-10-09T11:00:02Z</time>
      </trkpt>
      <trkpt lat="45.65693" lon="6.17756">
        <ele>839</ele>
        <time>2010-10-09T11:00:03Z</time>
      </trkpt>
      <trkpt lat="45.65695" lon="6.17757">
        <ele>839</ele>
        <time>2010-10-09T11:00:04Z</time>
      </trkpt>
      <trkpt lat="45.65697" lon="6.17756">
        <ele>839</ele>
        <time>2010-10-09T11:00:05Z</time>
      </trkpt>
      <trkpt lat="45.65699" lon="6.17755">
        <ele>840</ele>
        <time>2010-10-09T11:00:06Z</time>
      </trkpt>
      <trkpt lat="45.657" lon="6.17753">
        <ele>840</ele>
        <time>2010-10-09T11:00:07Z</time>
      </trkpt>
      <trkpt lat="45.657" lon="6.17751">
        <ele>839</ele>
        <time>2010-10-09T11:00:08Z</time>
      </trkpt>
      <trkpt lat="45.65701" lon="6.17749">
        <ele>838</ele>
        <time>2010-10-09T11:00:09Z</time>
      </trkpt>
      <trkpt lat="45.65702" lon="6.17747">
        <ele>837</ele>
        <time>2010-10-09T11:00:10Z</time>
      </trkpt>
      <trkpt lat="45.65702" lon="6.17744">
        <ele>837</ele>
        <time>2010-10-09T11:00:11Z</time>
      </trkpt>
      <trkpt lat="45.65702" lon="6.17741">
        <ele>837</ele>
        <time>2010-10-09T11:00:12Z</time>
      </trkpt>
      <trkpt lat="45.65702" lon="6.17739">
        <ele>837</ele>
        <time>2010-10-09T11:00:13Z</time>
      </trkpt>
      <trkpt lat="45.65702" lon="6.17736">
        <ele>837</ele>
        <time>2010-10-09T11:00:14Z</time>
      </trkpt>
      <trkpt lat="45.65703" lon="6.17733">
        <ele>837</ele>
        <time>2010-10-09T11:00:15Z</time>
      </trkpt>
      <trkpt lat="45.65704" lon="6.17729">
        <ele>837</ele>
        <time>2010-10-09T11:00:16Z</time>
      </trkpt>
      <trkpt lat="45.65705" lon="6.17726">
        <ele>837</ele>
        <time>2010-10-09T11:00:17Z</time>
      </trkpt>
      <trkpt lat="45.65705" lon="6.17722">
        <ele>837</ele>
        <time>2010-10-09T11:00:18Z</time>
      </trkpt>
      <trkpt lat="45.65706" lon="6.17718">
        <ele>837</ele>
        <time>2010-10-09T11:00:19Z</time>
      </trkpt>
      <trkpt lat="45.65706" lon="6.17714">
        <ele>837</ele>
        <time>2010-10-09T11:00:20Z</time>
      </trkpt>
      <trkpt lat="45.65707" lon="6.1771">
        <ele>837</ele>
        <time>2010-10-09T11:00:21Z</time>
      </trkpt>
      <trkpt lat="45.65706" lon="6.17706">
        <ele>837</ele>
        <time>2010-10-09T11:00:22Z</time>
      </trkpt>
      <trkpt lat="45.65707" lon="6.17702">
        <ele>837</ele>
        <time>2010-10-09T11:00:23Z</time>
      </trkpt>
      <trkpt lat="45.65707" lon="6.17698">
        <ele>837</ele>
        <time>2010-10-09T11:00:24Z</time>
      </trkpt>
      <trkpt lat="45.65708" lon="6.17693">
        <ele>837</ele>
        <time>2010-10-09T11:00:25Z</time>
      </trkpt>
      <trkpt lat="45.65708" lon="6.17688">
        <ele>837</ele>
        <time>2010-10-09T11:00:26Z</time>
      </trkpt>
      <trkpt lat="45.65709" lon="6.17684">
        <ele>837</ele>
        <time>2010-10-09T11:00:27Z</time>
      </trkpt>
      <trkpt lat="45.65709" lon="6.17679">
        <ele>837</ele>
        <time>2010-10-09T11:00:28Z</time>
      </trkpt>
      <trkpt lat="45.65709" lon="6.17674">
        <ele>837</ele>
        <time>2010-10-09T11:00:29Z</time>
      </trkpt>
      <trkpt lat="45.65709" lon="6.17669">
        <ele>836</ele>
        <time>2010-10-09T11:00:30Z</time>
      </trkpt>
      <trkpt lat="45.6571" lon="6.17664">
        <ele>835</ele>
        <time>2010-10-09T11:00:31Z</time>
      </trkpt>
      <trkpt lat="45.65711" lon="6.17659">
        <ele>835</ele>
        <time>2010-10-09T11:00:32Z</time>
      </trkpt>
      <trkpt lat="45.65712" lon="6.17654">
        <ele>835</ele>
        <time>2010-10-09T11:00:33Z</time>
      </trkpt>
      <trkpt lat="45.65712" lon="6.1765">
        <ele>835</ele>
        <time>2010-10-09T11:00:34Z</time>
      </trkpt>
      <trkpt lat="45.65712" lon="6.17646">
        <ele>835</ele>
        <time>2010-10-09T11:00:35Z</time>
      </trkpt>
      <trkpt lat="45.65714" lon="6.17641">
        <ele>835</ele>
        <time>2010-10-09T11:00:36Z</time>
      </trkpt>
      <trkpt lat="45.65716" lon="6.17637">
        <ele>835</ele>
        <time>2010-10-09T11:00:37Z</time>
      </trkpt>
      <trkpt lat="45.65717" lon="6.17632">
        <ele>834</ele>
        <time>2010-10-09T11:00:38Z</time>
      </trkpt>
      <trkpt lat="45.65719" lon="6.17627">
        <ele>834</ele>
        <time>2010-10-09T11:00:39Z</time>
      </trkpt>
      <trkpt lat="45.65721" lon="6.17624">
        <ele>834</ele>
        <time>2010-10-09T11:00:40Z</time>
      </trkpt>
      <trkpt lat="45.65723" lon="6.17622">
        <ele>835</ele>
        <time>2010-10-09T11:00:41Z</time>
      </trkpt>
      <trkpt lat="45.65726" lon="6.17619">
        <ele>835</ele>
        <time>2010-10-09T11:00:42Z</time>
      </trkpt>
      <trkpt lat="45.65728" lon="6.17617">
        <ele>835</ele>
        <time>2010-10-09T11:00:43Z</time>
      </trkpt>
      <trkpt lat="45.6573" lon="6.17616">
        <ele>835</ele>
        <time>2010-10-09T11:00:44Z</time>
      </trkpt>
      <trkpt lat="45.65732" lon="6.17614">
        <ele>835</ele>
        <time>2010-10-09T11:00:45Z</time>
      </trkpt>
      <trkpt lat="45.65734" lon="6.17613">
        <ele>835</ele>
        <time>2010-10-09T11:00:46Z</time>
      </trkpt>
      <trkpt lat="45.65736" lon="6.17613">
        <ele>835</ele>
        <time>2010-10-09T11:00:47Z</time>
      </trkpt>
      <trkpt lat="45.65738" lon="6.17614">
        <ele>835</ele>
        <time>2010-10-09T11:00:48Z</time>
      </trkpt>
      <trkpt lat="45.6574" lon="6.17614">
        <ele>835</ele>
        <time>2010-10-09T11:00:49Z</time>
      </trkpt>
      <trkpt lat="45.65741" lon="6.17615">
        <ele>835</ele>
        <time>2010-10-09T11:00:50Z</time>
      </trkpt>
      <trkpt lat="45.65742" lon="6.17616">
        <ele>835</ele>
        <time>2010-10-09T11:00:51Z</time>
      </trkpt>
      <trkpt lat="45.65744" lon="6.17617">
        <ele>835</ele>
        <time>2010-10-09T11:00:52Z</time>
      </trkpt>
      <trkpt lat="45.65745" lon="6.17618">
        <ele>835</ele>
        <time>2010-10-09T11:00:53Z</time>
      </trkpt>
      <trkpt lat="45.65747" lon="6.17618">
        <ele>835</ele>
        <time>2010-10-09T11:00:54Z</time>
      </trkpt>
      <trkpt lat="45.65748" lon="6.1762">
        <ele>835</ele>
        <time>2010-10-09T11:00:55Z</time>
      </trkpt>
      <trkpt lat="45.65749" lon="6.17621">
        <ele>835</ele>
        <time>2010-10-09T11:00:56Z</time>
      </trkpt>
      <trkpt lat="45.65751" lon="6.17621">
        <ele>837</ele>
        <time>2010-10-09T11:00:57Z</time>
      </trkpt>
      <trkpt lat="45.65752" lon="6.17622">
        <ele>837</ele>
        <time>2010-10-09T11:01:01Z</time>
      </trkpt>
      <trkpt lat="45.65755" lon="6.17618">
        <ele>837</ele>
        <time>2010-10-09T11:01:06Z</time>
      </trkpt>
    </trkseg>
  </trk>
</gpx>